<?xml version='1.0' encoding='UTF-8'?><gpx version="1.1" creator="JPX - https://github.com/jenetics/jpx" xmlns="http://www.topografix.com/GPX/1/1"><trk><trkseg><trkpt lat="45.9885263749203" lon="11.70509647797764"><ele>1223.0</ele><time>2026-05-02T08:35:50.001Z</time></trkpt><trkpt lat="45.988461191884866" lon="11.705033672705872"><ele>1223.0</ele><time>2026-05-02T08:37:27Z</time></trkpt><trkpt lat="45.988398790059776" lon="11.704957452992993"><ele>1223.0</ele><time>2026-05-02T08:37:29Z</time></trkpt><trkpt lat="45.98835061499375" lon="11.704854292871827"><ele>1223.0</ele><time>2026-05-02T08:37:31Z</time></trkpt><trkpt lat="45.98834873640134" lon="11.70473752710421"><ele>1223.0</ele><time>2026-05-02T08:37:33Z</time></trkpt><trkpt lat="45.98834174598803" lon="11.704614482058183"><ele>1223.0</ele><time>2026-05-02T08:37:35Z</time></trkpt><trkpt lat="45.988303939025975" lon="11.704468921014282"><ele>1226.3333333333335</ele><time>2026-05-02T08:37:37Z</time></trkpt><trkpt lat="45.9882793079274" lon="11.704383884579991"><ele>1229.6666666666667</ele><time>2026-05-02T08:37:38Z</time></trkpt><trkpt lat="45.98827231266002" lon="11.704283597318982"><ele>1233.0</ele><time>2026-05-02T08:37:39Z</time></trkpt><trkpt lat="45.988218112908875" lon="11.704124488940204"><ele>1236.3333333333333</ele><time>2026-05-02T08:37:41.001Z</time></trkpt><trkpt lat="45.988193448310696" lon="11.704030458959354"><ele>1239.6666666666665</ele><time>2026-05-02T08:37:42.001Z</time></trkpt><trkpt lat="45.988173848039594" lon="11.703940315202846"><ele>1243.0</ele><time>2026-05-02T08:37:43.001Z</time></trkpt><trkpt lat="45.988156966078265" lon="11.703849171651575"><ele>1243.0</ele><time>2026-05-02T08:37:44.001Z</time></trkpt><trkpt lat="45.98811975503651" lon="11.70377214096014"><ele>1243.0</ele><time>2026-05-02T08:37:45.001Z</time></trkpt><trkpt lat="45.98809269602404" lon="11.703689639947848"><ele>1243.0</ele><time>2026-05-02T08:37:46.001Z</time></trkpt><trkpt lat="45.98806577650703" lon="11.703606668198645"><ele>1243.0</ele><time>2026-05-02T08:37:47.001Z</time></trkpt><trkpt lat="45.988033787558614" lon="11.703461109279257"><ele>1243.0</ele><time>2026-05-02T08:37:49.001Z</time></trkpt><trkpt lat="45.987924976288674" lon="11.703424505604698"><ele>1243.0</ele><time>2026-05-02T08:37:52.001Z</time></trkpt><trkpt lat="45.987882952903014" lon="11.70349502935784"><ele>1245.0</ele><time>2026-05-02T08:37:53.001Z</time></trkpt><trkpt lat="45.98779770789528" lon="11.703526644237078"><ele>1247.0</ele><time>2026-05-02T08:37:55.001Z</time></trkpt><trkpt lat="45.98770116887251" lon="11.70344817258055"><ele>1249.0</ele><time>2026-05-02T08:37:58.001Z</time></trkpt><trkpt lat="45.98764731686361" lon="11.703336761525408"><ele>1251.0</ele><time>2026-05-02T08:38:00.001Z</time></trkpt><trkpt lat="45.98763807315387" lon="11.70322266208157"><ele>1253.0</ele><time>2026-05-02T08:38:02.001Z</time></trkpt><trkpt lat="45.987680533598464" lon="11.703136347641896"><ele>1255.0</ele><time>2026-05-02T08:38:04.001Z</time></trkpt><trkpt lat="45.987748865645216" lon="11.702992943966612"><ele>1255.0</ele><time>2026-05-02T08:38:06.001Z</time></trkpt><trkpt lat="45.987835703562894" lon="11.702838855313761"><ele>1255.0</ele><time>2026-05-02T08:38:08.001Z</time></trkpt><trkpt lat="45.9879141482843" lon="11.70271764528015"><ele>1255.0</ele><time>2026-05-02T08:38:10.001Z</time></trkpt><trkpt lat="45.98798822169532" lon="11.70261843000354"><ele>1255.0</ele><time>2026-05-02T08:38:12.001Z</time></trkpt><trkpt lat="45.98806827195592" lon="11.702508179574963"><ele>1259.4</ele><time>2026-05-02T08:38:14.001Z</time></trkpt><trkpt lat="45.98815472120284" lon="11.702394225140862"><ele>1263.8</ele><time>2026-05-02T08:38:16.001Z</time></trkpt><trkpt lat="45.98822787197735" lon="11.702252612981509"><ele>1268.2</ele><time>2026-05-02T08:38:18.001Z</time></trkpt><trkpt lat="45.988264460057266" lon="11.702171445359003"><ele>1272.6</ele><time>2026-05-02T08:38:19.001Z</time></trkpt><trkpt lat="45.98829062722096" lon="11.702085365988943"><ele>1277.0</ele><time>2026-05-02T08:38:20.001Z</time></trkpt><trkpt lat="45.98832733762512" lon="11.70191967002263"><ele>1275.6666666666667</ele><time>2026-05-02T08:38:22.001Z</time></trkpt><trkpt lat="45.98834312117471" lon="11.701829710606246"><ele>1274.3333333333335</ele><time>2026-05-02T08:38:23.001Z</time></trkpt><trkpt lat="45.98835298396976" lon="11.701739891894837"><ele>1273.0</ele><time>2026-05-02T08:38:24.001Z</time></trkpt><trkpt lat="45.98835744571169" lon="11.701612376551914"><ele>1271.6666666666667</ele><time>2026-05-02T08:38:26.001Z</time></trkpt><trkpt lat="45.98827815512122" lon="11.701577080779819"><ele>1270.3333333333333</ele><time>2026-05-02T08:38:29.001Z</time></trkpt><trkpt lat="45.98822658942295" lon="11.701714388373299"><ele>1269.0</ele><time>2026-05-02T08:38:32.001Z</time></trkpt><trkpt lat="45.98816261639344" lon="11.701817969706424"><ele>1270.6000000000001</ele><time>2026-05-02T08:38:34.001Z</time></trkpt><trkpt lat="45.988087483806716" lon="11.701916971430053"><ele>1272.2</ele><time>2026-05-02T08:38:36.001Z</time></trkpt><trkpt lat="45.9880070253208" lon="11.701999063271636"><ele>1273.8000000000002</ele><time>2026-05-02T08:38:38.001Z</time></trkpt><trkpt lat="45.987908358808376" lon="11.701997853801005"><ele>1275.4</ele><time>2026-05-02T08:38:40.001Z</time></trkpt><trkpt lat="45.98781122113788" lon="11.701987255678972"><ele>1277.0</ele><time>2026-05-02T08:38:42.001Z</time></trkpt><trkpt lat="45.987688296618686" lon="11.7019826472858"><ele>1277.0</ele><time>2026-05-02T08:38:44.001Z</time></trkpt><trkpt lat="45.98760246282492" lon="11.701969100999863"><ele>1277.0</ele><time>2026-05-02T08:38:46.001Z</time></trkpt><trkpt lat="45.987552532527" lon="11.701901693189367"><ele>1277.0</ele><time>2026-05-02T08:38:49.001Z</time></trkpt><trkpt lat="45.987643966230245" lon="11.70181002907488"><ele>1277.0</ele><time>2026-05-02T08:39:03Z</time></trkpt><trkpt lat="45.9877378905075" lon="11.701816722763184"><ele>1277.0</ele><time>2026-05-02T08:39:05Z</time></trkpt><trkpt lat="45.98779633706397" lon="11.701732689270425"><ele>1277.0</ele><time>2026-05-02T08:39:07Z</time></trkpt><trkpt lat="45.98784928883765" lon="11.701623922126707"><ele>1280.2</ele><time>2026-05-02T08:39:09Z</time></trkpt><trkpt lat="45.9878959780136" lon="11.701481245883336"><ele>1283.4</ele><time>2026-05-02T08:39:11Z</time></trkpt><trkpt lat="45.987915948672196" lon="11.70136963367402"><ele>1286.6000000000001</ele><time>2026-05-02T08:39:13Z</time></trkpt><trkpt lat="45.98792400114617" lon="11.701232029870175"><ele>1289.8000000000002</ele><time>2026-05-02T08:39:15Z</time></trkpt><trkpt lat="45.987931412366905" lon="11.70109392632914"><ele>1293.0</ele><time>2026-05-02T08:39:17Z</time></trkpt><trkpt lat="45.987940434558965" lon="11.700960365667337"><ele>1295.0</ele><time>2026-05-02T08:39:19Z</time></trkpt><trkpt lat="45.987958871079925" lon="11.70085558992627"><ele>1297.0</ele><time>2026-05-02T08:39:21Z</time></trkpt><trkpt lat="45.98793767200022" lon="11.700766538864057"><ele>1299.0</ele><time>2026-05-02T08:39:23Z</time></trkpt><trkpt lat="45.987831055457214" lon="11.700825833616193"><ele>1301.0</ele><time>2026-05-02T08:39:27Z</time></trkpt><trkpt lat="45.987752370715505" lon="11.700943326909027"><ele>1303.0</ele><time>2026-05-02T08:39:29Z</time></trkpt><trkpt lat="45.98764832736114" lon="11.700973198051408"><ele>1303.0</ele><time>2026-05-02T08:39:32Z</time></trkpt><trkpt lat="45.987560634485476" lon="11.700984887453242"><ele>1303.0</ele><time>2026-05-02T08:39:34Z</time></trkpt><trkpt lat="45.987492983655734" lon="11.70094859452947"><ele>1303.0</ele><time>2026-05-02T08:39:36Z</time></trkpt><trkpt lat="45.98743609508328" lon="11.700901940750008"><ele>1303.0</ele><time>2026-05-02T08:39:38Z</time></trkpt><trkpt lat="45.98742319261977" lon="11.700797808700646"><ele>1303.0</ele><time>2026-05-02T08:39:40Z</time></trkpt><trkpt lat="45.987449888431705" lon="11.700715713902516"><ele>1303.0</ele><time>2026-05-02T08:39:42Z</time></trkpt><trkpt lat="45.98752304081969" lon="11.700736091736292"><ele>1303.0</ele><time>2026-05-02T08:39:44Z</time></trkpt><trkpt lat="45.98760609623371" lon="11.700672530594627"><ele>1303.0</ele><time>2026-05-02T08:39:46Z</time></trkpt><trkpt lat="45.98763708233885" lon="11.70057298144143"><ele>1303.0</ele><time>2026-05-02T08:39:48Z</time></trkpt><trkpt lat="45.98767368839797" lon="11.700418414360614"><ele>1303.0</ele><time>2026-05-02T08:39:50Z</time></trkpt><trkpt lat="45.98768598252852" lon="11.700320105172475"><ele>1303.0</ele><time>2026-05-02T08:39:51Z</time></trkpt><trkpt lat="45.987698440787156" lon="11.70021954479192"><ele>1303.0</ele><time>2026-05-02T08:39:52Z</time></trkpt><trkpt lat="45.98770898708553" lon="11.700116481173103"><ele>1303.0</ele><time>2026-05-02T08:39:53Z</time></trkpt><trkpt lat="45.98773880758955" lon="11.700032766158317"><ele>1305.0</ele><time>2026-05-02T08:39:54Z</time></trkpt><trkpt lat="45.987825694787496" lon="11.699926715968562"><ele>1307.0</ele><time>2026-05-02T08:39:56Z</time></trkpt><trkpt lat="45.98786749732584" lon="11.699857259912802"><ele>1309.0</ele><time>2026-05-02T08:39:57.001Z</time></trkpt><trkpt lat="45.98792184368571" lon="11.699800093668147"><ele>1311.0</ele><time>2026-05-02T08:39:58.001Z</time></trkpt><trkpt lat="45.987975611190414" lon="11.699731726960826"><ele>1313.0</ele><time>2026-05-02T08:39:59.001Z</time></trkpt><trkpt lat="45.98802438989232" lon="11.699666091543587"><ele>1315.0</ele><time>2026-05-02T08:40:00.001Z</time></trkpt><trkpt lat="45.98807536705885" lon="11.699521702273364"><ele>1317.3333333333333</ele><time>2026-05-02T08:40:02.001Z</time></trkpt><trkpt lat="45.98809343041169" lon="11.699342205390483"><ele>1319.6666666666665</ele><time>2026-05-02T08:40:04.001Z</time></trkpt><trkpt lat="45.98809203886063" lon="11.699243999033701"><ele>1322.0</ele><time>2026-05-02T08:40:05.001Z</time></trkpt><trkpt lat="45.9880905328037" lon="11.699153235331309"><ele>1324.3333333333333</ele><time>2026-05-02T08:40:06.001Z</time></trkpt><trkpt lat="45.98812568023335" lon="11.699076539301746"><ele>1326.6666666666667</ele><time>2026-05-02T08:40:07.001Z</time></trkpt><trkpt lat="45.98814113936988" lon="11.698973936428494"><ele>1329.0</ele><time>2026-05-02T08:40:08.001Z</time></trkpt><trkpt lat="45.988165982540025" lon="11.698875747664909"><ele>1329.0</ele><time>2026-05-02T08:40:09.001Z</time></trkpt><trkpt lat="45.98817661373736" lon="11.698758185528192"><ele>1329.0</ele><time>2026-05-02T08:40:10.001Z</time></trkpt><trkpt lat="45.98818709888782" lon="11.698639034269606"><ele>1329.0</ele><time>2026-05-02T08:40:11.001Z</time></trkpt><trkpt lat="45.98819076505989" lon="11.698524986833814"><ele>1329.0</ele><time>2026-05-02T08:40:12.001Z</time></trkpt><trkpt lat="45.988190101989204" lon="11.698413901780457"><ele>1329.0</ele><time>2026-05-02T08:40:13.001Z</time></trkpt><trkpt lat="45.98822982221102" lon="11.69825595362196"><ele>1329.0</ele><time>2026-05-02T08:40:15.001Z</time></trkpt><trkpt lat="45.98830365392853" lon="11.698153508649618"><ele>1328.2</ele><time>2026-05-02T08:40:17.001Z</time></trkpt><trkpt lat="45.98838411566861" lon="11.698021303688012"><ele>1327.4</ele><time>2026-05-02T08:40:19.001Z</time></trkpt><trkpt lat="45.98847480459812" lon="11.697894587598132"><ele>1326.6</ele><time>2026-05-02T08:40:21.001Z</time></trkpt><trkpt lat="45.988512154855755" lon="11.697817070895608"><ele>1325.8</ele><time>2026-05-02T08:40:22.001Z</time></trkpt><trkpt lat="45.988542622773444" lon="11.697726620941024"><ele>1325.0</ele><time>2026-05-02T08:40:23.001Z</time></trkpt><trkpt lat="45.98856980743115" lon="11.697628879594621"><ele>1325.0</ele><time>2026-05-02T08:40:24.001Z</time></trkpt><trkpt lat="45.988587191936205" lon="11.697513082153698"><ele>1325.0</ele><time>2026-05-02T08:40:25.001Z</time></trkpt><trkpt lat="45.98858982646534" lon="11.697376015273273"><ele>1325.0</ele><time>2026-05-02T08:40:26.001Z</time></trkpt><trkpt lat="45.98859162540018" lon="11.697234784192895"><ele>1325.0</ele><time>2026-05-02T08:40:27.001Z</time></trkpt><trkpt lat="45.9885925046194" lon="11.697103029522419"><ele>1325.0</ele><time>2026-05-02T08:40:28.001Z</time></trkpt><trkpt lat="45.988611334556644" lon="11.696993701305646"><ele>1325.0</ele><time>2026-05-02T08:40:29.001Z</time></trkpt><trkpt lat="45.988630518322154" lon="11.69685326025644"><ele>1330.25</ele><time>2026-05-02T08:40:31.001Z</time></trkpt><trkpt lat="45.988725172548456" lon="11.696808404766774"><ele>1335.5</ele><time>2026-05-02T08:40:33.001Z</time></trkpt><trkpt lat="45.988832449971135" lon="11.696735453642255"><ele>1340.75</ele><time>2026-05-02T08:40:35.001Z</time></trkpt><trkpt lat="45.988914914697986" lon="11.696615426859355"><ele>1346.0</ele><time>2026-05-02T08:40:37.001Z</time></trkpt><trkpt lat="45.988985042352944" lon="11.696470836328135"><ele>1346.0</ele><time>2026-05-02T08:40:39.001Z</time></trkpt><trkpt lat="45.98901509218616" lon="11.696384702340227"><ele>1346.0</ele><time>2026-05-02T08:40:40.001Z</time></trkpt><trkpt lat="45.98904445030652" lon="11.696291678154472"><ele>1346.0</ele><time>2026-05-02T08:40:41.001Z</time></trkpt><trkpt lat="45.989075903927464" lon="11.696201631381037"><ele>1346.0</ele><time>2026-05-02T08:40:42.001Z</time></trkpt><trkpt lat="45.98910621569722" lon="11.696106534774877"><ele>1346.0</ele><time>2026-05-02T08:40:43.001Z</time></trkpt><trkpt lat="45.98914354129625" lon="11.696001319651957"><ele>1346.0</ele><time>2026-05-02T08:40:44.001Z</time></trkpt><trkpt lat="45.989183760320024" lon="11.695900922778202"><ele>1346.0</ele><time>2026-05-02T08:40:45.001Z</time></trkpt><trkpt lat="45.989218562089555" lon="11.69581046152441"><ele>1345.1666666666667</ele><time>2026-05-02T08:40:46.001Z</time></trkpt><trkpt lat="45.989301405489655" lon="11.695671129566788"><ele>1344.3333333333335</ele><time>2026-05-02T08:40:48.001Z</time></trkpt><trkpt lat="45.989344290404745" lon="11.695584858047125"><ele>1343.5</ele><time>2026-05-02T08:40:49.001Z</time></trkpt><trkpt lat="45.98939399327996" lon="11.695496681867548"><ele>1342.6666666666667</ele><time>2026-05-02T08:40:50.001Z</time></trkpt><trkpt lat="45.989433389367335" lon="11.695408215051225"><ele>1341.8333333333333</ele><time>2026-05-02T08:40:51.001Z</time></trkpt><trkpt lat="45.98946271257479" lon="11.695320699277703"><ele>1341.0</ele><time>2026-05-02T08:40:52.001Z</time></trkpt><trkpt lat="45.98948098181397" lon="11.695226551510853"><ele>1344.3333333333333</ele><time>2026-05-02T08:40:53.001Z</time></trkpt><trkpt lat="45.98948072986534" lon="11.695125145998832"><ele>1347.6666666666667</ele><time>2026-05-02T08:40:54.001Z</time></trkpt><trkpt lat="45.989490143017484" lon="11.695010728353001"><ele>1351.0</ele><time>2026-05-02T08:40:55.001Z</time></trkpt><trkpt lat="45.989500987323034" lon="11.694884991766411"><ele>1354.3333333333335</ele><time>2026-05-02T08:40:56.001Z</time></trkpt><trkpt lat="45.9895155262252" lon="11.694771134302389"><ele>1357.6666666666667</ele><time>2026-05-02T08:40:57.001Z</time></trkpt><trkpt lat="45.989534874369355" lon="11.694662507479176"><ele>1361.0</ele><time>2026-05-02T08:40:58.001Z</time></trkpt><trkpt lat="45.98956510681945" lon="11.69457234984046"><ele>1361.0</ele><time>2026-05-02T08:40:59.001Z</time></trkpt><trkpt lat="45.98961311217667" lon="11.694510356465651"><ele>1361.0</ele><time>2026-05-02T08:41:00.001Z</time></trkpt><trkpt lat="45.989674066619344" lon="11.694455896522651"><ele>1361.0</ele><time>2026-05-02T08:41:01.001Z</time></trkpt><trkpt lat="45.989749277328315" lon="11.694410998066237"><ele>1361.0</ele><time>2026-05-02T08:41:02Z</time></trkpt><trkpt lat="45.989832653581274" lon="11.694402300542084"><ele>1361.0</ele><time>2026-05-02T08:41:03Z</time></trkpt><trkpt lat="45.98990301297543" lon="11.694339263992644"><ele>1361.0</ele><time>2026-05-02T08:41:04Z</time></trkpt><trkpt lat="45.989965949153195" lon="11.69428506992275"><ele>1362.1666666666667</ele><time>2026-05-02T08:41:05Z</time></trkpt><trkpt lat="45.99001218484253" lon="11.694219033062684"><ele>1363.3333333333335</ele><time>2026-05-02T08:41:06Z</time></trkpt><trkpt lat="45.99006605456401" lon="11.694101028186422"><ele>1364.5</ele><time>2026-05-02T08:41:08Z</time></trkpt><trkpt lat="45.99008822945158" lon="11.694008115871465"><ele>1365.6666666666667</ele><time>2026-05-02T08:41:09Z</time></trkpt><trkpt lat="45.990096493360994" lon="11.693894922486034"><ele>1366.8333333333333</ele><time>2026-05-02T08:41:10Z</time></trkpt><trkpt lat="45.99010515999057" lon="11.693769006297519"><ele>1368.0</ele><time>2026-05-02T08:41:11Z</time></trkpt><trkpt lat="45.99011441362213" lon="11.693646048195376"><ele>1369.8333333333333</ele><time>2026-05-02T08:41:12Z</time></trkpt><trkpt lat="45.99013148055989" lon="11.693514296767724"><ele>1371.6666666666667</ele><time>2026-05-02T08:41:13Z</time></trkpt><trkpt lat="45.99015042525584" lon="11.693396141121985"><ele>1373.5</ele><time>2026-05-02T08:41:14Z</time></trkpt><trkpt lat="45.99018028354623" lon="11.693277192577956"><ele>1375.3333333333335</ele><time>2026-05-02T08:41:15Z</time></trkpt><trkpt lat="45.99020805117293" lon="11.693173464657278"><ele>1377.1666666666667</ele><time>2026-05-02T08:41:16Z</time></trkpt><trkpt lat="45.990243572516775" lon="11.693096211886786"><ele>1379.0</ele><time>2026-05-02T08:41:17Z</time></trkpt><trkpt lat="45.9902931265127" lon="11.693040317785147"><ele>1379.0</ele><time>2026-05-02T08:41:18Z</time></trkpt><trkpt lat="45.990361224337164" lon="11.693020736474304"><ele>1379.0</ele><time>2026-05-02T08:41:19Z</time></trkpt><trkpt lat="45.99042241895923" lon="11.69297384953094"><ele>1379.0</ele><time>2026-05-02T08:41:20Z</time></trkpt><trkpt lat="45.990482472473026" lon="11.692922672572939"><ele>1379.0</ele><time>2026-05-02T08:41:21Z</time></trkpt><trkpt lat="45.99055035121062" lon="11.692887432154608"><ele>1379.0</ele><time>2026-05-02T08:41:22Z</time></trkpt><trkpt lat="45.990615327876704" lon="11.692840618476845"><ele>1379.0</ele><time>2026-05-02T08:41:23Z</time></trkpt><trkpt lat="45.99067807558496" lon="11.692785361726779"><ele>1379.0</ele><time>2026-05-02T08:41:24Z</time></trkpt><trkpt lat="45.99074052869006" lon="11.692761741567926"><ele>1379.1666666666667</ele><time>2026-05-02T08:41:25Z</time></trkpt><trkpt lat="45.990807173758284" lon="11.692730715134207"><ele>1379.3333333333335</ele><time>2026-05-02T08:41:26Z</time></trkpt><trkpt lat="45.99088658950804" lon="11.692703929347516"><ele>1379.5</ele><time>2026-05-02T08:41:27Z</time></trkpt><trkpt lat="45.990971211048375" lon="11.692681704032168"><ele>1379.6666666666667</ele><time>2026-05-02T08:41:28Z</time></trkpt><trkpt lat="45.99103363736437" lon="11.692645169975387"><ele>1379.8333333333333</ele><time>2026-05-02T08:41:29Z</time></trkpt><trkpt lat="45.99111551922515" lon="11.692654145494254"><ele>1380.0</ele><time>2026-05-02T08:41:30Z</time></trkpt><trkpt lat="45.991181801481716" lon="11.692646985256017"><ele>1381.3333333333333</ele><time>2026-05-02T08:41:31Z</time></trkpt><trkpt lat="45.9912495389949" lon="11.692632448383137"><ele>1382.6666666666667</ele><time>2026-05-02T08:41:32Z</time></trkpt><trkpt lat="45.99130908952084" lon="11.692584503364095"><ele>1384.0</ele><time>2026-05-02T08:41:33Z</time></trkpt><trkpt lat="45.991402425495615" lon="11.692482891045374"><ele>1385.3333333333335</ele><time>2026-05-02T08:41:35Z</time></trkpt><trkpt lat="45.99144948959453" lon="11.692413851079754"><ele>1386.6666666666667</ele><time>2026-05-02T08:41:36Z</time></trkpt><trkpt lat="45.99151135030424" lon="11.692359531499436"><ele>1388.0</ele><time>2026-05-02T08:41:37Z</time></trkpt><trkpt lat="45.991566662381274" lon="11.692277723559746"><ele>1388.0</ele><time>2026-05-02T08:41:38Z</time></trkpt><trkpt lat="45.991624204632856" lon="11.692194741925759"><ele>1388.0</ele><time>2026-05-02T08:41:39Z</time></trkpt><trkpt lat="45.99168964003394" lon="11.692125633072198"><ele>1388.0</ele><time>2026-05-02T08:41:40Z</time></trkpt><trkpt lat="45.99175702442443" lon="11.692086794749892"><ele>1388.0</ele><time>2026-05-02T08:41:41Z</time></trkpt><trkpt lat="45.991824957269024" lon="11.692074343378083"><ele>1388.0</ele><time>2026-05-02T08:41:42Z</time></trkpt><trkpt lat="45.991888240121305" lon="11.692069237187923"><ele>1388.0</ele><time>2026-05-02T08:41:43Z</time></trkpt><trkpt lat="45.991948742973264" lon="11.692042261301214"><ele>1388.0</ele><time>2026-05-02T08:41:44Z</time></trkpt><trkpt lat="45.99202408403607" lon="11.692044122451115"><ele>1388.5</ele><time>2026-05-02T08:41:45Z</time></trkpt><trkpt lat="45.9921092002108" lon="11.692036500207985"><ele>1389.0</ele><time>2026-05-02T08:41:46Z</time></trkpt><trkpt lat="45.99219500056946" lon="11.692029309092987"><ele>1389.5</ele><time>2026-05-02T08:41:47Z</time></trkpt><trkpt lat="45.99227012517682" lon="11.692044668031818"><ele>1390.0</ele><time>2026-05-02T08:41:48Z</time></trkpt><trkpt lat="45.99235484621624" lon="11.692034789164369"><ele>1390.5</ele><time>2026-05-02T08:41:49Z</time></trkpt><trkpt lat="45.992424329860825" lon="11.692018336286683"><ele>1391.0</ele><time>2026-05-02T08:41:50Z</time></trkpt><trkpt lat="45.9924991906383" lon="11.691992554817173"><ele>1390.6666666666667</ele><time>2026-05-02T08:41:51Z</time></trkpt><trkpt lat="45.992562774058584" lon="11.6919675862857"><ele>1390.3333333333335</ele><time>2026-05-02T08:41:52Z</time></trkpt><trkpt lat="45.99262300526368" lon="11.691879908559207"><ele>1390.0</ele><time>2026-05-02T08:41:53Z</time></trkpt><trkpt lat="45.992714768306755" lon="11.691753911886288"><ele>1389.6666666666667</ele><time>2026-05-02T08:41:55Z</time></trkpt><trkpt lat="45.99274117231154" lon="11.691652569684221"><ele>1389.3333333333333</ele><time>2026-05-02T08:41:56Z</time></trkpt><trkpt lat="45.992794022825414" lon="11.691555542729125"><ele>1389.0</ele><time>2026-05-02T08:41:57Z</time></trkpt><trkpt lat="45.9928493558052" lon="11.691456112686911"><ele>1390.6666666666667</ele><time>2026-05-02T08:41:58Z</time></trkpt><trkpt lat="45.992916662330956" lon="11.691388767111079"><ele>1392.3333333333333</ele><time>2026-05-02T08:41:59Z</time></trkpt><trkpt lat="45.99297182898913" lon="11.691325665274514"><ele>1394.0</ele><time>2026-05-02T08:42:00Z</time></trkpt><trkpt lat="45.993074148149816" lon="11.691262950813632"><ele>1395.6666666666665</ele><time>2026-05-02T08:42:02Z</time></trkpt><trkpt lat="45.99313222840377" lon="11.691312498685722"><ele>1397.3333333333333</ele><time>2026-05-02T08:42:03Z</time></trkpt><trkpt lat="45.99319852526505" lon="11.691345188783533"><ele>1399.0</ele><time>2026-05-02T08:42:04Z</time></trkpt><trkpt lat="45.993263033635806" lon="11.691383717357503"><ele>1399.0</ele><time>2026-05-02T08:42:05Z</time></trkpt><trkpt lat="45.993338133994264" lon="11.691439142280347"><ele>1399.0</ele><time>2026-05-02T08:42:06Z</time></trkpt><trkpt lat="45.9934114866443" lon="11.691499889317353"><ele>1399.0</ele><time>2026-05-02T08:42:07Z</time></trkpt><trkpt lat="45.99348690737612" lon="11.69157242915725"><ele>1399.0</ele><time>2026-05-02T08:42:08Z</time></trkpt><trkpt lat="45.99356177923522" lon="11.691648559142362"><ele>1399.0</ele><time>2026-05-02T08:42:09Z</time></trkpt><trkpt lat="45.99363850323133" lon="11.691718219794613"><ele>1399.0</ele><time>2026-05-02T08:42:10Z</time></trkpt><trkpt lat="45.993716107995965" lon="11.691770477449204"><ele>1400.5</ele><time>2026-05-02T08:42:11Z</time></trkpt><trkpt lat="45.99379182647477" lon="11.691809257405469"><ele>1402.0</ele><time>2026-05-02T08:42:12Z</time></trkpt><trkpt lat="45.99387400010792" lon="11.6918296067319"><ele>1403.5</ele><time>2026-05-02T08:42:13Z</time></trkpt><trkpt lat="45.99395168890361" lon="11.69183097347985"><ele>1405.0</ele><time>2026-05-02T08:42:14Z</time></trkpt><trkpt lat="45.99404826039005" lon="11.691799750003472"><ele>1406.5</ele><time>2026-05-02T08:42:15Z</time></trkpt><trkpt lat="45.99414060114689" lon="11.691748963671944"><ele>1408.0</ele><time>2026-05-02T08:42:16Z</time></trkpt><trkpt lat="45.99423656156288" lon="11.691720872646206"><ele>1409.0</ele><time>2026-05-02T08:42:17Z</time></trkpt><trkpt lat="45.99432599283886" lon="11.691701763622055"><ele>1410.0</ele><time>2026-05-02T08:42:18Z</time></trkpt><trkpt lat="45.994415550927805" lon="11.691690594301331"><ele>1411.0</ele><time>2026-05-02T08:42:19.001Z</time></trkpt><trkpt lat="45.9945073945509" lon="11.69169255775388"><ele>1412.0</ele><time>2026-05-02T08:42:20.001Z</time></trkpt><trkpt lat="45.994577957344745" lon="11.691717815158995"><ele>1413.0</ele><time>2026-05-02T08:42:21.001Z</time></trkpt><trkpt lat="45.99464626861434" lon="11.691753771348989"><ele>1414.0</ele><time>2026-05-02T08:42:22.001Z</time></trkpt><trkpt lat="45.99471843493792" lon="11.691796089695222"><ele>1414.0</ele><time>2026-05-02T08:42:23.001Z</time></trkpt><trkpt lat="45.99480044938135" lon="11.69184223557546"><ele>1414.0</ele><time>2026-05-02T08:42:24.001Z</time></trkpt><trkpt lat="45.99487495150511" lon="11.691895832209733"><ele>1414.0</ele><time>2026-05-02T08:42:25.001Z</time></trkpt><trkpt lat="45.99493439230615" lon="11.69193033183474"><ele>1414.0</ele><time>2026-05-02T08:42:26.001Z</time></trkpt><trkpt lat="45.995004007524294" lon="11.691909656845798"><ele>1414.0</ele><time>2026-05-02T08:42:27.001Z</time></trkpt><trkpt lat="45.99511438370588" lon="11.691867704959845"><ele>1414.0</ele><time>2026-05-02T08:42:29.001Z</time></trkpt><trkpt lat="45.99517522071903" lon="11.69182640389139"><ele>1415.3333333333333</ele><time>2026-05-02T08:42:30.001Z</time></trkpt><trkpt lat="45.995235302226796" lon="11.691780356821432"><ele>1416.6666666666665</ele><time>2026-05-02T08:42:31.001Z</time></trkpt><trkpt lat="45.99531294312652" lon="11.691759164172923"><ele>1418.0</ele><time>2026-05-02T08:42:32.001Z</time></trkpt><trkpt lat="45.995380771439144" lon="11.691739563921098"><ele>1419.3333333333333</ele><time>2026-05-02T08:42:33.001Z</time></trkpt><trkpt lat="45.995493943254566" lon="11.691788006698541"><ele>1420.6666666666667</ele><time>2026-05-02T08:42:35.001Z</time></trkpt><trkpt lat="45.995548176099135" lon="11.691835563413267"><ele>1422.0</ele><time>2026-05-02T08:42:36.001Z</time></trkpt><trkpt lat="45.99561904916803" lon="11.691868526523223"><ele>1418.3999999999999</ele><time>2026-05-02T08:42:37.001Z</time></trkpt><trkpt lat="45.99568901114225" lon="11.69194635359392"><ele>1414.8</ele><time>2026-05-02T08:42:38.001Z</time></trkpt><trkpt lat="45.99577273873317" lon="11.692004948720921"><ele>1411.2</ele><time>2026-05-02T08:42:39.001Z</time></trkpt><trkpt lat="45.99586001153246" lon="11.692046476840762"><ele>1407.6</ele><time>2026-05-02T08:42:40.001Z</time></trkpt><trkpt lat="45.995944325485944" lon="11.6921025587042"><ele>1404.0</ele><time>2026-05-02T08:42:41.001Z</time></trkpt><trkpt lat="45.99604552746627" lon="11.69213531072649"><ele>1404.0</ele><time>2026-05-02T08:42:42.001Z</time></trkpt><trkpt lat="45.99614310849432" lon="11.692167340207746"><ele>1404.0</ele><time>2026-05-02T08:42:43.001Z</time></trkpt><trkpt lat="45.99623989124399" lon="11.692186690565677"><ele>1404.0</ele><time>2026-05-02T08:42:44.001Z</time></trkpt><trkpt lat="45.996331931250864" lon="11.692209536124828"><ele>1404.0</ele><time>2026-05-02T08:42:45.001Z</time></trkpt><trkpt lat="45.996430382081854" lon="11.692241509066378"><ele>1404.0</ele><time>2026-05-02T08:42:46.001Z</time></trkpt><trkpt lat="45.996519355736964" lon="11.692228423391942"><ele>1404.0</ele><time>2026-05-02T08:42:47.001Z</time></trkpt><trkpt lat="45.99659935426227" lon="11.692221178210467"><ele>1404.0</ele><time>2026-05-02T08:42:48.001Z</time></trkpt><trkpt lat="45.99668126890117" lon="11.692194387961408"><ele>1404.0</ele><time>2026-05-02T08:42:49.001Z</time></trkpt><trkpt lat="45.9967475713381" lon="11.69213359018282"><ele>1404.0</ele><time>2026-05-02T08:42:51.001Z</time></trkpt><trkpt lat="45.99681182292917" lon="11.692071135681596"><ele>1404.0</ele><time>2026-05-02T08:42:53.001Z</time></trkpt><trkpt lat="45.996936510820916" lon="11.692017239274287"><ele>1404.8000000000002</ele><time>2026-05-02T08:42:55.001Z</time></trkpt><trkpt lat="45.997046392780966" lon="11.691997107548621"><ele>1405.6000000000001</ele><time>2026-05-02T08:42:57.001Z</time></trkpt><trkpt lat="45.99714822751084" lon="11.692006169633341"><ele>1406.4</ele><time>2026-05-02T08:42:59.001Z</time></trkpt><trkpt lat="45.997276147745794" lon="11.692096393533259"><ele>1407.2</ele><time>2026-05-02T08:43:01.001Z</time></trkpt><trkpt lat="45.997328415653556" lon="11.692182088548567"><ele>1408.0</ele><time>2026-05-02T08:43:02.001Z</time></trkpt><trkpt lat="45.99738026072694" lon="11.692272137030782"><ele>1408.0</ele><time>2026-05-02T08:43:03.001Z</time></trkpt><trkpt lat="45.99743954331478" lon="11.692372465607768"><ele>1408.0</ele><time>2026-05-02T08:43:04.001Z</time></trkpt><trkpt lat="45.997495189664875" lon="11.692460275816236"><ele>1408.0</ele><time>2026-05-02T08:43:05.001Z</time></trkpt><trkpt lat="45.99755814204344" lon="11.692527829011947"><ele>1408.0</ele><time>2026-05-02T08:43:06.001Z</time></trkpt><trkpt lat="45.99761579319297" lon="11.692608617579616"><ele>1408.0</ele><time>2026-05-02T08:43:07.001Z</time></trkpt><trkpt lat="45.99766952869352" lon="11.69271121527088"><ele>1408.0</ele><time>2026-05-02T08:43:08Z</time></trkpt><trkpt lat="45.99773632950941" lon="11.692803690927509"><ele>1405.6000000000001</ele><time>2026-05-02T08:43:09Z</time></trkpt><trkpt lat="45.9978151439409" lon="11.692878886987721"><ele>1403.2</ele><time>2026-05-02T08:43:10Z</time></trkpt><trkpt lat="45.99788252736037" lon="11.692969404637132"><ele>1400.8</ele><time>2026-05-02T08:43:11Z</time></trkpt><trkpt lat="45.99794742323564" lon="11.693062192622962"><ele>1398.4</ele><time>2026-05-02T08:43:12Z</time></trkpt><trkpt lat="45.99800687830925" lon="11.693151112043154"><ele>1396.0</ele><time>2026-05-02T08:43:13Z</time></trkpt><trkpt lat="45.99808111167122" lon="11.69322028134425"><ele>1396.0</ele><time>2026-05-02T08:43:14Z</time></trkpt><trkpt lat="45.99815680102814" lon="11.693288061496416"><ele>1396.0</ele><time>2026-05-02T08:43:15Z</time></trkpt><trkpt lat="45.998233892901446" lon="11.69334435522961"><ele>1396.0</ele><time>2026-05-02T08:43:16Z</time></trkpt><trkpt lat="45.9983095834232" lon="11.693395636045931"><ele>1396.0</ele><time>2026-05-02T08:43:17Z</time></trkpt><trkpt lat="45.99839004844802" lon="11.69343985132361"><ele>1396.0</ele><time>2026-05-02T08:43:18Z</time></trkpt><trkpt lat="45.99847030327794" lon="11.693488777297057"><ele>1396.0</ele><time>2026-05-02T08:43:19Z</time></trkpt><trkpt lat="45.99854417450496" lon="11.693536959771562"><ele>1397.1666666666665</ele><time>2026-05-02T08:43:20Z</time></trkpt><trkpt lat="45.99861367650294" lon="11.6935639584079"><ele>1398.3333333333333</ele><time>2026-05-02T08:43:21Z</time></trkpt><trkpt lat="45.998684322844824" lon="11.693578615993648"><ele>1399.5</ele><time>2026-05-02T08:43:22Z</time></trkpt><trkpt lat="45.99879892849422" lon="11.693565303830944"><ele>1400.6666666666667</ele><time>2026-05-02T08:43:24Z</time></trkpt><trkpt lat="45.99885706843294" lon="11.693519555908189"><ele>1401.8333333333335</ele><time>2026-05-02T08:43:25Z</time></trkpt><trkpt lat="45.99897442701493" lon="11.693518721340018"><ele>1403.0</ele><time>2026-05-02T08:43:27Z</time></trkpt><trkpt lat="45.99904355895858" lon="11.693619448934644"><ele>1402.3333333333335</ele><time>2026-05-02T08:43:29Z</time></trkpt><trkpt lat="45.99907814191846" lon="11.693724999928849"><ele>1401.6666666666667</ele><time>2026-05-02T08:43:31Z</time></trkpt><trkpt lat="45.9991161757184" lon="11.693798550060235"><ele>1401.0</ele><time>2026-05-02T08:43:33Z</time></trkpt><trkpt lat="45.999172570012796" lon="11.693907605943105"><ele>1400.3333333333333</ele><time>2026-05-02T08:43:36Z</time></trkpt><trkpt lat="45.99922950462989" lon="11.69397940302417"><ele>1399.6666666666665</ele><time>2026-05-02T08:43:38Z</time></trkpt><trkpt lat="45.99927683071651" lon="11.694075301879801"><ele>1399.0</ele><time>2026-05-02T08:43:40Z</time></trkpt><trkpt lat="45.99931488660883" lon="11.694148684966573"><ele>1399.0</ele><time>2026-05-02T08:43:42Z</time></trkpt><trkpt lat="45.99934531435465" lon="11.694244636765598"><ele>1399.0</ele><time>2026-05-02T08:44:31Z</time></trkpt><trkpt lat="45.99938999923736" lon="11.694359293257865"><ele>1399.0</ele><time>2026-05-02T08:44:35.001Z</time></trkpt><trkpt lat="45.99941507525166" lon="11.694445363564148"><ele>1399.0</ele><time>2026-05-02T08:44:37.001Z</time></trkpt><trkpt lat="45.99944864353439" lon="11.694545282391353"><ele>1399.0</ele><time>2026-05-02T08:44:40.001Z</time></trkpt><trkpt lat="45.99955748617334" lon="11.694372955451136"><ele>1399.0</ele><time>2026-05-02T08:44:45.001Z</time></trkpt><trkpt lat="45.99950210266893" lon="11.694306601282895"><ele>1399.0</ele><time>2026-05-02T08:44:47.001Z</time></trkpt><trkpt lat="45.99944753754157" lon="11.6942270663371"><ele>1399.0</ele><time>2026-05-02T08:44:49.001Z</time></trkpt><trkpt lat="45.99938208395569" lon="11.69420558082718"><ele>1399.0</ele><time>2026-05-02T08:44:52.001Z</time></trkpt><trkpt lat="45.999383840008846" lon="11.694347038777545"><ele>1399.0</ele><time>2026-05-02T08:44:55.001Z</time></trkpt><trkpt lat="45.999429945036304" lon="11.694492368680473"><ele>1399.0</ele><time>2026-05-02T08:44:57.001Z</time></trkpt><trkpt lat="45.999461513015376" lon="11.694578011542179"><ele>1397.2857142857142</ele><time>2026-05-02T08:44:58.001Z</time></trkpt><trkpt lat="45.999494540917276" lon="11.694661875556383"><ele>1395.5714285714287</ele><time>2026-05-02T08:44:59.001Z</time></trkpt><trkpt lat="45.999529940262214" lon="11.694746225550636"><ele>1393.857142857143</ele><time>2026-05-02T08:45:00.001Z</time></trkpt><trkpt lat="45.99956688518881" lon="11.694829821003301"><ele>1392.142857142857</ele><time>2026-05-02T08:45:01.001Z</time></trkpt><trkpt lat="45.99960828207159" lon="11.694915258463691"><ele>1390.4285714285713</ele><time>2026-05-02T08:45:02.001Z</time></trkpt><trkpt lat="45.99965029888505" lon="11.694997611567198"><ele>1388.7142857142858</ele><time>2026-05-02T08:45:03.001Z</time></trkpt><trkpt lat="45.999690599271496" lon="11.695075451780612"><ele>1387.0</ele><time>2026-05-02T08:45:04.001Z</time></trkpt><trkpt lat="45.99973436255142" lon="11.695159980530859"><ele>1387.0</ele><time>2026-05-02T08:45:05.001Z</time></trkpt><trkpt lat="45.999774245099694" lon="11.695237013649333"><ele>1387.0</ele><time>2026-05-02T08:45:06.001Z</time></trkpt><trkpt lat="45.9998121762306" lon="11.69531027763474"><ele>1387.0</ele><time>2026-05-02T08:45:07.001Z</time></trkpt><trkpt lat="45.999849979356334" lon="11.695383459254737"><ele>1387.0</ele><time>2026-05-02T08:45:08.001Z</time></trkpt><trkpt lat="45.99992955946189" lon="11.695500303092912"><ele>1387.0</ele><time>2026-05-02T08:45:10.001Z</time></trkpt><trkpt lat="45.99996280747257" lon="11.695580000204709"><ele>1387.0</ele><time>2026-05-02T08:45:11.001Z</time></trkpt><trkpt lat="46.00000577510459" lon="11.69567095524147"><ele>1387.0</ele><time>2026-05-02T08:45:12.001Z</time></trkpt><trkpt lat="46.00004618109598" lon="11.695770802608552"><ele>1384.6666666666665</ele><time>2026-05-02T08:45:13.001Z</time></trkpt><trkpt lat="46.000085350439555" lon="11.695869460763587"><ele>1382.3333333333333</ele><time>2026-05-02T08:45:14Z</time></trkpt><trkpt lat="46.00012109873428" lon="11.695959678962549"><ele>1380.0</ele><time>2026-05-02T08:45:15Z</time></trkpt><trkpt lat="46.000152983513516" lon="11.69604649521786"><ele>1377.6666666666667</ele><time>2026-05-02T08:45:16Z</time></trkpt><trkpt lat="46.0001820664003" lon="11.69612746405264"><ele>1375.3333333333335</ele><time>2026-05-02T08:45:17Z</time></trkpt><trkpt lat="46.00021670952316" lon="11.69620831112689"><ele>1373.0</ele><time>2026-05-02T08:45:18Z</time></trkpt><trkpt lat="46.00026666037326" lon="11.69635401770419"><ele>1370.8000000000002</ele><time>2026-05-02T08:45:20Z</time></trkpt><trkpt lat="46.00028508641047" lon="11.696450734606714"><ele>1368.6</ele><time>2026-05-02T08:45:21Z</time></trkpt><trkpt lat="46.000320398295244" lon="11.69656132616748"><ele>1366.4</ele><time>2026-05-02T08:45:22Z</time></trkpt><trkpt lat="46.00032871986539" lon="11.696707285951966"><ele>1364.1999999999998</ele><time>2026-05-02T08:45:23Z</time></trkpt><trkpt lat="46.00036082063733" lon="11.696829510977176"><ele>1362.0</ele><time>2026-05-02T08:45:24Z</time></trkpt><trkpt lat="46.000459832837855" lon="11.696913686959627"><ele>1360.4285714285716</ele><time>2026-05-02T08:45:25Z</time></trkpt><trkpt lat="46.000497675255" lon="11.697017203201971"><ele>1358.857142857143</ele><time>2026-05-02T08:45:26Z</time></trkpt><trkpt lat="46.00051249155594" lon="11.697124918942297"><ele>1357.2857142857142</ele><time>2026-05-02T08:45:27Z</time></trkpt><trkpt lat="46.000526507178016" lon="11.697226754427222"><ele>1355.7142857142858</ele><time>2026-05-02T08:45:28Z</time></trkpt><trkpt lat="46.0005446704377" lon="11.697329363614196"><ele>1354.142857142857</ele><time>2026-05-02T08:45:29Z</time></trkpt><trkpt lat="46.00055955721876" lon="11.697432123208245"><ele>1352.5714285714287</ele><time>2026-05-02T08:45:30Z</time></trkpt><trkpt lat="46.000571599379285" lon="11.697534162327454"><ele>1351.0</ele><time>2026-05-02T08:45:31Z</time></trkpt><trkpt lat="46.00058583617292" lon="11.69762537371919"><ele>1351.0</ele><time>2026-05-02T08:45:32Z</time></trkpt><trkpt lat="46.000669080172706" lon="11.697726348145398"><ele>1351.0</ele><time>2026-05-02T08:45:34Z</time></trkpt><trkpt lat="46.00078065681098" lon="11.697677940926676"><ele>1351.0</ele><time>2026-05-02T08:45:36Z</time></trkpt><trkpt lat="46.00083752216032" lon="11.69752313112207"><ele>1351.0</ele><time>2026-05-02T08:45:38Z</time></trkpt><trkpt lat="46.00083450570975" lon="11.697428115863575"><ele>1351.0</ele><time>2026-05-02T08:45:39Z</time></trkpt><trkpt lat="46.00082329248645" lon="11.697332462094598"><ele>1351.0</ele><time>2026-05-02T08:45:40Z</time></trkpt><trkpt lat="46.000811460856035" lon="11.697237519693955"><ele>1351.0</ele><time>2026-05-02T08:45:41Z</time></trkpt><trkpt lat="46.000797463504455" lon="11.697134304535416"><ele>1351.0</ele><time>2026-05-02T08:45:42Z</time></trkpt><trkpt lat="46.00078157435284" lon="11.697025816170234"><ele>1351.0</ele><time>2026-05-02T08:45:43Z</time></trkpt><trkpt lat="46.00076451016179" lon="11.696912515352752"><ele>1351.0</ele><time>2026-05-02T08:45:44Z</time></trkpt><trkpt lat="46.00075160762478" lon="11.696791807577089"><ele>1351.0</ele><time>2026-05-02T08:45:45Z</time></trkpt><trkpt lat="46.00073689253384" lon="11.696656600265628"><ele>1353.75</ele><time>2026-05-02T08:45:46Z</time></trkpt><trkpt lat="46.000711988786904" lon="11.696504093213184"><ele>1356.5</ele><time>2026-05-02T08:45:47Z</time></trkpt><trkpt lat="46.00066902842135" lon="11.696343054606274"><ele>1359.25</ele><time>2026-05-02T08:45:48Z</time></trkpt><trkpt lat="46.00061816745399" lon="11.696188204763375"><ele>1362.0</ele><time>2026-05-02T08:45:49Z</time></trkpt><trkpt lat="46.000568003379634" lon="11.69603624011962"><ele>1364.1999999999998</ele><time>2026-05-02T08:45:50Z</time></trkpt><trkpt lat="46.000520789865675" lon="11.695878633200458"><ele>1366.4</ele><time>2026-05-02T08:45:51Z</time></trkpt><trkpt lat="46.00047361479255" lon="11.695723088593946"><ele>1368.6</ele><time>2026-05-02T08:45:52Z</time></trkpt><trkpt lat="46.00043174314284" lon="11.69559520744037"><ele>1370.8000000000002</ele><time>2026-05-02T08:45:53Z</time></trkpt><trkpt lat="46.000389186328164" lon="11.695489507082671"><ele>1373.0</ele><time>2026-05-02T08:45:54Z</time></trkpt><trkpt lat="46.00035132113612" lon="11.69540013078867"><ele>1373.0</ele><time>2026-05-02T08:45:55Z</time></trkpt><trkpt lat="46.000323562987035" lon="11.695288603439796"><ele>1373.0</ele><time>2026-05-02T08:45:57Z</time></trkpt><trkpt lat="46.00038258820442" lon="11.695206184133454"><ele>1373.0</ele><time>2026-05-02T08:46:01Z</time></trkpt><trkpt lat="46.000431036862885" lon="11.695343138220286"><ele>1373.0</ele><time>2026-05-02T08:46:03Z</time></trkpt><trkpt lat="46.00048783608111" lon="11.695481412313978"><ele>1373.0</ele><time>2026-05-02T08:46:05Z</time></trkpt><trkpt lat="46.00054989633978" lon="11.695570834994585"><ele>1373.0</ele><time>2026-05-02T08:46:07Z</time></trkpt><trkpt lat="46.00061986823193" lon="11.695613242189125"><ele>1373.0</ele><time>2026-05-02T08:46:09Z</time></trkpt><trkpt lat="46.000669863744854" lon="11.695522623180462"><ele>1373.0</ele><time>2026-05-02T08:46:11Z</time></trkpt><trkpt lat="46.000631324160985" lon="11.695360172912578"><ele>1373.0</ele><time>2026-05-02T08:46:13Z</time></trkpt><trkpt lat="46.00059801167527" lon="11.695264617867794"><ele>1373.0</ele><time>2026-05-02T08:46:14Z</time></trkpt><trkpt lat="46.000558454326686" lon="11.69513714363704"><ele>1373.0</ele><time>2026-05-02T08:46:15Z</time></trkpt><trkpt lat="46.000512899295835" lon="11.694990341735725"><ele>1376.5</ele><time>2026-05-02T08:46:16Z</time></trkpt><trkpt lat="46.000447323177404" lon="11.694839161605934"><ele>1380.0</ele><time>2026-05-02T08:46:17Z</time></trkpt><trkpt lat="46.00039834370357" lon="11.694686104090074"><ele>1383.5</ele><time>2026-05-02T08:46:18Z</time></trkpt><trkpt lat="46.00035475884009" lon="11.69453258306695"><ele>1387.0</ele><time>2026-05-02T08:46:19Z</time></trkpt><trkpt lat="46.00031645979658" lon="11.69437009938455"><ele>1390.0</ele><time>2026-05-02T08:46:20Z</time></trkpt><trkpt lat="46.00028480550272" lon="11.694196791287334"><ele>1393.0</ele><time>2026-05-02T08:46:21Z</time></trkpt><trkpt lat="46.00025214482715" lon="11.694015250799515"><ele>1396.0</ele><time>2026-05-02T08:46:22Z</time></trkpt><trkpt lat="46.00022566880008" lon="11.693850793455203"><ele>1399.0</ele><time>2026-05-02T08:46:23Z</time></trkpt><trkpt lat="46.000196177938165" lon="11.693711606977704"><ele>1401.6666666666665</ele><time>2026-05-02T08:46:24Z</time></trkpt><trkpt lat="46.00017725320996" lon="11.69358693171619"><ele>1404.3333333333333</ele><time>2026-05-02T08:46:25Z</time></trkpt><trkpt lat="46.00017822905676" lon="11.693481654828096"><ele>1407.0</ele><time>2026-05-02T08:46:26Z</time></trkpt><trkpt lat="46.00022480401163" lon="11.693349089623435"><ele>1409.6666666666667</ele><time>2026-05-02T08:46:28Z</time></trkpt><trkpt lat="46.00032454354295" lon="11.693394051307546"><ele>1412.3333333333335</ele><time>2026-05-02T08:46:30Z</time></trkpt><trkpt lat="46.00037611973747" lon="11.693453443661632"><ele>1415.0</ele><time>2026-05-02T08:46:31Z</time></trkpt><trkpt lat="46.00044066648726" lon="11.693501016868609"><ele>1415.0</ele><time>2026-05-02T08:46:32Z</time></trkpt><trkpt lat="46.00052550476459" lon="11.693524087203016"><ele>1415.0</ele><time>2026-05-02T08:46:33Z</time></trkpt><trkpt lat="46.000617413421224" lon="11.693547676962657"><ele>1415.0</ele><time>2026-05-02T08:46:34Z</time></trkpt><trkpt lat="46.000715573012506" lon="11.693549095678572"><ele>1415.0</ele><time>2026-05-02T08:46:35Z</time></trkpt><trkpt lat="46.00081298628495" lon="11.693515442424681"><ele>1415.0</ele><time>2026-05-02T08:46:36Z</time></trkpt><trkpt lat="46.00091441105437" lon="11.693449603149237"><ele>1414.5</ele><time>2026-05-02T08:46:37Z</time></trkpt><trkpt lat="46.001005485869186" lon="11.693357390460633"><ele>1414.0</ele><time>2026-05-02T08:46:38Z</time></trkpt><trkpt lat="46.00108651546118" lon="11.693244307847522"><ele>1413.5</ele><time>2026-05-02T08:46:39Z</time></trkpt><trkpt lat="46.0011680029543" lon="11.693119362058605"><ele>1413.0</ele><time>2026-05-02T08:46:40Z</time></trkpt><trkpt lat="46.00125799349972" lon="11.692989448776604"><ele>1413.0</ele><time>2026-05-02T08:46:41Z</time></trkpt><trkpt lat="46.001345987525276" lon="11.692849372475111"><ele>1413.0</ele><time>2026-05-02T08:46:42Z</time></trkpt><trkpt lat="46.00141982052524" lon="11.692720256337829"><ele>1413.0</ele><time>2026-05-02T08:46:43Z</time></trkpt><trkpt lat="46.00151015789637" lon="11.692636992980015"><ele>1413.0</ele><time>2026-05-02T08:46:44Z</time></trkpt><trkpt lat="46.00161756433465" lon="11.692581922355537"><ele>1415.0</ele><time>2026-05-02T08:46:45Z</time></trkpt><trkpt lat="46.00173604722789" lon="11.692548557671296"><ele>1417.0</ele><time>2026-05-02T08:46:46Z</time></trkpt><trkpt lat="46.0018770207286" lon="11.692512859966195"><ele>1419.0</ele><time>2026-05-02T08:46:47Z</time></trkpt><trkpt lat="46.00201645190399" lon="11.692541600621151"><ele>1421.0</ele><time>2026-05-02T08:46:48Z</time></trkpt><trkpt lat="46.00213131194538" lon="11.692606327239504"><ele>1421.0</ele><time>2026-05-02T08:46:49Z</time></trkpt><trkpt lat="46.00224248102968" lon="11.692617073861872"><ele>1421.0</ele><time>2026-05-02T08:46:50Z</time></trkpt><trkpt lat="46.00235520587834" lon="11.692642731845282"><ele>1421.0</ele><time>2026-05-02T08:46:51Z</time></trkpt><trkpt lat="46.00247318682716" lon="11.692604830286143"><ele>1421.0</ele><time>2026-05-02T08:46:52.001Z</time></trkpt><trkpt lat="46.002572302111666" lon="11.6925687817863"><ele>1421.0</ele><time>2026-05-02T08:46:53.001Z</time></trkpt><trkpt lat="46.00267047000084" lon="11.692617022624116"><ele>1421.0</ele><time>2026-05-02T08:46:54.001Z</time></trkpt><trkpt lat="46.00277404030018" lon="11.692732731930711"><ele>1421.0</ele><time>2026-05-02T08:46:55.001Z</time></trkpt><trkpt lat="46.002885233790266" lon="11.692831898283215"><ele>1421.0</ele><time>2026-05-02T08:46:56.001Z</time></trkpt><trkpt lat="46.00300748086304" lon="11.692913601040305"><ele>1421.0</ele><time>2026-05-02T08:46:57.001Z</time></trkpt><trkpt lat="46.003130933318324" lon="11.693015903720527"><ele>1416.5</ele><time>2026-05-02T08:46:58.001Z</time></trkpt><trkpt lat="46.003257251021274" lon="11.6931064378708"><ele>1412.0</ele><time>2026-05-02T08:46:59.001Z</time></trkpt><trkpt lat="46.00338582748532" lon="11.693191676590757"><ele>1407.5</ele><time>2026-05-02T08:47:00.001Z</time></trkpt><trkpt lat="46.00350646765652" lon="11.693263967633596"><ele>1403.0</ele><time>2026-05-02T08:47:01.001Z</time></trkpt><trkpt lat="46.00361740590392" lon="11.693306751223409"><ele>1403.0</ele><time>2026-05-02T08:47:02.001Z</time></trkpt><trkpt lat="46.00373104168471" lon="11.693312943226315"><ele>1403.0</ele><time>2026-05-02T08:47:03.001Z</time></trkpt><trkpt lat="46.00385655375104" lon="11.693285042788004"><ele>1403.0</ele><time>2026-05-02T08:47:04.001Z</time></trkpt><trkpt lat="46.00397595073934" lon="11.693269295611435"><ele>1403.0</ele><time>2026-05-02T08:47:05.001Z</time></trkpt><trkpt lat="46.00408274592449" lon="11.693326685999697"><ele>1403.0</ele><time>2026-05-02T08:47:06.001Z</time></trkpt><trkpt lat="46.00416286115824" lon="11.693421478667602"><ele>1403.0</ele><time>2026-05-02T08:47:07.001Z</time></trkpt><trkpt lat="46.00422508459695" lon="11.693554411496132"><ele>1403.0</ele><time>2026-05-02T08:47:08.001Z</time></trkpt><trkpt lat="46.00428077592441" lon="11.693695956053158"><ele>1403.0</ele><time>2026-05-02T08:47:09.001Z</time></trkpt><trkpt lat="46.004352692544465" lon="11.693818271852518"><ele>1403.0</ele><time>2026-05-02T08:47:10.001Z</time></trkpt><trkpt lat="46.0044168379513" lon="11.693926317235034"><ele>1402.4</ele><time>2026-05-02T08:47:11.001Z</time></trkpt><trkpt lat="46.00448659066012" lon="11.693994290193173"><ele>1401.8000000000002</ele><time>2026-05-02T08:47:12.001Z</time></trkpt><trkpt lat="46.004565714498696" lon="11.694040107908307"><ele>1401.2</ele><time>2026-05-02T08:47:13.001Z</time></trkpt><trkpt lat="46.004655535577626" lon="11.694055609032528"><ele>1400.6</ele><time>2026-05-02T08:47:14.001Z</time></trkpt><trkpt lat="46.00474765785045" lon="11.694060904477181"><ele>1400.0</ele><time>2026-05-02T08:47:15.001Z</time></trkpt><trkpt lat="46.00484513138484" lon="11.69406221130067"><ele>1400.0</ele><time>2026-05-02T08:47:16.001Z</time></trkpt><trkpt lat="46.00494993272258" lon="11.694054541070061"><ele>1400.0</ele><time>2026-05-02T08:47:17.001Z</time></trkpt><trkpt lat="46.00504875420863" lon="11.69404522140809"><ele>1400.0</ele><time>2026-05-02T08:47:18.001Z</time></trkpt><trkpt lat="46.00514576276666" lon="11.69401799710725"><ele>1400.0</ele><time>2026-05-02T08:47:19.001Z</time></trkpt><trkpt lat="46.005248334498276" lon="11.693968747688398"><ele>1400.0</ele><time>2026-05-02T08:47:20Z</time></trkpt><trkpt lat="46.00535373601949" lon="11.693908978271894"><ele>1402.5</ele><time>2026-05-02T08:47:21Z</time></trkpt><trkpt lat="46.00545996364051" lon="11.693844435327074"><ele>1405.0</ele><time>2026-05-02T08:47:22Z</time></trkpt><trkpt lat="46.005560589988406" lon="11.693767311779183"><ele>1407.5</ele><time>2026-05-02T08:47:23Z</time></trkpt><trkpt lat="46.005653092918664" lon="11.693672777173356"><ele>1410.0</ele><time>2026-05-02T08:47:24Z</time></trkpt><trkpt lat="46.00573681711785" lon="11.693547146952886"><ele>1410.75</ele><time>2026-05-02T08:47:25Z</time></trkpt><trkpt lat="46.00582350732198" lon="11.693407318051309"><ele>1411.5</ele><time>2026-05-02T08:47:26Z</time></trkpt><trkpt lat="46.005918803264414" lon="11.693265664450019"><ele>1412.25</ele><time>2026-05-02T08:47:27Z</time></trkpt><trkpt lat="46.00601136050519" lon="11.693138471258228"><ele>1413.0</ele><time>2026-05-02T08:47:28Z</time></trkpt><trkpt lat="46.00609727496464" lon="11.69302987518576"><ele>1413.0</ele><time>2026-05-02T08:47:29Z</time></trkpt><trkpt lat="46.006171284700876" lon="11.692925257817413"><ele>1413.0</ele><time>2026-05-02T08:47:30Z</time></trkpt><trkpt lat="46.00623180520887" lon="11.692793411490339"><ele>1413.0</ele><time>2026-05-02T08:47:31Z</time></trkpt><trkpt lat="46.006279643366184" lon="11.692637576393425"><ele>1413.0</ele><time>2026-05-02T08:47:32Z</time></trkpt><trkpt lat="46.006320011752706" lon="11.692470214475184"><ele>1416.5</ele><time>2026-05-02T08:47:33Z</time></trkpt><trkpt lat="46.00636418235283" lon="11.692301883462392"><ele>1420.0</ele><time>2026-05-02T08:47:34Z</time></trkpt><trkpt lat="46.00641452400529" lon="11.692148278624014"><ele>1423.5</ele><time>2026-05-02T08:47:35Z</time></trkpt><trkpt lat="46.00646055069817" lon="11.692009129366369"><ele>1427.0</ele><time>2026-05-02T08:47:36Z</time></trkpt><trkpt lat="46.006486275337515" lon="11.691868909400712"><ele>1428.75</ele><time>2026-05-02T08:47:37Z</time></trkpt><trkpt lat="46.00650818977128" lon="11.691717761748594"><ele>1430.5</ele><time>2026-05-02T08:47:38Z</time></trkpt><trkpt lat="46.00649588444728" lon="11.691543532868684"><ele>1432.25</ele><time>2026-05-02T08:47:39Z</time></trkpt><trkpt lat="46.00648131454123" lon="11.691365148186197"><ele>1434.0</ele><time>2026-05-02T08:47:40Z</time></trkpt><trkpt lat="46.00646881384486" lon="11.691176928717674"><ele>1436.0</ele><time>2026-05-02T08:47:41Z</time></trkpt><trkpt lat="46.006526554120505" lon="11.69099820031445"><ele>1438.0</ele><time>2026-05-02T08:47:42Z</time></trkpt><trkpt lat="46.006585883120806" lon="11.690827270174873"><ele>1440.0</ele><time>2026-05-02T08:47:43Z</time></trkpt><trkpt lat="46.00662165401659" lon="11.69066579362984"><ele>1442.0</ele><time>2026-05-02T08:47:44Z</time></trkpt><trkpt lat="46.00663386810796" lon="11.690486759622663"><ele>1442.0</ele><time>2026-05-02T08:47:45Z</time></trkpt><trkpt lat="46.00663457098261" lon="11.690319616902066"><ele>1442.0</ele><time>2026-05-02T08:47:46Z</time></trkpt><trkpt lat="46.006639893830375" lon="11.690169168391447"><ele>1442.0</ele><time>2026-05-02T08:47:47Z</time></trkpt><trkpt lat="46.00671742933437" lon="11.690056942268006"><ele>1442.0</ele><time>2026-05-02T08:47:48Z</time></trkpt><trkpt lat="46.00679189926399" lon="11.689950538113722"><ele>1442.0</ele><time>2026-05-02T08:47:49Z</time></trkpt><trkpt lat="46.006847866942024" lon="11.689836747268258"><ele>1440.8</ele><time>2026-05-02T08:47:50Z</time></trkpt><trkpt lat="46.00690063664951" lon="11.689722156202937"><ele>1439.6</ele><time>2026-05-02T08:47:51Z</time></trkpt><trkpt lat="46.006937735764986" lon="11.689592723836002"><ele>1438.3999999999999</ele><time>2026-05-02T08:47:52Z</time></trkpt><trkpt lat="46.006952464495185" lon="11.689450779724348"><ele>1437.1999999999998</ele><time>2026-05-02T08:47:53Z</time></trkpt><trkpt lat="46.00695450103778" lon="11.689292230687998"><ele>1436.0</ele><time>2026-05-02T08:47:54Z</time></trkpt><trkpt lat="46.006952320154205" lon="11.689125996135843"><ele>1436.0</ele><time>2026-05-02T08:47:55Z</time></trkpt><trkpt lat="46.00697900671725" lon="11.6889604120183"><ele>1436.0</ele><time>2026-05-02T08:47:56Z</time></trkpt><trkpt lat="46.00702785738152" lon="11.688806582259462"><ele>1436.0</ele><time>2026-05-02T08:47:57Z</time></trkpt><trkpt lat="46.00709818829361" lon="11.68866555141942"><ele>1436.0</ele><time>2026-05-02T08:47:58Z</time></trkpt><trkpt lat="46.00716593323372" lon="11.688522849730225"><ele>1436.0</ele><time>2026-05-02T08:47:59Z</time></trkpt><trkpt lat="46.00724112935908" lon="11.688391811682134"><ele>1436.0</ele><time>2026-05-02T08:48:00Z</time></trkpt><trkpt lat="46.007312006130654" lon="11.688246376691643"><ele>1436.0</ele><time>2026-05-02T08:48:01Z</time></trkpt><trkpt lat="46.00736673684326" lon="11.688083788964711"><ele>1436.0</ele><time>2026-05-02T08:48:02Z</time></trkpt><trkpt lat="46.00740785663781" lon="11.687908755459338"><ele>1437.5</ele><time>2026-05-02T08:48:03Z</time></trkpt><trkpt lat="46.007464237350945" lon="11.68773879947044"><ele>1439.0</ele><time>2026-05-02T08:48:04Z</time></trkpt><trkpt lat="46.00749382210358" lon="11.687549224749716"><ele>1440.5</ele><time>2026-05-02T08:48:05Z</time></trkpt><trkpt lat="46.0075395621617" lon="11.687366464567424"><ele>1442.0</ele><time>2026-05-02T08:48:06Z</time></trkpt><trkpt lat="46.007581211089004" lon="11.687185236766018"><ele>1438.75</ele><time>2026-05-02T08:48:07Z</time></trkpt><trkpt lat="46.00761166175467" lon="11.687002881947958"><ele>1435.5</ele><time>2026-05-02T08:48:08Z</time></trkpt><trkpt lat="46.0076512374538" lon="11.686843030781631"><ele>1432.25</ele><time>2026-05-02T08:48:09Z</time></trkpt><trkpt lat="46.007672183149126" lon="11.686695991960017"><ele>1429.0</ele><time>2026-05-02T08:48:10Z</time></trkpt><trkpt lat="46.00769136668787" lon="11.68654395469246"><ele>1429.0</ele><time>2026-05-02T08:48:11Z</time></trkpt><trkpt lat="46.007686190304106" lon="11.68637376538056"><ele>1429.0</ele><time>2026-05-02T08:48:12Z</time></trkpt><trkpt lat="46.00769848485608" lon="11.686206118228142"><ele>1429.0</ele><time>2026-05-02T08:48:13Z</time></trkpt><trkpt lat="46.00770995696401" lon="11.686053679928433"><ele>1429.0</ele><time>2026-05-02T08:48:14Z</time></trkpt><trkpt lat="46.00772561957295" lon="11.685918440561174"><ele>1429.0</ele><time>2026-05-02T08:48:15Z</time></trkpt><trkpt lat="46.00777134816138" lon="11.685806560833738"><ele>1428.6666666666665</ele><time>2026-05-02T08:48:16Z</time></trkpt><trkpt lat="46.007793434512216" lon="11.685700696890772"><ele>1428.3333333333333</ele><time>2026-05-02T08:48:17Z</time></trkpt><trkpt lat="46.007836109402554" lon="11.685629065681928"><ele>1428.0</ele><time>2026-05-02T08:48:18Z</time></trkpt><trkpt lat="46.00791041709893" lon="11.685506848518008"><ele>1427.6666666666667</ele><time>2026-05-02T08:48:20Z</time></trkpt><trkpt lat="46.00794798886565" lon="11.685431481930951"><ele>1427.3333333333335</ele><time>2026-05-02T08:48:21Z</time></trkpt><trkpt lat="46.00798976658006" lon="11.685345540619537"><ele>1427.0</ele><time>2026-05-02T08:48:22Z</time></trkpt><trkpt lat="46.00806003361265" lon="11.685275704558139"><ele>1427.5</ele><time>2026-05-02T08:48:23Z</time></trkpt><trkpt lat="46.00811774839191" lon="11.685159680841668"><ele>1428.0</ele><time>2026-05-02T08:48:24Z</time></trkpt><trkpt lat="46.00820147109558" lon="11.685051373715524"><ele>1428.5</ele><time>2026-05-02T08:48:25Z</time></trkpt><trkpt lat="46.008299539976534" lon="11.684931620693403"><ele>1429.0</ele><time>2026-05-02T08:48:26Z</time></trkpt><trkpt lat="46.008390763653104" lon="11.684790113781641"><ele>1429.25</ele><time>2026-05-02T08:48:27Z</time></trkpt><trkpt lat="46.00848979474238" lon="11.684650577920467"><ele>1429.5</ele><time>2026-05-02T08:48:28Z</time></trkpt><trkpt lat="46.008574927632466" lon="11.68448732063363"><ele>1429.75</ele><time>2026-05-02T08:48:29Z</time></trkpt><trkpt lat="46.00865540586988" lon="11.684320539596728"><ele>1430.0</ele><time>2026-05-02T08:48:30Z</time></trkpt><trkpt lat="46.00873173057934" lon="11.68415180790261"><ele>1430.0</ele><time>2026-05-02T08:48:31Z</time></trkpt><trkpt lat="46.00880846126036" lon="11.68398219387898"><ele>1430.0</ele><time>2026-05-02T08:48:32Z</time></trkpt><trkpt lat="46.00888682068204" lon="11.683822300275384"><ele>1430.0</ele><time>2026-05-02T08:48:33Z</time></trkpt><trkpt lat="46.00895682867467" lon="11.6836628264866"><ele>1430.0</ele><time>2026-05-02T08:48:34Z</time></trkpt><trkpt lat="46.00904976764901" lon="11.683531783442877"><ele>1427.0</ele><time>2026-05-02T08:48:35Z</time></trkpt><trkpt lat="46.009164608322855" lon="11.683450679762375"><ele>1424.0</ele><time>2026-05-02T08:48:36Z</time></trkpt><trkpt lat="46.009263233286255" lon="11.683335219222386"><ele>1421.0</ele><time>2026-05-02T08:48:37Z</time></trkpt><trkpt lat="46.009365152694876" lon="11.683221066459506"><ele>1418.0</ele><time>2026-05-02T08:48:38Z</time></trkpt><trkpt lat="46.00946019731074" lon="11.68309844003946"><ele>1418.0</ele><time>2026-05-02T08:48:39Z</time></trkpt><trkpt lat="46.00955009734854" lon="11.682970125890996"><ele>1418.0</ele><time>2026-05-02T08:48:40Z</time></trkpt><trkpt lat="46.00963598544579" lon="11.682825499897303"><ele>1418.0</ele><time>2026-05-02T08:48:41Z</time></trkpt><trkpt lat="46.009716264566585" lon="11.682666734284567"><ele>1418.0</ele><time>2026-05-02T08:48:42Z</time></trkpt><trkpt lat="46.009809338389964" lon="11.682498118413433"><ele>1419.6666666666667</ele><time>2026-05-02T08:48:43Z</time></trkpt><trkpt lat="46.00989916480294" lon="11.68232408831812"><ele>1421.3333333333333</ele><time>2026-05-02T08:48:44Z</time></trkpt><trkpt lat="46.009985438184295" lon="11.682144214831414"><ele>1423.0</ele><time>2026-05-02T08:48:45Z</time></trkpt><trkpt lat="46.010065289241176" lon="11.681958866161711"><ele>1417.0</ele><time>2026-05-02T08:48:46Z</time></trkpt><trkpt lat="46.010143496766666" lon="11.681767628587503"><ele>1411.0</ele><time>2026-05-02T08:48:47Z</time></trkpt><trkpt lat="46.0102198040839" lon="11.681572164988246"><ele>1405.0</ele><time>2026-05-02T08:48:48Z</time></trkpt><trkpt lat="46.010292062659595" lon="11.681374024987539"><ele>1405.0</ele><time>2026-05-02T08:48:49Z</time></trkpt><trkpt lat="46.01035903055527" lon="11.681160037971624"><ele>1405.0</ele><time>2026-05-02T08:48:50Z</time></trkpt><trkpt lat="46.010419348066655" lon="11.680939964813927"><ele>1405.0</ele><time>2026-05-02T08:48:51Z</time></trkpt><trkpt lat="46.01048400171251" lon="11.680728094894564"><ele>1405.3333333333333</ele><time>2026-05-02T08:48:52Z</time></trkpt><trkpt lat="46.01056493675109" lon="11.680527913295752"><ele>1405.6666666666667</ele><time>2026-05-02T08:48:53Z</time></trkpt><trkpt lat="46.010655376373535" lon="11.680346765719497"><ele>1406.0</ele><time>2026-05-02T08:48:54Z</time></trkpt><trkpt lat="46.01074606985511" lon="11.680169367789691"><ele>1401.0</ele><time>2026-05-02T08:48:55Z</time></trkpt><trkpt lat="46.01083708454422" lon="11.679999947176016"><ele>1396.0</ele><time>2026-05-02T08:48:56Z</time></trkpt><trkpt lat="46.01093117542602" lon="11.679841645629924"><ele>1391.0</ele><time>2026-05-02T08:48:57Z</time></trkpt><trkpt lat="46.01103153184149" lon="11.679694955614558"><ele>1386.0</ele><time>2026-05-02T08:48:58Z</time></trkpt><trkpt lat="46.01113780471409" lon="11.679559159973309"><ele>1383.3333333333333</ele><time>2026-05-02T08:48:59Z</time></trkpt><trkpt lat="46.01124658160339" lon="11.67942026077426"><ele>1380.6666666666665</ele><time>2026-05-02T08:49:00Z</time></trkpt><trkpt lat="46.0113594551021" lon="11.67927647351391"><ele>1378.0</ele><time>2026-05-02T08:49:01Z</time></trkpt><trkpt lat="46.01147377774866" lon="11.67912831241718"><ele>1378.0</ele><time>2026-05-02T08:49:02Z</time></trkpt><trkpt lat="46.01159140278043" lon="11.678977483193949"><ele>1378.0</ele><time>2026-05-02T08:49:03Z</time></trkpt><trkpt lat="46.01171003599362" lon="11.678826569458868"><ele>1378.0</ele><time>2026-05-02T08:49:04Z</time></trkpt><trkpt lat="46.011829836033954" lon="11.678680122833716"><ele>1374.0</ele><time>2026-05-02T08:49:05.001Z</time></trkpt><trkpt lat="46.011948080690665" lon="11.678548132389142"><ele>1370.0</ele><time>2026-05-02T08:49:06.001Z</time></trkpt><trkpt lat="46.01206289627295" lon="11.678427628553807"><ele>1366.0</ele><time>2026-05-02T08:49:07.001Z</time></trkpt><trkpt lat="46.01218501604158" lon="11.678331088167363"><ele>1362.0</ele><time>2026-05-02T08:49:08.001Z</time></trkpt><trkpt lat="46.0123003715302" lon="11.678216379248681"><ele>1362.0</ele><time>2026-05-02T08:49:09.001Z</time></trkpt><trkpt lat="46.01242342937882" lon="11.678115253032933"><ele>1362.0</ele><time>2026-05-02T08:49:10.001Z</time></trkpt><trkpt lat="46.01255343152369" lon="11.67803478153294"><ele>1362.0</ele><time>2026-05-02T08:49:11.001Z</time></trkpt><trkpt lat="46.01267743087217" lon="11.677936811978105"><ele>1362.0</ele><time>2026-05-02T08:49:12.001Z</time></trkpt><trkpt lat="46.012803529407485" lon="11.67786763228564"><ele>1361.75</ele><time>2026-05-02T08:49:13.001Z</time></trkpt><trkpt lat="46.01293054361304" lon="11.677794500976677"><ele>1361.5</ele><time>2026-05-02T08:49:14.001Z</time></trkpt><trkpt lat="46.01305724438108" lon="11.677714478821605"><ele>1361.25</ele><time>2026-05-02T08:49:15.001Z</time></trkpt><trkpt lat="46.01318432062398" lon="11.67761602529543"><ele>1361.0</ele><time>2026-05-02T08:49:16.001Z</time></trkpt><trkpt lat="46.0133250485528" lon="11.677497411544836"><ele>1362.6666666666667</ele><time>2026-05-02T08:49:17.001Z</time></trkpt><trkpt lat="46.01347234501048" lon="11.677370508162669"><ele>1364.3333333333333</ele><time>2026-05-02T08:49:18.001Z</time></trkpt><trkpt lat="46.01362780561547" lon="11.67724511564787"><ele>1366.0</ele><time>2026-05-02T08:49:19.001Z</time></trkpt><trkpt lat="46.013789114789226" lon="11.677119729449412"><ele>1366.0</ele><time>2026-05-02T08:49:20.001Z</time></trkpt><trkpt lat="46.013935981674194" lon="11.67699819311736"><ele>1366.0</ele><time>2026-05-02T08:49:21.001Z</time></trkpt><trkpt lat="46.014064877548876" lon="11.676877757249658"><ele>1366.0</ele><time>2026-05-02T08:49:22.001Z</time></trkpt><trkpt lat="46.01417259442748" lon="11.676776817632724"><ele>1365.25</ele><time>2026-05-02T08:49:23.001Z</time></trkpt><trkpt lat="46.01426564821569" lon="11.67670602941824"><ele>1364.5</ele><time>2026-05-02T08:49:24.001Z</time></trkpt><trkpt lat="46.014334529078134" lon="11.676592519516955"><ele>1363.75</ele><time>2026-05-02T08:49:25.001Z</time></trkpt><trkpt lat="46.01435516034583" lon="11.676423652762365"><ele>1363.0</ele><time>2026-05-02T08:49:26Z</time></trkpt><trkpt lat="46.01439309363076" lon="11.67624322705579"><ele>1363.0</ele><time>2026-05-02T08:49:27Z</time></trkpt><trkpt lat="46.0144323608959" lon="11.676053348732504"><ele>1363.0</ele><time>2026-05-02T08:49:28Z</time></trkpt><trkpt lat="46.014477384340196" lon="11.67587112248256"><ele>1363.0</ele><time>2026-05-02T08:49:29Z</time></trkpt><trkpt lat="46.0145223550936" lon="11.675698275950964"><ele>1363.0</ele><time>2026-05-02T08:49:30Z</time></trkpt><trkpt lat="46.01456190665615" lon="11.67554597573334"><ele>1363.0</ele><time>2026-05-02T08:49:31Z</time></trkpt><trkpt lat="46.01458426908298" lon="11.675391991139682"><ele>1363.0</ele><time>2026-05-02T08:49:32Z</time></trkpt><trkpt lat="46.014582544707835" lon="11.675224593498413"><ele>1363.0</ele><time>2026-05-02T08:49:33Z</time></trkpt><trkpt lat="46.01455551404199" lon="11.67504736390357"><ele>1363.0</ele><time>2026-05-02T08:49:34Z</time></trkpt><trkpt lat="46.01452435593707" lon="11.674863787901936"><ele>1360.25</ele><time>2026-05-02T08:49:35Z</time></trkpt><trkpt lat="46.014504593407636" lon="11.674670594895998"><ele>1357.5</ele><time>2026-05-02T08:49:36Z</time></trkpt><trkpt lat="46.014503629063995" lon="11.674474464689323"><ele>1354.75</ele><time>2026-05-02T08:49:37Z</time></trkpt><trkpt lat="46.01451167917258" lon="11.674276864733578"><ele>1352.0</ele><time>2026-05-02T08:49:38Z</time></trkpt><trkpt lat="46.01452504402816" lon="11.674065894351235"><ele>1352.3333333333335</ele><time>2026-05-02T08:49:39Z</time></trkpt><trkpt lat="46.01454390920209" lon="11.673854033353301"><ele>1352.6666666666667</ele><time>2026-05-02T08:49:40Z</time></trkpt><trkpt lat="46.014581366639256" lon="11.67364525351989"><ele>1353.0</ele><time>2026-05-02T08:49:41Z</time></trkpt><trkpt lat="46.014632774560425" lon="11.673429797952041"><ele>1353.0</ele><time>2026-05-02T08:49:42Z</time></trkpt><trkpt lat="46.01469163192341" lon="11.673224139298043"><ele>1353.0</ele><time>2026-05-02T08:49:43Z</time></trkpt><trkpt lat="46.01474145932696" lon="11.673015056536247"><ele>1353.0</ele><time>2026-05-02T08:49:44Z</time></trkpt><trkpt lat="46.01478867571617" lon="11.67280804822877"><ele>1352.25</ele><time>2026-05-02T08:49:45Z</time></trkpt><trkpt lat="46.01483333317658" lon="11.672622952581001"><ele>1351.5</ele><time>2026-05-02T08:49:46Z</time></trkpt><trkpt lat="46.01486971197432" lon="11.67245451487608"><ele>1350.75</ele><time>2026-05-02T08:49:47Z</time></trkpt><trkpt lat="46.01489271565637" lon="11.672294845469946"><ele>1350.0</ele><time>2026-05-02T08:49:48Z</time></trkpt><trkpt lat="46.01492536921225" lon="11.67212655558295"><ele>1350.0</ele><time>2026-05-02T08:49:49Z</time></trkpt><trkpt lat="46.014980067078014" lon="11.67195159485096"><ele>1350.0</ele><time>2026-05-02T08:49:50Z</time></trkpt><trkpt lat="46.01504666789394" lon="11.671775731772787"><ele>1350.0</ele><time>2026-05-02T08:49:51Z</time></trkpt><trkpt lat="46.01511567939128" lon="11.67159498011936"><ele>1350.0</ele><time>2026-05-02T08:49:52Z</time></trkpt><trkpt lat="46.01517947642649" lon="11.67141027806263"><ele>1350.0</ele><time>2026-05-02T08:49:53Z</time></trkpt><trkpt lat="46.01525627692821" lon="11.671241551119582"><ele>1350.0</ele><time>2026-05-02T08:49:54Z</time></trkpt><trkpt lat="46.01530754764885" lon="11.671062361483255"><ele>1350.0</ele><time>2026-05-02T08:49:55Z</time></trkpt><trkpt lat="46.01538130795041" lon="11.670906201083618"><ele>1350.0</ele><time>2026-05-02T08:49:56Z</time></trkpt><trkpt lat="46.01545682530122" lon="11.670757250730544"><ele>1350.0</ele><time>2026-05-02T08:49:57Z</time></trkpt><trkpt lat="46.015524211271156" lon="11.670613851186616"><ele>1350.0</ele><time>2026-05-02T08:49:58Z</time></trkpt><trkpt lat="46.015602923576616" lon="11.670475218254134"><ele>1350.0</ele><time>2026-05-02T08:49:59Z</time></trkpt><trkpt lat="46.01566551083617" lon="11.670307713092422"><ele>1350.0</ele><time>2026-05-02T08:50:00Z</time></trkpt><trkpt lat="46.015709401668175" lon="11.670120827473484"><ele>1347.25</ele><time>2026-05-02T08:50:01Z</time></trkpt><trkpt lat="46.01578234104186" lon="11.66995471284743"><ele>1344.5</ele><time>2026-05-02T08:50:02Z</time></trkpt><trkpt lat="46.01584459691002" lon="11.669779744439792"><ele>1341.75</ele><time>2026-05-02T08:50:03Z</time></trkpt><trkpt lat="46.01589584781813" lon="11.669597588592572"><ele>1339.0</ele><time>2026-05-02T08:50:04Z</time></trkpt><trkpt lat="46.01596664030595" lon="11.669440507482191"><ele>1339.0</ele><time>2026-05-02T08:50:05Z</time></trkpt><trkpt lat="46.01603853124691" lon="11.669299175541815"><ele>1339.0</ele><time>2026-05-02T08:50:06Z</time></trkpt><trkpt lat="46.01613232410938" lon="11.669189266212616"><ele>1339.0</ele><time>2026-05-02T08:50:07Z</time></trkpt><trkpt lat="46.01622496747313" lon="11.66907913531407"><ele>1339.0</ele><time>2026-05-02T08:50:08Z</time></trkpt><trkpt lat="46.01632399590482" lon="11.668965028335665"><ele>1339.0</ele><time>2026-05-02T08:50:09Z</time></trkpt><trkpt lat="46.01642948790521" lon="11.668844747929484"><ele>1339.0</ele><time>2026-05-02T08:50:10Z</time></trkpt><trkpt lat="46.01653620539372" lon="11.668703385729692"><ele>1339.0</ele><time>2026-05-02T08:50:11Z</time></trkpt><trkpt lat="46.01665372704141" lon="11.668583254507546"><ele>1339.0</ele><time>2026-05-02T08:50:12Z</time></trkpt><trkpt lat="46.01676573747388" lon="11.668469262466392"><ele>1340.25</ele><time>2026-05-02T08:50:13Z</time></trkpt><trkpt lat="46.01687891137823" lon="11.668374564046697"><ele>1341.5</ele><time>2026-05-02T08:50:14Z</time></trkpt><trkpt lat="46.017012378200896" lon="11.668302695182707"><ele>1342.75</ele><time>2026-05-02T08:50:15Z</time></trkpt><trkpt lat="46.01714763797563" lon="11.668236491737774"><ele>1344.0</ele><time>2026-05-02T08:50:16Z</time></trkpt><trkpt lat="46.017281208181956" lon="11.66818954533358"><ele>1344.0</ele><time>2026-05-02T08:50:17Z</time></trkpt><trkpt lat="46.01740903383863" lon="11.668150256421097"><ele>1344.0</ele><time>2026-05-02T08:50:18Z</time></trkpt><trkpt lat="46.01752676775441" lon="11.668114293309825"><ele>1344.0</ele><time>2026-05-02T08:50:19Z</time></trkpt><trkpt lat="46.01762961288269" lon="11.668080991987209"><ele>1344.0</ele><time>2026-05-02T08:50:20Z</time></trkpt><trkpt lat="46.01771838771694" lon="11.668060017664606"><ele>1344.0</ele><time>2026-05-02T08:50:21Z</time></trkpt><trkpt lat="46.01779600038948" lon="11.66804891145341"><ele>1341.1666666666667</ele><time>2026-05-02T08:50:22Z</time></trkpt><trkpt lat="46.01787514130252" lon="11.668061067149532"><ele>1338.3333333333333</ele><time>2026-05-02T08:50:23Z</time></trkpt><trkpt lat="46.017941860653714" lon="11.66809279478629"><ele>1335.5</ele><time>2026-05-02T08:50:24Z</time></trkpt><trkpt lat="46.01801898389315" lon="11.66813485609483"><ele>1332.6666666666665</ele><time>2026-05-02T08:50:25Z</time></trkpt><trkpt lat="46.01809993192032" lon="11.668175621455688"><ele>1329.8333333333333</ele><time>2026-05-02T08:50:26Z</time></trkpt><trkpt lat="46.018184596456805" lon="11.668208487008165"><ele>1327.0</ele><time>2026-05-02T08:50:27Z</time></trkpt><trkpt lat="46.018273191992876" lon="11.668207157770052"><ele>1325.3999999999999</ele><time>2026-05-02T08:50:28Z</time></trkpt><trkpt lat="46.018364504877205" lon="11.668158785674901"><ele>1323.8</ele><time>2026-05-02T08:50:29Z</time></trkpt><trkpt lat="46.018462844472594" lon="11.66808686292194"><ele>1322.2</ele><time>2026-05-02T08:50:30Z</time></trkpt><trkpt lat="46.018565122374675" lon="11.668011356452363"><ele>1320.6</ele><time>2026-05-02T08:50:31Z</time></trkpt><trkpt lat="46.018670195461034" lon="11.667948128230286"><ele>1319.0</ele><time>2026-05-02T08:50:32Z</time></trkpt><trkpt lat="46.01878527674222" lon="11.667904383224363"><ele>1319.0</ele><time>2026-05-02T08:50:33Z</time></trkpt><trkpt lat="46.018895062542775" lon="11.667898902259294"><ele>1319.0</ele><time>2026-05-02T08:50:34Z</time></trkpt><trkpt lat="46.01900279163683" lon="11.667923904675648"><ele>1319.0</ele><time>2026-05-02T08:50:35Z</time></trkpt><trkpt lat="46.01910842000112" lon="11.667931452034608"><ele>1319.0</ele><time>2026-05-02T08:50:36Z</time></trkpt><trkpt lat="46.019221318878046" lon="11.667892585898866"><ele>1319.0</ele><time>2026-05-02T08:50:37Z</time></trkpt><trkpt lat="46.019335299928095" lon="11.667861019091173"><ele>1318.75</ele><time>2026-05-02T08:50:38Z</time></trkpt><trkpt lat="46.01944866944312" lon="11.667825519478518"><ele>1318.5</ele><time>2026-05-02T08:50:39Z</time></trkpt><trkpt lat="46.0195592075799" lon="11.667782476617878"><ele>1318.25</ele><time>2026-05-02T08:50:40Z</time></trkpt><trkpt lat="46.01966471957459" lon="11.667720687861957"><ele>1318.0</ele><time>2026-05-02T08:50:41Z</time></trkpt><trkpt lat="46.01976570447972" lon="11.667633549172093"><ele>1322.0</ele><time>2026-05-02T08:50:42Z</time></trkpt><trkpt lat="46.01986239518442" lon="11.66753341609074"><ele>1326.0</ele><time>2026-05-02T08:50:43Z</time></trkpt><trkpt lat="46.01994627979172" lon="11.66743382009103"><ele>1330.0</ele><time>2026-05-02T08:50:44Z</time></trkpt><trkpt lat="46.020021143884385" lon="11.667319447783441"><ele>1334.0</ele><time>2026-05-02T08:50:45Z</time></trkpt><trkpt lat="46.02007791446839" lon="11.667177017066894"><ele>1334.0</ele><time>2026-05-02T08:50:46Z</time></trkpt><trkpt lat="46.02012797880664" lon="11.667050300739664"><ele>1334.0</ele><time>2026-05-02T08:50:47Z</time></trkpt><trkpt lat="46.0202110072552" lon="11.666965730287211"><ele>1334.0</ele><time>2026-05-02T08:50:48Z</time></trkpt><trkpt lat="46.020317263960884" lon="11.666952426744254"><ele>1334.0</ele><time>2026-05-02T08:50:49Z</time></trkpt><trkpt lat="46.02042936795352" lon="11.66691248783215"><ele>1334.0</ele><time>2026-05-02T08:50:50Z</time></trkpt><trkpt lat="46.02054897052225" lon="11.666879184333656"><ele>1334.5</ele><time>2026-05-02T08:50:51Z</time></trkpt><trkpt lat="46.020663345060555" lon="11.666833246738417"><ele>1335.0</ele><time>2026-05-02T08:50:52Z</time></trkpt><trkpt lat="46.020785531845" lon="11.666770725053343"><ele>1335.5</ele><time>2026-05-02T08:50:53Z</time></trkpt><trkpt lat="46.020905702358014" lon="11.666693842110575"><ele>1336.0</ele><time>2026-05-02T08:50:54Z</time></trkpt><trkpt lat="46.0210254193927" lon="11.666629078378834"><ele>1336.0</ele><time>2026-05-02T08:50:55Z</time></trkpt><trkpt lat="46.02115174433552" lon="11.666601027414337"><ele>1336.0</ele><time>2026-05-02T08:50:56Z</time></trkpt><trkpt lat="46.02128878372522" lon="11.666610600452191"><ele>1336.0</ele><time>2026-05-02T08:50:57Z</time></trkpt><trkpt lat="46.021424702432604" lon="11.666629815463356"><ele>1336.0</ele><time>2026-05-02T08:50:58Z</time></trkpt><trkpt lat="46.02156667945213" lon="11.66664457150727"><ele>1331.0</ele><time>2026-05-02T08:50:59Z</time></trkpt><trkpt lat="46.02171237049302" lon="11.666660495102752"><ele>1326.0</ele><time>2026-05-02T08:51:00Z</time></trkpt><trkpt lat="46.021864857145545" lon="11.666664223038923"><ele>1321.0</ele><time>2026-05-02T08:51:01Z</time></trkpt><trkpt lat="46.02202185433096" lon="11.666671647707256"><ele>1321.0</ele><time>2026-05-02T08:51:02.001Z</time></trkpt><trkpt lat="46.022181568346085" lon="11.666644719388124"><ele>1321.0</ele><time>2026-05-02T08:51:03.001Z</time></trkpt><trkpt lat="46.02234040519766" lon="11.666632143210638"><ele>1321.0</ele><time>2026-05-02T08:51:04.001Z</time></trkpt><trkpt lat="46.0224956326778" lon="11.666620903194788"><ele>1320.5</ele><time>2026-05-02T08:51:05.001Z</time></trkpt><trkpt lat="46.022646556447896" lon="11.666605128800464"><ele>1320.0</ele><time>2026-05-02T08:51:06.001Z</time></trkpt><trkpt lat="46.02279295689682" lon="11.666583341832265"><ele>1319.5</ele><time>2026-05-02T08:51:07.001Z</time></trkpt><trkpt lat="46.02293212972254" lon="11.666552918736569"><ele>1319.0</ele><time>2026-05-02T08:51:08.001Z</time></trkpt><trkpt lat="46.02306236390709" lon="11.666489828020586"><ele>1319.0</ele><time>2026-05-02T08:51:09.001Z</time></trkpt><trkpt lat="46.0231908941015" lon="11.666404344025976"><ele>1319.0</ele><time>2026-05-02T08:51:10.001Z</time></trkpt><trkpt lat="46.02331346662347" lon="11.666307422047032"><ele>1319.0</ele><time>2026-05-02T08:51:11.001Z</time></trkpt><trkpt lat="46.02342188748909" lon="11.666170854599777"><ele>1319.0</ele><time>2026-05-02T08:51:12.001Z</time></trkpt><trkpt lat="46.023511224690694" lon="11.666016437297603"><ele>1319.25</ele><time>2026-05-02T08:51:13.001Z</time></trkpt><trkpt lat="46.02358501606228" lon="11.665845875026038"><ele>1319.5</ele><time>2026-05-02T08:51:14.001Z</time></trkpt><trkpt lat="46.02363922197896" lon="11.665661709940812"><ele>1319.75</ele><time>2026-05-02T08:51:15.001Z</time></trkpt><trkpt lat="46.02367825849135" lon="11.665465017139999"><ele>1320.0</ele><time>2026-05-02T08:51:16.001Z</time></trkpt><trkpt lat="46.02371498261858" lon="11.66527188520628"><ele>1323.75</ele><time>2026-05-02T08:51:17.001Z</time></trkpt><trkpt lat="46.02376161176562" lon="11.665078804754012"><ele>1327.5</ele><time>2026-05-02T08:51:18.001Z</time></trkpt><trkpt lat="46.02380962400642" lon="11.664886481311562"><ele>1331.25</ele><time>2026-05-02T08:51:19.001Z</time></trkpt><trkpt lat="46.02385822077126" lon="11.664696690240172"><ele>1335.0</ele><time>2026-05-02T08:51:20.001Z</time></trkpt><trkpt lat="46.02389248951714" lon="11.664502623817276"><ele>1335.5</ele><time>2026-05-02T08:51:21.001Z</time></trkpt><trkpt lat="46.02392239220038" lon="11.66430612808657"><ele>1336.0</ele><time>2026-05-02T08:51:22.001Z</time></trkpt><trkpt lat="46.02395302474352" lon="11.66410985739022"><ele>1336.5</ele><time>2026-05-02T08:51:23.001Z</time></trkpt><trkpt lat="46.0239785059904" lon="11.663911118136069"><ele>1337.0</ele><time>2026-05-02T08:51:24.001Z</time></trkpt><trkpt lat="46.02399944570785" lon="11.663714637126727"><ele>1336.75</ele><time>2026-05-02T08:51:25.001Z</time></trkpt><trkpt lat="46.024022297434996" lon="11.663526005385009"><ele>1336.5</ele><time>2026-05-02T08:51:26.001Z</time></trkpt><trkpt lat="46.02408021555242" lon="11.663357328999373"><ele>1336.25</ele><time>2026-05-02T08:51:27.001Z</time></trkpt><trkpt lat="46.0241693833056" lon="11.663191294030256"><ele>1336.0</ele><time>2026-05-02T08:51:28.001Z</time></trkpt><trkpt lat="46.024270506042456" lon="11.663019997923797"><ele>1329.6666666666665</ele><time>2026-05-02T08:51:29.001Z</time></trkpt><trkpt lat="46.02436878062022" lon="11.662839959778099"><ele>1323.3333333333333</ele><time>2026-05-02T08:51:30.001Z</time></trkpt><trkpt lat="46.02445837224635" lon="11.66265309761463"><ele>1317.0</ele><time>2026-05-02T08:51:31.001Z</time></trkpt><trkpt lat="46.024533963460854" lon="11.662461956539074"><ele>1317.0</ele><time>2026-05-02T08:51:32Z</time></trkpt><trkpt lat="46.02459421824701" lon="11.662262689494627"><ele>1317.0</ele><time>2026-05-02T08:51:33Z</time></trkpt><trkpt lat="46.02463641696859" lon="11.66206319443924"><ele>1317.0</ele><time>2026-05-02T08:51:34Z</time></trkpt><trkpt lat="46.024689682174845" lon="11.661883871978825"><ele>1317.0</ele><time>2026-05-02T08:51:35Z</time></trkpt><trkpt lat="46.024768802508454" lon="11.661716259971717"><ele>1316.25</ele><time>2026-05-02T08:51:36Z</time></trkpt><trkpt lat="46.0248650342039" lon="11.661560029335625"><ele>1315.5</ele><time>2026-05-02T08:51:37Z</time></trkpt><trkpt lat="46.02498020565599" lon="11.661442158853687"><ele>1314.75</ele><time>2026-05-02T08:51:38Z</time></trkpt><trkpt lat="46.02509266341073" lon="11.661330616756429"><ele>1314.0</ele><time>2026-05-02T08:51:39Z</time></trkpt><trkpt lat="46.02519117322771" lon="11.661199452078005"><ele>1308.5</ele><time>2026-05-02T08:51:40Z</time></trkpt><trkpt lat="46.025277230212765" lon="11.66103816852881"><ele>1303.0</ele><time>2026-05-02T08:51:41Z</time></trkpt><trkpt lat="46.02534055682887" lon="11.660870460830724"><ele>1297.5</ele><time>2026-05-02T08:51:42Z</time></trkpt><trkpt lat="46.02538503215654" lon="11.660711323208542"><ele>1292.0</ele><time>2026-05-02T08:51:43Z</time></trkpt><trkpt lat="46.02543603496451" lon="11.660585854688595"><ele>1292.0</ele><time>2026-05-02T08:51:44Z</time></trkpt><trkpt lat="46.02546550888412" lon="11.660493274033051"><ele>1292.0</ele><time>2026-05-02T08:51:45Z</time></trkpt><trkpt lat="46.02557398657151" lon="11.660463922872818"><ele>1292.0</ele><time>2026-05-02T08:51:47Z</time></trkpt><trkpt lat="46.025611328314646" lon="11.660557378519858"><ele>1292.0</ele><time>2026-05-02T08:51:48Z</time></trkpt><trkpt lat="46.025603153205616" lon="11.66068734467533"><ele>1292.0</ele><time>2026-05-02T08:51:49Z</time></trkpt><trkpt lat="46.02557416322065" lon="11.66083544882882"><ele>1292.0</ele><time>2026-05-02T08:51:50Z</time></trkpt><trkpt lat="46.025553409366005" lon="11.660962933831847"><ele>1292.0</ele><time>2026-05-02T08:51:51Z</time></trkpt><trkpt lat="46.02553953964503" lon="11.661067530558999"><ele>1292.0</ele><time>2026-05-02T08:51:52Z</time></trkpt><trkpt lat="46.0256242427865" lon="11.66116912049675"><ele>1292.0</ele><time>2026-05-02T08:51:54Z</time></trkpt><trkpt lat="46.02568175013561" lon="11.66112039508743"><ele>1292.0</ele><time>2026-05-02T08:51:55Z</time></trkpt><trkpt lat="46.02572770301229" lon="11.66102485995875"><ele>1292.0</ele><time>2026-05-02T08:51:56Z</time></trkpt><trkpt lat="46.02581323383606" lon="11.660929761421405"><ele>1288.0</ele><time>2026-05-02T08:51:57Z</time></trkpt><trkpt lat="46.02590279203109" lon="11.660782209151904"><ele>1284.0</ele><time>2026-05-02T08:51:58Z</time></trkpt><trkpt lat="46.02600520455216" lon="11.660661829390754"><ele>1280.0</ele><time>2026-05-02T08:51:59Z</time></trkpt><trkpt lat="46.02611284828181" lon="11.660534477128804"><ele>1276.0</ele><time>2026-05-02T08:52:00Z</time></trkpt><trkpt lat="46.02622777766297" lon="11.660412779084927"><ele>1276.0</ele><time>2026-05-02T08:52:01Z</time></trkpt><trkpt lat="46.0263453462105" lon="11.660292572111505"><ele>1276.0</ele><time>2026-05-02T08:52:02Z</time></trkpt><trkpt lat="46.02646324391796" lon="11.660189713901662"><ele>1276.0</ele><time>2026-05-02T08:52:03Z</time></trkpt><trkpt lat="46.02657967416168" lon="11.660097498688833"><ele>1276.0</ele><time>2026-05-02T08:52:04Z</time></trkpt><trkpt lat="46.02670029023347" lon="11.660028197312972"><ele>1272.75</ele><time>2026-05-02T08:52:05Z</time></trkpt><trkpt lat="46.02682552233319" lon="11.659980030209596"><ele>1269.5</ele><time>2026-05-02T08:52:06Z</time></trkpt><trkpt lat="46.02695437359566" lon="11.659956074702578"><ele>1266.25</ele><time>2026-05-02T08:52:07Z</time></trkpt><trkpt lat="46.02709070917382" lon="11.659958140084276"><ele>1263.0</ele><time>2026-05-02T08:52:08Z</time></trkpt><trkpt lat="46.02722638057571" lon="11.659961234084086"><ele>1263.0</ele><time>2026-05-02T08:52:09Z</time></trkpt><trkpt lat="46.02735588216354" lon="11.659962779443685"><ele>1263.0</ele><time>2026-05-02T08:52:10Z</time></trkpt><trkpt lat="46.02748146064575" lon="11.659957381444551"><ele>1263.0</ele><time>2026-05-02T08:52:11Z</time></trkpt><trkpt lat="46.027602958966426" lon="11.659963082584126"><ele>1263.0</ele><time>2026-05-02T08:52:12Z</time></trkpt><trkpt lat="46.027719208025815" lon="11.659902737453658"><ele>1262.5</ele><time>2026-05-02T08:52:13Z</time></trkpt><trkpt lat="46.02782354539799" lon="11.659820412818576"><ele>1262.0</ele><time>2026-05-02T08:52:14Z</time></trkpt><trkpt lat="46.027931143395335" lon="11.659715199647824"><ele>1261.5</ele><time>2026-05-02T08:52:15Z</time></trkpt><trkpt lat="46.02803944418004" lon="11.659609821315847"><ele>1261.0</ele><time>2026-05-02T08:52:16Z</time></trkpt><trkpt lat="46.0281446910697" lon="11.659495312285493"><ele>1257.75</ele><time>2026-05-02T08:52:17Z</time></trkpt><trkpt lat="46.02824655857537" lon="11.659368513433973"><ele>1254.5</ele><time>2026-05-02T08:52:18Z</time></trkpt><trkpt lat="46.028346566760014" lon="11.659241020888643"><ele>1251.25</ele><time>2026-05-02T08:52:19Z</time></trkpt><trkpt lat="46.02846109181062" lon="11.659136547751919"><ele>1248.0</ele><time>2026-05-02T08:52:20Z</time></trkpt><trkpt lat="46.02858399294501" lon="11.659050797683706"><ele>1247.0</ele><time>2026-05-02T08:52:21Z</time></trkpt><trkpt lat="46.028708289534165" lon="11.658969359852337"><ele>1246.0</ele><time>2026-05-02T08:52:22Z</time></trkpt><trkpt lat="46.028841588917786" lon="11.658908126691681"><ele>1245.0</ele><time>2026-05-02T08:52:23Z</time></trkpt><trkpt lat="46.02897482769293" lon="11.658859829464532"><ele>1244.0</ele><time>2026-05-02T08:52:24Z</time></trkpt><trkpt lat="46.02910658829547" lon="11.65881260185793"><ele>1244.5</ele><time>2026-05-02T08:52:25Z</time></trkpt><trkpt lat="46.02923761779507" lon="11.658755887378351"><ele>1245.0</ele><time>2026-05-02T08:52:26Z</time></trkpt><trkpt lat="46.029363555463725" lon="11.658691176800499"><ele>1245.5</ele><time>2026-05-02T08:52:27Z</time></trkpt><trkpt lat="46.02948307266086" lon="11.658618398362131"><ele>1246.0</ele><time>2026-05-02T08:52:28Z</time></trkpt><trkpt lat="46.02959678097539" lon="11.658539820539357"><ele>1246.0</ele><time>2026-05-02T08:52:29Z</time></trkpt><trkpt lat="46.02970642002254" lon="11.658450468694634"><ele>1246.0</ele><time>2026-05-02T08:52:30Z</time></trkpt><trkpt lat="46.02982193093473" lon="11.658347430325795"><ele>1246.0</ele><time>2026-05-02T08:52:31Z</time></trkpt><trkpt lat="46.02993938591394" lon="11.658243264752118"><ele>1246.0</ele><time>2026-05-02T08:52:32Z</time></trkpt><trkpt lat="46.03005794951945" lon="11.65813336433323"><ele>1246.0</ele><time>2026-05-02T08:52:33Z</time></trkpt><trkpt lat="46.03017386875283" lon="11.658024384366684"><ele>1246.0</ele><time>2026-05-02T08:52:34Z</time></trkpt><trkpt lat="46.03028032159391" lon="11.657924470417708"><ele>1246.0</ele><time>2026-05-02T08:52:35Z</time></trkpt><trkpt lat="46.03037837697168" lon="11.657832264664542"><ele>1246.0</ele><time>2026-05-02T08:52:36Z</time></trkpt><trkpt lat="46.030470399638936" lon="11.657748704734118"><ele>1248.0</ele><time>2026-05-02T08:52:37Z</time></trkpt><trkpt lat="46.03055807535266" lon="11.657664835887529"><ele>1250.0</ele><time>2026-05-02T08:52:38Z</time></trkpt><trkpt lat="46.030634869453216" lon="11.657546053114123"><ele>1252.0</ele><time>2026-05-02T08:52:39Z</time></trkpt><trkpt lat="46.030702250598395" lon="11.657411968812433"><ele>1254.0</ele><time>2026-05-02T08:52:40Z</time></trkpt><trkpt lat="46.03074903672433" lon="11.657268797418588"><ele>1256.0</ele><time>2026-05-02T08:52:41Z</time></trkpt><trkpt lat="46.03077263379895" lon="11.65710526683769"><ele>1253.25</ele><time>2026-05-02T08:52:42Z</time></trkpt><trkpt lat="46.03078409996367" lon="11.656925663854278"><ele>1250.5</ele><time>2026-05-02T08:52:43Z</time></trkpt><trkpt lat="46.03079525812093" lon="11.656741668997931"><ele>1247.75</ele><time>2026-05-02T08:52:44Z</time></trkpt><trkpt lat="46.030800767446955" lon="11.65657069947499"><ele>1245.0</ele><time>2026-05-02T08:52:45Z</time></trkpt><trkpt lat="46.03079191179064" lon="11.65640920423073"><ele>1245.0</ele><time>2026-05-02T08:52:46Z</time></trkpt><trkpt lat="46.03076121255886" lon="11.656242453018304"><ele>1245.0</ele><time>2026-05-02T08:52:47Z</time></trkpt><trkpt lat="46.03073265255808" lon="11.656048534636637"><ele>1245.0</ele><time>2026-05-02T08:52:48Z</time></trkpt><trkpt lat="46.03067575040465" lon="11.655854269967765"><ele>1245.0</ele><time>2026-05-02T08:52:49Z</time></trkpt><trkpt lat="46.030616188275864" lon="11.655665864069165"><ele>1239.75</ele><time>2026-05-02T08:52:50Z</time></trkpt><trkpt lat="46.03054329852618" lon="11.655487023685806"><ele>1234.5</ele><time>2026-05-02T08:52:51Z</time></trkpt><trkpt lat="46.030494978407496" lon="11.655293348319658"><ele>1229.25</ele><time>2026-05-02T08:52:52Z</time></trkpt><trkpt lat="46.03045347052928" lon="11.655087525952656"><ele>1224.0</ele><time>2026-05-02T08:52:53Z</time></trkpt><trkpt lat="46.030427754105084" lon="11.654877095905901"><ele>1222.25</ele><time>2026-05-02T08:52:54Z</time></trkpt><trkpt lat="46.030419432865926" lon="11.654665717637265"><ele>1220.5</ele><time>2026-05-02T08:52:55Z</time></trkpt><trkpt lat="46.03041945506723" lon="11.654462357217076"><ele>1218.75</ele><time>2026-05-02T08:52:56Z</time></trkpt><trkpt lat="46.03041818108379" lon="11.654264819713868"><ele>1217.0</ele><time>2026-05-02T08:52:57Z</time></trkpt><trkpt lat="46.03041471603648" lon="11.654069547818157"><ele>1217.0</ele><time>2026-05-02T08:52:58Z</time></trkpt><trkpt lat="46.03041139341655" lon="11.653875748900266"><ele>1217.0</ele><time>2026-05-02T08:52:59Z</time></trkpt><trkpt lat="46.03041182270175" lon="11.653681583582959"><ele>1217.0</ele><time>2026-05-02T08:53:00Z</time></trkpt><trkpt lat="46.03041481171192" lon="11.6534901986455"><ele>1217.0</ele><time>2026-05-02T08:53:01Z</time></trkpt><trkpt lat="46.03042062528582" lon="11.653307677393785"><ele>1218.25</ele><time>2026-05-02T08:53:02.001Z</time></trkpt><trkpt lat="46.030427200806315" lon="11.65312986227858"><ele>1219.5</ele><time>2026-05-02T08:53:03.001Z</time></trkpt><trkpt lat="46.03043748107844" lon="11.6529557996048"><ele>1220.75</ele><time>2026-05-02T08:53:04.001Z</time></trkpt><trkpt lat="46.030473823169565" lon="11.652791703607162"><ele>1222.0</ele><time>2026-05-02T08:53:05.001Z</time></trkpt><trkpt lat="46.03048588339258" lon="11.652624865510257"><ele>1226.25</ele><time>2026-05-02T08:53:06.001Z</time></trkpt><trkpt lat="46.030522727569306" lon="11.652470965384168"><ele>1230.5</ele><time>2026-05-02T08:53:07.001Z</time></trkpt><trkpt lat="46.03056916580826" lon="11.65231894906175"><ele>1234.75</ele><time>2026-05-02T08:53:08.001Z</time></trkpt><trkpt lat="46.030623040180245" lon="11.652168530533503"><ele>1239.0</ele><time>2026-05-02T08:53:09.001Z</time></trkpt><trkpt lat="46.030698854518924" lon="11.65204524576656"><ele>1241.75</ele><time>2026-05-02T08:53:10.001Z</time></trkpt><trkpt lat="46.0307681612735" lon="11.651908320708435"><ele>1244.5</ele><time>2026-05-02T08:53:11.001Z</time></trkpt><trkpt lat="46.030831854940764" lon="11.651763303562284"><ele>1247.25</ele><time>2026-05-02T08:53:12.001Z</time></trkpt><trkpt lat="46.03091071002682" lon="11.651629267533952"><ele>1250.0</ele><time>2026-05-02T08:53:13.001Z</time></trkpt><trkpt lat="46.03098629582781" lon="11.651488877060112"><ele>1250.0</ele><time>2026-05-02T08:53:14.001Z</time></trkpt><trkpt lat="46.031059971107744" lon="11.651343844760532"><ele>1250.0</ele><time>2026-05-02T08:53:15.001Z</time></trkpt><trkpt lat="46.03113443989272" lon="11.651194456054736"><ele>1250.0</ele><time>2026-05-02T08:53:16.001Z</time></trkpt><trkpt lat="46.03121883621155" lon="11.651042744877495"><ele>1250.0</ele><time>2026-05-02T08:53:17.001Z</time></trkpt><trkpt lat="46.031298756628566" lon="11.650883239932577"><ele>1252.75</ele><time>2026-05-02T08:53:18.001Z</time></trkpt><trkpt lat="46.03137650363113" lon="11.650727250210561"><ele>1255.5</ele><time>2026-05-02T08:53:19.001Z</time></trkpt><trkpt lat="46.03145892634482" lon="11.650574441476884"><ele>1258.25</ele><time>2026-05-02T08:53:20.001Z</time></trkpt><trkpt lat="46.03154358036168" lon="11.650424760423352"><ele>1261.0</ele><time>2026-05-02T08:53:21.001Z</time></trkpt><trkpt lat="46.03162988222916" lon="11.650275636207164"><ele>1259.6</ele><time>2026-05-02T08:53:22.001Z</time></trkpt><trkpt lat="46.03171111469693" lon="11.650138937014061"><ele>1258.1999999999998</ele><time>2026-05-02T08:53:23.001Z</time></trkpt><trkpt lat="46.03178614697986" lon="11.650015287227301"><ele>1256.8000000000002</ele><time>2026-05-02T08:53:24.001Z</time></trkpt><trkpt lat="46.031858338029124" lon="11.649900135535558"><ele>1255.4</ele><time>2026-05-02T08:53:25.001Z</time></trkpt><trkpt lat="46.031925603214845" lon="11.649794288081809"><ele>1254.0</ele><time>2026-05-02T08:53:26.001Z</time></trkpt><trkpt lat="46.03199460318466" lon="11.649689944154565"><ele>1254.0</ele><time>2026-05-02T08:53:27.001Z</time></trkpt><trkpt lat="46.03206439134073" lon="11.649586686816217"><ele>1254.0</ele><time>2026-05-02T08:53:28.001Z</time></trkpt><trkpt lat="46.032136680673155" lon="11.649482115063407"><ele>1254.0</ele><time>2026-05-02T08:53:29.001Z</time></trkpt><trkpt lat="46.032216077913674" lon="11.649376207479575"><ele>1254.0</ele><time>2026-05-02T08:53:30.001Z</time></trkpt><trkpt lat="46.03230384421649" lon="11.649270098902003"><ele>1254.0</ele><time>2026-05-02T08:53:31.001Z</time></trkpt><trkpt lat="46.03239687093946" lon="11.649157542380058"><ele>1251.25</ele><time>2026-05-02T08:53:32.001Z</time></trkpt><trkpt lat="46.032487248207175" lon="11.649046730222857"><ele>1248.5</ele><time>2026-05-02T08:53:33.001Z</time></trkpt><trkpt lat="46.03257885343045" lon="11.648939146480332"><ele>1245.75</ele><time>2026-05-02T08:53:34.001Z</time></trkpt><trkpt lat="46.032674223885856" lon="11.648841566663787"><ele>1243.0</ele><time>2026-05-02T08:53:35.001Z</time></trkpt><trkpt lat="46.032777643931375" lon="11.648753033326088"><ele>1243.0</ele><time>2026-05-02T08:53:36.001Z</time></trkpt><trkpt lat="46.032888116381585" lon="11.648665587227516"><ele>1243.0</ele><time>2026-05-02T08:53:37.001Z</time></trkpt><trkpt lat="46.03299977463915" lon="11.648577245645221"><ele>1243.0</ele><time>2026-05-02T08:53:38Z</time></trkpt><trkpt lat="46.03311496627062" lon="11.648489657723864"><ele>1243.0</ele><time>2026-05-02T08:53:39Z</time></trkpt><trkpt lat="46.0332298582024" lon="11.648393850308597"><ele>1242.75</ele><time>2026-05-02T08:53:40Z</time></trkpt><trkpt lat="46.033348642771344" lon="11.648295574711149"><ele>1242.5</ele><time>2026-05-02T08:53:41Z</time></trkpt><trkpt lat="46.033466741040904" lon="11.64821182519793"><ele>1242.25</ele><time>2026-05-02T08:53:42Z</time></trkpt><trkpt lat="46.0335836381714" lon="11.648141084035231"><ele>1242.0</ele><time>2026-05-02T08:53:43Z</time></trkpt><trkpt lat="46.03370118870813" lon="11.64807417491548"><ele>1242.0</ele><time>2026-05-02T08:53:44Z</time></trkpt><trkpt lat="46.03381756645424" lon="11.647992876659215"><ele>1242.0</ele><time>2026-05-02T08:53:45Z</time></trkpt><trkpt lat="46.033932145426604" lon="11.647882032929868"><ele>1242.0</ele><time>2026-05-02T08:53:46Z</time></trkpt><trkpt lat="46.034044544987296" lon="11.64775585969411"><ele>1242.0</ele><time>2026-05-02T08:53:47Z</time></trkpt><trkpt lat="46.034164984095945" lon="11.64763155595101"><ele>1240.5</ele><time>2026-05-02T08:53:48Z</time></trkpt><trkpt lat="46.03428329989217" lon="11.647514668631132"><ele>1239.0</ele><time>2026-05-02T08:53:49Z</time></trkpt><trkpt lat="46.034399069504616" lon="11.647405433172986"><ele>1237.5</ele><time>2026-05-02T08:53:50Z</time></trkpt><trkpt lat="46.034508945029124" lon="11.647302082321437"><ele>1236.0</ele><time>2026-05-02T08:53:51Z</time></trkpt><trkpt lat="46.03461683729906" lon="11.64720373247329"><ele>1236.0</ele><time>2026-05-02T08:53:52Z</time></trkpt><trkpt lat="46.034723553251915" lon="11.64711051262973"><ele>1236.0</ele><time>2026-05-02T08:53:53Z</time></trkpt><trkpt lat="46.03483216028107" lon="11.647033458370744"><ele>1236.0</ele><time>2026-05-02T08:53:54Z</time></trkpt><trkpt lat="46.03494670215451" lon="11.646965969035726"><ele>1236.0</ele><time>2026-05-02T08:53:55Z</time></trkpt><trkpt lat="46.0350479204898" lon="11.646867698753553"><ele>1233.75</ele><time>2026-05-02T08:53:56Z</time></trkpt><trkpt lat="46.03514459612885" lon="11.64676564263894"><ele>1231.5</ele><time>2026-05-02T08:53:57Z</time></trkpt><trkpt lat="46.035242037184695" lon="11.646667141541576"><ele>1229.25</ele><time>2026-05-02T08:53:58Z</time></trkpt><trkpt lat="46.03533596720041" lon="11.646576024826448"><ele>1227.0</ele><time>2026-05-02T08:53:59Z</time></trkpt><trkpt lat="46.03542177205804" lon="11.646494649658168"><ele>1227.0</ele><time>2026-05-02T08:54:00Z</time></trkpt><trkpt lat="46.03550109154184" lon="11.646423636184991"><ele>1227.0</ele><time>2026-05-02T08:54:01Z</time></trkpt><trkpt lat="46.035576038285" lon="11.646359751798657"><ele>1227.0</ele><time>2026-05-02T08:54:02Z</time></trkpt><trkpt lat="46.03564523615288" lon="11.646300515884468"><ele>1227.0</ele><time>2026-05-02T08:54:03Z</time></trkpt><trkpt lat="46.0357162140301" lon="11.646245843733732"><ele>1227.0</ele><time>2026-05-02T08:54:04Z</time></trkpt><trkpt lat="46.03578883930527" lon="11.646197808850175"><ele>1227.0</ele><time>2026-05-02T08:54:05Z</time></trkpt><trkpt lat="46.035863028823506" lon="11.646157016657684"><ele>1224.8333333333333</ele><time>2026-05-02T08:54:06Z</time></trkpt><trkpt lat="46.03593938677999" lon="11.646123073347848"><ele>1222.6666666666667</ele><time>2026-05-02T08:54:07Z</time></trkpt><trkpt lat="46.03601333472671" lon="11.646093842090865"><ele>1220.5</ele><time>2026-05-02T08:54:08Z</time></trkpt><trkpt lat="46.036090100178654" lon="11.646062237716654"><ele>1218.3333333333335</ele><time>2026-05-02T08:54:09Z</time></trkpt><trkpt lat="46.03616769796875" lon="11.646026091410686"><ele>1216.1666666666667</ele><time>2026-05-02T08:54:10Z</time></trkpt><trkpt lat="46.0362467289978" lon="11.645989509197591"><ele>1214.0</ele><time>2026-05-02T08:54:11Z</time></trkpt><trkpt lat="46.036321290036085" lon="11.645952740009557"><ele>1214.0</ele><time>2026-05-02T08:54:12Z</time></trkpt><trkpt lat="46.03639432660057" lon="11.645935281880227"><ele>1214.0</ele><time>2026-05-02T08:54:13Z</time></trkpt><trkpt lat="46.03647506408219" lon="11.645932045688573"><ele>1214.0</ele><time>2026-05-02T08:54:14Z</time></trkpt><trkpt lat="46.03656240861591" lon="11.645935441248477"><ele>1214.0</ele><time>2026-05-02T08:54:15Z</time></trkpt><trkpt lat="46.036655946460805" lon="11.645960279423663"><ele>1214.0</ele><time>2026-05-02T08:54:16Z</time></trkpt><trkpt lat="46.03675467222615" lon="11.645996381104684"><ele>1214.0</ele><time>2026-05-02T08:54:17Z</time></trkpt><trkpt lat="46.03686137099493" lon="11.646038703619483"><ele>1213.5</ele><time>2026-05-02T08:54:18Z</time></trkpt><trkpt lat="46.03697498803403" lon="11.646072323161444"><ele>1213.0</ele><time>2026-05-02T08:54:19Z</time></trkpt><trkpt lat="46.037094644659135" lon="11.646090980081002"><ele>1212.5</ele><time>2026-05-02T08:54:20Z</time></trkpt><trkpt lat="46.037222452552285" lon="11.646112564774734"><ele>1212.0</ele><time>2026-05-02T08:54:21Z</time></trkpt><trkpt lat="46.03735432252897" lon="11.646141192794266"><ele>1211.75</ele><time>2026-05-02T08:54:22Z</time></trkpt><trkpt lat="46.03748623673274" lon="11.646177387725787"><ele>1211.5</ele><time>2026-05-02T08:54:23Z</time></trkpt><trkpt lat="46.037614951511024" lon="11.646224418937978"><ele>1211.25</ele><time>2026-05-02T08:54:24Z</time></trkpt><trkpt lat="46.037736018262805" lon="11.646268560711766"><ele>1211.0</ele><time>2026-05-02T08:54:25Z</time></trkpt><trkpt lat="46.0378521417308" lon="11.646312875416962"><ele>1211.0</ele><time>2026-05-02T08:54:26Z</time></trkpt><trkpt lat="46.03796328424635" lon="11.646354307650704"><ele>1211.0</ele><time>2026-05-02T08:54:27Z</time></trkpt><trkpt lat="46.03808431489138" lon="11.64639974449987"><ele>1211.0</ele><time>2026-05-02T08:54:28Z</time></trkpt><trkpt lat="46.038203888119014" lon="11.646447713405507"><ele>1211.0</ele><time>2026-05-02T08:54:29Z</time></trkpt><trkpt lat="46.03831680124384" lon="11.64649811528139"><ele>1212.0</ele><time>2026-05-02T08:54:30Z</time></trkpt><trkpt lat="46.03843268585909" lon="11.646547267173618"><ele>1213.0</ele><time>2026-05-02T08:54:31Z</time></trkpt><trkpt lat="46.03854969043798" lon="11.646595159804908"><ele>1214.0</ele><time>2026-05-02T08:54:32Z</time></trkpt><trkpt lat="46.03867271455124" lon="11.646642577653454"><ele>1215.0</ele><time>2026-05-02T08:54:33Z</time></trkpt><trkpt lat="46.03880245690458" lon="11.64668429985472"><ele>1215.0</ele><time>2026-05-02T08:54:34Z</time></trkpt><trkpt lat="46.03893669138968" lon="11.64672177704054"><ele>1215.0</ele><time>2026-05-02T08:54:35Z</time></trkpt><trkpt lat="46.039059729177495" lon="11.646758351434592"><ele>1215.0</ele><time>2026-05-02T08:54:36Z</time></trkpt><trkpt lat="46.03918152138391" lon="11.646793543110167"><ele>1215.0</ele><time>2026-05-02T08:54:37Z</time></trkpt><trkpt lat="46.03929821718025" lon="11.646824743292646"><ele>1217.25</ele><time>2026-05-02T08:54:38Z</time></trkpt><trkpt lat="46.03940851511217" lon="11.64684741560516"><ele>1219.5</ele><time>2026-05-02T08:54:39Z</time></trkpt><trkpt lat="46.03951822055938" lon="11.646867165269803"><ele>1221.75</ele><time>2026-05-02T08:54:40Z</time></trkpt><trkpt lat="46.03963086489934" lon="11.646891408433344"><ele>1224.0</ele><time>2026-05-02T08:54:41Z</time></trkpt><trkpt lat="46.03975210072795" lon="11.64691944479304"><ele>1224.0</ele><time>2026-05-02T08:54:42Z</time></trkpt><trkpt lat="46.03987833382215" lon="11.646956127422362"><ele>1224.0</ele><time>2026-05-02T08:54:43Z</time></trkpt><trkpt lat="46.04000616304037" lon="11.647001142442296"><ele>1224.0</ele><time>2026-05-02T08:54:44Z</time></trkpt><trkpt lat="46.04013465326671" lon="11.647046018921422"><ele>1224.0</ele><time>2026-05-02T08:54:45Z</time></trkpt><trkpt lat="46.04026432532252" lon="11.647088963217046"><ele>1216.5</ele><time>2026-05-02T08:54:46Z</time></trkpt><trkpt lat="46.04039327918413" lon="11.647130141181822"><ele>1209.0</ele><time>2026-05-02T08:54:47Z</time></trkpt><trkpt lat="46.040521588303505" lon="11.647164479634993"><ele>1201.5</ele><time>2026-05-02T08:54:48Z</time></trkpt><trkpt lat="46.040650368165636" lon="11.647198298841529"><ele>1194.0</ele><time>2026-05-02T08:54:49Z</time></trkpt><trkpt lat="46.04077594500763" lon="11.647233975801653"><ele>1194.75</ele><time>2026-05-02T08:54:50Z</time></trkpt><trkpt lat="46.04089661805335" lon="11.647264799269289"><ele>1195.5</ele><time>2026-05-02T08:54:51Z</time></trkpt><trkpt lat="46.04101786849461" lon="11.647285418310895"><ele>1196.25</ele><time>2026-05-02T08:54:52Z</time></trkpt><trkpt lat="46.04114034272015" lon="11.647283405007414"><ele>1197.0</ele><time>2026-05-02T08:54:53Z</time></trkpt><trkpt lat="46.04125703944346" lon="11.647265285039653"><ele>1197.0</ele><time>2026-05-02T08:54:54Z</time></trkpt><trkpt lat="46.04136883181798" lon="11.647232988125158"><ele>1197.0</ele><time>2026-05-02T08:54:55Z</time></trkpt><trkpt lat="46.04147995728806" lon="11.647224588049783"><ele>1197.0</ele><time>2026-05-02T08:54:56Z</time></trkpt><trkpt lat="46.04158376726383" lon="11.647277806422748"><ele>1197.0</ele><time>2026-05-02T08:54:57Z</time></trkpt><trkpt lat="46.04168042099362" lon="11.647364714347743"><ele>1197.0</ele><time>2026-05-02T08:54:58Z</time></trkpt><trkpt lat="46.041763176268205" lon="11.647449636700358"><ele>1197.2</ele><time>2026-05-02T08:54:59Z</time></trkpt><trkpt lat="46.04184867406311" lon="11.647520519007314"><ele>1197.4</ele><time>2026-05-02T08:55:00Z</time></trkpt><trkpt lat="46.04194438145122" lon="11.64757938197533"><ele>1197.6</ele><time>2026-05-02T08:55:01Z</time></trkpt><trkpt lat="46.04204887874037" lon="11.647599434706288"><ele>1197.8</ele><time>2026-05-02T08:55:02Z</time></trkpt><trkpt lat="46.0421681112591" lon="11.64758735144735"><ele>1198.0</ele><time>2026-05-02T08:55:03Z</time></trkpt><trkpt lat="46.0422819050408" lon="11.64755694612684"><ele>1198.0</ele><time>2026-05-02T08:55:04Z</time></trkpt><trkpt lat="46.04238973258729" lon="11.647544971568452"><ele>1198.0</ele><time>2026-05-02T08:55:05Z</time></trkpt><trkpt lat="46.04250085410599" lon="11.647549753821137"><ele>1198.0</ele><time>2026-05-02T08:55:06Z</time></trkpt><trkpt lat="46.04260189094919" lon="11.647597551163528"><ele>1198.0</ele><time>2026-05-02T08:55:07.001Z</time></trkpt><trkpt lat="46.04268378893134" lon="11.64769231522517"><ele>1198.0</ele><time>2026-05-02T08:55:08.001Z</time></trkpt><trkpt lat="46.04275134015836" lon="11.647794388701657"><ele>1194.25</ele><time>2026-05-02T08:55:09.001Z</time></trkpt><trkpt lat="46.04282619517897" lon="11.64787239788173"><ele>1190.5</ele><time>2026-05-02T08:55:10.001Z</time></trkpt><trkpt lat="46.04288409325983" lon="11.647979761778252"><ele>1186.75</ele><time>2026-05-02T08:55:11.001Z</time></trkpt><trkpt lat="46.042950899681806" lon="11.648066701007426"><ele>1183.0</ele><time>2026-05-02T08:55:12.001Z</time></trkpt><trkpt lat="46.043120555231226" lon="11.647981142179166"><ele>1183.0</ele><time>2026-05-02T08:55:13.001Z</time></trkpt><trkpt lat="46.04323649899723" lon="11.647990320484766"><ele>1183.0</ele><time>2026-05-02T08:55:14.001Z</time></trkpt><trkpt lat="46.0433540025922" lon="11.647997929688266"><ele>1183.0</ele><time>2026-05-02T08:55:15.001Z</time></trkpt><trkpt lat="46.04347274130389" lon="11.647999024723678"><ele>1183.0</ele><time>2026-05-02T08:55:16.001Z</time></trkpt><trkpt lat="46.043591603453585" lon="11.647984384325447"><ele>1184.25</ele><time>2026-05-02T08:55:17.001Z</time></trkpt><trkpt lat="46.04371250426252" lon="11.647958595146847"><ele>1185.5</ele><time>2026-05-02T08:55:18.001Z</time></trkpt><trkpt lat="46.04384033450913" lon="11.647933769251479"><ele>1186.75</ele><time>2026-05-02T08:55:19.001Z</time></trkpt><trkpt lat="46.04396928014344" lon="11.647915598382623"><ele>1188.0</ele><time>2026-05-02T08:55:20.001Z</time></trkpt><trkpt lat="46.04409321056706" lon="11.64790336546273"><ele>1187.0</ele><time>2026-05-02T08:55:21.001Z</time></trkpt><trkpt lat="46.04421676660875" lon="11.647891177944839"><ele>1186.0</ele><time>2026-05-02T08:55:22.001Z</time></trkpt><trkpt lat="46.04434154044307" lon="11.647876128603778"><ele>1185.0</ele><time>2026-05-02T08:55:23.001Z</time></trkpt><trkpt lat="46.04446969249262" lon="11.647863965357692"><ele>1184.0</ele><time>2026-05-02T08:55:24.001Z</time></trkpt><trkpt lat="46.04459682604471" lon="11.647874032497302"><ele>1184.0</ele><time>2026-05-02T08:55:25.001Z</time></trkpt><trkpt lat="46.04472368925857" lon="11.64788371738145"><ele>1184.0</ele><time>2026-05-02T08:55:26.001Z</time></trkpt><trkpt lat="46.044848475469" lon="11.647884370765588"><ele>1184.0</ele><time>2026-05-02T08:55:27.001Z</time></trkpt><trkpt lat="46.04497104979955" lon="11.647905418184614"><ele>1184.0</ele><time>2026-05-02T08:55:28.001Z</time></trkpt><trkpt lat="46.04508637838187" lon="11.647964579479916"><ele>1183.5</ele><time>2026-05-02T08:55:29.001Z</time></trkpt><trkpt lat="46.04519398409716" lon="11.648050448089585"><ele>1183.0</ele><time>2026-05-02T08:55:30.001Z</time></trkpt><trkpt lat="46.045300342030764" lon="11.648138102743616"><ele>1182.5</ele><time>2026-05-02T08:55:31.001Z</time></trkpt><trkpt lat="46.04541390555003" lon="11.648219333805114"><ele>1182.0</ele><time>2026-05-02T08:55:32.001Z</time></trkpt><trkpt lat="46.045530103516505" lon="11.648294669474579"><ele>1182.0</ele><time>2026-05-02T08:55:33.001Z</time></trkpt><trkpt lat="46.04564268670815" lon="11.648367590309755"><ele>1182.0</ele><time>2026-05-02T08:55:34.001Z</time></trkpt><trkpt lat="46.045751646568206" lon="11.64844788285827"><ele>1182.0</ele><time>2026-05-02T08:55:35.001Z</time></trkpt><trkpt lat="46.04584883398193" lon="11.648554473783463"><ele>1182.0</ele><time>2026-05-02T08:55:36.001Z</time></trkpt><trkpt lat="46.045930889964595" lon="11.648681751831965"><ele>1179.0</ele><time>2026-05-02T08:55:37.001Z</time></trkpt><trkpt lat="46.046003979868814" lon="11.648821923837046"><ele>1176.0</ele><time>2026-05-02T08:55:38.001Z</time></trkpt><trkpt lat="46.04608192405844" lon="11.648962739169484"><ele>1173.0</ele><time>2026-05-02T08:55:39.001Z</time></trkpt><trkpt lat="46.046157789922006" lon="11.64909718616853"><ele>1170.0</ele><time>2026-05-02T08:55:40.001Z</time></trkpt><trkpt lat="46.04623041819381" lon="11.649230260936703"><ele>1170.0</ele><time>2026-05-02T08:55:41.001Z</time></trkpt><trkpt lat="46.04630588298221" lon="11.64935943517377"><ele>1170.0</ele><time>2026-05-02T08:55:42.001Z</time></trkpt><trkpt lat="46.04638575169149" lon="11.649482015324205"><ele>1170.0</ele><time>2026-05-02T08:55:43.001Z</time></trkpt><trkpt lat="46.046478040869815" lon="11.649578016922037"><ele>1170.0</ele><time>2026-05-02T08:55:44Z</time></trkpt><trkpt lat="46.046579774846194" lon="11.649624447568529"><ele>1169.2</ele><time>2026-05-02T08:55:45Z</time></trkpt><trkpt lat="46.04668522486224" lon="11.649607348131957"><ele>1168.4</ele><time>2026-05-02T08:55:46Z</time></trkpt><trkpt lat="46.04678087003679" lon="11.649538697716403"><ele>1167.6</ele><time>2026-05-02T08:55:47Z</time></trkpt><trkpt lat="46.04686625563307" lon="11.649437039415565"><ele>1166.8</ele><time>2026-05-02T08:55:48Z</time></trkpt><trkpt lat="46.04695574226562" lon="11.649355900797769"><ele>1166.0</ele><time>2026-05-02T08:55:49Z</time></trkpt><trkpt lat="46.047053129258494" lon="11.64935490119754"><ele>1166.0</ele><time>2026-05-02T08:55:50Z</time></trkpt><trkpt lat="46.047135852023025" lon="11.649429869276782"><ele>1166.0</ele><time>2026-05-02T08:55:51Z</time></trkpt><trkpt lat="46.047202067053774" lon="11.649547152155963"><ele>1166.0</ele><time>2026-05-02T08:55:52Z</time></trkpt><trkpt lat="46.04725818015696" lon="11.649675976885824"><ele>1166.0</ele><time>2026-05-02T08:55:53Z</time></trkpt><trkpt lat="46.04731656129722" lon="11.649795901373267"><ele>1166.0</ele><time>2026-05-02T08:55:54Z</time></trkpt><trkpt lat="46.0473862121784" lon="11.649904858708908"><ele>1166.0</ele><time>2026-05-02T08:55:55Z</time></trkpt><trkpt lat="46.04747676310939" lon="11.649979184303877"><ele>1166.0</ele><time>2026-05-02T08:55:56Z</time></trkpt><trkpt lat="46.04757143302012" lon="11.650036310802042"><ele>1166.0</ele><time>2026-05-02T08:55:57Z</time></trkpt><trkpt lat="46.04764158890403" lon="11.650145464100499"><ele>1166.0</ele><time>2026-05-02T08:55:58Z</time></trkpt><trkpt lat="46.0476881847049" lon="11.65029096114374"><ele>1166.0</ele><time>2026-05-02T08:55:59Z</time></trkpt><trkpt lat="46.047706764175786" lon="11.650445259394731"><ele>1166.0</ele><time>2026-05-02T08:56:00Z</time></trkpt><trkpt lat="46.04774102012982" lon="11.650590668861245"><ele>1166.0</ele><time>2026-05-02T08:56:01Z</time></trkpt><trkpt lat="46.04781126150393" lon="11.650709150533336"><ele>1166.0</ele><time>2026-05-02T08:56:02Z</time></trkpt><trkpt lat="46.04788145825169" lon="11.650818742295428"><ele>1166.0</ele><time>2026-05-02T08:56:03Z</time></trkpt><trkpt lat="46.04794047400855" lon="11.650922103670966"><ele>1166.0</ele><time>2026-05-02T08:56:04Z</time></trkpt><trkpt lat="46.0479957548038" lon="11.651021916297196"><ele>1164.0</ele><time>2026-05-02T08:56:05Z</time></trkpt><trkpt lat="46.048048010077984" lon="11.651127134871325"><ele>1162.0</ele><time>2026-05-02T08:56:06Z</time></trkpt><trkpt lat="46.048083703066496" lon="11.651246730552113"><ele>1160.0</ele><time>2026-05-02T08:56:07Z</time></trkpt><trkpt lat="46.048102732453806" lon="11.651379219761921"><ele>1158.0</ele><time>2026-05-02T08:56:08Z</time></trkpt><trkpt lat="46.048105523030756" lon="11.651522583011822"><ele>1156.0</ele><time>2026-05-02T08:56:09Z</time></trkpt><trkpt lat="46.04809658704123" lon="11.651676286882612"><ele>1156.0</ele><time>2026-05-02T08:56:10Z</time></trkpt><trkpt lat="46.04808280524557" lon="11.651828142871409"><ele>1156.0</ele><time>2026-05-02T08:56:11Z</time></trkpt><trkpt lat="46.0480627214646" lon="11.651982106775636"><ele>1156.0</ele><time>2026-05-02T08:56:12Z</time></trkpt><trkpt lat="46.048036842604006" lon="11.652141183756335"><ele>1156.0</ele><time>2026-05-02T08:56:13Z</time></trkpt><trkpt lat="46.0480024893149" lon="11.652304132906607"><ele>1156.0</ele><time>2026-05-02T08:56:14Z</time></trkpt><trkpt lat="46.04795915090978" lon="11.652463623426327"><ele>1156.75</ele><time>2026-05-02T08:56:15Z</time></trkpt><trkpt lat="46.047914862156176" lon="11.652625097687691"><ele>1157.5</ele><time>2026-05-02T08:56:16Z</time></trkpt><trkpt lat="46.04787731120453" lon="11.652793022723358"><ele>1158.25</ele><time>2026-05-02T08:56:17Z</time></trkpt><trkpt lat="46.04784866930325" lon="11.652966955001556"><ele>1159.0</ele><time>2026-05-02T08:56:18Z</time></trkpt><trkpt lat="46.04783898308679" lon="11.653147186992543"><ele>1159.0</ele><time>2026-05-02T08:56:19Z</time></trkpt><trkpt lat="46.04784434855646" lon="11.653329619195596"><ele>1159.0</ele><time>2026-05-02T08:56:20Z</time></trkpt><trkpt lat="46.047858142394034" lon="11.653515291620716"><ele>1159.0</ele><time>2026-05-02T08:56:21Z</time></trkpt><trkpt lat="46.04788904341202" lon="11.653697177183235"><ele>1159.0</ele><time>2026-05-02T08:56:22Z</time></trkpt><trkpt lat="46.04793895856411" lon="11.65386735652226"><ele>1158.5</ele><time>2026-05-02T08:56:23Z</time></trkpt><trkpt lat="46.047999254414535" lon="11.654022160045493"><ele>1158.0</ele><time>2026-05-02T08:56:24Z</time></trkpt><trkpt lat="46.04807484530184" lon="11.654143839885466"><ele>1157.5</ele><time>2026-05-02T08:56:25Z</time></trkpt><trkpt lat="46.04817584657918" lon="11.654209597352574"><ele>1157.0</ele><time>2026-05-02T08:56:26Z</time></trkpt><trkpt lat="46.04829289506695" lon="11.654249738418844"><ele>1160.25</ele><time>2026-05-02T08:56:27Z</time></trkpt><trkpt lat="46.04841745250905" lon="11.654262422046425"><ele>1163.5</ele><time>2026-05-02T08:56:28Z</time></trkpt><trkpt lat="46.04853883235961" lon="11.65424574549622"><ele>1166.75</ele><time>2026-05-02T08:56:29Z</time></trkpt><trkpt lat="46.04864970477415" lon="11.654260491344033"><ele>1170.0</ele><time>2026-05-02T08:56:30Z</time></trkpt><trkpt lat="46.0487554140269" lon="11.65432195450452"><ele>1170.0</ele><time>2026-05-02T08:56:31Z</time></trkpt><trkpt lat="46.048856747150644" lon="11.654419289956506"><ele>1170.0</ele><time>2026-05-02T08:56:32Z</time></trkpt><trkpt lat="46.048938306107495" lon="11.65455085737126"><ele>1170.0</ele><time>2026-05-02T08:56:33Z</time></trkpt><trkpt lat="46.04901039692074" lon="11.65468566785435"><ele>1170.0</ele><time>2026-05-02T08:56:34Z</time></trkpt><trkpt lat="46.04908933210529" lon="11.654790410367527"><ele>1168.75</ele><time>2026-05-02T08:56:35Z</time></trkpt><trkpt lat="46.04918304736748" lon="11.654853465700718"><ele>1167.5</ele><time>2026-05-02T08:56:36Z</time></trkpt><trkpt lat="46.04929338974907" lon="11.65486926624897"><ele>1166.25</ele><time>2026-05-02T08:56:37Z</time></trkpt><trkpt lat="46.04940787633415" lon="11.654847563953904"><ele>1165.0</ele><time>2026-05-02T08:56:38Z</time></trkpt><trkpt lat="46.049532097653305" lon="11.654794434675907"><ele>1165.0</ele><time>2026-05-02T08:56:39Z</time></trkpt><trkpt lat="46.049658966825476" lon="11.654738050848346"><ele>1165.0</ele><time>2026-05-02T08:56:40Z</time></trkpt><trkpt lat="46.049782039294605" lon="11.65466922565609"><ele>1165.0</ele><time>2026-05-02T08:56:41Z</time></trkpt><trkpt lat="46.049898430030034" lon="11.654590477126705"><ele>1165.0</ele><time>2026-05-02T08:56:42Z</time></trkpt><trkpt lat="46.050011632713236" lon="11.654517000252172"><ele>1164.25</ele><time>2026-05-02T08:56:43Z</time></trkpt><trkpt lat="46.0501273553041" lon="11.654468030931595"><ele>1163.5</ele><time>2026-05-02T08:56:44Z</time></trkpt><trkpt lat="46.050246378963685" lon="11.654465328901248"><ele>1162.75</ele><time>2026-05-02T08:56:45Z</time></trkpt><trkpt lat="46.05035941302465" lon="11.654506158353145"><ele>1162.0</ele><time>2026-05-02T08:56:46Z</time></trkpt><trkpt lat="46.050473425634145" lon="11.65455018258746"><ele>1162.0</ele><time>2026-05-02T08:56:47Z</time></trkpt><trkpt lat="46.05058876965386" lon="11.654586977003607"><ele>1162.0</ele><time>2026-05-02T08:56:48Z</time></trkpt><trkpt lat="46.05070561652711" lon="11.654621132629835"><ele>1162.0</ele><time>2026-05-02T08:56:49Z</time></trkpt><trkpt lat="46.050822157794016" lon="11.654656135513127"><ele>1162.0</ele><time>2026-05-02T08:56:50Z</time></trkpt><trkpt lat="46.05093863025274" lon="11.654695049176276"><ele>1161.8</ele><time>2026-05-02T08:56:51Z</time></trkpt><trkpt lat="46.051048788519296" lon="11.65473586858349"><ele>1161.6</ele><time>2026-05-02T08:56:52Z</time></trkpt><trkpt lat="46.051156275748966" lon="11.654774759973396"><ele>1161.3999999999999</ele><time>2026-05-02T08:56:53Z</time></trkpt><trkpt lat="46.05126257911712" lon="11.65481552155166"><ele>1161.2</ele><time>2026-05-02T08:56:54Z</time></trkpt><trkpt lat="46.051370494495764" lon="11.654856626685532"><ele>1161.0</ele><time>2026-05-02T08:56:55Z</time></trkpt><trkpt lat="46.05148061262379" lon="11.654899709182978"><ele>1161.0</ele><time>2026-05-02T08:56:56Z</time></trkpt><trkpt lat="46.051592839055424" lon="11.654947542117432"><ele>1161.0</ele><time>2026-05-02T08:56:57Z</time></trkpt><trkpt lat="46.05170916882007" lon="11.654998702184747"><ele>1161.0</ele><time>2026-05-02T08:56:58Z</time></trkpt><trkpt lat="46.05183463899553" lon="11.655041933461192"><ele>1161.0</ele><time>2026-05-02T08:56:59Z</time></trkpt><trkpt lat="46.051964095441335" lon="11.655061376076372"><ele>1161.75</ele><time>2026-05-02T08:57:00Z</time></trkpt><trkpt lat="46.05209617197635" lon="11.655074141231427"><ele>1162.5</ele><time>2026-05-02T08:57:01Z</time></trkpt><trkpt lat="46.05222408260725" lon="11.65506480076567"><ele>1163.25</ele><time>2026-05-02T08:57:02Z</time></trkpt><trkpt lat="46.05234945096124" lon="11.655020015609193"><ele>1164.0</ele><time>2026-05-02T08:57:03Z</time></trkpt><trkpt lat="46.05247038856821" lon="11.654938756738233"><ele>1165.0</ele><time>2026-05-02T08:57:04Z</time></trkpt><trkpt lat="46.052593802713105" lon="11.65487429203345"><ele>1166.0</ele><time>2026-05-02T08:57:05Z</time></trkpt><trkpt lat="46.052713076970214" lon="11.65483316939942"><ele>1167.0</ele><time>2026-05-02T08:57:06Z</time></trkpt><trkpt lat="46.05282243997247" lon="11.65479349348182"><ele>1168.0</ele><time>2026-05-02T08:57:07Z</time></trkpt><trkpt lat="46.0529208175776" lon="11.654747613172937"><ele>1168.0</ele><time>2026-05-02T08:57:08Z</time></trkpt><trkpt lat="46.053001682555845" lon="11.654667062169233"><ele>1168.0</ele><time>2026-05-02T08:57:09Z</time></trkpt><trkpt lat="46.05306659836671" lon="11.654540648205533"><ele>1168.0</ele><time>2026-05-02T08:57:10Z</time></trkpt><trkpt lat="46.053127623152086" lon="11.654389035790224"><ele>1168.0</ele><time>2026-05-02T08:57:11Z</time></trkpt><trkpt lat="46.05319504869214" lon="11.654228176797844"><ele>1167.25</ele><time>2026-05-02T08:57:12Z</time></trkpt><trkpt lat="46.053277920537376" lon="11.65407904537456"><ele>1166.5</ele><time>2026-05-02T08:57:13Z</time></trkpt><trkpt lat="46.053379595911494" lon="11.653933504281117"><ele>1165.75</ele><time>2026-05-02T08:57:14Z</time></trkpt><trkpt lat="46.05349394066697" lon="11.653792537584426"><ele>1165.0</ele><time>2026-05-02T08:57:15Z</time></trkpt><trkpt lat="46.05359729891816" lon="11.653633370182222"><ele>1157.3333333333333</ele><time>2026-05-02T08:57:16Z</time></trkpt><trkpt lat="46.05368598886" lon="11.653449671190192"><ele>1149.6666666666667</ele><time>2026-05-02T08:57:17Z</time></trkpt><trkpt lat="46.053777827120506" lon="11.653255630671687"><ele>1142.0</ele><time>2026-05-02T08:57:18.001Z</time></trkpt><trkpt lat="46.05387195139796" lon="11.653061052239401"><ele>1142.0</ele><time>2026-05-02T08:57:19.001Z</time></trkpt><trkpt lat="46.05397003669393" lon="11.652869457418065"><ele>1142.0</ele><time>2026-05-02T08:57:20.001Z</time></trkpt><trkpt lat="46.05407332891906" lon="11.652681030149994"><ele>1142.0</ele><time>2026-05-02T08:57:21.001Z</time></trkpt><trkpt lat="46.05417766902853" lon="11.652496189211492"><ele>1146.3333333333335</ele><time>2026-05-02T08:57:22.001Z</time></trkpt><trkpt lat="46.05429023270002" lon="11.652331686549704"><ele>1150.6666666666667</ele><time>2026-05-02T08:57:23.001Z</time></trkpt><trkpt lat="46.0543889977524" lon="11.652171246413026"><ele>1155.0</ele><time>2026-05-02T08:57:24.001Z</time></trkpt><trkpt lat="46.05446043178546" lon="11.651987317943085"><ele>1144.3333333333333</ele><time>2026-05-02T08:57:25.001Z</time></trkpt><trkpt lat="46.054542983147385" lon="11.651793397693428"><ele>1133.6666666666665</ele><time>2026-05-02T08:57:26.001Z</time></trkpt><trkpt lat="46.05461856833477" lon="11.651587998355856"><ele>1123.0</ele><time>2026-05-02T08:57:27.001Z</time></trkpt><trkpt lat="46.05470162304255" lon="11.651394545704042"><ele>1123.0</ele><time>2026-05-02T08:57:28.001Z</time></trkpt><trkpt lat="46.054796304899114" lon="11.651213891902986"><ele>1123.0</ele><time>2026-05-02T08:57:29.001Z</time></trkpt><trkpt lat="46.054890422154415" lon="11.651022108018912"><ele>1123.0</ele><time>2026-05-02T08:57:30.001Z</time></trkpt><trkpt lat="46.054998340252375" lon="11.650845290608672"><ele>1122.3333333333333</ele><time>2026-05-02T08:57:31.001Z</time></trkpt><trkpt lat="46.05510375216469" lon="11.650663552575612"><ele>1121.6666666666667</ele><time>2026-05-02T08:57:32.001Z</time></trkpt><trkpt lat="46.05520904837429" lon="11.650474856080375"><ele>1121.0</ele><time>2026-05-02T08:57:33.001Z</time></trkpt><trkpt lat="46.055302956690625" lon="11.650275777992425"><ele>1121.0</ele><time>2026-05-02T08:57:34.001Z</time></trkpt><trkpt lat="46.055394850160596" lon="11.650075837595656"><ele>1121.0</ele><time>2026-05-02T08:57:35.001Z</time></trkpt><trkpt lat="46.05546752496422" lon="11.649854431637443"><ele>1121.0</ele><time>2026-05-02T08:57:36.001Z</time></trkpt><trkpt lat="46.05554392617582" lon="11.649634868072528"><ele>1127.0</ele><time>2026-05-02T08:57:37.001Z</time></trkpt><trkpt lat="46.05562334416621" lon="11.64941817109399"><ele>1133.0</ele><time>2026-05-02T08:57:38.001Z</time></trkpt><trkpt lat="46.055713469763226" lon="11.649208094053558"><ele>1139.0</ele><time>2026-05-02T08:57:39.001Z</time></trkpt><trkpt lat="46.05580731295018" lon="11.649002771505467"><ele>1139.0</ele><time>2026-05-02T08:57:40.001Z</time></trkpt><trkpt lat="46.055888424813205" lon="11.648782823688185"><ele>1139.0</ele><time>2026-05-02T08:57:41.001Z</time></trkpt><trkpt lat="46.05599707864136" lon="11.648588014974111"><ele>1139.0</ele><time>2026-05-02T08:57:42.001Z</time></trkpt><trkpt lat="46.05609324652688" lon="11.648376697300943"><ele>1129.6666666666667</ele><time>2026-05-02T08:57:43.001Z</time></trkpt><trkpt lat="46.05618550042832" lon="11.648162873342628"><ele>1120.3333333333333</ele><time>2026-05-02T08:57:44.001Z</time></trkpt><trkpt lat="46.05627540652506" lon="11.64794555295899"><ele>1111.0</ele><time>2026-05-02T08:57:45.001Z</time></trkpt><trkpt lat="46.05636744375935" lon="11.647722173096705"><ele>1100.3333333333333</ele><time>2026-05-02T08:57:46.001Z</time></trkpt><trkpt lat="46.05645925614489" lon="11.647498588773495"><ele>1089.6666666666667</ele><time>2026-05-02T08:57:47.001Z</time></trkpt><trkpt lat="46.05655111582792" lon="11.647273231868333"><ele>1079.0</ele><time>2026-05-02T08:57:48.001Z</time></trkpt><trkpt lat="46.05664282175393" lon="11.647047715032025"><ele>1090.0</ele><time>2026-05-02T08:57:49.001Z</time></trkpt><trkpt lat="46.05673276600803" lon="11.646828538151267"><ele>1101.0</ele><time>2026-05-02T08:57:50Z</time></trkpt><trkpt lat="46.056822395421186" lon="11.646610498274477"><ele>1112.0</ele><time>2026-05-02T08:57:51Z</time></trkpt><trkpt lat="46.05691211628456" lon="11.646392235927301"><ele>1112.0</ele><time>2026-05-02T08:57:52Z</time></trkpt><trkpt lat="46.05699155545332" lon="11.646168922165936"><ele>1112.0</ele><time>2026-05-02T08:57:53Z</time></trkpt><trkpt lat="46.05706175447302" lon="11.645953606367819"><ele>1112.0</ele><time>2026-05-02T08:57:54Z</time></trkpt><trkpt lat="46.057128834513435" lon="11.645736591447431"><ele>1101.6666666666667</ele><time>2026-05-02T08:57:55Z</time></trkpt><trkpt lat="46.057198668868196" lon="11.645537709607524"><ele>1091.3333333333333</ele><time>2026-05-02T08:57:56Z</time></trkpt><trkpt lat="46.05728285199061" lon="11.645353188166647"><ele>1081.0</ele><time>2026-05-02T08:57:57Z</time></trkpt><trkpt lat="46.05738451002903" lon="11.645180600924874"><ele>1091.0</ele><time>2026-05-02T08:57:58Z</time></trkpt><trkpt lat="46.05748320290216" lon="11.644997718093252"><ele>1101.0</ele><time>2026-05-02T08:57:59Z</time></trkpt><trkpt lat="46.05756533452834" lon="11.644803488195404"><ele>1111.0</ele><time>2026-05-02T08:58:00Z</time></trkpt><trkpt lat="46.05763460178353" lon="11.644615099471057"><ele>1103.75</ele><time>2026-05-02T08:58:01Z</time></trkpt><trkpt lat="46.05769876368595" lon="11.64443546496276"><ele>1096.5</ele><time>2026-05-02T08:58:02Z</time></trkpt><trkpt lat="46.05775847378623" lon="11.64426609775104"><ele>1089.25</ele><time>2026-05-02T08:58:03Z</time></trkpt><trkpt lat="46.057799563610416" lon="11.644100596206815"><ele>1082.0</ele><time>2026-05-02T08:58:04Z</time></trkpt><trkpt lat="46.057857242025904" lon="11.643960630338743"><ele>1082.0</ele><time>2026-05-02T08:58:05Z</time></trkpt><trkpt lat="46.05791243676436" lon="11.643811435977332"><ele>1082.0</ele><time>2026-05-02T08:58:06Z</time></trkpt><trkpt lat="46.057964792283" lon="11.643662722332904"><ele>1082.0</ele><time>2026-05-02T08:58:07Z</time></trkpt><trkpt lat="46.0580162139396" lon="11.643519650139373"><ele>1082.0</ele><time>2026-05-02T08:58:08Z</time></trkpt><trkpt lat="46.058063609104046" lon="11.643385611282056"><ele>1082.0</ele><time>2026-05-02T08:58:09Z</time></trkpt><trkpt lat="46.058101511889994" lon="11.643258361839857"><ele>1078.4</ele><time>2026-05-02T08:58:10Z</time></trkpt><trkpt lat="46.05813349535692" lon="11.643135961905568"><ele>1074.8000000000002</ele><time>2026-05-02T08:58:11Z</time></trkpt><trkpt lat="46.05816176933354" lon="11.643019618323764"><ele>1071.2</ele><time>2026-05-02T08:58:12Z</time></trkpt><trkpt lat="46.05818137073856" lon="11.64292006180026"><ele>1067.6000000000001</ele><time>2026-05-02T08:58:13Z</time></trkpt><trkpt lat="46.05821493559829" lon="11.642772739710884"><ele>1064.0</ele><time>2026-05-02T08:58:15Z</time></trkpt><trkpt lat="46.058249370419034" lon="11.642601347428046"><ele>1060.6666666666667</ele><time>2026-05-02T08:58:17Z</time></trkpt><trkpt lat="46.05826824503323" lon="11.642508463319786"><ele>1057.3333333333335</ele><time>2026-05-02T08:58:18Z</time></trkpt><trkpt lat="46.058291564816976" lon="11.642413778838879"><ele>1054.0</ele><time>2026-05-02T08:58:19Z</time></trkpt><trkpt lat="46.05831342908604" lon="11.642313034920766"><ele>1050.6666666666667</ele><time>2026-05-02T08:58:20Z</time></trkpt><trkpt lat="46.05833664143264" lon="11.642205526469441"><ele>1047.3333333333333</ele><time>2026-05-02T08:58:21Z</time></trkpt><trkpt lat="46.0583597985081" lon="11.642093681067665"><ele>1044.0</ele><time>2026-05-02T08:58:22Z</time></trkpt><trkpt lat="46.058389302444226" lon="11.641978268416313"><ele>1051.6000000000001</ele><time>2026-05-02T08:58:23Z</time></trkpt><trkpt lat="46.058423940557624" lon="11.641845495490536"><ele>1059.2</ele><time>2026-05-02T08:58:24Z</time></trkpt><trkpt lat="46.05843830214937" lon="11.641698317210565"><ele>1066.8000000000002</ele><time>2026-05-02T08:58:25Z</time></trkpt><trkpt lat="46.058430939302404" lon="11.641546889989431"><ele>1074.4</ele><time>2026-05-02T08:58:26Z</time></trkpt><trkpt lat="46.05841580155345" lon="11.64138670464156"><ele>1082.0</ele><time>2026-05-02T08:58:27Z</time></trkpt><trkpt lat="46.05841297748402" lon="11.641232672831944"><ele>1078.2</ele><time>2026-05-02T08:58:28Z</time></trkpt><trkpt lat="46.058440898645316" lon="11.641099528126283"><ele>1074.4</ele><time>2026-05-02T08:58:29Z</time></trkpt><trkpt lat="46.058502217742905" lon="11.641006154893336"><ele>1070.6</ele><time>2026-05-02T08:58:30Z</time></trkpt><trkpt lat="46.058585354884976" lon="11.640947251273927"><ele>1066.8</ele><time>2026-05-02T08:58:31Z</time></trkpt><trkpt lat="46.058680051040035" lon="11.640930286794575"><ele>1063.0</ele><time>2026-05-02T08:58:32Z</time></trkpt><trkpt lat="46.05878493523026" lon="11.640963477152283"><ele>1063.0</ele><time>2026-05-02T08:58:33Z</time></trkpt><trkpt lat="46.05889460144221" lon="11.641021581690534"><ele>1063.0</ele><time>2026-05-02T08:58:34Z</time></trkpt><trkpt lat="46.05901864097456" lon="11.641089355190369"><ele>1063.0</ele><time>2026-05-02T08:58:35Z</time></trkpt><trkpt lat="46.059136870380065" lon="11.641196273804166"><ele>1063.0</ele><time>2026-05-02T08:58:36Z</time></trkpt><trkpt lat="46.05926669991016" lon="11.641308053520786"><ele>1076.6666666666665</ele><time>2026-05-02T08:58:37Z</time></trkpt><trkpt lat="46.0594215042562" lon="11.641378668245554"><ele>1090.3333333333333</ele><time>2026-05-02T08:58:38Z</time></trkpt><trkpt lat="46.0595892110262" lon="11.641435349426237"><ele>1104.0</ele><time>2026-05-02T08:58:39Z</time></trkpt><trkpt lat="46.059759295174146" lon="11.641475986905839"><ele>1104.0</ele><time>2026-05-02T08:58:40Z</time></trkpt><trkpt lat="46.05992996587518" lon="11.641493569568105"><ele>1104.0</ele><time>2026-05-02T08:58:41Z</time></trkpt><trkpt lat="46.06008803384939" lon="11.64152535912658"><ele>1104.0</ele><time>2026-05-02T08:58:42Z</time></trkpt><trkpt lat="46.06023628297971" lon="11.641591221536098"><ele>1101.0</ele><time>2026-05-02T08:58:43Z</time></trkpt><trkpt lat="46.06037868555745" lon="11.641641962677715"><ele>1098.0</ele><time>2026-05-02T08:58:44Z</time></trkpt><trkpt lat="46.060516691456144" lon="11.64161747442562"><ele>1095.0</ele><time>2026-05-02T08:58:45Z</time></trkpt><trkpt lat="46.0606417051785" lon="11.641557133157319"><ele>1092.0</ele><time>2026-05-02T08:58:46Z</time></trkpt><trkpt lat="46.060753891888524" lon="11.641528179400364"><ele>1089.0</ele><time>2026-05-02T08:58:47Z</time></trkpt><trkpt lat="46.060869105389806" lon="11.64156006610861"><ele>1086.0</ele><time>2026-05-02T08:58:48Z</time></trkpt><trkpt lat="46.060985928963866" lon="11.641638387122754"><ele>1083.0</ele><time>2026-05-02T08:58:49Z</time></trkpt><trkpt lat="46.061099387093634" lon="11.641740911411324"><ele>1080.0</ele><time>2026-05-02T08:58:50Z</time></trkpt><trkpt lat="46.061205744975524" lon="11.641834646278301"><ele>1080.0</ele><time>2026-05-02T08:58:51Z</time></trkpt><trkpt lat="46.061321479716355" lon="11.641870515850487"><ele>1080.0</ele><time>2026-05-02T08:58:52Z</time></trkpt><trkpt lat="46.06144320206929" lon="11.641835769517588"><ele>1080.0</ele><time>2026-05-02T08:58:53Z</time></trkpt><trkpt lat="46.061550569828064" lon="11.64175522481985"><ele>1080.0</ele><time>2026-05-02T08:58:54Z</time></trkpt><trkpt lat="46.06164674614528" lon="11.641631621057998"><ele>1077.75</ele><time>2026-05-02T08:58:55Z</time></trkpt><trkpt lat="46.06175209905033" lon="11.641513681273889"><ele>1075.5</ele><time>2026-05-02T08:58:56Z</time></trkpt><trkpt lat="46.0618757495382" lon="11.6414181119304"><ele>1073.25</ele><time>2026-05-02T08:58:57Z</time></trkpt><trkpt lat="46.06202007624375" lon="11.641341101432882"><ele>1071.0</ele><time>2026-05-02T08:58:58Z</time></trkpt><trkpt lat="46.062184278857686" lon="11.64128871267009"><ele>1071.0</ele><time>2026-05-02T08:58:59Z</time></trkpt><trkpt lat="46.062353934050535" lon="11.641210153341225"><ele>1071.0</ele><time>2026-05-02T08:59:00Z</time></trkpt><trkpt lat="46.06251662221445" lon="11.641112421383783"><ele>1071.0</ele><time>2026-05-02T08:59:01Z</time></trkpt><trkpt lat="46.06267626765465" lon="11.641039046920973"><ele>1062.6666666666667</ele><time>2026-05-02T08:59:02Z</time></trkpt><trkpt lat="46.062832754347205" lon="11.640988092965028"><ele>1054.3333333333335</ele><time>2026-05-02T08:59:03Z</time></trkpt><trkpt lat="46.062978111269324" lon="11.640896053687236"><ele>1046.0</ele><time>2026-05-02T08:59:04Z</time></trkpt><trkpt lat="46.063124522345404" lon="11.640835948691453"><ele>1046.0</ele><time>2026-05-02T08:59:05Z</time></trkpt><trkpt lat="46.063251735255264" lon="11.640778854779414"><ele>1046.0</ele><time>2026-05-02T08:59:06Z</time></trkpt><trkpt lat="46.063356256510026" lon="11.64068988107157"><ele>1046.0</ele><time>2026-05-02T08:59:07Z</time></trkpt><trkpt lat="46.06343790854746" lon="11.640554638046885"><ele>1046.0</ele><time>2026-05-02T08:59:08Z</time></trkpt><trkpt lat="46.06350373126653" lon="11.640387316649862"><ele>1041.6666666666667</ele><time>2026-05-02T08:59:09Z</time></trkpt><trkpt lat="46.06357301440997" lon="11.640200867816352"><ele>1037.3333333333333</ele><time>2026-05-02T08:59:10Z</time></trkpt><trkpt lat="46.06365238209004" lon="11.640012068744559"><ele>1033.0</ele><time>2026-05-02T08:59:11Z</time></trkpt><trkpt lat="46.0637291579139" lon="11.63982454317362"><ele>1033.0</ele><time>2026-05-02T08:59:12Z</time></trkpt><trkpt lat="46.063799358375455" lon="11.639641826898767"><ele>1033.0</ele><time>2026-05-02T08:59:13Z</time></trkpt><trkpt lat="46.06386806061276" lon="11.639469214216179"><ele>1033.0</ele><time>2026-05-02T08:59:14Z</time></trkpt><trkpt lat="46.063929456086946" lon="11.639293902917512"><ele>1033.0</ele><time>2026-05-02T08:59:15Z</time></trkpt><trkpt lat="46.063973445892444" lon="11.639108972971888"><ele>1026.75</ele><time>2026-05-02T08:59:16Z</time></trkpt><trkpt lat="46.06399838913904" lon="11.63892039768473"><ele>1020.5</ele><time>2026-05-02T08:59:17Z</time></trkpt><trkpt lat="46.0640124123872" lon="11.63873521414055"><ele>1014.25</ele><time>2026-05-02T08:59:18Z</time></trkpt><trkpt lat="46.064024717810995" lon="11.638551729240042"><ele>1008.0</ele><time>2026-05-02T08:59:19Z</time></trkpt><trkpt lat="46.064062960598854" lon="11.638378888283427"><ele>1013.0</ele><time>2026-05-02T08:59:20Z</time></trkpt><trkpt lat="46.06412618892088" lon="11.638217997341954"><ele>1018.0</ele><time>2026-05-02T08:59:21Z</time></trkpt><trkpt lat="46.064207269884044" lon="11.638074354697652"><ele>1023.0</ele><time>2026-05-02T08:59:22Z</time></trkpt><trkpt lat="46.06429712197607" lon="11.637959889240404"><ele>1028.0</ele><time>2026-05-02T08:59:23Z</time></trkpt><trkpt lat="46.0643786705676" lon="11.637869735931849"><ele>1025.4</ele><time>2026-05-02T08:59:24Z</time></trkpt><trkpt lat="46.06442961617707" lon="11.637782396917398"><ele>1022.8</ele><time>2026-05-02T08:59:25Z</time></trkpt><trkpt lat="46.064429979802654" lon="11.637686323430103"><ele>1020.2</ele><time>2026-05-02T08:59:26Z</time></trkpt><trkpt lat="46.06433706271321" lon="11.637587544484882"><ele>1017.6</ele><time>2026-05-02T08:59:28.001Z</time></trkpt><trkpt lat="46.06422829881708" lon="11.637641809211944"><ele>1015.0</ele><time>2026-05-02T08:59:30.001Z</time></trkpt><trkpt lat="46.064166295150905" lon="11.637718931608893"><ele>1010.0</ele><time>2026-05-02T08:59:31.001Z</time></trkpt><trkpt lat="46.06409513363691" lon="11.63780500278008"><ele>1005.0</ele><time>2026-05-02T08:59:32.001Z</time></trkpt><trkpt lat="46.06402358724381" lon="11.637917587272478"><ele>1000.0</ele><time>2026-05-02T08:59:33.001Z</time></trkpt><trkpt lat="46.06395244812733" lon="11.638041399511835"><ele>995.0</ele><time>2026-05-02T08:59:34.001Z</time></trkpt><trkpt lat="46.06387845790995" lon="11.638170443533769"><ele>990.0</ele><time>2026-05-02T08:59:35.001Z</time></trkpt><trkpt lat="46.06381434888439" lon="11.638341466101823"><ele>990.0</ele><time>2026-05-02T08:59:36.001Z</time></trkpt><trkpt lat="46.06377949080963" lon="11.638540766887138"><ele>990.0</ele><time>2026-05-02T08:59:37.001Z</time></trkpt><trkpt lat="46.063771356540705" lon="11.638737104300994"><ele>990.0</ele><time>2026-05-02T08:59:38.001Z</time></trkpt><trkpt lat="46.06374883664372" lon="11.638920059353023"><ele>990.0</ele><time>2026-05-02T08:59:39.001Z</time></trkpt><trkpt lat="46.0636907971881" lon="11.639083838518278"><ele>994.5</ele><time>2026-05-02T08:59:40.001Z</time></trkpt><trkpt lat="46.06360758486667" lon="11.639230466028247"><ele>999.0</ele><time>2026-05-02T08:59:41.001Z</time></trkpt><trkpt lat="46.06350656993843" lon="11.639360199051287"><ele>1003.5</ele><time>2026-05-02T08:59:42.001Z</time></trkpt><trkpt lat="46.06340194729052" lon="11.639486230817951"><ele>1008.0</ele><time>2026-05-02T08:59:43.001Z</time></trkpt><trkpt lat="46.063292146801075" lon="11.639606401235142"><ele>1008.75</ele><time>2026-05-02T08:59:44.001Z</time></trkpt><trkpt lat="46.063185993867094" lon="11.639721053183214"><ele>1009.5</ele><time>2026-05-02T08:59:45.001Z</time></trkpt><trkpt lat="46.06308072522879" lon="11.639830530542348"><ele>1010.25</ele><time>2026-05-02T08:59:46.001Z</time></trkpt><trkpt lat="46.062975596198406" lon="11.639929738992308"><ele>1011.0</ele><time>2026-05-02T08:59:47.001Z</time></trkpt><trkpt lat="46.06286038749793" lon="11.639994914347234"><ele>1011.0</ele><time>2026-05-02T08:59:48.001Z</time></trkpt><trkpt lat="46.062736632396046" lon="11.64002504402301"><ele>1011.0</ele><time>2026-05-02T08:59:49.001Z</time></trkpt><trkpt lat="46.062597977497134" lon="11.64005188159923"><ele>1011.0</ele><time>2026-05-02T08:59:50.001Z</time></trkpt><trkpt lat="46.062446634694204" lon="11.640066770527591"><ele>1011.0</ele><time>2026-05-02T08:59:51.001Z</time></trkpt><trkpt lat="46.06228634387373" lon="11.640072954023294"><ele>1008.0</ele><time>2026-05-02T08:59:52.001Z</time></trkpt><trkpt lat="46.062124707371936" lon="11.640089014611803"><ele>1005.0</ele><time>2026-05-02T08:59:53.001Z</time></trkpt><trkpt lat="46.061963809598105" lon="11.640107106429774"><ele>1002.0</ele><time>2026-05-02T08:59:54.001Z</time></trkpt><trkpt lat="46.06180897501238" lon="11.640137458741481"><ele>1002.0</ele><time>2026-05-02T08:59:55.001Z</time></trkpt><trkpt lat="46.06165985858163" lon="11.64018684770019"><ele>1002.0</ele><time>2026-05-02T08:59:56Z</time></trkpt><trkpt lat="46.06151821611393" lon="11.64022848873478"><ele>1002.0</ele><time>2026-05-02T08:59:57Z</time></trkpt><trkpt lat="46.06137810538107" lon="11.640249926739921"><ele>1002.0</ele><time>2026-05-02T08:59:58Z</time></trkpt><trkpt lat="46.06124614455278" lon="11.640229800531667"><ele>1002.5</ele><time>2026-05-02T08:59:59Z</time></trkpt><trkpt lat="46.0611302823347" lon="11.640131085965704"><ele>1003.0</ele><time>2026-05-02T09:00:00Z</time></trkpt><trkpt lat="46.06101571563649" lon="11.640052254140631"><ele>1003.5</ele><time>2026-05-02T09:00:01Z</time></trkpt><trkpt lat="46.06090945383131" lon="11.639963852325746"><ele>1004.0</ele><time>2026-05-02T09:00:02Z</time></trkpt><trkpt lat="46.06078090363126" lon="11.63991422017048"><ele>1004.75</ele><time>2026-05-02T09:00:03Z</time></trkpt><trkpt lat="46.06064322252293" lon="11.639890191947195"><ele>1005.5</ele><time>2026-05-02T09:00:04Z</time></trkpt><trkpt lat="46.06050103913784" lon="11.63986468013238"><ele>1006.25</ele><time>2026-05-02T09:00:05Z</time></trkpt><trkpt lat="46.06036588998644" lon="11.639836018458045"><ele>1007.0</ele><time>2026-05-02T09:00:06Z</time></trkpt><trkpt lat="46.060240939393395" lon="11.639810544039646"><ele>1007.0</ele><time>2026-05-02T09:00:07Z</time></trkpt><trkpt lat="46.0601319365771" lon="11.63978738001822"><ele>1007.0</ele><time>2026-05-02T09:00:08Z</time></trkpt><trkpt lat="46.060035374610116" lon="11.639756139599857"><ele>1007.0</ele><time>2026-05-02T09:00:09Z</time></trkpt><trkpt lat="46.05995891690498" lon="11.63969706040008"><ele>1007.0</ele><time>2026-05-02T09:00:10Z</time></trkpt><trkpt lat="46.059896046125516" lon="11.6396506490222"><ele>1007.0</ele><time>2026-05-02T09:00:11Z</time></trkpt><trkpt lat="46.05981582081775" lon="11.639604839624598"><ele>1007.0</ele><time>2026-05-02T09:00:13Z</time></trkpt><trkpt lat="46.05989108310035" lon="11.639619423126007"><ele>1007.0</ele><time>2026-05-02T09:00:40Z</time></trkpt><trkpt lat="46.059966513508584" lon="11.639672294997826"><ele>1007.0</ele><time>2026-05-02T09:00:42Z</time></trkpt><trkpt lat="46.06003093609862" lon="11.63966569805176"><ele>1007.0</ele><time>2026-05-02T09:00:43Z</time></trkpt><trkpt lat="46.06009435463258" lon="11.639670804445915"><ele>1007.0</ele><time>2026-05-02T09:00:44Z</time></trkpt><trkpt lat="46.060170393125645" lon="11.63968038650234"><ele>1007.0</ele><time>2026-05-02T09:00:45Z</time></trkpt><trkpt lat="46.060251666821216" lon="11.639683505570096"><ele>1007.0</ele><time>2026-05-02T09:00:46Z</time></trkpt><trkpt lat="46.06032757531924" lon="11.639677739299907"><ele>1007.0000000000001</ele><time>2026-05-02T09:00:47Z</time></trkpt><trkpt lat="46.060404285900425" lon="11.639668682238106"><ele>1007.0</ele><time>2026-05-02T09:00:48Z</time></trkpt><trkpt lat="46.060481158982086" lon="11.639656572744247"><ele>1007.0</ele><time>2026-05-02T09:00:49Z</time></trkpt><trkpt lat="46.060561061951255" lon="11.63963581703091"><ele>1007.0</ele><time>2026-05-02T09:00:50Z</time></trkpt><trkpt lat="46.06063606117384" lon="11.639608572342123"><ele>1007.0000000000001</ele><time>2026-05-02T09:00:51Z</time></trkpt><trkpt lat="46.060715778440226" lon="11.639555993646066"><ele>1007.0</ele><time>2026-05-02T09:00:52Z</time></trkpt><trkpt lat="46.06078406467153" lon="11.639469675749854"><ele>1000.3333333333334</ele><time>2026-05-02T09:00:53Z</time></trkpt><trkpt lat="46.0608762011453" lon="11.63937466781734"><ele>993.6666666666667</ele><time>2026-05-02T09:00:55Z</time></trkpt><trkpt lat="46.06096275429268" lon="11.63936085485571"><ele>987.0</ele><time>2026-05-02T09:00:57Z</time></trkpt><trkpt lat="46.06102778879758" lon="11.639379873237731"><ele>980.3333333333333</ele><time>2026-05-02T09:00:58Z</time></trkpt><trkpt lat="46.06110043360126" lon="11.639414827785984"><ele>973.6666666666666</ele><time>2026-05-02T09:00:59Z</time></trkpt><trkpt lat="46.06116975281575" lon="11.63943349724602"><ele>967.0</ele><time>2026-05-02T09:01:00Z</time></trkpt><trkpt lat="46.061235205869245" lon="11.639449574400684"><ele>967.0</ele><time>2026-05-02T09:01:01Z</time></trkpt><trkpt lat="46.06130049451339" lon="11.639446211132443"><ele>967.0</ele><time>2026-05-02T09:01:02Z</time></trkpt><trkpt lat="46.06136305365206" lon="11.639411954352894"><ele>967.0</ele><time>2026-05-02T09:01:03Z</time></trkpt><trkpt lat="46.06141956909397" lon="11.63936450065043"><ele>967.0</ele><time>2026-05-02T09:01:04Z</time></trkpt><trkpt lat="46.0614797319122" lon="11.639300926264353"><ele>967.0</ele><time>2026-05-02T09:01:05Z</time></trkpt><trkpt lat="46.06153853966111" lon="11.63921797282572"><ele>967.0</ele><time>2026-05-02T09:01:06Z</time></trkpt><trkpt lat="46.06159009359648" lon="11.639125442131006"><ele>967.0</ele><time>2026-05-02T09:01:07Z</time></trkpt><trkpt lat="46.061638520794126" lon="11.639024940013796"><ele>968.4000000000001</ele><time>2026-05-02T09:01:08Z</time></trkpt><trkpt lat="46.06168852347854" lon="11.63891429932538"><ele>969.8000000000001</ele><time>2026-05-02T09:01:09Z</time></trkpt><trkpt lat="46.06174095127507" lon="11.638803991548603"><ele>971.2</ele><time>2026-05-02T09:01:10Z</time></trkpt><trkpt lat="46.06179407648493" lon="11.638702362507741"><ele>972.6</ele><time>2026-05-02T09:01:11Z</time></trkpt><trkpt lat="46.06182737481021" lon="11.638602531342599"><ele>974.0</ele><time>2026-05-02T09:01:12Z</time></trkpt><trkpt lat="46.06190416761139" lon="11.638503131920471"><ele>967.6</ele><time>2026-05-02T09:01:14Z</time></trkpt><trkpt lat="46.06194733158025" lon="11.638418189572846"><ele>961.2</ele><time>2026-05-02T09:01:16Z</time></trkpt><trkpt lat="46.06213495942785" lon="11.638429149002766"><ele>954.8000000000001</ele><time>2026-05-02T09:01:31.001Z</time></trkpt><trkpt lat="46.06221200799829" lon="11.638456529104637"><ele>948.4000000000001</ele><time>2026-05-02T09:01:34.001Z</time></trkpt><trkpt lat="46.06227445655303" lon="11.638472626213018"><ele>942.0</ele><time>2026-05-02T09:01:41.001Z</time></trkpt><trkpt lat="46.06220397296804" lon="11.638444346816629"><ele>942.0</ele><time>2026-05-02T09:01:58.001Z</time></trkpt><trkpt lat="46.06211385744625" lon="11.638428464738107"><ele>942.0</ele><time>2026-05-02T09:02:00.001Z</time></trkpt><trkpt lat="46.062009130298435" lon="11.638447834909062"><ele>942.0</ele><time>2026-05-02T09:02:02Z</time></trkpt><trkpt lat="46.061937676257195" lon="11.638457287927993"><ele>942.0</ele><time>2026-05-02T09:02:05Z</time></trkpt><trkpt lat="46.06198389433518" lon="11.638373528459494"><ele>942.0</ele><time>2026-05-02T09:03:17Z</time></trkpt><trkpt lat="46.06206118840847" lon="11.638326194467732"><ele>942.0</ele><time>2026-05-02T09:03:19Z</time></trkpt><trkpt lat="46.062156612864065" lon="11.638282583692845"><ele>942.0</ele><time>2026-05-02T09:03:21Z</time></trkpt><trkpt lat="46.06227389335202" lon="11.638270103831207"><ele>942.0</ele><time>2026-05-02T09:03:23Z</time></trkpt><trkpt lat="46.06236553302478" lon="11.63823335212566"><ele>942.0</ele><time>2026-05-02T09:03:25Z</time></trkpt><trkpt lat="46.06239483488802" lon="11.63812399711531"><ele>942.0</ele><time>2026-05-02T09:03:27Z</time></trkpt><trkpt lat="46.06244470250303" lon="11.637964555705882"><ele>942.0</ele><time>2026-05-02T09:03:29Z</time></trkpt><trkpt lat="46.06247565858712" lon="11.637788164788441"><ele>939.2</ele><time>2026-05-02T09:03:31Z</time></trkpt><trkpt lat="46.06249278135765" lon="11.637631921006102"><ele>936.4000000000001</ele><time>2026-05-02T09:03:33Z</time></trkpt><trkpt lat="46.06251138162745" lon="11.63747571902728"><ele>933.5999999999999</ele><time>2026-05-02T09:03:35.001Z</time></trkpt><trkpt lat="46.06254614025976" lon="11.637328002209882"><ele>930.8</ele><time>2026-05-02T09:03:37.001Z</time></trkpt><trkpt lat="46.06260160451127" lon="11.637175711014672"><ele>928.0</ele><time>2026-05-02T09:03:39.001Z</time></trkpt><trkpt lat="46.062646242085954" lon="11.637025196695912"><ele>924.2</ele><time>2026-05-02T09:03:41.001Z</time></trkpt><trkpt lat="46.06265385493222" lon="11.63687268881707"><ele>920.4</ele><time>2026-05-02T09:03:43.001Z</time></trkpt><trkpt lat="46.06267197698333" lon="11.6367329747941"><ele>916.6000000000001</ele><time>2026-05-02T09:03:45.001Z</time></trkpt><trkpt lat="46.06272069811137" lon="11.63663694363636"><ele>912.8000000000001</ele><time>2026-05-02T09:03:47.001Z</time></trkpt><trkpt lat="46.0627974017406" lon="11.63653560366979"><ele>909.0</ele><time>2026-05-02T09:03:49.001Z</time></trkpt><trkpt lat="46.06287642471772" lon="11.636428358206988"><ele>909.0</ele><time>2026-05-02T09:03:51.001Z</time></trkpt><trkpt lat="46.06295500320623" lon="11.636346125421552"><ele>909.0000000000001</ele><time>2026-05-02T09:03:53.001Z</time></trkpt><trkpt lat="46.063003361447464" lon="11.636242263945135"><ele>909.0000000000001</ele><time>2026-05-02T09:03:55.001Z</time></trkpt><trkpt lat="46.063072724478545" lon="11.636167322055636"><ele>909.0</ele><time>2026-05-02T09:03:57.001Z</time></trkpt><trkpt lat="46.06312533891743" lon="11.636087407360922"><ele>909.0</ele><time>2026-05-02T09:03:59.001Z</time></trkpt><trkpt lat="46.063195835255016" lon="11.635976357082965"><ele>910.0</ele><time>2026-05-02T09:04:01.001Z</time></trkpt><trkpt lat="46.06324974512303" lon="11.635875330951247"><ele>911.0000000000001</ele><time>2026-05-02T09:04:03.001Z</time></trkpt><trkpt lat="46.063318859772224" lon="11.635745860194739"><ele>912.0000000000001</ele><time>2026-05-02T09:04:05.001Z</time></trkpt><trkpt lat="46.06338604227901" lon="11.635624336697044"><ele>913.0</ele><time>2026-05-02T09:04:07.001Z</time></trkpt><trkpt lat="46.06345792421123" lon="11.635490322426799"><ele>914.0</ele><time>2026-05-02T09:04:09Z</time></trkpt><trkpt lat="46.06351678816952" lon="11.635359642806765"><ele>908.6666666666667</ele><time>2026-05-02T09:04:11Z</time></trkpt><trkpt lat="46.063602097863175" lon="11.635257540280191"><ele>903.3333333333334</ele><time>2026-05-02T09:04:13Z</time></trkpt><trkpt lat="46.06368599275056" lon="11.63513104530636"><ele>898.0</ele><time>2026-05-02T09:04:15Z</time></trkpt><trkpt lat="46.06372768654229" lon="11.635062572195789"><ele>892.6666666666667</ele><time>2026-05-02T09:04:16Z</time></trkpt><trkpt lat="46.06378952945835" lon="11.635018355386375"><ele>887.3333333333334</ele><time>2026-05-02T09:04:17Z</time></trkpt><trkpt lat="46.063840342077256" lon="11.634948249779649"><ele>882.0</ele><time>2026-05-02T09:04:18Z</time></trkpt><trkpt lat="46.06387333303063" lon="11.63485307383756"><ele>882.0</ele><time>2026-05-02T09:04:19Z</time></trkpt><trkpt lat="46.06390941927963" lon="11.63476450702859"><ele>882.0</ele><time>2026-05-02T09:04:21Z</time></trkpt><trkpt lat="46.06395802680611" lon="11.634687676471813"><ele>882.0</ele><time>2026-05-02T09:04:23Z</time></trkpt><trkpt lat="46.06397543319169" lon="11.634594271805591"><ele>882.0</ele><time>2026-05-02T09:04:24Z</time></trkpt><trkpt lat="46.06400787680934" lon="11.634511675790064"><ele>882.0</ele><time>2026-05-02T09:04:25Z</time></trkpt><trkpt lat="46.06403300141799" lon="11.634427853500052"><ele>882.0</ele><time>2026-05-02T09:04:26Z</time></trkpt><trkpt lat="46.064094697493545" lon="11.634328350147893"><ele>882.0</ele><time>2026-05-02T09:04:28Z</time></trkpt><trkpt lat="46.0641683484169" lon="11.634202866442143"><ele>880.8333333333334</ele><time>2026-05-02T09:04:30Z</time></trkpt><trkpt lat="46.06421557616071" lon="11.63414238428214"><ele>879.6666666666667</ele><time>2026-05-02T09:04:31Z</time></trkpt><trkpt lat="46.064292291867844" lon="11.634052220848782"><ele>878.5</ele><time>2026-05-02T09:04:33Z</time></trkpt><trkpt lat="46.06434138742822" lon="11.633950237048728"><ele>877.3333333333334</ele><time>2026-05-02T09:04:36Z</time></trkpt><trkpt lat="46.064413970026806" lon="11.633890369167876"><ele>876.1666666666667</ele><time>2026-05-02T09:04:49Z</time></trkpt><trkpt lat="46.06448501430633" lon="11.633955017071179"><ele>875.0</ele><time>2026-05-02T09:04:50Z</time></trkpt><trkpt lat="46.06454708610456" lon="11.633971544058511"><ele>875.0000000000001</ele><time>2026-05-02T09:04:51Z</time></trkpt><trkpt lat="46.06461282428019" lon="11.633936930789298"><ele>875.0</ele><time>2026-05-02T09:04:52Z</time></trkpt><trkpt lat="46.06467364106546" lon="11.63396289270548"><ele>875.0</ele><time>2026-05-02T09:04:53Z</time></trkpt><trkpt lat="46.06477459235496" lon="11.634029119799115"><ele>875.0</ele><time>2026-05-02T09:04:55Z</time></trkpt><trkpt lat="46.06483693726259" lon="11.634104204701393"><ele>875.0000000000001</ele><time>2026-05-02T09:04:57Z</time></trkpt><trkpt lat="46.06490676905734" lon="11.634150410445198"><ele>875.0</ele><time>2026-05-02T09:04:59Z</time></trkpt><trkpt lat="46.06497866574413" lon="11.634119232503464"><ele>875.6</ele><time>2026-05-02T09:05:00Z</time></trkpt><trkpt lat="46.06504435325739" lon="11.634150639527526"><ele>876.2</ele><time>2026-05-02T09:05:01Z</time></trkpt><trkpt lat="46.06511520534496" lon="11.634176295165254"><ele>876.8</ele><time>2026-05-02T09:05:02Z</time></trkpt><trkpt lat="46.06523962148562" lon="11.634191217680359"><ele>877.4</ele><time>2026-05-02T09:05:04Z</time></trkpt><trkpt lat="46.06533677603793" lon="11.63423396437276"><ele>878.0</ele><time>2026-05-02T09:05:06Z</time></trkpt><trkpt lat="46.06541477175219" lon="11.634338258175937"><ele>878.0</ele><time>2026-05-02T09:05:08Z</time></trkpt><trkpt lat="46.06545689565995" lon="11.634466202834442"><ele>878.0</ele><time>2026-05-02T09:05:10Z</time></trkpt><trkpt lat="46.06547352266655" lon="11.634602439441913"><ele>878.0</ele><time>2026-05-02T09:05:12Z</time></trkpt><trkpt lat="46.06553024254966" lon="11.63470952783209"><ele>878.0</ele><time>2026-05-02T09:05:14Z</time></trkpt><trkpt lat="46.06561294445484" lon="11.634824042929267"><ele>878.0</ele><time>2026-05-02T09:05:16Z</time></trkpt><trkpt lat="46.06566406352467" lon="11.6348844419765"><ele>877.6666666666667</ele><time>2026-05-02T09:05:17Z</time></trkpt><trkpt lat="46.06571892604319" lon="11.6349503259662"><ele>877.3333333333334</ele><time>2026-05-02T09:05:18Z</time></trkpt><trkpt lat="46.06578629567354" lon="11.635026045478853"><ele>877.0</ele><time>2026-05-02T09:05:19Z</time></trkpt><trkpt lat="46.06584190690588" lon="11.635119326119769"><ele>876.6666666666667</ele><time>2026-05-02T09:05:20Z</time></trkpt><trkpt lat="46.0659008559479" lon="11.635197496088695"><ele>876.3333333333334</ele><time>2026-05-02T09:05:21Z</time></trkpt><trkpt lat="46.06595906648609" lon="11.635278102607586"><ele>876.0</ele><time>2026-05-02T09:05:22Z</time></trkpt><trkpt lat="46.06601348584111" lon="11.635356243871176"><ele>880.3333333333334</ele><time>2026-05-02T09:05:23Z</time></trkpt><trkpt lat="46.066061716773056" lon="11.635431434315839"><ele>884.6666666666667</ele><time>2026-05-02T09:05:24Z</time></trkpt><trkpt lat="46.0661176392695" lon="11.635498741005543"><ele>889.0</ele><time>2026-05-02T09:05:25Z</time></trkpt><trkpt lat="46.066163560727084" lon="11.635583677258547"><ele>893.3333333333334</ele><time>2026-05-02T09:05:26Z</time></trkpt><trkpt lat="46.06621098027177" lon="11.635688031759505"><ele>897.6666666666667</ele><time>2026-05-02T09:05:27Z</time></trkpt><trkpt lat="46.06625737779569" lon="11.635802222700205"><ele>902.0</ele><time>2026-05-02T09:05:28Z</time></trkpt><trkpt lat="46.066299962480485" lon="11.63591917849384"><ele>902.0</ele><time>2026-05-02T09:05:29Z</time></trkpt><trkpt lat="46.06633255585824" lon="11.636044222418406"><ele>902.0</ele><time>2026-05-02T09:05:30Z</time></trkpt><trkpt lat="46.066382236577894" lon="11.63616032267192"><ele>902.0</ele><time>2026-05-02T09:05:31Z</time></trkpt><trkpt lat="46.06642748669472" lon="11.63627570465079"><ele>902.0</ele><time>2026-05-02T09:05:32Z</time></trkpt><trkpt lat="46.066461325505806" lon="11.636391463961806"><ele>902.0</ele><time>2026-05-02T09:05:33Z</time></trkpt><trkpt lat="46.066513090307986" lon="11.636530812421839"><ele>899.0</ele><time>2026-05-02T09:05:34Z</time></trkpt><trkpt lat="46.06656863330033" lon="11.636674902458049"><ele>896.0</ele><time>2026-05-02T09:05:35Z</time></trkpt><trkpt lat="46.06661709163123" lon="11.636810432255666"><ele>893.0</ele><time>2026-05-02T09:05:36Z</time></trkpt><trkpt lat="46.06666750031999" lon="11.636934081709835"><ele>890.0</ele><time>2026-05-02T09:05:37Z</time></trkpt><trkpt lat="46.06671123458532" lon="11.637043055831208"><ele>887.0</ele><time>2026-05-02T09:05:38Z</time></trkpt><trkpt lat="46.06674881927026" lon="11.637138505672157"><ele>887.0</ele><time>2026-05-02T09:05:39Z</time></trkpt><trkpt lat="46.0667782785026" lon="11.637226756182033"><ele>887.0</ele><time>2026-05-02T09:05:40Z</time></trkpt><trkpt lat="46.066809799346515" lon="11.637375659362325"><ele>887.0</ele><time>2026-05-02T09:05:42.001Z</time></trkpt><trkpt lat="46.06682739826545" lon="11.637490170275736"><ele>887.0</ele><time>2026-05-02T09:05:44.001Z</time></trkpt><trkpt lat="46.0668912711543" lon="11.637515031215948"><ele>887.0</ele><time>2026-05-02T09:05:48.001Z</time></trkpt><trkpt lat="46.06685491200545" lon="11.637259773626948"><ele>887.0</ele><time>2026-05-02T09:05:51.001Z</time></trkpt><trkpt lat="46.06683217221441" lon="11.637170245904565"><ele>887.0</ele><time>2026-05-02T09:05:52.001Z</time></trkpt><trkpt lat="46.06679891761551" lon="11.637053627377492"><ele>887.0</ele><time>2026-05-02T09:05:53.001Z</time></trkpt><trkpt lat="46.06675983208199" lon="11.636919795432785"><ele>887.0</ele><time>2026-05-02T09:05:54.001Z</time></trkpt><trkpt lat="46.06671515277695" lon="11.636774769967557"><ele>887.0</ele><time>2026-05-02T09:05:55.001Z</time></trkpt><trkpt lat="46.06667334008091" lon="11.636624469403557"><ele>890.75</ele><time>2026-05-02T09:05:56.001Z</time></trkpt><trkpt lat="46.066626347755594" lon="11.636454846686446"><ele>894.5</ele><time>2026-05-02T09:05:57.001Z</time></trkpt><trkpt lat="46.06657972404514" lon="11.636278198286385"><ele>898.25</ele><time>2026-05-02T09:05:58.001Z</time></trkpt><trkpt lat="46.0665300041635" lon="11.63610123065262"><ele>902.0</ele><time>2026-05-02T09:05:59.001Z</time></trkpt><trkpt lat="46.06647527663669" lon="11.635911657508084"><ele>902.0</ele><time>2026-05-02T09:06:00.001Z</time></trkpt><trkpt lat="46.06643038877781" lon="11.635713240384764"><ele>902.0</ele><time>2026-05-02T09:06:01.001Z</time></trkpt><trkpt lat="46.066384561564064" lon="11.635516917307891"><ele>902.0</ele><time>2026-05-02T09:06:02.001Z</time></trkpt><trkpt lat="46.066338582982404" lon="11.635329648928549"><ele>902.0</ele><time>2026-05-02T09:06:03.001Z</time></trkpt><trkpt lat="46.0662993506207" lon="11.635159516260687"><ele>896.8</ele><time>2026-05-02T09:06:04.001Z</time></trkpt><trkpt lat="46.06625874548131" lon="11.634997810712994"><ele>891.6</ele><time>2026-05-02T09:06:05.001Z</time></trkpt><trkpt lat="46.06621865722047" lon="11.634868431578061"><ele>886.3999999999999</ele><time>2026-05-02T09:06:06.001Z</time></trkpt><trkpt lat="46.06616096111525" lon="11.6347606342817"><ele>881.1999999999999</ele><time>2026-05-02T09:06:07.001Z</time></trkpt><trkpt lat="46.06611626872445" lon="11.634640616549246"><ele>876.0</ele><time>2026-05-02T09:06:08.001Z</time></trkpt><trkpt lat="46.06604834312974" lon="11.634553034377639"><ele>876.2857142857143</ele><time>2026-05-02T09:06:09.001Z</time></trkpt><trkpt lat="46.06600050041001" lon="11.634452905717994"><ele>876.5714285714286</ele><time>2026-05-02T09:06:10.001Z</time></trkpt><trkpt lat="46.06594840487291" lon="11.634369012871883"><ele>876.8571428571429</ele><time>2026-05-02T09:06:11.001Z</time></trkpt><trkpt lat="46.06590523793174" lon="11.634301574179474"><ele>877.1428571428571</ele><time>2026-05-02T09:06:12.001Z</time></trkpt><trkpt lat="46.06586215394543" lon="11.634222322209311"><ele>877.4285714285713</ele><time>2026-05-02T09:06:14Z</time></trkpt><trkpt lat="46.06582901033067" lon="11.634144592457496"><ele>877.7142857142857</ele><time>2026-05-02T09:06:17Z</time></trkpt><trkpt lat="46.065774323707345" lon="11.63409262501606"><ele>878.0</ele><time>2026-05-02T09:06:21Z</time></trkpt><trkpt lat="46.06568085435758" lon="11.6340130803162"><ele>878.0000000000001</ele><time>2026-05-02T09:06:23Z</time></trkpt><trkpt lat="46.06561781192202" lon="11.633947869252642"><ele>878.0</ele><time>2026-05-02T09:06:24Z</time></trkpt><trkpt lat="46.06555259003293" lon="11.63388355047942"><ele>878.0</ele><time>2026-05-02T09:06:25Z</time></trkpt><trkpt lat="46.06547978316649" lon="11.633809877855375"><ele>878.0</ele><time>2026-05-02T09:06:26Z</time></trkpt><trkpt lat="46.06539959983128" lon="11.633729651601007"><ele>878.0000000000001</ele><time>2026-05-02T09:06:27Z</time></trkpt><trkpt lat="46.0653188835613" lon="11.633637358073432"><ele>878.0</ele><time>2026-05-02T09:06:28Z</time></trkpt><trkpt lat="46.06524327429573" lon="11.633557109509512"><ele>876.6666666666667</ele><time>2026-05-02T09:06:29Z</time></trkpt><trkpt lat="46.06517134279401" lon="11.633484451717203"><ele>875.3333333333334</ele><time>2026-05-02T09:06:30Z</time></trkpt><trkpt lat="46.06510417819451" lon="11.633426823436766"><ele>874.0</ele><time>2026-05-02T09:06:31Z</time></trkpt><trkpt lat="46.06504564670468" lon="11.633375238927957"><ele>872.6666666666667</ele><time>2026-05-02T09:06:32Z</time></trkpt><trkpt lat="46.06496287302504" lon="11.633292860237333"><ele>871.3333333333334</ele><time>2026-05-02T09:06:34Z</time></trkpt><trkpt lat="46.06488071149294" lon="11.633230083209217"><ele>870.0</ele><time>2026-05-02T09:06:36Z</time></trkpt><trkpt lat="46.064811970163824" lon="11.633143477839928"><ele>869.1666666666666</ele><time>2026-05-02T09:06:38Z</time></trkpt><trkpt lat="46.06473659890582" lon="11.633082851677798"><ele>868.3333333333333</ele><time>2026-05-02T09:06:40Z</time></trkpt><trkpt lat="46.06467139948534" lon="11.632986664171504"><ele>867.5</ele><time>2026-05-02T09:06:42Z</time></trkpt><trkpt lat="46.06462838362102" lon="11.632834572060844"><ele>866.6666666666666</ele><time>2026-05-02T09:06:44Z</time></trkpt><trkpt lat="46.06458323609216" lon="11.632761417256274"><ele>865.8333333333333</ele><time>2026-05-02T09:06:45Z</time></trkpt><trkpt lat="46.0645471888671" lon="11.63266883848051"><ele>865.0</ele><time>2026-05-02T09:06:46Z</time></trkpt><trkpt lat="46.064511382234244" lon="11.632579177520762"><ele>864.4999999999999</ele><time>2026-05-02T09:06:47Z</time></trkpt><trkpt lat="46.064484796130266" lon="11.632492302774464"><ele>864.0</ele><time>2026-05-02T09:06:48Z</time></trkpt><trkpt lat="46.064465090453645" lon="11.632307722997885"><ele>863.5</ele><time>2026-05-02T09:06:50Z</time></trkpt><trkpt lat="46.06446866465206" lon="11.632208857732397"><ele>863.0</ele><time>2026-05-02T09:06:51Z</time></trkpt><trkpt lat="46.06447838281908" lon="11.632105433253091"><ele>862.4999999999999</ele><time>2026-05-02T09:06:52Z</time></trkpt><trkpt lat="46.06449911327837" lon="11.6319907767157"><ele>862.0</ele><time>2026-05-02T09:06:53Z</time></trkpt><trkpt lat="46.06452324717372" lon="11.63186758263468"><ele>860.8</ele><time>2026-05-02T09:06:54Z</time></trkpt><trkpt lat="46.06454736604737" lon="11.631740597747132"><ele>859.6</ele><time>2026-05-02T09:06:55Z</time></trkpt><trkpt lat="46.06456496002955" lon="11.631594607967262"><ele>858.3999999999999</ele><time>2026-05-02T09:06:56Z</time></trkpt><trkpt lat="46.06458124386354" lon="11.631438761920133"><ele>857.1999999999999</ele><time>2026-05-02T09:06:57Z</time></trkpt><trkpt lat="46.06460329591252" lon="11.631282986869646"><ele>856.0</ele><time>2026-05-02T09:06:58Z</time></trkpt><trkpt lat="46.064627489793814" lon="11.631138187000522"><ele>855.0</ele><time>2026-05-02T09:06:59Z</time></trkpt><trkpt lat="46.0646483362886" lon="11.630997771032618"><ele>853.9999999999999</ele><time>2026-05-02T09:07:00Z</time></trkpt><trkpt lat="46.06466730803414" lon="11.630856613956876"><ele>853.0</ele><time>2026-05-02T09:07:01Z</time></trkpt><trkpt lat="46.064688396425666" lon="11.630723111053422"><ele>852.0</ele><time>2026-05-02T09:07:02Z</time></trkpt><trkpt lat="46.06470897532469" lon="11.630574991849093"><ele>851.0</ele><time>2026-05-02T09:07:03Z</time></trkpt><trkpt lat="46.064734006715746" lon="11.63041778547706"><ele>849.75</ele><time>2026-05-02T09:07:04Z</time></trkpt><trkpt lat="46.06475894486349" lon="11.63025970995995"><ele>848.5</ele><time>2026-05-02T09:07:05Z</time></trkpt><trkpt lat="46.064786552160854" lon="11.630094888684573"><ele>847.25</ele><time>2026-05-02T09:07:06Z</time></trkpt><trkpt lat="46.06483119365942" lon="11.629937745906902"><ele>846.0</ele><time>2026-05-02T09:07:07Z</time></trkpt><trkpt lat="46.06487825508616" lon="11.629787783814459"><ele>846.0</ele><time>2026-05-02T09:07:08Z</time></trkpt><trkpt lat="46.064920039009486" lon="11.629643723568627"><ele>846.0</ele><time>2026-05-02T09:07:09Z</time></trkpt><trkpt lat="46.064959488689404" lon="11.629500224181461"><ele>846.0</ele><time>2026-05-02T09:07:10Z</time></trkpt><trkpt lat="46.064998132726174" lon="11.629360116398537"><ele>846.0</ele><time>2026-05-02T09:07:11Z</time></trkpt><trkpt lat="46.065031503152305" lon="11.629220549214738"><ele>846.0</ele><time>2026-05-02T09:07:12Z</time></trkpt><trkpt lat="46.065054938852604" lon="11.629080245827463"><ele>845.0</ele><time>2026-05-02T09:07:13Z</time></trkpt><trkpt lat="46.06507987690559" lon="11.628958949652894"><ele>844.0</ele><time>2026-05-02T09:07:14Z</time></trkpt><trkpt lat="46.06511395366749" lon="11.628847403350282"><ele>843.0</ele><time>2026-05-02T09:07:15Z</time></trkpt><trkpt lat="46.065166699125875" lon="11.62875797536047"><ele>842.0</ele><time>2026-05-02T09:07:16Z</time></trkpt><trkpt lat="46.065234603750675" lon="11.628687177594975"><ele>841.0</ele><time>2026-05-02T09:07:17Z</time></trkpt><trkpt lat="46.06532166651325" lon="11.628645178776816"><ele>840.0</ele><time>2026-05-02T09:07:18Z</time></trkpt><trkpt lat="46.06539658354333" lon="11.628583855764896"><ele>840.0</ele><time>2026-05-02T09:07:19Z</time></trkpt><trkpt lat="46.065438493318894" lon="11.628502736704469"><ele>840.0</ele><time>2026-05-02T09:07:20Z</time></trkpt><trkpt lat="46.06544871303743" lon="11.628398013760085"><ele>840.0</ele><time>2026-05-02T09:07:21Z</time></trkpt><trkpt lat="46.06542854045496" lon="11.628301578754842"><ele>840.0</ele><time>2026-05-02T09:07:22Z</time></trkpt><trkpt lat="46.0653709769641" lon="11.628230250596447"><ele>840.0</ele><time>2026-05-02T09:07:23Z</time></trkpt><trkpt lat="46.06529189984254" lon="11.628200017283985"><ele>840.0</ele><time>2026-05-02T09:07:24Z</time></trkpt><trkpt lat="46.06521035548503" lon="11.628228168735891"><ele>840.0</ele><time>2026-05-02T09:07:25Z</time></trkpt><trkpt lat="46.06514783639922" lon="11.62830536255602"><ele>840.0</ele><time>2026-05-02T09:07:26Z</time></trkpt><trkpt lat="46.06512279224595" lon="11.628409865018558"><ele>840.0</ele><time>2026-05-02T09:07:27Z</time></trkpt><trkpt lat="46.06510835274483" lon="11.628523745023532"><ele>840.0</ele><time>2026-05-02T09:07:28Z</time></trkpt><trkpt lat="46.06507584672189" lon="11.628632385607135"><ele>840.0</ele><time>2026-05-02T09:07:29Z</time></trkpt><trkpt lat="46.065013662750246" lon="11.628729212808565"><ele>840.0</ele><time>2026-05-02T09:07:30Z</time></trkpt><trkpt lat="46.06493770980976" lon="11.62880872814364"><ele>839.8</ele><time>2026-05-02T09:07:31Z</time></trkpt><trkpt lat="46.06486261535869" lon="11.628899174302665"><ele>839.6</ele><time>2026-05-02T09:07:32Z</time></trkpt><trkpt lat="46.06479028084242" lon="11.628991487879928"><ele>839.4000000000001</ele><time>2026-05-02T09:07:33Z</time></trkpt><trkpt lat="46.06472117173577" lon="11.629073929437222"><ele>839.2</ele><time>2026-05-02T09:07:34Z</time></trkpt><trkpt lat="46.06465330705989" lon="11.629148985115942"><ele>839.0</ele><time>2026-05-02T09:07:35Z</time></trkpt><trkpt lat="46.06458817263479" lon="11.629222831965196"><ele>839.0000000000001</ele><time>2026-05-02T09:07:36Z</time></trkpt><trkpt lat="46.06453708802552" lon="11.629310001925322"><ele>839.0</ele><time>2026-05-02T09:07:37Z</time></trkpt><trkpt lat="46.06449650699695" lon="11.629400598340709"><ele>839.0</ele><time>2026-05-02T09:07:38Z</time></trkpt><trkpt lat="46.06447274670507" lon="11.62950138857266"><ele>839.0</ele><time>2026-05-02T09:07:39Z</time></trkpt><trkpt lat="46.06445863815897" lon="11.629598600718227"><ele>839.0000000000001</ele><time>2026-05-02T09:07:40.001Z</time></trkpt><trkpt lat="46.06444026845002" lon="11.629766885022566"><ele>839.0</ele><time>2026-05-02T09:07:42Z</time></trkpt><trkpt lat="46.06433980192155" lon="11.629807761637792"><ele>839.0</ele><time>2026-05-02T09:07:44.001Z</time></trkpt><trkpt lat="46.064279773931545" lon="11.629681199356266"><ele>839.0</ele><time>2026-05-02T09:07:46.001Z</time></trkpt><trkpt lat="46.06430390497849" lon="11.629507922924384"><ele>839.0</ele><time>2026-05-02T09:07:48.001Z</time></trkpt><trkpt lat="46.064330378996786" lon="11.62940952731883"><ele>839.0</ele><time>2026-05-02T09:07:49.001Z</time></trkpt><trkpt lat="46.06435432149496" lon="11.629298842243523"><ele>839.0</ele><time>2026-05-02T09:07:50.001Z</time></trkpt><trkpt lat="46.064386189434366" lon="11.629185007061013"><ele>839.0000000000001</ele><time>2026-05-02T09:07:51.001Z</time></trkpt><trkpt lat="46.064413177405086" lon="11.6290756840142"><ele>839.0</ele><time>2026-05-02T09:07:52.001Z</time></trkpt><trkpt lat="46.06443541044801" lon="11.628959285869701"><ele>839.0</ele><time>2026-05-02T09:07:53.001Z</time></trkpt><trkpt lat="46.06445233540993" lon="11.62882815029998"><ele>839.0</ele><time>2026-05-02T09:07:54.001Z</time></trkpt><trkpt lat="46.064470092403376" lon="11.628699563100726"><ele>839.0000000000001</ele><time>2026-05-02T09:07:55.001Z</time></trkpt><trkpt lat="46.06448962406957" lon="11.628576332421202"><ele>839.0</ele><time>2026-05-02T09:07:56.001Z</time></trkpt><trkpt lat="46.06451384333148" lon="11.62845198216094"><ele>836.6</ele><time>2026-05-02T09:07:57.001Z</time></trkpt><trkpt lat="46.06453816156911" lon="11.628336514500575"><ele>834.2</ele><time>2026-05-02T09:07:58.001Z</time></trkpt><trkpt lat="46.06456421745725" lon="11.628226396118352"><ele>831.8000000000001</ele><time>2026-05-02T09:07:59.001Z</time></trkpt><trkpt lat="46.064606870031746" lon="11.62810583368738"><ele>829.4000000000001</ele><time>2026-05-02T09:08:00.001Z</time></trkpt><trkpt lat="46.064667193913856" lon="11.627963942109586"><ele>827.0</ele><time>2026-05-02T09:08:01.001Z</time></trkpt><trkpt lat="46.06474548844859" lon="11.627809369696982"><ele>826.6666666666667</ele><time>2026-05-02T09:08:02.001Z</time></trkpt><trkpt lat="46.064843940163286" lon="11.627656632694508"><ele>826.3333333333333</ele><time>2026-05-02T09:08:03.001Z</time></trkpt><trkpt lat="46.06495480057142" lon="11.627506394545573"><ele>826.0</ele><time>2026-05-02T09:08:04.001Z</time></trkpt><trkpt lat="46.0650754372096" lon="11.627345537437092"><ele>826.0</ele><time>2026-05-02T09:08:05.001Z</time></trkpt><trkpt lat="46.06520416560359" lon="11.627174347939857"><ele>826.0</ele><time>2026-05-02T09:08:06.001Z</time></trkpt><trkpt lat="46.06533462923196" lon="11.627004457012196"><ele>826.0</ele><time>2026-05-02T09:08:07.001Z</time></trkpt><trkpt lat="46.06546967338952" lon="11.62683342923489"><ele>823.6666666666666</ele><time>2026-05-02T09:08:08.001Z</time></trkpt><trkpt lat="46.06560764671319" lon="11.626660062668753"><ele>821.3333333333333</ele><time>2026-05-02T09:08:09.001Z</time></trkpt><trkpt lat="46.06574800844133" lon="11.6264902695843"><ele>819.0</ele><time>2026-05-02T09:08:10.001Z</time></trkpt><trkpt lat="46.06590263380208" lon="11.626334055802964"><ele>819.0</ele><time>2026-05-02T09:08:11.001Z</time></trkpt><trkpt lat="46.06606407626267" lon="11.626194801202066"><ele>819.0</ele><time>2026-05-02T09:08:12.001Z</time></trkpt><trkpt lat="46.0662179608447" lon="11.626070854736279"><ele>819.0</ele><time>2026-05-02T09:08:13.001Z</time></trkpt><trkpt lat="46.06636493176301" lon="11.625962391900227"><ele>815.5</ele><time>2026-05-02T09:08:14.001Z</time></trkpt><trkpt lat="46.06649187592967" lon="11.625864680009377"><ele>812.0</ele><time>2026-05-02T09:08:15.001Z</time></trkpt><trkpt lat="46.06662663638367" lon="11.625827690741188"><ele>808.5</ele><time>2026-05-02T09:08:16.001Z</time></trkpt><trkpt lat="46.06675723295087" lon="11.625802342022912"><ele>805.0</ele><time>2026-05-02T09:08:17.001Z</time></trkpt><trkpt lat="46.066882971163565" lon="11.625869038617067"><ele>805.0</ele><time>2026-05-02T09:08:18.001Z</time></trkpt><trkpt lat="46.06698558384636" lon="11.625951080948543"><ele>805.0</ele><time>2026-05-02T09:08:19.001Z</time></trkpt><trkpt lat="46.067083765791445" lon="11.626075701697204"><ele>805.0</ele><time>2026-05-02T09:08:20Z</time></trkpt><trkpt lat="46.06719925644077" lon="11.626213952787541"><ele>805.0</ele><time>2026-05-02T09:08:21Z</time></trkpt><trkpt lat="46.06730902418816" lon="11.626378510482853"><ele>804.0</ele><time>2026-05-02T09:08:22Z</time></trkpt><trkpt lat="46.06742654180184" lon="11.62654022469504"><ele>803.0</ele><time>2026-05-02T09:08:23Z</time></trkpt><trkpt lat="46.067537919669206" lon="11.626693636964509"><ele>802.0</ele><time>2026-05-02T09:08:24Z</time></trkpt><trkpt lat="46.067639521057146" lon="11.626843939822951"><ele>808.5</ele><time>2026-05-02T09:08:25Z</time></trkpt><trkpt lat="46.067720227063944" lon="11.626999505506062"><ele>815.0</ele><time>2026-05-02T09:08:26Z</time></trkpt><trkpt lat="46.06778297959585" lon="11.627147891497774"><ele>821.5</ele><time>2026-05-02T09:08:27Z</time></trkpt><trkpt lat="46.0678468019452" lon="11.627264129577064"><ele>828.0</ele><time>2026-05-02T09:08:28Z</time></trkpt><trkpt lat="46.0679434924971" lon="11.62731258227534"><ele>828.0</ele><time>2026-05-02T09:08:29Z</time></trkpt><trkpt lat="46.06805081172849" lon="11.627288850596836"><ele>828.0</ele><time>2026-05-02T09:08:30Z</time></trkpt><trkpt lat="46.06812896923575" lon="11.627167955000736"><ele>828.0</ele><time>2026-05-02T09:08:31Z</time></trkpt><trkpt lat="46.06817906392502" lon="11.627039145725009"><ele>828.0</ele><time>2026-05-02T09:08:32Z</time></trkpt><trkpt lat="46.06823265587559" lon="11.62688778458634"><ele>828.0</ele><time>2026-05-02T09:08:33Z</time></trkpt><trkpt lat="46.06829443936425" lon="11.626726389113399"><ele>817.75</ele><time>2026-05-02T09:08:34Z</time></trkpt><trkpt lat="46.068360126278584" lon="11.626561173082798"><ele>807.5</ele><time>2026-05-02T09:08:35Z</time></trkpt><trkpt lat="46.06841921389574" lon="11.62640634055329"><ele>797.25</ele><time>2026-05-02T09:08:36Z</time></trkpt><trkpt lat="46.068471891729764" lon="11.626261146093142"><ele>787.0</ele><time>2026-05-02T09:08:37Z</time></trkpt><trkpt lat="46.06851872878158" lon="11.626128548165394"><ele>786.4999999999999</ele><time>2026-05-02T09:08:38Z</time></trkpt><trkpt lat="46.06856441341567" lon="11.626008373448773"><ele>786.0</ele><time>2026-05-02T09:08:39Z</time></trkpt><trkpt lat="46.068604059107244" lon="11.625896377564935"><ele>785.5</ele><time>2026-05-02T09:08:40Z</time></trkpt><trkpt lat="46.06863855966845" lon="11.62579387998735"><ele>785.0</ele><time>2026-05-02T09:08:41Z</time></trkpt><trkpt lat="46.06867236139727" lon="11.625698519476622"><ele>784.4999999999999</ele><time>2026-05-02T09:08:42Z</time></trkpt><trkpt lat="46.06870610104793" lon="11.62561030460284"><ele>784.0</ele><time>2026-05-02T09:08:43Z</time></trkpt><trkpt lat="46.068757713259245" lon="11.625468084971777"><ele>783.9999999999999</ele><time>2026-05-02T09:08:45Z</time></trkpt><trkpt lat="46.068714426433196" lon="11.625373735277359"><ele>784.0</ele><time>2026-05-02T09:08:48Z</time></trkpt><trkpt lat="46.06865452835452" lon="11.625463487494406"><ele>784.0</ele><time>2026-05-02T09:08:57Z</time></trkpt><trkpt lat="46.06873435378841" lon="11.625541077981467"><ele>784.0</ele><time>2026-05-02T09:09:03Z</time></trkpt><trkpt lat="46.06865870148247" lon="11.625566294410618"><ele>783.9999999999999</ele><time>2026-05-02T09:11:12Z</time></trkpt><trkpt lat="46.068599627778795" lon="11.625532305257513"><ele>784.0</ele><time>2026-05-02T09:11:17Z</time></trkpt><trkpt lat="46.06871440537454" lon="11.62559637122762"><ele>784.0</ele><time>2026-05-02T09:11:19Z</time></trkpt><trkpt lat="46.068604492011445" lon="11.625503503109286"><ele>784.0</ele><time>2026-05-02T09:11:37Z</time></trkpt></trkseg><trkseg><trkpt lat="46.06849413506732" lon="11.625383582466092"><ele>784.0</ele><time>2026-05-02T10:14:41.662Z</time></trkpt><trkpt lat="46.0685648763061" lon="11.625208506418527"><ele>784.0</ele><time>2026-05-02T10:14:44.004Z</time></trkpt><trkpt lat="46.068637437280756" lon="11.625276647036277"><ele>784.0</ele><time>2026-05-02T10:15:08Z</time></trkpt><trkpt lat="46.06863249411834" lon="11.625370948262653"><ele>784.0</ele><time>2026-05-02T10:15:10Z</time></trkpt><trkpt lat="46.06860619035915" lon="11.62554250194596"><ele>784.0</ele><time>2026-05-02T10:15:13Z</time></trkpt><trkpt lat="46.06860078412891" lon="11.625650907473046"><ele>784.0</ele><time>2026-05-02T10:15:16Z</time></trkpt><trkpt lat="46.06862465991576" lon="11.625737208621414"><ele>784.0</ele><time>2026-05-02T10:15:40Z</time></trkpt><trkpt lat="46.068580654538906" lon="11.625884997038202"><ele>784.0</ele><time>2026-05-02T10:15:42Z</time></trkpt><trkpt lat="46.06853850770299" lon="11.626002146415264"><ele>784.0</ele><time>2026-05-02T10:15:43Z</time></trkpt><trkpt lat="46.06849321718167" lon="11.62612225996656"><ele>784.0</ele><time>2026-05-02T10:15:44Z</time></trkpt><trkpt lat="46.06844055106686" lon="11.626258481152497"><ele>784.75</ele><time>2026-05-02T10:15:45Z</time></trkpt><trkpt lat="46.068379541146655" lon="11.626416519785899"><ele>785.5</ele><time>2026-05-02T10:15:46Z</time></trkpt><trkpt lat="46.06831847908858" lon="11.626572097439967"><ele>786.25</ele><time>2026-05-02T10:15:47Z</time></trkpt><trkpt lat="46.0682543166142" lon="11.626731655422006"><ele>787.0</ele><time>2026-05-02T10:15:48Z</time></trkpt><trkpt lat="46.068197238428624" lon="11.62692189263552"><ele>795.2</ele><time>2026-05-02T10:15:49Z</time></trkpt><trkpt lat="46.06813818487934" lon="11.627078472383111"><ele>803.4000000000001</ele><time>2026-05-02T10:15:50Z</time></trkpt><trkpt lat="46.068054017133086" lon="11.6272110510074"><ele>811.5999999999999</ele><time>2026-05-02T10:15:51Z</time></trkpt><trkpt lat="46.06797230310677" lon="11.627255700153775"><ele>819.8</ele><time>2026-05-02T10:15:52Z</time></trkpt><trkpt lat="46.067874674759494" lon="11.627220313060006"><ele>828.0</ele><time>2026-05-02T10:15:53Z</time></trkpt><trkpt lat="46.06778097832467" lon="11.627129725863677"><ele>827.5</ele><time>2026-05-02T10:15:54Z</time></trkpt><trkpt lat="46.06773289090639" lon="11.626962955750939"><ele>827.0</ele><time>2026-05-02T10:15:55Z</time></trkpt><trkpt lat="46.067647307829006" lon="11.626796812424145"><ele>826.5</ele><time>2026-05-02T10:15:56Z</time></trkpt><trkpt lat="46.06755339049643" lon="11.626649162914998"><ele>826.0</ele><time>2026-05-02T10:15:57Z</time></trkpt><trkpt lat="46.067439676791125" lon="11.626499465627871"><ele>826.0</ele><time>2026-05-02T10:15:58Z</time></trkpt><trkpt lat="46.06732076621605" lon="11.62634064260399"><ele>826.0</ele><time>2026-05-02T10:15:59Z</time></trkpt><trkpt lat="46.067207391805" lon="11.62618444676758"><ele>826.0</ele><time>2026-05-02T10:16:00Z</time></trkpt><trkpt lat="46.06709011955654" lon="11.626023839853033"><ele>820.75</ele><time>2026-05-02T10:16:01Z</time></trkpt><trkpt lat="46.06698797381773" lon="11.625893104527329"><ele>815.5</ele><time>2026-05-02T10:16:02Z</time></trkpt><trkpt lat="46.06688065565529" lon="11.625809673755334"><ele>810.25</ele><time>2026-05-02T10:16:03Z</time></trkpt><trkpt lat="46.06675759153251" lon="11.625756790725411"><ele>805.0</ele><time>2026-05-02T10:16:04Z</time></trkpt><trkpt lat="46.06662220860973" lon="11.625758616756247"><ele>803.6666666666666</ele><time>2026-05-02T10:16:05Z</time></trkpt><trkpt lat="46.06648198964839" lon="11.625812884299709"><ele>802.3333333333333</ele><time>2026-05-02T10:16:06Z</time></trkpt><trkpt lat="46.06633595534198" lon="11.625917841713202"><ele>801.0</ele><time>2026-05-02T10:16:07Z</time></trkpt><trkpt lat="46.066186859151145" lon="11.626056831226935"><ele>804.3333333333333</ele><time>2026-05-02T10:16:08Z</time></trkpt><trkpt lat="46.06603536038447" lon="11.626199418294059"><ele>807.6666666666666</ele><time>2026-05-02T10:16:09Z</time></trkpt><trkpt lat="46.06587000802126" lon="11.626332308397812"><ele>811.0</ele><time>2026-05-02T10:16:10.001Z</time></trkpt><trkpt lat="46.06571554428233" lon="11.626490526696143"><ele>811.0</ele><time>2026-05-02T10:16:11.001Z</time></trkpt><trkpt lat="46.06556767745488" lon="11.626662369818254"><ele>811.0</ele><time>2026-05-02T10:16:12.001Z</time></trkpt><trkpt lat="46.06541881523686" lon="11.626844104632214"><ele>811.0</ele><time>2026-05-02T10:16:13.001Z</time></trkpt><trkpt lat="46.06528596893735" lon="11.627024087833801"><ele>816.0</ele><time>2026-05-02T10:16:14.001Z</time></trkpt><trkpt lat="46.06515860545661" lon="11.6271941177594"><ele>821.0</ele><time>2026-05-02T10:16:15.001Z</time></trkpt><trkpt lat="46.065052880329404" lon="11.62733641273692"><ele>826.0</ele><time>2026-05-02T10:16:16.001Z</time></trkpt><trkpt lat="46.064958157113104" lon="11.627469120559425"><ele>826.25</ele><time>2026-05-02T10:16:17.001Z</time></trkpt><trkpt lat="46.06486640142246" lon="11.627597257071805"><ele>826.5</ele><time>2026-05-02T10:16:18.001Z</time></trkpt><trkpt lat="46.06476934845736" lon="11.627717954454635"><ele>826.75</ele><time>2026-05-02T10:16:19.001Z</time></trkpt><trkpt lat="46.06468362680527" lon="11.627850595945434"><ele>827.0</ele><time>2026-05-02T10:16:20.001Z</time></trkpt><trkpt lat="46.06460262412259" lon="11.627994887788487"><ele>827.0</ele><time>2026-05-02T10:16:21.001Z</time></trkpt><trkpt lat="46.06453651602396" lon="11.628155302435676"><ele>827.0</ele><time>2026-05-02T10:16:22.001Z</time></trkpt><trkpt lat="46.06449466661754" lon="11.62832540831922"><ele>827.0</ele><time>2026-05-02T10:16:23.001Z</time></trkpt><trkpt lat="46.06446838877393" lon="11.628508968828013"><ele>827.0</ele><time>2026-05-02T10:16:24.001Z</time></trkpt><trkpt lat="46.06444788602192" lon="11.628690551776991"><ele>830.0</ele><time>2026-05-02T10:16:25.001Z</time></trkpt><trkpt lat="46.06443183824896" lon="11.628868478854452"><ele>833.0</ele><time>2026-05-02T10:16:26.001Z</time></trkpt><trkpt lat="46.06440675159615" lon="11.629048952569596"><ele>836.0</ele><time>2026-05-02T10:16:27.001Z</time></trkpt><trkpt lat="46.06436512319506" lon="11.629222692314483"><ele>839.0</ele><time>2026-05-02T10:16:28.001Z</time></trkpt><trkpt lat="46.06431900848924" lon="11.629394262882494"><ele>840.4000000000001</ele><time>2026-05-02T10:16:29.001Z</time></trkpt><trkpt lat="46.064270224919305" lon="11.629560746040855"><ele>841.8</ele><time>2026-05-02T10:16:30.001Z</time></trkpt><trkpt lat="46.06424878951698" lon="11.629713959753607"><ele>843.2</ele><time>2026-05-02T10:16:31.001Z</time></trkpt><trkpt lat="46.064273449001455" lon="11.62981691597126"><ele>844.5999999999999</ele><time>2026-05-02T10:16:32.001Z</time></trkpt><trkpt lat="46.06437421807476" lon="11.629879477523572"><ele>846.0</ele><time>2026-05-02T10:16:34.001Z</time></trkpt><trkpt lat="46.06446835746111" lon="11.629773863769591"><ele>846.0</ele><time>2026-05-02T10:16:36.001Z</time></trkpt><trkpt lat="46.064487216902215" lon="11.62966812218167"><ele>846.0</ele><time>2026-05-02T10:16:37.001Z</time></trkpt><trkpt lat="46.06448743896697" lon="11.62954223566014"><ele>846.0</ele><time>2026-05-02T10:16:38.001Z</time></trkpt><trkpt lat="46.0645072229642" lon="11.629420625367398"><ele>846.0</ele><time>2026-05-02T10:16:39.001Z</time></trkpt><trkpt lat="46.064549811673565" lon="11.629311474084"><ele>846.0</ele><time>2026-05-02T10:16:40.001Z</time></trkpt><trkpt lat="46.064609453683374" lon="11.629258248773295"><ele>846.0</ele><time>2026-05-02T10:16:41.001Z</time></trkpt><trkpt lat="46.06467962167092" lon="11.629169340034961"><ele>844.5999999999999</ele><time>2026-05-02T10:16:44.001Z</time></trkpt><trkpt lat="46.06474269911792" lon="11.629098960794929"><ele>843.2</ele><time>2026-05-02T10:16:45.001Z</time></trkpt><trkpt lat="46.0648123309207" lon="11.628991315786955"><ele>841.8</ele><time>2026-05-02T10:16:46.001Z</time></trkpt><trkpt lat="46.06490213241725" lon="11.628894753305136"><ele>840.4000000000001</ele><time>2026-05-02T10:16:47.001Z</time></trkpt><trkpt lat="46.06498746758673" lon="11.628788536579961"><ele>839.0</ele><time>2026-05-02T10:16:48.001Z</time></trkpt><trkpt lat="46.065073666987445" lon="11.628693973796105"><ele>839.1666666666667</ele><time>2026-05-02T10:16:49.001Z</time></trkpt><trkpt lat="46.065140561198845" lon="11.628599249426292"><ele>839.3333333333334</ele><time>2026-05-02T10:16:50.001Z</time></trkpt><trkpt lat="46.06517061108609" lon="11.628465111770486"><ele>839.5</ele><time>2026-05-02T10:16:51.001Z</time></trkpt><trkpt lat="46.06518353404354" lon="11.6283384123819"><ele>839.6666666666667</ele><time>2026-05-02T10:16:52Z</time></trkpt><trkpt lat="46.065217271530884" lon="11.628255262676683"><ele>839.8333333333334</ele><time>2026-05-02T10:16:53Z</time></trkpt><trkpt lat="46.06528368596232" lon="11.628219071558973"><ele>840.0</ele><time>2026-05-02T10:16:54Z</time></trkpt><trkpt lat="46.06535976306871" lon="11.62824317327759"><ele>840.0</ele><time>2026-05-02T10:16:55Z</time></trkpt><trkpt lat="46.065416480506634" lon="11.628328669004132"><ele>840.0</ele><time>2026-05-02T10:16:56Z</time></trkpt><trkpt lat="46.06542939933435" lon="11.628440994604212"><ele>840.0</ele><time>2026-05-02T10:16:57Z</time></trkpt><trkpt lat="46.065395818911085" lon="11.628550790150404"><ele>840.0</ele><time>2026-05-02T10:16:58Z</time></trkpt><trkpt lat="46.06532697382499" lon="11.628628025222618"><ele>840.0</ele><time>2026-05-02T10:16:59Z</time></trkpt><trkpt lat="46.06523031573285" lon="11.628653569900626"><ele>840.0</ele><time>2026-05-02T10:17:00Z</time></trkpt><trkpt lat="46.06513936255009" lon="11.628730074573273"><ele>843.25</ele><time>2026-05-02T10:17:01Z</time></trkpt><trkpt lat="46.06506382609008" lon="11.628837802051981"><ele>846.5</ele><time>2026-05-02T10:17:02Z</time></trkpt><trkpt lat="46.065025180548425" lon="11.628999364837755"><ele>849.75</ele><time>2026-05-02T10:17:03Z</time></trkpt><trkpt lat="46.06501634897496" lon="11.629167980964434"><ele>853.0</ele><time>2026-05-02T10:17:04Z</time></trkpt><trkpt lat="46.06499149588599" lon="11.629333298050808"><ele>851.25</ele><time>2026-05-02T10:17:05Z</time></trkpt><trkpt lat="46.064946094994944" lon="11.629501947998016"><ele>849.5</ele><time>2026-05-02T10:17:06Z</time></trkpt><trkpt lat="46.06488881836993" lon="11.629678252317127"><ele>847.75</ele><time>2026-05-02T10:17:07Z</time></trkpt><trkpt lat="46.06483788936408" lon="11.629860950900278"><ele>846.0</ele><time>2026-05-02T10:17:08Z</time></trkpt><trkpt lat="46.06478425319423" lon="11.630041266982557"><ele>846.0</ele><time>2026-05-02T10:17:09Z</time></trkpt><trkpt lat="46.06474094578405" lon="11.630230951338367"><ele>846.0</ele><time>2026-05-02T10:17:10Z</time></trkpt><trkpt lat="46.06470914455818" lon="11.630418593170885"><ele>846.0</ele><time>2026-05-02T10:17:11Z</time></trkpt><trkpt lat="46.06468078433316" lon="11.630610948259251"><ele>846.0</ele><time>2026-05-02T10:17:12Z</time></trkpt><trkpt lat="46.06465560061277" lon="11.630802132466506"><ele>847.25</ele><time>2026-05-02T10:17:13Z</time></trkpt><trkpt lat="46.06462938893266" lon="11.630994058707866"><ele>848.5</ele><time>2026-05-02T10:17:14Z</time></trkpt><trkpt lat="46.064599509446744" lon="11.631188137079803"><ele>849.75</ele><time>2026-05-02T10:17:15Z</time></trkpt><trkpt lat="46.06457531927462" lon="11.631378547203896"><ele>851.0</ele><time>2026-05-02T10:17:16Z</time></trkpt><trkpt lat="46.064551765410286" lon="11.631556146426883"><ele>851.8333333333334</ele><time>2026-05-02T10:17:17Z</time></trkpt><trkpt lat="46.06453450411498" lon="11.631709182262673"><ele>852.6666666666667</ele><time>2026-05-02T10:17:18Z</time></trkpt><trkpt lat="46.06451163827511" lon="11.631843651961267"><ele>853.5</ele><time>2026-05-02T10:17:19Z</time></trkpt><trkpt lat="46.064486020882825" lon="11.631964469119245"><ele>854.3333333333333</ele><time>2026-05-02T10:17:20Z</time></trkpt><trkpt lat="46.06447397786919" lon="11.632070402922722"><ele>855.1666666666666</ele><time>2026-05-02T10:17:21Z</time></trkpt><trkpt lat="46.06446127959291" lon="11.632172463208866"><ele>856.0</ele><time>2026-05-02T10:17:22Z</time></trkpt><trkpt lat="46.06444483603016" lon="11.632267519063882"><ele>856.8571428571429</ele><time>2026-05-02T10:17:23Z</time></trkpt><trkpt lat="46.06443223330044" lon="11.632362725146878"><ele>857.7142857142858</ele><time>2026-05-02T10:17:24Z</time></trkpt><trkpt lat="46.06444601191127" lon="11.632462814180041"><ele>858.5714285714287</ele><time>2026-05-02T10:17:25Z</time></trkpt><trkpt lat="46.06448605664442" lon="11.632558232739054"><ele>859.4285714285714</ele><time>2026-05-02T10:17:26Z</time></trkpt><trkpt lat="46.06452372359757" lon="11.632644523022112"><ele>860.2857142857142</ele><time>2026-05-02T10:17:27Z</time></trkpt><trkpt lat="46.06455112203931" lon="11.632733336218175"><ele>861.1428571428572</ele><time>2026-05-02T10:17:28Z</time></trkpt><trkpt lat="46.064586566405374" lon="11.632825188443372"><ele>862.0</ele><time>2026-05-02T10:17:29Z</time></trkpt><trkpt lat="46.064624502268856" lon="11.632920318594874"><ele>862.6</ele><time>2026-05-02T10:17:30Z</time></trkpt><trkpt lat="46.064681104673895" lon="11.63305006812488"><ele>863.2</ele><time>2026-05-02T10:17:32Z</time></trkpt><trkpt lat="46.064729202592076" lon="11.63311065930822"><ele>863.8</ele><time>2026-05-02T10:17:34Z</time></trkpt><trkpt lat="46.06479413638116" lon="11.63318458069892"><ele>864.4</ele><time>2026-05-02T10:17:36Z</time></trkpt><trkpt lat="46.06489012388125" lon="11.633269666277627"><ele>865.0</ele><time>2026-05-02T10:17:38Z</time></trkpt><trkpt lat="46.065013005345214" lon="11.633329837271887"><ele>865.8333333333333</ele><time>2026-05-02T10:17:40Z</time></trkpt><trkpt lat="46.06507652228797" lon="11.633376364449218"><ele>866.6666666666666</ele><time>2026-05-02T10:17:41Z</time></trkpt><trkpt lat="46.06513811147359" lon="11.633439489051938"><ele>867.5</ele><time>2026-05-02T10:17:42Z</time></trkpt><trkpt lat="46.06520642015908" lon="11.633504821318077"><ele>868.3333333333333</ele><time>2026-05-02T10:17:43Z</time></trkpt><trkpt lat="46.06527904453148" lon="11.63358338588549"><ele>869.1666666666666</ele><time>2026-05-02T10:17:44Z</time></trkpt><trkpt lat="46.06534448562946" lon="11.633665145756856"><ele>870.0</ele><time>2026-05-02T10:17:45Z</time></trkpt><trkpt lat="46.06541246349545" lon="11.633750226143833"><ele>869.2</ele><time>2026-05-02T10:17:46Z</time></trkpt><trkpt lat="46.06547768740868" lon="11.633839893423907"><ele>868.4</ele><time>2026-05-02T10:17:47Z</time></trkpt><trkpt lat="46.06557207135564" lon="11.633917578723253"><ele>867.5999999999999</ele><time>2026-05-02T10:17:48Z</time></trkpt><trkpt lat="46.065640917288626" lon="11.634028764779798"><ele>866.8</ele><time>2026-05-02T10:17:49Z</time></trkpt><trkpt lat="46.06571579031878" lon="11.634107636712548"><ele>866.0</ele><time>2026-05-02T10:17:50Z</time></trkpt><trkpt lat="46.06578091772332" lon="11.634190943523938"><ele>866.0</ele><time>2026-05-02T10:17:51Z</time></trkpt><trkpt lat="46.065849348386244" lon="11.634283121106456"><ele>865.9999999999999</ele><time>2026-05-02T10:17:52Z</time></trkpt><trkpt lat="46.06592091209221" lon="11.634391867350002"><ele>865.9999999999999</ele><time>2026-05-02T10:17:53Z</time></trkpt><trkpt lat="46.06599929382372" lon="11.634513689769886"><ele>866.0</ele><time>2026-05-02T10:17:54Z</time></trkpt><trkpt lat="46.06607845553469" lon="11.634650161848127"><ele>866.0</ele><time>2026-05-02T10:17:55Z</time></trkpt><trkpt lat="46.06617723642571" lon="11.634778445137986"><ele>868.5</ele><time>2026-05-02T10:17:56Z</time></trkpt><trkpt lat="46.066241694131115" lon="11.634940144630386"><ele>871.0</ele><time>2026-05-02T10:17:57Z</time></trkpt><trkpt lat="46.066284314237926" lon="11.635137648301413"><ele>873.5</ele><time>2026-05-02T10:17:58Z</time></trkpt><trkpt lat="46.06632622923377" lon="11.635337468798975"><ele>876.0</ele><time>2026-05-02T10:17:59Z</time></trkpt><trkpt lat="46.066367912008005" lon="11.635532740031008"><ele>884.6666666666667</ele><time>2026-05-02T10:18:00Z</time></trkpt><trkpt lat="46.066420373713036" lon="11.63573528225957"><ele>893.3333333333334</ele><time>2026-05-02T10:18:01Z</time></trkpt><trkpt lat="46.06646715640091" lon="11.635946039136421"><ele>902.0</ele><time>2026-05-02T10:18:02Z</time></trkpt><trkpt lat="46.066506917560055" lon="11.636162319237275"><ele>907.75</ele><time>2026-05-02T10:18:03Z</time></trkpt><trkpt lat="46.06656371682128" lon="11.636366355273188"><ele>913.5</ele><time>2026-05-02T10:18:04Z</time></trkpt><trkpt lat="46.06661886565743" lon="11.636553830967522"><ele>919.25</ele><time>2026-05-02T10:18:05Z</time></trkpt><trkpt lat="46.06667023333" lon="11.636725992383568"><ele>925.0</ele><time>2026-05-02T10:18:06Z</time></trkpt><trkpt lat="46.06671721825506" lon="11.636883159202336"><ele>917.4</ele><time>2026-05-02T10:18:07Z</time></trkpt><trkpt lat="46.0667722301966" lon="11.637025523581109"><ele>909.8</ele><time>2026-05-02T10:18:08Z</time></trkpt><trkpt lat="46.06680616356845" lon="11.637173552790749"><ele>902.2</ele><time>2026-05-02T10:18:09Z</time></trkpt><trkpt lat="46.066841082993584" lon="11.637309688515975"><ele>894.6</ele><time>2026-05-02T10:18:10Z</time></trkpt><trkpt lat="46.066871528781775" lon="11.637453343317524"><ele>887.0</ele><time>2026-05-02T10:18:11Z</time></trkpt><trkpt lat="46.06690318586439" lon="11.637595063066348"><ele>887.0</ele><time>2026-05-02T10:18:12Z</time></trkpt><trkpt lat="46.066930283644126" lon="11.637740741467642"><ele>887.0</ele><time>2026-05-02T10:18:13.001Z</time></trkpt><trkpt lat="46.0669602287768" lon="11.637880992665105"><ele>887.0</ele><time>2026-05-02T10:18:14.001Z</time></trkpt><trkpt lat="46.06698923216533" lon="11.638009282147378"><ele>887.0</ele><time>2026-05-02T10:18:15.001Z</time></trkpt><trkpt lat="46.06701123179284" lon="11.638129818862188"><ele>887.0</ele><time>2026-05-02T10:18:16.001Z</time></trkpt><trkpt lat="46.06702623558342" lon="11.638242537052886"><ele>890.1666666666667</ele><time>2026-05-02T10:18:17.001Z</time></trkpt><trkpt lat="46.067035407744164" lon="11.638341796663406"><ele>893.3333333333334</ele><time>2026-05-02T10:18:18.001Z</time></trkpt><trkpt lat="46.06704738787269" lon="11.638473365167703"><ele>896.5</ele><time>2026-05-02T10:18:20.001Z</time></trkpt><trkpt lat="46.067080968987256" lon="11.638564776637944"><ele>899.6666666666667</ele><time>2026-05-02T10:18:39.001Z</time></trkpt><trkpt lat="46.067109305310254" lon="11.638712119957159"><ele>902.8333333333334</ele><time>2026-05-02T10:18:41.001Z</time></trkpt><trkpt lat="46.06714269844475" lon="11.638834906282632"><ele>906.0</ele><time>2026-05-02T10:18:42.001Z</time></trkpt><trkpt lat="46.067177960931495" lon="11.638969937697038"><ele>910.5</ele><time>2026-05-02T10:18:43.001Z</time></trkpt><trkpt lat="46.06721568094073" lon="11.639139833849752"><ele>915.0</ele><time>2026-05-02T10:18:44.001Z</time></trkpt><trkpt lat="46.06725561095379" lon="11.639331731742633"><ele>919.5</ele><time>2026-05-02T10:18:45.001Z</time></trkpt><trkpt lat="46.0672956851698" lon="11.639524363777479"><ele>924.0</ele><time>2026-05-02T10:18:46.001Z</time></trkpt><trkpt lat="46.06733907439497" lon="11.63973905472501"><ele>929.0</ele><time>2026-05-02T10:18:47.001Z</time></trkpt><trkpt lat="46.06738135904192" lon="11.639970940644455"><ele>934.0</ele><time>2026-05-02T10:18:48.001Z</time></trkpt><trkpt lat="46.06742133456397" lon="11.640189748177919"><ele>939.0</ele><time>2026-05-02T10:18:49.001Z</time></trkpt><trkpt lat="46.06746916929824" lon="11.640404048977404"><ele>918.6666666666667</ele><time>2026-05-02T10:18:50.001Z</time></trkpt><trkpt lat="46.0675083102662" lon="11.640627558784846"><ele>898.3333333333334</ele><time>2026-05-02T10:18:51.001Z</time></trkpt><trkpt lat="46.06753335637351" lon="11.64085466723713"><ele>878.0</ele><time>2026-05-02T10:18:52.001Z</time></trkpt><trkpt lat="46.06754537418031" lon="11.641090422568022"><ele>880.0</ele><time>2026-05-02T10:18:53.001Z</time></trkpt><trkpt lat="46.06753763635751" lon="11.641339300321281"><ele>882.0</ele><time>2026-05-02T10:18:54.001Z</time></trkpt><trkpt lat="46.06753597858211" lon="11.641591945402444"><ele>884.0</ele><time>2026-05-02T10:18:55.001Z</time></trkpt><trkpt lat="46.067545268864194" lon="11.641842319077915"><ele>884.6666666666667</ele><time>2026-05-02T10:18:56.001Z</time></trkpt><trkpt lat="46.06758283573392" lon="11.642097538585256"><ele>885.3333333333333</ele><time>2026-05-02T10:18:57.001Z</time></trkpt><trkpt lat="46.067635550269145" lon="11.642343546349656"><ele>886.0</ele><time>2026-05-02T10:18:58Z</time></trkpt><trkpt lat="46.06766631257634" lon="11.642600936166431"><ele>886.6666666666666</ele><time>2026-05-02T10:18:59Z</time></trkpt><trkpt lat="46.06766261625853" lon="11.642864810595032"><ele>887.3333333333333</ele><time>2026-05-02T10:19:00Z</time></trkpt><trkpt lat="46.06765626475868" lon="11.643131830602048"><ele>888.0</ele><time>2026-05-02T10:19:01Z</time></trkpt><trkpt lat="46.06767398095004" lon="11.643405032391414"><ele>889.6666666666667</ele><time>2026-05-02T10:19:02Z</time></trkpt><trkpt lat="46.06771702261539" lon="11.64367601473366"><ele>891.3333333333334</ele><time>2026-05-02T10:19:03Z</time></trkpt><trkpt lat="46.067765724409185" lon="11.643945727674163"><ele>893.0</ele><time>2026-05-02T10:19:04Z</time></trkpt><trkpt lat="46.06780834737154" lon="11.644221068183741"><ele>895.3333333333334</ele><time>2026-05-02T10:19:05Z</time></trkpt><trkpt lat="46.067848994077195" lon="11.64449819496857"><ele>897.6666666666667</ele><time>2026-05-02T10:19:06Z</time></trkpt><trkpt lat="46.06790970362504" lon="11.644764706735298"><ele>900.0</ele><time>2026-05-02T10:19:07Z</time></trkpt><trkpt lat="46.0679891249091" lon="11.645015544129924"><ele>900.0</ele><time>2026-05-02T10:19:08Z</time></trkpt><trkpt lat="46.06806694418868" lon="11.645235662793585"><ele>900.0</ele><time>2026-05-02T10:19:09Z</time></trkpt><trkpt lat="46.068125060571504" lon="11.64539916962477"><ele>900.0</ele><time>2026-05-02T10:19:10Z</time></trkpt><trkpt lat="46.068171806447864" lon="11.645528019548461"><ele>900.0</ele><time>2026-05-02T10:19:11Z</time></trkpt><trkpt lat="46.068208730366564" lon="11.645638132208335"><ele>900.3333333333334</ele><time>2026-05-02T10:19:12Z</time></trkpt><trkpt lat="46.06823063705763" lon="11.645726905639798"><ele>900.6666666666667</ele><time>2026-05-02T10:19:13Z</time></trkpt><trkpt lat="46.068256459499835" lon="11.645829185134469"><ele>901.0</ele><time>2026-05-02T10:19:15Z</time></trkpt><trkpt lat="46.06822730835616" lon="11.645698256711196"><ele>901.3333333333334</ele><time>2026-05-02T10:19:21Z</time></trkpt><trkpt lat="46.06821733600478" lon="11.645590677794242"><ele>901.6666666666667</ele><time>2026-05-02T10:19:22Z</time></trkpt><trkpt lat="46.06817418385261" lon="11.645482960388918"><ele>902.0</ele><time>2026-05-02T10:19:23Z</time></trkpt><trkpt lat="46.068131480779435" lon="11.645370207122099"><ele>901.5</ele><time>2026-05-02T10:19:24Z</time></trkpt><trkpt lat="46.06808182302016" lon="11.645232890952839"><ele>901.0</ele><time>2026-05-02T10:19:25Z</time></trkpt><trkpt lat="46.068035114878555" lon="11.645084708120601"><ele>900.5</ele><time>2026-05-02T10:19:26Z</time></trkpt><trkpt lat="46.06798344782447" lon="11.644927050653436"><ele>900.0</ele><time>2026-05-02T10:19:27Z</time></trkpt><trkpt lat="46.0679298708818" lon="11.64475726685785"><ele>900.0</ele><time>2026-05-02T10:19:28Z</time></trkpt><trkpt lat="46.06788848710993" lon="11.644572232390225"><ele>900.0</ele><time>2026-05-02T10:19:29Z</time></trkpt><trkpt lat="46.06785660643993" lon="11.644392954681125"><ele>900.0</ele><time>2026-05-02T10:19:30Z</time></trkpt><trkpt lat="46.067830377330324" lon="11.644214859661586"><ele>900.0</ele><time>2026-05-02T10:19:31Z</time></trkpt><trkpt lat="46.06780517158694" lon="11.644025976440808"><ele>898.25</ele><time>2026-05-02T10:19:32Z</time></trkpt><trkpt lat="46.067776469668395" lon="11.643841607109039"><ele>896.5</ele><time>2026-05-02T10:19:33Z</time></trkpt><trkpt lat="46.067747350974344" lon="11.643674169459741"><ele>894.75</ele><time>2026-05-02T10:19:34Z</time></trkpt><trkpt lat="46.06772415666982" lon="11.64350599536815"><ele>893.0</ele><time>2026-05-02T10:19:35Z</time></trkpt><trkpt lat="46.067703993197185" lon="11.643337345452439"><ele>891.75</ele><time>2026-05-02T10:19:36Z</time></trkpt><trkpt lat="46.06769220217454" lon="11.643167946870058"><ele>890.5</ele><time>2026-05-02T10:19:37Z</time></trkpt><trkpt lat="46.06768699318443" lon="11.64299335385841"><ele>889.25</ele><time>2026-05-02T10:19:38Z</time></trkpt><trkpt lat="46.067691443444694" lon="11.642811880417321"><ele>888.0</ele><time>2026-05-02T10:19:39Z</time></trkpt><trkpt lat="46.06769183205726" lon="11.642612566654126"><ele>887.3333333333333</ele><time>2026-05-02T10:19:40Z</time></trkpt><trkpt lat="46.06767582415494" lon="11.642370264497481"><ele>886.6666666666666</ele><time>2026-05-02T10:19:41Z</time></trkpt><trkpt lat="46.067634379272384" lon="11.64209496068773"><ele>886.0</ele><time>2026-05-02T10:19:42Z</time></trkpt><trkpt lat="46.06758733417247" lon="11.64184636986244"><ele>885.5</ele><time>2026-05-02T10:19:43Z</time></trkpt><trkpt lat="46.0675655641796" lon="11.641614459912928"><ele>885.0</ele><time>2026-05-02T10:19:44Z</time></trkpt><trkpt lat="46.067572410485" lon="11.641399254037294"><ele>884.5</ele><time>2026-05-02T10:19:45Z</time></trkpt><trkpt lat="46.067585170737175" lon="11.64120678062896"><ele>884.0</ele><time>2026-05-02T10:19:46Z</time></trkpt><trkpt lat="46.06758344232589" lon="11.64103942212197"><ele>884.0000000000001</ele><time>2026-05-02T10:19:47Z</time></trkpt><trkpt lat="46.06757970919683" lon="11.640905684464542"><ele>884.0</ele><time>2026-05-02T10:19:48Z</time></trkpt><trkpt lat="46.067574337585114" lon="11.640810621670854"><ele>884.0</ele><time>2026-05-02T10:19:49Z</time></trkpt><trkpt lat="46.0676384851816" lon="11.640891753303428"><ele>884.0</ele><time>2026-05-02T10:19:55Z</time></trkpt><trkpt lat="46.06764035639779" lon="11.641055400147817"><ele>884.0000000000001</ele><time>2026-05-02T10:19:57Z</time></trkpt><trkpt lat="46.0676427920086" lon="11.641161950455064"><ele>884.0</ele><time>2026-05-02T10:19:58Z</time></trkpt><trkpt lat="46.06764139080225" lon="11.6412844853168"><ele>884.0</ele><time>2026-05-02T10:19:59Z</time></trkpt><trkpt lat="46.06764320937913" lon="11.64141175503264"><ele>884.0000000000001</ele><time>2026-05-02T10:20:00Z</time></trkpt><trkpt lat="46.06765508030509" lon="11.641545993056573"><ele>884.0000000000001</ele><time>2026-05-02T10:20:01Z</time></trkpt><trkpt lat="46.06767988677097" lon="11.641698711580228"><ele>884.0</ele><time>2026-05-02T10:20:02Z</time></trkpt><trkpt lat="46.06771415513729" lon="11.641857096571293"><ele>884.0</ele><time>2026-05-02T10:20:03Z</time></trkpt><trkpt lat="46.06776199522454" lon="11.642012182685036"><ele>884.4000000000001</ele><time>2026-05-02T10:20:04Z</time></trkpt><trkpt lat="46.067811449906344" lon="11.64216089558123"><ele>884.8000000000001</ele><time>2026-05-02T10:20:05Z</time></trkpt><trkpt lat="46.06784901171059" lon="11.642301760362303"><ele>885.1999999999999</ele><time>2026-05-02T10:20:06Z</time></trkpt><trkpt lat="46.067853739134705" lon="11.642450217618604"><ele>885.5999999999999</ele><time>2026-05-02T10:20:07Z</time></trkpt><trkpt lat="46.06788228342352" lon="11.642585789575358"><ele>886.0</ele><time>2026-05-02T10:20:08Z</time></trkpt><trkpt lat="46.06790271304961" lon="11.64270903956853"><ele>886.4</ele><time>2026-05-02T10:20:09Z</time></trkpt><trkpt lat="46.06791858989953" lon="11.642842357805675"><ele>886.8</ele><time>2026-05-02T10:20:10Z</time></trkpt><trkpt lat="46.06792048006273" lon="11.642985321348986"><ele>887.1999999999999</ele><time>2026-05-02T10:20:11Z</time></trkpt><trkpt lat="46.06791203649562" lon="11.643158619694749"><ele>887.5999999999999</ele><time>2026-05-02T10:20:12Z</time></trkpt><trkpt lat="46.06792171143633" lon="11.643310884179456"><ele>888.0</ele><time>2026-05-02T10:20:13Z</time></trkpt><trkpt lat="46.06794005515349" lon="11.643457299321105"><ele>888.0</ele><time>2026-05-02T10:20:14Z</time></trkpt><trkpt lat="46.0679733021143" lon="11.643586143283928"><ele>888.0</ele><time>2026-05-02T10:20:15Z</time></trkpt><trkpt lat="46.068025573071395" lon="11.643690370428724"><ele>888.0</ele><time>2026-05-02T10:20:16Z</time></trkpt><trkpt lat="46.06809251918008" lon="11.643763892308707"><ele>888.0</ele><time>2026-05-02T10:20:17Z</time></trkpt><trkpt lat="46.068143868607194" lon="11.643874646047195"><ele>888.0</ele><time>2026-05-02T10:20:18Z</time></trkpt><trkpt lat="46.06821022759538" lon="11.643975155657348"><ele>888.8333333333334</ele><time>2026-05-02T10:20:19Z</time></trkpt><trkpt lat="46.0682632773035" lon="11.644079599764638"><ele>889.6666666666667</ele><time>2026-05-02T10:20:20Z</time></trkpt><trkpt lat="46.06830738628807" lon="11.64418501384032"><ele>890.5</ele><time>2026-05-02T10:20:21.001Z</time></trkpt><trkpt lat="46.0683370361681" lon="11.644290215447475"><ele>891.3333333333334</ele><time>2026-05-02T10:20:22.001Z</time></trkpt><trkpt lat="46.06836888897613" lon="11.644381101400809"><ele>892.1666666666667</ele><time>2026-05-02T10:20:23.001Z</time></trkpt><trkpt lat="46.06843327653367" lon="11.644428637725785"><ele>893.0</ele><time>2026-05-02T10:20:24.001Z</time></trkpt><trkpt lat="46.06855678776308" lon="11.644437454974575"><ele>886.5999999999999</ele><time>2026-05-02T10:20:26.001Z</time></trkpt><trkpt lat="46.06863749093533" lon="11.644454231326552"><ele>880.1999999999999</ele><time>2026-05-02T10:20:27.001Z</time></trkpt><trkpt lat="46.0687321770604" lon="11.644495368024081"><ele>873.8</ele><time>2026-05-02T10:20:28.001Z</time></trkpt><trkpt lat="46.06883984884715" lon="11.64452015980475"><ele>867.4</ele><time>2026-05-02T10:20:29.001Z</time></trkpt><trkpt lat="46.068946943667825" lon="11.644559823962819"><ele>861.0</ele><time>2026-05-02T10:20:30.001Z</time></trkpt><trkpt lat="46.069063586172014" lon="11.64458685894198"><ele>859.25</ele><time>2026-05-02T10:20:31.001Z</time></trkpt><trkpt lat="46.06917728250854" lon="11.644622546497738"><ele>857.5</ele><time>2026-05-02T10:20:32.001Z</time></trkpt><trkpt lat="46.06929812283515" lon="11.644624269677333"><ele>855.75</ele><time>2026-05-02T10:20:33.001Z</time></trkpt><trkpt lat="46.06941830459478" lon="11.64462170072208"><ele>854.0</ele><time>2026-05-02T10:20:34.001Z</time></trkpt><trkpt lat="46.06953449602601" lon="11.644667563959496"><ele>854.0</ele><time>2026-05-02T10:20:35.001Z</time></trkpt><trkpt lat="46.06964914663076" lon="11.644699295985095"><ele>854.0</ele><time>2026-05-02T10:20:36.001Z</time></trkpt><trkpt lat="46.06976743442536" lon="11.644730903276628"><ele>854.0</ele><time>2026-05-02T10:20:37.001Z</time></trkpt><trkpt lat="46.06986951304742" lon="11.644806198205979"><ele>854.0</ele><time>2026-05-02T10:20:38.001Z</time></trkpt><trkpt lat="46.06997012909162" lon="11.644841506380459"><ele>854.6666666666667</ele><time>2026-05-02T10:20:39.001Z</time></trkpt><trkpt lat="46.07005234226853" lon="11.644833710900524"><ele>855.3333333333334</ele><time>2026-05-02T10:20:40.001Z</time></trkpt><trkpt lat="46.07010654694602" lon="11.644895492447066"><ele>856.0</ele><time>2026-05-02T10:20:41.001Z</time></trkpt><trkpt lat="46.0701687157027" lon="11.64494096011583"><ele>856.6666666666667</ele><time>2026-05-02T10:20:42.001Z</time></trkpt><trkpt lat="46.070223744637076" lon="11.645023958380841"><ele>857.3333333333334</ele><time>2026-05-02T10:20:43.001Z</time></trkpt><trkpt lat="46.070274757375365" lon="11.645116824924356"><ele>858.0</ele><time>2026-05-02T10:20:44.001Z</time></trkpt><trkpt lat="46.07030913714294" lon="11.645235198254133"><ele>858.5</ele><time>2026-05-02T10:20:45.001Z</time></trkpt><trkpt lat="46.07036080723386" lon="11.645330233602191"><ele>859.0</ele><time>2026-05-02T10:20:46.001Z</time></trkpt><trkpt lat="46.07044932079989" lon="11.645378566127272"><ele>859.5</ele><time>2026-05-02T10:20:47.001Z</time></trkpt><trkpt lat="46.07050996973801" lon="11.64546858792052"><ele>860.0</ele><time>2026-05-02T10:20:48.001Z</time></trkpt><trkpt lat="46.07056397836413" lon="11.645520363606492"><ele>860.5</ele><time>2026-05-02T10:20:49.001Z</time></trkpt><trkpt lat="46.070528317683" lon="11.64561306563822"><ele>861.0</ele><time>2026-05-02T10:20:50.001Z</time></trkpt><trkpt lat="46.07050778239564" lon="11.645712644984473"><ele>861.0</ele><time>2026-05-02T10:20:51.001Z</time></trkpt><trkpt lat="46.070521219802615" lon="11.645828615527059"><ele>861.0</ele><time>2026-05-02T10:20:52.001Z</time></trkpt><trkpt lat="46.070584798365395" lon="11.645906781821523"><ele>861.0</ele><time>2026-05-02T10:20:53.001Z</time></trkpt><trkpt lat="46.0706484017224" lon="11.645961324240108"><ele>861.0</ele><time>2026-05-02T10:20:54.001Z</time></trkpt><trkpt lat="46.07073965067733" lon="11.646034621245631"><ele>861.0</ele><time>2026-05-02T10:20:56.001Z</time></trkpt><trkpt lat="46.070791572968005" lon="11.64610566609678"><ele>861.0</ele><time>2026-05-02T10:21:01.001Z</time></trkpt><trkpt lat="46.070730343195834" lon="11.64642086944173"><ele>862.0</ele><time>2026-05-02T10:21:05Z</time></trkpt><trkpt lat="46.070674339464304" lon="11.646509037771919"><ele>863.0</ele><time>2026-05-02T10:21:07Z</time></trkpt><trkpt lat="46.07060331053581" lon="11.646626007800318"><ele>864.0</ele><time>2026-05-02T10:21:09Z</time></trkpt><trkpt lat="46.07056216609469" lon="11.646696740978491"><ele>865.0</ele><time>2026-05-02T10:21:10Z</time></trkpt><trkpt lat="46.07052179590406" lon="11.646776274113646"><ele>866.0</ele><time>2026-05-02T10:21:11Z</time></trkpt><trkpt lat="46.07046390219135" lon="11.646901998041672"><ele>867.0</ele><time>2026-05-02T10:21:13Z</time></trkpt><trkpt lat="46.07044488626776" lon="11.64700163003508"><ele>869.2</ele><time>2026-05-02T10:21:15Z</time></trkpt><trkpt lat="46.07042710986499" lon="11.647115879937537"><ele>871.4000000000001</ele><time>2026-05-02T10:21:17Z</time></trkpt><trkpt lat="46.07042082182466" lon="11.647253085769798"><ele>873.5999999999999</ele><time>2026-05-02T10:21:19Z</time></trkpt><trkpt lat="46.07040261798345" lon="11.647384386346356"><ele>875.8</ele><time>2026-05-02T10:21:21Z</time></trkpt><trkpt lat="46.07039197101787" lon="11.64752874476188"><ele>878.0</ele><time>2026-05-02T10:21:23Z</time></trkpt><trkpt lat="46.07037114886656" lon="11.64764510658579"><ele>878.0000000000001</ele><time>2026-05-02T10:21:25Z</time></trkpt><trkpt lat="46.07034252119988" lon="11.647771152705262"><ele>878.0</ele><time>2026-05-02T10:21:27Z</time></trkpt><trkpt lat="46.07034288751681" lon="11.647904358900298"><ele>878.0</ele><time>2026-05-02T10:21:29Z</time></trkpt><trkpt lat="46.07037007293511" lon="11.64800930250446"><ele>878.0</ele><time>2026-05-02T10:21:31Z</time></trkpt><trkpt lat="46.070382481427785" lon="11.648098576284527"><ele>878.0000000000001</ele><time>2026-05-02T10:21:32Z</time></trkpt><trkpt lat="46.07038882262123" lon="11.648251045126434"><ele>878.0</ele><time>2026-05-02T10:21:34Z</time></trkpt><trkpt lat="46.07036883574367" lon="11.648391932948464"><ele>880.4</ele><time>2026-05-02T10:21:36Z</time></trkpt><trkpt lat="46.070336514165476" lon="11.648551610918428"><ele>882.8</ele><time>2026-05-02T10:21:38Z</time></trkpt><trkpt lat="46.07033365873162" lon="11.648706595169896"><ele>885.2</ele><time>2026-05-02T10:21:40Z</time></trkpt><trkpt lat="46.07034384128711" lon="11.64879733964191"><ele>887.6</ele><time>2026-05-02T10:21:41Z</time></trkpt><trkpt lat="46.07034752274481" lon="11.648940805100416"><ele>890.0</ele><time>2026-05-02T10:21:43Z</time></trkpt><trkpt lat="46.07032617400087" lon="11.649028095226846"><ele>891.3333333333334</ele><time>2026-05-02T10:21:45Z</time></trkpt><trkpt lat="46.07029275627594" lon="11.649163987514385"><ele>892.6666666666667</ele><time>2026-05-02T10:21:47Z</time></trkpt><trkpt lat="46.070279847195756" lon="11.649281233128495"><ele>894.0</ele><time>2026-05-02T10:21:49Z</time></trkpt><trkpt lat="46.070270003624444" lon="11.649373856858652"><ele>895.3333333333333</ele><time>2026-05-02T10:21:50Z</time></trkpt><trkpt lat="46.07028009789739" lon="11.649513472414021"><ele>896.6666666666666</ele><time>2026-05-02T10:21:52Z</time></trkpt><trkpt lat="46.07028474233365" lon="11.64963298506652"><ele>898.0</ele><time>2026-05-02T10:21:54Z</time></trkpt><trkpt lat="46.07029441603075" lon="11.649769212581262"><ele>900.0</ele><time>2026-05-02T10:21:56Z</time></trkpt><trkpt lat="46.070285465121515" lon="11.649883681079197"><ele>902.0</ele><time>2026-05-02T10:21:58Z</time></trkpt><trkpt lat="46.07027423403996" lon="11.650067779840557"><ele>904.0</ele><time>2026-05-02T10:22:00Z</time></trkpt><trkpt lat="46.070281149939674" lon="11.650228853976971"><ele>906.0</ele><time>2026-05-02T10:22:02Z</time></trkpt><trkpt lat="46.07029401301988" lon="11.650324002947421"><ele>908.0</ele><time>2026-05-02T10:22:03Z</time></trkpt><trkpt lat="46.07030614977224" lon="11.650463038899012"><ele>909.8333333333334</ele><time>2026-05-02T10:22:05Z</time></trkpt><trkpt lat="46.07031779289169" lon="11.65061864233198"><ele>911.6666666666667</ele><time>2026-05-02T10:22:07Z</time></trkpt><trkpt lat="46.07032685481702" lon="11.650738972985783"><ele>913.5</ele><time>2026-05-02T10:22:09Z</time></trkpt><trkpt lat="46.07034192160075" lon="11.650846339754725"><ele>915.3333333333333</ele><time>2026-05-02T10:22:11Z</time></trkpt><trkpt lat="46.07034527740399" lon="11.65094565627679"><ele>917.1666666666666</ele><time>2026-05-02T10:22:13Z</time></trkpt><trkpt lat="46.07032924261354" lon="11.651036924218463"><ele>919.0</ele><time>2026-05-02T10:22:15Z</time></trkpt><trkpt lat="46.07033671742059" lon="11.651177496219605"><ele>921.0</ele><time>2026-05-02T10:22:17Z</time></trkpt><trkpt lat="46.07035554009588" lon="11.65131562498266"><ele>923.0000000000001</ele><time>2026-05-02T10:22:19Z</time></trkpt><trkpt lat="46.07038398239159" lon="11.65142736668853"><ele>925.0000000000001</ele><time>2026-05-02T10:22:21Z</time></trkpt><trkpt lat="46.0703759170836" lon="11.651565479738109"><ele>927.0</ele><time>2026-05-02T10:22:24Z</time></trkpt><trkpt lat="46.070429855630884" lon="11.651614877472053"><ele>929.0</ele><time>2026-05-02T10:22:35.001Z</time></trkpt><trkpt lat="46.07053271801833" lon="11.651504852580572"><ele>929.0000000000001</ele><time>2026-05-02T10:22:37.001Z</time></trkpt><trkpt lat="46.07059589128807" lon="11.651437725598507"><ele>929.0</ele><time>2026-05-02T10:22:38.001Z</time></trkpt><trkpt lat="46.07065841482601" lon="11.65137172607457"><ele>929.0</ele><time>2026-05-02T10:22:39.001Z</time></trkpt><trkpt lat="46.07072883282681" lon="11.651306992387084"><ele>929.0</ele><time>2026-05-02T10:22:40.001Z</time></trkpt><trkpt lat="46.07080304917694" lon="11.651227144778684"><ele>929.0000000000001</ele><time>2026-05-02T10:22:41.001Z</time></trkpt><trkpt lat="46.07088787290556" lon="11.65116630041169"><ele>929.0</ele><time>2026-05-02T10:22:42.001Z</time></trkpt><trkpt lat="46.07096350409353" lon="11.651078917944503"><ele>930.2</ele><time>2026-05-02T10:22:43.001Z</time></trkpt><trkpt lat="46.0710432568925" lon="11.650988423353912"><ele>931.4000000000001</ele><time>2026-05-02T10:22:44.001Z</time></trkpt><trkpt lat="46.07112330919525" lon="11.650896971418787"><ele>932.6</ele><time>2026-05-02T10:22:45.001Z</time></trkpt><trkpt lat="46.07120807695488" lon="11.65080320491841"><ele>933.8</ele><time>2026-05-02T10:22:46.001Z</time></trkpt><trkpt lat="46.071296046418745" lon="11.650707116059168"><ele>935.0</ele><time>2026-05-02T10:22:47.001Z</time></trkpt><trkpt lat="46.07138475903124" lon="11.650612066261182"><ele>935.0</ele><time>2026-05-02T10:22:48.001Z</time></trkpt><trkpt lat="46.07146979074852" lon="11.650500680552522"><ele>935.0</ele><time>2026-05-02T10:22:49.001Z</time></trkpt><trkpt lat="46.0715518878356" lon="11.650393304192276"><ele>935.0</ele><time>2026-05-02T10:22:50.001Z</time></trkpt><trkpt lat="46.071624814029065" lon="11.65027249528512"><ele>935.0</ele><time>2026-05-02T10:22:51.001Z</time></trkpt><trkpt lat="46.071676486992395" lon="11.650126814529491"><ele>938.75</ele><time>2026-05-02T10:22:52.001Z</time></trkpt><trkpt lat="46.071717828577874" lon="11.64997725154259"><ele>942.5</ele><time>2026-05-02T10:22:53.001Z</time></trkpt><trkpt lat="46.07176865871737" lon="11.649827149186208"><ele>946.25</ele><time>2026-05-02T10:22:54.001Z</time></trkpt><trkpt lat="46.07182880343604" lon="11.649685173407281"><ele>950.0</ele><time>2026-05-02T10:22:55.001Z</time></trkpt><trkpt lat="46.07191402072727" lon="11.649529339736825"><ele>949.0</ele><time>2026-05-02T10:22:56.001Z</time></trkpt><trkpt lat="46.072026993843146" lon="11.649364856629672"><ele>948.0</ele><time>2026-05-02T10:22:57.001Z</time></trkpt><trkpt lat="46.07214550151346" lon="11.649195147878826"><ele>947.0</ele><time>2026-05-02T10:22:58.001Z</time></trkpt><trkpt lat="46.072247409357054" lon="11.649012080692017"><ele>947.0</ele><time>2026-05-02T10:22:59.001Z</time></trkpt><trkpt lat="46.07233624924312" lon="11.64881573744572"><ele>947.0</ele><time>2026-05-02T10:23:00.001Z</time></trkpt><trkpt lat="46.072409869434054" lon="11.648617602636207"><ele>947.0</ele><time>2026-05-02T10:23:01.001Z</time></trkpt><trkpt lat="46.0724656403511" lon="11.64841090616843"><ele>949.5</ele><time>2026-05-02T10:23:02.001Z</time></trkpt><trkpt lat="46.072501304707366" lon="11.64819852895812"><ele>952.0</ele><time>2026-05-02T10:23:03.001Z</time></trkpt><trkpt lat="46.07252636637958" lon="11.64799206962491"><ele>954.5</ele><time>2026-05-02T10:23:04.001Z</time></trkpt><trkpt lat="46.07254974832914" lon="11.647794113105446"><ele>957.0</ele><time>2026-05-02T10:23:05.001Z</time></trkpt><trkpt lat="46.07257241632961" lon="11.647599660596834"><ele>957.0</ele><time>2026-05-02T10:23:06.001Z</time></trkpt><trkpt lat="46.07259226890183" lon="11.647427066898857"><ele>957.0</ele><time>2026-05-02T10:23:07.001Z</time></trkpt><trkpt lat="46.07261338036139" lon="11.647276047811628"><ele>957.0</ele><time>2026-05-02T10:23:08.001Z</time></trkpt><trkpt lat="46.07264862082446" lon="11.647144098494069"><ele>957.0</ele><time>2026-05-02T10:23:09.001Z</time></trkpt><trkpt lat="46.0727124023923" lon="11.647015166418475"><ele>957.0</ele><time>2026-05-02T10:23:10Z</time></trkpt><trkpt lat="46.07280297132869" lon="11.646889614208202"><ele>955.75</ele><time>2026-05-02T10:23:11Z</time></trkpt><trkpt lat="46.07290379597287" lon="11.646755940836526"><ele>954.5</ele><time>2026-05-02T10:23:12Z</time></trkpt><trkpt lat="46.073009841078395" lon="11.646600247852703"><ele>953.25</ele><time>2026-05-02T10:23:13Z</time></trkpt><trkpt lat="46.07312075594414" lon="11.6464500151831"><ele>952.0</ele><time>2026-05-02T10:23:14Z</time></trkpt><trkpt lat="46.07322718384272" lon="11.646303976715975"><ele>956.3333333333333</ele><time>2026-05-02T10:23:15Z</time></trkpt><trkpt lat="46.073332557663726" lon="11.646157386368992"><ele>960.6666666666667</ele><time>2026-05-02T10:23:16Z</time></trkpt><trkpt lat="46.07343983328734" lon="11.646006287673075"><ele>965.0</ele><time>2026-05-02T10:23:17Z</time></trkpt><trkpt lat="46.07355062909714" lon="11.645853224933365"><ele>965.0</ele><time>2026-05-02T10:23:18Z</time></trkpt><trkpt lat="46.07366184600088" lon="11.645693028128406"><ele>965.0</ele><time>2026-05-02T10:23:19Z</time></trkpt><trkpt lat="46.07377271826029" lon="11.645545388078448"><ele>965.0</ele><time>2026-05-02T10:23:20Z</time></trkpt><trkpt lat="46.073888505149434" lon="11.645381615029729"><ele>960.6666666666667</ele><time>2026-05-02T10:23:21Z</time></trkpt><trkpt lat="46.07400553380383" lon="11.645224354326412"><ele>956.3333333333333</ele><time>2026-05-02T10:23:22Z</time></trkpt><trkpt lat="46.07411798353711" lon="11.645052336991862"><ele>952.0</ele><time>2026-05-02T10:23:23Z</time></trkpt><trkpt lat="46.07422128223237" lon="11.644871623873268"><ele>959.3333333333333</ele><time>2026-05-02T10:23:24Z</time></trkpt><trkpt lat="46.07431107305304" lon="11.644677871463301"><ele>966.6666666666667</ele><time>2026-05-02T10:23:25Z</time></trkpt><trkpt lat="46.07438915768401" lon="11.644456319000929"><ele>974.0</ele><time>2026-05-02T10:23:26Z</time></trkpt><trkpt lat="46.07446701142688" lon="11.644237279804521"><ele>974.0</ele><time>2026-05-02T10:23:27Z</time></trkpt><trkpt lat="46.07455387256232" lon="11.644016420185245"><ele>974.0</ele><time>2026-05-02T10:23:28Z</time></trkpt><trkpt lat="46.07464456838838" lon="11.643795002234205"><ele>974.0</ele><time>2026-05-02T10:23:29Z</time></trkpt><trkpt lat="46.074736209875404" lon="11.643569027291456"><ele>971.6666666666667</ele><time>2026-05-02T10:23:30Z</time></trkpt><trkpt lat="46.074827099109484" lon="11.6433384328273"><ele>969.3333333333333</ele><time>2026-05-02T10:23:31Z</time></trkpt><trkpt lat="46.07490095357759" lon="11.64310105498571"><ele>967.0</ele><time>2026-05-02T10:23:32Z</time></trkpt><trkpt lat="46.074962210743614" lon="11.642850212565953"><ele>978.3333333333333</ele><time>2026-05-02T10:23:33Z</time></trkpt><trkpt lat="46.075021775276326" lon="11.642598868508006"><ele>989.6666666666667</ele><time>2026-05-02T10:23:34Z</time></trkpt><trkpt lat="46.075084575768514" lon="11.64234655902722"><ele>1001.0</ele><time>2026-05-02T10:23:35Z</time></trkpt><trkpt lat="46.07514638559839" lon="11.642091892581382"><ele>999.6666666666667</ele><time>2026-05-02T10:23:36Z</time></trkpt><trkpt lat="46.075210034923245" lon="11.641840882687491"><ele>998.3333333333333</ele><time>2026-05-02T10:23:37Z</time></trkpt><trkpt lat="46.075274052306845" lon="11.64158984851195"><ele>997.0</ele><time>2026-05-02T10:23:38Z</time></trkpt><trkpt lat="46.07533774220663" lon="11.641338864550814"><ele>997.0</ele><time>2026-05-02T10:23:39Z</time></trkpt><trkpt lat="46.07539841860357" lon="11.641087787043242"><ele>997.0</ele><time>2026-05-02T10:23:40Z</time></trkpt><trkpt lat="46.07546101698875" lon="11.640841219934764"><ele>997.0</ele><time>2026-05-02T10:23:41Z</time></trkpt><trkpt lat="46.0755219957" lon="11.640591153713109"><ele>997.0</ele><time>2026-05-02T10:23:42Z</time></trkpt><trkpt lat="46.07557967908116" lon="11.640346425755071"><ele>997.0</ele><time>2026-05-02T10:23:43Z</time></trkpt><trkpt lat="46.07564170362187" lon="11.640099755428379"><ele>997.0</ele><time>2026-05-02T10:23:44Z</time></trkpt><trkpt lat="46.075696668832926" lon="11.63987512867019"><ele>996.25</ele><time>2026-05-02T10:23:45Z</time></trkpt><trkpt lat="46.0757611395492" lon="11.639687222595638"><ele>995.5</ele><time>2026-05-02T10:23:46Z</time></trkpt><trkpt lat="46.07582634375353" lon="11.63952232922472"><ele>994.75</ele><time>2026-05-02T10:23:47Z</time></trkpt><trkpt lat="46.07592815476698" lon="11.639390574918355"><ele>994.0</ele><time>2026-05-02T10:23:48Z</time></trkpt><trkpt lat="46.07605837811363" lon="11.639319697526313"><ele>999.25</ele><time>2026-05-02T10:23:49Z</time></trkpt><trkpt lat="46.07619628467224" lon="11.639286568189238"><ele>1004.5</ele><time>2026-05-02T10:23:50Z</time></trkpt><trkpt lat="46.076339683808854" lon="11.639308240540933"><ele>1009.75</ele><time>2026-05-02T10:23:51Z</time></trkpt><trkpt lat="46.07648335538037" lon="11.639357279336627"><ele>1015.0</ele><time>2026-05-02T10:23:52Z</time></trkpt><trkpt lat="46.07663235943313" lon="11.639391701549103"><ele>1019.6666666666666</ele><time>2026-05-02T10:23:53Z</time></trkpt><trkpt lat="46.07678401622294" lon="11.639407936672805"><ele>1024.3333333333333</ele><time>2026-05-02T10:23:54Z</time></trkpt><trkpt lat="46.07694653887528" lon="11.639384936837805"><ele>1029.0</ele><time>2026-05-02T10:23:55Z</time></trkpt><trkpt lat="46.07710893784595" lon="11.639315826309621"><ele>1029.0</ele><time>2026-05-02T10:23:56Z</time></trkpt><trkpt lat="46.07727104142344" lon="11.639238776554885"><ele>1029.0</ele><time>2026-05-02T10:23:57Z</time></trkpt><trkpt lat="46.077435896965994" lon="11.639180148229526"><ele>1029.0</ele><time>2026-05-02T10:23:58Z</time></trkpt><trkpt lat="46.07760753438804" lon="11.639122574399691"><ele>1033.6666666666667</ele><time>2026-05-02T10:23:59Z</time></trkpt><trkpt lat="46.07777479618323" lon="11.639103270291429"><ele>1038.3333333333335</ele><time>2026-05-02T10:24:00Z</time></trkpt><trkpt lat="46.07793868406474" lon="11.639096447640581"><ele>1043.0</ele><time>2026-05-02T10:24:01Z</time></trkpt><trkpt lat="46.07810138960872" lon="11.639088063779882"><ele>1043.0</ele><time>2026-05-02T10:24:02Z</time></trkpt><trkpt lat="46.07826450285045" lon="11.639102703438958"><ele>1043.0</ele><time>2026-05-02T10:24:03Z</time></trkpt><trkpt lat="46.07842270862683" lon="11.639109371531587"><ele>1043.0</ele><time>2026-05-02T10:24:04Z</time></trkpt><trkpt lat="46.078578403462075" lon="11.6391106651697"><ele>1043.6666666666667</ele><time>2026-05-02T10:24:05Z</time></trkpt><trkpt lat="46.07873881855102" lon="11.63912120664909"><ele>1044.3333333333333</ele><time>2026-05-02T10:24:06Z</time></trkpt><trkpt lat="46.07889615861065" lon="11.639134651496002"><ele>1045.0</ele><time>2026-05-02T10:24:07Z</time></trkpt><trkpt lat="46.07905544027343" lon="11.639144849830098"><ele>1043.6666666666665</ele><time>2026-05-02T10:24:08Z</time></trkpt><trkpt lat="46.07921285270183" lon="11.639154607914511"><ele>1042.3333333333333</ele><time>2026-05-02T10:24:09Z</time></trkpt><trkpt lat="46.079365367216376" lon="11.639149611053611"><ele>1041.0</ele><time>2026-05-02T10:24:10Z</time></trkpt><trkpt lat="46.07952215585267" lon="11.639138373933802"><ele>1041.0</ele><time>2026-05-02T10:24:11Z</time></trkpt><trkpt lat="46.07964564392922" lon="11.63907313874138"><ele>1041.0</ele><time>2026-05-02T10:24:12Z</time></trkpt><trkpt lat="46.07975889038206" lon="11.638975790150239"><ele>1041.0</ele><time>2026-05-02T10:24:13Z</time></trkpt><trkpt lat="46.07987144043756" lon="11.638856400235284"><ele>1041.0</ele><time>2026-05-02T10:24:14Z</time></trkpt><trkpt lat="46.079980572022045" lon="11.638715007984151"><ele>1044.6666666666667</ele><time>2026-05-02T10:24:15Z</time></trkpt><trkpt lat="46.08008731957972" lon="11.638566620939505"><ele>1048.3333333333335</ele><time>2026-05-02T10:24:16Z</time></trkpt><trkpt lat="46.080197837259064" lon="11.638412810912518"><ele>1052.0</ele><time>2026-05-02T10:24:17Z</time></trkpt><trkpt lat="46.08031324981205" lon="11.638264703117356"><ele>1052.0</ele><time>2026-05-02T10:24:18Z</time></trkpt><trkpt lat="46.080431923244866" lon="11.638111079864812"><ele>1052.0</ele><time>2026-05-02T10:24:19Z</time></trkpt><trkpt lat="46.0805513986157" lon="11.637960949123798"><ele>1052.0</ele><time>2026-05-02T10:24:20Z</time></trkpt><trkpt lat="46.08068348228895" lon="11.637806081260841"><ele>1053.6666666666667</ele><time>2026-05-02T10:24:21Z</time></trkpt><trkpt lat="46.08081843233994" lon="11.637645258042129"><ele>1055.3333333333333</ele><time>2026-05-02T10:24:22Z</time></trkpt><trkpt lat="46.08094511945767" lon="11.637466558105295"><ele>1057.0</ele><time>2026-05-02T10:24:23Z</time></trkpt><trkpt lat="46.08104731903385" lon="11.637268513087795"><ele>1057.0</ele><time>2026-05-02T10:24:24Z</time></trkpt><trkpt lat="46.08111063275528" lon="11.637053120727384"><ele>1057.0</ele><time>2026-05-02T10:24:25Z</time></trkpt><trkpt lat="46.08115394224215" lon="11.636811955128284"><ele>1057.0</ele><time>2026-05-02T10:24:26Z</time></trkpt><trkpt lat="46.08117918529225" lon="11.636546513489327"><ele>1058.6666666666665</ele><time>2026-05-02T10:24:27Z</time></trkpt><trkpt lat="46.081208153179844" lon="11.63627310603177"><ele>1060.3333333333333</ele><time>2026-05-02T10:24:28Z</time></trkpt><trkpt lat="46.081244965210956" lon="11.635999130127663"><ele>1062.0</ele><time>2026-05-02T10:24:29Z</time></trkpt><trkpt lat="46.08128295915181" lon="11.635724238035491"><ele>1064.3333333333333</ele><time>2026-05-02T10:24:30Z</time></trkpt><trkpt lat="46.08131964230666" lon="11.635449552415551"><ele>1066.6666666666665</ele><time>2026-05-02T10:24:31Z</time></trkpt><trkpt lat="46.081352876799514" lon="11.635180049076887"><ele>1069.0</ele><time>2026-05-02T10:24:32Z</time></trkpt><trkpt lat="46.081379451432696" lon="11.634948272525616"><ele>1071.0</ele><time>2026-05-02T10:24:33.001Z</time></trkpt><trkpt lat="46.081401987245094" lon="11.634756421411769"><ele>1073.0</ele><time>2026-05-02T10:24:34.001Z</time></trkpt><trkpt lat="46.08144570608856" lon="11.634553402709619"><ele>1075.0</ele><time>2026-05-02T10:24:35.001Z</time></trkpt><trkpt lat="46.081516990264255" lon="11.63436636903212"><ele>1077.0</ele><time>2026-05-02T10:24:36.001Z</time></trkpt><trkpt lat="46.081644415987896" lon="11.634273561818892"><ele>1078.25</ele><time>2026-05-02T10:24:37.001Z</time></trkpt><trkpt lat="46.08176535733734" lon="11.634212162870664"><ele>1079.5</ele><time>2026-05-02T10:24:38.001Z</time></trkpt><trkpt lat="46.081894946016355" lon="11.634182168331357"><ele>1080.75</ele><time>2026-05-02T10:24:39.001Z</time></trkpt><trkpt lat="46.08204747254585" lon="11.634254138507218"><ele>1082.0</ele><time>2026-05-02T10:24:40.001Z</time></trkpt><trkpt lat="46.08222569399612" lon="11.634294722166198"><ele>1082.0</ele><time>2026-05-02T10:24:41.001Z</time></trkpt><trkpt lat="46.082384521795305" lon="11.634344027265735"><ele>1082.0</ele><time>2026-05-02T10:24:42.001Z</time></trkpt><trkpt lat="46.082534140022915" lon="11.634351143704261"><ele>1082.0</ele><time>2026-05-02T10:24:43.001Z</time></trkpt><trkpt lat="46.082690400697786" lon="11.634285522901745"><ele>1084.3333333333335</ele><time>2026-05-02T10:24:44.001Z</time></trkpt><trkpt lat="46.08284577220545" lon="11.634151123703937"><ele>1086.6666666666667</ele><time>2026-05-02T10:24:45.001Z</time></trkpt><trkpt lat="46.08299175547416" lon="11.633968361609545"><ele>1089.0</ele><time>2026-05-02T10:24:46.001Z</time></trkpt><trkpt lat="46.08313184224328" lon="11.633747324916737"><ele>1093.0</ele><time>2026-05-02T10:24:47.001Z</time></trkpt><trkpt lat="46.083267146404346" lon="11.633534526764722"><ele>1097.0</ele><time>2026-05-02T10:24:48.001Z</time></trkpt><trkpt lat="46.08338909457735" lon="11.633367101003104"><ele>1101.0</ele><time>2026-05-02T10:24:49.001Z</time></trkpt><trkpt lat="46.08350138163801" lon="11.633222385227928"><ele>1101.0</ele><time>2026-05-02T10:24:50.001Z</time></trkpt><trkpt lat="46.08363608670947" lon="11.633133636661963"><ele>1101.0</ele><time>2026-05-02T10:24:51.001Z</time></trkpt><trkpt lat="46.083782903638024" lon="11.63308142124146"><ele>1101.0</ele><time>2026-05-02T10:24:52.001Z</time></trkpt><trkpt lat="46.083936122643856" lon="11.633097425377919"><ele>1101.0</ele><time>2026-05-02T10:24:53.001Z</time></trkpt><trkpt lat="46.0840854163462" lon="11.633165556771155"><ele>1101.0</ele><time>2026-05-02T10:24:54.001Z</time></trkpt><trkpt lat="46.08424795420913" lon="11.633242757012502"><ele>1101.0</ele><time>2026-05-02T10:24:55.001Z</time></trkpt><trkpt lat="46.084407102470564" lon="11.63336157714556"><ele>1104.25</ele><time>2026-05-02T10:24:56.001Z</time></trkpt><trkpt lat="46.08456333243679" lon="11.63340902065621"><ele>1107.5</ele><time>2026-05-02T10:24:57.001Z</time></trkpt><trkpt lat="46.08470374359478" lon="11.63339552477753"><ele>1110.75</ele><time>2026-05-02T10:24:58.001Z</time></trkpt><trkpt lat="46.0848389211784" lon="11.633341536515013"><ele>1114.0</ele><time>2026-05-02T10:24:59.001Z</time></trkpt><trkpt lat="46.08498851703544" lon="11.633230828430415"><ele>1116.6666666666665</ele><time>2026-05-02T10:25:00.001Z</time></trkpt><trkpt lat="46.08516202264227" lon="11.633092827046724"><ele>1119.3333333333333</ele><time>2026-05-02T10:25:01.001Z</time></trkpt><trkpt lat="46.085318034816886" lon="11.632972855567804"><ele>1122.0</ele><time>2026-05-02T10:25:02.001Z</time></trkpt><trkpt lat="46.08545011917581" lon="11.632879733845535"><ele>1123.0</ele><time>2026-05-02T10:25:03.001Z</time></trkpt><trkpt lat="46.085568239635556" lon="11.632792696254214"><ele>1124.0</ele><time>2026-05-02T10:25:04.001Z</time></trkpt><trkpt lat="46.085666256533926" lon="11.632700269263756"><ele>1125.0</ele><time>2026-05-02T10:25:05.001Z</time></trkpt><trkpt lat="46.08574210474794" lon="11.632568703445964"><ele>1126.0</ele><time>2026-05-02T10:25:06.001Z</time></trkpt><trkpt lat="46.08578677994857" lon="11.632387449388645"><ele>1126.0</ele><time>2026-05-02T10:25:07.001Z</time></trkpt><trkpt lat="46.085785001713994" lon="11.632185666897009"><ele>1126.0</ele><time>2026-05-02T10:25:08.001Z</time></trkpt><trkpt lat="46.085736551633424" lon="11.632003722726573"><ele>1126.0</ele><time>2026-05-02T10:25:09.001Z</time></trkpt><trkpt lat="46.085645263529116" lon="11.63185757252847"><ele>1126.0</ele><time>2026-05-02T10:25:10.001Z</time></trkpt><trkpt lat="46.08551652365499" lon="11.631754192939265"><ele>1132.3333333333333</ele><time>2026-05-02T10:25:11.001Z</time></trkpt><trkpt lat="46.0853589091331" lon="11.631704922556287"><ele>1138.6666666666667</ele><time>2026-05-02T10:25:12.001Z</time></trkpt><trkpt lat="46.08517722555797" lon="11.63169416266853"><ele>1145.0</ele><time>2026-05-02T10:25:13.001Z</time></trkpt><trkpt lat="46.08499517324868" lon="11.631643871563584"><ele>1141.3333333333335</ele><time>2026-05-02T10:25:14.001Z</time></trkpt><trkpt lat="46.08482615978" lon="11.631617128627804"><ele>1137.6666666666667</ele><time>2026-05-02T10:25:15.001Z</time></trkpt><trkpt lat="46.084675384789655" lon="11.631516659614979"><ele>1134.0</ele><time>2026-05-02T10:25:16Z</time></trkpt><trkpt lat="46.08452364122335" lon="11.631389045902417"><ele>1134.0</ele><time>2026-05-02T10:25:17Z</time></trkpt><trkpt lat="46.084353455378334" lon="11.631244789665288"><ele>1134.0</ele><time>2026-05-02T10:25:18Z</time></trkpt><trkpt lat="46.08416481018396" lon="11.631145749358392"><ele>1134.0</ele><time>2026-05-02T10:25:19Z</time></trkpt><trkpt lat="46.083981961519335" lon="11.631043127772083"><ele>1146.3333333333333</ele><time>2026-05-02T10:25:20Z</time></trkpt><trkpt lat="46.083813243224505" lon="11.63095728379539"><ele>1158.6666666666665</ele><time>2026-05-02T10:25:21Z</time></trkpt><trkpt lat="46.083651274760264" lon="11.63090663610937"><ele>1171.0</ele><time>2026-05-02T10:25:22Z</time></trkpt><trkpt lat="46.08346688343809" lon="11.63092977000559"><ele>1175.6666666666665</ele><time>2026-05-02T10:25:23Z</time></trkpt><trkpt lat="46.083259668583516" lon="11.630959447614458"><ele>1180.3333333333333</ele><time>2026-05-02T10:25:24Z</time></trkpt><trkpt lat="46.08303493833186" lon="11.63101242514594"><ele>1185.0</ele><time>2026-05-02T10:25:25Z</time></trkpt><trkpt lat="46.08283003122127" lon="11.631042992227268"><ele>1185.0</ele><time>2026-05-02T10:25:26Z</time></trkpt><trkpt lat="46.08265816817673" lon="11.631077916498713"><ele>1185.0</ele><time>2026-05-02T10:25:27Z</time></trkpt><trkpt lat="46.08249690769783" lon="11.631148654518281"><ele>1185.0</ele><time>2026-05-02T10:25:28Z</time></trkpt><trkpt lat="46.08234325725669" lon="11.631273509151066"><ele>1175.3333333333333</ele><time>2026-05-02T10:25:29Z</time></trkpt><trkpt lat="46.08219176184848" lon="11.63140325536874"><ele>1165.6666666666665</ele><time>2026-05-02T10:25:30Z</time></trkpt><trkpt lat="46.08204780821736" lon="11.631448710488867"><ele>1156.0</ele><time>2026-05-02T10:25:31Z</time></trkpt><trkpt lat="46.081921023277275" lon="11.631428176245658"><ele>1156.0</ele><time>2026-05-02T10:25:32Z</time></trkpt><trkpt lat="46.081796157467714" lon="11.631356296812983"><ele>1156.0</ele><time>2026-05-02T10:25:33Z</time></trkpt><trkpt lat="46.0816733346229" lon="11.63121934852884"><ele>1156.0</ele><time>2026-05-02T10:25:34Z</time></trkpt><trkpt lat="46.0815340211177" lon="11.63107923187431"><ele>1155.5</ele><time>2026-05-02T10:25:35Z</time></trkpt><trkpt lat="46.08142967279591" lon="11.630949883138937"><ele>1155.0</ele><time>2026-05-02T10:25:36Z</time></trkpt><trkpt lat="46.08135757164304" lon="11.630789962544263"><ele>1154.5</ele><time>2026-05-02T10:25:37Z</time></trkpt><trkpt lat="46.08131933582088" lon="11.630588853262289"><ele>1154.0</ele><time>2026-05-02T10:25:38Z</time></trkpt><trkpt lat="46.08134997789176" lon="11.63038495151473"><ele>1156.6666666666667</ele><time>2026-05-02T10:25:39Z</time></trkpt><trkpt lat="46.081377590207985" lon="11.63016678532877"><ele>1159.3333333333333</ele><time>2026-05-02T10:25:40Z</time></trkpt><trkpt lat="46.08139671661433" lon="11.629927858510369"><ele>1162.0</ele><time>2026-05-02T10:25:41Z</time></trkpt><trkpt lat="46.0814001602968" lon="11.629653645519149"><ele>1164.0</ele><time>2026-05-02T10:25:42Z</time></trkpt><trkpt lat="46.08137799726179" lon="11.629352167177137"><ele>1166.0</ele><time>2026-05-02T10:25:43Z</time></trkpt><trkpt lat="46.08135738411432" lon="11.629044784906718"><ele>1168.0</ele><time>2026-05-02T10:25:44Z</time></trkpt><trkpt lat="46.08131264865714" lon="11.628747380758837"><ele>1171.3333333333333</ele><time>2026-05-02T10:25:45Z</time></trkpt><trkpt lat="46.08122197599737" lon="11.62847451560769"><ele>1174.6666666666667</ele><time>2026-05-02T10:25:46Z</time></trkpt><trkpt lat="46.08112098810518" lon="11.62822790121238"><ele>1178.0</ele><time>2026-05-02T10:25:47Z</time></trkpt><trkpt lat="46.081051326965586" lon="11.62799666497672"><ele>1182.0</ele><time>2026-05-02T10:25:48Z</time></trkpt><trkpt lat="46.08100082437655" lon="11.62777051028201"><ele>1186.0</ele><time>2026-05-02T10:25:49Z</time></trkpt><trkpt lat="46.0809592149455" lon="11.627548451395246"><ele>1190.0</ele><time>2026-05-02T10:25:50Z</time></trkpt><trkpt lat="46.08088819395165" lon="11.627350264944981"><ele>1190.0</ele><time>2026-05-02T10:25:51Z</time></trkpt><trkpt lat="46.08077961702659" lon="11.62716666966077"><ele>1190.0</ele><time>2026-05-02T10:25:52Z</time></trkpt><trkpt lat="46.080679423704986" lon="11.627028922873565"><ele>1190.0</ele><time>2026-05-02T10:25:53Z</time></trkpt><trkpt lat="46.080617316576195" lon="11.62691801430277"><ele>1190.0</ele><time>2026-05-02T10:25:54Z</time></trkpt><trkpt lat="46.0806088796668" lon="11.626806553665727"><ele>1190.0</ele><time>2026-05-02T10:25:55Z</time></trkpt><trkpt lat="46.08065426236451" lon="11.626697584373211"><ele>1190.0</ele><time>2026-05-02T10:25:56Z</time></trkpt><trkpt lat="46.0807412836962" lon="11.626668481200282"><ele>1190.0</ele><time>2026-05-02T10:25:57Z</time></trkpt><trkpt lat="46.08081631776256" lon="11.62673334672531"><ele>1190.0</ele><time>2026-05-02T10:25:58Z</time></trkpt><trkpt lat="46.08084932306621" lon="11.626890603014461"><ele>1190.0</ele><time>2026-05-02T10:25:59Z</time></trkpt><trkpt lat="46.08092260293568" lon="11.627041133015007"><ele>1190.0</ele><time>2026-05-02T10:26:00Z</time></trkpt><trkpt lat="46.08101287761722" lon="11.627210720522067"><ele>1190.0</ele><time>2026-05-02T10:26:01Z</time></trkpt><trkpt lat="46.08109943770916" lon="11.627384254790252"><ele>1190.0</ele><time>2026-05-02T10:26:02Z</time></trkpt><trkpt lat="46.08119502835866" lon="11.62758755858471"><ele>1190.0</ele><time>2026-05-02T10:26:03Z</time></trkpt><trkpt lat="46.08129788776773" lon="11.627808684673031"><ele>1190.0</ele><time>2026-05-02T10:26:04Z</time></trkpt><trkpt lat="46.0813976422376" lon="11.628029032236688"><ele>1190.0</ele><time>2026-05-02T10:26:05Z</time></trkpt><trkpt lat="46.08149477835865" lon="11.628231390251889"><ele>1186.0</ele><time>2026-05-02T10:26:06Z</time></trkpt><trkpt lat="46.081591095919144" lon="11.62840135498842"><ele>1182.0</ele><time>2026-05-02T10:26:07Z</time></trkpt><trkpt lat="46.081723118069455" lon="11.628523823058861"><ele>1178.0</ele><time>2026-05-02T10:26:08Z</time></trkpt><trkpt lat="46.0818713705324" lon="11.628587761329992"><ele>1183.75</ele><time>2026-05-02T10:26:09Z</time></trkpt><trkpt lat="46.08198483866148" lon="11.628674416930782"><ele>1189.5</ele><time>2026-05-02T10:26:10Z</time></trkpt><trkpt lat="46.082022713168634" lon="11.628862866155373"><ele>1195.25</ele><time>2026-05-02T10:26:11Z</time></trkpt><trkpt lat="46.08204728010131" lon="11.62908321074465"><ele>1201.0</ele><time>2026-05-02T10:26:12Z</time></trkpt><trkpt lat="46.082093925963825" lon="11.629317188963256"><ele>1199.25</ele><time>2026-05-02T10:26:13Z</time></trkpt><trkpt lat="46.08212382421577" lon="11.629516964786372"><ele>1197.5</ele><time>2026-05-02T10:26:14Z</time></trkpt><trkpt lat="46.08219166879317" lon="11.629667278965474"><ele>1195.75</ele><time>2026-05-02T10:26:15Z</time></trkpt><trkpt lat="46.0823047826739" lon="11.629763012554065"><ele>1194.0</ele><time>2026-05-02T10:26:16Z</time></trkpt><trkpt lat="46.08244136346155" lon="11.629783358883834"><ele>1199.0</ele><time>2026-05-02T10:26:17Z</time></trkpt><trkpt lat="46.08259601845177" lon="11.629750409192228"><ele>1204.0</ele><time>2026-05-02T10:26:18Z</time></trkpt><trkpt lat="46.08276409206653" lon="11.629692478528337"><ele>1209.0</ele><time>2026-05-02T10:26:19Z</time></trkpt><trkpt lat="46.08292853530264" lon="11.629636118597675"><ele>1209.0</ele><time>2026-05-02T10:26:20Z</time></trkpt><trkpt lat="46.08308813202589" lon="11.629541673779501"><ele>1209.0</ele><time>2026-05-02T10:26:21Z</time></trkpt><trkpt lat="46.083253275420724" lon="11.62939788644293"><ele>1209.0</ele><time>2026-05-02T10:26:22Z</time></trkpt><trkpt lat="46.08343977676287" lon="11.629293685303924"><ele>1217.3333333333333</ele><time>2026-05-02T10:26:23Z</time></trkpt><trkpt lat="46.08362746571419" lon="11.629199607031676"><ele>1225.6666666666665</ele><time>2026-05-02T10:26:24Z</time></trkpt><trkpt lat="46.083804673562646" lon="11.629089539637219"><ele>1234.0</ele><time>2026-05-02T10:26:25Z</time></trkpt><trkpt lat="46.08395767663818" lon="11.629012386816573"><ele>1232.6666666666665</ele><time>2026-05-02T10:26:26Z</time></trkpt><trkpt lat="46.08411423461245" lon="11.629004412828966"><ele>1231.3333333333333</ele><time>2026-05-02T10:26:27Z</time></trkpt><trkpt lat="46.08428150955087" lon="11.629036909320943"><ele>1230.0</ele><time>2026-05-02T10:26:28Z</time></trkpt><trkpt lat="46.08447096270426" lon="11.629053914817513"><ele>1230.0</ele><time>2026-05-02T10:26:29Z</time></trkpt><trkpt lat="46.08466559620968" lon="11.629089902840215"><ele>1230.0</ele><time>2026-05-02T10:26:30Z</time></trkpt><trkpt lat="46.084857321962595" lon="11.629108208014605"><ele>1230.0</ele><time>2026-05-02T10:26:31Z</time></trkpt><trkpt lat="46.085042488323005" lon="11.629125519021517"><ele>1232.6666666666667</ele><time>2026-05-02T10:26:32Z</time></trkpt><trkpt lat="46.085228385702614" lon="11.629147504763433"><ele>1235.3333333333335</ele><time>2026-05-02T10:26:33Z</time></trkpt><trkpt lat="46.085416163971175" lon="11.629168157922336"><ele>1238.0</ele><time>2026-05-02T10:26:34Z</time></trkpt><trkpt lat="46.08560135831191" lon="11.629187919377232"><ele>1242.6666666666667</ele><time>2026-05-02T10:26:35.001Z</time></trkpt><trkpt lat="46.08578841795326" lon="11.629210707073591"><ele>1247.3333333333333</ele><time>2026-05-02T10:26:36.001Z</time></trkpt><trkpt lat="46.085967828880165" lon="11.629269900660857"><ele>1252.0</ele><time>2026-05-02T10:26:37.001Z</time></trkpt><trkpt lat="46.086142987404365" lon="11.629344701909194"><ele>1252.0</ele><time>2026-05-02T10:26:38.001Z</time></trkpt><trkpt lat="46.08631987566852" lon="11.629404988949798"><ele>1252.0</ele><time>2026-05-02T10:26:39.001Z</time></trkpt><trkpt lat="46.086495963052386" lon="11.629468364722932"><ele>1252.0</ele><time>2026-05-02T10:26:40.001Z</time></trkpt><trkpt lat="46.08666890304616" lon="11.629531427358108"><ele>1252.0</ele><time>2026-05-02T10:26:41.001Z</time></trkpt><trkpt lat="46.08684303217162" lon="11.629595669261853"><ele>1252.0</ele><time>2026-05-02T10:26:42.001Z</time></trkpt><trkpt lat="46.087012991419755" lon="11.62965951236464"><ele>1252.0</ele><time>2026-05-02T10:26:43.001Z</time></trkpt><trkpt lat="46.08717919660777" lon="11.629776622039952"><ele>1252.0</ele><time>2026-05-02T10:26:44.001Z</time></trkpt><trkpt lat="46.087324936067" lon="11.629942746240872"><ele>1252.0</ele><time>2026-05-02T10:26:45.001Z</time></trkpt><trkpt lat="46.087480425020104" lon="11.630117787215768"><ele>1252.0</ele><time>2026-05-02T10:26:46.001Z</time></trkpt><trkpt lat="46.08763402516367" lon="11.630296815917742"><ele>1252.3333333333333</ele><time>2026-05-02T10:26:47.001Z</time></trkpt><trkpt lat="46.08778919493066" lon="11.630471702985348"><ele>1252.6666666666667</ele><time>2026-05-02T10:26:48.001Z</time></trkpt><trkpt lat="46.087949704891315" lon="11.630642653531249"><ele>1253.0</ele><time>2026-05-02T10:26:49.001Z</time></trkpt><trkpt lat="46.08810672132772" lon="11.630810646647719"><ele>1254.3333333333335</ele><time>2026-05-02T10:26:50.001Z</time></trkpt><trkpt lat="46.08827641608044" lon="11.63095631878376"><ele>1255.6666666666667</ele><time>2026-05-02T10:26:51.001Z</time></trkpt><trkpt lat="46.0884236743" lon="11.631107678125415"><ele>1257.0</ele><time>2026-05-02T10:26:52.001Z</time></trkpt><trkpt lat="46.08856926188115" lon="11.631233200244733"><ele>1257.0</ele><time>2026-05-02T10:26:53.001Z</time></trkpt><trkpt lat="46.088687441726435" lon="11.631418095103697"><ele>1257.0</ele><time>2026-05-02T10:26:54.001Z</time></trkpt><trkpt lat="46.088781898908614" lon="11.631604895794146"><ele>1257.0</ele><time>2026-05-02T10:26:55.001Z</time></trkpt><trkpt lat="46.08887064349777" lon="11.631773048991443"><ele>1257.0</ele><time>2026-05-02T10:26:56.001Z</time></trkpt><trkpt lat="46.088956147730286" lon="11.631912474000142"><ele>1257.0</ele><time>2026-05-02T10:26:57.001Z</time></trkpt><trkpt lat="46.08906853078335" lon="11.632022087095514"><ele>1257.0</ele><time>2026-05-02T10:26:58.001Z</time></trkpt><trkpt lat="46.08921128677023" lon="11.632099937467501"><ele>1257.0</ele><time>2026-05-02T10:26:59.001Z</time></trkpt><trkpt lat="46.08935945672963" lon="11.63215934456838"><ele>1258.75</ele><time>2026-05-02T10:27:00.001Z</time></trkpt><trkpt lat="46.08949316038952" lon="11.632262123311941"><ele>1260.5</ele><time>2026-05-02T10:27:01.001Z</time></trkpt><trkpt lat="46.089569666711505" lon="11.632444983568199"><ele>1262.25</ele><time>2026-05-02T10:27:02.001Z</time></trkpt><trkpt lat="46.089665065969605" lon="11.632611371117306"><ele>1264.0</ele><time>2026-05-02T10:27:03.001Z</time></trkpt><trkpt lat="46.089755316551404" lon="11.632770102395495"><ele>1265.25</ele><time>2026-05-02T10:27:04.001Z</time></trkpt><trkpt lat="46.089852179541" lon="11.632897107813244"><ele>1266.5</ele><time>2026-05-02T10:27:05.001Z</time></trkpt><trkpt lat="46.0899572624637" lon="11.632996061542162"><ele>1267.75</ele><time>2026-05-02T10:27:06.001Z</time></trkpt><trkpt lat="46.0900969535443" lon="11.633048454262141"><ele>1269.0</ele><time>2026-05-02T10:27:07.001Z</time></trkpt><trkpt lat="46.09026531035417" lon="11.63308013560225"><ele>1269.0</ele><time>2026-05-02T10:27:08.001Z</time></trkpt><trkpt lat="46.09044127491971" lon="11.63311513043119"><ele>1269.0</ele><time>2026-05-02T10:27:09.001Z</time></trkpt><trkpt lat="46.0906253653752" lon="11.633162380668045"><ele>1269.0</ele><time>2026-05-02T10:27:10.001Z</time></trkpt><trkpt lat="46.09081347151483" lon="11.633207346435377"><ele>1275.0</ele><time>2026-05-02T10:27:11.001Z</time></trkpt><trkpt lat="46.091004768556466" lon="11.633248840388045"><ele>1281.0</ele><time>2026-05-02T10:27:12.001Z</time></trkpt><trkpt lat="46.0911946627879" lon="11.63331464480881"><ele>1287.0</ele><time>2026-05-02T10:27:13.001Z</time></trkpt><trkpt lat="46.091384554941826" lon="11.633358656500961"><ele>1287.0</ele><time>2026-05-02T10:27:14.001Z</time></trkpt><trkpt lat="46.09157427956435" lon="11.633403505492769"><ele>1287.0</ele><time>2026-05-02T10:27:15.001Z</time></trkpt><trkpt lat="46.09176152273386" lon="11.63346311451771"><ele>1287.0</ele><time>2026-05-02T10:27:16.001Z</time></trkpt><trkpt lat="46.09194994018935" lon="11.633536540112111"><ele>1286.0</ele><time>2026-05-02T10:27:17.001Z</time></trkpt><trkpt lat="46.092124627950064" lon="11.633667496887584"><ele>1285.0</ele><time>2026-05-02T10:27:18.001Z</time></trkpt><trkpt lat="46.092271324541656" lon="11.633850036969099"><ele>1284.0</ele><time>2026-05-02T10:27:19.001Z</time></trkpt><trkpt lat="46.09240501595404" lon="11.634048763151382"><ele>1290.3333333333333</ele><time>2026-05-02T10:27:20.001Z</time></trkpt><trkpt lat="46.09253360675153" lon="11.63426510526783"><ele>1296.6666666666665</ele><time>2026-05-02T10:27:21.001Z</time></trkpt><trkpt lat="46.0926283565069" lon="11.634521288144672"><ele>1303.0</ele><time>2026-05-02T10:27:22Z</time></trkpt><trkpt lat="46.09272511132346" lon="11.63477321964225"><ele>1303.0</ele><time>2026-05-02T10:27:23Z</time></trkpt><trkpt lat="46.092841052229296" lon="11.6349992683329"><ele>1303.0</ele><time>2026-05-02T10:27:24Z</time></trkpt><trkpt lat="46.092965190317216" lon="11.635218208573614"><ele>1303.0</ele><time>2026-05-02T10:27:25Z</time></trkpt><trkpt lat="46.09308778085871" lon="11.63543866272954"><ele>1298.3333333333333</ele><time>2026-05-02T10:27:26Z</time></trkpt><trkpt lat="46.093209289362676" lon="11.635657229554425"><ele>1293.6666666666667</ele><time>2026-05-02T10:27:27Z</time></trkpt><trkpt lat="46.093327850757184" lon="11.635875067884156"><ele>1289.0</ele><time>2026-05-02T10:27:28Z</time></trkpt><trkpt lat="46.09345069049419" lon="11.636077845833976"><ele>1295.3333333333335</ele><time>2026-05-02T10:27:29Z</time></trkpt><trkpt lat="46.09358695010865" lon="11.636265815505572"><ele>1301.6666666666667</ele><time>2026-05-02T10:27:30Z</time></trkpt><trkpt lat="46.09372987842989" lon="11.636450865693117"><ele>1308.0</ele><time>2026-05-02T10:27:31Z</time></trkpt><trkpt lat="46.09387170021007" lon="11.636636676591506"><ele>1308.0</ele><time>2026-05-02T10:27:32Z</time></trkpt><trkpt lat="46.0940180818358" lon="11.636813878437584"><ele>1308.0</ele><time>2026-05-02T10:27:33Z</time></trkpt><trkpt lat="46.094167586635486" lon="11.636965489095454"><ele>1308.0</ele><time>2026-05-02T10:27:34Z</time></trkpt><trkpt lat="46.09430053311624" lon="11.637093212150987"><ele>1314.0</ele><time>2026-05-02T10:27:35Z</time></trkpt><trkpt lat="46.094403379102566" lon="11.63723369856543"><ele>1320.0</ele><time>2026-05-02T10:27:36Z</time></trkpt><trkpt lat="46.09446886055724" lon="11.637398322642527"><ele>1326.0</ele><time>2026-05-02T10:27:37Z</time></trkpt><trkpt lat="46.09446922672307" lon="11.637592081069053"><ele>1332.0</ele><time>2026-05-02T10:27:38Z</time></trkpt><trkpt lat="46.09444957950432" lon="11.637778819627455"><ele>1333.0</ele><time>2026-05-02T10:27:39Z</time></trkpt><trkpt lat="46.09438817843617" lon="11.637964488115633"><ele>1334.0</ele><time>2026-05-02T10:27:40Z</time></trkpt><trkpt lat="46.09430487316166" lon="11.638170232092842"><ele>1335.0</ele><time>2026-05-02T10:27:41Z</time></trkpt><trkpt lat="46.09420856722022" lon="11.63838438817486"><ele>1335.0</ele><time>2026-05-02T10:27:42Z</time></trkpt><trkpt lat="46.0941026892881" lon="11.63859453136005"><ele>1335.0</ele><time>2026-05-02T10:27:43Z</time></trkpt><trkpt lat="46.093963212435305" lon="11.638762838827104"><ele>1335.0</ele><time>2026-05-02T10:27:44Z</time></trkpt><trkpt lat="46.09383809997226" lon="11.638947638846474"><ele>1334.6666666666667</ele><time>2026-05-02T10:27:45Z</time></trkpt><trkpt lat="46.09369498292386" lon="11.639126994115738"><ele>1334.3333333333335</ele><time>2026-05-02T10:27:46Z</time></trkpt><trkpt lat="46.09355816426649" lon="11.639299778612472"><ele>1334.0</ele><time>2026-05-02T10:27:47Z</time></trkpt><trkpt lat="46.093441193100844" lon="11.639449697603535"><ele>1331.3333333333335</ele><time>2026-05-02T10:27:48Z</time></trkpt><trkpt lat="46.09334483839745" lon="11.639619786093252"><ele>1328.6666666666667</ele><time>2026-05-02T10:27:49Z</time></trkpt><trkpt lat="46.09326714068924" lon="11.639823163729236"><ele>1326.0</ele><time>2026-05-02T10:27:50Z</time></trkpt><trkpt lat="46.093198966377564" lon="11.640032932929639"><ele>1326.0</ele><time>2026-05-02T10:27:51Z</time></trkpt><trkpt lat="46.093133696610174" lon="11.640234271000034"><ele>1326.0</ele><time>2026-05-02T10:27:52Z</time></trkpt><trkpt lat="46.0930657311898" lon="11.640411021381581"><ele>1326.0</ele><time>2026-05-02T10:27:53Z</time></trkpt><trkpt lat="46.09302106771148" lon="11.64057892370458"><ele>1326.0</ele><time>2026-05-02T10:27:54Z</time></trkpt><trkpt lat="46.092980103035686" lon="11.640737390597135"><ele>1331.25</ele><time>2026-05-02T10:27:55Z</time></trkpt><trkpt lat="46.09291219964156" lon="11.64088422500676"><ele>1336.5</ele><time>2026-05-02T10:27:56Z</time></trkpt><trkpt lat="46.0928043002585" lon="11.640992388156459"><ele>1341.75</ele><time>2026-05-02T10:27:57Z</time></trkpt><trkpt lat="46.09267628572831" lon="11.641046289001833"><ele>1347.0</ele><time>2026-05-02T10:27:58Z</time></trkpt><trkpt lat="46.09254512149681" lon="11.641099625366056"><ele>1349.75</ele><time>2026-05-02T10:27:59Z</time></trkpt><trkpt lat="46.092422661831144" lon="11.641191688003461"><ele>1352.5</ele><time>2026-05-02T10:28:00Z</time></trkpt><trkpt lat="46.09230453062503" lon="11.641309399120649"><ele>1355.25</ele><time>2026-05-02T10:28:01Z</time></trkpt><trkpt lat="46.092196796967315" lon="11.641455418341977"><ele>1358.0</ele><time>2026-05-02T10:28:02Z</time></trkpt><trkpt lat="46.09209823302489" lon="11.641628320780061"><ele>1358.0</ele><time>2026-05-02T10:28:03Z</time></trkpt><trkpt lat="46.09200469784604" lon="11.641822541938607"><ele>1358.0</ele><time>2026-05-02T10:28:04Z</time></trkpt><trkpt lat="46.091905473641035" lon="11.642000300260806"><ele>1358.0</ele><time>2026-05-02T10:28:05Z</time></trkpt><trkpt lat="46.09178140072696" lon="11.642126528212012"><ele>1366.3333333333335</ele><time>2026-05-02T10:28:06Z</time></trkpt><trkpt lat="46.09163221285675" lon="11.642200892568603"><ele>1374.6666666666667</ele><time>2026-05-02T10:28:07Z</time></trkpt><trkpt lat="46.09147654331346" lon="11.642181843443737"><ele>1383.0</ele><time>2026-05-02T10:28:08Z</time></trkpt><trkpt lat="46.09130879978657" lon="11.642179301185035"><ele>1383.3333333333333</ele><time>2026-05-02T10:28:09Z</time></trkpt><trkpt lat="46.09113108148811" lon="11.642152047931086"><ele>1383.6666666666665</ele><time>2026-05-02T10:28:10Z</time></trkpt><trkpt lat="46.090950947049016" lon="11.642151514920872"><ele>1384.0</ele><time>2026-05-02T10:28:11Z</time></trkpt><trkpt lat="46.0907696375219" lon="11.642165837590241"><ele>1380.6666666666665</ele><time>2026-05-02T10:28:12Z</time></trkpt><trkpt lat="46.090580338640535" lon="11.64220332235063"><ele>1377.3333333333333</ele><time>2026-05-02T10:28:13Z</time></trkpt><trkpt lat="46.0904184279831" lon="11.642240028315136"><ele>1374.0</ele><time>2026-05-02T10:28:14Z</time></trkpt><trkpt lat="46.09027305188183" lon="11.64226721345903"><ele>1374.0</ele><time>2026-05-02T10:28:15Z</time></trkpt><trkpt lat="46.09014560321636" lon="11.642302115234997"><ele>1374.0</ele><time>2026-05-02T10:28:16Z</time></trkpt><trkpt lat="46.09002597305616" lon="11.642373669525485"><ele>1374.0</ele><time>2026-05-02T10:28:17Z</time></trkpt><trkpt lat="46.08991630812874" lon="11.642476442795658"><ele>1374.0</ele><time>2026-05-02T10:28:18Z</time></trkpt><trkpt lat="46.08982515814859" lon="11.64262325409975"><ele>1368.75</ele><time>2026-05-02T10:28:19Z</time></trkpt><trkpt lat="46.08975442084349" lon="11.642798030803181"><ele>1363.5</ele><time>2026-05-02T10:28:20Z</time></trkpt><trkpt lat="46.0897046476134" lon="11.642971877923186"><ele>1358.25</ele><time>2026-05-02T10:28:21Z</time></trkpt><trkpt lat="46.08966704926634" lon="11.643129568966817"><ele>1353.0</ele><time>2026-05-02T10:28:22Z</time></trkpt><trkpt lat="46.08963202507344" lon="11.643283854667429"><ele>1353.0</ele><time>2026-05-02T10:28:23Z</time></trkpt><trkpt lat="46.0895906672303" lon="11.643423843312307"><ele>1353.0</ele><time>2026-05-02T10:28:24Z</time></trkpt><trkpt lat="46.089570630298425" lon="11.643546263030238"><ele>1353.0</ele><time>2026-05-02T10:28:25Z</time></trkpt><trkpt lat="46.08959670700685" lon="11.643655644884788"><ele>1353.0</ele><time>2026-05-02T10:28:26Z</time></trkpt><trkpt lat="46.08966514137289" lon="11.643707269627717"><ele>1353.0</ele><time>2026-05-02T10:28:27Z</time></trkpt><trkpt lat="46.08973944434135" lon="11.643676946448334"><ele>1353.0</ele><time>2026-05-02T10:28:28Z</time></trkpt><trkpt lat="46.08978938564808" lon="11.643575097424879"><ele>1353.0</ele><time>2026-05-02T10:28:29Z</time></trkpt><trkpt lat="46.08979701374152" lon="11.643447194782826"><ele>1353.0</ele><time>2026-05-02T10:28:30Z</time></trkpt><trkpt lat="46.08977936320731" lon="11.643314093875723"><ele>1353.0</ele><time>2026-05-02T10:28:31Z</time></trkpt><trkpt lat="46.0897871448436" lon="11.643189017473913"><ele>1353.0</ele><time>2026-05-02T10:28:32Z</time></trkpt><trkpt lat="46.089819765657985" lon="11.643047811423301"><ele>1353.0</ele><time>2026-05-02T10:28:33Z</time></trkpt><trkpt lat="46.08986849042613" lon="11.642909133777524"><ele>1358.25</ele><time>2026-05-02T10:28:34Z</time></trkpt><trkpt lat="46.08994974938283" lon="11.642786734336728"><ele>1363.5</ele><time>2026-05-02T10:28:35Z</time></trkpt><trkpt lat="46.090049542099194" lon="11.64270087611293"><ele>1368.75</ele><time>2026-05-02T10:28:36Z</time></trkpt><trkpt lat="46.09016522017245" lon="11.642677464279954"><ele>1374.0</ele><time>2026-05-02T10:28:37Z</time></trkpt><trkpt lat="46.09027184172476" lon="11.642666935335415"><ele>1374.0</ele><time>2026-05-02T10:28:38Z</time></trkpt><trkpt lat="46.09038668170746" lon="11.642669748841865"><ele>1374.0</ele><time>2026-05-02T10:28:39Z</time></trkpt><trkpt lat="46.09050446969234" lon="11.642681113718837"><ele>1374.0</ele><time>2026-05-02T10:28:40Z</time></trkpt><trkpt lat="46.090628060144574" lon="11.642687553583647"><ele>1374.0</ele><time>2026-05-02T10:28:41Z</time></trkpt><trkpt lat="46.090750966733495" lon="11.642669621137946"><ele>1376.5</ele><time>2026-05-02T10:28:42Z</time></trkpt><trkpt lat="46.09087433846214" lon="11.642679189471789"><ele>1379.0</ele><time>2026-05-02T10:28:43Z</time></trkpt><trkpt lat="46.090997400962024" lon="11.642706734482637"><ele>1381.5</ele><time>2026-05-02T10:28:44Z</time></trkpt><trkpt lat="46.09111629732977" lon="11.642769678296014"><ele>1384.0</ele><time>2026-05-02T10:28:45Z</time></trkpt><trkpt lat="46.09123445427388" lon="11.642847931934586"><ele>1390.5</ele><time>2026-05-02T10:28:46Z</time></trkpt><trkpt lat="46.0913552993136" lon="11.642928504595073"><ele>1397.0</ele><time>2026-05-02T10:28:47.001Z</time></trkpt><trkpt lat="46.09147649355638" lon="11.643007563064515"><ele>1403.5</ele><time>2026-05-02T10:28:48.001Z</time></trkpt><trkpt lat="46.09159922014537" lon="11.643088955538065"><ele>1410.0</ele><time>2026-05-02T10:28:49.001Z</time></trkpt><trkpt lat="46.091719243755826" lon="11.643176609951526"><ele>1410.0</ele><time>2026-05-02T10:28:50.001Z</time></trkpt><trkpt lat="46.09182579138776" lon="11.643251742608493"><ele>1410.0</ele><time>2026-05-02T10:28:51.001Z</time></trkpt><trkpt lat="46.091927422585584" lon="11.643288321196865"><ele>1410.0</ele><time>2026-05-02T10:28:52.001Z</time></trkpt><trkpt lat="46.092021174470034" lon="11.64325331722263"><ele>1410.0</ele><time>2026-05-02T10:28:53.001Z</time></trkpt><trkpt lat="46.092104741610534" lon="11.643169633099228"><ele>1410.0</ele><time>2026-05-02T10:28:54.001Z</time></trkpt><trkpt lat="46.09216593980283" lon="11.643092414176245"><ele>1409.9999999999998</ele><time>2026-05-02T10:28:55.001Z</time></trkpt><trkpt lat="46.092235456604364" lon="11.643099184325438"><ele>1410.0</ele><time>2026-05-02T10:28:56.001Z</time></trkpt><trkpt lat="46.09228027441488" lon="11.643178441975769"><ele>1410.0</ele><time>2026-05-02T10:28:57.001Z</time></trkpt><trkpt lat="46.092271150466836" lon="11.643270510723374"><ele>1410.0</ele><time>2026-05-02T10:28:58.001Z</time></trkpt><trkpt lat="46.0922266937887" lon="11.643345757097512"><ele>1410.0</ele><time>2026-05-02T10:28:59.001Z</time></trkpt><trkpt lat="46.09215741275648" lon="11.643353761560796"><ele>1409.9999999999998</ele><time>2026-05-02T10:29:00.001Z</time></trkpt><trkpt lat="46.09209003536673" lon="11.643391963120521"><ele>1410.0</ele><time>2026-05-02T10:29:01.001Z</time></trkpt><trkpt lat="46.09201483548374" lon="11.643405619651276"><ele>1410.0</ele><time>2026-05-02T10:29:02.001Z</time></trkpt><trkpt lat="46.09193517848878" lon="11.643420714302854"><ele>1410.0</ele><time>2026-05-02T10:29:03.001Z</time></trkpt><trkpt lat="46.09185194274674" lon="11.643417823848177"><ele>1410.0</ele><time>2026-05-02T10:29:04.001Z</time></trkpt><trkpt lat="46.091769116799576" lon="11.643378023346061"><ele>1410.0</ele><time>2026-05-02T10:29:05.001Z</time></trkpt><trkpt lat="46.0916892917736" lon="11.643338075725051"><ele>1410.0</ele><time>2026-05-02T10:29:06.001Z</time></trkpt><trkpt lat="46.09160669273382" lon="11.643301340979175"><ele>1410.0</ele><time>2026-05-02T10:29:07.001Z</time></trkpt><trkpt lat="46.09152561629402" lon="11.64327120254145"><ele>1410.4</ele><time>2026-05-02T10:29:08.001Z</time></trkpt><trkpt lat="46.09144297258364" lon="11.643245374958678"><ele>1410.8</ele><time>2026-05-02T10:29:09.001Z</time></trkpt><trkpt lat="46.09135285259696" lon="11.643211595924477"><ele>1411.1999999999998</ele><time>2026-05-02T10:29:10.001Z</time></trkpt><trkpt lat="46.09125924101131" lon="11.643174463495242"><ele>1411.6</ele><time>2026-05-02T10:29:11.001Z</time></trkpt><trkpt lat="46.0911663915624" lon="11.643113428513404"><ele>1412.0</ele><time>2026-05-02T10:29:12.001Z</time></trkpt><trkpt lat="46.09107036092993" lon="11.643108884677007"><ele>1412.0</ele><time>2026-05-02T10:29:13.001Z</time></trkpt><trkpt lat="46.09099157238787" lon="11.643087195841199"><ele>1412.0</ele><time>2026-05-02T10:29:14.001Z</time></trkpt><trkpt lat="46.09092647105581" lon="11.643078639409861"><ele>1412.0</ele><time>2026-05-02T10:29:15.001Z</time></trkpt><trkpt lat="46.09083144208192" lon="11.643099308552667"><ele>1412.0</ele><time>2026-05-02T10:29:17.001Z</time></trkpt><trkpt lat="46.09076300253053" lon="11.64312130254404"><ele>1412.0</ele><time>2026-05-02T10:29:26.001Z</time></trkpt><trkpt lat="46.09069697951927" lon="11.643141261810603"><ele>1412.0</ele><time>2026-05-02T10:29:27.001Z</time></trkpt><trkpt lat="46.090600454155584" lon="11.643177294715835"><ele>1408.0</ele><time>2026-05-02T10:29:28Z</time></trkpt><trkpt lat="46.09049945358218" lon="11.643197490872083"><ele>1404.0</ele><time>2026-05-02T10:29:29Z</time></trkpt><trkpt lat="46.09040426736875" lon="11.643218141866434"><ele>1400.0</ele><time>2026-05-02T10:29:30Z</time></trkpt><trkpt lat="46.09033245738533" lon="11.643305153791292"><ele>1396.0</ele><time>2026-05-02T10:29:31Z</time></trkpt><trkpt lat="46.09030242070002" lon="11.64343870406362"><ele>1392.0</ele><time>2026-05-02T10:29:32Z</time></trkpt><trkpt lat="46.09031983001784" lon="11.643573745627965"><ele>1392.0</ele><time>2026-05-02T10:29:33Z</time></trkpt><trkpt lat="46.090384848620516" lon="11.643670152562073"><ele>1392.0</ele><time>2026-05-02T10:29:34Z</time></trkpt><trkpt lat="46.09047638853255" lon="11.643702047937897"><ele>1392.0</ele><time>2026-05-02T10:29:35Z</time></trkpt><trkpt lat="46.090571710798066" lon="11.643708031965781"><ele>1392.0</ele><time>2026-05-02T10:29:36Z</time></trkpt><trkpt lat="46.090655806755144" lon="11.64360094462981"><ele>1392.0</ele><time>2026-05-02T10:29:37Z</time></trkpt><trkpt lat="46.090719490386824" lon="11.643474405966476"><ele>1397.0</ele><time>2026-05-02T10:29:38Z</time></trkpt><trkpt lat="46.09082119170553" lon="11.643415091588956"><ele>1402.0</ele><time>2026-05-02T10:29:39Z</time></trkpt><trkpt lat="46.090932767635266" lon="11.643404299131497"><ele>1407.0</ele><time>2026-05-02T10:29:40Z</time></trkpt><trkpt lat="46.09104866401013" lon="11.643437326783337"><ele>1412.0</ele><time>2026-05-02T10:29:41Z</time></trkpt><trkpt lat="46.09116733994717" lon="11.643497981840948"><ele>1412.0</ele><time>2026-05-02T10:29:42Z</time></trkpt><trkpt lat="46.09129177468087" lon="11.643568213461904"><ele>1412.0</ele><time>2026-05-02T10:29:43Z</time></trkpt><trkpt lat="46.09141490633483" lon="11.643667816489023"><ele>1412.0</ele><time>2026-05-02T10:29:44Z</time></trkpt><trkpt lat="46.0915393394304" lon="11.643775609854602"><ele>1412.0</ele><time>2026-05-02T10:29:45Z</time></trkpt><trkpt lat="46.09166533183373" lon="11.643878802779055"><ele>1420.0</ele><time>2026-05-02T10:29:46Z</time></trkpt><trkpt lat="46.091787950890755" lon="11.643983856512651"><ele>1428.0</ele><time>2026-05-02T10:29:47Z</time></trkpt><trkpt lat="46.091909928879204" lon="11.644083326565713"><ele>1436.0</ele><time>2026-05-02T10:29:48Z</time></trkpt><trkpt lat="46.09204326721741" lon="11.644140145157893"><ele>1444.0</ele><time>2026-05-02T10:29:49Z</time></trkpt><trkpt lat="46.092181297344936" lon="11.64414955933659"><ele>1444.0</ele><time>2026-05-02T10:29:50Z</time></trkpt><trkpt lat="46.09232261358574" lon="11.644138854637259"><ele>1444.0</ele><time>2026-05-02T10:29:51Z</time></trkpt><trkpt lat="46.09245415947005" lon="11.644062845301622"><ele>1444.0</ele><time>2026-05-02T10:29:52Z</time></trkpt><trkpt lat="46.09258098818514" lon="11.64396673885662"><ele>1444.0</ele><time>2026-05-02T10:29:53Z</time></trkpt><trkpt lat="46.09270673985822" lon="11.643846842201393"><ele>1446.3333333333333</ele><time>2026-05-02T10:29:54Z</time></trkpt><trkpt lat="46.092842296176" lon="11.64374341949012"><ele>1448.6666666666667</ele><time>2026-05-02T10:29:55Z</time></trkpt><trkpt lat="46.09299719012425" lon="11.643674667379251"><ele>1451.0</ele><time>2026-05-02T10:29:56Z</time></trkpt><trkpt lat="46.09316563057052" lon="11.643613256081645"><ele>1450.0</ele><time>2026-05-02T10:29:57Z</time></trkpt><trkpt lat="46.09333567751485" lon="11.643534273831836"><ele>1449.0</ele><time>2026-05-02T10:29:58Z</time></trkpt><trkpt lat="46.09350223038132" lon="11.643424652150696"><ele>1448.0</ele><time>2026-05-02T10:29:59Z</time></trkpt><trkpt lat="46.093653921478" lon="11.643270604273676"><ele>1448.0</ele><time>2026-05-02T10:30:00Z</time></trkpt><trkpt lat="46.0938207593539" lon="11.643132689967453"><ele>1448.0</ele><time>2026-05-02T10:30:01Z</time></trkpt><trkpt lat="46.09397601915389" lon="11.642978248735771"><ele>1448.0</ele><time>2026-05-02T10:30:02Z</time></trkpt><trkpt lat="46.09416090766525" lon="11.642881429991883"><ele>1445.0</ele><time>2026-05-02T10:30:03Z</time></trkpt><trkpt lat="46.09435072091153" lon="11.642808847628238"><ele>1442.0</ele><time>2026-05-02T10:30:04Z</time></trkpt><trkpt lat="46.09453188920769" lon="11.642718917055628"><ele>1439.0</ele><time>2026-05-02T10:30:05Z</time></trkpt><trkpt lat="46.09470832251456" lon="11.64261847586182"><ele>1439.0</ele><time>2026-05-02T10:30:06Z</time></trkpt><trkpt lat="46.094883483048385" lon="11.642514107726601"><ele>1439.0</ele><time>2026-05-02T10:30:07Z</time></trkpt><trkpt lat="46.09505461281925" lon="11.642408159555185"><ele>1439.0</ele><time>2026-05-02T10:30:08Z</time></trkpt><trkpt lat="46.095221401381345" lon="11.64230598764691"><ele>1446.0</ele><time>2026-05-02T10:30:09Z</time></trkpt><trkpt lat="46.09538181378849" lon="11.642212226508434"><ele>1453.0</ele><time>2026-05-02T10:30:10Z</time></trkpt><trkpt lat="46.09553455176797" lon="11.642120968458203"><ele>1460.0</ele><time>2026-05-02T10:30:11Z</time></trkpt><trkpt lat="46.09568463281717" lon="11.642024012139327"><ele>1460.0</ele><time>2026-05-02T10:30:12Z</time></trkpt><trkpt lat="46.095830435757975" lon="11.6419268829276"><ele>1460.0</ele><time>2026-05-02T10:30:13Z</time></trkpt><trkpt lat="46.09597416835097" lon="11.641830436905133"><ele>1460.0</ele><time>2026-05-02T10:30:14Z</time></trkpt><trkpt lat="46.09612159364311" lon="11.641755037214537"><ele>1460.0</ele><time>2026-05-02T10:30:15Z</time></trkpt><trkpt lat="46.096277553540226" lon="11.641711062943154"><ele>1460.0</ele><time>2026-05-02T10:30:16Z</time></trkpt><trkpt lat="46.096437430812266" lon="11.641729934651195"><ele>1460.0</ele><time>2026-05-02T10:30:17Z</time></trkpt><trkpt lat="46.096595767201386" lon="11.64171919923294"><ele>1465.6666666666667</ele><time>2026-05-02T10:30:18Z</time></trkpt><trkpt lat="46.09675528298102" lon="11.641729868224859"><ele>1471.3333333333333</ele><time>2026-05-02T10:30:19Z</time></trkpt><trkpt lat="46.096913287326245" lon="11.641758578639555"><ele>1477.0</ele><time>2026-05-02T10:30:20Z</time></trkpt><trkpt lat="46.09706955951734" lon="11.641748104675044"><ele>1477.0</ele><time>2026-05-02T10:30:21Z</time></trkpt><trkpt lat="46.09722468121336" lon="11.641742509889397"><ele>1477.0</ele><time>2026-05-02T10:30:22Z</time></trkpt><trkpt lat="46.097376189196254" lon="11.641688971147808"><ele>1477.0</ele><time>2026-05-02T10:30:23Z</time></trkpt><trkpt lat="46.097520510663735" lon="11.641591327143358"><ele>1480.6666666666665</ele><time>2026-05-02T10:30:24Z</time></trkpt><trkpt lat="46.09765485143242" lon="11.641472601575636"><ele>1484.3333333333333</ele><time>2026-05-02T10:30:25Z</time></trkpt><trkpt lat="46.09778692647317" lon="11.641348172185348"><ele>1488.0</ele><time>2026-05-02T10:30:26Z</time></trkpt><trkpt lat="46.09792079247535" lon="11.641224693612918"><ele>1487.3333333333333</ele><time>2026-05-02T10:30:27Z</time></trkpt><trkpt lat="46.09806061210533" lon="11.641106704708204"><ele>1486.6666666666665</ele><time>2026-05-02T10:30:28Z</time></trkpt><trkpt lat="46.098199037438775" lon="11.640987373801538"><ele>1486.0</ele><time>2026-05-02T10:30:29Z</time></trkpt><trkpt lat="46.09833513400855" lon="11.64086498090547"><ele>1486.0</ele><time>2026-05-02T10:30:30Z</time></trkpt><trkpt lat="46.09847341185504" lon="11.640742191280163"><ele>1486.0</ele><time>2026-05-02T10:30:31Z</time></trkpt><trkpt lat="46.09860599373615" lon="11.64061797456077"><ele>1486.0</ele><time>2026-05-02T10:30:32Z</time></trkpt><trkpt lat="46.098743379896526" lon="11.640498007042616"><ele>1486.0</ele><time>2026-05-02T10:30:33Z</time></trkpt><trkpt lat="46.09888114553829" lon="11.640373478949005"><ele>1486.0</ele><time>2026-05-02T10:30:34Z</time></trkpt><trkpt lat="46.099017407098195" lon="11.640247219606147"><ele>1486.0</ele><time>2026-05-02T10:30:35Z</time></trkpt><trkpt lat="46.099161570506936" lon="11.640146000526101"><ele>1490.0</ele><time>2026-05-02T10:30:36Z</time></trkpt><trkpt lat="46.099288888823494" lon="11.640009327818419"><ele>1494.0</ele><time>2026-05-02T10:30:37Z</time></trkpt><trkpt lat="46.099418707521814" lon="11.639885974746946"><ele>1498.0</ele><time>2026-05-02T10:30:38Z</time></trkpt><trkpt lat="46.099528141777476" lon="11.639729275540773"><ele>1498.0</ele><time>2026-05-02T10:30:39Z</time></trkpt><trkpt lat="46.09960416825414" lon="11.639539932297744"><ele>1498.0</ele><time>2026-05-02T10:30:40Z</time></trkpt><trkpt lat="46.09965183749087" lon="11.639333942837062"><ele>1498.0</ele><time>2026-05-02T10:30:41Z</time></trkpt><trkpt lat="46.099707349630805" lon="11.639130877536115"><ele>1494.6666666666665</ele><time>2026-05-02T10:30:42Z</time></trkpt><trkpt lat="46.09973678506197" lon="11.638918919509006"><ele>1491.3333333333333</ele><time>2026-05-02T10:30:43Z</time></trkpt><trkpt lat="46.09978558847108" lon="11.63871422263172"><ele>1488.0</ele><time>2026-05-02T10:30:44Z</time></trkpt><trkpt lat="46.09983277479147" lon="11.638502845728633"><ele>1485.6666666666667</ele><time>2026-05-02T10:30:45Z</time></trkpt><trkpt lat="46.09987547580584" lon="11.638290974467079"><ele>1483.3333333333335</ele><time>2026-05-02T10:30:46Z</time></trkpt><trkpt lat="46.09992054212297" lon="11.638077929330764"><ele>1481.0</ele><time>2026-05-02T10:30:47Z</time></trkpt><trkpt lat="46.09996897960551" lon="11.637871133404712"><ele>1489.0</ele><time>2026-05-02T10:30:48Z</time></trkpt><trkpt lat="46.099993657610376" lon="11.637662250804466"><ele>1497.0</ele><time>2026-05-02T10:30:49Z</time></trkpt><trkpt lat="46.099983949888234" lon="11.637469160750385"><ele>1505.0</ele><time>2026-05-02T10:30:50Z</time></trkpt><trkpt lat="46.09995389012796" lon="11.637305518654731"><ele>1513.0</ele><time>2026-05-02T10:30:51Z</time></trkpt><trkpt lat="46.099944293029004" lon="11.63716587247172"><ele>1513.0</ele><time>2026-05-02T10:30:52.001Z</time></trkpt><trkpt lat="46.099987463241206" lon="11.637058398914222"><ele>1513.0</ele><time>2026-05-02T10:30:53.001Z</time></trkpt><trkpt lat="46.10006668209075" lon="11.63702980143041"><ele>1513.0</ele><time>2026-05-02T10:30:54.001Z</time></trkpt><trkpt lat="46.10012908246197" lon="11.637083339233993"><ele>1513.0</ele><time>2026-05-02T10:30:55.001Z</time></trkpt><trkpt lat="46.10015569395701" lon="11.637183690778741"><ele>1513.0</ele><time>2026-05-02T10:30:56.001Z</time></trkpt><trkpt lat="46.10013410007518" lon="11.637308163604317"><ele>1513.0</ele><time>2026-05-02T10:30:57.001Z</time></trkpt><trkpt lat="46.1001409169336" lon="11.637440960702483"><ele>1513.0</ele><time>2026-05-02T10:30:58.001Z</time></trkpt><trkpt lat="46.100132115334276" lon="11.63758771847656"><ele>1513.0</ele><time>2026-05-02T10:30:59.001Z</time></trkpt><trkpt lat="46.10012083417981" lon="11.637755951066804"><ele>1513.0</ele><time>2026-05-02T10:31:00.001Z</time></trkpt><trkpt lat="46.1001055371119" lon="11.637930308919486"><ele>1513.0</ele><time>2026-05-02T10:31:01.001Z</time></trkpt><trkpt lat="46.10009300653241" lon="11.638131211885263"><ele>1514.3333333333333</ele><time>2026-05-02T10:31:02.001Z</time></trkpt><trkpt lat="46.10008446899028" lon="11.638347098539823"><ele>1515.6666666666667</ele><time>2026-05-02T10:31:03.001Z</time></trkpt><trkpt lat="46.10007353471858" lon="11.638587228505791"><ele>1517.0</ele><time>2026-05-02T10:31:04.001Z</time></trkpt><trkpt lat="46.100059826728135" lon="11.638845507032412"><ele>1519.3333333333335</ele><time>2026-05-02T10:31:05.001Z</time></trkpt><trkpt lat="46.100043143819796" lon="11.63909673244458"><ele>1521.6666666666667</ele><time>2026-05-02T10:31:06.001Z</time></trkpt><trkpt lat="46.10003700913558" lon="11.639347940430895"><ele>1524.0</ele><time>2026-05-02T10:31:07.001Z</time></trkpt><trkpt lat="46.10006814666565" lon="11.639629811877343"><ele>1524.75</ele><time>2026-05-02T10:31:08.001Z</time></trkpt><trkpt lat="46.1001002414907" lon="11.639794373841795"><ele>1525.5</ele><time>2026-05-02T10:31:10.001Z</time></trkpt><trkpt lat="46.100138952174014" lon="11.640007014041649"><ele>1526.25</ele><time>2026-05-02T10:31:11.001Z</time></trkpt><trkpt lat="46.10014049709532" lon="11.640194508920777"><ele>1527.0</ele><time>2026-05-02T10:31:12.001Z</time></trkpt><trkpt lat="46.10013774651383" lon="11.640349917605752"><ele>1528.5</ele><time>2026-05-02T10:31:13.001Z</time></trkpt><trkpt lat="46.10011507580357" lon="11.640492727823432"><ele>1530.0</ele><time>2026-05-02T10:31:14.001Z</time></trkpt><trkpt lat="46.10005701452059" lon="11.64061616059067"><ele>1531.5</ele><time>2026-05-02T10:31:15.001Z</time></trkpt><trkpt lat="46.09998060912076" lon="11.640758460853197"><ele>1533.0</ele><time>2026-05-02T10:31:16.001Z</time></trkpt><trkpt lat="46.09989864035866" lon="11.640905450861576"><ele>1533.0</ele><time>2026-05-02T10:31:17.001Z</time></trkpt><trkpt lat="46.09981410117338" lon="11.64106036273731"><ele>1533.0</ele><time>2026-05-02T10:31:18.001Z</time></trkpt><trkpt lat="46.099728527069054" lon="11.64121517990922"><ele>1533.0</ele><time>2026-05-02T10:31:19.001Z</time></trkpt><trkpt lat="46.0996373694003" lon="11.641368332420848"><ele>1533.0</ele><time>2026-05-02T10:31:20.001Z</time></trkpt><trkpt lat="46.09953892110135" lon="11.641508916611357"><ele>1533.0</ele><time>2026-05-02T10:31:21.001Z</time></trkpt><trkpt lat="46.09942794165511" lon="11.641624969822125"><ele>1533.0</ele><time>2026-05-02T10:31:22.001Z</time></trkpt><trkpt lat="46.09931490155774" lon="11.641725530593718"><ele>1533.0</ele><time>2026-05-02T10:31:23.001Z</time></trkpt><trkpt lat="46.09920761977789" lon="11.641802363288619"><ele>1533.0</ele><time>2026-05-02T10:31:24.001Z</time></trkpt><trkpt lat="46.09911720606777" lon="11.64188863508046"><ele>1535.0</ele><time>2026-05-02T10:31:25.001Z</time></trkpt><trkpt lat="46.09904003437807" lon="11.641963598027795"><ele>1537.0</ele><time>2026-05-02T10:31:26.001Z</time></trkpt><trkpt lat="46.099013847118705" lon="11.642075009411709"><ele>1539.0</ele><time>2026-05-02T10:31:27.001Z</time></trkpt><trkpt lat="46.099045070784115" lon="11.642169373003892"><ele>1541.0</ele><time>2026-05-02T10:31:28.001Z</time></trkpt><trkpt lat="46.099131095076054" lon="11.642198329768396"><ele>1543.0</ele><time>2026-05-02T10:31:29.001Z</time></trkpt><trkpt lat="46.09919624680431" lon="11.642213354497262"><ele>1545.0</ele><time>2026-05-02T10:31:30.001Z</time></trkpt><trkpt lat="46.09928910779033" lon="11.64212341393423"><ele>1542.0</ele><time>2026-05-02T10:31:31.001Z</time></trkpt><trkpt lat="46.09935145525912" lon="11.642048894899808"><ele>1539.0</ele><time>2026-05-02T10:31:32.001Z</time></trkpt><trkpt lat="46.09942933855053" lon="11.641933040303607"><ele>1536.0</ele><time>2026-05-02T10:31:33.001Z</time></trkpt><trkpt lat="46.09953752494662" lon="11.641799034901647"><ele>1533.0</ele><time>2026-05-02T10:31:34Z</time></trkpt><trkpt lat="46.09970297851134" lon="11.641693835240812"><ele>1533.0</ele><time>2026-05-02T10:31:35Z</time></trkpt><trkpt lat="46.09987778071027" lon="11.641556132146581"><ele>1533.0</ele><time>2026-05-02T10:31:36Z</time></trkpt><trkpt lat="46.10004798006794" lon="11.641452040318043"><ele>1533.0</ele><time>2026-05-02T10:31:37Z</time></trkpt><trkpt lat="46.10018784784311" lon="11.641356003245608"><ele>1538.0</ele><time>2026-05-02T10:31:38Z</time></trkpt><trkpt lat="46.1003168081253" lon="11.641291105787063"><ele>1543.0</ele><time>2026-05-02T10:31:39Z</time></trkpt><trkpt lat="46.10042057543101" lon="11.641200291807598"><ele>1548.0</ele><time>2026-05-02T10:31:40Z</time></trkpt><trkpt lat="46.10053204690759" lon="11.641168765993969"><ele>1553.0</ele><time>2026-05-02T10:31:41Z</time></trkpt><trkpt lat="46.100645679919154" lon="11.641142537333376"><ele>1557.5</ele><time>2026-05-02T10:31:42Z</time></trkpt><trkpt lat="46.1007689899256" lon="11.641169377180427"><ele>1562.0</ele><time>2026-05-02T10:31:43Z</time></trkpt><trkpt lat="46.10089730885096" lon="11.641228240122729"><ele>1566.5</ele><time>2026-05-02T10:31:44Z</time></trkpt><trkpt lat="46.10104058583947" lon="11.641299459785307"><ele>1571.0</ele><time>2026-05-02T10:31:45Z</time></trkpt><trkpt lat="46.10119762070149" lon="11.641357263680751"><ele>1571.0</ele><time>2026-05-02T10:31:46Z</time></trkpt><trkpt lat="46.101356298245065" lon="11.641438162222007"><ele>1571.0</ele><time>2026-05-02T10:31:47Z</time></trkpt><trkpt lat="46.10151524786995" lon="11.641522720239234"><ele>1571.0</ele><time>2026-05-02T10:31:48Z</time></trkpt><trkpt lat="46.101671928280574" lon="11.641608642306641"><ele>1570.8</ele><time>2026-05-02T10:31:49Z</time></trkpt><trkpt lat="46.10181662988172" lon="11.641672443512444"><ele>1570.6</ele><time>2026-05-02T10:31:50Z</time></trkpt><trkpt lat="46.10194378428639" lon="11.641695064238654"><ele>1570.4</ele><time>2026-05-02T10:31:51Z</time></trkpt><trkpt lat="46.102038975474585" lon="11.641677009311403"><ele>1570.2</ele><time>2026-05-02T10:31:52Z</time></trkpt><trkpt lat="46.102103410393546" lon="11.641723226237604"><ele>1570.0</ele><time>2026-05-02T10:31:53Z</time></trkpt><trkpt lat="46.10213812789338" lon="11.641894066898569"><ele>1570.0000000000002</ele><time>2026-05-02T10:31:55Z</time></trkpt><trkpt lat="46.102077660227444" lon="11.641976048094515"><ele>1570.0</ele><time>2026-05-02T10:31:56Z</time></trkpt><trkpt lat="46.10199710450161" lon="11.641990671348838"><ele>1570.0</ele><time>2026-05-02T10:31:57Z</time></trkpt><trkpt lat="46.10191719793505" lon="11.64193724237647"><ele>1570.0</ele><time>2026-05-02T10:31:58Z</time></trkpt><trkpt lat="46.10182455905707" lon="11.64193352996106"><ele>1570.0000000000002</ele><time>2026-05-02T10:31:59Z</time></trkpt><trkpt lat="46.10173132212215" lon="11.6419204597708"><ele>1570.0</ele><time>2026-05-02T10:32:00Z</time></trkpt><trkpt lat="46.10162559284617" lon="11.641913802791839"><ele>1570.25</ele><time>2026-05-02T10:32:01Z</time></trkpt><trkpt lat="46.10151020683992" lon="11.641924876253777"><ele>1570.5</ele><time>2026-05-02T10:32:02Z</time></trkpt><trkpt lat="46.10138951719364" lon="11.641944542680704"><ele>1570.75</ele><time>2026-05-02T10:32:03Z</time></trkpt><trkpt lat="46.10125827841677" lon="11.641965837199807"><ele>1571.0</ele><time>2026-05-02T10:32:04Z</time></trkpt><trkpt lat="46.101124321271364" lon="11.641999768649072"><ele>1573.5</ele><time>2026-05-02T10:32:05Z</time></trkpt><trkpt lat="46.10098711056033" lon="11.642026795298705"><ele>1576.0</ele><time>2026-05-02T10:32:06Z</time></trkpt><trkpt lat="46.10084772008765" lon="11.642059333525095"><ele>1578.5</ele><time>2026-05-02T10:32:07Z</time></trkpt><trkpt lat="46.100706674661225" lon="11.642098759047258"><ele>1581.0</ele><time>2026-05-02T10:32:08Z</time></trkpt><trkpt lat="46.10058064455699" lon="11.642119264693065"><ele>1581.0</ele><time>2026-05-02T10:32:09Z</time></trkpt><trkpt lat="46.10047818092642" lon="11.642141407837014"><ele>1581.0</ele><time>2026-05-02T10:32:10Z</time></trkpt><trkpt lat="46.10040290340699" lon="11.642198434736118"><ele>1581.0</ele><time>2026-05-02T10:32:11Z</time></trkpt><trkpt lat="46.100379889640124" lon="11.64230748922294"><ele>1581.0</ele><time>2026-05-02T10:32:12Z</time></trkpt><trkpt lat="46.100415278310514" lon="11.642425739359664"><ele>1581.0</ele><time>2026-05-02T10:32:13Z</time></trkpt><trkpt lat="46.100487244979554" lon="11.642498773888837"><ele>1581.0</ele><time>2026-05-02T10:32:14Z</time></trkpt><trkpt lat="46.100580772112544" lon="11.642485083494186"><ele>1581.0</ele><time>2026-05-02T10:32:15Z</time></trkpt><trkpt lat="46.100663471353755" lon="11.642418040008106"><ele>1581.0</ele><time>2026-05-02T10:32:16Z</time></trkpt><trkpt lat="46.100749212555336" lon="11.642369633900637"><ele>1581.0</ele><time>2026-05-02T10:32:17Z</time></trkpt><trkpt lat="46.100846095645245" lon="11.642378573072028"><ele>1581.0</ele><time>2026-05-02T10:32:18Z</time></trkpt><trkpt lat="46.1009459667293" lon="11.642370443203832"><ele>1581.0</ele><time>2026-05-02T10:32:19Z</time></trkpt><trkpt lat="46.101051455408495" lon="11.642400333789624"><ele>1586.75</ele><time>2026-05-02T10:32:20Z</time></trkpt><trkpt lat="46.10116646534025" lon="11.642406340828382"><ele>1592.5</ele><time>2026-05-02T10:32:21Z</time></trkpt><trkpt lat="46.10128369854343" lon="11.642441019353472"><ele>1598.25</ele><time>2026-05-02T10:32:22Z</time></trkpt><trkpt lat="46.101406948370716" lon="11.64246926978959"><ele>1604.0</ele><time>2026-05-02T10:32:23Z</time></trkpt><trkpt lat="46.10153299328652" lon="11.642501212622955"><ele>1603.25</ele><time>2026-05-02T10:32:24Z</time></trkpt><trkpt lat="46.101670644158226" lon="11.642542066427817"><ele>1602.5</ele><time>2026-05-02T10:32:25Z</time></trkpt><trkpt lat="46.101810445914815" lon="11.642592709554442"><ele>1601.75</ele><time>2026-05-02T10:32:26Z</time></trkpt><trkpt lat="46.10195147271773" lon="11.64264570249611"><ele>1601.0</ele><time>2026-05-02T10:32:27Z</time></trkpt><trkpt lat="46.10209582234718" lon="11.64268955371544"><ele>1601.0</ele><time>2026-05-02T10:32:28Z</time></trkpt><trkpt lat="46.10223242733695" lon="11.642757492454146"><ele>1601.0</ele><time>2026-05-02T10:32:29Z</time></trkpt><trkpt lat="46.10234750594052" lon="11.642862791784678"><ele>1601.0</ele><time>2026-05-02T10:32:30Z</time></trkpt><trkpt lat="46.10246218970419" lon="11.6429585271962"><ele>1601.0</ele><time>2026-05-02T10:32:31Z</time></trkpt><trkpt lat="46.10254243127684" lon="11.643114374971402"><ele>1605.5</ele><time>2026-05-02T10:32:32Z</time></trkpt><trkpt lat="46.10261237623405" lon="11.643277853060075"><ele>1610.0</ele><time>2026-05-02T10:32:33Z</time></trkpt><trkpt lat="46.10268753465478" lon="11.64343226494735"><ele>1614.5</ele><time>2026-05-02T10:32:34Z</time></trkpt><trkpt lat="46.10275516816197" lon="11.643547647896492"><ele>1619.0</ele><time>2026-05-02T10:32:35Z</time></trkpt><trkpt lat="46.102869321609546" lon="11.643611627446274"><ele>1624.75</ele><time>2026-05-02T10:32:36Z</time></trkpt><trkpt lat="46.10300219300415" lon="11.643645706246632"><ele>1630.5</ele><time>2026-05-02T10:32:37Z</time></trkpt><trkpt lat="46.10313799510161" lon="11.643694541000635"><ele>1636.25</ele><time>2026-05-02T10:32:38Z</time></trkpt><trkpt lat="46.10327009728711" lon="11.643741847775681"><ele>1642.0</ele><time>2026-05-02T10:32:39Z</time></trkpt><trkpt lat="46.103406034571165" lon="11.643747076910843"><ele>1642.0</ele><time>2026-05-02T10:32:40Z</time></trkpt><trkpt lat="46.103547689737674" lon="11.643710640301045"><ele>1642.0</ele><time>2026-05-02T10:32:41Z</time></trkpt><trkpt lat="46.10368923566522" lon="11.643733679884532"><ele>1642.0</ele><time>2026-05-02T10:32:42Z</time></trkpt><trkpt lat="46.103814611876075" lon="11.643820343546732"><ele>1642.0</ele><time>2026-05-02T10:32:43Z</time></trkpt><trkpt lat="46.10393702401494" lon="11.643932610636405"><ele>1642.0</ele><time>2026-05-02T10:32:44Z</time></trkpt><trkpt lat="46.10406747395348" lon="11.644023353114752"><ele>1642.0</ele><time>2026-05-02T10:32:45Z</time></trkpt><trkpt lat="46.10421070738791" lon="11.644074820632463"><ele>1642.0</ele><time>2026-05-02T10:32:46Z</time></trkpt><trkpt lat="46.10435655356586" lon="11.644051728831665"><ele>1642.0</ele><time>2026-05-02T10:32:47Z</time></trkpt><trkpt lat="46.10448976556909" lon="11.64397773850636"><ele>1642.25</ele><time>2026-05-02T10:32:48Z</time></trkpt><trkpt lat="46.10460836140548" lon="11.64386119889585"><ele>1642.5</ele><time>2026-05-02T10:32:49Z</time></trkpt><trkpt lat="46.10472698792884" lon="11.643808214782021"><ele>1642.75</ele><time>2026-05-02T10:32:50Z</time></trkpt><trkpt lat="46.104831832310545" lon="11.643842193464886"><ele>1643.0</ele><time>2026-05-02T10:32:51Z</time></trkpt><trkpt lat="46.10492825295788" lon="11.643927784060006"><ele>1641.5</ele><time>2026-05-02T10:32:52Z</time></trkpt><trkpt lat="46.1049926627937" lon="11.64408371236737"><ele>1640.0</ele><time>2026-05-02T10:32:53Z</time></trkpt><trkpt lat="46.10508763061837" lon="11.64422077067317"><ele>1638.5</ele><time>2026-05-02T10:32:54Z</time></trkpt><trkpt lat="46.10519578368144" lon="11.644350061800388"><ele>1637.0</ele><time>2026-05-02T10:32:55Z</time></trkpt><trkpt lat="46.10533748623208" lon="11.644387451616309"><ele>1637.0</ele><time>2026-05-02T10:32:56Z</time></trkpt><trkpt lat="46.10548535257704" lon="11.644352620874084"><ele>1637.0</ele><time>2026-05-02T10:32:57Z</time></trkpt><trkpt lat="46.10563278728322" lon="11.644314278962673"><ele>1637.0</ele><time>2026-05-02T10:32:58Z</time></trkpt><trkpt lat="46.10576713300409" lon="11.644398847779993"><ele>1637.0</ele><time>2026-05-02T10:32:59Z</time></trkpt><trkpt lat="46.10590466126332" lon="11.6444620325135"><ele>1638.1999999999998</ele><time>2026-05-02T10:33:00Z</time></trkpt><trkpt lat="46.106031677629886" lon="11.644484057298927"><ele>1639.4</ele><time>2026-05-02T10:33:01Z</time></trkpt><trkpt lat="46.10615477315316" lon="11.644474127482304"><ele>1640.6</ele><time>2026-05-02T10:33:02Z</time></trkpt><trkpt lat="46.106251065585894" lon="11.644493222395045"><ele>1641.8000000000002</ele><time>2026-05-02T10:33:03.001Z</time></trkpt><trkpt lat="46.106316491572784" lon="11.644553033635416"><ele>1643.0</ele><time>2026-05-02T10:33:04.001Z</time></trkpt><trkpt lat="46.106383516861534" lon="11.644668101662177"><ele>1642.9999999999998</ele><time>2026-05-02T10:33:06.001Z</time></trkpt><trkpt lat="46.10642092960298" lon="11.64475436448427"><ele>1643.0</ele><time>2026-05-02T10:33:09.001Z</time></trkpt><trkpt lat="46.106476053945016" lon="11.644690663644807"><ele>1643.0</ele><time>2026-05-02T10:33:26.001Z</time></trkpt><trkpt lat="46.10652600592343" lon="11.644623549723336"><ele>1643.0</ele><time>2026-05-02T10:33:29.001Z</time></trkpt><trkpt lat="46.106603046743885" lon="11.644665136478288"><ele>1642.9999999999998</ele><time>2026-05-02T10:33:32.001Z</time></trkpt><trkpt lat="46.106685863021745" lon="11.64472771272542"><ele>1643.0</ele><time>2026-05-02T10:33:34.001Z</time></trkpt><trkpt lat="46.10675609417683" lon="11.644787411039568"><ele>1642.8000000000002</ele><time>2026-05-02T10:33:35.001Z</time></trkpt><trkpt lat="46.106827484286065" lon="11.644857804938173"><ele>1642.6</ele><time>2026-05-02T10:33:36.001Z</time></trkpt><trkpt lat="46.10690028463938" lon="11.644951810942654"><ele>1642.4</ele><time>2026-05-02T10:33:37.001Z</time></trkpt><trkpt lat="46.10697874646083" lon="11.645056396448727"><ele>1642.1999999999998</ele><time>2026-05-02T10:33:38.001Z</time></trkpt><trkpt lat="46.10706331244915" lon="11.64514598412727"><ele>1642.0</ele><time>2026-05-02T10:33:39.001Z</time></trkpt><trkpt lat="46.107150460691" lon="11.645217180628787"><ele>1642.0</ele><time>2026-05-02T10:33:40Z</time></trkpt><trkpt lat="46.10724967599881" lon="11.64527780705531"><ele>1642.0</ele><time>2026-05-02T10:33:41Z</time></trkpt><trkpt lat="46.10735867032294" lon="11.645339902964269"><ele>1642.0</ele><time>2026-05-02T10:33:42Z</time></trkpt><trkpt lat="46.10746495293122" lon="11.64541132371915"><ele>1642.0</ele><time>2026-05-02T10:33:43Z</time></trkpt><trkpt lat="46.10755990447298" lon="11.64549316294839"><ele>1643.5</ele><time>2026-05-02T10:33:44Z</time></trkpt><trkpt lat="46.107632799655434" lon="11.645600132692273"><ele>1645.0</ele><time>2026-05-02T10:33:45Z</time></trkpt><trkpt lat="46.10769115120636" lon="11.64573859635954"><ele>1646.5</ele><time>2026-05-02T10:33:46Z</time></trkpt><trkpt lat="46.10775439634759" lon="11.645870394221092"><ele>1648.0</ele><time>2026-05-02T10:33:47Z</time></trkpt><trkpt lat="46.10786317943247" lon="11.645956948841704"><ele>1648.0</ele><time>2026-05-02T10:33:48Z</time></trkpt><trkpt lat="46.10798275761298" lon="11.646020420159525"><ele>1648.0</ele><time>2026-05-02T10:33:49Z</time></trkpt><trkpt lat="46.108099512661006" lon="11.646113503385553"><ele>1648.0</ele><time>2026-05-02T10:33:50Z</time></trkpt><trkpt lat="46.108207134088936" lon="11.646239303850171"><ele>1648.0</ele><time>2026-05-02T10:33:51Z</time></trkpt><trkpt lat="46.10830230267607" lon="11.646385427397604"><ele>1648.5</ele><time>2026-05-02T10:33:52Z</time></trkpt><trkpt lat="46.10838832110874" lon="11.646549971203813"><ele>1649.0</ele><time>2026-05-02T10:33:53Z</time></trkpt><trkpt lat="46.10846491037667" lon="11.646723400087136"><ele>1649.5</ele><time>2026-05-02T10:33:54Z</time></trkpt><trkpt lat="46.10854459521662" lon="11.646895567390553"><ele>1650.0</ele><time>2026-05-02T10:33:55Z</time></trkpt><trkpt lat="46.10863871870384" lon="11.647046238434971"><ele>1655.25</ele><time>2026-05-02T10:33:56Z</time></trkpt><trkpt lat="46.108752880899615" lon="11.647181862620057"><ele>1660.5</ele><time>2026-05-02T10:33:57Z</time></trkpt><trkpt lat="46.10886683358278" lon="11.647311911025751"><ele>1665.75</ele><time>2026-05-02T10:33:58Z</time></trkpt><trkpt lat="46.10897415089931" lon="11.647435630399023"><ele>1671.0</ele><time>2026-05-02T10:33:59Z</time></trkpt><trkpt lat="46.10907285867297" lon="11.647554862091773"><ele>1663.75</ele><time>2026-05-02T10:34:00Z</time></trkpt><trkpt lat="46.10914039807964" lon="11.647701412538712"><ele>1656.5</ele><time>2026-05-02T10:34:01Z</time></trkpt><trkpt lat="46.109156984939844" lon="11.647871205873496"><ele>1649.25</ele><time>2026-05-02T10:34:02Z</time></trkpt><trkpt lat="46.10913385254648" lon="11.64804591723689"><ele>1642.0</ele><time>2026-05-02T10:34:03Z</time></trkpt><trkpt lat="46.10910004683128" lon="11.648240952907633"><ele>1642.0</ele><time>2026-05-02T10:34:04Z</time></trkpt><trkpt lat="46.10907672156124" lon="11.648434068256522"><ele>1642.0</ele><time>2026-05-02T10:34:05Z</time></trkpt><trkpt lat="46.109088783658976" lon="11.64861563971635"><ele>1642.0</ele><time>2026-05-02T10:34:06Z</time></trkpt><trkpt lat="46.10914583950119" lon="11.648783810410864"><ele>1642.0</ele><time>2026-05-02T10:34:07Z</time></trkpt><trkpt lat="46.10923396504265" lon="11.648929350367741"><ele>1645.0</ele><time>2026-05-02T10:34:08Z</time></trkpt><trkpt lat="46.109345781884244" lon="11.649032190927553"><ele>1648.0</ele><time>2026-05-02T10:34:09Z</time></trkpt><trkpt lat="46.109474598520464" lon="11.649089506606897"><ele>1651.0</ele><time>2026-05-02T10:34:10Z</time></trkpt><trkpt lat="46.10960057020588" lon="11.649144549155876"><ele>1654.0</ele><time>2026-05-02T10:34:11Z</time></trkpt><trkpt lat="46.109693093795194" lon="11.649274583894973"><ele>1654.0</ele><time>2026-05-02T10:34:12Z</time></trkpt><trkpt lat="46.10977043540682" lon="11.64944018054967"><ele>1654.0</ele><time>2026-05-02T10:34:13Z</time></trkpt><trkpt lat="46.10985675491944" lon="11.649625464388942"><ele>1654.0</ele><time>2026-05-02T10:34:14Z</time></trkpt><trkpt lat="46.10994726301348" lon="11.649823711377413"><ele>1654.6666666666667</ele><time>2026-05-02T10:34:15Z</time></trkpt><trkpt lat="46.11004399022325" lon="11.650033401415486"><ele>1655.3333333333335</ele><time>2026-05-02T10:34:16Z</time></trkpt><trkpt lat="46.110143842983476" lon="11.650249134327945"><ele>1656.0</ele><time>2026-05-02T10:34:17Z</time></trkpt><trkpt lat="46.1102392912707" lon="11.650459625672692"><ele>1656.0</ele><time>2026-05-02T10:34:18Z</time></trkpt><trkpt lat="46.11031566192916" lon="11.650667142152365"><ele>1656.0</ele><time>2026-05-02T10:34:19Z</time></trkpt><trkpt lat="46.11036458194248" lon="11.650891818801172"><ele>1656.0</ele><time>2026-05-02T10:34:20Z</time></trkpt><trkpt lat="46.11038959019327" lon="11.651117164159968"><ele>1659.0</ele><time>2026-05-02T10:34:21Z</time></trkpt><trkpt lat="46.11041712877448" lon="11.651362954821277"><ele>1662.0</ele><time>2026-05-02T10:34:22Z</time></trkpt><trkpt lat="46.11042773961192" lon="11.651611561940086"><ele>1665.0</ele><time>2026-05-02T10:34:23Z</time></trkpt><trkpt lat="46.110438848370805" lon="11.651843481026072"><ele>1666.5</ele><time>2026-05-02T10:34:24Z</time></trkpt><trkpt lat="46.11045886700309" lon="11.652048424802707"><ele>1668.0</ele><time>2026-05-02T10:34:25Z</time></trkpt><trkpt lat="46.110497733038954" lon="11.652227061446377"><ele>1669.5</ele><time>2026-05-02T10:34:26Z</time></trkpt><trkpt lat="46.11056804834855" lon="11.652375214404135"><ele>1671.0</ele><time>2026-05-02T10:34:27Z</time></trkpt><trkpt lat="46.11067166943562" lon="11.652460381935752"><ele>1665.0</ele><time>2026-05-02T10:34:28Z</time></trkpt><trkpt lat="46.110794590539385" lon="11.652471212626356"><ele>1659.0</ele><time>2026-05-02T10:34:29Z</time></trkpt><trkpt lat="46.110935420963806" lon="11.652440870335612"><ele>1653.0</ele><time>2026-05-02T10:34:30Z</time></trkpt><trkpt lat="46.111102455017054" lon="11.652395585102916"><ele>1647.0</ele><time>2026-05-02T10:34:31Z</time></trkpt><trkpt lat="46.111279686273164" lon="11.652352739584659"><ele>1647.0</ele><time>2026-05-02T10:34:32Z</time></trkpt><trkpt lat="46.11145877715772" lon="11.652299247287562"><ele>1647.0</ele><time>2026-05-02T10:34:33Z</time></trkpt><trkpt lat="46.11162447042639" lon="11.652211719301954"><ele>1647.0</ele><time>2026-05-02T10:34:34Z</time></trkpt><trkpt lat="46.11177329273683" lon="11.652089123924073"><ele>1648.0</ele><time>2026-05-02T10:34:35Z</time></trkpt><trkpt lat="46.1119095405953" lon="11.651975867998345"><ele>1649.0</ele><time>2026-05-02T10:34:36Z</time></trkpt><trkpt lat="46.11205470536391" lon="11.651906497253153"><ele>1650.0</ele><time>2026-05-02T10:34:37Z</time></trkpt><trkpt lat="46.11220842457917" lon="11.651885820531206"><ele>1652.0</ele><time>2026-05-02T10:34:38Z</time></trkpt><trkpt lat="46.11236989245402" lon="11.651917102717164"><ele>1654.0</ele><time>2026-05-02T10:34:39Z</time></trkpt><trkpt lat="46.11253911123266" lon="11.651988458032966"><ele>1656.0</ele><time>2026-05-02T10:34:40Z</time></trkpt><trkpt lat="46.11270593037157" lon="11.65208154779153"><ele>1656.0</ele><time>2026-05-02T10:34:41Z</time></trkpt><trkpt lat="46.11287675213663" lon="11.652169549489011"><ele>1656.0</ele><time>2026-05-02T10:34:42Z</time></trkpt><trkpt lat="46.113052982333336" lon="11.652230076075629"><ele>1656.0</ele><time>2026-05-02T10:34:43Z</time></trkpt><trkpt lat="46.11322324073912" lon="11.65226067255521"><ele>1652.5</ele><time>2026-05-02T10:34:44Z</time></trkpt><trkpt lat="46.113381908744074" lon="11.652275978170435"><ele>1649.0</ele><time>2026-05-02T10:34:45Z</time></trkpt><trkpt lat="46.113528978359064" lon="11.652289322718001"><ele>1645.5</ele><time>2026-05-02T10:34:46Z</time></trkpt><trkpt lat="46.11367154403371" lon="11.652307543693206"><ele>1642.0</ele><time>2026-05-02T10:34:47Z</time></trkpt><trkpt lat="46.1137942365395" lon="11.652387587621845"><ele>1642.0</ele><time>2026-05-02T10:34:48Z</time></trkpt><trkpt lat="46.11388582212778" lon="11.65251682210341"><ele>1642.0</ele><time>2026-05-02T10:34:49Z</time></trkpt><trkpt lat="46.113931799673836" lon="11.652682101725151"><ele>1642.0</ele><time>2026-05-02T10:34:50Z</time></trkpt><trkpt lat="46.11393269447658" lon="11.65285318009699"><ele>1642.0</ele><time>2026-05-02T10:34:51Z</time></trkpt><trkpt lat="46.11393695917783" lon="11.653045740034097"><ele>1645.5</ele><time>2026-05-02T10:34:52Z</time></trkpt><trkpt lat="46.11392623976812" lon="11.653233975979106"><ele>1649.0</ele><time>2026-05-02T10:34:53Z</time></trkpt><trkpt lat="46.11391900302556" lon="11.653410043929506"><ele>1652.5</ele><time>2026-05-02T10:34:54Z</time></trkpt><trkpt lat="46.11391525525805" lon="11.653581302152517"><ele>1656.0</ele><time>2026-05-02T10:34:55Z</time></trkpt><trkpt lat="46.11391990716447" lon="11.653745015400274"><ele>1656.1999999999998</ele><time>2026-05-02T10:34:56Z</time></trkpt><trkpt lat="46.11393230268933" lon="11.653895007189954"><ele>1656.3999999999999</ele><time>2026-05-02T10:34:57Z</time></trkpt><trkpt lat="46.11395201704085" lon="11.654046446581418"><ele>1656.6</ele><time>2026-05-02T10:34:58Z</time></trkpt><trkpt lat="46.11396963732449" lon="11.654186290364745"><ele>1656.8</ele><time>2026-05-02T10:34:59Z</time></trkpt><trkpt lat="46.11398654278849" lon="11.654321995814545"><ele>1657.0</ele><time>2026-05-02T10:35:00Z</time></trkpt><trkpt lat="46.113999043234514" lon="11.654461407371072"><ele>1657.0</ele><time>2026-05-02T10:35:01Z</time></trkpt><trkpt lat="46.1140132153892" lon="11.654607229977389"><ele>1657.0</ele><time>2026-05-02T10:35:02Z</time></trkpt><trkpt lat="46.11402945047583" lon="11.65475662836412"><ele>1657.0</ele><time>2026-05-02T10:35:03Z</time></trkpt><trkpt lat="46.1140489582889" lon="11.654908074486071"><ele>1657.0</ele><time>2026-05-02T10:35:04Z</time></trkpt><trkpt lat="46.114067994730426" lon="11.655062823835578"><ele>1657.0</ele><time>2026-05-02T10:35:05Z</time></trkpt><trkpt lat="46.114087678438565" lon="11.655220325296737"><ele>1646.75</ele><time>2026-05-02T10:35:06Z</time></trkpt><trkpt lat="46.11410682162469" lon="11.655384027621857"><ele>1636.5</ele><time>2026-05-02T10:35:07Z</time></trkpt><trkpt lat="46.11412524039496" lon="11.655551630394879"><ele>1626.25</ele><time>2026-05-02T10:35:08Z</time></trkpt><trkpt lat="46.114141957836345" lon="11.655724570356876"><ele>1616.0</ele><time>2026-05-02T10:35:09Z</time></trkpt><trkpt lat="46.1141607759555" lon="11.655904821043622"><ele>1616.0</ele><time>2026-05-02T10:35:10Z</time></trkpt><trkpt lat="46.114154260574914" lon="11.656087085449578"><ele>1616.0</ele><time>2026-05-02T10:35:11Z</time></trkpt><trkpt lat="46.1141697111035" lon="11.656275564537287"><ele>1616.0</ele><time>2026-05-02T10:35:12Z</time></trkpt><trkpt lat="46.114162915862686" lon="11.656467045363714"><ele>1616.0</ele><time>2026-05-02T10:35:13Z</time></trkpt><trkpt lat="46.114167099420364" lon="11.656656748132598"><ele>1617.75</ele><time>2026-05-02T10:35:14Z</time></trkpt><trkpt lat="46.11417938875779" lon="11.656849135794287"><ele>1619.5</ele><time>2026-05-02T10:35:15Z</time></trkpt><trkpt lat="46.1141947027647" lon="11.657044953929885"><ele>1621.25</ele><time>2026-05-02T10:35:16Z</time></trkpt><trkpt lat="46.1142083332985" lon="11.657242101511425"><ele>1623.0</ele><time>2026-05-02T10:35:17Z</time></trkpt><trkpt lat="46.114228318677156" lon="11.657430169728325"><ele>1623.25</ele><time>2026-05-02T10:35:18.001Z</time></trkpt><trkpt lat="46.114248438183736" lon="11.657609705509026"><ele>1623.5</ele><time>2026-05-02T10:35:19.001Z</time></trkpt><trkpt lat="46.11426644681932" lon="11.657781505449343"><ele>1623.75</ele><time>2026-05-02T10:35:20.001Z</time></trkpt><trkpt lat="46.114282859621035" lon="11.657946368417614"><ele>1624.0</ele><time>2026-05-02T10:35:21.001Z</time></trkpt><trkpt lat="46.11429722622568" lon="11.658108991206195"><ele>1623.25</ele><time>2026-05-02T10:35:22.001Z</time></trkpt><trkpt lat="46.114317105329754" lon="11.65827437664299"><ele>1622.5</ele><time>2026-05-02T10:35:23.001Z</time></trkpt><trkpt lat="46.11435433349666" lon="11.658435111987231"><ele>1621.75</ele><time>2026-05-02T10:35:24.001Z</time></trkpt><trkpt lat="46.11439274907637" lon="11.658597740387162"><ele>1621.0</ele><time>2026-05-02T10:35:25.001Z</time></trkpt><trkpt lat="46.11443436163984" lon="11.658757489809863"><ele>1621.0</ele><time>2026-05-02T10:35:26.001Z</time></trkpt><trkpt lat="46.11447650912205" lon="11.658908827397513"><ele>1621.0</ele><time>2026-05-02T10:35:27.001Z</time></trkpt><trkpt lat="46.114534165126216" lon="11.659039733012397"><ele>1621.0</ele><time>2026-05-02T10:35:28.001Z</time></trkpt><trkpt lat="46.11461208232069" lon="11.659138363472497"><ele>1621.0</ele><time>2026-05-02T10:35:29.001Z</time></trkpt><trkpt lat="46.11470090892883" lon="11.659221800230693"><ele>1621.0</ele><time>2026-05-02T10:35:30.001Z</time></trkpt><trkpt lat="46.11478802100909" lon="11.659289371573507"><ele>1621.0000000000002</ele><time>2026-05-02T10:35:31.001Z</time></trkpt><trkpt lat="46.1148723177554" lon="11.659350714113762"><ele>1621.0</ele><time>2026-05-02T10:35:32.001Z</time></trkpt><trkpt lat="46.11495820929985" lon="11.659378603474243"><ele>1621.0</ele><time>2026-05-02T10:35:33.001Z</time></trkpt><trkpt lat="46.11503128196269" lon="11.65941586817608"><ele>1621.0</ele><time>2026-05-02T10:35:34.001Z</time></trkpt><trkpt lat="46.11509767050847" lon="11.659446931472996"><ele>1621.0000000000002</ele><time>2026-05-02T10:35:35.001Z</time></trkpt><trkpt lat="46.115196540742495" lon="11.659493430562812"><ele>1621.0</ele><time>2026-05-02T10:35:37.001Z</time></trkpt><trkpt lat="46.11525826463629" lon="11.659523931510721"><ele>1615.5</ele><time>2026-05-02T10:35:39.001Z</time></trkpt><trkpt lat="46.11518262629366" lon="11.660084429328311"><ele>1610.0</ele><time>2026-05-02T10:36:18Z</time></trkpt><trkpt lat="46.11516065976502" lon="11.660198114693726"><ele>1610.2</ele><time>2026-05-02T10:36:19Z</time></trkpt><trkpt lat="46.11512242900426" lon="11.660352544015332"><ele>1610.4</ele><time>2026-05-02T10:36:20Z</time></trkpt><trkpt lat="46.115067336740644" lon="11.660520873496683"><ele>1610.6</ele><time>2026-05-02T10:36:22Z</time></trkpt><trkpt lat="46.11502307674284" lon="11.66062552460178"><ele>1610.8</ele><time>2026-05-02T10:36:23Z</time></trkpt><trkpt lat="46.114976807211164" lon="11.660713765198768"><ele>1611.0</ele><time>2026-05-02T10:36:24Z</time></trkpt><trkpt lat="46.11492856716475" lon="11.660789567812783"><ele>1612.0</ele><time>2026-05-02T10:36:25Z</time></trkpt><trkpt lat="46.11487706933239" lon="11.660859540121002"><ele>1613.0</ele><time>2026-05-02T10:36:26Z</time></trkpt><trkpt lat="46.1148171007406" lon="11.660938540133182"><ele>1614.0</ele><time>2026-05-02T10:36:27Z</time></trkpt><trkpt lat="46.114758716719365" lon="11.661021267062285"><ele>1615.0</ele><time>2026-05-02T10:36:28Z</time></trkpt><trkpt lat="46.11470118376983" lon="11.661103216795048"><ele>1616.0</ele><time>2026-05-02T10:36:29Z</time></trkpt><trkpt lat="46.11464027105855" lon="11.661185933803734"><ele>1617.0</ele><time>2026-05-02T10:36:30Z</time></trkpt><trkpt lat="46.11458501131249" lon="11.66126430983466"><ele>1617.0</ele><time>2026-05-02T10:36:31Z</time></trkpt><trkpt lat="46.114541211773016" lon="11.661338016657453"><ele>1617.0</ele><time>2026-05-02T10:36:32Z</time></trkpt><trkpt lat="46.114490489400524" lon="11.661484176553211"><ele>1617.0</ele><time>2026-05-02T10:36:34Z</time></trkpt><trkpt lat="46.114455147184295" lon="11.661629330453607"><ele>1617.0</ele><time>2026-05-02T10:36:36Z</time></trkpt><trkpt lat="46.114426268615226" lon="11.661715248828777"><ele>1617.0</ele><time>2026-05-02T10:36:37Z</time></trkpt><trkpt lat="46.11440155337356" lon="11.661883002702428"><ele>1616.8</ele><time>2026-05-02T10:36:39Z</time></trkpt><trkpt lat="46.11437775996776" lon="11.661981327153622"><ele>1616.6</ele><time>2026-05-02T10:36:40Z</time></trkpt><trkpt lat="46.11434559517531" lon="11.662089417447895"><ele>1616.3999999999999</ele><time>2026-05-02T10:36:41Z</time></trkpt><trkpt lat="46.11431055017497" lon="11.662215590116643"><ele>1616.1999999999998</ele><time>2026-05-02T10:36:42Z</time></trkpt><trkpt lat="46.11428831057397" lon="11.662357877048729"><ele>1616.0</ele><time>2026-05-02T10:36:43Z</time></trkpt><trkpt lat="46.11427098668381" lon="11.66252003605296"><ele>1615.9999999999998</ele><time>2026-05-02T10:36:44Z</time></trkpt><trkpt lat="46.11425489102946" lon="11.662671116697647"><ele>1616.0</ele><time>2026-05-02T10:36:45Z</time></trkpt><trkpt lat="46.114236512582686" lon="11.662819255758489"><ele>1616.0</ele><time>2026-05-02T10:36:46Z</time></trkpt><trkpt lat="46.11421870040739" lon="11.662946547170968"><ele>1616.0</ele><time>2026-05-02T10:36:47Z</time></trkpt><trkpt lat="46.11420017391178" lon="11.663049834642257"><ele>1615.9999999999998</ele><time>2026-05-02T10:36:48Z</time></trkpt><trkpt lat="46.11418192826699" lon="11.66313969969912"><ele>1616.0</ele><time>2026-05-02T10:36:49Z</time></trkpt><trkpt lat="46.114127215509136" lon="11.66328156822735"><ele>1617.0</ele><time>2026-05-02T10:36:51Z</time></trkpt><trkpt lat="46.114041709191746" lon="11.663385109005013"><ele>1618.0</ele><time>2026-05-02T10:36:53Z</time></trkpt><trkpt lat="46.113938514251316" lon="11.663423609904608"><ele>1619.0</ele><time>2026-05-02T10:36:55Z</time></trkpt><trkpt lat="46.11382005171643" lon="11.663425758780184"><ele>1620.0</ele><time>2026-05-02T10:36:57Z</time></trkpt><trkpt lat="46.113754632597704" lon="11.663416017028537"><ele>1621.0</ele><time>2026-05-02T10:36:58Z</time></trkpt><trkpt lat="46.11368667738186" lon="11.663404737883445"><ele>1621.0000000000002</ele><time>2026-05-02T10:36:59Z</time></trkpt><trkpt lat="46.113613229150175" lon="11.66338542359644"><ele>1621.0</ele><time>2026-05-02T10:37:00Z</time></trkpt><trkpt lat="46.113540003600086" lon="11.66337127588716"><ele>1621.0</ele><time>2026-05-02T10:37:01Z</time></trkpt><trkpt lat="46.113458968090136" lon="11.663363223066566"><ele>1621.0</ele><time>2026-05-02T10:37:02Z</time></trkpt><trkpt lat="46.11337247097198" lon="11.663351745942137"><ele>1621.0000000000002</ele><time>2026-05-02T10:37:03Z</time></trkpt><trkpt lat="46.11328418447651" lon="11.663347512709263"><ele>1621.0</ele><time>2026-05-02T10:37:04Z</time></trkpt><trkpt lat="46.11320217362828" lon="11.663333977363807"><ele>1620.8333333333335</ele><time>2026-05-02T10:37:05Z</time></trkpt><trkpt lat="46.11311380806914" lon="11.6633255028884"><ele>1620.6666666666667</ele><time>2026-05-02T10:37:06Z</time></trkpt><trkpt lat="46.11303693924793" lon="11.663318757759038"><ele>1620.5</ele><time>2026-05-02T10:37:07Z</time></trkpt><trkpt lat="46.11295786788219" lon="11.663319973702317"><ele>1620.3333333333335</ele><time>2026-05-02T10:37:08Z</time></trkpt><trkpt lat="46.1128895855936" lon="11.663325333819206"><ele>1620.1666666666667</ele><time>2026-05-02T10:37:09Z</time></trkpt><trkpt lat="46.112787715459596" lon="11.663316801827904"><ele>1620.0</ele><time>2026-05-02T10:37:11Z</time></trkpt><trkpt lat="46.1127237351641" lon="11.663301356184835"><ele>1620.0</ele><time>2026-05-02T10:37:24.001Z</time></trkpt><trkpt lat="46.11286425821345" lon="11.663349167178811"><ele>1620.0</ele><time>2026-05-02T10:37:44.001Z</time></trkpt><trkpt lat="46.11294032269383" lon="11.663343581442382"><ele>1620.0</ele><time>2026-05-02T10:37:45.001Z</time></trkpt><trkpt lat="46.11300742155241" lon="11.663337906910709"><ele>1620.0</ele><time>2026-05-02T10:37:46.001Z</time></trkpt><trkpt lat="46.113077737152935" lon="11.663338376932467"><ele>1620.0</ele><time>2026-05-02T10:37:47.001Z</time></trkpt><trkpt lat="46.11314815113777" lon="11.663338831583866"><ele>1620.0</ele><time>2026-05-02T10:37:48.001Z</time></trkpt><trkpt lat="46.11321805100431" lon="11.663349392764106"><ele>1620.1666666666667</ele><time>2026-05-02T10:37:49.001Z</time></trkpt><trkpt lat="46.11328303044582" lon="11.663355379325932"><ele>1620.3333333333335</ele><time>2026-05-02T10:37:50.001Z</time></trkpt><trkpt lat="46.113406862594005" lon="11.66337645404778"><ele>1620.5</ele><time>2026-05-02T10:37:52Z</time></trkpt><trkpt lat="46.11347186474515" lon="11.66338250100579"><ele>1620.6666666666667</ele><time>2026-05-02T10:37:53Z</time></trkpt><trkpt lat="46.11359495208843" lon="11.663409354291794"><ele>1620.8333333333335</ele><time>2026-05-02T10:37:55Z</time></trkpt><trkpt lat="46.113660769634166" lon="11.66341146502187"><ele>1621.0</ele><time>2026-05-02T10:37:56Z</time></trkpt><trkpt lat="46.1137678975412" lon="11.663409580838083"><ele>1621.0000000000002</ele><time>2026-05-02T10:37:58Z</time></trkpt><trkpt lat="46.11387499058915" lon="11.663408080801648"><ele>1621.0</ele><time>2026-05-02T10:38:00Z</time></trkpt><trkpt lat="46.11394421209205" lon="11.663404561668838"><ele>1621.0</ele><time>2026-05-02T10:38:01Z</time></trkpt><trkpt lat="46.11400859590359" lon="11.663380833331718"><ele>1621.0</ele><time>2026-05-02T10:38:02Z</time></trkpt><trkpt lat="46.114098689848156" lon="11.663299496946873"><ele>1621.0000000000002</ele><time>2026-05-02T10:38:04Z</time></trkpt><trkpt lat="46.11415632477186" lon="11.663184348924666"><ele>1621.0</ele><time>2026-05-02T10:38:06Z</time></trkpt><trkpt lat="46.1141912161759" lon="11.663042390617546"><ele>1620.1666666666667</ele><time>2026-05-02T10:38:08Z</time></trkpt><trkpt lat="46.114215098228875" lon="11.662920899110832"><ele>1619.3333333333335</ele><time>2026-05-02T10:38:10Z</time></trkpt><trkpt lat="46.11423525458736" lon="11.662831516896889"><ele>1618.5</ele><time>2026-05-02T10:38:23Z</time></trkpt><trkpt lat="46.114253620154955" lon="11.662728521959167"><ele>1617.6666666666665</ele><time>2026-05-02T10:38:28Z</time></trkpt><trkpt lat="46.114274084290976" lon="11.662560956570484"><ele>1616.8333333333333</ele><time>2026-05-02T10:38:30Z</time></trkpt><trkpt lat="46.114288768171804" lon="11.662444198658381"><ele>1616.0</ele><time>2026-05-02T10:38:31Z</time></trkpt><trkpt lat="46.11430361430973" lon="11.662335150683496"><ele>1616.0</ele><time>2026-05-02T10:38:32Z</time></trkpt><trkpt lat="46.114315639294546" lon="11.662243868932942"><ele>1616.0</ele><time>2026-05-02T10:38:33Z</time></trkpt><trkpt lat="46.11434496079583" lon="11.662087779360208"><ele>1616.0</ele><time>2026-05-02T10:38:35Z</time></trkpt><trkpt lat="46.114393343362444" lon="11.661916577212832"><ele>1616.0</ele><time>2026-05-02T10:38:37Z</time></trkpt><trkpt lat="46.11442076875841" lon="11.661816651647007"><ele>1616.0</ele><time>2026-05-02T10:38:38Z</time></trkpt><trkpt lat="46.114447930471236" lon="11.661713217046572"><ele>1616.1999999999998</ele><time>2026-05-02T10:38:39Z</time></trkpt><trkpt lat="46.11447069235903" lon="11.661611678541039"><ele>1616.3999999999999</ele><time>2026-05-02T10:38:40Z</time></trkpt><trkpt lat="46.1144970197575" lon="11.661511157109993"><ele>1616.6</ele><time>2026-05-02T10:38:41Z</time></trkpt><trkpt lat="46.11451968458908" lon="11.661425460338357"><ele>1616.8</ele><time>2026-05-02T10:38:42Z</time></trkpt><trkpt lat="46.11457227132133" lon="11.661272771317867"><ele>1617.0</ele><time>2026-05-02T10:38:44Z</time></trkpt><trkpt lat="46.11465875453595" lon="11.661129803353429"><ele>1617.6666666666667</ele><time>2026-05-02T10:38:46Z</time></trkpt><trkpt lat="46.11471462555751" lon="11.661069748049472"><ele>1618.3333333333335</ele><time>2026-05-02T10:38:47Z</time></trkpt><trkpt lat="46.11476487106181" lon="11.66100359498719"><ele>1619.0</ele><time>2026-05-02T10:38:48Z</time></trkpt><trkpt lat="46.11482057204753" lon="11.66094788986698"><ele>1619.6666666666667</ele><time>2026-05-02T10:38:49Z</time></trkpt><trkpt lat="46.114876492140844" lon="11.66090191210226"><ele>1620.3333333333335</ele><time>2026-05-02T10:38:50Z</time></trkpt><trkpt lat="46.11493248263686" lon="11.660854215630357"><ele>1621.0</ele><time>2026-05-02T10:38:51Z</time></trkpt><trkpt lat="46.11501521373819" lon="11.66072095586012"><ele>1619.5714285714287</ele><time>2026-05-02T10:38:53Z</time></trkpt><trkpt lat="46.115035784132516" lon="11.660624203594427"><ele>1618.142857142857</ele><time>2026-05-02T10:38:54Z</time></trkpt><trkpt lat="46.115058556808144" lon="11.660515922522057"><ele>1616.7142857142858</ele><time>2026-05-02T10:38:55Z</time></trkpt><trkpt lat="46.11509962268668" lon="11.660416846497048"><ele>1615.2857142857142</ele><time>2026-05-02T10:38:56Z</time></trkpt><trkpt lat="46.11513779128917" lon="11.660317249115252"><ele>1613.857142857143</ele><time>2026-05-02T10:38:57Z</time></trkpt><trkpt lat="46.115166857734074" lon="11.660223811274868"><ele>1612.4285714285716</ele><time>2026-05-02T10:38:58Z</time></trkpt><trkpt lat="46.11518940713812" lon="11.660129020976747"><ele>1611.0</ele><time>2026-05-02T10:38:59Z</time></trkpt><trkpt lat="46.115217651284595" lon="11.659967198524756"><ele>1610.8</ele><time>2026-05-02T10:39:01Z</time></trkpt><trkpt lat="46.11524860801015" lon="11.659834559057296"><ele>1610.6</ele><time>2026-05-02T10:39:03Z</time></trkpt><trkpt lat="46.11531794143023" lon="11.659724924753124"><ele>1610.4</ele><time>2026-05-02T10:39:05Z</time></trkpt><trkpt lat="46.11541657800253" lon="11.659690569136819"><ele>1610.2</ele><time>2026-05-02T10:39:07Z</time></trkpt><trkpt lat="46.11553802019558" lon="11.659683671811012"><ele>1610.0</ele><time>2026-05-02T10:39:09Z</time></trkpt><trkpt lat="46.11560203653746" lon="11.65968603966443"><ele>1610.0</ele><time>2026-05-02T10:39:10Z</time></trkpt><trkpt lat="46.11570962961628" lon="11.659750500571901"><ele>1610.0</ele><time>2026-05-02T10:39:12Z</time></trkpt><trkpt lat="46.11575773969584" lon="11.659861960234338"><ele>1610.0</ele><time>2026-05-02T10:39:13Z</time></trkpt><trkpt lat="46.11583981979492" lon="11.659956474969812"><ele>1610.0</ele><time>2026-05-02T10:39:14Z</time></trkpt><trkpt lat="46.11591268008354" lon="11.66008947094137"><ele>1610.0</ele><time>2026-05-02T10:39:15Z</time></trkpt><trkpt lat="46.115970402367964" lon="11.660247114533334"><ele>1609.5</ele><time>2026-05-02T10:39:16Z</time></trkpt><trkpt lat="46.11603373747061" lon="11.660394968507418"><ele>1609.0</ele><time>2026-05-02T10:39:17Z</time></trkpt><trkpt lat="46.11608587479028" lon="11.660542243851271"><ele>1608.5</ele><time>2026-05-02T10:39:18Z</time></trkpt><trkpt lat="46.11613479984682" lon="11.66069513435683"><ele>1608.0</ele><time>2026-05-02T10:39:19Z</time></trkpt><trkpt lat="46.11619316143271" lon="11.660846115161318"><ele>1608.0</ele><time>2026-05-02T10:39:20Z</time></trkpt><trkpt lat="46.11622366438831" lon="11.66101392148971"><ele>1608.0</ele><time>2026-05-02T10:39:21Z</time></trkpt><trkpt lat="46.116253033229" lon="11.661177269472132"><ele>1608.0</ele><time>2026-05-02T10:39:22Z</time></trkpt><trkpt lat="46.116262464740494" lon="11.661308149152815"><ele>1608.0</ele><time>2026-05-02T10:39:23Z</time></trkpt><trkpt lat="46.11627665735888" lon="11.661405139355855"><ele>1608.0</ele><time>2026-05-02T10:39:24Z</time></trkpt><trkpt lat="46.11628731207428" lon="11.661501028116602"><ele>1606.8000000000002</ele><time>2026-05-02T10:39:25Z</time></trkpt><trkpt lat="46.116305456461255" lon="11.661673747900325"><ele>1605.6</ele><time>2026-05-02T10:39:27Z</time></trkpt><trkpt lat="46.11631805458549" lon="11.661841588006217"><ele>1604.4</ele><time>2026-05-02T10:39:29Z</time></trkpt><trkpt lat="46.11632367635182" lon="11.661933880869254"><ele>1603.1999999999998</ele><time>2026-05-02T10:39:30.001Z</time></trkpt><trkpt lat="46.11633395387632" lon="11.66203445665338"><ele>1602.0</ele><time>2026-05-02T10:39:31.001Z</time></trkpt><trkpt lat="46.11634405205887" lon="11.662145306919683"><ele>1600.8333333333333</ele><time>2026-05-02T10:39:32.001Z</time></trkpt><trkpt lat="46.11635449329327" lon="11.662255776100686"><ele>1599.6666666666665</ele><time>2026-05-02T10:39:33.001Z</time></trkpt><trkpt lat="46.116362491209905" lon="11.662353077454924"><ele>1598.5</ele><time>2026-05-02T10:39:34.001Z</time></trkpt><trkpt lat="46.11637041624245" lon="11.662443708670708"><ele>1597.3333333333333</ele><time>2026-05-02T10:39:35.001Z</time></trkpt><trkpt lat="46.1163810587734" lon="11.662624753456983"><ele>1596.1666666666665</ele><time>2026-05-02T10:39:37.001Z</time></trkpt><trkpt lat="46.11638865712562" lon="11.662721086460722"><ele>1595.0</ele><time>2026-05-02T10:39:38.001Z</time></trkpt><trkpt lat="46.11639603561904" lon="11.662825075959537"><ele>1593.6</ele><time>2026-05-02T10:39:39.001Z</time></trkpt><trkpt lat="46.11640527351557" lon="11.662947930790247"><ele>1592.2</ele><time>2026-05-02T10:39:40.001Z</time></trkpt><trkpt lat="46.116415319483146" lon="11.663094999888981"><ele>1590.8000000000002</ele><time>2026-05-02T10:39:41.001Z</time></trkpt><trkpt lat="46.116429930326724" lon="11.663257628201029"><ele>1589.4</ele><time>2026-05-02T10:39:42.001Z</time></trkpt><trkpt lat="46.11644440446472" lon="11.663435850554196"><ele>1588.0</ele><time>2026-05-02T10:39:43.001Z</time></trkpt><trkpt lat="46.11645897756786" lon="11.663617482607085"><ele>1587.75</ele><time>2026-05-02T10:39:44.001Z</time></trkpt><trkpt lat="46.116472957491546" lon="11.663810466210505"><ele>1587.5</ele><time>2026-05-02T10:39:45.001Z</time></trkpt><trkpt lat="46.11648711369461" lon="11.664009517622377"><ele>1587.25</ele><time>2026-05-02T10:39:46.001Z</time></trkpt><trkpt lat="46.11650373655753" lon="11.664212158362432"><ele>1587.0</ele><time>2026-05-02T10:39:47.001Z</time></trkpt><trkpt lat="46.116521251540895" lon="11.664417030292942"><ele>1585.25</ele><time>2026-05-02T10:39:48.001Z</time></trkpt><trkpt lat="46.1165401043157" lon="11.66461948898179"><ele>1583.5</ele><time>2026-05-02T10:39:49.001Z</time></trkpt><trkpt lat="46.11656693748469" lon="11.664824899156269"><ele>1581.75</ele><time>2026-05-02T10:39:50.001Z</time></trkpt><trkpt lat="46.11660724498618" lon="11.66501988746557"><ele>1580.0</ele><time>2026-05-02T10:39:51.001Z</time></trkpt><trkpt lat="46.116684091216754" lon="11.665186969196142"><ele>1581.75</ele><time>2026-05-02T10:39:52.001Z</time></trkpt><trkpt lat="46.11678671516866" lon="11.665315400170744"><ele>1583.5</ele><time>2026-05-02T10:39:53.001Z</time></trkpt><trkpt lat="46.11691504030471" lon="11.66540699801861"><ele>1585.25</ele><time>2026-05-02T10:39:54.001Z</time></trkpt><trkpt lat="46.11705797805665" lon="11.66544617912616"><ele>1587.0</ele><time>2026-05-02T10:39:55.001Z</time></trkpt><trkpt lat="46.11719820983195" lon="11.665422561991537"><ele>1587.0</ele><time>2026-05-02T10:39:56.001Z</time></trkpt><trkpt lat="46.11731858662849" lon="11.665387205551065"><ele>1587.0</ele><time>2026-05-02T10:39:57.001Z</time></trkpt><trkpt lat="46.117418492767385" lon="11.665414534704814"><ele>1587.0</ele><time>2026-05-02T10:39:58Z</time></trkpt><trkpt lat="46.117493391514635" lon="11.665504938348478"><ele>1587.0</ele><time>2026-05-02T10:39:59Z</time></trkpt><trkpt lat="46.11751829486159" lon="11.665633429539112"><ele>1587.0</ele><time>2026-05-02T10:40:00Z</time></trkpt><trkpt lat="46.117489005941046" lon="11.665763433252224"><ele>1587.0</ele><time>2026-05-02T10:40:01Z</time></trkpt><trkpt lat="46.11743395503226" lon="11.665893036862279"><ele>1587.0</ele><time>2026-05-02T10:40:02Z</time></trkpt><trkpt lat="46.117375214233796" lon="11.666039141500493"><ele>1587.0</ele><time>2026-05-02T10:40:03Z</time></trkpt><trkpt lat="46.117352269381485" lon="11.666205091840979"><ele>1587.0</ele><time>2026-05-02T10:40:04Z</time></trkpt><trkpt lat="46.117379345663565" lon="11.666382918327333"><ele>1593.5</ele><time>2026-05-02T10:40:05Z</time></trkpt><trkpt lat="46.117434607023746" lon="11.666561834874534"><ele>1600.0</ele><time>2026-05-02T10:40:06Z</time></trkpt><trkpt lat="46.11749752241409" lon="11.666748189599948"><ele>1606.5</ele><time>2026-05-02T10:40:07Z</time></trkpt><trkpt lat="46.11755192912365" lon="11.666935126950499"><ele>1613.0</ele><time>2026-05-02T10:40:08Z</time></trkpt><trkpt lat="46.11761171380358" lon="11.66712674014697"><ele>1613.3333333333333</ele><time>2026-05-02T10:40:09Z</time></trkpt><trkpt lat="46.11767100856723" lon="11.667324599552993"><ele>1613.6666666666665</ele><time>2026-05-02T10:40:10Z</time></trkpt><trkpt lat="46.11772708367163" lon="11.667528347630617"><ele>1614.0</ele><time>2026-05-02T10:40:11Z</time></trkpt><trkpt lat="46.117797763548964" lon="11.667730191319553"><ele>1611.25</ele><time>2026-05-02T10:40:12Z</time></trkpt><trkpt lat="46.117853555589726" lon="11.667947436226353"><ele>1608.5</ele><time>2026-05-02T10:40:13Z</time></trkpt><trkpt lat="46.11788378386275" lon="11.668153063948205"><ele>1605.75</ele><time>2026-05-02T10:40:14Z</time></trkpt><trkpt lat="46.117904898618924" lon="11.668346830369236"><ele>1603.0</ele><time>2026-05-02T10:40:15Z</time></trkpt><trkpt lat="46.11791705188688" lon="11.668516894972278"><ele>1603.25</ele><time>2026-05-02T10:40:16Z</time></trkpt><trkpt lat="46.11794945828865" lon="11.668679359198443"><ele>1603.5</ele><time>2026-05-02T10:40:17Z</time></trkpt><trkpt lat="46.11800373041802" lon="11.668845653000263"><ele>1603.75</ele><time>2026-05-02T10:40:18Z</time></trkpt><trkpt lat="46.11806782009137" lon="11.6690229620454"><ele>1604.0</ele><time>2026-05-02T10:40:19.011Z</time></trkpt><trkpt lat="46.11813160235767" lon="11.669201264831274"><ele>1604.0</ele><time>2026-05-02T10:40:20.014Z</time></trkpt><trkpt lat="46.11818871778584" lon="11.669363882642987"><ele>1604.0</ele><time>2026-05-02T10:40:21.011Z</time></trkpt><trkpt lat="46.11824573038671" lon="11.669506181611085"><ele>1604.0</ele><time>2026-05-02T10:40:22.013Z</time></trkpt><trkpt lat="46.1182437505523" lon="11.669658117109051"><ele>1604.0</ele><time>2026-05-02T10:40:23.011Z</time></trkpt><trkpt lat="46.11821829133806" lon="11.669786792607324"><ele>1604.0</ele><time>2026-05-02T10:40:24.013Z</time></trkpt><trkpt lat="46.11792728309158" lon="11.669868221517344"><ele>1611.0</ele><time>2026-05-02T10:40:28Z</time></trkpt><trkpt lat="46.11784657918565" lon="11.669892046530526"><ele>1618.0</ele><time>2026-05-02T10:40:29Z</time></trkpt><trkpt lat="46.1177153993074" lon="11.6698614407995"><ele>1625.0</ele><time>2026-05-02T10:40:31Z</time></trkpt><trkpt lat="46.117603802540145" lon="11.669819114161395"><ele>1632.0</ele><time>2026-05-02T10:40:32Z</time></trkpt><trkpt lat="46.117480496821315" lon="11.669748230858726"><ele>1630.0</ele><time>2026-05-02T10:40:33Z</time></trkpt><trkpt lat="46.11736652809966" lon="11.669689924828901"><ele>1628.0</ele><time>2026-05-02T10:40:34Z</time></trkpt><trkpt lat="46.117240823240614" lon="11.669631952519103"><ele>1626.0</ele><time>2026-05-02T10:40:35Z</time></trkpt><trkpt lat="46.117105267769894" lon="11.669606477548504"><ele>1624.0</ele><time>2026-05-02T10:40:36Z</time></trkpt><trkpt lat="46.11695742595242" lon="11.669617701594754"><ele>1624.0</ele><time>2026-05-02T10:40:37Z</time></trkpt><trkpt lat="46.11682314439611" lon="11.669681155689952"><ele>1624.0</ele><time>2026-05-02T10:40:38Z</time></trkpt><trkpt lat="46.11671108904998" lon="11.669802422908647"><ele>1624.0</ele><time>2026-05-02T10:40:39Z</time></trkpt><trkpt lat="46.11661269851966" lon="11.669949802799858"><ele>1624.0</ele><time>2026-05-02T10:40:40Z</time></trkpt><trkpt lat="46.116529239236506" lon="11.67011801393964"><ele>1615.25</ele><time>2026-05-02T10:40:41Z</time></trkpt><trkpt lat="46.11648102146888" lon="11.670278720851405"><ele>1606.5</ele><time>2026-05-02T10:40:42Z</time></trkpt><trkpt lat="46.11645489296701" lon="11.670463441774524"><ele>1597.75</ele><time>2026-05-02T10:40:43Z</time></trkpt><trkpt lat="46.116444867452415" lon="11.670693367107486"><ele>1589.0</ele><time>2026-05-02T10:40:44Z</time></trkpt><trkpt lat="46.11642606505675" lon="11.670929679703388"><ele>1590.3333333333333</ele><time>2026-05-02T10:40:45Z</time></trkpt><trkpt lat="46.11640569272297" lon="11.671159973078588"><ele>1591.6666666666665</ele><time>2026-05-02T10:40:46Z</time></trkpt><trkpt lat="46.11638164858614" lon="11.671396686068912"><ele>1593.0</ele><time>2026-05-02T10:40:47Z</time></trkpt><trkpt lat="46.116352184895874" lon="11.671639262175965"><ele>1593.0</ele><time>2026-05-02T10:40:48Z</time></trkpt><trkpt lat="46.11632872096581" lon="11.671865576257254"><ele>1593.0</ele><time>2026-05-02T10:40:49Z</time></trkpt><trkpt lat="46.11630214705295" lon="11.67206941924048"><ele>1593.0</ele><time>2026-05-02T10:40:50Z</time></trkpt><trkpt lat="46.116280873971974" lon="11.672259314225533"><ele>1593.0</ele><time>2026-05-02T10:40:51Z</time></trkpt><trkpt lat="46.11626320861037" lon="11.67243980014562"><ele>1592.25</ele><time>2026-05-02T10:40:52Z</time></trkpt><trkpt lat="46.11625891159085" lon="11.672619531034782"><ele>1591.5</ele><time>2026-05-02T10:40:53Z</time></trkpt><trkpt lat="46.11629137028287" lon="11.672804104857239"><ele>1590.75</ele><time>2026-05-02T10:40:54Z</time></trkpt><trkpt lat="46.11635744383169" lon="11.672977363933118"><ele>1590.0</ele><time>2026-05-02T10:40:55Z</time></trkpt><trkpt lat="46.11644462854297" lon="11.673133395186548"><ele>1590.0</ele><time>2026-05-02T10:40:56Z</time></trkpt><trkpt lat="46.11655589985148" lon="11.673256935229636"><ele>1590.0</ele><time>2026-05-02T10:40:57Z</time></trkpt><trkpt lat="46.11667356280042" lon="11.673370725984844"><ele>1590.0</ele><time>2026-05-02T10:40:58Z</time></trkpt><trkpt lat="46.11678727072684" lon="11.673496668419086"><ele>1590.0</ele><time>2026-05-02T10:40:59Z</time></trkpt><trkpt lat="46.11689290062573" lon="11.673634058549316"><ele>1594.75</ele><time>2026-05-02T10:41:00Z</time></trkpt><trkpt lat="46.11698520062773" lon="11.673793409742853"><ele>1599.5</ele><time>2026-05-02T10:41:01Z</time></trkpt><trkpt lat="46.11706589592132" lon="11.673959216906262"><ele>1604.25</ele><time>2026-05-02T10:41:02Z</time></trkpt><trkpt lat="46.1171371107681" lon="11.67413752815414"><ele>1609.0</ele><time>2026-05-02T10:41:03Z</time></trkpt><trkpt lat="46.117193059395355" lon="11.674323856546549"><ele>1611.5</ele><time>2026-05-02T10:41:04Z</time></trkpt><trkpt lat="46.11723603101682" lon="11.67451004220585"><ele>1614.0</ele><time>2026-05-02T10:41:05Z</time></trkpt><trkpt lat="46.11728231793352" lon="11.674674369107864"><ele>1616.5</ele><time>2026-05-02T10:41:06Z</time></trkpt><trkpt lat="46.11736913603162" lon="11.67479832409203"><ele>1619.0</ele><time>2026-05-02T10:41:07Z</time></trkpt><trkpt lat="46.11748757321915" lon="11.674903831841918"><ele>1619.0</ele><time>2026-05-02T10:41:08Z</time></trkpt><trkpt lat="46.11761061138506" lon="11.67500138359082"><ele>1619.0</ele><time>2026-05-02T10:41:09Z</time></trkpt><trkpt lat="46.11773734529838" lon="11.675092390295818"><ele>1619.0</ele><time>2026-05-02T10:41:10Z</time></trkpt><trkpt lat="46.11785962571905" lon="11.675176204467187"><ele>1619.0</ele><time>2026-05-02T10:41:11Z</time></trkpt><trkpt lat="46.117967890221955" lon="11.67528306005137"><ele>1612.5</ele><time>2026-05-02T10:41:12Z</time></trkpt><trkpt lat="46.118056674469855" lon="11.675427665520534"><ele>1606.0</ele><time>2026-05-02T10:41:13Z</time></trkpt><trkpt lat="46.11812118656312" lon="11.675602696667507"><ele>1599.5</ele><time>2026-05-02T10:41:14Z</time></trkpt><trkpt lat="46.1181359809249" lon="11.675801116443663"><ele>1593.0</ele><time>2026-05-02T10:41:15Z</time></trkpt><trkpt lat="46.1181099146903" lon="11.676002009396544"><ele>1594.0</ele><time>2026-05-02T10:41:16Z</time></trkpt><trkpt lat="46.118033739148274" lon="11.676195683573193"><ele>1595.0</ele><time>2026-05-02T10:41:17Z</time></trkpt><trkpt lat="46.11793083127391" lon="11.676371734419499"><ele>1596.0</ele><time>2026-05-02T10:41:18Z</time></trkpt><trkpt lat="46.117836509845056" lon="11.676547880710277"><ele>1596.0</ele><time>2026-05-02T10:41:19Z</time></trkpt><trkpt lat="46.11775867438738" lon="11.67671376734042"><ele>1596.0</ele><time>2026-05-02T10:41:20Z</time></trkpt><trkpt lat="46.11768866995014" lon="11.676857254246602"><ele>1596.0</ele><time>2026-05-02T10:41:21Z</time></trkpt><trkpt lat="46.11764936687598" lon="11.676995194999995"><ele>1596.0</ele><time>2026-05-02T10:41:22Z</time></trkpt><trkpt lat="46.117667717135" lon="11.677139482679502"><ele>1595.75</ele><time>2026-05-02T10:41:23Z</time></trkpt><trkpt lat="46.11773032016792" lon="11.677269465609188"><ele>1595.5</ele><time>2026-05-02T10:41:24Z</time></trkpt><trkpt lat="46.11781847351322" lon="11.677384839064223"><ele>1595.25</ele><time>2026-05-02T10:41:25Z</time></trkpt><trkpt lat="46.11790788941933" lon="11.67750917273826"><ele>1595.0</ele><time>2026-05-02T10:41:26Z</time></trkpt><trkpt lat="46.11799126469547" lon="11.677631452920037"><ele>1594.9999999999998</ele><time>2026-05-02T10:41:27Z</time></trkpt><trkpt lat="46.11806001820951" lon="11.677739926467513"><ele>1595.0</ele><time>2026-05-02T10:41:28.001Z</time></trkpt><trkpt lat="46.11811373264761" lon="11.677827227611916"><ele>1595.0</ele><time>2026-05-02T10:41:29.001Z</time></trkpt><trkpt lat="46.118154110183475" lon="11.677898575904573"><ele>1595.0</ele><time>2026-05-02T10:41:30.001Z</time></trkpt><trkpt lat="46.118223959677465" lon="11.678016327528415"><ele>1594.9999999999998</ele><time>2026-05-02T10:41:32.001Z</time></trkpt><trkpt lat="46.11826812430953" lon="11.678115465513143"><ele>1595.0</ele><time>2026-05-02T10:41:34.001Z</time></trkpt><trkpt lat="46.118316813083304" lon="11.678260427571837"><ele>1599.0</ele><time>2026-05-02T10:41:36.001Z</time></trkpt><trkpt lat="46.11833713457249" lon="11.678395978915674"><ele>1603.0</ele><time>2026-05-02T10:41:37.001Z</time></trkpt><trkpt lat="46.118353737663746" lon="11.678536580974413"><ele>1607.0</ele><time>2026-05-02T10:41:38.001Z</time></trkpt><trkpt lat="46.11837387689556" lon="11.678711920975491"><ele>1611.0</ele><time>2026-05-02T10:41:39.001Z</time></trkpt><trkpt lat="46.11839881510805" lon="11.678903491481009"><ele>1611.0</ele><time>2026-05-02T10:41:40.001Z</time></trkpt><trkpt lat="46.11842642623099" lon="11.679093616250215"><ele>1611.0</ele><time>2026-05-02T10:41:41.001Z</time></trkpt><trkpt lat="46.11845198948823" lon="11.679285295973676"><ele>1611.0</ele><time>2026-05-02T10:41:42.001Z</time></trkpt><trkpt lat="46.11847360449944" lon="11.679461730466336"><ele>1611.0</ele><time>2026-05-02T10:41:43.001Z</time></trkpt><trkpt lat="46.11848173190737" lon="11.67957188327092"><ele>1610.5</ele><time>2026-05-02T10:41:44.001Z</time></trkpt><trkpt lat="46.118472699668814" lon="11.679687016114496"><ele>1610.0</ele><time>2026-05-02T10:41:47.001Z</time></trkpt><trkpt lat="46.118485883997" lon="11.679777769064392"><ele>1609.5</ele><time>2026-05-02T10:41:51.001Z</time></trkpt><trkpt lat="46.118480634426156" lon="11.679605311743284"><ele>1609.0</ele><time>2026-05-02T10:41:54.001Z</time></trkpt><trkpt lat="46.1184093259937" lon="11.679570541387694"><ele>1608.5</ele><time>2026-05-02T10:41:58.001Z</time></trkpt><trkpt lat="46.11835027383192" lon="11.67968498189699"><ele>1608.0</ele><time>2026-05-02T10:42:00.001Z</time></trkpt><trkpt lat="46.11831720223806" lon="11.679843929547904"><ele>1608.0</ele><time>2026-05-02T10:42:02.001Z</time></trkpt><trkpt lat="46.11832882944117" lon="11.680011776492426"><ele>1608.0</ele><time>2026-05-02T10:42:04Z</time></trkpt><trkpt lat="46.118345915361076" lon="11.68012789683654"><ele>1608.0</ele><time>2026-05-02T10:42:07Z</time></trkpt><trkpt lat="46.11833702765736" lon="11.680328291942327"><ele>1608.0</ele><time>2026-05-02T10:42:09Z</time></trkpt><trkpt lat="46.11832064305584" lon="11.680439758775936"><ele>1608.0</ele><time>2026-05-02T10:42:10Z</time></trkpt><trkpt lat="46.11830074122866" lon="11.680542326655093"><ele>1608.6666666666667</ele><time>2026-05-02T10:42:11Z</time></trkpt><trkpt lat="46.118277794251426" lon="11.680627545370255"><ele>1609.3333333333335</ele><time>2026-05-02T10:42:12Z</time></trkpt><trkpt lat="46.11825379228597" lon="11.680718854519357"><ele>1610.0</ele><time>2026-05-02T10:42:13Z</time></trkpt><trkpt lat="46.118225092734924" lon="11.680812177423306"><ele>1610.6666666666667</ele><time>2026-05-02T10:42:14Z</time></trkpt><trkpt lat="46.11817811486917" lon="11.680974397226459"><ele>1611.3333333333335</ele><time>2026-05-02T10:42:16Z</time></trkpt><trkpt lat="46.11814965413451" lon="11.681113675234494"><ele>1612.0</ele><time>2026-05-02T10:42:18Z</time></trkpt><trkpt lat="46.118107976968105" lon="11.681209412363577"><ele>1607.6666666666667</ele><time>2026-05-02T10:42:20Z</time></trkpt><trkpt lat="46.11806851855044" lon="11.681299434124334"><ele>1603.3333333333335</ele><time>2026-05-02T10:42:22Z</time></trkpt><trkpt lat="46.118062444162504" lon="11.68139984787042"><ele>1599.0</ele><time>2026-05-02T10:42:25Z</time></trkpt><trkpt lat="46.11807193864863" lon="11.681532434064543"><ele>1594.6666666666665</ele><time>2026-05-02T10:42:27Z</time></trkpt><trkpt lat="46.118061500532306" lon="11.681663198973986"><ele>1590.3333333333333</ele><time>2026-05-02T10:42:29Z</time></trkpt><trkpt lat="46.118039899260275" lon="11.681770379963679"><ele>1586.0</ele><time>2026-05-02T10:42:31Z</time></trkpt><trkpt lat="46.11801445198971" lon="11.681877646980446"><ele>1586.4</ele><time>2026-05-02T10:42:33Z</time></trkpt><trkpt lat="46.117965322775056" lon="11.68198844606663"><ele>1586.8</ele><time>2026-05-02T10:42:35Z</time></trkpt><trkpt lat="46.11790100454016" lon="11.682078704099336"><ele>1587.2</ele><time>2026-05-02T10:42:37Z</time></trkpt><trkpt lat="46.11785328510941" lon="11.682161596116131"><ele>1587.6000000000001</ele><time>2026-05-02T10:42:39Z</time></trkpt><trkpt lat="46.11779517482449" lon="11.68228092348109"><ele>1588.0</ele><time>2026-05-02T10:42:41Z</time></trkpt><trkpt lat="46.11774695516836" lon="11.682415314944398"><ele>1588.0</ele><time>2026-05-02T10:42:43Z</time></trkpt><trkpt lat="46.117704405931434" lon="11.682528290726095"><ele>1588.0</ele><time>2026-05-02T10:42:45Z</time></trkpt><trkpt lat="46.11767878227601" lon="11.682636562352704"><ele>1588.0</ele><time>2026-05-02T10:42:47Z</time></trkpt><trkpt lat="46.11766280871398" lon="11.68278329100132"><ele>1588.0</ele><time>2026-05-02T10:42:49Z</time></trkpt><trkpt lat="46.11765157415697" lon="11.682901536881184"><ele>1588.0</ele><time>2026-05-02T10:42:51Z</time></trkpt><trkpt lat="46.11761989834384" lon="11.683072068750564"><ele>1589.4</ele><time>2026-05-02T10:42:53Z</time></trkpt><trkpt lat="46.11760380680466" lon="11.683168148144444"><ele>1590.8000000000002</ele><time>2026-05-02T10:42:54Z</time></trkpt><trkpt lat="46.11758736440094" lon="11.68325631804794"><ele>1592.2</ele><time>2026-05-02T10:42:55Z</time></trkpt><trkpt lat="46.11758272774796" lon="11.683433653486166"><ele>1593.6</ele><time>2026-05-02T10:42:57Z</time></trkpt><trkpt lat="46.11759750283887" lon="11.683586417684925"><ele>1595.0</ele><time>2026-05-02T10:42:59Z</time></trkpt><trkpt lat="46.11762607134598" lon="11.683747944504839"><ele>1595.0</ele><time>2026-05-02T10:43:01Z</time></trkpt><trkpt lat="46.117653637400714" lon="11.683830128955858"><ele>1595.0</ele><time>2026-05-02T10:43:02Z</time></trkpt><trkpt lat="46.11771483069333" lon="11.683953602836281"><ele>1595.0</ele><time>2026-05-02T10:43:04Z</time></trkpt><trkpt lat="46.11777057256334" lon="11.684047639537125"><ele>1595.0</ele><time>2026-05-02T10:43:06Z</time></trkpt><trkpt lat="46.11782520890279" lon="11.684216475687494"><ele>1595.0</ele><time>2026-05-02T10:43:08Z</time></trkpt><trkpt lat="46.117876490507165" lon="11.684398050604702"><ele>1594.6</ele><time>2026-05-02T10:43:10Z</time></trkpt><trkpt lat="46.117896474282475" lon="11.684489676639139"><ele>1594.2</ele><time>2026-05-02T10:43:11Z</time></trkpt><trkpt lat="46.11791738976871" lon="11.68458414735911"><ele>1593.8000000000002</ele><time>2026-05-02T10:43:12Z</time></trkpt><trkpt lat="46.11794391497565" lon="11.684752043837225"><ele>1593.4</ele><time>2026-05-02T10:43:14Z</time></trkpt><trkpt lat="46.11797754520282" lon="11.684909509897151"><ele>1593.0</ele><time>2026-05-02T10:43:16Z</time></trkpt><trkpt lat="46.118035173578484" lon="11.685032914836585"><ele>1593.0</ele><time>2026-05-02T10:43:18Z</time></trkpt><trkpt lat="46.11806561025283" lon="11.68511386836988"><ele>1593.0</ele><time>2026-05-02T10:43:19Z</time></trkpt><trkpt lat="46.11809868812138" lon="11.685284657970369"><ele>1593.0</ele><time>2026-05-02T10:43:21Z</time></trkpt><trkpt lat="46.11811888776361" lon="11.685459134860272"><ele>1593.0</ele><time>2026-05-02T10:43:23Z</time></trkpt><trkpt lat="46.11812617187023" lon="11.68555818472304"><ele>1593.0</ele><time>2026-05-02T10:43:24Z</time></trkpt><trkpt lat="46.118137665192066" lon="11.685656660191952"><ele>1593.0</ele><time>2026-05-02T10:43:25Z</time></trkpt><trkpt lat="46.11815690080142" lon="11.68580527234584"><ele>1594.2</ele><time>2026-05-02T10:43:27Z</time></trkpt><trkpt lat="46.11818560455376" lon="11.685945208715227"><ele>1595.4</ele><time>2026-05-02T10:43:29Z</time></trkpt><trkpt lat="46.11822438311797" lon="11.686110413428963"><ele>1596.6000000000001</ele><time>2026-05-02T10:43:31Z</time></trkpt><trkpt lat="46.11824272714469" lon="11.686208102742043"><ele>1597.8000000000002</ele><time>2026-05-02T10:43:32Z</time></trkpt><trkpt lat="46.11825051935818" lon="11.686307227763857"><ele>1599.0</ele><time>2026-05-02T10:43:33Z</time></trkpt><trkpt lat="46.118290822444955" lon="11.686465712621466"><ele>1600.5</ele><time>2026-05-02T10:43:35Z</time></trkpt><trkpt lat="46.1183414586786" lon="11.686626468794023"><ele>1602.0</ele><time>2026-05-02T10:43:37.001Z</time></trkpt><trkpt lat="46.11835852758252" lon="11.686723919305864"><ele>1603.5</ele><time>2026-05-02T10:43:38.001Z</time></trkpt><trkpt lat="46.11836915062256" lon="11.686820787680015"><ele>1605.0</ele><time>2026-05-02T10:43:39.001Z</time></trkpt><trkpt lat="46.11838615104053" lon="11.686933092801844"><ele>1606.5</ele><time>2026-05-02T10:43:41.001Z</time></trkpt><trkpt lat="46.118397660543074" lon="11.687046330644444"><ele>1608.0</ele><time>2026-05-02T10:43:43.001Z</time></trkpt><trkpt lat="46.11842447847391" lon="11.687167342713005"><ele>1608.8333333333333</ele><time>2026-05-02T10:43:45.001Z</time></trkpt><trkpt lat="46.11846497360826" lon="11.687294440077457"><ele>1609.6666666666665</ele><time>2026-05-02T10:43:47.001Z</time></trkpt><trkpt lat="46.11850451067793" lon="11.687413227059553"><ele>1610.5</ele><time>2026-05-02T10:43:49.001Z</time></trkpt><trkpt lat="46.11851226041045" lon="11.687510897187561"><ele>1611.3333333333333</ele><time>2026-05-02T10:43:51.001Z</time></trkpt><trkpt lat="46.11847139097551" lon="11.687590735670094"><ele>1612.1666666666665</ele><time>2026-05-02T10:43:55.001Z</time></trkpt><trkpt lat="46.11842611472944" lon="11.687672512495146"><ele>1613.0</ele><time>2026-05-02T10:44:06.001Z</time></trkpt><trkpt lat="46.11834653341091" lon="11.687737735709929"><ele>1613.9999999999998</ele><time>2026-05-02T10:44:09.001Z</time></trkpt><trkpt lat="46.118261198889954" lon="11.687783034605665"><ele>1615.0</ele><time>2026-05-02T10:44:11Z</time></trkpt><trkpt lat="46.1181928663049" lon="11.687829685271803"><ele>1616.0</ele><time>2026-05-02T10:44:13Z</time></trkpt><trkpt lat="46.11813030784132" lon="11.687890534466138"><ele>1617.0</ele><time>2026-05-02T10:44:15Z</time></trkpt><trkpt lat="46.11805742624894" lon="11.687948625752338"><ele>1617.9999999999998</ele><time>2026-05-02T10:44:17Z</time></trkpt><trkpt lat="46.11797465377198" lon="11.68794904965294"><ele>1619.0</ele><time>2026-05-02T10:44:20Z</time></trkpt><trkpt lat="46.11791209627621" lon="11.687882969258904"><ele>1618.8333333333333</ele><time>2026-05-02T10:44:23Z</time></trkpt><trkpt lat="46.11787502936232" lon="11.687783197201108"><ele>1618.6666666666665</ele><time>2026-05-02T10:44:26Z</time></trkpt><trkpt lat="46.117833062300356" lon="11.687672189000642"><ele>1618.5</ele><time>2026-05-02T10:44:29Z</time></trkpt><trkpt lat="46.1178116497529" lon="11.687556234285058"><ele>1618.3333333333335</ele><time>2026-05-02T10:44:32Z</time></trkpt><trkpt lat="46.117782058482796" lon="11.687442459303305"><ele>1618.1666666666667</ele><time>2026-05-02T10:44:35Z</time></trkpt><trkpt lat="46.117751874280614" lon="11.687330077935831"><ele>1618.0</ele><time>2026-05-02T10:44:38Z</time></trkpt><trkpt lat="46.1177194702159" lon="11.687244069019926"><ele>1618.0</ele><time>2026-05-02T10:44:49Z</time></trkpt><trkpt lat="46.11768348505228" lon="11.687168156227479"><ele>1618.0</ele><time>2026-05-02T10:44:50Z</time></trkpt><trkpt lat="46.117637321846026" lon="11.687081286362318"><ele>1618.0</ele><time>2026-05-02T10:44:51Z</time></trkpt><trkpt lat="46.117585662699504" lon="11.68700069724806"><ele>1618.0</ele><time>2026-05-02T10:44:52Z</time></trkpt><trkpt lat="46.11753446604922" lon="11.686927189403852"><ele>1618.0</ele><time>2026-05-02T10:44:53Z</time></trkpt><trkpt lat="46.117485459885394" lon="11.686848695902228"><ele>1618.0</ele><time>2026-05-02T10:44:54Z</time></trkpt><trkpt lat="46.117440700344304" lon="11.686771741701488"><ele>1618.0</ele><time>2026-05-02T10:44:55Z</time></trkpt><trkpt lat="46.11739712446154" lon="11.686690861274078"><ele>1617.6666666666667</ele><time>2026-05-02T10:44:56Z</time></trkpt><trkpt lat="46.117363062261745" lon="11.686607933676903"><ele>1617.3333333333335</ele><time>2026-05-02T10:44:57Z</time></trkpt><trkpt lat="46.11734820292913" lon="11.686514421573547"><ele>1617.0</ele><time>2026-05-02T10:44:58Z</time></trkpt><trkpt lat="46.11735031591343" lon="11.686412713875297"><ele>1616.6666666666665</ele><time>2026-05-02T10:44:59Z</time></trkpt><trkpt lat="46.11737253174007" lon="11.686310639269376"><ele>1616.3333333333333</ele><time>2026-05-02T10:45:00Z</time></trkpt><trkpt lat="46.11739011584824" lon="11.68621236165684"><ele>1616.0</ele><time>2026-05-02T10:45:01Z</time></trkpt><trkpt lat="46.117359017884695" lon="11.6860504381622"><ele>1616.0</ele><time>2026-05-02T10:45:03Z</time></trkpt><trkpt lat="46.11731955360737" lon="11.685969635204291"><ele>1616.0</ele><time>2026-05-02T10:45:04Z</time></trkpt><trkpt lat="46.117281657287606" lon="11.685887352028724"><ele>1616.0</ele><time>2026-05-02T10:45:05Z</time></trkpt><trkpt lat="46.117258287422224" lon="11.685797449219498"><ele>1616.0</ele><time>2026-05-02T10:45:06Z</time></trkpt><trkpt lat="46.117253411440615" lon="11.685700262818697"><ele>1616.0</ele><time>2026-05-02T10:45:07Z</time></trkpt><trkpt lat="46.1172582156815" lon="11.685597762997038"><ele>1616.0</ele><time>2026-05-02T10:45:08Z</time></trkpt><trkpt lat="46.11726922428586" lon="11.68548594775302"><ele>1616.0</ele><time>2026-05-02T10:45:09Z</time></trkpt><trkpt lat="46.11727690941364" lon="11.685369794562089"><ele>1616.3333333333333</ele><time>2026-05-02T10:45:10Z</time></trkpt><trkpt lat="46.1172738824883" lon="11.685258550538078"><ele>1616.6666666666665</ele><time>2026-05-02T10:45:11Z</time></trkpt><trkpt lat="46.1172695062403" lon="11.685152961905942"><ele>1617.0</ele><time>2026-05-02T10:45:12Z</time></trkpt><trkpt lat="46.11725918180909" lon="11.685036999385767"><ele>1617.3333333333335</ele><time>2026-05-02T10:45:13Z</time></trkpt><trkpt lat="46.11724855896429" lon="11.684922137183447"><ele>1617.6666666666667</ele><time>2026-05-02T10:45:14Z</time></trkpt><trkpt lat="46.11723827770267" lon="11.6848022132317"><ele>1618.0</ele><time>2026-05-02T10:45:15Z</time></trkpt><trkpt lat="46.11722570805231" lon="11.684688384973885"><ele>1618.0000000000002</ele><time>2026-05-02T10:45:16Z</time></trkpt><trkpt lat="46.117210764225874" lon="11.684585592876466"><ele>1618.0</ele><time>2026-05-02T10:45:17Z</time></trkpt><trkpt lat="46.11718818314562" lon="11.68448191999856"><ele>1618.0</ele><time>2026-05-02T10:45:18Z</time></trkpt><trkpt lat="46.11716964488248" lon="11.684374088353428"><ele>1618.0</ele><time>2026-05-02T10:45:19Z</time></trkpt><trkpt lat="46.1171330673933" lon="11.684252960202887"><ele>1618.0000000000002</ele><time>2026-05-02T10:45:20Z</time></trkpt><trkpt lat="46.11710634349697" lon="11.684129059860144"><ele>1618.0</ele><time>2026-05-02T10:45:21Z</time></trkpt><trkpt lat="46.117074882252055" lon="11.684018739952112"><ele>1616.8000000000002</ele><time>2026-05-02T10:45:22Z</time></trkpt><trkpt lat="46.11704430991465" lon="11.683899177976146"><ele>1615.6</ele><time>2026-05-02T10:45:23Z</time></trkpt><trkpt lat="46.117031833291676" lon="11.68376712400856"><ele>1614.4</ele><time>2026-05-02T10:45:24Z</time></trkpt><trkpt lat="46.11701931737806" lon="11.683633742244165"><ele>1613.1999999999998</ele><time>2026-05-02T10:45:25Z</time></trkpt><trkpt lat="46.11700164344196" lon="11.683486564957025"><ele>1612.0</ele><time>2026-05-02T10:45:26Z</time></trkpt><trkpt lat="46.11699393207496" lon="11.683349663491166"><ele>1611.6</ele><time>2026-05-02T10:45:27Z</time></trkpt><trkpt lat="46.11697764713778" lon="11.683210817991121"><ele>1611.1999999999998</ele><time>2026-05-02T10:45:28Z</time></trkpt><trkpt lat="46.11696637141353" lon="11.683073729334263"><ele>1610.8</ele><time>2026-05-02T10:45:29Z</time></trkpt><trkpt lat="46.11695808403949" lon="11.682949417825194"><ele>1610.4</ele><time>2026-05-02T10:45:30Z</time></trkpt><trkpt lat="46.11694183859897" lon="11.682813708830691"><ele>1610.0</ele><time>2026-05-02T10:45:31Z</time></trkpt><trkpt lat="46.116930501958606" lon="11.68267792147583"><ele>1609.8333333333333</ele><time>2026-05-02T10:45:32Z</time></trkpt><trkpt lat="46.11693997453887" lon="11.682547301123806"><ele>1609.6666666666665</ele><time>2026-05-02T10:45:33Z</time></trkpt><trkpt lat="46.11693751237872" lon="11.682420150879905"><ele>1609.5</ele><time>2026-05-02T10:45:34Z</time></trkpt><trkpt lat="46.116937871928656" lon="11.682300023858811"><ele>1609.3333333333335</ele><time>2026-05-02T10:45:35Z</time></trkpt><trkpt lat="46.11693831854209" lon="11.682177819704398"><ele>1609.1666666666667</ele><time>2026-05-02T10:45:36Z</time></trkpt><trkpt lat="46.116938506805155" lon="11.682052477651633"><ele>1609.0</ele><time>2026-05-02T10:45:37Z</time></trkpt><trkpt lat="46.11694539737603" lon="11.681930892805589"><ele>1608.1666666666667</ele><time>2026-05-02T10:45:38Z</time></trkpt><trkpt lat="46.11695035063846" lon="11.68179483604625"><ele>1607.3333333333335</ele><time>2026-05-02T10:45:39Z</time></trkpt><trkpt lat="46.11695506167428" lon="11.681688372388564"><ele>1606.5</ele><time>2026-05-02T10:45:40Z</time></trkpt><trkpt lat="46.116949712851074" lon="11.681573384155284"><ele>1605.6666666666665</ele><time>2026-05-02T10:45:41Z</time></trkpt><trkpt lat="46.11692766625984" lon="11.681457657426469"><ele>1604.8333333333333</ele><time>2026-05-02T10:45:42Z</time></trkpt><trkpt lat="46.11691196721703" lon="11.681336321525597"><ele>1604.0</ele><time>2026-05-02T10:45:43Z</time></trkpt><trkpt lat="46.116885644096016" lon="11.681221937194042"><ele>1604.0</ele><time>2026-05-02T10:45:44Z</time></trkpt><trkpt lat="46.11683119741884" lon="11.681125385583629"><ele>1604.0</ele><time>2026-05-02T10:45:45.001Z</time></trkpt><trkpt lat="46.11678604486933" lon="11.681008424865496"><ele>1604.0</ele><time>2026-05-02T10:45:46.001Z</time></trkpt><trkpt lat="46.11673616585293" lon="11.680894865650739"><ele>1604.0</ele><time>2026-05-02T10:45:47.001Z</time></trkpt><trkpt lat="46.11668755831986" lon="11.68077865327484"><ele>1604.0</ele><time>2026-05-02T10:45:48.001Z</time></trkpt><trkpt lat="46.11666965204745" lon="11.680637145991858"><ele>1602.6</ele><time>2026-05-02T10:45:49.001Z</time></trkpt><trkpt lat="46.11662760387202" lon="11.680494943442884"><ele>1601.2</ele><time>2026-05-02T10:45:50.001Z</time></trkpt><trkpt lat="46.11660954897692" lon="11.6803647907519"><ele>1599.8</ele><time>2026-05-02T10:45:51.001Z</time></trkpt><trkpt lat="46.116573638882315" lon="11.680232549721842"><ele>1598.3999999999999</ele><time>2026-05-02T10:45:52.001Z</time></trkpt><trkpt lat="46.11654985662291" lon="11.680109451781416"><ele>1597.0</ele><time>2026-05-02T10:45:53.001Z</time></trkpt><trkpt lat="46.116510807047455" lon="11.680009106625493"><ele>1597.0</ele><time>2026-05-02T10:45:54.001Z</time></trkpt><trkpt lat="46.11645813251416" lon="11.679920854044392"><ele>1597.0</ele><time>2026-05-02T10:45:55.001Z</time></trkpt><trkpt lat="46.11639070454352" lon="11.679821552831916"><ele>1597.0</ele><time>2026-05-02T10:45:56.001Z</time></trkpt><trkpt lat="46.11630645674798" lon="11.67971006715826"><ele>1597.0</ele><time>2026-05-02T10:45:57.001Z</time></trkpt><trkpt lat="46.116229664336174" lon="11.679611862660419"><ele>1597.0</ele><time>2026-05-02T10:45:58.001Z</time></trkpt><trkpt lat="46.11617318281583" lon="11.679520118219308"><ele>1597.0</ele><time>2026-05-02T10:45:59.001Z</time></trkpt><trkpt lat="46.11612185078221" lon="11.679437553901893"><ele>1597.0</ele><time>2026-05-02T10:46:00.001Z</time></trkpt><trkpt lat="46.11606440522904" lon="11.679377742487073"><ele>1597.0</ele><time>2026-05-02T10:46:01.001Z</time></trkpt><trkpt lat="46.11598096026038" lon="11.679324269155128"><ele>1597.0</ele><time>2026-05-02T10:46:02.001Z</time></trkpt><trkpt lat="46.11588400133085" lon="11.679257097166083"><ele>1597.0</ele><time>2026-05-02T10:46:03.001Z</time></trkpt><trkpt lat="46.11578577224253" lon="11.679173531463134"><ele>1594.8</ele><time>2026-05-02T10:46:04.001Z</time></trkpt><trkpt lat="46.11570226378077" lon="11.679101505045466"><ele>1592.6</ele><time>2026-05-02T10:46:05.001Z</time></trkpt><trkpt lat="46.11562291740229" lon="11.679030141310273"><ele>1590.3999999999999</ele><time>2026-05-02T10:46:06.001Z</time></trkpt><trkpt lat="46.11554731782006" lon="11.678932903347782"><ele>1588.1999999999998</ele><time>2026-05-02T10:46:07.001Z</time></trkpt><trkpt lat="46.115477277810335" lon="11.678817756596732"><ele>1586.0</ele><time>2026-05-02T10:46:08.001Z</time></trkpt><trkpt lat="46.115384896242816" lon="11.678680196940316"><ele>1581.5</ele><time>2026-05-02T10:46:09.001Z</time></trkpt><trkpt lat="46.1153093834368" lon="11.678546182799874"><ele>1577.0</ele><time>2026-05-02T10:46:10.001Z</time></trkpt><trkpt lat="46.11522953540785" lon="11.67842596405016"><ele>1572.5</ele><time>2026-05-02T10:46:11.001Z</time></trkpt><trkpt lat="46.115152920744336" lon="11.678297834152914"><ele>1568.0</ele><time>2026-05-02T10:46:12.001Z</time></trkpt><trkpt lat="46.11508159498411" lon="11.678170564317735"><ele>1568.0</ele><time>2026-05-02T10:46:13.001Z</time></trkpt><trkpt lat="46.11500892735917" lon="11.678040998677437"><ele>1568.0</ele><time>2026-05-02T10:46:14.001Z</time></trkpt><trkpt lat="46.11495308885524" lon="11.67792666358002"><ele>1568.0</ele><time>2026-05-02T10:46:15.001Z</time></trkpt><trkpt lat="46.11488625775281" lon="11.67782548726706"><ele>1568.0</ele><time>2026-05-02T10:46:16Z</time></trkpt><trkpt lat="46.11481484841873" lon="11.677726516561469"><ele>1568.0</ele><time>2026-05-02T10:46:17Z</time></trkpt><trkpt lat="46.11475402600351" lon="11.677631018645332"><ele>1567.4</ele><time>2026-05-02T10:46:18Z</time></trkpt><trkpt lat="46.114682766304874" lon="11.677535818413357"><ele>1566.8000000000002</ele><time>2026-05-02T10:46:19Z</time></trkpt><trkpt lat="46.114602361621316" lon="11.677435195381687"><ele>1566.2</ele><time>2026-05-02T10:46:20Z</time></trkpt><trkpt lat="46.11452915374822" lon="11.677335061060298"><ele>1565.6</ele><time>2026-05-02T10:46:21Z</time></trkpt><trkpt lat="46.11444340011407" lon="11.677237718613169"><ele>1565.0</ele><time>2026-05-02T10:46:22Z</time></trkpt><trkpt lat="46.11436684444217" lon="11.677136196562643"><ele>1565.0</ele><time>2026-05-02T10:46:23Z</time></trkpt><trkpt lat="46.11428695500008" lon="11.677045106092388"><ele>1565.0</ele><time>2026-05-02T10:46:24Z</time></trkpt><trkpt lat="46.11420515371257" lon="11.676940263077231"><ele>1565.0</ele><time>2026-05-02T10:46:25Z</time></trkpt><trkpt lat="46.11414151770844" lon="11.67683139121381"><ele>1565.0</ele><time>2026-05-02T10:46:26Z</time></trkpt><trkpt lat="46.11407091134837" lon="11.676734199685255"><ele>1565.0</ele><time>2026-05-02T10:46:27Z</time></trkpt><trkpt lat="46.11400716358639" lon="11.676662653076459"><ele>1558.9999999999998</ele><time>2026-05-02T10:46:28Z</time></trkpt><trkpt lat="46.1139396040295" lon="11.676605166502641"><ele>1553.0</ele><time>2026-05-02T10:46:29Z</time></trkpt><trkpt lat="46.113862335411866" lon="11.676571739609269"><ele>1547.0</ele><time>2026-05-02T10:46:30Z</time></trkpt><trkpt lat="46.113782900955144" lon="11.676555417441968"><ele>1541.0</ele><time>2026-05-02T10:46:31Z</time></trkpt><trkpt lat="46.113693948660604" lon="11.676570539601153"><ele>1535.0</ele><time>2026-05-02T10:46:32Z</time></trkpt><trkpt lat="46.11361670814893" lon="11.676597054719858"><ele>1529.0</ele><time>2026-05-02T10:46:33Z</time></trkpt><trkpt lat="46.11354324260271" lon="11.67664480844862"><ele>1529.0</ele><time>2026-05-02T10:46:34Z</time></trkpt><trkpt lat="46.11348229410507" lon="11.67670730963584"><ele>1529.0</ele><time>2026-05-02T10:46:35Z</time></trkpt><trkpt lat="46.11343485692546" lon="11.676796438830904"><ele>1529.0</ele><time>2026-05-02T10:46:36Z</time></trkpt><trkpt lat="46.11339329224551" lon="11.676910303365474"><ele>1529.0</ele><time>2026-05-02T10:46:37Z</time></trkpt><trkpt lat="46.11336704842019" lon="11.67703067584675"><ele>1529.0</ele><time>2026-05-02T10:46:38Z</time></trkpt><trkpt lat="46.113344452874244" lon="11.677156178893885"><ele>1529.0</ele><time>2026-05-02T10:46:39Z</time></trkpt><trkpt lat="46.113325664049285" lon="11.67728378540491"><ele>1530.0</ele><time>2026-05-02T10:46:40Z</time></trkpt><trkpt lat="46.11330817360815" lon="11.677418453924217"><ele>1531.0</ele><time>2026-05-02T10:46:41Z</time></trkpt><trkpt lat="46.113295836992535" lon="11.677550363347601"><ele>1532.0</ele><time>2026-05-02T10:46:42Z</time></trkpt><trkpt lat="46.11328829524061" lon="11.677671603248092"><ele>1533.0</ele><time>2026-05-02T10:46:43Z</time></trkpt><trkpt lat="46.11328866034581" lon="11.677801186693397"><ele>1534.0</ele><time>2026-05-02T10:46:44Z</time></trkpt><trkpt lat="46.11330834339475" lon="11.677938573665935"><ele>1534.0</ele><time>2026-05-02T10:46:45Z</time></trkpt><trkpt lat="46.11330648823016" lon="11.678078936113623"><ele>1534.0</ele><time>2026-05-02T10:46:46Z</time></trkpt><trkpt lat="46.113333274124734" lon="11.678226957224517"><ele>1534.0</ele><time>2026-05-02T10:46:47Z</time></trkpt><trkpt lat="46.11335941264351" lon="11.678391793991276"><ele>1534.0</ele><time>2026-05-02T10:46:48Z</time></trkpt><trkpt lat="46.11337700090587" lon="11.678544067571336"><ele>1534.0</ele><time>2026-05-02T10:46:49Z</time></trkpt><trkpt lat="46.11341100183956" lon="11.67869512832195"><ele>1533.2</ele><time>2026-05-02T10:46:50Z</time></trkpt><trkpt lat="46.113432322047025" lon="11.678852993388462"><ele>1532.4</ele><time>2026-05-02T10:46:51Z</time></trkpt><trkpt lat="46.113453670801" lon="11.678993487640698"><ele>1531.6</ele><time>2026-05-02T10:46:52Z</time></trkpt><trkpt lat="46.11345724213517" lon="11.679135666625115"><ele>1530.8</ele><time>2026-05-02T10:46:53Z</time></trkpt><trkpt lat="46.113493319428166" lon="11.679273590539168"><ele>1530.0</ele><time>2026-05-02T10:46:54Z</time></trkpt><trkpt lat="46.113507909887005" lon="11.679400812798054"><ele>1530.8333333333333</ele><time>2026-05-02T10:46:55Z</time></trkpt><trkpt lat="46.11349008000052" lon="11.679507438596039"><ele>1531.6666666666667</ele><time>2026-05-02T10:46:56Z</time></trkpt><trkpt lat="46.113454422362835" lon="11.67959852795074"><ele>1532.5</ele><time>2026-05-02T10:46:57Z</time></trkpt><trkpt lat="46.113416295882274" lon="11.679703504122639"><ele>1533.3333333333335</ele><time>2026-05-02T10:46:58Z</time></trkpt><trkpt lat="46.11339039227181" lon="11.679810221342178"><ele>1534.1666666666667</ele><time>2026-05-02T10:46:59Z</time></trkpt><trkpt lat="46.11338521882906" lon="11.67992550319252"><ele>1535.0</ele><time>2026-05-02T10:47:00Z</time></trkpt><trkpt lat="46.11340756920687" lon="11.680014867492467"><ele>1535.0</ele><time>2026-05-02T10:47:01Z</time></trkpt><trkpt lat="46.11339149709548" lon="11.680148871755994"><ele>1535.0</ele><time>2026-05-02T10:47:03Z</time></trkpt><trkpt lat="46.11332207983232" lon="11.680161873161051"><ele>1535.0</ele><time>2026-05-02T10:47:05Z</time></trkpt><trkpt lat="46.113251694794435" lon="11.680082149184761"><ele>1535.0</ele><time>2026-05-02T10:47:07Z</time></trkpt><trkpt lat="46.113212863327945" lon="11.67995534447763"><ele>1535.0</ele><time>2026-05-02T10:47:09Z</time></trkpt><trkpt lat="46.113165343341116" lon="11.679830432401955"><ele>1535.0</ele><time>2026-05-02T10:47:11Z</time></trkpt><trkpt lat="46.113135449712736" lon="11.67970039913392"><ele>1534.3333333333335</ele><time>2026-05-02T10:47:13Z</time></trkpt><trkpt lat="46.11309251300033" lon="11.679607376318984"><ele>1533.6666666666667</ele><time>2026-05-02T10:47:15Z</time></trkpt><trkpt lat="46.11304257949358" lon="11.679537324432273"><ele>1533.0</ele><time>2026-05-02T10:47:20Z</time></trkpt><trkpt lat="46.11298880495973" lon="11.679452247001775"><ele>1532.3333333333333</ele><time>2026-05-02T10:47:21Z</time></trkpt><trkpt lat="46.112932183615015" lon="11.67936432951569"><ele>1531.6666666666665</ele><time>2026-05-02T10:47:22Z</time></trkpt><trkpt lat="46.11285532407264" lon="11.679286519379515"><ele>1531.0</ele><time>2026-05-02T10:47:23Z</time></trkpt><trkpt lat="46.11278714600369" lon="11.679174452460007"><ele>1531.0</ele><time>2026-05-02T10:47:24Z</time></trkpt><trkpt lat="46.11272674030777" lon="11.679088179318342"><ele>1531.0</ele><time>2026-05-02T10:47:25Z</time></trkpt><trkpt lat="46.112678128451634" lon="11.679015936691115"><ele>1531.0</ele><time>2026-05-02T10:47:26Z</time></trkpt><trkpt lat="46.11261537144844" lon="11.67894385471879"><ele>1531.0</ele><time>2026-05-02T10:47:27Z</time></trkpt><trkpt lat="46.11256333865735" lon="11.678862066087513"><ele>1531.0</ele><time>2026-05-02T10:47:28Z</time></trkpt><trkpt lat="46.11251261786559" lon="11.678763690121931"><ele>1531.0</ele><time>2026-05-02T10:47:29Z</time></trkpt><trkpt lat="46.11245511520892" lon="11.678705684281388"><ele>1531.0</ele><time>2026-05-02T10:47:30Z</time></trkpt><trkpt lat="46.11240536790628" lon="11.67863733789795"><ele>1531.0</ele><time>2026-05-02T10:47:31Z</time></trkpt><trkpt lat="46.112370202107314" lon="11.67855537945484"><ele>1531.0</ele><time>2026-05-02T10:47:32Z</time></trkpt><trkpt lat="46.11229984611851" lon="11.678484874270795"><ele>1531.0</ele><time>2026-05-02T10:47:34Z</time></trkpt><trkpt lat="46.11225508136814" lon="11.67838799228567"><ele>1531.0</ele><time>2026-05-02T10:47:57.001Z</time></trkpt><trkpt lat="46.11218200951738" lon="11.678329228107401"><ele>1531.0</ele><time>2026-05-02T10:47:59.001Z</time></trkpt><trkpt lat="46.11211290762681" lon="11.678243545997363"><ele>1531.0</ele><time>2026-05-02T10:48:01.001Z</time></trkpt><trkpt lat="46.112059570366384" lon="11.678142823116504"><ele>1531.0</ele><time>2026-05-02T10:48:03.001Z</time></trkpt><trkpt lat="46.112005269356395" lon="11.678092588376133"><ele>1531.0</ele><time>2026-05-02T10:48:05.001Z</time></trkpt><trkpt lat="46.11196881019109" lon="11.678008651751124"><ele>1531.0</ele><time>2026-05-02T10:48:07.001Z</time></trkpt><trkpt lat="46.11192315549263" lon="11.677938606272841"><ele>1531.0</ele><time>2026-05-02T10:48:09.001Z</time></trkpt><trkpt lat="46.11186267054289" lon="11.677872654942028"><ele>1531.0</ele><time>2026-05-02T10:48:12.001Z</time></trkpt><trkpt lat="46.11181742741307" lon="11.677807321183561"><ele>1531.0</ele><time>2026-05-02T10:48:13.001Z</time></trkpt><trkpt lat="46.111764072816584" lon="11.677715711406767"><ele>1528.0</ele><time>2026-05-02T10:48:14.001Z</time></trkpt><trkpt lat="46.11171386323233" lon="11.677637688596676"><ele>1525.0</ele><time>2026-05-02T10:48:15.001Z</time></trkpt><trkpt lat="46.111654160927436" lon="11.677544728857141"><ele>1522.0</ele><time>2026-05-02T10:48:16.001Z</time></trkpt><trkpt lat="46.111594737520754" lon="11.677457725348008"><ele>1519.0</ele><time>2026-05-02T10:48:17.001Z</time></trkpt><trkpt lat="46.11153945919607" lon="11.677349124730428"><ele>1516.0</ele><time>2026-05-02T10:48:18.001Z</time></trkpt><trkpt lat="46.111459546296494" lon="11.677268155928065"><ele>1513.0</ele><time>2026-05-02T10:48:19.001Z</time></trkpt><trkpt lat="46.11140483601024" lon="11.677188930724839"><ele>1513.0</ele><time>2026-05-02T10:48:20.001Z</time></trkpt><trkpt lat="46.11134652547491" lon="11.677105849034312"><ele>1513.0</ele><time>2026-05-02T10:48:21.001Z</time></trkpt><trkpt lat="46.11127013608741" lon="11.67703869916564"><ele>1513.0</ele><time>2026-05-02T10:48:22Z</time></trkpt><trkpt lat="46.1112141239053" lon="11.67697267682728"><ele>1513.0</ele><time>2026-05-02T10:48:23Z</time></trkpt><trkpt lat="46.111148491220995" lon="11.676924704961797"><ele>1513.0</ele><time>2026-05-02T10:48:24Z</time></trkpt><trkpt lat="46.111068460074414" lon="11.676876657741264"><ele>1513.0</ele><time>2026-05-02T10:48:25Z</time></trkpt><trkpt lat="46.110986925020335" lon="11.676840126695051"><ele>1507.0</ele><time>2026-05-02T10:48:26Z</time></trkpt><trkpt lat="46.110893174961866" lon="11.676843782942113"><ele>1501.0</ele><time>2026-05-02T10:48:27Z</time></trkpt><trkpt lat="46.110808512810614" lon="11.67680897007551"><ele>1495.0</ele><time>2026-05-02T10:48:28Z</time></trkpt><trkpt lat="46.11072203083629" lon="11.676803241293726"><ele>1489.0</ele><time>2026-05-02T10:48:29Z</time></trkpt><trkpt lat="46.11062597829856" lon="11.676802807943487"><ele>1483.0</ele><time>2026-05-02T10:48:30Z</time></trkpt><trkpt lat="46.110541005437334" lon="11.676829733824327"><ele>1485.3333333333333</ele><time>2026-05-02T10:48:31Z</time></trkpt><trkpt lat="46.110462554498" lon="11.676848911206962"><ele>1487.6666666666665</ele><time>2026-05-02T10:48:32Z</time></trkpt><trkpt lat="46.11038870611479" lon="11.676876109926035"><ele>1490.0</ele><time>2026-05-02T10:48:33Z</time></trkpt><trkpt lat="46.1103144752868" lon="11.676913931353244"><ele>1492.3333333333333</ele><time>2026-05-02T10:48:34Z</time></trkpt><trkpt lat="46.110233428032096" lon="11.676986499787752"><ele>1494.6666666666667</ele><time>2026-05-02T10:48:35Z</time></trkpt><trkpt lat="46.11014916190934" lon="11.67708663987405"><ele>1497.0</ele><time>2026-05-02T10:48:36Z</time></trkpt><trkpt lat="46.11005141446144" lon="11.677197274710243"><ele>1497.0</ele><time>2026-05-02T10:48:37Z</time></trkpt><trkpt lat="46.10994306286144" lon="11.67730429267734"><ele>1497.0</ele><time>2026-05-02T10:48:38Z</time></trkpt><trkpt lat="46.10982129260263" lon="11.677415132784315"><ele>1497.0</ele><time>2026-05-02T10:48:39Z</time></trkpt><trkpt lat="46.10969431576632" lon="11.677485361405353"><ele>1497.0</ele><time>2026-05-02T10:48:40Z</time></trkpt><trkpt lat="46.10956965022018" lon="11.67756868531977"><ele>1500.25</ele><time>2026-05-02T10:48:41Z</time></trkpt><trkpt lat="46.10945102418229" lon="11.677661715844945"><ele>1503.5</ele><time>2026-05-02T10:48:42Z</time></trkpt><trkpt lat="46.10933277266714" lon="11.677714105624995"><ele>1506.75</ele><time>2026-05-02T10:48:43Z</time></trkpt><trkpt lat="46.109227972256534" lon="11.677783369354565"><ele>1510.0</ele><time>2026-05-02T10:48:44Z</time></trkpt><trkpt lat="46.10912853497353" lon="11.677842131828498"><ele>1503.75</ele><time>2026-05-02T10:48:45Z</time></trkpt><trkpt lat="46.10902173728643" lon="11.677869539849445"><ele>1497.5</ele><time>2026-05-02T10:48:46Z</time></trkpt><trkpt lat="46.10889319404675" lon="11.67790682014599"><ele>1491.25</ele><time>2026-05-02T10:48:47Z</time></trkpt><trkpt lat="46.10875995339592" lon="11.677966670900256"><ele>1485.0</ele><time>2026-05-02T10:48:48Z</time></trkpt><trkpt lat="46.1086297430741" lon="11.677977999847526"><ele>1485.0</ele><time>2026-05-02T10:48:49Z</time></trkpt><trkpt lat="46.10850296001218" lon="11.677990378469733"><ele>1485.0</ele><time>2026-05-02T10:48:50Z</time></trkpt><trkpt lat="46.10837599254346" lon="11.678035486580006"><ele>1485.0</ele><time>2026-05-02T10:48:51Z</time></trkpt><trkpt lat="46.10825083716404" lon="11.678045355267534"><ele>1485.0</ele><time>2026-05-02T10:48:52Z</time></trkpt><trkpt lat="46.10812109054346" lon="11.6781082595097"><ele>1479.0</ele><time>2026-05-02T10:48:53Z</time></trkpt><trkpt lat="46.10799692832338" lon="11.67816321483173"><ele>1473.0</ele><time>2026-05-02T10:48:54Z</time></trkpt><trkpt lat="46.10788388542292" lon="11.678216312999849"><ele>1467.0</ele><time>2026-05-02T10:48:55Z</time></trkpt><trkpt lat="46.10778109259127" lon="11.678266156099848"><ele>1461.0</ele><time>2026-05-02T10:48:56Z</time></trkpt><trkpt lat="46.107684926149" lon="11.678338648271216"><ele>1461.0</ele><time>2026-05-02T10:48:57Z</time></trkpt><trkpt lat="46.1075824500881" lon="11.678386752170475"><ele>1461.0</ele><time>2026-05-02T10:48:58Z</time></trkpt><trkpt lat="46.10747374479512" lon="11.678481846115467"><ele>1461.0</ele><time>2026-05-02T10:48:59Z</time></trkpt><trkpt lat="46.10737127476748" lon="11.678607282680504"><ele>1461.0</ele><time>2026-05-02T10:49:00Z</time></trkpt><trkpt lat="46.107273808129975" lon="11.678747546958297"><ele>1457.5</ele><time>2026-05-02T10:49:01Z</time></trkpt><trkpt lat="46.10717170065583" lon="11.678873635850302"><ele>1454.0</ele><time>2026-05-02T10:49:02Z</time></trkpt><trkpt lat="46.10706247215302" lon="11.678984379300212"><ele>1450.5</ele><time>2026-05-02T10:49:03Z</time></trkpt><trkpt lat="46.10695522891402" lon="11.679101591552257"><ele>1447.0</ele><time>2026-05-02T10:49:04Z</time></trkpt><trkpt lat="46.10683631184236" lon="11.679174551259909"><ele>1447.0</ele><time>2026-05-02T10:49:05Z</time></trkpt><trkpt lat="46.10672665027723" lon="11.67926363763281"><ele>1447.0</ele><time>2026-05-02T10:49:06Z</time></trkpt><trkpt lat="46.106630394558586" lon="11.679380174820842"><ele>1447.0</ele><time>2026-05-02T10:49:07Z</time></trkpt><trkpt lat="46.10656242788032" lon="11.679502505669072"><ele>1447.0</ele><time>2026-05-02T10:49:08Z</time></trkpt><trkpt lat="46.106481537561045" lon="11.679605100037001"><ele>1444.8</ele><time>2026-05-02T10:49:09Z</time></trkpt><trkpt lat="46.106420701517735" lon="11.67972356274276"><ele>1442.6</ele><time>2026-05-02T10:49:10Z</time></trkpt><trkpt lat="46.10634912008692" lon="11.679835922522471"><ele>1440.3999999999999</ele><time>2026-05-02T10:49:11Z</time></trkpt><trkpt lat="46.106301485259685" lon="11.679954113526579"><ele>1438.1999999999998</ele><time>2026-05-02T10:49:12Z</time></trkpt><trkpt lat="46.10626013994721" lon="11.680071875404394"><ele>1436.0</ele><time>2026-05-02T10:49:13Z</time></trkpt><trkpt lat="46.1062245186409" lon="11.680183691187052"><ele>1436.0</ele><time>2026-05-02T10:49:14Z</time></trkpt><trkpt lat="46.10619610132703" lon="11.680272174190184"><ele>1436.0</ele><time>2026-05-02T10:49:15Z</time></trkpt><trkpt lat="46.10613439126145" lon="11.680416246648335"><ele>1436.0</ele><time>2026-05-02T10:49:17Z</time></trkpt><trkpt lat="46.10607454753778" lon="11.680460426048034"><ele>1436.0</ele><time>2026-05-02T10:49:19Z</time></trkpt><trkpt lat="46.10602539200445" lon="11.680371444681336"><ele>1436.0</ele><time>2026-05-02T10:49:22Z</time></trkpt><trkpt lat="46.10607647756636" lon="11.680286462243792"><ele>1436.0</ele><time>2026-05-02T10:49:24Z</time></trkpt><trkpt lat="46.10615793975869" lon="11.680136274800944"><ele>1436.0</ele><time>2026-05-02T10:49:26Z</time></trkpt><trkpt lat="46.10616907769317" lon="11.680003857381465"><ele>1436.0</ele><time>2026-05-02T10:49:27Z</time></trkpt><trkpt lat="46.10618936401539" lon="11.679869257154078"><ele>1436.0</ele><time>2026-05-02T10:49:28Z</time></trkpt><trkpt lat="46.1062042920045" lon="11.679733066645122"><ele>1436.0</ele><time>2026-05-02T10:49:29Z</time></trkpt><trkpt lat="46.10621241995281" lon="11.67958817960567"><ele>1436.0</ele><time>2026-05-02T10:49:30Z</time></trkpt><trkpt lat="46.10624081213672" lon="11.679470393977683"><ele>1437.6666666666667</ele><time>2026-05-02T10:49:31Z</time></trkpt><trkpt lat="46.106266691597064" lon="11.679354998923097"><ele>1439.3333333333335</ele><time>2026-05-02T10:49:32Z</time></trkpt><trkpt lat="46.10630286826162" lon="11.679263320966667"><ele>1441.0</ele><time>2026-05-02T10:49:33Z</time></trkpt><trkpt lat="46.106317711889915" lon="11.679172604113822"><ele>1442.6666666666667</ele><time>2026-05-02T10:49:34Z</time></trkpt><trkpt lat="46.106362654414745" lon="11.679028664039219"><ele>1444.3333333333333</ele><time>2026-05-02T10:49:36Z</time></trkpt><trkpt lat="46.10640743670855" lon="11.678924136078614"><ele>1446.0</ele><time>2026-05-02T10:49:38Z</time></trkpt><trkpt lat="46.10630966406115" lon="11.678901711235707"><ele>1446.0</ele><time>2026-05-02T10:49:57.001Z</time></trkpt><trkpt lat="46.10624328905354" lon="11.678957326189508"><ele>1446.0</ele><time>2026-05-02T10:49:58.001Z</time></trkpt><trkpt lat="46.10617330880702" lon="11.679029172477096"><ele>1446.0</ele><time>2026-05-02T10:49:59.001Z</time></trkpt><trkpt lat="46.10610944002342" lon="11.6791153087963"><ele>1446.0</ele><time>2026-05-02T10:50:00.001Z</time></trkpt><trkpt lat="46.1060449021105" lon="11.679206479476399"><ele>1446.0</ele><time>2026-05-02T10:50:01.001Z</time></trkpt><trkpt lat="46.105975833545244" lon="11.679306449661205"><ele>1446.0</ele><time>2026-05-02T10:50:02.001Z</time></trkpt><trkpt lat="46.10591618326727" lon="11.679417276973677"><ele>1446.8</ele><time>2026-05-02T10:50:03.001Z</time></trkpt><trkpt lat="46.10586318638562" lon="11.679523084716417"><ele>1447.6</ele><time>2026-05-02T10:50:04.001Z</time></trkpt><trkpt lat="46.105814132362696" lon="11.67963698732818"><ele>1448.4</ele><time>2026-05-02T10:50:05.001Z</time></trkpt><trkpt lat="46.10575110623236" lon="11.679743529965723"><ele>1449.2</ele><time>2026-05-02T10:50:06.001Z</time></trkpt><trkpt lat="46.10567541608789" lon="11.679832977218659"><ele>1450.0</ele><time>2026-05-02T10:50:07.001Z</time></trkpt><trkpt lat="46.105594555764576" lon="11.679929342933262"><ele>1450.0</ele><time>2026-05-02T10:50:08.001Z</time></trkpt><trkpt lat="46.105503562987934" lon="11.680024965756433"><ele>1450.0</ele><time>2026-05-02T10:50:09.001Z</time></trkpt><trkpt lat="46.10541163073574" lon="11.680129776783575"><ele>1450.0</ele><time>2026-05-02T10:50:10.001Z</time></trkpt><trkpt lat="46.10532393600226" lon="11.680236628070041"><ele>1450.0</ele><time>2026-05-02T10:50:11.001Z</time></trkpt><trkpt lat="46.10523660730083" lon="11.680340836226911"><ele>1448.2</ele><time>2026-05-02T10:50:12.001Z</time></trkpt><trkpt lat="46.10513303970403" lon="11.680438139369208"><ele>1446.4</ele><time>2026-05-02T10:50:13.001Z</time></trkpt><trkpt lat="46.105047257962056" lon="11.680536184866233"><ele>1444.6</ele><time>2026-05-02T10:50:14.001Z</time></trkpt><trkpt lat="46.10496537486603" lon="11.680622474379241"><ele>1442.8</ele><time>2026-05-02T10:50:15.001Z</time></trkpt><trkpt lat="46.10490324195123" lon="11.680697031191919"><ele>1441.0</ele><time>2026-05-02T10:50:16.001Z</time></trkpt><trkpt lat="46.1048432873072" lon="11.680755003683982"><ele>1441.0</ele><time>2026-05-02T10:50:17.001Z</time></trkpt><trkpt lat="46.10475354571958" lon="11.680857841307033"><ele>1441.0</ele><time>2026-05-02T10:50:19.001Z</time></trkpt><trkpt lat="46.10468276337637" lon="11.680870813738489"><ele>1441.0</ele><time>2026-05-02T10:50:20.001Z</time></trkpt><trkpt lat="46.104596144402066" lon="11.680865429379399"><ele>1441.0</ele><time>2026-05-02T10:50:21.001Z</time></trkpt><trkpt lat="46.10452657315764" lon="11.680846879702063"><ele>1441.0</ele><time>2026-05-02T10:50:22.001Z</time></trkpt><trkpt lat="46.104460299576715" lon="11.68084190918612"><ele>1441.0</ele><time>2026-05-02T10:50:23.001Z</time></trkpt><trkpt lat="46.1043896896422" lon="11.68084247319934"><ele>1441.0</ele><time>2026-05-02T10:50:24.001Z</time></trkpt><trkpt lat="46.10432042408671" lon="11.680844417997339"><ele>1441.0</ele><time>2026-05-02T10:50:25.001Z</time></trkpt><trkpt lat="46.10425259515335" lon="11.680853226577618"><ele>1441.0</ele><time>2026-05-02T10:50:26.001Z</time></trkpt><trkpt lat="46.10417170801564" lon="11.68088028755347"><ele>1441.0</ele><time>2026-05-02T10:50:27.001Z</time></trkpt><trkpt lat="46.104099067586624" lon="11.680940556318733"><ele>1441.0</ele><time>2026-05-02T10:50:28Z</time></trkpt><trkpt lat="46.104015422843716" lon="11.681030273361305"><ele>1441.0</ele><time>2026-05-02T10:50:29Z</time></trkpt><trkpt lat="46.10394575692089" lon="11.681123125616622"><ele>1439.0</ele><time>2026-05-02T10:50:30Z</time></trkpt><trkpt lat="46.103880351431016" lon="11.68121768439307"><ele>1437.0</ele><time>2026-05-02T10:50:31Z</time></trkpt><trkpt lat="46.1038157959926" lon="11.681308215797182"><ele>1435.0</ele><time>2026-05-02T10:50:32Z</time></trkpt><trkpt lat="46.10375125752081" lon="11.681387656960982"><ele>1433.0</ele><time>2026-05-02T10:50:33Z</time></trkpt><trkpt lat="46.103685018646374" lon="11.681457906386253"><ele>1431.0</ele><time>2026-05-02T10:50:34Z</time></trkpt><trkpt lat="46.103610439921624" lon="11.68152334638516"><ele>1429.0</ele><time>2026-05-02T10:50:35Z</time></trkpt><trkpt lat="46.10352090762645" lon="11.681585443894017"><ele>1429.0</ele><time>2026-05-02T10:50:36Z</time></trkpt><trkpt lat="46.10343414544546" lon="11.681631699924006"><ele>1429.0</ele><time>2026-05-02T10:50:37Z</time></trkpt><trkpt lat="46.103349165395976" lon="11.681680584158313"><ele>1429.0</ele><time>2026-05-02T10:50:38Z</time></trkpt><trkpt lat="46.1032758993056" lon="11.68174797384696"><ele>1429.0</ele><time>2026-05-02T10:50:39Z</time></trkpt><trkpt lat="46.103204092465724" lon="11.681810237274782"><ele>1429.0</ele><time>2026-05-02T10:50:40Z</time></trkpt><trkpt lat="46.10313548250654" lon="11.681859941973512"><ele>1429.0</ele><time>2026-05-02T10:50:41Z</time></trkpt><trkpt lat="46.103075131283994" lon="11.681906251361662"><ele>1426.1666666666665</ele><time>2026-05-02T10:50:42Z</time></trkpt><trkpt lat="46.10302500761104" lon="11.68197383912978"><ele>1423.3333333333333</ele><time>2026-05-02T10:50:43Z</time></trkpt><trkpt lat="46.102991851106204" lon="11.682063358335027"><ele>1420.5</ele><time>2026-05-02T10:50:44Z</time></trkpt><trkpt lat="46.102957107364" lon="11.682187396182474"><ele>1417.6666666666667</ele><time>2026-05-02T10:50:45Z</time></trkpt><trkpt lat="46.102910108971166" lon="11.68230894834967"><ele>1414.8333333333335</ele><time>2026-05-02T10:50:46Z</time></trkpt><trkpt lat="46.10285184889663" lon="11.68242646998366"><ele>1412.0</ele><time>2026-05-02T10:50:47Z</time></trkpt><trkpt lat="46.10279111678707" lon="11.682525725613326"><ele>1412.0</ele><time>2026-05-02T10:50:48Z</time></trkpt><trkpt lat="46.10274133570341" lon="11.682612189925841"><ele>1412.0</ele><time>2026-05-02T10:50:49Z</time></trkpt><trkpt lat="46.102687706447405" lon="11.682688186767711"><ele>1412.0</ele><time>2026-05-02T10:50:50Z</time></trkpt><trkpt lat="46.10262765293374" lon="11.682731389500711"><ele>1412.0</ele><time>2026-05-02T10:50:51Z</time></trkpt><trkpt lat="46.10256428030577" lon="11.682743115856834"><ele>1412.0</ele><time>2026-05-02T10:50:52Z</time></trkpt><trkpt lat="46.10245078239962" lon="11.682690585287999"><ele>1412.0</ele><time>2026-05-02T10:50:54Z</time></trkpt><trkpt lat="46.102391860760946" lon="11.682655572871955"><ele>1411.2857142857142</ele><time>2026-05-02T10:50:55Z</time></trkpt><trkpt lat="46.10233030848312" lon="11.682624843659264"><ele>1410.5714285714287</ele><time>2026-05-02T10:50:56Z</time></trkpt><trkpt lat="46.102260474093036" lon="11.682623561165132"><ele>1409.857142857143</ele><time>2026-05-02T10:50:57Z</time></trkpt><trkpt lat="46.10219471758688" lon="11.682630109345109"><ele>1409.142857142857</ele><time>2026-05-02T10:50:58Z</time></trkpt><trkpt lat="46.10212210057629" lon="11.682627854609773"><ele>1408.4285714285716</ele><time>2026-05-02T10:50:59Z</time></trkpt><trkpt lat="46.102040711370144" lon="11.682623423259912"><ele>1407.7142857142858</ele><time>2026-05-02T10:51:00Z</time></trkpt><trkpt lat="46.101951323252045" lon="11.682633529624637"><ele>1407.0</ele><time>2026-05-02T10:51:01Z</time></trkpt><trkpt lat="46.10186290857404" lon="11.682679527537339"><ele>1407.0</ele><time>2026-05-02T10:51:02Z</time></trkpt><trkpt lat="46.10178968938734" lon="11.682710897817211"><ele>1407.0</ele><time>2026-05-02T10:51:03Z</time></trkpt><trkpt lat="46.10172032459693" lon="11.682742210899672"><ele>1407.0</ele><time>2026-05-02T10:51:04Z</time></trkpt><trkpt lat="46.1016570854314" lon="11.682765905382201"><ele>1407.0</ele><time>2026-05-02T10:51:05Z</time></trkpt><trkpt lat="46.10158892052973" lon="11.682763616715752"><ele>1407.0</ele><time>2026-05-02T10:51:06Z</time></trkpt><trkpt lat="46.10152395584995" lon="11.68275460694298"><ele>1407.0</ele><time>2026-05-02T10:51:07Z</time></trkpt><trkpt lat="46.10141581794402" lon="11.682698235203187"><ele>1408.6666666666667</ele><time>2026-05-02T10:51:09Z</time></trkpt><trkpt lat="46.10135308927297" lon="11.68263063501185"><ele>1410.3333333333333</ele><time>2026-05-02T10:51:10Z</time></trkpt><trkpt lat="46.101297313341625" lon="11.682567903314332"><ele>1412.0</ele><time>2026-05-02T10:51:11Z</time></trkpt><trkpt lat="46.10122934927334" lon="11.682542078353308"><ele>1413.6666666666665</ele><time>2026-05-02T10:51:12Z</time></trkpt><trkpt lat="46.101105032315424" lon="11.682588826175097"><ele>1415.3333333333333</ele><time>2026-05-02T10:51:14Z</time></trkpt><trkpt lat="46.10102980182327" lon="11.682638053817048"><ele>1417.0</ele><time>2026-05-02T10:51:15Z</time></trkpt><trkpt lat="46.100945025497566" lon="11.682709008036037"><ele>1410.3999999999999</ele><time>2026-05-02T10:51:16Z</time></trkpt><trkpt lat="46.10085967441305" lon="11.68279070459602"><ele>1403.8</ele><time>2026-05-02T10:51:17Z</time></trkpt><trkpt lat="46.10077444736986" lon="11.682871675968507"><ele>1397.2</ele><time>2026-05-02T10:51:18Z</time></trkpt><trkpt lat="46.10068499608847" lon="11.682939825240588"><ele>1390.6</ele><time>2026-05-02T10:51:19Z</time></trkpt><trkpt lat="46.10059990388712" lon="11.682999357220705"><ele>1384.0</ele><time>2026-05-02T10:51:20Z</time></trkpt><trkpt lat="46.10051902342183" lon="11.683039184816584"><ele>1384.0</ele><time>2026-05-02T10:51:21Z</time></trkpt><trkpt lat="46.10043597008106" lon="11.683076798932298"><ele>1384.0</ele><time>2026-05-02T10:51:22Z</time></trkpt><trkpt lat="46.10035232680263" lon="11.683108139323885"><ele>1384.0</ele><time>2026-05-02T10:51:23Z</time></trkpt><trkpt lat="46.10027665137485" lon="11.683113443046778"><ele>1384.0</ele><time>2026-05-02T10:51:24Z</time></trkpt><trkpt lat="46.10018851321336" lon="11.683116590600624"><ele>1384.0</ele><time>2026-05-02T10:51:25Z</time></trkpt><trkpt lat="46.10009843655266" lon="11.683103012382935"><ele>1384.0</ele><time>2026-05-02T10:51:26Z</time></trkpt><trkpt lat="46.10000999311926" lon="11.683071122901522"><ele>1384.0</ele><time>2026-05-02T10:51:27Z</time></trkpt><trkpt lat="46.09992487849389" lon="11.683066101163908"><ele>1384.0</ele><time>2026-05-02T10:51:28Z</time></trkpt><trkpt lat="46.099839445922086" lon="11.683112468183039"><ele>1384.0</ele><time>2026-05-02T10:51:29Z</time></trkpt><trkpt lat="46.09975481231812" lon="11.683168914775646"><ele>1384.0</ele><time>2026-05-02T10:51:30Z</time></trkpt><trkpt lat="46.09967470985282" lon="11.683199197855807"><ele>1384.0</ele><time>2026-05-02T10:51:31Z</time></trkpt><trkpt lat="46.099599056805914" lon="11.683208277911339"><ele>1384.0</ele><time>2026-05-02T10:51:32Z</time></trkpt><trkpt lat="46.09952437769279" lon="11.683214647648738"><ele>1382.8333333333333</ele><time>2026-05-02T10:51:33Z</time></trkpt><trkpt lat="46.09944720762236" lon="11.68321899509658"><ele>1381.6666666666665</ele><time>2026-05-02T10:51:34Z</time></trkpt><trkpt lat="46.09936937677509" lon="11.683219552912508"><ele>1380.5</ele><time>2026-05-02T10:51:35Z</time></trkpt><trkpt lat="46.09929774589483" lon="11.683208333337245"><ele>1379.3333333333333</ele><time>2026-05-02T10:51:36Z</time></trkpt><trkpt lat="46.09922329355425" lon="11.683144692305563"><ele>1378.1666666666667</ele><time>2026-05-02T10:51:38Z</time></trkpt><trkpt lat="46.099184418724775" lon="11.683009728863771"><ele>1377.0</ele><time>2026-05-02T10:51:41Z</time></trkpt><trkpt lat="46.09914118729616" lon="11.682900409554119"><ele>1377.0</ele><time>2026-05-02T10:51:43Z</time></trkpt><trkpt lat="46.09910114554176" lon="11.68278780432224"><ele>1377.0</ele><time>2026-05-02T10:51:45Z</time></trkpt><trkpt lat="46.099045305090044" lon="11.682663115721201"><ele>1377.0</ele><time>2026-05-02T10:51:47Z</time></trkpt><trkpt lat="46.09896941777692" lon="11.682545491860187"><ele>1377.0</ele><time>2026-05-02T10:51:49Z</time></trkpt><trkpt lat="46.09889392751793" lon="11.682471379296775"><ele>1377.0</ele><time>2026-05-02T10:51:51Z</time></trkpt><trkpt lat="46.098823820795495" lon="11.682389051560031"><ele>1375.8</ele><time>2026-05-02T10:51:53.001Z</time></trkpt><trkpt lat="46.09875871796095" lon="11.68228865757151"><ele>1374.6</ele><time>2026-05-02T10:51:55.001Z</time></trkpt><trkpt lat="46.098687438280514" lon="11.682134150506217"><ele>1373.3999999999999</ele><time>2026-05-02T10:51:57.001Z</time></trkpt><trkpt lat="46.09865986756979" lon="11.68204552463204"><ele>1372.1999999999998</ele><time>2026-05-02T10:51:58.001Z</time></trkpt><trkpt lat="46.09857141751176" lon="11.681920939071707"><ele>1371.0</ele><time>2026-05-02T10:52:00.001Z</time></trkpt><trkpt lat="46.09850445269907" lon="11.681884552994743"><ele>1370.8333333333333</ele><time>2026-05-02T10:52:01.001Z</time></trkpt><trkpt lat="46.09842739656381" lon="11.681874643018567"><ele>1370.6666666666667</ele><time>2026-05-02T10:52:02.001Z</time></trkpt><trkpt lat="46.098338018604956" lon="11.681879731653817"><ele>1370.5</ele><time>2026-05-02T10:52:03.001Z</time></trkpt><trkpt lat="46.098245049897926" lon="11.68190498166599"><ele>1370.3333333333335</ele><time>2026-05-02T10:52:04.001Z</time></trkpt><trkpt lat="46.09815162842161" lon="11.681945281132819"><ele>1370.1666666666667</ele><time>2026-05-02T10:52:05.001Z</time></trkpt><trkpt lat="46.098071230710104" lon="11.681978588301295"><ele>1370.0</ele><time>2026-05-02T10:52:06.001Z</time></trkpt><trkpt lat="46.098001787573786" lon="11.681998148893467"><ele>1367.6666666666667</ele><time>2026-05-02T10:52:07.001Z</time></trkpt><trkpt lat="46.09793004969131" lon="11.682002177209135"><ele>1365.3333333333335</ele><time>2026-05-02T10:52:08.001Z</time></trkpt><trkpt lat="46.0978645701141" lon="11.681989718816498"><ele>1363.0</ele><time>2026-05-02T10:52:09.001Z</time></trkpt><trkpt lat="46.09775544874873" lon="11.681949613784443"><ele>1360.6666666666667</ele><time>2026-05-02T10:52:11.001Z</time></trkpt><trkpt lat="46.097692821510236" lon="11.681977028133247"><ele>1358.3333333333333</ele><time>2026-05-02T10:52:13.001Z</time></trkpt><trkpt lat="46.09771611802406" lon="11.682083113876425"><ele>1356.0</ele><time>2026-05-02T10:52:16.001Z</time></trkpt><trkpt lat="46.097790283867276" lon="11.682108191761792"><ele>1356.0</ele><time>2026-05-02T10:52:18.001Z</time></trkpt><trkpt lat="46.097859731419526" lon="11.682123934813035"><ele>1356.0</ele><time>2026-05-02T10:52:19.001Z</time></trkpt><trkpt lat="46.097936517073244" lon="11.682136601675502"><ele>1356.0</ele><time>2026-05-02T10:52:20.001Z</time></trkpt><trkpt lat="46.09801832178138" lon="11.68217904079454"><ele>1356.0</ele><time>2026-05-02T10:52:21.001Z</time></trkpt><trkpt lat="46.09811739306482" lon="11.68222570566388"><ele>1356.0</ele><time>2026-05-02T10:52:22.001Z</time></trkpt><trkpt lat="46.09821054685525" lon="11.68226136136197"><ele>1356.0</ele><time>2026-05-02T10:52:23.001Z</time></trkpt><trkpt lat="46.0982953554054" lon="11.682286450279587"><ele>1355.6</ele><time>2026-05-02T10:52:24.001Z</time></trkpt><trkpt lat="46.09836838012957" lon="11.682313845939513"><ele>1355.1999999999998</ele><time>2026-05-02T10:52:25.001Z</time></trkpt><trkpt lat="46.098462446598994" lon="11.682402063347284"><ele>1354.8000000000002</ele><time>2026-05-02T10:52:27.001Z</time></trkpt><trkpt lat="46.09851350933298" lon="11.68254683035144"><ele>1354.4</ele><time>2026-05-02T10:52:29.001Z</time></trkpt><trkpt lat="46.09853651812374" lon="11.682659135375536"><ele>1354.0</ele><time>2026-05-02T10:52:30.001Z</time></trkpt><trkpt lat="46.098577339036304" lon="11.682803457911982"><ele>1354.0</ele><time>2026-05-02T10:52:31.001Z</time></trkpt><trkpt lat="46.098627747570376" lon="11.682945094460546"><ele>1354.0</ele><time>2026-05-02T10:52:32.001Z</time></trkpt><trkpt lat="46.098673905841196" lon="11.683068658719053"><ele>1354.0</ele><time>2026-05-02T10:52:33.001Z</time></trkpt><trkpt lat="46.09870968664829" lon="11.683175634959243"><ele>1354.0</ele><time>2026-05-02T10:52:34Z</time></trkpt><trkpt lat="46.098736871597794" lon="11.683276597076125"><ele>1354.0</ele><time>2026-05-02T10:52:35Z</time></trkpt><trkpt lat="46.0987519899624" lon="11.683366165894212"><ele>1354.0</ele><time>2026-05-02T10:52:36Z</time></trkpt><trkpt lat="46.09876083001907" lon="11.683462382689536"><ele>1354.0</ele><time>2026-05-02T10:52:37Z</time></trkpt><trkpt lat="46.09875501823654" lon="11.683558198459917"><ele>1354.0</ele><time>2026-05-02T10:52:38Z</time></trkpt><trkpt lat="46.09876557651208" lon="11.683706937050749"><ele>1354.0</ele><time>2026-05-02T10:52:40Z</time></trkpt><trkpt lat="46.09883008775421" lon="11.683775506163585"><ele>1354.0</ele><time>2026-05-02T10:52:42Z</time></trkpt><trkpt lat="46.098929302816416" lon="11.68377034394671"><ele>1354.0</ele><time>2026-05-02T10:52:44Z</time></trkpt><trkpt lat="46.098992083003495" lon="11.683787122943981"><ele>1354.0</ele><time>2026-05-02T10:52:46Z</time></trkpt><trkpt lat="46.09896236615912" lon="11.683893605995014"><ele>1354.0</ele><time>2026-05-02T10:52:49Z</time></trkpt><trkpt lat="46.09888469327162" lon="11.683879044054557"><ele>1354.0</ele><time>2026-05-02T10:52:51Z</time></trkpt><trkpt lat="46.09881632851324" lon="11.68385427377547"><ele>1354.0</ele><time>2026-05-02T10:52:52Z</time></trkpt><trkpt lat="46.09874770519101" lon="11.683831759277115"><ele>1354.0</ele><time>2026-05-02T10:52:53Z</time></trkpt><trkpt lat="46.098646795279286" lon="11.683766754441773"><ele>1354.0</ele><time>2026-05-02T10:52:55Z</time></trkpt><trkpt lat="46.09859997390897" lon="11.683593443631034"><ele>1354.0</ele><time>2026-05-02T10:52:57Z</time></trkpt><trkpt lat="46.09856690984893" lon="11.683501199985685"><ele>1354.0</ele><time>2026-05-02T10:52:58Z</time></trkpt><trkpt lat="46.098514605146754" lon="11.683430403117118"><ele>1354.0</ele><time>2026-05-02T10:52:59Z</time></trkpt><trkpt lat="46.098447777574975" lon="11.68336236919412"><ele>1354.0</ele><time>2026-05-02T10:53:00Z</time></trkpt><trkpt lat="46.09837702860127" lon="11.683301029647568"><ele>1354.0</ele><time>2026-05-02T10:53:01Z</time></trkpt><trkpt lat="46.098298941503934" lon="11.683249935396347"><ele>1354.0</ele><time>2026-05-02T10:53:02Z</time></trkpt><trkpt lat="46.09822178074946" lon="11.683220365167596"><ele>1351.6666666666665</ele><time>2026-05-02T10:53:03Z</time></trkpt><trkpt lat="46.09814681735582" lon="11.683198932802146"><ele>1349.3333333333333</ele><time>2026-05-02T10:53:04Z</time></trkpt><trkpt lat="46.098069846993845" lon="11.683175968252419"><ele>1347.0</ele><time>2026-05-02T10:53:05Z</time></trkpt><trkpt lat="46.09799179247216" lon="11.683150227454938"><ele>1344.6666666666667</ele><time>2026-05-02T10:53:06Z</time></trkpt><trkpt lat="46.09791064917045" lon="11.683141000606811"><ele>1342.3333333333335</ele><time>2026-05-02T10:53:07Z</time></trkpt><trkpt lat="46.09782387215145" lon="11.683142124394141"><ele>1340.0</ele><time>2026-05-02T10:53:08Z</time></trkpt><trkpt lat="46.097729624061685" lon="11.683145525906815"><ele>1340.0</ele><time>2026-05-02T10:53:09Z</time></trkpt><trkpt lat="46.097641711912814" lon="11.683141501310741"><ele>1340.0</ele><time>2026-05-02T10:53:10Z</time></trkpt><trkpt lat="46.09756449831882" lon="11.683144395385279"><ele>1340.0</ele><time>2026-05-02T10:53:11Z</time></trkpt><trkpt lat="46.09748682860652" lon="11.683187576556103"><ele>1340.0</ele><time>2026-05-02T10:53:12Z</time></trkpt><trkpt lat="46.09741547109835" lon="11.683252222386121"><ele>1340.0</ele><time>2026-05-02T10:53:13Z</time></trkpt><trkpt lat="46.09733922120393" lon="11.683303627161589"><ele>1340.0</ele><time>2026-05-02T10:53:14Z</time></trkpt><trkpt lat="46.09725357258657" lon="11.683331742363977"><ele>1337.2</ele><time>2026-05-02T10:53:15Z</time></trkpt><trkpt lat="46.09717388788279" lon="11.683353229770283"><ele>1334.4</ele><time>2026-05-02T10:53:16Z</time></trkpt><trkpt lat="46.09707923588323" lon="11.683343437357543"><ele>1331.6</ele><time>2026-05-02T10:53:18Z</time></trkpt><trkpt lat="46.097026818615745" lon="11.683223095125975"><ele>1328.8</ele><time>2026-05-02T10:53:20Z</time></trkpt><trkpt lat="46.09700322409221" lon="11.683133723247535"><ele>1326.0</ele><time>2026-05-02T10:53:21Z</time></trkpt><trkpt lat="46.09696300361008" lon="11.682984736969857"><ele>1326.0</ele><time>2026-05-02T10:53:23Z</time></trkpt><trkpt lat="46.09693630581158" lon="11.682895262666532"><ele>1326.0</ele><time>2026-05-02T10:53:25Z</time></trkpt><trkpt lat="46.096874100550714" lon="11.682919429834504"><ele>1326.0</ele><time>2026-05-02T10:53:27Z</time></trkpt><trkpt lat="46.096870536538844" lon="11.683019314634507"><ele>1326.0</ele><time>2026-05-02T10:53:29Z</time></trkpt><trkpt lat="46.09691868571872" lon="11.68318634233562"><ele>1326.0</ele><time>2026-05-02T10:53:31Z</time></trkpt><trkpt lat="46.09693418316259" lon="11.683360375193335"><ele>1326.0</ele><time>2026-05-02T10:53:33Z</time></trkpt><trkpt lat="46.0968943053667" lon="11.683513260864434"><ele>1323.5</ele><time>2026-05-02T10:53:35Z</time></trkpt><trkpt lat="46.09688418746442" lon="11.683631717081587"><ele>1321.0</ele><time>2026-05-02T10:53:37Z</time></trkpt><trkpt lat="46.09692271240168" lon="11.683743542701539"><ele>1318.5</ele><time>2026-05-02T10:53:39Z</time></trkpt><trkpt lat="46.09699689087063" lon="11.683808034834257"><ele>1316.0</ele><time>2026-05-02T10:53:41Z</time></trkpt><trkpt lat="46.09711306656655" lon="11.683817127912926"><ele>1313.5</ele><time>2026-05-02T10:53:43Z</time></trkpt><trkpt lat="46.09718303202434" lon="11.683804042333973"><ele>1311.0</ele><time>2026-05-02T10:53:44Z</time></trkpt><trkpt lat="46.097245742412774" lon="11.683776410798291"><ele>1311.0</ele><time>2026-05-02T10:53:45Z</time></trkpt><trkpt lat="46.09731218456746" lon="11.683753449095724"><ele>1311.0</ele><time>2026-05-02T10:53:46Z</time></trkpt><trkpt lat="46.0974329832403" lon="11.683751534438644"><ele>1311.0</ele><time>2026-05-02T10:53:48Z</time></trkpt><trkpt lat="46.097515985404755" lon="11.683819171911809"><ele>1311.0</ele><time>2026-05-02T10:53:50Z</time></trkpt><trkpt lat="46.097579348773095" lon="11.68397927840401"><ele>1311.0</ele><time>2026-05-02T10:53:52Z</time></trkpt><trkpt lat="46.097596875081166" lon="11.684082536321565"><ele>1310.1666666666667</ele><time>2026-05-02T10:53:53Z</time></trkpt><trkpt lat="46.097612923735085" lon="11.684202911647018"><ele>1309.3333333333333</ele><time>2026-05-02T10:53:54Z</time></trkpt><trkpt lat="46.09763639607575" lon="11.684316122359562"><ele>1308.5</ele><time>2026-05-02T10:53:55Z</time></trkpt><trkpt lat="46.09766652193241" lon="11.68442439046485"><ele>1307.6666666666665</ele><time>2026-05-02T10:53:56Z</time></trkpt><trkpt lat="46.09770017088414" lon="11.684523041000977"><ele>1306.8333333333333</ele><time>2026-05-02T10:53:57Z</time></trkpt><trkpt lat="46.097740271703096" lon="11.68462188356278"><ele>1306.0</ele><time>2026-05-02T10:53:58Z</time></trkpt><trkpt lat="46.09777533496905" lon="11.684709892236027"><ele>1306.0</ele><time>2026-05-02T10:53:59Z</time></trkpt><trkpt lat="46.097810181179995" lon="11.684795729239951"><ele>1306.0</ele><time>2026-05-02T10:54:00Z</time></trkpt><trkpt lat="46.09788694980472" lon="11.684883524013907"><ele>1306.0</ele><time>2026-05-02T10:54:02.001Z</time></trkpt><trkpt lat="46.09799668274065" lon="11.684916878212873"><ele>1306.0</ele><time>2026-05-02T10:54:04.001Z</time></trkpt><trkpt lat="46.09807611633531" lon="11.684935665901985"><ele>1306.0</ele><time>2026-05-02T10:54:05.001Z</time></trkpt><trkpt lat="46.09817048472122" lon="11.684956480007004"><ele>1308.0</ele><time>2026-05-02T10:54:06.001Z</time></trkpt><trkpt lat="46.09827315139052" lon="11.684979002437874"><ele>1310.0</ele><time>2026-05-02T10:54:07.001Z</time></trkpt><trkpt lat="46.098377387046874" lon="11.684997804034706"><ele>1312.0</ele><time>2026-05-02T10:54:08.001Z</time></trkpt><trkpt lat="46.098473207091786" lon="11.685006080053954"><ele>1314.0</ele><time>2026-05-02T10:54:09.001Z</time></trkpt><trkpt lat="46.098566862654096" lon="11.685012707315165"><ele>1316.0</ele><time>2026-05-02T10:54:10.001Z</time></trkpt><trkpt lat="46.09865553443752" lon="11.685012626231094"><ele>1316.0</ele><time>2026-05-02T10:54:11.001Z</time></trkpt><trkpt lat="46.098744864764846" lon="11.685015715124997"><ele>1316.0</ele><time>2026-05-02T10:54:12.001Z</time></trkpt><trkpt lat="46.09882812226" lon="11.685026459583444"><ele>1316.0</ele><time>2026-05-02T10:54:13.001Z</time></trkpt><trkpt lat="46.09889383062014" lon="11.685042564251713"><ele>1316.0</ele><time>2026-05-02T10:54:14.001Z</time></trkpt><trkpt lat="46.09896751608647" lon="11.6850299680124"><ele>1316.0</ele><time>2026-05-02T10:54:16.001Z</time></trkpt><trkpt lat="46.09893071666351" lon="11.685127293582806"><ele>1316.0</ele><time>2026-05-02T10:54:20.001Z</time></trkpt><trkpt lat="46.098811429075504" lon="11.685132573077492"><ele>1316.0</ele><time>2026-05-02T10:54:22.001Z</time></trkpt><trkpt lat="46.098735477793575" lon="11.685121791558728"><ele>1316.0</ele><time>2026-05-02T10:54:23.001Z</time></trkpt><trkpt lat="46.09866057750246" lon="11.685136843536782"><ele>1316.0</ele><time>2026-05-02T10:54:24.001Z</time></trkpt><trkpt lat="46.09859403751371" lon="11.6851535084378"><ele>1316.0</ele><time>2026-05-02T10:54:25.001Z</time></trkpt><trkpt lat="46.09847266392749" lon="11.68516082469992"><ele>1316.0</ele><time>2026-05-02T10:54:27.001Z</time></trkpt><trkpt lat="46.0983399475854" lon="11.685162907149394"><ele>1316.0</ele><time>2026-05-02T10:54:29.001Z</time></trkpt><trkpt lat="46.09827686821247" lon="11.685168075759117"><ele>1316.0</ele><time>2026-05-02T10:54:30.001Z</time></trkpt><trkpt lat="46.09820705123411" lon="11.685176864601715"><ele>1316.0</ele><time>2026-05-02T10:54:31.001Z</time></trkpt><trkpt lat="46.098128979662064" lon="11.685187397810363"><ele>1316.0</ele><time>2026-05-02T10:54:32.001Z</time></trkpt><trkpt lat="46.09805610403407" lon="11.685187000288481"><ele>1316.0</ele><time>2026-05-02T10:54:33.001Z</time></trkpt><trkpt lat="46.0979931253423" lon="11.685186404940382"><ele>1316.0</ele><time>2026-05-02T10:54:34.001Z</time></trkpt><trkpt lat="46.09787539336468" lon="11.685172719164237"><ele>1314.0</ele><time>2026-05-02T10:54:36.001Z</time></trkpt><trkpt lat="46.09775435377547" lon="11.6851851221133"><ele>1312.0</ele><time>2026-05-02T10:54:38.001Z</time></trkpt><trkpt lat="46.09769001784133" lon="11.685213178118131"><ele>1310.0</ele><time>2026-05-02T10:54:39.001Z</time></trkpt><trkpt lat="46.09759331089639" lon="11.685290579273998"><ele>1308.0</ele><time>2026-05-02T10:54:41Z</time></trkpt><trkpt lat="46.097496951147825" lon="11.685355187273345"><ele>1306.0</ele><time>2026-05-02T10:54:43Z</time></trkpt><trkpt lat="46.097387654821624" lon="11.685405507875357"><ele>1302.1999999999998</ele><time>2026-05-02T10:54:45Z</time></trkpt><trkpt lat="46.097309104417654" lon="11.685433784354505"><ele>1298.3999999999999</ele><time>2026-05-02T10:54:47Z</time></trkpt><trkpt lat="46.09722956532969" lon="11.685461016746292"><ele>1294.6</ele><time>2026-05-02T10:54:49Z</time></trkpt><trkpt lat="46.09714165595268" lon="11.685427206448711"><ele>1290.8</ele><time>2026-05-02T10:54:51Z</time></trkpt><trkpt lat="46.097035863961395" lon="11.685309576127992"><ele>1287.0</ele><time>2026-05-02T10:54:53Z</time></trkpt><trkpt lat="46.09694784019422" lon="11.68519341387123"><ele>1287.0</ele><time>2026-05-02T10:54:55Z</time></trkpt><trkpt lat="46.09687724589743" lon="11.685055642779423"><ele>1287.0</ele><time>2026-05-02T10:54:57Z</time></trkpt><trkpt lat="46.09682062753273" lon="11.685004059887861"><ele>1287.0</ele><time>2026-05-02T10:54:58Z</time></trkpt><trkpt lat="46.09674695441142" lon="11.68498062449201"><ele>1287.0</ele><time>2026-05-02T10:54:59Z</time></trkpt><trkpt lat="46.096668718637325" lon="11.684969664325273"><ele>1287.0</ele><time>2026-05-02T10:55:00Z</time></trkpt><trkpt lat="46.0966001502214" lon="11.68493100869541"><ele>1287.0</ele><time>2026-05-02T10:55:01Z</time></trkpt><trkpt lat="46.096531824051404" lon="11.684877742734233"><ele>1283.142857142857</ele><time>2026-05-02T10:55:02Z</time></trkpt><trkpt lat="46.09646952304327" lon="11.684831836128387"><ele>1279.2857142857142</ele><time>2026-05-02T10:55:03Z</time></trkpt><trkpt lat="46.09640482819258" lon="11.684804283385906"><ele>1275.4285714285716</ele><time>2026-05-02T10:55:04Z</time></trkpt><trkpt lat="46.09633057244584" lon="11.684814662246808"><ele>1271.5714285714284</ele><time>2026-05-02T10:55:05Z</time></trkpt><trkpt lat="46.09626196549718" lon="11.68484135762441"><ele>1267.7142857142858</ele><time>2026-05-02T10:55:06Z</time></trkpt><trkpt lat="46.09619513633282" lon="11.684859744768382"><ele>1263.857142857143</ele><time>2026-05-02T10:55:07Z</time></trkpt><trkpt lat="46.096098785331556" lon="11.684832331222589"><ele>1260.0</ele><time>2026-05-02T10:55:09Z</time></trkpt><trkpt lat="46.09602171080122" lon="11.684772985582189"><ele>1260.0</ele><time>2026-05-02T10:55:11Z</time></trkpt><trkpt lat="46.09598158062237" lon="11.684663088918596"><ele>1260.0</ele><time>2026-05-02T10:55:13Z</time></trkpt><trkpt lat="46.095953356847154" lon="11.68457921533599"><ele>1260.0</ele><time>2026-05-02T10:55:14Z</time></trkpt><trkpt lat="46.09591929504433" lon="11.684491194537324"><ele>1260.0</ele><time>2026-05-02T10:55:15Z</time></trkpt><trkpt lat="46.09584029711103" lon="11.684354879472536"><ele>1260.0</ele><time>2026-05-02T10:55:17Z</time></trkpt><trkpt lat="46.095776260294045" lon="11.684235329879456"><ele>1260.0</ele><time>2026-05-02T10:55:19Z</time></trkpt><trkpt lat="46.09574379174457" lon="11.684126879915935"><ele>1260.0</ele><time>2026-05-02T10:55:21Z</time></trkpt><trkpt lat="46.09569172371516" lon="11.684064931901787"><ele>1260.0</ele><time>2026-05-02T10:55:24Z</time></trkpt><trkpt lat="46.095644154693055" lon="11.684149710580552"><ele>1260.0</ele><time>2026-05-02T10:55:27Z</time></trkpt><trkpt lat="46.095669457571354" lon="11.68425927265624"><ele>1260.0</ele><time>2026-05-02T10:55:29Z</time></trkpt><trkpt lat="46.09571021954673" lon="11.684394319597509"><ele>1260.0</ele><time>2026-05-02T10:55:31Z</time></trkpt><trkpt lat="46.09575337425673" lon="11.684551103479386"><ele>1260.0</ele><time>2026-05-02T10:55:33Z</time></trkpt><trkpt lat="46.09579167126006" lon="11.684633309432618"><ele>1260.0</ele><time>2026-05-02T10:55:34Z</time></trkpt><trkpt lat="46.09582799841317" lon="11.684712942789599"><ele>1260.0</ele><time>2026-05-02T10:55:35Z</time></trkpt><trkpt lat="46.095894528233345" lon="11.684848439895966"><ele>1260.0</ele><time>2026-05-02T10:55:37Z</time></trkpt><trkpt lat="46.09594394784118" lon="11.684985371609141"><ele>1260.0</ele><time>2026-05-02T10:55:39Z</time></trkpt><trkpt lat="46.09599955294052" lon="11.685092355834009"><ele>1260.0</ele><time>2026-05-02T10:55:41Z</time></trkpt><trkpt lat="46.096027105899154" lon="11.685184140816856"><ele>1260.0</ele><time>2026-05-02T10:55:43Z</time></trkpt><trkpt lat="46.09595613301922" lon="11.68522313342379"><ele>1260.0</ele><time>2026-05-02T10:55:46Z</time></trkpt><trkpt lat="46.0959056668129" lon="11.685081618378183"><ele>1260.0</ele><time>2026-05-02T10:55:49Z</time></trkpt><trkpt lat="46.09586398349361" lon="11.684959562706558"><ele>1260.0</ele><time>2026-05-02T10:55:51Z</time></trkpt><trkpt lat="46.09578817747405" lon="11.684855393820396"><ele>1260.0</ele><time>2026-05-02T10:55:53Z</time></trkpt><trkpt lat="46.095708917921606" lon="11.684770869672658"><ele>1255.8333333333333</ele><time>2026-05-02T10:55:55Z</time></trkpt><trkpt lat="46.095631313156645" lon="11.684675259288326"><ele>1251.6666666666667</ele><time>2026-05-02T10:55:57Z</time></trkpt><trkpt lat="46.09558688259128" lon="11.684546407284166"><ele>1247.5</ele><time>2026-05-02T10:55:59Z</time></trkpt><trkpt lat="46.09555186181412" lon="11.684457575238644"><ele>1243.3333333333335</ele><time>2026-05-02T10:56:00Z</time></trkpt><trkpt lat="46.09551699919016" lon="11.68437135460458"><ele>1239.1666666666667</ele><time>2026-05-02T10:56:01Z</time></trkpt><trkpt lat="46.095481697537394" lon="11.68428859016245"><ele>1235.0</ele><time>2026-05-02T10:56:02Z</time></trkpt><trkpt lat="46.09545181837898" lon="11.68420034705383"><ele>1235.0</ele><time>2026-05-02T10:56:03Z</time></trkpt><trkpt lat="46.09542264206327" lon="11.684116671341766"><ele>1235.0</ele><time>2026-05-02T10:56:04Z</time></trkpt><trkpt lat="46.09539973296156" lon="11.684017380978306"><ele>1235.0</ele><time>2026-05-02T10:56:05Z</time></trkpt><trkpt lat="46.09536038099013" lon="11.683845329418817"><ele>1235.0</ele><time>2026-05-02T10:56:07.001Z</time></trkpt><trkpt lat="46.09532077276937" lon="11.683749890140147"><ele>1235.0</ele><time>2026-05-02T10:56:08.001Z</time></trkpt><trkpt lat="46.095286244971035" lon="11.68365725796014"><ele>1235.0</ele><time>2026-05-02T10:56:09.001Z</time></trkpt><trkpt lat="46.095254345621385" lon="11.68357545907025"><ele>1237.8333333333335</ele><time>2026-05-02T10:56:10.001Z</time></trkpt><trkpt lat="46.095211113435695" lon="11.683505033967077"><ele>1240.6666666666667</ele><time>2026-05-02T10:56:11.001Z</time></trkpt><trkpt lat="46.09517497268137" lon="11.683428508771637"><ele>1243.5</ele><time>2026-05-02T10:56:12.001Z</time></trkpt><trkpt lat="46.09509665411056" lon="11.683310457452707"><ele>1246.3333333333333</ele><time>2026-05-02T10:56:14.001Z</time></trkpt><trkpt lat="46.095039185765124" lon="11.683260977820998"><ele>1249.1666666666665</ele><time>2026-05-02T10:56:15.001Z</time></trkpt><trkpt lat="46.09497049766363" lon="11.683192947432696"><ele>1252.0</ele><time>2026-05-02T10:56:16.001Z</time></trkpt><trkpt lat="46.09491462354755" lon="11.683123412107955"><ele>1244.8</ele><time>2026-05-02T10:56:17.001Z</time></trkpt><trkpt lat="46.09485422275959" lon="11.683084062059006"><ele>1237.6</ele><time>2026-05-02T10:56:18.001Z</time></trkpt><trkpt lat="46.094792856458376" lon="11.683045494558693"><ele>1230.3999999999999</ele><time>2026-05-02T10:56:19.001Z</time></trkpt><trkpt lat="46.09468059584497" lon="11.683001119714227"><ele>1223.2</ele><time>2026-05-02T10:56:21.001Z</time></trkpt><trkpt lat="46.09457032053552" lon="11.682891858146265"><ele>1216.0</ele><time>2026-05-02T10:56:23.001Z</time></trkpt><trkpt lat="46.09450319898568" lon="11.682839029565248"><ele>1216.0</ele><time>2026-05-02T10:56:24.001Z</time></trkpt><trkpt lat="46.094393244192226" lon="11.682771303486634"><ele>1216.0</ele><time>2026-05-02T10:56:26.001Z</time></trkpt><trkpt lat="46.094326920339896" lon="11.682726441911173"><ele>1216.0</ele><time>2026-05-02T10:56:27.001Z</time></trkpt><trkpt lat="46.09424621162121" lon="11.682737750692963"><ele>1216.0</ele><time>2026-05-02T10:56:28.001Z</time></trkpt><trkpt lat="46.09417704870456" lon="11.682744083839617"><ele>1216.0</ele><time>2026-05-02T10:56:29.001Z</time></trkpt><trkpt lat="46.094055228696405" lon="11.682743013386045"><ele>1216.0</ele><time>2026-05-02T10:56:31.001Z</time></trkpt><trkpt lat="46.09399297030647" lon="11.682710582215709"><ele>1216.0</ele><time>2026-05-02T10:56:33.001Z</time></trkpt><trkpt lat="46.093972202775035" lon="11.682800073073622"><ele>1216.0</ele><time>2026-05-02T10:56:38.001Z</time></trkpt><trkpt lat="46.09406136498521" lon="11.68283264522954"><ele>1216.0</ele><time>2026-05-02T10:56:40.001Z</time></trkpt><trkpt lat="46.09412517550605" lon="11.682831817649275"><ele>1216.0</ele><time>2026-05-02T10:56:41.001Z</time></trkpt><trkpt lat="46.0942249868542" lon="11.682866180245071"><ele>1216.0</ele><time>2026-05-02T10:56:43.001Z</time></trkpt><trkpt lat="46.094311644058614" lon="11.68291056534046"><ele>1216.0</ele><time>2026-05-02T10:56:45.001Z</time></trkpt><trkpt lat="46.09438652600546" lon="11.682955282507601"><ele>1216.0</ele><time>2026-05-02T10:56:47Z</time></trkpt><trkpt lat="46.09448292361509" lon="11.683086106793182"><ele>1216.0</ele><time>2026-05-02T10:56:49Z</time></trkpt><trkpt lat="46.094539312693165" lon="11.683185014633521"><ele>1216.0</ele><time>2026-05-02T10:56:50Z</time></trkpt><trkpt lat="46.09459153716356" lon="11.683280863440512"><ele>1216.0</ele><time>2026-05-02T10:56:51Z</time></trkpt><trkpt lat="46.09465131695619" lon="11.683392016810133"><ele>1216.0</ele><time>2026-05-02T10:56:53Z</time></trkpt><trkpt lat="46.094723569715214" lon="11.683529425332823"><ele>1216.0</ele><time>2026-05-02T10:56:55Z</time></trkpt><trkpt lat="46.09480208979373" lon="11.683651460658542"><ele>1216.0</ele><time>2026-05-02T10:56:57Z</time></trkpt><trkpt lat="46.09485258062754" lon="11.683775499904232"><ele>1216.0</ele><time>2026-05-02T10:56:59Z</time></trkpt><trkpt lat="46.09486096543383" lon="11.68390660492194"><ele>1216.0</ele><time>2026-05-02T10:57:01Z</time></trkpt><trkpt lat="46.094864909669084" lon="11.684012512051517"><ele>1216.2</ele><time>2026-05-02T10:57:02Z</time></trkpt><trkpt lat="46.09489460020651" lon="11.684152842010816"><ele>1216.3999999999999</ele><time>2026-05-02T10:57:04Z</time></trkpt><trkpt lat="46.09495580932912" lon="11.68426356717431"><ele>1216.6</ele><time>2026-05-02T10:57:06Z</time></trkpt><trkpt lat="46.095032683662815" lon="11.68443660924865"><ele>1216.8</ele><time>2026-05-02T10:57:08Z</time></trkpt><trkpt lat="46.09506042158862" lon="11.68454353563365"><ele>1217.0</ele><time>2026-05-02T10:57:09Z</time></trkpt><trkpt lat="46.095081589037704" lon="11.684656373035363"><ele>1217.0</ele><time>2026-05-02T10:57:10Z</time></trkpt><trkpt lat="46.095097253132415" lon="11.684771119508792"><ele>1217.0</ele><time>2026-05-02T10:57:11Z</time></trkpt><trkpt lat="46.095112564591695" lon="11.68487546851606"><ele>1217.0</ele><time>2026-05-02T10:57:12Z</time></trkpt><trkpt lat="46.09513598044248" lon="11.684996718112782"><ele>1217.0</ele><time>2026-05-02T10:57:13Z</time></trkpt><trkpt lat="46.09515726252348" lon="11.685106307438874"><ele>1217.0</ele><time>2026-05-02T10:57:14Z</time></trkpt><trkpt lat="46.095181329544424" lon="11.68523373370625"><ele>1217.0</ele><time>2026-05-02T10:57:15Z</time></trkpt><trkpt lat="46.09521427612912" lon="11.685345054903694"><ele>1215.1666666666667</ele><time>2026-05-02T10:57:16Z</time></trkpt><trkpt lat="46.09523826799739" lon="11.685452401210808"><ele>1213.3333333333335</ele><time>2026-05-02T10:57:17Z</time></trkpt><trkpt lat="46.09526601059418" lon="11.685557796058054"><ele>1211.5</ele><time>2026-05-02T10:57:18Z</time></trkpt><trkpt lat="46.0952964689552" lon="11.68572540666656"><ele>1209.6666666666667</ele><time>2026-05-02T10:57:20Z</time></trkpt><trkpt lat="46.095326771631214" lon="11.685845545276237"><ele>1207.8333333333333</ele><time>2026-05-02T10:57:22Z</time></trkpt><trkpt lat="46.095294155250244" lon="11.685940449482274"><ele>1206.0</ele><time>2026-05-02T10:57:25Z</time></trkpt><trkpt lat="46.095238871933624" lon="11.685891885990108"><ele>1206.0</ele><time>2026-05-02T10:57:27Z</time></trkpt><trkpt lat="46.09520789251248" lon="11.685734674374956"><ele>1206.0</ele><time>2026-05-02T10:57:29Z</time></trkpt><trkpt lat="46.09518738493852" lon="11.685632392619889"><ele>1206.0</ele><time>2026-05-02T10:57:30Z</time></trkpt><trkpt lat="46.09517253341649" lon="11.685532281766108"><ele>1206.0</ele><time>2026-05-02T10:57:31Z</time></trkpt><trkpt lat="46.0951499009553" lon="11.685442143558436"><ele>1206.0</ele><time>2026-05-02T10:57:32Z</time></trkpt><trkpt lat="46.095092906978394" lon="11.685274679205149"><ele>1207.8333333333333</ele><time>2026-05-02T10:57:34Z</time></trkpt><trkpt lat="46.09506439183714" lon="11.685190898411255"><ele>1209.6666666666667</ele><time>2026-05-02T10:57:35Z</time></trkpt><trkpt lat="46.095029050532396" lon="11.685111163725626"><ele>1211.5</ele><time>2026-05-02T10:57:36Z</time></trkpt><trkpt lat="46.09498388244742" lon="11.685034723050357"><ele>1213.3333333333335</ele><time>2026-05-02T10:57:37Z</time></trkpt><trkpt lat="46.094937994957675" lon="11.684970263030726"><ele>1215.1666666666667</ele><time>2026-05-02T10:57:38Z</time></trkpt><trkpt lat="46.09486966940148" lon="11.68484271486865"><ele>1217.0</ele><time>2026-05-02T10:57:40Z</time></trkpt><trkpt lat="46.09481880199086" lon="11.68467492632997"><ele>1213.3333333333335</ele><time>2026-05-02T10:57:42Z</time></trkpt><trkpt lat="46.09478256295616" lon="11.684584570147774"><ele>1209.6666666666667</ele><time>2026-05-02T10:57:43Z</time></trkpt><trkpt lat="46.09474442669428" lon="11.68450154151204"><ele>1206.0</ele><time>2026-05-02T10:57:44Z</time></trkpt><trkpt lat="46.094686096636615" lon="11.684427461873401"><ele>1202.3333333333333</ele><time>2026-05-02T10:57:45Z</time></trkpt><trkpt lat="46.09463394729821" lon="11.684359763866782"><ele>1198.6666666666665</ele><time>2026-05-02T10:57:46Z</time></trkpt><trkpt lat="46.094547284509964" lon="11.684237346494426"><ele>1195.0</ele><time>2026-05-02T10:57:48Z</time></trkpt><trkpt lat="46.094490330141944" lon="11.684192899806227"><ele>1195.0</ele><time>2026-05-02T10:57:49Z</time></trkpt><trkpt lat="46.09443289920253" lon="11.684155673664296"><ele>1195.0</ele><time>2026-05-02T10:57:50Z</time></trkpt><trkpt lat="46.094366561974766" lon="11.684134894922993"><ele>1195.0</ele><time>2026-05-02T10:57:51Z</time></trkpt><trkpt lat="46.09425257425843" lon="11.68411745313436"><ele>1195.0</ele><time>2026-05-02T10:57:53Z</time></trkpt><trkpt lat="46.09417078208235" lon="11.684054297993235"><ele>1195.0</ele><time>2026-05-02T10:57:55Z</time></trkpt><trkpt lat="46.094104392658764" lon="11.68392935615071"><ele>1195.0</ele><time>2026-05-02T10:57:57Z</time></trkpt><trkpt lat="46.09403681113292" lon="11.683929874233193"><ele>1195.0</ele><time>2026-05-02T10:57:59Z</time></trkpt><trkpt lat="46.09404990118617" lon="11.684046958764343"><ele>1195.0</ele><time>2026-05-02T10:58:02Z</time></trkpt><trkpt lat="46.09416605022222" lon="11.684135882666594"><ele>1195.0</ele><time>2026-05-02T10:58:04Z</time></trkpt><trkpt lat="46.094237248607435" lon="11.684190492806444"><ele>1195.0</ele><time>2026-05-02T10:58:05Z</time></trkpt><trkpt lat="46.09429651797811" lon="11.684235527583697"><ele>1195.0</ele><time>2026-05-02T10:58:06Z</time></trkpt><trkpt lat="46.09435169817612" lon="11.68428641031797"><ele>1195.0</ele><time>2026-05-02T10:58:07Z</time></trkpt><trkpt lat="46.0944341747745" lon="11.684358264261917"><ele>1191.8333333333333</ele><time>2026-05-02T10:58:09Z</time></trkpt><trkpt lat="46.09450649300798" lon="11.68446617578733"><ele>1188.6666666666665</ele><time>2026-05-02T10:58:11Z</time></trkpt><trkpt lat="46.094531067709674" lon="11.684550117428092"><ele>1185.5</ele><time>2026-05-02T10:58:12Z</time></trkpt><trkpt lat="46.09456883821781" lon="11.684717985925326"><ele>1182.3333333333333</ele><time>2026-05-02T10:58:14Z</time></trkpt><trkpt lat="46.09458196919927" lon="11.684813752536646"><ele>1179.1666666666667</ele><time>2026-05-02T10:58:15Z</time></trkpt><trkpt lat="46.09460636201216" lon="11.684899185854718"><ele>1176.0</ele><time>2026-05-02T10:58:16Z</time></trkpt><trkpt lat="46.09463966746679" lon="11.684981806170352"><ele>1176.0</ele><time>2026-05-02T10:58:17Z</time></trkpt><trkpt lat="46.094679900635924" lon="11.68505621855795"><ele>1176.0</ele><time>2026-05-02T10:58:18Z</time></trkpt><trkpt lat="46.094701872871944" lon="11.685220327095369"><ele>1176.0</ele><time>2026-05-02T10:58:20Z</time></trkpt><trkpt lat="46.0947151085752" lon="11.685330670846426"><ele>1176.0</ele><time>2026-05-02T10:58:21Z</time></trkpt><trkpt lat="46.09473433886392" lon="11.685429832383885"><ele>1176.0</ele><time>2026-05-02T10:58:22Z</time></trkpt><trkpt lat="46.09473696050047" lon="11.685524457521616"><ele>1176.0</ele><time>2026-05-02T10:58:23Z</time></trkpt><trkpt lat="46.094743279402245" lon="11.685621585932553"><ele>1175.5</ele><time>2026-05-02T10:58:24.001Z</time></trkpt><trkpt lat="46.0947539808868" lon="11.685712113593782"><ele>1175.0</ele><time>2026-05-02T10:58:25.001Z</time></trkpt><trkpt lat="46.09478876514205" lon="11.68583966591505"><ele>1174.5</ele><time>2026-05-02T10:58:27.001Z</time></trkpt><trkpt lat="46.094769903880255" lon="11.685975453003335"><ele>1174.0</ele><time>2026-05-02T10:58:29.001Z</time></trkpt><trkpt lat="46.09474046442303" lon="11.68608536027794"><ele>1173.5</ele><time>2026-05-02T10:58:31.001Z</time></trkpt><trkpt lat="46.09468740916285" lon="11.686152319335696"><ele>1173.0</ele><time>2026-05-02T10:58:34.001Z</time></trkpt><trkpt lat="46.094623661548226" lon="11.686169516005556"><ele>1173.0</ele><time>2026-05-02T10:58:36.001Z</time></trkpt><trkpt lat="46.09455098787544" lon="11.686114197370797"><ele>1173.0</ele><time>2026-05-02T10:58:40.001Z</time></trkpt><trkpt lat="46.09449036709263" lon="11.68604298946342"><ele>1173.0</ele><time>2026-05-02T10:58:42.001Z</time></trkpt><trkpt lat="46.094373597564136" lon="11.685970119256355"><ele>1173.0</ele><time>2026-05-02T10:58:44.001Z</time></trkpt><trkpt lat="46.09430387058466" lon="11.68593843729078"><ele>1173.0</ele><time>2026-05-02T10:58:45.001Z</time></trkpt><trkpt lat="46.094224612127334" lon="11.68591511836832"><ele>1173.0</ele><time>2026-05-02T10:58:46.001Z</time></trkpt><trkpt lat="46.094149584204445" lon="11.685898620920096"><ele>1170.8333333333333</ele><time>2026-05-02T10:58:47.001Z</time></trkpt><trkpt lat="46.0940766953778" lon="11.685892025949661"><ele>1168.6666666666667</ele><time>2026-05-02T10:58:48.001Z</time></trkpt><trkpt lat="46.09400618187708" lon="11.685897387818097"><ele>1166.5</ele><time>2026-05-02T10:58:49.001Z</time></trkpt><trkpt lat="46.0939358340115" lon="11.685909478533892"><ele>1164.3333333333335</ele><time>2026-05-02T10:58:50.001Z</time></trkpt><trkpt lat="46.093868376148265" lon="11.685939321449787"><ele>1162.1666666666667</ele><time>2026-05-02T10:58:51.001Z</time></trkpt><trkpt lat="46.09374127102684" lon="11.685952494940388"><ele>1160.0</ele><time>2026-05-02T10:58:53Z</time></trkpt><trkpt lat="46.09362661251271" lon="11.685924166337443"><ele>1160.0</ele><time>2026-05-02T10:58:55Z</time></trkpt><trkpt lat="46.09351721154885" lon="11.685870751015136"><ele>1160.0</ele><time>2026-05-02T10:58:57Z</time></trkpt><trkpt lat="46.093419570747386" lon="11.685817245046163"><ele>1160.0</ele><time>2026-05-02T10:58:59Z</time></trkpt><trkpt lat="46.09331065901471" lon="11.68577744844702"><ele>1160.0</ele><time>2026-05-02T10:59:01Z</time></trkpt><trkpt lat="46.09324457632974" lon="11.68576723307192"><ele>1160.0</ele><time>2026-05-02T10:59:02Z</time></trkpt><trkpt lat="46.09317311579937" lon="11.685772102029551"><ele>1158.3333333333335</ele><time>2026-05-02T10:59:03Z</time></trkpt><trkpt lat="46.09310586686757" lon="11.6857943780918"><ele>1156.6666666666667</ele><time>2026-05-02T10:59:04Z</time></trkpt><trkpt lat="46.09304411243414" lon="11.685829476695293"><ele>1155.0</ele><time>2026-05-02T10:59:05Z</time></trkpt><trkpt lat="46.092978100439794" lon="11.685870682979758"><ele>1153.3333333333333</ele><time>2026-05-02T10:59:06Z</time></trkpt><trkpt lat="46.092917600147366" lon="11.68592467535101"><ele>1151.6666666666665</ele><time>2026-05-02T10:59:07Z</time></trkpt><trkpt lat="46.09284653930439" lon="11.685961546952809"><ele>1150.0</ele><time>2026-05-02T10:59:08Z</time></trkpt><trkpt lat="46.092756990939506" lon="11.686010998160873"><ele>1150.0</ele><time>2026-05-02T10:59:09Z</time></trkpt><trkpt lat="46.09267126258745" lon="11.686050379461921"><ele>1150.0</ele><time>2026-05-02T10:59:10Z</time></trkpt><trkpt lat="46.092606881151596" lon="11.686084086171912"><ele>1150.0</ele><time>2026-05-02T10:59:11Z</time></trkpt><trkpt lat="46.09251247522076" lon="11.686107919836946"><ele>1150.0</ele><time>2026-05-02T10:59:12Z</time></trkpt><trkpt lat="46.09243828459481" lon="11.686130358563847"><ele>1150.0</ele><time>2026-05-02T10:59:13Z</time></trkpt><trkpt lat="46.09237393954029" lon="11.686159997046708"><ele>1150.0</ele><time>2026-05-02T10:59:14Z</time></trkpt><trkpt lat="46.09229979938474" lon="11.686170637775158"><ele>1148.3333333333333</ele><time>2026-05-02T10:59:15Z</time></trkpt><trkpt lat="46.09220524054029" lon="11.68618412275491"><ele>1146.6666666666665</ele><time>2026-05-02T10:59:16Z</time></trkpt><trkpt lat="46.09211574212144" lon="11.68618597514546"><ele>1145.0</ele><time>2026-05-02T10:59:17Z</time></trkpt><trkpt lat="46.092027991197504" lon="11.686153934157343"><ele>1143.3333333333333</ele><time>2026-05-02T10:59:18Z</time></trkpt><trkpt lat="46.09194791875428" lon="11.686143854490867"><ele>1141.6666666666667</ele><time>2026-05-02T10:59:19Z</time></trkpt><trkpt lat="46.09187474198768" lon="11.686152346566454"><ele>1140.0</ele><time>2026-05-02T10:59:20Z</time></trkpt><trkpt lat="46.091820501826525" lon="11.686018214688602"><ele>1140.0</ele><time>2026-05-02T10:59:21Z</time></trkpt><trkpt lat="46.091750622007226" lon="11.686020031321146"><ele>1140.0</ele><time>2026-05-02T10:59:22Z</time></trkpt><trkpt lat="46.091683509467686" lon="11.686018871984835"><ele>1140.0</ele><time>2026-05-02T10:59:23Z</time></trkpt><trkpt lat="46.0915896986693" lon="11.686017251452457"><ele>1140.0</ele><time>2026-05-02T10:59:25Z</time></trkpt><trkpt lat="46.09147517583234" lon="11.68602663669868"><ele>1140.0</ele><time>2026-05-02T10:59:27Z</time></trkpt><trkpt lat="46.09141083258528" lon="11.686061002025404"><ele>1140.0</ele><time>2026-05-02T10:59:29Z</time></trkpt><trkpt lat="46.091501256849746" lon="11.686024617483577"><ele>1140.0</ele><time>2026-05-02T10:59:37Z</time></trkpt><trkpt lat="46.09153758230023" lon="11.685931289631824"><ele>1140.0</ele><time>2026-05-02T10:59:39Z</time></trkpt><trkpt lat="46.09163494083099" lon="11.686016134493123"><ele>1140.0</ele><time>2026-05-02T10:59:40Z</time></trkpt><trkpt lat="46.091722419885" lon="11.686015946153676"><ele>1140.0</ele><time>2026-05-02T10:59:42Z</time></trkpt><trkpt lat="46.09184801883505" lon="11.685995122147961"><ele>1140.0</ele><time>2026-05-02T10:59:44Z</time></trkpt><trkpt lat="46.09191545384154" lon="11.685993499769976"><ele>1140.0</ele><time>2026-05-02T10:59:45Z</time></trkpt><trkpt lat="46.0920184677368" lon="11.685964779153652"><ele>1140.0</ele><time>2026-05-02T10:59:47Z</time></trkpt><trkpt lat="46.09208061059202" lon="11.685932354861926"><ele>1140.0</ele><time>2026-05-02T10:59:48Z</time></trkpt><trkpt lat="46.09214134716664" lon="11.685895070609643"><ele>1140.0</ele><time>2026-05-02T10:59:49Z</time></trkpt><trkpt lat="46.0922892719365" lon="11.685852335835614"><ele>1140.0</ele><time>2026-05-02T10:59:51Z</time></trkpt><trkpt lat="46.09238431379559" lon="11.685767094041918"><ele>1140.0</ele><time>2026-05-02T10:59:53Z</time></trkpt><trkpt lat="46.09245928380311" lon="11.685699879027844"><ele>1140.0</ele><time>2026-05-02T10:59:55Z</time></trkpt><trkpt lat="46.09246705083266" lon="11.685573216845636"><ele>1140.0</ele><time>2026-05-02T10:59:57Z</time></trkpt><trkpt lat="46.09237409969489" lon="11.68554404679579"><ele>1140.0</ele><time>2026-05-02T10:59:59Z</time></trkpt><trkpt lat="46.09226906608924" lon="11.68562273505599"><ele>1140.0</ele><time>2026-05-02T11:00:01Z</time></trkpt><trkpt lat="46.09219684023671" lon="11.685677124004128"><ele>1140.0</ele><time>2026-05-02T11:00:02Z</time></trkpt><trkpt lat="46.092126743666356" lon="11.685725156952879"><ele>1140.0</ele><time>2026-05-02T11:00:03Z</time></trkpt><trkpt lat="46.09201416520439" lon="11.685747980315929"><ele>1140.0</ele><time>2026-05-02T11:00:05Z</time></trkpt><trkpt lat="46.09194033581189" lon="11.685724329704145"><ele>1140.0</ele><time>2026-05-02T11:00:07Z</time></trkpt><trkpt lat="46.091819659123914" lon="11.685673111893147"><ele>1140.0</ele><time>2026-05-02T11:00:09Z</time></trkpt><trkpt lat="46.09174294630765" lon="11.685634885157576"><ele>1140.0</ele><time>2026-05-02T11:00:10Z</time></trkpt><trkpt lat="46.0916676284812" lon="11.685601289281555"><ele>1140.0</ele><time>2026-05-02T11:00:11Z</time></trkpt><trkpt lat="46.09158596883451" lon="11.685572689894505"><ele>1140.0</ele><time>2026-05-02T11:00:12Z</time></trkpt><trkpt lat="46.09150613984917" lon="11.685550752153969"><ele>1140.0</ele><time>2026-05-02T11:00:13Z</time></trkpt><trkpt lat="46.09142988456745" lon="11.685544183597491"><ele>1140.0</ele><time>2026-05-02T11:00:14Z</time></trkpt><trkpt lat="46.0913649008732" lon="11.685538672054609"><ele>1140.0</ele><time>2026-05-02T11:00:15Z</time></trkpt><trkpt lat="46.091275701625946" lon="11.685535225676333"><ele>1140.0</ele><time>2026-05-02T11:00:17Z</time></trkpt><trkpt lat="46.09123022212862" lon="11.685465947613487"><ele>1140.0</ele><time>2026-05-02T11:00:20Z</time></trkpt><trkpt lat="46.09128941284958" lon="11.685388154203894"><ele>1140.0</ele><time>2026-05-02T11:00:23.001Z</time></trkpt><trkpt lat="46.091391094648706" lon="11.685457664396514"><ele>1140.0</ele><time>2026-05-02T11:00:25.001Z</time></trkpt><trkpt lat="46.091456951909635" lon="11.685449837581702"><ele>1140.0</ele><time>2026-05-02T11:00:26.001Z</time></trkpt><trkpt lat="46.091543420875574" lon="11.685446328601989"><ele>1140.0</ele><time>2026-05-02T11:00:27.001Z</time></trkpt><trkpt lat="46.0916243383458" lon="11.685443322743232"><ele>1140.0</ele><time>2026-05-02T11:00:28.001Z</time></trkpt><trkpt lat="46.09170578762813" lon="11.685423070799315"><ele>1140.0</ele><time>2026-05-02T11:00:29.001Z</time></trkpt><trkpt lat="46.09184444348577" lon="11.6854224181005"><ele>1140.0</ele><time>2026-05-02T11:00:31.001Z</time></trkpt><trkpt lat="46.09191080246573" lon="11.685420778888401"><ele>1140.0</ele><time>2026-05-02T11:00:32.001Z</time></trkpt><trkpt lat="46.09200224319371" lon="11.685397301628722"><ele>1140.0</ele><time>2026-05-02T11:00:34.001Z</time></trkpt><trkpt lat="46.09207460997968" lon="11.685351669058772"><ele>1134.0</ele><time>2026-05-02T11:00:35.001Z</time></trkpt><trkpt lat="46.092149606092505" lon="11.685251683340383"><ele>1128.0</ele><time>2026-05-02T11:00:37.001Z</time></trkpt><trkpt lat="46.092155677865286" lon="11.685161228736659"><ele>1122.0</ele><time>2026-05-02T11:00:39.001Z</time></trkpt><trkpt lat="46.09210275232305" lon="11.685107054484378"><ele>1116.0</ele><time>2026-05-02T11:00:41.001Z</time></trkpt><trkpt lat="46.09203065264502" lon="11.685151403725298"><ele>1110.0</ele><time>2026-05-02T11:00:43.001Z</time></trkpt><trkpt lat="46.09198293529194" lon="11.68521537292421"><ele>1104.0</ele><time>2026-05-02T11:00:44.001Z</time></trkpt><trkpt lat="46.091884201013244" lon="11.685240427915316"><ele>1104.0</ele><time>2026-05-02T11:00:46.001Z</time></trkpt><trkpt lat="46.09178658978413" lon="11.685213499603607"><ele>1104.0</ele><time>2026-05-02T11:00:48.001Z</time></trkpt><trkpt lat="46.09171766284461" lon="11.685220041863376"><ele>1104.0</ele><time>2026-05-02T11:00:49.001Z</time></trkpt><trkpt lat="46.09164973432479" lon="11.68518876633903"><ele>1104.0</ele><time>2026-05-02T11:00:50.001Z</time></trkpt><trkpt lat="46.091571613736484" lon="11.68517770994694"><ele>1104.0</ele><time>2026-05-02T11:00:51.001Z</time></trkpt><trkpt lat="46.09144583077333" lon="11.685143315764222"><ele>1104.0</ele><time>2026-05-02T11:00:53.001Z</time></trkpt><trkpt lat="46.0913752942376" lon="11.685118182153866"><ele>1101.5</ele><time>2026-05-02T11:00:54.001Z</time></trkpt><trkpt lat="46.09132431476101" lon="11.68506447506746"><ele>1099.0</ele><time>2026-05-02T11:00:55.001Z</time></trkpt><trkpt lat="46.091255414641715" lon="11.68502327762462"><ele>1096.5</ele><time>2026-05-02T11:00:56.001Z</time></trkpt><trkpt lat="46.09116716136365" lon="11.684997193972748"><ele>1094.0</ele><time>2026-05-02T11:00:57.001Z</time></trkpt><trkpt lat="46.091076750226925" lon="11.684951310532306"><ele>1091.5</ele><time>2026-05-02T11:00:58Z</time></trkpt><trkpt lat="46.09099708422001" lon="11.684910230503892"><ele>1089.0</ele><time>2026-05-02T11:00:59Z</time></trkpt><trkpt lat="46.090924749963186" lon="11.684884354216605"><ele>1089.0</ele><time>2026-05-02T11:01:00Z</time></trkpt><trkpt lat="46.0908500337938" lon="11.684856263452794"><ele>1089.0</ele><time>2026-05-02T11:01:01Z</time></trkpt><trkpt lat="46.09078446736068" lon="11.684820701454242"><ele>1089.0</ele><time>2026-05-02T11:01:02Z</time></trkpt><trkpt lat="46.09066976825652" lon="11.684762699064624"><ele>1089.0</ele><time>2026-05-02T11:01:04Z</time></trkpt><trkpt lat="46.09055478307142" lon="11.684760165933278"><ele>1089.0</ele><time>2026-05-02T11:01:06Z</time></trkpt><trkpt lat="46.0904962374906" lon="11.684806060826366"><ele>1089.8333333333333</ele><time>2026-05-02T11:01:07Z</time></trkpt><trkpt lat="46.090454231297194" lon="11.684882758453764"><ele>1090.6666666666667</ele><time>2026-05-02T11:01:08Z</time></trkpt><trkpt lat="46.0904430734429" lon="11.685055458274213"><ele>1091.5</ele><time>2026-05-02T11:01:10Z</time></trkpt><trkpt lat="46.09046394210783" lon="11.685142393007427"><ele>1092.3333333333335</ele><time>2026-05-02T11:01:11Z</time></trkpt><trkpt lat="46.090483084155096" lon="11.68522992012057"><ele>1093.1666666666667</ele><time>2026-05-02T11:01:12Z</time></trkpt><trkpt lat="46.09050729373018" lon="11.685326608631176"><ele>1094.0</ele><time>2026-05-02T11:01:13Z</time></trkpt><trkpt lat="46.090502559148355" lon="11.685484801293406"><ele>1094.0</ele><time>2026-05-02T11:01:15Z</time></trkpt><trkpt lat="46.09047225641974" lon="11.685568900359009"><ele>1094.0</ele><time>2026-05-02T11:01:17Z</time></trkpt><trkpt lat="46.09040862657676" lon="11.685659354261675"><ele>1094.0</ele><time>2026-05-02T11:01:19Z</time></trkpt><trkpt lat="46.090343341859985" lon="11.68578816139367"><ele>1094.0</ele><time>2026-05-02T11:01:21Z</time></trkpt><trkpt lat="46.09028446350593" lon="11.685845498743149"><ele>1094.0</ele><time>2026-05-02T11:01:22Z</time></trkpt><trkpt lat="46.090216691288504" lon="11.685890779547004"><ele>1094.0</ele><time>2026-05-02T11:01:23Z</time></trkpt><trkpt lat="46.090114262323695" lon="11.685905664435332"><ele>1094.0</ele><time>2026-05-02T11:01:25Z</time></trkpt><trkpt lat="46.090042768378886" lon="11.685915861587283"><ele>1094.0</ele><time>2026-05-02T11:01:26Z</time></trkpt><trkpt lat="46.08996018918157" lon="11.685915683207378"><ele>1094.0</ele><time>2026-05-02T11:01:27Z</time></trkpt><trkpt lat="46.089897771216165" lon="11.685935378065922"><ele>1094.0</ele><time>2026-05-02T11:01:28Z</time></trkpt><trkpt lat="46.0898333824209" lon="11.685947754891291"><ele>1094.0</ele><time>2026-05-02T11:01:29Z</time></trkpt><trkpt lat="46.08976623022325" lon="11.685967664312317"><ele>1094.0</ele><time>2026-05-02T11:01:30Z</time></trkpt><trkpt lat="46.08970733781802" lon="11.686006260319154"><ele>1094.0</ele><time>2026-05-02T11:01:31Z</time></trkpt><trkpt lat="46.08962533230491" lon="11.686076311236157"><ele>1094.0</ele><time>2026-05-02T11:01:33Z</time></trkpt><trkpt lat="46.08957453444031" lon="11.68601056848479"><ele>1094.0</ele><time>2026-05-02T11:01:36Z</time></trkpt><trkpt lat="46.089631300331455" lon="11.685917545997533"><ele>1094.0</ele><time>2026-05-02T11:01:38Z</time></trkpt><trkpt lat="46.0897124290844" lon="11.68591011868518"><ele>1094.0</ele><time>2026-05-02T11:01:39Z</time></trkpt><trkpt lat="46.08978319562593" lon="11.6858355982048"><ele>1094.0</ele><time>2026-05-02T11:01:40Z</time></trkpt><trkpt lat="46.08986157458246" lon="11.685810863279313"><ele>1094.0</ele><time>2026-05-02T11:01:41Z</time></trkpt><trkpt lat="46.08993156484843" lon="11.685774981867267"><ele>1094.0</ele><time>2026-05-02T11:01:42Z</time></trkpt><trkpt lat="46.09000495651937" lon="11.68574252940785"><ele>1094.0</ele><time>2026-05-02T11:01:43Z</time></trkpt><trkpt lat="46.09008318607634" lon="11.685713537729058"><ele>1094.0</ele><time>2026-05-02T11:01:44Z</time></trkpt><trkpt lat="46.09014695531034" lon="11.685696186460664"><ele>1094.0</ele><time>2026-05-02T11:01:45Z</time></trkpt><trkpt lat="46.090248221982215" lon="11.685656793411436"><ele>1094.0</ele><time>2026-05-02T11:01:47Z</time></trkpt><trkpt lat="46.09029348663844" lon="11.685580434598545"><ele>1094.0</ele><time>2026-05-02T11:01:49Z</time></trkpt><trkpt lat="46.09025604583013" lon="11.685475323442022"><ele>1094.0</ele><time>2026-05-02T11:01:51Z</time></trkpt><trkpt lat="46.090177723846374" lon="11.685466555249107"><ele>1094.0</ele><time>2026-05-02T11:01:53Z</time></trkpt><trkpt lat="46.090096837884005" lon="11.685508344678537"><ele>1094.0</ele><time>2026-05-02T11:01:54Z</time></trkpt><trkpt lat="46.090011980091376" lon="11.685545882592054"><ele>1094.0</ele><time>2026-05-02T11:01:55Z</time></trkpt><trkpt lat="46.08992438794086" lon="11.685566723606664"><ele>1094.0</ele><time>2026-05-02T11:01:56Z</time></trkpt><trkpt lat="46.08984556673063" lon="11.685584748221357"><ele>1094.0</ele><time>2026-05-02T11:01:57Z</time></trkpt><trkpt lat="46.08976273100887" lon="11.685612040541123"><ele>1098.3333333333335</ele><time>2026-05-02T11:01:58Z</time></trkpt><trkpt lat="46.0896809372633" lon="11.685631964048268"><ele>1102.6666666666667</ele><time>2026-05-02T11:01:59Z</time></trkpt><trkpt lat="46.08960026793887" lon="11.685664941972666"><ele>1107.0</ele><time>2026-05-02T11:02:00Z</time></trkpt><trkpt lat="46.08953156381728" lon="11.685707727316904"><ele>1111.3333333333333</ele><time>2026-05-02T11:02:01Z</time></trkpt><trkpt lat="46.08947304930004" lon="11.68574612985821"><ele>1115.6666666666665</ele><time>2026-05-02T11:02:02Z</time></trkpt><trkpt lat="46.089404194027885" lon="11.685771301032158"><ele>1120.0</ele><time>2026-05-02T11:02:05Z</time></trkpt><trkpt lat="46.08939615100495" lon="11.685645987821811"><ele>1120.0</ele><time>2026-05-02T11:07:24Z</time></trkpt><trkpt lat="46.08949869237724" lon="11.685561307827756"><ele>1120.0</ele><time>2026-05-02T11:07:26Z</time></trkpt><trkpt lat="46.089568717994055" lon="11.685510657651257"><ele>1120.0</ele><time>2026-05-02T11:07:27Z</time></trkpt><trkpt lat="46.08963791845503" lon="11.685484993153795"><ele>1120.0</ele><time>2026-05-02T11:07:28Z</time></trkpt><trkpt lat="46.0896999955031" lon="11.68544374935316"><ele>1120.0</ele><time>2026-05-02T11:07:29Z</time></trkpt><trkpt lat="46.089765232178095" lon="11.685400869512158"><ele>1120.0</ele><time>2026-05-02T11:07:30Z</time></trkpt><trkpt lat="46.08982847798355" lon="11.685361989515075"><ele>1120.0</ele><time>2026-05-02T11:07:31Z</time></trkpt><trkpt lat="46.08990209312404" lon="11.685323658595465"><ele>1120.0</ele><time>2026-05-02T11:07:32Z</time></trkpt><trkpt lat="46.08997778937869" lon="11.685292844077106"><ele>1120.0</ele><time>2026-05-02T11:07:33Z</time></trkpt><trkpt lat="46.090049822471904" lon="11.685265086912827"><ele>1120.0</ele><time>2026-05-02T11:07:34Z</time></trkpt><trkpt lat="46.09011869805116" lon="11.685239391020197"><ele>1120.0</ele><time>2026-05-02T11:07:35Z</time></trkpt><trkpt lat="46.090180698527114" lon="11.685211362261198"><ele>1120.0</ele><time>2026-05-02T11:07:36Z</time></trkpt><trkpt lat="46.09025808701677" lon="11.685146102403872"><ele>1109.3333333333333</ele><time>2026-05-02T11:07:38Z</time></trkpt><trkpt lat="46.09017437101769" lon="11.685026556381553"><ele>1098.6666666666665</ele><time>2026-05-02T11:07:43Z</time></trkpt><trkpt lat="46.09010343118859" lon="11.68505366261442"><ele>1088.0</ele><time>2026-05-02T11:07:44Z</time></trkpt><trkpt lat="46.09002710244187" lon="11.68508414433153"><ele>1077.3333333333333</ele><time>2026-05-02T11:07:45Z</time></trkpt><trkpt lat="46.08994839366616" lon="11.685079716689309"><ele>1066.6666666666667</ele><time>2026-05-02T11:07:46Z</time></trkpt><trkpt lat="46.08986972892842" lon="11.685109841828643"><ele>1056.0</ele><time>2026-05-02T11:07:47Z</time></trkpt><trkpt lat="46.08977778132813" lon="11.685114456152046"><ele>1051.2</ele><time>2026-05-02T11:07:48Z</time></trkpt><trkpt lat="46.089672538606585" lon="11.685138760157255"><ele>1046.3999999999999</ele><time>2026-05-02T11:07:49Z</time></trkpt><trkpt lat="46.08958237818858" lon="11.685168814148865"><ele>1041.6</ele><time>2026-05-02T11:07:50Z</time></trkpt><trkpt lat="46.089491696129365" lon="11.685177111590328"><ele>1036.8</ele><time>2026-05-02T11:07:51Z</time></trkpt><trkpt lat="46.089400049917735" lon="11.685223836354595"><ele>1032.0</ele><time>2026-05-02T11:07:52Z</time></trkpt><trkpt lat="46.08932162927469" lon="11.685291078846397"><ele>1042.8333333333333</ele><time>2026-05-02T11:07:53Z</time></trkpt><trkpt lat="46.08923968561718" lon="11.685337748441004"><ele>1053.6666666666667</ele><time>2026-05-02T11:07:54Z</time></trkpt><trkpt lat="46.08916361380896" lon="11.685387429128175"><ele>1064.5</ele><time>2026-05-02T11:07:55Z</time></trkpt><trkpt lat="46.08909968598885" lon="11.685447077104486"><ele>1075.3333333333335</ele><time>2026-05-02T11:07:56Z</time></trkpt><trkpt lat="46.08904630809569" lon="11.685497308290321"><ele>1086.1666666666667</ele><time>2026-05-02T11:07:57Z</time></trkpt><trkpt lat="46.08895793789183" lon="11.68556129178731"><ele>1097.0</ele><time>2026-05-02T11:07:59Z</time></trkpt><trkpt lat="46.088883478061334" lon="11.685555461802291"><ele>1097.0</ele><time>2026-05-02T11:08:01Z</time></trkpt><trkpt lat="46.0888593346325" lon="11.68544123084511"><ele>1097.0</ele><time>2026-05-02T11:08:04Z</time></trkpt><trkpt lat="46.08895637564537" lon="11.685421085150354"><ele>1097.0</ele><time>2026-05-02T11:08:06Z</time></trkpt><trkpt lat="46.08900348064445" lon="11.685354240596062"><ele>1097.0</ele><time>2026-05-02T11:08:07Z</time></trkpt><trkpt lat="46.089072466026735" lon="11.685310749574253"><ele>1097.0</ele><time>2026-05-02T11:08:08Z</time></trkpt><trkpt lat="46.08912416552276" lon="11.685243103624122"><ele>1097.0</ele><time>2026-05-02T11:08:09Z</time></trkpt><trkpt lat="46.08919562580098" lon="11.68517096911559"><ele>1086.1666666666667</ele><time>2026-05-02T11:08:10.001Z</time></trkpt><trkpt lat="46.08926701758376" lon="11.685086893827823"><ele>1075.3333333333335</ele><time>2026-05-02T11:08:11.001Z</time></trkpt><trkpt lat="46.0893415236861" lon="11.685026284953386"><ele>1064.5</ele><time>2026-05-02T11:08:12.001Z</time></trkpt><trkpt lat="46.08939688675052" lon="11.684941837349832"><ele>1053.6666666666667</ele><time>2026-05-02T11:08:13.001Z</time></trkpt><trkpt lat="46.08946098560153" lon="11.684880706117989"><ele>1042.8333333333333</ele><time>2026-05-02T11:08:14.001Z</time></trkpt><trkpt lat="46.08952348032128" lon="11.684836949457466"><ele>1032.0</ele><time>2026-05-02T11:08:15.001Z</time></trkpt><trkpt lat="46.089569558888684" lon="11.684760597546303"><ele>1031.9999999999998</ele><time>2026-05-02T11:08:16.001Z</time></trkpt><trkpt lat="46.08962925529403" lon="11.684725361847203"><ele>1032.0</ele><time>2026-05-02T11:08:17.001Z</time></trkpt><trkpt lat="46.089693392156256" lon="11.6846696661611"><ele>1032.0</ele><time>2026-05-02T11:08:18.001Z</time></trkpt><trkpt lat="46.08975802295557" lon="11.684632264646778"><ele>1032.0</ele><time>2026-05-02T11:08:19.001Z</time></trkpt><trkpt lat="46.08982234012325" lon="11.684593710130487"><ele>1032.0</ele><time>2026-05-02T11:08:20.001Z</time></trkpt><trkpt lat="46.0898952855297" lon="11.684552648249754"><ele>1031.9999999999998</ele><time>2026-05-02T11:08:21.001Z</time></trkpt><trkpt lat="46.089966213421214" lon="11.684490563718667"><ele>1032.0</ele><time>2026-05-02T11:08:22.001Z</time></trkpt><trkpt lat="46.090044523707114" lon="11.684458683446977"><ele>1030.8333333333333</ele><time>2026-05-02T11:08:23.001Z</time></trkpt><trkpt lat="46.09013615231006" lon="11.684438370165385"><ele>1029.6666666666667</ele><time>2026-05-02T11:08:24.001Z</time></trkpt><trkpt lat="46.09022975819346" lon="11.684409068113217"><ele>1028.5</ele><time>2026-05-02T11:08:25.001Z</time></trkpt><trkpt lat="46.090316586018" lon="11.684381753201864"><ele>1027.3333333333335</ele><time>2026-05-02T11:08:26.001Z</time></trkpt><trkpt lat="46.090400008588844" lon="11.684345329303136"><ele>1026.1666666666667</ele><time>2026-05-02T11:08:27.001Z</time></trkpt><trkpt lat="46.09047140257488" lon="11.684300851215918"><ele>1025.0</ele><time>2026-05-02T11:08:28.001Z</time></trkpt><trkpt lat="46.09051151214177" lon="11.684230422002768"><ele>1025.0</ele><time>2026-05-02T11:08:29.001Z</time></trkpt><trkpt lat="46.090566508195714" lon="11.684167678045853"><ele>1025.0</ele><time>2026-05-02T11:08:30.001Z</time></trkpt><trkpt lat="46.090614314476184" lon="11.684105229970575"><ele>1025.0</ele><time>2026-05-02T11:08:31.001Z</time></trkpt><trkpt lat="46.090667832246176" lon="11.683977134639452"><ele>1025.0</ele><time>2026-05-02T11:08:33.001Z</time></trkpt><trkpt lat="46.0906727299782" lon="11.683860635915739"><ele>1025.0</ele><time>2026-05-02T11:08:35.001Z</time></trkpt><trkpt lat="46.09063728312422" lon="11.683778212878744"><ele>1025.0</ele><time>2026-05-02T11:08:37.001Z</time></trkpt><trkpt lat="46.09056206705462" lon="11.683833171649942"><ele>1025.0</ele><time>2026-05-02T11:08:39.001Z</time></trkpt><trkpt lat="46.090518150639724" lon="11.683942884412767"><ele>1025.0</ele><time>2026-05-02T11:08:42.001Z</time></trkpt><trkpt lat="46.090477954240136" lon="11.684017082748527"><ele>1025.0</ele><time>2026-05-02T11:08:44.001Z</time></trkpt><trkpt lat="46.090412179958825" lon="11.684071516140488"><ele>1025.0</ele><time>2026-05-02T11:08:47.001Z</time></trkpt><trkpt lat="46.09033860268012" lon="11.684084629054038"><ele>1025.0</ele><time>2026-05-02T11:08:49.001Z</time></trkpt><trkpt lat="46.09023921183796" lon="11.684081736881371"><ele>1025.0</ele><time>2026-05-02T11:08:51.001Z</time></trkpt><trkpt lat="46.09011301528717" lon="11.684072817603827"><ele>1024.9999999999998</ele><time>2026-05-02T11:08:53.001Z</time></trkpt><trkpt lat="46.090035260016975" lon="11.684087022201592"><ele>1025.0</ele><time>2026-05-02T11:08:54.001Z</time></trkpt><trkpt lat="46.089968954496165" lon="11.684083835573686"><ele>1025.0</ele><time>2026-05-02T11:08:55.001Z</time></trkpt><trkpt lat="46.08988333702953" lon="11.684069479296951"><ele>1025.0</ele><time>2026-05-02T11:08:56.001Z</time></trkpt><trkpt lat="46.08980256260684" lon="11.684070006851723"><ele>1025.0</ele><time>2026-05-02T11:08:57.001Z</time></trkpt><trkpt lat="46.089730221186386" lon="11.684065662082949"><ele>1024.9999999999998</ele><time>2026-05-02T11:08:58.001Z</time></trkpt><trkpt lat="46.089671279595755" lon="11.684104265880608"><ele>1025.0</ele><time>2026-05-02T11:08:59.001Z</time></trkpt><trkpt lat="46.089608011972864" lon="11.684125026898808"><ele>1020.8</ele><time>2026-05-02T11:09:00.001Z</time></trkpt><trkpt lat="46.08951193448009" lon="11.684159648782218"><ele>1016.6</ele><time>2026-05-02T11:09:01.001Z</time></trkpt><trkpt lat="46.089411303976384" lon="11.684179904743258"><ele>1012.4000000000001</ele><time>2026-05-02T11:09:02.001Z</time></trkpt><trkpt lat="46.08932682902769" lon="11.684233258976677"><ele>1008.2</ele><time>2026-05-02T11:09:03.001Z</time></trkpt><trkpt lat="46.08925638177294" lon="11.68428959457973"><ele>1004.0</ele><time>2026-05-02T11:09:04.001Z</time></trkpt><trkpt lat="46.08917775849505" lon="11.684323260816114"><ele>1004.0000000000001</ele><time>2026-05-02T11:09:05.001Z</time></trkpt><trkpt lat="46.08910064954536" lon="11.684355503162607"><ele>1004.0</ele><time>2026-05-02T11:09:06.001Z</time></trkpt><trkpt lat="46.08901966032496" lon="11.68438979902499"><ele>1004.0</ele><time>2026-05-02T11:09:07.001Z</time></trkpt><trkpt lat="46.088950618233646" lon="11.684457508354734"><ele>1004.0</ele><time>2026-05-02T11:09:08.001Z</time></trkpt><trkpt lat="46.088877057343396" lon="11.684532826261536"><ele>1004.0000000000001</ele><time>2026-05-02T11:09:09.001Z</time></trkpt><trkpt lat="46.088807690789714" lon="11.684606940247928"><ele>1004.0</ele><time>2026-05-02T11:09:10.001Z</time></trkpt><trkpt lat="46.08874726994603" lon="11.68467188643585"><ele>1007.5000000000001</ele><time>2026-05-02T11:09:11.001Z</time></trkpt><trkpt lat="46.08869776081933" lon="11.684733211386375"><ele>1011.0</ele><time>2026-05-02T11:09:12.001Z</time></trkpt><trkpt lat="46.088615156098314" lon="11.684828408173075"><ele>1014.5</ele><time>2026-05-02T11:09:14.001Z</time></trkpt><trkpt lat="46.088545262537856" lon="11.684859887409386"><ele>1018.0</ele><time>2026-05-02T11:09:16.001Z</time></trkpt><trkpt lat="46.08852506768799" lon="11.684748962964099"><ele>1021.5000000000001</ele><time>2026-05-02T11:09:18.001Z</time></trkpt><trkpt lat="46.0885974185122" lon="11.684717837627883"><ele>1025.0</ele><time>2026-05-02T11:09:20.001Z</time></trkpt><trkpt lat="46.088670262097814" lon="11.684619689521368"><ele>1025.0</ele><time>2026-05-02T11:09:22Z</time></trkpt><trkpt lat="46.08872071338537" lon="11.684560135904563"><ele>1025.0</ele><time>2026-05-02T11:09:23Z</time></trkpt><trkpt lat="46.08876644315011" lon="11.684491699423402"><ele>1025.0</ele><time>2026-05-02T11:09:24Z</time></trkpt><trkpt lat="46.08883094090147" lon="11.684426354919742"><ele>1025.0</ele><time>2026-05-02T11:09:25Z</time></trkpt><trkpt lat="46.08889210085588" lon="11.684336045986782"><ele>1025.0</ele><time>2026-05-02T11:09:26Z</time></trkpt><trkpt lat="46.088953342238085" lon="11.684251357300711"><ele>1025.0</ele><time>2026-05-02T11:09:27Z</time></trkpt><trkpt lat="46.089007413866916" lon="11.68415204511553"><ele>1021.5000000000001</ele><time>2026-05-02T11:09:28Z</time></trkpt><trkpt lat="46.08907200128358" lon="11.684064246299434"><ele>1018.0</ele><time>2026-05-02T11:09:29Z</time></trkpt><trkpt lat="46.089144197770906" lon="11.684004428310061"><ele>1014.5</ele><time>2026-05-02T11:09:30Z</time></trkpt><trkpt lat="46.08920187787676" lon="11.683942839977602"><ele>1011.0</ele><time>2026-05-02T11:09:31Z</time></trkpt><trkpt lat="46.089262451700186" lon="11.683880626488182"><ele>1007.5000000000001</ele><time>2026-05-02T11:09:32Z</time></trkpt><trkpt lat="46.0893156776469" lon="11.683822941424252"><ele>1004.0</ele><time>2026-05-02T11:09:33Z</time></trkpt><trkpt lat="46.0893777065819" lon="11.68375060044223"><ele>1004.0000000000001</ele><time>2026-05-02T11:09:35Z</time></trkpt><trkpt lat="46.08936596933343" lon="11.683623330191415"><ele>1004.0</ele><time>2026-05-02T11:09:37Z</time></trkpt><trkpt lat="46.08929402793948" lon="11.683602214061208"><ele>1004.0</ele><time>2026-05-02T11:09:39Z</time></trkpt><trkpt lat="46.08918634685449" lon="11.683661913580064"><ele>1004.0</ele><time>2026-05-02T11:09:41Z</time></trkpt><trkpt lat="46.08913125729124" lon="11.683743702531844"><ele>1004.0000000000001</ele><time>2026-05-02T11:09:42Z</time></trkpt><trkpt lat="46.08908003928767" lon="11.683811623924854"><ele>1004.0</ele><time>2026-05-02T11:09:43Z</time></trkpt><trkpt lat="46.089029231720865" lon="11.683882945179823"><ele>1002.6666666666667</ele><time>2026-05-02T11:09:44Z</time></trkpt><trkpt lat="46.08895945905232" lon="11.683909727714319"><ele>1001.3333333333334</ele><time>2026-05-02T11:09:45Z</time></trkpt><trkpt lat="46.088894045424155" lon="11.683947517206105"><ele>1000.0</ele><time>2026-05-02T11:09:46Z</time></trkpt><trkpt lat="46.08883227376325" lon="11.683982623658835"><ele>998.6666666666667</ele><time>2026-05-02T11:09:47Z</time></trkpt><trkpt lat="46.08877689273585" lon="11.684038544792882"><ele>997.3333333333334</ele><time>2026-05-02T11:09:48Z</time></trkpt><trkpt lat="46.08870832002085" lon="11.684069037000306"><ele>996.0</ele><time>2026-05-02T11:09:49Z</time></trkpt><trkpt lat="46.088581074001" lon="11.684122419639564"><ele>996.0</ele><time>2026-05-02T11:09:51Z</time></trkpt><trkpt lat="46.08852346098046" lon="11.684167837693911"><ele>995.9999999999999</ele><time>2026-05-02T11:09:52Z</time></trkpt><trkpt lat="46.08847236251981" lon="11.684232146335889"><ele>995.9999999999999</ele><time>2026-05-02T11:09:53Z</time></trkpt><trkpt lat="46.088414441782255" lon="11.68426923866071"><ele>996.0</ele><time>2026-05-02T11:09:54Z</time></trkpt><trkpt lat="46.08832978090917" lon="11.684332667140717"><ele>996.0</ele><time>2026-05-02T11:09:56Z</time></trkpt><trkpt lat="46.08813324548415" lon="11.684195437162405"><ele>997.8333333333334</ele><time>2026-05-02T11:09:58Z</time></trkpt><trkpt lat="46.088059373416726" lon="11.684114488165768"><ele>999.6666666666667</ele><time>2026-05-02T11:09:59Z</time></trkpt><trkpt lat="46.08798562900637" lon="11.684044496943434"><ele>1001.5</ele><time>2026-05-02T11:10:00Z</time></trkpt><trkpt lat="46.08791380818808" lon="11.683982693669995"><ele>1003.3333333333334</ele><time>2026-05-02T11:10:01Z</time></trkpt><trkpt lat="46.08785587351117" lon="11.683925179855658"><ele>1005.1666666666667</ele><time>2026-05-02T11:10:02Z</time></trkpt><trkpt lat="46.087820994070434" lon="11.683842489476778"><ele>1007.0</ele><time>2026-05-02T11:10:03Z</time></trkpt><trkpt lat="46.08776026085433" lon="11.683745028686017"><ele>1007.0</ele><time>2026-05-02T11:10:04Z</time></trkpt><trkpt lat="46.08769794997518" lon="11.683615890719082"><ele>1007.0</ele><time>2026-05-02T11:10:05Z</time></trkpt><trkpt lat="46.08762947153346" lon="11.68353633403593"><ele>975.0</ele><time>2026-05-02T11:10:06Z</time></trkpt><trkpt lat="46.08755573027072" lon="11.683485847028054"><ele>975.0</ele><time>2026-05-02T11:10:07Z</time></trkpt><trkpt lat="46.08748327821584" lon="11.683454647260652"><ele>975.0</ele><time>2026-05-02T11:10:08Z</time></trkpt><trkpt lat="46.08740101602907" lon="11.683433890733605"><ele>986.0</ele><time>2026-05-02T11:10:10Z</time></trkpt></trkseg><trkseg><trkpt lat="46.08723400842448" lon="11.683374933354465"><ele>986.0</ele><time>2026-05-02T11:32:32Z</time></trkpt><trkpt lat="46.08712780538096" lon="11.683347306723553"><ele>985.9999999999999</ele><time>2026-05-02T11:32:33Z</time></trkpt><trkpt lat="46.08704091060929" lon="11.683270629981376"><ele>985.9999999999999</ele><time>2026-05-02T11:32:36Z</time></trkpt><trkpt lat="46.086948625809995" lon="11.683132043700857"><ele>986.0</ele><time>2026-05-02T11:32:38Z</time></trkpt><trkpt lat="46.08689185533986" lon="11.683012282130688"><ele>986.0</ele><time>2026-05-02T11:32:39Z</time></trkpt><trkpt lat="46.08683087585518" lon="11.682918643658939"><ele>986.0</ele><time>2026-05-02T11:32:40Z</time></trkpt><trkpt lat="46.08677971754956" lon="11.682773222670988"><ele>985.9999999999999</ele><time>2026-05-02T11:32:42Z</time></trkpt><trkpt lat="46.086690650044254" lon="11.682727710809653"><ele>985.9999999999999</ele><time>2026-05-02T11:32:44Z</time></trkpt><trkpt lat="46.08658751123691" lon="11.682750244919877"><ele>986.0</ele><time>2026-05-02T11:32:46Z</time></trkpt><trkpt lat="46.086517272443444" lon="11.682767288847602"><ele>986.0</ele><time>2026-05-02T11:32:47Z</time></trkpt><trkpt lat="46.08642717948727" lon="11.682802754844472"><ele>979.1666666666667</ele><time>2026-05-02T11:32:49Z</time></trkpt><trkpt lat="46.08639160549853" lon="11.682936248164223"><ele>972.3333333333334</ele><time>2026-05-02T11:32:51Z</time></trkpt><trkpt lat="46.086390350330014" lon="11.68303139140757"><ele>965.5</ele><time>2026-05-02T11:32:52Z</time></trkpt><trkpt lat="46.08638884379923" lon="11.683138112683855"><ele>958.6666666666667</ele><time>2026-05-02T11:32:53Z</time></trkpt><trkpt lat="46.08637067649421" lon="11.683300065271888"><ele>951.8333333333334</ele><time>2026-05-02T11:32:55Z</time></trkpt><trkpt lat="46.08631178630591" lon="11.683402769883196"><ele>945.0</ele><time>2026-05-02T11:32:57Z</time></trkpt><trkpt lat="46.08623052143733" lon="11.683429753477165"><ele>945.0</ele><time>2026-05-02T11:32:59Z</time></trkpt><trkpt lat="46.0861454383836" lon="11.683419104506692"><ele>945.0</ele><time>2026-05-02T11:33:00Z</time></trkpt><trkpt lat="46.086054457137124" lon="11.683460957851564"><ele>945.0</ele><time>2026-05-02T11:33:02Z</time></trkpt><trkpt lat="46.085989211942625" lon="11.683586054878935"><ele>945.0</ele><time>2026-05-02T11:33:04Z</time></trkpt><trkpt lat="46.08594918065218" lon="11.683665581969617"><ele>945.0</ele><time>2026-05-02T11:33:05Z</time></trkpt><trkpt lat="46.08590309778762" lon="11.68373861853462"><ele>945.0</ele><time>2026-05-02T11:33:06Z</time></trkpt><trkpt lat="46.08580354810819" lon="11.683851159659536"><ele>942.5</ele><time>2026-05-02T11:33:08Z</time></trkpt><trkpt lat="46.085741845562055" lon="11.683901944192085"><ele>940.0</ele><time>2026-05-02T11:33:09Z</time></trkpt><trkpt lat="46.08567648657744" lon="11.683954686415545"><ele>937.5</ele><time>2026-05-02T11:33:10Z</time></trkpt><trkpt lat="46.08560655517697" lon="11.68401253508675"><ele>935.0</ele><time>2026-05-02T11:33:11Z</time></trkpt><trkpt lat="46.085533133429685" lon="11.684075527746453"><ele>932.5</ele><time>2026-05-02T11:33:12Z</time></trkpt><trkpt lat="46.085464898193656" lon="11.68413459354346"><ele>930.0</ele><time>2026-05-02T11:33:13Z</time></trkpt><trkpt lat="46.08539788379139" lon="11.68418395429614"><ele>930.0</ele><time>2026-05-02T11:33:14Z</time></trkpt><trkpt lat="46.085341907862336" lon="11.68423468443533"><ele>930.0</ele><time>2026-05-02T11:33:15Z</time></trkpt><trkpt lat="46.08527674887458" lon="11.68428864928629"><ele>930.0</ele><time>2026-05-02T11:33:16Z</time></trkpt><trkpt lat="46.085179338122295" lon="11.68441713914164"><ele>930.0</ele><time>2026-05-02T11:33:18Z</time></trkpt><trkpt lat="46.085127834507226" lon="11.684507053320127"><ele>930.0</ele><time>2026-05-02T11:33:19Z</time></trkpt><trkpt lat="46.085071308520426" lon="11.684608889246638"><ele>930.0</ele><time>2026-05-02T11:33:20Z</time></trkpt><trkpt lat="46.08501102268165" lon="11.684691552164852"><ele>931.8333333333334</ele><time>2026-05-02T11:33:21Z</time></trkpt><trkpt lat="46.08496460464499" lon="11.684773658974862"><ele>933.6666666666667</ele><time>2026-05-02T11:33:22Z</time></trkpt><trkpt lat="46.08491491478675" lon="11.684881450820441"><ele>935.5</ele><time>2026-05-02T11:33:23Z</time></trkpt><trkpt lat="46.084873569394404" lon="11.684985084226748"><ele>937.3333333333334</ele><time>2026-05-02T11:33:24Z</time></trkpt><trkpt lat="46.08482280733054" lon="11.68509946797689"><ele>939.1666666666667</ele><time>2026-05-02T11:33:25Z</time></trkpt><trkpt lat="46.084783343120904" lon="11.685224684410027"><ele>941.0</ele><time>2026-05-02T11:33:26Z</time></trkpt><trkpt lat="46.08475148345492" lon="11.68534811770318"><ele>947.8</ele><time>2026-05-02T11:33:27Z</time></trkpt><trkpt lat="46.084739514759626" lon="11.68544039389687"><ele>954.5999999999999</ele><time>2026-05-02T11:33:28Z</time></trkpt><trkpt lat="46.084681068962425" lon="11.685584908130362"><ele>961.4</ele><time>2026-05-02T11:33:30Z</time></trkpt><trkpt lat="46.084585143100234" lon="11.685659929739371"><ele>968.2</ele><time>2026-05-02T11:33:32Z</time></trkpt><trkpt lat="46.08448592069218" lon="11.685644225611302"><ele>975.0</ele><time>2026-05-02T11:33:34Z</time></trkpt><trkpt lat="46.084411927241106" lon="11.685538493818058"><ele>975.0</ele><time>2026-05-02T11:33:36Z</time></trkpt><trkpt lat="46.084351823351064" lon="11.685380673962129"><ele>975.0</ele><time>2026-05-02T11:33:38Z</time></trkpt><trkpt lat="46.08430665071695" lon="11.685292483817468"><ele>975.0</ele><time>2026-05-02T11:33:39Z</time></trkpt><trkpt lat="46.084247921171794" lon="11.685199458834665"><ele>975.0</ele><time>2026-05-02T11:33:41Z</time></trkpt><trkpt lat="46.08415541068231" lon="11.68518851732384"><ele>975.0</ele><time>2026-05-02T11:33:43.001Z</time></trkpt><trkpt lat="46.08408961822652" lon="11.685211918372309"><ele>975.0</ele><time>2026-05-02T11:33:44.001Z</time></trkpt><trkpt lat="46.084009561244734" lon="11.685246366512118"><ele>971.0</ele><time>2026-05-02T11:33:45.001Z</time></trkpt><trkpt lat="46.08395165704687" lon="11.685302861889234"><ele>967.0</ele><time>2026-05-02T11:33:46.001Z</time></trkpt><trkpt lat="46.08388478139131" lon="11.685371898388475"><ele>963.0</ele><time>2026-05-02T11:33:47.001Z</time></trkpt><trkpt lat="46.08381634819341" lon="11.685436597538082"><ele>959.0</ele><time>2026-05-02T11:33:48.001Z</time></trkpt><trkpt lat="46.08375152839591" lon="11.685520675641587"><ele>955.0</ele><time>2026-05-02T11:33:49.001Z</time></trkpt><trkpt lat="46.08368783290494" lon="11.68560328596263"><ele>951.0</ele><time>2026-05-02T11:33:50.001Z</time></trkpt><trkpt lat="46.08361933126098" lon="11.685671853761693"><ele>951.0</ele><time>2026-05-02T11:33:51.001Z</time></trkpt><trkpt lat="46.08355652273599" lon="11.685724318038673"><ele>951.0</ele><time>2026-05-02T11:33:52.001Z</time></trkpt><trkpt lat="46.08349878525428" lon="11.685772548715336"><ele>951.0</ele><time>2026-05-02T11:33:53.001Z</time></trkpt><trkpt lat="46.08342553175614" lon="11.685812598388416"><ele>951.0</ele><time>2026-05-02T11:33:54.001Z</time></trkpt><trkpt lat="46.08333720192748" lon="11.685843295077225"><ele>951.0</ele><time>2026-05-02T11:33:55.001Z</time></trkpt><trkpt lat="46.083247834839405" lon="11.685864153533847"><ele>951.0</ele><time>2026-05-02T11:33:56.001Z</time></trkpt><trkpt lat="46.083166911593786" lon="11.685892785273664"><ele>944.1666666666666</ele><time>2026-05-02T11:33:57.001Z</time></trkpt><trkpt lat="46.08307461794508" lon="11.685929390779648"><ele>937.3333333333333</ele><time>2026-05-02T11:33:58.001Z</time></trkpt><trkpt lat="46.08299197456696" lon="11.68595204385914"><ele>930.5</ele><time>2026-05-02T11:33:59.001Z</time></trkpt><trkpt lat="46.08291946836049" lon="11.685973364656078"><ele>923.6666666666666</ele><time>2026-05-02T11:34:00.001Z</time></trkpt><trkpt lat="46.08284408759311" lon="11.685957859373953"><ele>916.8333333333333</ele><time>2026-05-02T11:34:01.001Z</time></trkpt><trkpt lat="46.08276189436099" lon="11.685971891390386"><ele>910.0</ele><time>2026-05-02T11:34:02.001Z</time></trkpt><trkpt lat="46.08269131570417" lon="11.686018811380638"><ele>909.9999999999999</ele><time>2026-05-02T11:34:03.001Z</time></trkpt><trkpt lat="46.08262320984455" lon="11.686067694092005"><ele>910.0</ele><time>2026-05-02T11:34:04.001Z</time></trkpt><trkpt lat="46.08255086415362" lon="11.686127359520194"><ele>910.0</ele><time>2026-05-02T11:34:05.001Z</time></trkpt><trkpt lat="46.0824869066505" lon="11.686176274376768"><ele>910.0</ele><time>2026-05-02T11:34:06.001Z</time></trkpt><trkpt lat="46.08242853795409" lon="11.686308853696584"><ele>909.9999999999999</ele><time>2026-05-02T11:34:08.001Z</time></trkpt><trkpt lat="46.08240514651549" lon="11.686443668778137"><ele>910.0</ele><time>2026-05-02T11:34:10.001Z</time></trkpt><trkpt lat="46.08240311363102" lon="11.686553056788565"><ele>910.9999999999999</ele><time>2026-05-02T11:34:11.001Z</time></trkpt><trkpt lat="46.08242546070917" lon="11.6866583812797"><ele>912.0</ele><time>2026-05-02T11:34:12.001Z</time></trkpt><trkpt lat="46.08244551363411" lon="11.686755757237862"><ele>913.0</ele><time>2026-05-02T11:34:13.001Z</time></trkpt><trkpt lat="46.08244095643553" lon="11.686877269196403"><ele>914.0</ele><time>2026-05-02T11:34:15.001Z</time></trkpt><trkpt lat="46.082369281097996" lon="11.686963524700667"><ele>914.9999999999999</ele><time>2026-05-02T11:34:18.001Z</time></trkpt><trkpt lat="46.082262162844266" lon="11.686920465680487"><ele>916.0</ele><time>2026-05-02T11:34:21.001Z</time></trkpt><trkpt lat="46.082196981878525" lon="11.686883992641341"><ele>916.0</ele><time>2026-05-02T11:34:22.001Z</time></trkpt><trkpt lat="46.082120409149766" lon="11.686850545879553"><ele>915.9999999999999</ele><time>2026-05-02T11:34:23.001Z</time></trkpt><trkpt lat="46.081987634877926" lon="11.686850242492183"><ele>915.9999999999999</ele><time>2026-05-02T11:34:25.001Z</time></trkpt><trkpt lat="46.081896674916855" lon="11.686859032636105"><ele>916.0</ele><time>2026-05-02T11:34:26.001Z</time></trkpt><trkpt lat="46.08181745625017" lon="11.686836788880338"><ele>916.0</ele><time>2026-05-02T11:34:27.001Z</time></trkpt><trkpt lat="46.08175297906129" lon="11.68680901551172"><ele>915.9999999999999</ele><time>2026-05-02T11:34:28.001Z</time></trkpt><trkpt lat="46.08161782073405" lon="11.686781609374517"><ele>916.0</ele><time>2026-05-02T11:34:30.001Z</time></trkpt><trkpt lat="46.08153764139731" lon="11.686863851576362"><ele>916.0</ele><time>2026-05-02T11:34:32.001Z</time></trkpt><trkpt lat="46.08149729779518" lon="11.686940008017372"><ele>916.0</ele><time>2026-05-02T11:34:33.001Z</time></trkpt><trkpt lat="46.08146429989692" lon="11.687029430548048"><ele>915.9999999999999</ele><time>2026-05-02T11:34:33.999Z</time></trkpt><trkpt lat="46.081420031525404" lon="11.687104950995053"><ele>916.0</ele><time>2026-05-02T11:34:34.999Z</time></trkpt><trkpt lat="46.081365244774446" lon="11.687152257591464"><ele>921.9999999999999</ele><time>2026-05-02T11:34:35.999Z</time></trkpt><trkpt lat="46.08130851530789" lon="11.687205583040106"><ele>928.0</ele><time>2026-05-02T11:34:36.999Z</time></trkpt><trkpt lat="46.08124508289113" lon="11.687249738128028"><ele>934.0</ele><time>2026-05-02T11:34:37.999Z</time></trkpt><trkpt lat="46.081181485017694" lon="11.68726308327747"><ele>940.0</ele><time>2026-05-02T11:34:38.999Z</time></trkpt><trkpt lat="46.08111416211887" lon="11.687292235294295"><ele>945.9999999999999</ele><time>2026-05-02T11:34:39.999Z</time></trkpt><trkpt lat="46.08104991438678" lon="11.687296685564933"><ele>952.0</ele><time>2026-05-02T11:34:40.999Z</time></trkpt><trkpt lat="46.08092492647061" lon="11.687277858541044"><ele>952.0</ele><time>2026-05-02T11:34:42.999Z</time></trkpt><trkpt lat="46.08082551381464" lon="11.687214551548461"><ele>952.0</ele><time>2026-05-02T11:34:44.999Z</time></trkpt><trkpt lat="46.08076467378976" lon="11.687081673886686"><ele>952.0</ele><time>2026-05-02T11:34:46.999Z</time></trkpt><trkpt lat="46.080703650165034" lon="11.68695774938916"><ele>952.0</ele><time>2026-05-02T11:34:48.999Z</time></trkpt><trkpt lat="46.08061282159088" lon="11.686888179514778"><ele>952.0</ele><time>2026-05-02T11:34:50.999Z</time></trkpt><trkpt lat="46.08049932552247" lon="11.686901053829386"><ele>953.9999999999999</ele><time>2026-05-02T11:34:52.999Z</time></trkpt><trkpt lat="46.08039436970704" lon="11.686964954176423"><ele>956.0</ele><time>2026-05-02T11:34:54.999Z</time></trkpt><trkpt lat="46.08030153607435" lon="11.686991071576967"><ele>958.0</ele><time>2026-05-02T11:34:57Z</time></trkpt><trkpt lat="46.08022942856876" lon="11.687016909869163"><ele>960.0</ele><time>2026-05-02T11:35:01Z</time></trkpt><trkpt lat="46.08017127945771" lon="11.687058921054309"><ele>961.9999999999999</ele><time>2026-05-02T11:35:03Z</time></trkpt><trkpt lat="46.08009471855541" lon="11.687083802035081"><ele>964.0</ele><time>2026-05-02T11:35:05Z</time></trkpt><trkpt lat="46.080016611488524" lon="11.687110877288431"><ele>962.8000000000001</ele><time>2026-05-02T11:35:07Z</time></trkpt><trkpt lat="46.07993045792708" lon="11.68714258926681"><ele>961.6000000000001</ele><time>2026-05-02T11:35:09Z</time></trkpt><trkpt lat="46.079841181191554" lon="11.68713511507005"><ele>960.4</ele><time>2026-05-02T11:35:12Z</time></trkpt><trkpt lat="46.079785722240274" lon="11.687072990164062"><ele>959.2</ele><time>2026-05-02T11:35:14Z</time></trkpt><trkpt lat="46.07972704384437" lon="11.687018652358827"><ele>958.0</ele><time>2026-05-02T11:35:15Z</time></trkpt><trkpt lat="46.07960948941489" lon="11.686917576225625"><ele>951.0</ele><time>2026-05-02T11:35:17Z</time></trkpt><trkpt lat="46.07953499731397" lon="11.686848401568707"><ele>944.0</ele><time>2026-05-02T11:35:18Z</time></trkpt><trkpt lat="46.079459315141385" lon="11.686773886050736"><ele>937.0</ele><time>2026-05-02T11:35:19Z</time></trkpt><trkpt lat="46.079391083508526" lon="11.686714669585832"><ele>930.0</ele><time>2026-05-02T11:35:20Z</time></trkpt><trkpt lat="46.07928416445792" lon="11.68666693986414"><ele>923.0</ele><time>2026-05-02T11:35:22Z</time></trkpt><trkpt lat="46.079210029004834" lon="11.686539321303034"><ele>923.0</ele><time>2026-05-02T11:35:24Z</time></trkpt><trkpt lat="46.079177572186204" lon="11.686453816453662"><ele>923.0</ele><time>2026-05-02T11:35:25Z</time></trkpt><trkpt lat="46.07912068046886" lon="11.686335842206642"><ele>923.0</ele><time>2026-05-02T11:35:27Z</time></trkpt><trkpt lat="46.07902733420104" lon="11.686275759903955"><ele>923.0</ele><time>2026-05-02T11:35:29Z</time></trkpt><trkpt lat="46.07890869046018" lon="11.686219609481682"><ele>923.0</ele><time>2026-05-02T11:35:31Z</time></trkpt><trkpt lat="46.07882475317875" lon="11.686170810750227"><ele>919.1666666666667</ele><time>2026-05-02T11:35:33Z</time></trkpt><trkpt lat="46.07874540982874" lon="11.686152489704423"><ele>915.3333333333334</ele><time>2026-05-02T11:35:36Z</time></trkpt><trkpt lat="46.07866971393555" lon="11.686125768236758"><ele>911.5</ele><time>2026-05-02T11:35:38Z</time></trkpt><trkpt lat="46.078589492020285" lon="11.68616432883184"><ele>907.6666666666667</ele><time>2026-05-02T11:35:41Z</time></trkpt><trkpt lat="46.07851272781288" lon="11.68625554518752"><ele>903.8333333333334</ele><time>2026-05-02T11:35:43Z</time></trkpt><trkpt lat="46.07846138704086" lon="11.6863354265606"><ele>900.0</ele><time>2026-05-02T11:35:44Z</time></trkpt><trkpt lat="46.07841173642333" lon="11.686425422444074"><ele>900.0</ele><time>2026-05-02T11:35:45Z</time></trkpt><trkpt lat="46.07836330045735" lon="11.686520388978971"><ele>900.0</ele><time>2026-05-02T11:35:46Z</time></trkpt><trkpt lat="46.07830587273305" lon="11.686615126673804"><ele>900.0</ele><time>2026-05-02T11:35:47Z</time></trkpt><trkpt lat="46.0782415375646" lon="11.686701849754545"><ele>900.0</ele><time>2026-05-02T11:35:48Z</time></trkpt><trkpt lat="46.07817076557823" lon="11.68678599562116"><ele>900.0</ele><time>2026-05-02T11:35:49Z</time></trkpt><trkpt lat="46.078110540232004" lon="11.686860940743403"><ele>900.0</ele><time>2026-05-02T11:35:50Z</time></trkpt><trkpt lat="46.078052720726006" lon="11.686933668901421"><ele>898.1666666666666</ele><time>2026-05-02T11:35:51Z</time></trkpt><trkpt lat="46.0779944311456" lon="11.687000019361472"><ele>896.3333333333333</ele><time>2026-05-02T11:35:52Z</time></trkpt><trkpt lat="46.07794315709285" lon="11.687064235084092"><ele>894.5</ele><time>2026-05-02T11:35:53Z</time></trkpt><trkpt lat="46.07789579874199" lon="11.687132195119402"><ele>892.6666666666666</ele><time>2026-05-02T11:35:54Z</time></trkpt><trkpt lat="46.07784028467011" lon="11.687292048201746"><ele>890.8333333333333</ele><time>2026-05-02T11:35:56.001Z</time></trkpt><trkpt lat="46.07782758217702" lon="11.687407743269354"><ele>889.0</ele><time>2026-05-02T11:35:57.001Z</time></trkpt><trkpt lat="46.07780871065681" lon="11.687524352804312"><ele>889.0</ele><time>2026-05-02T11:35:58.001Z</time></trkpt><trkpt lat="46.07777093233624" lon="11.687680204932896"><ele>889.0000000000001</ele><time>2026-05-02T11:36:00.001Z</time></trkpt><trkpt lat="46.077686483882324" lon="11.687731613955703"><ele>889.0000000000001</ele><time>2026-05-02T11:36:02.001Z</time></trkpt><trkpt lat="46.07758941284715" lon="11.687694867368915"><ele>889.0</ele><time>2026-05-02T11:36:04.001Z</time></trkpt><trkpt lat="46.0775367908197" lon="11.68764146289535"><ele>889.0</ele><time>2026-05-02T11:36:05.001Z</time></trkpt><trkpt lat="46.07745516732961" lon="11.687480816707849"><ele>889.6666666666666</ele><time>2026-05-02T11:36:07.001Z</time></trkpt><trkpt lat="46.07740589545813" lon="11.687389804319285"><ele>890.3333333333333</ele><time>2026-05-02T11:36:08.001Z</time></trkpt><trkpt lat="46.0773542327139" lon="11.68732872326887"><ele>891.0</ele><time>2026-05-02T11:36:09.001Z</time></trkpt><trkpt lat="46.07729916375249" lon="11.687283487535831"><ele>891.6666666666667</ele><time>2026-05-02T11:36:10.001Z</time></trkpt><trkpt lat="46.07719112905411" lon="11.687305077850418"><ele>892.3333333333334</ele><time>2026-05-02T11:36:12.001Z</time></trkpt><trkpt lat="46.07711995159951" lon="11.687353098933752"><ele>893.0</ele><time>2026-05-02T11:36:13.001Z</time></trkpt><trkpt lat="46.07703632284721" lon="11.687403547262647"><ele>893.0</ele><time>2026-05-02T11:36:14.001Z</time></trkpt><trkpt lat="46.07693305880064" lon="11.687460306439855"><ele>893.0</ele><time>2026-05-02T11:36:15.001Z</time></trkpt><trkpt lat="46.07683057466933" lon="11.687516759170988"><ele>893.0</ele><time>2026-05-02T11:36:16.001Z</time></trkpt><trkpt lat="46.07674545705673" lon="11.687558277970703"><ele>893.0</ele><time>2026-05-02T11:36:17.001Z</time></trkpt><trkpt lat="46.07666183318963" lon="11.687605145086275"><ele>893.0</ele><time>2026-05-02T11:36:18.001Z</time></trkpt><trkpt lat="46.07659581829121" lon="11.687639649454018"><ele>899.5999999999999</ele><time>2026-05-02T11:36:19.001Z</time></trkpt><trkpt lat="46.07653213005507" lon="11.687649166970951"><ele>906.1999999999999</ele><time>2026-05-02T11:36:20.001Z</time></trkpt><trkpt lat="46.07643334770746" lon="11.68762246288474"><ele>912.8</ele><time>2026-05-02T11:36:22.001Z</time></trkpt><trkpt lat="46.07634670343552" lon="11.687535159742877"><ele>919.4</ele><time>2026-05-02T11:36:24.001Z</time></trkpt><trkpt lat="46.076296352237904" lon="11.687373771481422"><ele>926.0</ele><time>2026-05-02T11:36:26.001Z</time></trkpt><trkpt lat="46.076267703295564" lon="11.687272620191177"><ele>926.0000000000001</ele><time>2026-05-02T11:36:27.001Z</time></trkpt><trkpt lat="46.07622718193991" lon="11.687167894726253"><ele>926.0</ele><time>2026-05-02T11:36:28.001Z</time></trkpt><trkpt lat="46.07621252153387" lon="11.687049744381392"><ele>926.0</ele><time>2026-05-02T11:36:29.001Z</time></trkpt><trkpt lat="46.07620723775218" lon="11.68693498078555"><ele>926.0</ele><time>2026-05-02T11:36:30.001Z</time></trkpt><trkpt lat="46.07619347676656" lon="11.686821875175468"><ele>926.0000000000001</ele><time>2026-05-02T11:36:31.001Z</time></trkpt><trkpt lat="46.07618539696478" lon="11.686723350434681"><ele>926.0</ele><time>2026-05-02T11:36:32.001Z</time></trkpt><trkpt lat="46.07617402941342" lon="11.686632157002949"><ele>917.8</ele><time>2026-05-02T11:36:33.001Z</time></trkpt><trkpt lat="46.07608990611504" lon="11.686523374163794"><ele>909.5999999999999</ele><time>2026-05-02T11:36:35.001Z</time></trkpt><trkpt lat="46.07602672194076" lon="11.68651434945552"><ele>901.4</ele><time>2026-05-02T11:36:36.001Z</time></trkpt><trkpt lat="46.075949332115016" lon="11.68651230224733"><ele>893.2</ele><time>2026-05-02T11:36:37.001Z</time></trkpt><trkpt lat="46.07585845508307" lon="11.686539607838311"><ele>885.0</ele><time>2026-05-02T11:36:38.001Z</time></trkpt><trkpt lat="46.0757555929456" lon="11.686586877589098"><ele>883.8333333333334</ele><time>2026-05-02T11:36:39.001Z</time></trkpt><trkpt lat="46.07565041167848" lon="11.686633320747"><ele>882.6666666666667</ele><time>2026-05-02T11:36:39.999Z</time></trkpt><trkpt lat="46.07555590527851" lon="11.686659920329204"><ele>881.5</ele><time>2026-05-02T11:36:40.999Z</time></trkpt><trkpt lat="46.075473942407044" lon="11.686677802713868"><ele>880.3333333333334</ele><time>2026-05-02T11:36:41.999Z</time></trkpt><trkpt lat="46.075394064929185" lon="11.686689770842934"><ele>879.1666666666667</ele><time>2026-05-02T11:36:42.999Z</time></trkpt><trkpt lat="46.07531739300291" lon="11.686714872960723"><ele>878.0</ele><time>2026-05-02T11:36:43.999Z</time></trkpt><trkpt lat="46.075248557024" lon="11.68673592940763"><ele>878.0000000000001</ele><time>2026-05-02T11:36:44.999Z</time></trkpt><trkpt lat="46.07518297143878" lon="11.686759993013677"><ele>878.0</ele><time>2026-05-02T11:36:45.999Z</time></trkpt><trkpt lat="46.07506777136174" lon="11.68676771059248"><ele>878.0</ele><time>2026-05-02T11:36:47.999Z</time></trkpt><trkpt lat="46.07500195491154" lon="11.686712205145895"><ele>878.0</ele><time>2026-05-02T11:36:48.999Z</time></trkpt><trkpt lat="46.07494500929673" lon="11.686666352976436"><ele>878.0000000000001</ele><time>2026-05-02T11:36:49.999Z</time></trkpt><trkpt lat="46.074876089224986" lon="11.68660946626143"><ele>878.0</ele><time>2026-05-02T11:36:50.999Z</time></trkpt><trkpt lat="46.07480941111421" lon="11.686587840619675"><ele>876.8</ele><time>2026-05-02T11:36:51.999Z</time></trkpt><trkpt lat="46.07472107114026" lon="11.686601204867177"><ele>875.5999999999999</ele><time>2026-05-02T11:36:52.999Z</time></trkpt><trkpt lat="46.07462338821823" lon="11.686612770951475"><ele>874.4000000000001</ele><time>2026-05-02T11:36:53.999Z</time></trkpt><trkpt lat="46.07452150918229" lon="11.68664213898127"><ele>873.2</ele><time>2026-05-02T11:36:55Z</time></trkpt><trkpt lat="46.074423331532934" lon="11.68668960015284"><ele>872.0</ele><time>2026-05-02T11:36:56Z</time></trkpt><trkpt lat="46.07433255556193" lon="11.686721255054648"><ele>872.0000000000001</ele><time>2026-05-02T11:36:57Z</time></trkpt><trkpt lat="46.07425318228538" lon="11.68673894787238"><ele>872.0</ele><time>2026-05-02T11:36:58Z</time></trkpt><trkpt lat="46.074165650365636" lon="11.686719829350967"><ele>872.0</ele><time>2026-05-02T11:36:59Z</time></trkpt><trkpt lat="46.0740778548431" lon="11.686700731547035"><ele>872.0</ele><time>2026-05-02T11:37:00Z</time></trkpt><trkpt lat="46.074004761261534" lon="11.686675349263595"><ele>872.0000000000001</ele><time>2026-05-02T11:37:01Z</time></trkpt><trkpt lat="46.07394368055638" lon="11.686649650588372"><ele>872.0</ele><time>2026-05-02T11:37:02Z</time></trkpt><trkpt lat="46.07386143373547" lon="11.686652986712135"><ele>871.0</ele><time>2026-05-02T11:37:03Z</time></trkpt><trkpt lat="46.073749496611505" lon="11.68671518993663"><ele>870.0</ele><time>2026-05-02T11:37:05Z</time></trkpt><trkpt lat="46.073655942204674" lon="11.686836922167748"><ele>869.0</ele><time>2026-05-02T11:37:07Z</time></trkpt><trkpt lat="46.07362538351152" lon="11.686929409188057"><ele>868.0</ele><time>2026-05-02T11:37:08Z</time></trkpt><trkpt lat="46.07361018974775" lon="11.687025963500187"><ele>867.0</ele><time>2026-05-02T11:37:09Z</time></trkpt><trkpt lat="46.07360951963048" lon="11.687142807251751"><ele>867.0</ele><time>2026-05-02T11:37:10Z</time></trkpt><trkpt lat="46.073619585618474" lon="11.68727447993851"><ele>867.0</ele><time>2026-05-02T11:37:11Z</time></trkpt><trkpt lat="46.07362542888001" lon="11.687391299596168"><ele>867.0</ele><time>2026-05-02T11:37:12Z</time></trkpt><trkpt lat="46.07361176066565" lon="11.68750355923348"><ele>867.0</ele><time>2026-05-02T11:37:13Z</time></trkpt><trkpt lat="46.07358352119551" lon="11.687628217531635"><ele>867.0</ele><time>2026-05-02T11:37:14Z</time></trkpt><trkpt lat="46.07354632261577" lon="11.687754985876914"><ele>867.0</ele><time>2026-05-02T11:37:15Z</time></trkpt><trkpt lat="46.073505670111146" lon="11.687881096088104"><ele>869.8333333333334</ele><time>2026-05-02T11:37:16Z</time></trkpt><trkpt lat="46.07345862773385" lon="11.688009624807165"><ele>872.6666666666667</ele><time>2026-05-02T11:37:17Z</time></trkpt><trkpt lat="46.07341120256887" lon="11.688118575298928"><ele>875.5</ele><time>2026-05-02T11:37:18Z</time></trkpt><trkpt lat="46.07337479190851" lon="11.688223063235181"><ele>878.3333333333334</ele><time>2026-05-02T11:37:19Z</time></trkpt><trkpt lat="46.0733424328389" lon="11.688310237580453"><ele>881.1666666666667</ele><time>2026-05-02T11:37:20Z</time></trkpt><trkpt lat="46.07330219187605" lon="11.688391275863998"><ele>884.0</ele><time>2026-05-02T11:37:21Z</time></trkpt><trkpt lat="46.07319009678395" lon="11.688444390257123"><ele>888.4000000000001</ele><time>2026-05-02T11:37:23Z</time></trkpt><trkpt lat="46.0730883981562" lon="11.688407988762245"><ele>892.8000000000001</ele><time>2026-05-02T11:37:25Z</time></trkpt><trkpt lat="46.07303253819612" lon="11.68835115212298"><ele>897.1999999999999</ele><time>2026-05-02T11:37:26Z</time></trkpt><trkpt lat="46.07296199550627" lon="11.688288101317852"><ele>901.5999999999999</ele><time>2026-05-02T11:37:27Z</time></trkpt><trkpt lat="46.07290778021907" lon="11.688185343781065"><ele>906.0</ele><time>2026-05-02T11:37:28Z</time></trkpt><trkpt lat="46.07281273494374" lon="11.688100071507256"><ele>906.0</ele><time>2026-05-02T11:37:29Z</time></trkpt><trkpt lat="46.072725343472214" lon="11.688007355973191"><ele>905.9999999999999</ele><time>2026-05-02T11:37:30Z</time></trkpt><trkpt lat="46.07265320132961" lon="11.687917963743011"><ele>905.9999999999999</ele><time>2026-05-02T11:37:31Z</time></trkpt><trkpt lat="46.072586751350656" lon="11.687839773813243"><ele>906.0</ele><time>2026-05-02T11:37:32Z</time></trkpt><trkpt lat="46.07250338422978" lon="11.687745904240535"><ele>906.0</ele><time>2026-05-02T11:37:33Z</time></trkpt><trkpt lat="46.072434951361586" lon="11.687660508467708"><ele>898.0</ele><time>2026-05-02T11:37:34Z</time></trkpt><trkpt lat="46.072381844861795" lon="11.687580491891781"><ele>889.9999999999999</ele><time>2026-05-02T11:37:35Z</time></trkpt><trkpt lat="46.072327572211236" lon="11.687503704299369"><ele>881.9999999999999</ele><time>2026-05-02T11:37:36Z</time></trkpt><trkpt lat="46.07222840014688" lon="11.687394333094748"><ele>874.0</ele><time>2026-05-02T11:37:38Z</time></trkpt><trkpt lat="46.072163092769784" lon="11.687355998208025"><ele>866.0</ele><time>2026-05-02T11:37:39Z</time></trkpt><trkpt lat="46.07206285805885" lon="11.687404057211275"><ele>866.0000000000001</ele><time>2026-05-02T11:37:41Z</time></trkpt><trkpt lat="46.07198582587678" lon="11.687451296893748"><ele>866.0</ele><time>2026-05-02T11:37:42Z</time></trkpt><trkpt lat="46.07190580984038" lon="11.687511083505846"><ele>866.0</ele><time>2026-05-02T11:37:43Z</time></trkpt><trkpt lat="46.071826605803274" lon="11.687577163367326"><ele>866.0</ele><time>2026-05-02T11:37:44Z</time></trkpt><trkpt lat="46.07174262935027" lon="11.687626614890904"><ele>866.0000000000001</ele><time>2026-05-02T11:37:45Z</time></trkpt><trkpt lat="46.071657364148905" lon="11.687666250812418"><ele>866.0</ele><time>2026-05-02T11:37:46.001Z</time></trkpt><trkpt lat="46.07154457235653" lon="11.687707593610982"><ele>866.5</ele><time>2026-05-02T11:37:47.001Z</time></trkpt><trkpt lat="46.0714114240137" lon="11.68775855559917"><ele>867.0</ele><time>2026-05-02T11:37:48.001Z</time></trkpt><trkpt lat="46.07128581362947" lon="11.687782128063894"><ele>867.5</ele><time>2026-05-02T11:37:49.001Z</time></trkpt><trkpt lat="46.07118328129655" lon="11.687798948123623"><ele>868.0</ele><time>2026-05-02T11:37:50.001Z</time></trkpt><trkpt lat="46.071097770888166" lon="11.687827578419798"><ele>867.9999999999999</ele><time>2026-05-02T11:37:51.001Z</time></trkpt><trkpt lat="46.07101233847387" lon="11.687864641687804"><ele>868.0</ele><time>2026-05-02T11:37:52.001Z</time></trkpt><trkpt lat="46.07095281003586" lon="11.687920010269327"><ele>868.0</ele><time>2026-05-02T11:37:53.001Z</time></trkpt><trkpt lat="46.07091281695035" lon="11.688013503569046"><ele>868.0</ele><time>2026-05-02T11:37:54.001Z</time></trkpt><trkpt lat="46.070847772948134" lon="11.688109885361628"><ele>867.9999999999999</ele><time>2026-05-02T11:37:55.001Z</time></trkpt><trkpt lat="46.070795938355936" lon="11.688237910085011"><ele>868.0</ele><time>2026-05-02T11:37:56.001Z</time></trkpt><trkpt lat="46.070716455982094" lon="11.688363808379073"><ele>868.5999999999999</ele><time>2026-05-02T11:37:57.001Z</time></trkpt><trkpt lat="46.070650164770676" lon="11.688490522758837"><ele>869.1999999999999</ele><time>2026-05-02T11:37:58.001Z</time></trkpt><trkpt lat="46.07058194033223" lon="11.688601217603724"><ele>869.8</ele><time>2026-05-02T11:37:59.001Z</time></trkpt><trkpt lat="46.070523621089926" lon="11.688702992539477"><ele>870.4</ele><time>2026-05-02T11:38:00.001Z</time></trkpt><trkpt lat="46.07048301052811" lon="11.68881096366384"><ele>871.0</ele><time>2026-05-02T11:38:01.001Z</time></trkpt><trkpt lat="46.070453370318" lon="11.688929532734472"><ele>871.0</ele><time>2026-05-02T11:38:02.001Z</time></trkpt><trkpt lat="46.070435587902075" lon="11.689034654224969"><ele>870.9999999999999</ele><time>2026-05-02T11:38:03.001Z</time></trkpt><trkpt lat="46.070393092771724" lon="11.689183572608458"><ele>870.9999999999999</ele><time>2026-05-02T11:38:05.001Z</time></trkpt><trkpt lat="46.07029326552369" lon="11.689230843171245"><ele>871.0</ele><time>2026-05-02T11:38:07.001Z</time></trkpt><trkpt lat="46.070176718691464" lon="11.689175454727245"><ele>871.0</ele><time>2026-05-02T11:38:09.001Z</time></trkpt><trkpt lat="46.07012761253139" lon="11.689116815751898"><ele>870.9999999999999</ele><time>2026-05-02T11:38:10.001Z</time></trkpt><trkpt lat="46.07002410078018" lon="11.689086044903831"><ele>871.0</ele><time>2026-05-02T11:38:12.001Z</time></trkpt><trkpt lat="46.06995501392588" lon="11.689117945573548"><ele>871.0</ele><time>2026-05-02T11:38:13.001Z</time></trkpt><trkpt lat="46.069880373246754" lon="11.689141328766153"><ele>871.0</ele><time>2026-05-02T11:38:14.001Z</time></trkpt><trkpt lat="46.06980032669138" lon="11.689128678311"><ele>870.9999999999999</ele><time>2026-05-02T11:38:15.001Z</time></trkpt><trkpt lat="46.06973899112255" lon="11.689097370344514"><ele>871.0</ele><time>2026-05-02T11:38:16.001Z</time></trkpt><trkpt lat="46.06968219551111" lon="11.689043936667353"><ele>869.6666666666666</ele><time>2026-05-02T11:38:17.001Z</time></trkpt><trkpt lat="46.06961189491794" lon="11.688998703680387"><ele>868.3333333333333</ele><time>2026-05-02T11:38:18.001Z</time></trkpt><trkpt lat="46.06954407690096" lon="11.688979204455542"><ele>867.0</ele><time>2026-05-02T11:38:19.001Z</time></trkpt><trkpt lat="46.06942787348143" lon="11.689037770092474"><ele>865.6666666666667</ele><time>2026-05-02T11:38:21.001Z</time></trkpt><trkpt lat="46.06936800214009" lon="11.689102989946793"><ele>864.3333333333334</ele><time>2026-05-02T11:38:22.001Z</time></trkpt><trkpt lat="46.06929851774828" lon="11.689185443375434"><ele>863.0</ele><time>2026-05-02T11:38:23.001Z</time></trkpt><trkpt lat="46.069233560333345" lon="11.68925529541417"><ele>863.0000000000001</ele><time>2026-05-02T11:38:24.001Z</time></trkpt><trkpt lat="46.069161637117084" lon="11.689299450324143"><ele>863.0</ele><time>2026-05-02T11:38:25.001Z</time></trkpt><trkpt lat="46.06909041822577" lon="11.68931451538413"><ele>863.0</ele><time>2026-05-02T11:38:26.001Z</time></trkpt><trkpt lat="46.06902403173275" lon="11.689289035190221"><ele>863.0</ele><time>2026-05-02T11:38:27.001Z</time></trkpt><trkpt lat="46.06894780636497" lon="11.68923440423184"><ele>863.0000000000001</ele><time>2026-05-02T11:38:28.001Z</time></trkpt><trkpt lat="46.06888477224596" lon="11.689177285593768"><ele>863.0</ele><time>2026-05-02T11:38:29.001Z</time></trkpt><trkpt lat="46.06880689435998" lon="11.689144737037019"><ele>864.4</ele><time>2026-05-02T11:38:30.001Z</time></trkpt><trkpt lat="46.06871480271537" lon="11.689135650403092"><ele>865.8</ele><time>2026-05-02T11:38:31.001Z</time></trkpt><trkpt lat="46.06861549121814" lon="11.689127026300959"><ele>867.2</ele><time>2026-05-02T11:38:32.001Z</time></trkpt><trkpt lat="46.06851767527988" lon="11.68909185623852"><ele>868.6</ele><time>2026-05-02T11:38:33.001Z</time></trkpt><trkpt lat="46.06842474554583" lon="11.689063272875437"><ele>870.0</ele><time>2026-05-02T11:38:34.001Z</time></trkpt><trkpt lat="46.06832400977799" lon="11.689057770146238"><ele>869.0</ele><time>2026-05-02T11:38:35.001Z</time></trkpt><trkpt lat="46.068222228035246" lon="11.689077123140015"><ele>868.0</ele><time>2026-05-02T11:38:36.001Z</time></trkpt><trkpt lat="46.06810767909411" lon="11.689084292500219"><ele>867.0</ele><time>2026-05-02T11:38:37.001Z</time></trkpt><trkpt lat="46.067996717744414" lon="11.689091807375"><ele>866.0</ele><time>2026-05-02T11:38:38.001Z</time></trkpt><trkpt lat="46.06788385963558" lon="11.689108689838042"><ele>865.0</ele><time>2026-05-02T11:38:39.001Z</time></trkpt><trkpt lat="46.06777758002466" lon="11.689121063870104"><ele>865.0</ele><time>2026-05-02T11:38:40.001Z</time></trkpt><trkpt lat="46.06769012213009" lon="11.689118648385927"><ele>865.0</ele><time>2026-05-02T11:38:41.001Z</time></trkpt><trkpt lat="46.06760003235659" lon="11.689089326023986"><ele>865.0</ele><time>2026-05-02T11:38:42.001Z</time></trkpt><trkpt lat="46.067520655121754" lon="11.689061336152982"><ele>865.0</ele><time>2026-05-02T11:38:43.001Z</time></trkpt><trkpt lat="46.067449741087245" lon="11.689049382874257"><ele>865.0</ele><time>2026-05-02T11:38:44.001Z</time></trkpt><trkpt lat="46.06733658857656" lon="11.689126544573524"><ele>866.9999999999999</ele><time>2026-05-02T11:38:46Z</time></trkpt><trkpt lat="46.067286721893275" lon="11.689214320776763"><ele>869.0</ele><time>2026-05-02T11:38:47Z</time></trkpt><trkpt lat="46.067239662055925" lon="11.68931238889598"><ele>871.0</ele><time>2026-05-02T11:38:48Z</time></trkpt><trkpt lat="46.067197146464096" lon="11.689409334924628"><ele>873.0</ele><time>2026-05-02T11:38:49Z</time></trkpt><trkpt lat="46.06716485276547" lon="11.689490008142158"><ele>874.9999999999999</ele><time>2026-05-02T11:38:50Z</time></trkpt><trkpt lat="46.067073839407925" lon="11.689536394880209"><ele>877.0</ele><time>2026-05-02T11:38:52Z</time></trkpt><trkpt lat="46.06697619638368" lon="11.689446946447882"><ele>876.9999999999999</ele><time>2026-05-02T11:38:54Z</time></trkpt><trkpt lat="46.06693710645555" lon="11.68937400049626"><ele>877.0</ele><time>2026-05-02T11:38:55Z</time></trkpt><trkpt lat="46.06690713965496" lon="11.689285359462646"><ele>877.0</ele><time>2026-05-02T11:38:56Z</time></trkpt><trkpt lat="46.06688532762746" lon="11.689187580461418"><ele>877.0</ele><time>2026-05-02T11:38:57Z</time></trkpt><trkpt lat="46.06685666886635" lon="11.689071749337632"><ele>876.9999999999999</ele><time>2026-05-02T11:38:58Z</time></trkpt><trkpt lat="46.06680927850853" lon="11.688948590445971"><ele>877.0</ele><time>2026-05-02T11:38:59Z</time></trkpt><trkpt lat="46.06673917906097" lon="11.688825374595154"><ele>877.0</ele><time>2026-05-02T11:39:00Z</time></trkpt><trkpt lat="46.06666086960355" lon="11.688717941527347"><ele>877.0</ele><time>2026-05-02T11:39:01Z</time></trkpt><trkpt lat="46.06660155574832" lon="11.6886125446359"><ele>877.0</ele><time>2026-05-02T11:39:02Z</time></trkpt><trkpt lat="46.066552198277776" lon="11.688518060016962"><ele>877.0</ele><time>2026-05-02T11:39:03Z</time></trkpt><trkpt lat="46.066509761446355" lon="11.688428063629775"><ele>877.0</ele><time>2026-05-02T11:39:04Z</time></trkpt><trkpt lat="46.06642506942195" lon="11.688323586897672"><ele>870.4999999999999</ele><time>2026-05-02T11:39:06Z</time></trkpt><trkpt lat="46.06636097628852" lon="11.688308193017829"><ele>864.0</ele><time>2026-05-02T11:39:07Z</time></trkpt><trkpt lat="46.06629457614409" lon="11.688319313408362"><ele>857.5</ele><time>2026-05-02T11:39:08Z</time></trkpt><trkpt lat="46.06618786963852" lon="11.688423477318853"><ele>851.0</ele><time>2026-05-02T11:39:10Z</time></trkpt><trkpt lat="46.06612472766652" lon="11.688476285244016"><ele>844.4999999999999</ele><time>2026-05-02T11:39:11Z</time></trkpt><trkpt lat="46.066059240903535" lon="11.68850854294994"><ele>838.0</ele><time>2026-05-02T11:39:12Z</time></trkpt><trkpt lat="46.065955832017835" lon="11.68853048889774"><ele>838.0</ele><time>2026-05-02T11:39:14Z</time></trkpt><trkpt lat="46.06586394048335" lon="11.688518748745697"><ele>838.0</ele><time>2026-05-02T11:39:15Z</time></trkpt><trkpt lat="46.06577641891865" lon="11.688491653015504"><ele>838.0</ele><time>2026-05-02T11:39:16Z</time></trkpt><trkpt lat="46.06570266567499" lon="11.688482851389367"><ele>838.0</ele><time>2026-05-02T11:39:17Z</time></trkpt><trkpt lat="46.065576572981676" lon="11.688523784987487"><ele>838.0</ele><time>2026-05-02T11:39:19Z</time></trkpt><trkpt lat="46.06551167829753" lon="11.688648810043901"><ele>837.8333333333333</ele><time>2026-05-02T11:39:21Z</time></trkpt><trkpt lat="46.065501987077084" lon="11.688837819520325"><ele>837.6666666666666</ele><time>2026-05-02T11:39:23Z</time></trkpt><trkpt lat="46.065507164235036" lon="11.688947968492753"><ele>837.5</ele><time>2026-05-02T11:39:24Z</time></trkpt><trkpt lat="46.06549881393087" lon="11.689054038923175"><ele>837.3333333333333</ele><time>2026-05-02T11:39:25Z</time></trkpt><trkpt lat="46.06546516423354" lon="11.6891547388162"><ele>837.1666666666666</ele><time>2026-05-02T11:39:26Z</time></trkpt><trkpt lat="46.06542005118857" lon="11.689261050876835"><ele>837.0</ele><time>2026-05-02T11:39:27Z</time></trkpt><trkpt lat="46.065358545083065" lon="11.689349262169547"><ele>837.0</ele><time>2026-05-02T11:39:28Z</time></trkpt><trkpt lat="46.065286017626605" lon="11.68942479241597"><ele>837.0</ele><time>2026-05-02T11:39:29Z</time></trkpt><trkpt lat="46.06522790551535" lon="11.689495915918183"><ele>837.0</ele><time>2026-05-02T11:39:30Z</time></trkpt><trkpt lat="46.065167418789834" lon="11.68956132438541"><ele>837.0</ele><time>2026-05-02T11:39:31Z</time></trkpt><trkpt lat="46.06509439904507" lon="11.689590496202078"><ele>837.0</ele><time>2026-05-02T11:39:32Z</time></trkpt><trkpt lat="46.06501125279153" lon="11.689712825561946"><ele>837.0</ele><time>2026-05-02T11:39:34Z</time></trkpt><trkpt lat="46.06500354378422" lon="11.689817432199371"><ele>839.6666666666666</ele><time>2026-05-02T11:39:35Z</time></trkpt><trkpt lat="46.06501638181592" lon="11.689958285274384"><ele>842.3333333333333</ele><time>2026-05-02T11:39:36Z</time></trkpt><trkpt lat="46.06502568809575" lon="11.690108128552755"><ele>845.0</ele><time>2026-05-02T11:39:37Z</time></trkpt><trkpt lat="46.0650229584019" lon="11.690230231367977"><ele>847.6666666666666</ele><time>2026-05-02T11:39:38Z</time></trkpt><trkpt lat="46.065007313661106" lon="11.690336052359697"><ele>850.3333333333333</ele><time>2026-05-02T11:39:39Z</time></trkpt><trkpt lat="46.06498696000298" lon="11.69043430645412"><ele>853.0</ele><time>2026-05-02T11:39:40.001Z</time></trkpt><trkpt lat="46.064943418633256" lon="11.690528118197726"><ele>846.5999999999999</ele><time>2026-05-02T11:39:41.001Z</time></trkpt><trkpt lat="46.06488562797743" lon="11.69061533552546"><ele>840.1999999999999</ele><time>2026-05-02T11:39:42.001Z</time></trkpt><trkpt lat="46.064806083676" lon="11.690688824630422"><ele>833.8</ele><time>2026-05-02T11:39:43.001Z</time></trkpt><trkpt lat="46.06471551457371" lon="11.690741794378043"><ele>827.4</ele><time>2026-05-02T11:39:44.001Z</time></trkpt><trkpt lat="46.06463280622911" lon="11.69081143125432"><ele>821.0</ele><time>2026-05-02T11:39:45.001Z</time></trkpt><trkpt lat="46.06456668450575" lon="11.690882548599893"><ele>821.0</ele><time>2026-05-02T11:39:46.001Z</time></trkpt><trkpt lat="46.06451096089669" lon="11.69099459904061"><ele>821.0</ele><time>2026-05-02T11:39:47.001Z</time></trkpt><trkpt lat="46.0644524167106" lon="11.691110935894491"><ele>821.0</ele><time>2026-05-02T11:39:48.001Z</time></trkpt><trkpt lat="46.064385765515674" lon="11.691220682261863"><ele>821.0</ele><time>2026-05-02T11:39:49.001Z</time></trkpt><trkpt lat="46.064309461256485" lon="11.691335434811895"><ele>821.0</ele><time>2026-05-02T11:39:50.001Z</time></trkpt><trkpt lat="46.06425702093553" lon="11.691448811609684"><ele>821.0000000000001</ele><time>2026-05-02T11:39:51.001Z</time></trkpt><trkpt lat="46.06421465433902" lon="11.69155683477646"><ele>821.0</ele><time>2026-05-02T11:39:52.001Z</time></trkpt><trkpt lat="46.064170556009266" lon="11.691637017035884"><ele>821.0</ele><time>2026-05-02T11:39:53.001Z</time></trkpt><trkpt lat="46.064120012254634" lon="11.691700285184348"><ele>821.0</ele><time>2026-05-02T11:39:54.001Z</time></trkpt><trkpt lat="46.064067573263046" lon="11.691754262856696"><ele>821.0</ele><time>2026-05-02T11:39:55.001Z</time></trkpt><trkpt lat="46.06400304216119" lon="11.691801635792189"><ele>821.0000000000001</ele><time>2026-05-02T11:39:56.001Z</time></trkpt><trkpt lat="46.063921581069884" lon="11.691836574604785"><ele>821.0</ele><time>2026-05-02T11:39:57.001Z</time></trkpt><trkpt lat="46.06385631507423" lon="11.691858778473607"><ele>821.0</ele><time>2026-05-02T11:39:58.001Z</time></trkpt><trkpt lat="46.063741308045344" lon="11.69190306762499"><ele>821.0</ele><time>2026-05-02T11:40:00.001Z</time></trkpt><trkpt lat="46.06370128118617" lon="11.692026111582459"><ele>821.0</ele><time>2026-05-02T11:40:02.001Z</time></trkpt><trkpt lat="46.06372263449011" lon="11.692112971548475"><ele>821.0</ele><time>2026-05-02T11:40:03.001Z</time></trkpt><trkpt lat="46.06376087915099" lon="11.69220481239454"><ele>821.0</ele><time>2026-05-02T11:40:04.001Z</time></trkpt><trkpt lat="46.063812563509146" lon="11.692339853583851"><ele>821.0</ele><time>2026-05-02T11:40:05.001Z</time></trkpt><trkpt lat="46.06387063792438" lon="11.692487805558546"><ele>821.0</ele><time>2026-05-02T11:40:06.001Z</time></trkpt><trkpt lat="46.06392409432043" lon="11.692639373679043"><ele>821.0</ele><time>2026-05-02T11:40:07.001Z</time></trkpt><trkpt lat="46.0639685563832" lon="11.692765503442201"><ele>821.0</ele><time>2026-05-02T11:40:08.001Z</time></trkpt><trkpt lat="46.06401122594175" lon="11.692893593296171"><ele>821.0</ele><time>2026-05-02T11:40:09.001Z</time></trkpt><trkpt lat="46.06406165076782" lon="11.693022075303375"><ele>821.0000000000001</ele><time>2026-05-02T11:40:10.001Z</time></trkpt><trkpt lat="46.06411063519216" lon="11.693121406381707"><ele>821.0</ele><time>2026-05-02T11:40:11.001Z</time></trkpt><trkpt lat="46.06415660639874" lon="11.693204735013413"><ele>821.0</ele><time>2026-05-02T11:40:12.001Z</time></trkpt><trkpt lat="46.06420043894186" lon="11.693289665524402"><ele>821.0</ele><time>2026-05-02T11:40:13.001Z</time></trkpt><trkpt lat="46.06424543448161" lon="11.693379582762091"><ele>821.0000000000001</ele><time>2026-05-02T11:40:14.001Z</time></trkpt><trkpt lat="46.064269505230236" lon="11.693538357870539"><ele>821.0</ele><time>2026-05-02T11:40:16.001Z</time></trkpt><trkpt lat="46.064261884261775" lon="11.693718597971236"><ele>821.0</ele><time>2026-05-02T11:40:18.001Z</time></trkpt><trkpt lat="46.064237605897816" lon="11.693830945147345"><ele>821.0</ele><time>2026-05-02T11:40:19.001Z</time></trkpt><trkpt lat="46.06420637376113" lon="11.693950995018492"><ele>821.0</ele><time>2026-05-02T11:40:20.001Z</time></trkpt><trkpt lat="46.064186472445996" lon="11.694086170431897"><ele>821.0</ele><time>2026-05-02T11:40:21.001Z</time></trkpt><trkpt lat="46.064173239074904" lon="11.694222946646464"><ele>821.0</ele><time>2026-05-02T11:40:22.001Z</time></trkpt><trkpt lat="46.064160856703914" lon="11.694350764706275"><ele>827.3333333333334</ele><time>2026-05-02T11:40:23.001Z</time></trkpt><trkpt lat="46.06415764392074" lon="11.694481222514357"><ele>833.6666666666667</ele><time>2026-05-02T11:40:24.001Z</time></trkpt><trkpt lat="46.06416356465894" lon="11.694614196048617"><ele>840.0</ele><time>2026-05-02T11:40:25.001Z</time></trkpt><trkpt lat="46.06417084062732" lon="11.694746711444687"><ele>846.3333333333333</ele><time>2026-05-02T11:40:26.001Z</time></trkpt><trkpt lat="46.06418795566555" lon="11.694869066413826"><ele>852.6666666666666</ele><time>2026-05-02T11:40:27.001Z</time></trkpt><trkpt lat="46.06420911068039" lon="11.694987416869147"><ele>859.0</ele><time>2026-05-02T11:40:28.001Z</time></trkpt><trkpt lat="46.064256881790335" lon="11.695097299019327"><ele>859.0</ele><time>2026-05-02T11:40:29.001Z</time></trkpt><trkpt lat="46.064329190064115" lon="11.695197196496936"><ele>859.0</ele><time>2026-05-02T11:40:30.001Z</time></trkpt><trkpt lat="46.06442446599509" lon="11.695295064285265"><ele>859.0</ele><time>2026-05-02T11:40:31.001Z</time></trkpt><trkpt lat="46.06452990559344" lon="11.69539024255568"><ele>859.0</ele><time>2026-05-02T11:40:32.001Z</time></trkpt><trkpt lat="46.06462219099826" lon="11.695476721289063"><ele>855.8000000000001</ele><time>2026-05-02T11:40:33.001Z</time></trkpt><trkpt lat="46.06469211839813" lon="11.695591064090197"><ele>852.6000000000001</ele><time>2026-05-02T11:40:34.001Z</time></trkpt><trkpt lat="46.0647447076498" lon="11.695727568620091"><ele>849.4</ele><time>2026-05-02T11:40:35.001Z</time></trkpt><trkpt lat="46.064770911280426" lon="11.695868656659897"><ele>846.2</ele><time>2026-05-02T11:40:36.001Z</time></trkpt><trkpt lat="46.064766307888476" lon="11.696047740314217"><ele>843.0</ele><time>2026-05-02T11:40:38.001Z</time></trkpt><trkpt lat="46.06475168954394" lon="11.696153131144586"><ele>841.8333333333334</ele><time>2026-05-02T11:40:39.001Z</time></trkpt><trkpt lat="46.06472667426477" lon="11.696272288465046"><ele>840.6666666666667</ele><time>2026-05-02T11:40:40.001Z</time></trkpt><trkpt lat="46.06470524136882" lon="11.696376415540533"><ele>839.5</ele><time>2026-05-02T11:40:41.001Z</time></trkpt><trkpt lat="46.064678743672346" lon="11.696464144658952"><ele>838.3333333333334</ele><time>2026-05-02T11:40:42.001Z</time></trkpt><trkpt lat="46.064631681198335" lon="11.696634263149043"><ele>837.1666666666667</ele><time>2026-05-02T11:40:44.002Z</time></trkpt><trkpt lat="46.064611061149215" lon="11.696723917662776"><ele>836.0</ele><time>2026-05-02T11:40:45.002Z</time></trkpt><trkpt lat="46.064590687710634" lon="11.696899964171461"><ele>833.5999999999999</ele><time>2026-05-02T11:40:47.002Z</time></trkpt><trkpt lat="46.06461721451966" lon="11.696995182491262"><ele>831.2</ele><time>2026-05-02T11:40:48.002Z</time></trkpt><trkpt lat="46.064675239023934" lon="11.69709977943641"><ele>828.8</ele><time>2026-05-02T11:40:49.002Z</time></trkpt><trkpt lat="46.064753794085455" lon="11.697236630375711"><ele>826.4000000000001</ele><time>2026-05-02T11:40:50.002Z</time></trkpt><trkpt lat="46.06485035298995" lon="11.697400773644832"><ele>824.0</ele><time>2026-05-02T11:40:51.002Z</time></trkpt><trkpt lat="46.06494038954499" lon="11.697549012008043"><ele>832.5</ele><time>2026-05-02T11:40:52Z</time></trkpt><trkpt lat="46.06502576493111" lon="11.697689633664199"><ele>841.0</ele><time>2026-05-02T11:40:53Z</time></trkpt><trkpt lat="46.06508979405766" lon="11.69782443906355"><ele>849.5</ele><time>2026-05-02T11:40:54Z</time></trkpt><trkpt lat="46.06514561657566" lon="11.697967188580783"><ele>858.0</ele><time>2026-05-02T11:40:55Z</time></trkpt><trkpt lat="46.06518493887418" lon="11.69809961272379"><ele>858.0</ele><time>2026-05-02T11:40:56Z</time></trkpt><trkpt lat="46.065189071069426" lon="11.69822866962125"><ele>858.0</ele><time>2026-05-02T11:40:57Z</time></trkpt><trkpt lat="46.06516429707212" lon="11.698351793431417"><ele>858.0</ele><time>2026-05-02T11:40:58Z</time></trkpt><trkpt lat="46.06510851774549" lon="11.698476257772406"><ele>858.0</ele><time>2026-05-02T11:40:59Z</time></trkpt><trkpt lat="46.06504130845656" lon="11.698563740920262"><ele>858.0</ele><time>2026-05-02T11:41:00Z</time></trkpt><trkpt lat="46.06495215400207" lon="11.69864251682988"><ele>849.5</ele><time>2026-05-02T11:41:01Z</time></trkpt><trkpt lat="46.06487168306749" lon="11.698753800975368"><ele>841.0</ele><time>2026-05-02T11:41:02Z</time></trkpt><trkpt lat="46.064828386659876" lon="11.698896349546686"><ele>832.5</ele><time>2026-05-02T11:41:03Z</time></trkpt><trkpt lat="46.064793312865156" lon="11.699058773114437"><ele>824.0</ele><time>2026-05-02T11:41:04Z</time></trkpt><trkpt lat="46.0647555622605" lon="11.699215031034091"><ele>824.0</ele><time>2026-05-02T11:41:05Z</time></trkpt><trkpt lat="46.06468803328734" lon="11.699335162940553"><ele>824.0</ele><time>2026-05-02T11:41:06Z</time></trkpt><trkpt lat="46.064605227509006" lon="11.699442023807018"><ele>824.0</ele><time>2026-05-02T11:41:07Z</time></trkpt><trkpt lat="46.06451260963796" lon="11.699540399118252"><ele>824.0</ele><time>2026-05-02T11:41:08Z</time></trkpt><trkpt lat="46.06441140105113" lon="11.699619308796715"><ele>824.0</ele><time>2026-05-02T11:41:09Z</time></trkpt><trkpt lat="46.06432251883565" lon="11.699687449465822"><ele>823.6</ele><time>2026-05-02T11:41:10Z</time></trkpt><trkpt lat="46.06425011310176" lon="11.699755917974946"><ele>823.2</ele><time>2026-05-02T11:41:11Z</time></trkpt><trkpt lat="46.06418836329613" lon="11.699863463893703"><ele>822.8000000000001</ele><time>2026-05-02T11:41:12Z</time></trkpt><trkpt lat="46.064136421786586" lon="11.699992920509045"><ele>822.4000000000001</ele><time>2026-05-02T11:41:13Z</time></trkpt><trkpt lat="46.06410229526092" lon="11.7001608443542"><ele>822.0</ele><time>2026-05-02T11:41:14Z</time></trkpt><trkpt lat="46.0640808444522" lon="11.700347759763027"><ele>822.0</ele><time>2026-05-02T11:41:15Z</time></trkpt><trkpt lat="46.06404861630816" lon="11.700537573960013"><ele>822.0</ele><time>2026-05-02T11:41:16Z</time></trkpt><trkpt lat="46.064011421113776" lon="11.70069101167951"><ele>822.0</ele><time>2026-05-02T11:41:17Z</time></trkpt><trkpt lat="46.06396928518731" lon="11.7008223592163"><ele>822.0</ele><time>2026-05-02T11:41:18Z</time></trkpt><trkpt lat="46.06392580104461" lon="11.700932766493736"><ele>822.0</ele><time>2026-05-02T11:41:19Z</time></trkpt><trkpt lat="46.063887115460865" lon="11.701035668238044"><ele>824.0</ele><time>2026-05-02T11:41:20Z</time></trkpt><trkpt lat="46.06386412488821" lon="11.701123586871383"><ele>826.0</ele><time>2026-05-02T11:41:21Z</time></trkpt><trkpt lat="46.0639077277606" lon="11.701309923969609"><ele>828.0</ele><time>2026-05-02T11:41:23Z</time></trkpt><trkpt lat="46.06395068390381" lon="11.701425275967301"><ele>830.0</ele><time>2026-05-02T11:41:24Z</time></trkpt><trkpt lat="46.063995261114925" lon="11.701561163510311"><ele>832.0</ele><time>2026-05-02T11:41:25Z</time></trkpt><trkpt lat="46.064027658356586" lon="11.70171850453921"><ele>832.0</ele><time>2026-05-02T11:41:26Z</time></trkpt><trkpt lat="46.06405350641169" lon="11.701891473932452"><ele>832.0</ele><time>2026-05-02T11:41:27Z</time></trkpt><trkpt lat="46.064074963134686" lon="11.702070831968731"><ele>832.0</ele><time>2026-05-02T11:41:28Z</time></trkpt><trkpt lat="46.06409761000087" lon="11.702261255717616"><ele>832.0</ele><time>2026-05-02T11:41:29Z</time></trkpt><trkpt lat="46.06411865732852" lon="11.702460864094489"><ele>833.0</ele><time>2026-05-02T11:41:30Z</time></trkpt><trkpt lat="46.06413524631875" lon="11.702668807279316"><ele>834.0</ele><time>2026-05-02T11:41:31Z</time></trkpt><trkpt lat="46.064136284349956" lon="11.702872783923047"><ele>835.0</ele><time>2026-05-02T11:41:32Z</time></trkpt><trkpt lat="46.06411516679894" lon="11.703056273703504"><ele>836.0</ele><time>2026-05-02T11:41:33Z</time></trkpt><trkpt lat="46.064066880473995" lon="11.703204493194232"><ele>836.0</ele><time>2026-05-02T11:41:34.001Z</time></trkpt><trkpt lat="46.0639987823026" lon="11.703342490853364"><ele>836.0</ele><time>2026-05-02T11:41:35.001Z</time></trkpt><trkpt lat="46.06394537229371" lon="11.703483082330887"><ele>836.0</ele><time>2026-05-02T11:41:36.001Z</time></trkpt><trkpt lat="46.063923590076705" lon="11.703631389900208"><ele>836.0</ele><time>2026-05-02T11:41:37.001Z</time></trkpt><trkpt lat="46.06392081574219" lon="11.703774457800552"><ele>836.0</ele><time>2026-05-02T11:41:38.001Z</time></trkpt><trkpt lat="46.0639335058073" lon="11.703938570868026"><ele>840.4</ele><time>2026-05-02T11:41:39.001Z</time></trkpt><trkpt lat="46.063954713293846" lon="11.704095527774616"><ele>844.8</ele><time>2026-05-02T11:41:40.001Z</time></trkpt><trkpt lat="46.06397217826955" lon="11.704255141212593"><ele>849.1999999999999</ele><time>2026-05-02T11:41:41.001Z</time></trkpt><trkpt lat="46.06397481102118" lon="11.704414892783323"><ele>853.5999999999999</ele><time>2026-05-02T11:41:42.001Z</time></trkpt><trkpt lat="46.063987559973" lon="11.704579488948564"><ele>858.0</ele><time>2026-05-02T11:41:43.001Z</time></trkpt><trkpt lat="46.063996758961274" lon="11.704727584821264"><ele>860.6666666666666</ele><time>2026-05-02T11:41:44.001Z</time></trkpt><trkpt lat="46.06399908600183" lon="11.704860931419589"><ele>863.3333333333333</ele><time>2026-05-02T11:41:45.001Z</time></trkpt><trkpt lat="46.06399789327545" lon="11.704977651792227"><ele>866.0</ele><time>2026-05-02T11:41:46.001Z</time></trkpt><trkpt lat="46.063992771268325" lon="11.705100881754552"><ele>868.6666666666666</ele><time>2026-05-02T11:41:47.001Z</time></trkpt><trkpt lat="46.06397026016802" lon="11.705213340828985"><ele>871.3333333333333</ele><time>2026-05-02T11:41:48.001Z</time></trkpt><trkpt lat="46.06393233859822" lon="11.70532521157731"><ele>874.0</ele><time>2026-05-02T11:41:49.001Z</time></trkpt><trkpt lat="46.06388113194901" lon="11.705434420004192"><ele>875.2</ele><time>2026-05-02T11:41:50.001Z</time></trkpt><trkpt lat="46.063819198009" lon="11.705556856585979"><ele>876.4000000000001</ele><time>2026-05-02T11:41:51.001Z</time></trkpt><trkpt lat="46.063749685320204" lon="11.705668838340195"><ele>877.6</ele><time>2026-05-02T11:41:52.001Z</time></trkpt><trkpt lat="46.0636587691879" lon="11.705768346504387"><ele>878.8</ele><time>2026-05-02T11:41:53.001Z</time></trkpt><trkpt lat="46.06356181490992" lon="11.705859209668922"><ele>880.0</ele><time>2026-05-02T11:41:54.001Z</time></trkpt><trkpt lat="46.06346473477512" lon="11.705943911263276"><ele>880.0</ele><time>2026-05-02T11:41:55.001Z</time></trkpt><trkpt lat="46.063371806056416" lon="11.706031367367435"><ele>880.0</ele><time>2026-05-02T11:41:56.001Z</time></trkpt><trkpt lat="46.06327824360346" lon="11.706116212793235"><ele>880.0</ele><time>2026-05-02T11:41:57.001Z</time></trkpt><trkpt lat="46.063185076293735" lon="11.706202567881684"><ele>880.0</ele><time>2026-05-02T11:41:58.001Z</time></trkpt><trkpt lat="46.06309010044806" lon="11.706274708030717"><ele>880.0</ele><time>2026-05-02T11:41:59.001Z</time></trkpt><trkpt lat="46.06299215981157" lon="11.70631714326557"><ele>878.8</ele><time>2026-05-02T11:42:00.001Z</time></trkpt><trkpt lat="46.062882692356126" lon="11.706328515227264"><ele>877.6</ele><time>2026-05-02T11:42:01.001Z</time></trkpt><trkpt lat="46.06277659179949" lon="11.706314936867377"><ele>876.4000000000001</ele><time>2026-05-02T11:42:02.001Z</time></trkpt><trkpt lat="46.06267854104448" lon="11.706298907426858"><ele>875.2</ele><time>2026-05-02T11:42:03.001Z</time></trkpt><trkpt lat="46.06259905622974" lon="11.706311210128561"><ele>874.0</ele><time>2026-05-02T11:42:04.001Z</time></trkpt><trkpt lat="46.0625253746722" lon="11.706336764574989"><ele>874.0</ele><time>2026-05-02T11:42:05.001Z</time></trkpt><trkpt lat="46.06245485970352" lon="11.706508980257867"><ele>874.0</ele><time>2026-05-02T11:42:07.001Z</time></trkpt><trkpt lat="46.062452596328306" lon="11.706639280999957"><ele>874.0</ele><time>2026-05-02T11:42:08.001Z</time></trkpt><trkpt lat="46.062459143257044" lon="11.70680591338116"><ele>874.0</ele><time>2026-05-02T11:42:09.001Z</time></trkpt><trkpt lat="46.062462586326596" lon="11.706994082825936"><ele>876.25</ele><time>2026-05-02T11:42:10.001Z</time></trkpt><trkpt lat="46.062458603271125" lon="11.707192481712912"><ele>878.5</ele><time>2026-05-02T11:42:11.001Z</time></trkpt><trkpt lat="46.0624483858107" lon="11.707390240352371"><ele>880.75</ele><time>2026-05-02T11:42:12.001Z</time></trkpt><trkpt lat="46.06243701053217" lon="11.707579762068335"><ele>883.0</ele><time>2026-05-02T11:42:13.001Z</time></trkpt><trkpt lat="46.06241625973187" lon="11.707763177804006"><ele>874.25</ele><time>2026-05-02T11:42:14.001Z</time></trkpt><trkpt lat="46.06238852884627" lon="11.707951552287922"><ele>865.5</ele><time>2026-05-02T11:42:15.001Z</time></trkpt><trkpt lat="46.06234150084427" lon="11.708144487540192"><ele>856.75</ele><time>2026-05-02T11:42:16.001Z</time></trkpt><trkpt lat="46.06228036722519" lon="11.708330032001264"><ele>848.0</ele><time>2026-05-02T11:42:17.001Z</time></trkpt><trkpt lat="46.062219967884204" lon="11.708520193311248"><ele>853.3333333333334</ele><time>2026-05-02T11:42:18.001Z</time></trkpt><trkpt lat="46.06216095411413" lon="11.708727873199473"><ele>858.6666666666667</ele><time>2026-05-02T11:42:19.001Z</time></trkpt><trkpt lat="46.062094869211066" lon="11.70893258700991"><ele>864.0</ele><time>2026-05-02T11:42:20.001Z</time></trkpt><trkpt lat="46.062027851818684" lon="11.709125763968329"><ele>864.0</ele><time>2026-05-02T11:42:21.001Z</time></trkpt><trkpt lat="46.061958925800305" lon="11.709319109693698"><ele>864.0</ele><time>2026-05-02T11:42:22.001Z</time></trkpt><trkpt lat="46.06187917088026" lon="11.709506743444386"><ele>864.0</ele><time>2026-05-02T11:42:23.001Z</time></trkpt><trkpt lat="46.0617908539901" lon="11.709682227496243"><ele>868.5</ele><time>2026-05-02T11:42:24.001Z</time></trkpt><trkpt lat="46.061700754767614" lon="11.70983870976196"><ele>873.0</ele><time>2026-05-02T11:42:25.001Z</time></trkpt><trkpt lat="46.06162526547065" lon="11.70999126667876"><ele>877.5</ele><time>2026-05-02T11:42:26.001Z</time></trkpt><trkpt lat="46.06155308813429" lon="11.710135783439954"><ele>882.0</ele><time>2026-05-02T11:42:27.001Z</time></trkpt><trkpt lat="46.061498585497574" lon="11.71028643882337"><ele>886.0</ele><time>2026-05-02T11:42:28.001Z</time></trkpt><trkpt lat="46.061480690945906" lon="11.710433762318656"><ele>890.0</ele><time>2026-05-02T11:42:29.001Z</time></trkpt><trkpt lat="46.0614534480402" lon="11.710559771975266"><ele>894.0</ele><time>2026-05-02T11:42:30.001Z</time></trkpt><trkpt lat="46.0613943333777" lon="11.710644383332324"><ele>898.0</ele><time>2026-05-02T11:42:31.001Z</time></trkpt><trkpt lat="46.06131851370301" lon="11.71067875808266"><ele>902.0</ele><time>2026-05-02T11:42:32.001Z</time></trkpt><trkpt lat="46.06124357823789" lon="11.710651796420342"><ele>906.0</ele><time>2026-05-02T11:42:33.001Z</time></trkpt><trkpt lat="46.06118119840816" lon="11.710606870537944"><ele>906.0</ele><time>2026-05-02T11:42:34.001Z</time></trkpt><trkpt lat="46.06114607986835" lon="11.710431150962888"><ele>905.9999999999999</ele><time>2026-05-02T11:42:36.001Z</time></trkpt><trkpt lat="46.061138030802" lon="11.710323963929683"><ele>905.9999999999999</ele><time>2026-05-02T11:42:37.001Z</time></trkpt><trkpt lat="46.06110506235664" lon="11.71020108545128"><ele>906.0</ele><time>2026-05-02T11:42:38.001Z</time></trkpt><trkpt lat="46.0610537003858" lon="11.710043336487814"><ele>906.0</ele><time>2026-05-02T11:42:39.002Z</time></trkpt><trkpt lat="46.06100337343636" lon="11.709873115109755"><ele>902.3333333333333</ele><time>2026-05-02T11:42:40.002Z</time></trkpt><trkpt lat="46.060953512833784" lon="11.709666912576917"><ele>898.6666666666666</ele><time>2026-05-02T11:42:41.002Z</time></trkpt><trkpt lat="46.06091721184025" lon="11.709452727144217"><ele>895.0</ele><time>2026-05-02T11:42:42.002Z</time></trkpt><trkpt lat="46.06087381000156" lon="11.70923807165198"><ele>892.5</ele><time>2026-05-02T11:42:43.002Z</time></trkpt><trkpt lat="46.06083488512976" lon="11.709031128369844"><ele>890.0</ele><time>2026-05-02T11:42:44.002Z</time></trkpt><trkpt lat="46.0608089730556" lon="11.708831402173898"><ele>887.5</ele><time>2026-05-02T11:42:45.002Z</time></trkpt><trkpt lat="46.06078049699351" lon="11.70863557389116"><ele>885.0</ele><time>2026-05-02T11:42:46.002Z</time></trkpt><trkpt lat="46.06075765341195" lon="11.708438901033057"><ele>881.8</ele><time>2026-05-02T11:42:47.002Z</time></trkpt><trkpt lat="46.06072687910184" lon="11.708253685219677"><ele>878.6</ele><time>2026-05-02T11:42:48.002Z</time></trkpt><trkpt lat="46.06069233049843" lon="11.708078642823638"><ele>875.4000000000001</ele><time>2026-05-02T11:42:49.002Z</time></trkpt><trkpt lat="46.06066538482399" lon="11.70793794555867"><ele>872.2</ele><time>2026-05-02T11:42:50.002Z</time></trkpt><trkpt lat="46.060630784990856" lon="11.707834330772412"><ele>869.0</ele><time>2026-05-02T11:42:51.002Z</time></trkpt><trkpt lat="46.060579456488014" lon="11.707769344650183"><ele>869.0</ele><time>2026-05-02T11:42:52.002Z</time></trkpt><trkpt lat="46.06048036944914" lon="11.70776602473185"><ele>869.0000000000001</ele><time>2026-05-02T11:42:53.002Z</time></trkpt><trkpt lat="46.06040394242115" lon="11.707807299334288"><ele>869.0000000000001</ele><time>2026-05-02T11:42:54.002Z</time></trkpt><trkpt lat="46.06029615451607" lon="11.707877144989759"><ele>869.0</ele><time>2026-05-02T11:42:55.002Z</time></trkpt><trkpt lat="46.06016678694491" lon="11.707939408624172"><ele>869.0</ele><time>2026-05-02T11:42:56.002Z</time></trkpt><trkpt lat="46.06004143453503" lon="11.707976304019507"><ele>858.6</ele><time>2026-05-02T11:42:57.002Z</time></trkpt><trkpt lat="46.05993716480106" lon="11.70801411526198"><ele>848.2</ele><time>2026-05-02T11:42:58Z</time></trkpt><trkpt lat="46.05984581474922" lon="11.708041371730285"><ele>837.8000000000001</ele><time>2026-05-02T11:42:59Z</time></trkpt><trkpt lat="46.05977767260647" lon="11.708101758346608"><ele>827.4000000000001</ele><time>2026-05-02T11:43:00Z</time></trkpt><trkpt lat="46.059693915960935" lon="11.708226797613293"><ele>817.0</ele><time>2026-05-02T11:43:01Z</time></trkpt><trkpt lat="46.059594008287824" lon="11.708412699950205"><ele>817.0</ele><time>2026-05-02T11:43:02Z</time></trkpt><trkpt lat="46.05951689618798" lon="11.708562434002198"><ele>817.0</ele><time>2026-05-02T11:43:03Z</time></trkpt><trkpt lat="46.05946086729013" lon="11.708738464379355"><ele>817.0</ele><time>2026-05-02T11:43:04Z</time></trkpt><trkpt lat="46.05941787028675" lon="11.70894022735824"><ele>817.0</ele><time>2026-05-02T11:43:05Z</time></trkpt><trkpt lat="46.059380580355594" lon="11.709139414524055"><ele>821.5</ele><time>2026-05-02T11:43:06Z</time></trkpt><trkpt lat="46.059345419013525" lon="11.70932585894094"><ele>826.0</ele><time>2026-05-02T11:43:07Z</time></trkpt><trkpt lat="46.05929794131345" lon="11.709501729574553"><ele>830.5</ele><time>2026-05-02T11:43:08Z</time></trkpt><trkpt lat="46.05922294632103" lon="11.709666061919807"><ele>835.0</ele><time>2026-05-02T11:43:09Z</time></trkpt><trkpt lat="46.05914515818395" lon="11.709834440786423"><ele>836.0</ele><time>2026-05-02T11:43:10Z</time></trkpt><trkpt lat="46.059074980280855" lon="11.709996252842918"><ele>837.0</ele><time>2026-05-02T11:43:11Z</time></trkpt><trkpt lat="46.059011004306136" lon="11.710153007849865"><ele>838.0</ele><time>2026-05-02T11:43:12Z</time></trkpt><trkpt lat="46.05896045719438" lon="11.710326095706517"><ele>839.0</ele><time>2026-05-02T11:43:13Z</time></trkpt><trkpt lat="46.058923231308874" lon="11.710490514924365"><ele>839.0</ele><time>2026-05-02T11:43:14Z</time></trkpt><trkpt lat="46.058869034950796" lon="11.710629505351847"><ele>839.0</ele><time>2026-05-02T11:43:15Z</time></trkpt><trkpt lat="46.05878579176386" lon="11.71076289330365"><ele>839.0</ele><time>2026-05-02T11:43:16Z</time></trkpt><trkpt lat="46.058701480940876" lon="11.710917883736926"><ele>839.0</ele><time>2026-05-02T11:43:17Z</time></trkpt><trkpt lat="46.058640347496144" lon="11.711068559816626"><ele>847.0000000000001</ele><time>2026-05-02T11:43:18Z</time></trkpt><trkpt lat="46.05859238313451" lon="11.711185131788332"><ele>855.0</ele><time>2026-05-02T11:43:19Z</time></trkpt><trkpt lat="46.05854165962276" lon="11.711271602877822"><ele>863.0</ele><time>2026-05-02T11:43:20Z</time></trkpt><trkpt lat="46.05846234669554" lon="11.71130735990644"><ele>871.0</ele><time>2026-05-02T11:43:21Z</time></trkpt><trkpt lat="46.05837008236078" lon="11.711295345932678"><ele>879.0000000000001</ele><time>2026-05-02T11:43:22Z</time></trkpt><trkpt lat="46.05828209010509" lon="11.71123692788963"><ele>887.0</ele><time>2026-05-02T11:43:23Z</time></trkpt><trkpt lat="46.058203328474185" lon="11.711134739639432"><ele>879.4000000000001</ele><time>2026-05-02T11:43:24Z</time></trkpt><trkpt lat="46.05814544108353" lon="11.71100678133801"><ele>871.8000000000001</ele><time>2026-05-02T11:43:25Z</time></trkpt><trkpt lat="46.05810533673898" lon="11.71085918371356"><ele>864.2</ele><time>2026-05-02T11:43:26Z</time></trkpt><trkpt lat="46.05805403269121" lon="11.710744259401427"><ele>856.6</ele><time>2026-05-02T11:43:27Z</time></trkpt><trkpt lat="46.05795238255869" lon="11.710655142920901"><ele>849.0</ele><time>2026-05-02T11:43:28.001Z</time></trkpt><trkpt lat="46.057830540461985" lon="11.710565851386452"><ele>849.0</ele><time>2026-05-02T11:43:29.001Z</time></trkpt><trkpt lat="46.05769509490888" lon="11.710468253513156"><ele>849.0</ele><time>2026-05-02T11:43:30.001Z</time></trkpt><trkpt lat="46.05757129388061" lon="11.710383439710586"><ele>849.0</ele><time>2026-05-02T11:43:31.001Z</time></trkpt><trkpt lat="46.05745643297287" lon="11.710337957056428"><ele>849.0</ele><time>2026-05-02T11:43:32.001Z</time></trkpt><trkpt lat="46.057355498567986" lon="11.710296690884407"><ele>845.6</ele><time>2026-05-02T11:43:33.001Z</time></trkpt><trkpt lat="46.057291684790535" lon="11.710254407141084"><ele>842.2</ele><time>2026-05-02T11:43:34.001Z</time></trkpt><trkpt lat="46.05721225189704" lon="11.710240818707573"><ele>838.8000000000001</ele><time>2026-05-02T11:43:35.001Z</time></trkpt><trkpt lat="46.05714505801811" lon="11.710295157035606"><ele>835.4000000000001</ele><time>2026-05-02T11:43:36.001Z</time></trkpt><trkpt lat="46.05707907993771" lon="11.710414297858259"><ele>832.0</ele><time>2026-05-02T11:43:37.001Z</time></trkpt><trkpt lat="46.056998279477526" lon="11.710553193011847"><ele>832.0</ele><time>2026-05-02T11:43:38.001Z</time></trkpt><trkpt lat="46.05690597312804" lon="11.710688337279088"><ele>832.0</ele><time>2026-05-02T11:43:39.001Z</time></trkpt><trkpt lat="46.056817478197566" lon="11.710797186779654"><ele>832.0</ele><time>2026-05-02T11:43:40.001Z</time></trkpt><trkpt lat="46.056719283820726" lon="11.710876904950732"><ele>832.0</ele><time>2026-05-02T11:43:41.001Z</time></trkpt><trkpt lat="46.0566224341725" lon="11.710949159492284"><ele>833.6</ele><time>2026-05-02T11:43:42.001Z</time></trkpt><trkpt lat="46.05653627543441" lon="11.711003396218493"><ele>835.2</ele><time>2026-05-02T11:43:43.001Z</time></trkpt><trkpt lat="46.05644610544874" lon="11.710993919050283"><ele>836.8</ele><time>2026-05-02T11:43:44.001Z</time></trkpt><trkpt lat="46.0563539211034" lon="11.710926848539795"><ele>838.4</ele><time>2026-05-02T11:43:45.001Z</time></trkpt><trkpt lat="46.056256196799" lon="11.710822675591078"><ele>840.0</ele><time>2026-05-02T11:43:46.001Z</time></trkpt><trkpt lat="46.05615506953813" lon="11.710707664395514"><ele>840.0</ele><time>2026-05-02T11:43:47.001Z</time></trkpt><trkpt lat="46.05604982440595" lon="11.710589037833605"><ele>840.0</ele><time>2026-05-02T11:43:48.001Z</time></trkpt><trkpt lat="46.05595444792321" lon="11.710477769285825"><ele>840.0</ele><time>2026-05-02T11:43:49.001Z</time></trkpt><trkpt lat="46.05586456398584" lon="11.710366661604768"><ele>840.0</ele><time>2026-05-02T11:43:50.001Z</time></trkpt><trkpt lat="46.05577876893649" lon="11.71025998767263"><ele>828.6</ele><time>2026-05-02T11:43:51.001Z</time></trkpt><trkpt lat="46.05567947669886" lon="11.710172750950079"><ele>817.2</ele><time>2026-05-02T11:43:52.001Z</time></trkpt><trkpt lat="46.05558225668126" lon="11.710108743767972"><ele>805.8</ele><time>2026-05-02T11:43:53.001Z</time></trkpt><trkpt lat="46.055479327527195" lon="11.710088836949716"><ele>794.4</ele><time>2026-05-02T11:43:54.001Z</time></trkpt><trkpt lat="46.05537420479809" lon="11.710062977385666"><ele>783.0</ele><time>2026-05-02T11:43:55.001Z</time></trkpt><trkpt lat="46.05527853746405" lon="11.710015635915413"><ele>783.0</ele><time>2026-05-02T11:43:56.001Z</time></trkpt><trkpt lat="46.05519217863195" lon="11.709951840577304"><ele>783.0</ele><time>2026-05-02T11:43:57.001Z</time></trkpt><trkpt lat="46.0551287935587" lon="11.70992140154868"><ele>783.0</ele><time>2026-05-02T11:43:58.001Z</time></trkpt><trkpt lat="46.05502772319277" lon="11.71002795842597"><ele>783.0</ele><time>2026-05-02T11:44:00.001Z</time></trkpt><trkpt lat="46.0549906094446" lon="11.710138850358339"><ele>783.0</ele><time>2026-05-02T11:44:01.001Z</time></trkpt><trkpt lat="46.05494347185949" lon="11.710272255586492"><ele>785.75</ele><time>2026-05-02T11:44:02.001Z</time></trkpt><trkpt lat="46.054870065968835" lon="11.710417732268718"><ele>788.5</ele><time>2026-05-02T11:44:03.001Z</time></trkpt><trkpt lat="46.05479050114436" lon="11.710546685267845"><ele>791.25</ele><time>2026-05-02T11:44:04.001Z</time></trkpt><trkpt lat="46.054725376901345" lon="11.710675459735228"><ele>794.0</ele><time>2026-05-02T11:44:05.001Z</time></trkpt><trkpt lat="46.05467768174161" lon="11.710812743113749"><ele>794.0</ele><time>2026-05-02T11:44:06.001Z</time></trkpt><trkpt lat="46.05464287304696" lon="11.710953827169439"><ele>794.0</ele><time>2026-05-02T11:44:07.001Z</time></trkpt><trkpt lat="46.05460499763387" lon="11.711082423237096"><ele>794.0</ele><time>2026-05-02T11:44:08.001Z</time></trkpt><trkpt lat="46.054563525855784" lon="11.711180142026437"><ele>794.0</ele><time>2026-05-02T11:44:09.001Z</time></trkpt><trkpt lat="46.054506635275935" lon="11.711230260168618"><ele>794.0</ele><time>2026-05-02T11:44:10.001Z</time></trkpt><trkpt lat="46.05437021658019" lon="11.711215455633676"><ele>788.6666666666667</ele><time>2026-05-02T11:44:12.001Z</time></trkpt><trkpt lat="46.05428507810126" lon="11.711188850415102"><ele>783.3333333333334</ele><time>2026-05-02T11:44:13.001Z</time></trkpt><trkpt lat="46.05419930547026" lon="11.711156223315488"><ele>778.0</ele><time>2026-05-02T11:44:14.001Z</time></trkpt><trkpt lat="46.05412879603205" lon="11.711113228811797"><ele>772.6666666666667</ele><time>2026-05-02T11:44:15.001Z</time></trkpt><trkpt lat="46.05406603398279" lon="11.711040629213581"><ele>767.3333333333334</ele><time>2026-05-02T11:44:16.001Z</time></trkpt><trkpt lat="46.05400234525295" lon="11.710971255965632"><ele>762.0</ele><time>2026-05-02T11:44:17.001Z</time></trkpt><trkpt lat="46.05391522666898" lon="11.710939353464932"><ele>762.0</ele><time>2026-05-02T11:44:18.001Z</time></trkpt><trkpt lat="46.05383122363954" lon="11.710977426136044"><ele>762.0</ele><time>2026-05-02T11:44:19.001Z</time></trkpt><trkpt lat="46.053763290425" lon="11.711075952519883"><ele>762.0</ele><time>2026-05-02T11:44:20.001Z</time></trkpt><trkpt lat="46.053698250422876" lon="11.711209743532029"><ele>762.0</ele><time>2026-05-02T11:44:21.001Z</time></trkpt><trkpt lat="46.05363968577054" lon="11.71135975664896"><ele>762.0</ele><time>2026-05-02T11:44:22.001Z</time></trkpt><trkpt lat="46.05358850948594" lon="11.711505791659787"><ele>764.8333333333334</ele><time>2026-05-02T11:44:23.001Z</time></trkpt><trkpt lat="46.05355003922153" lon="11.711639180460656"><ele>767.6666666666667</ele><time>2026-05-02T11:44:24.001Z</time></trkpt><trkpt lat="46.053505735501766" lon="11.711739344509066"><ele>770.5</ele><time>2026-05-02T11:44:25.001Z</time></trkpt><trkpt lat="46.05342684378073" lon="11.711770303257527"><ele>773.3333333333334</ele><time>2026-05-02T11:44:26.001Z</time></trkpt><trkpt lat="46.053340053984435" lon="11.711733945135158"><ele>776.1666666666667</ele><time>2026-05-02T11:44:27.001Z</time></trkpt><trkpt lat="46.0532561435841" lon="11.711681822637491"><ele>779.0</ele><time>2026-05-02T11:44:28.001Z</time></trkpt><trkpt lat="46.05316239732088" lon="11.711703992154826"><ele>779.0</ele><time>2026-05-02T11:44:29.001Z</time></trkpt><trkpt lat="46.05305381340814" lon="11.711773193865987"><ele>779.0</ele><time>2026-05-02T11:44:30.001Z</time></trkpt><trkpt lat="46.05295166616137" lon="11.711776741232125"><ele>779.0</ele><time>2026-05-02T11:44:31.001Z</time></trkpt><trkpt lat="46.0528629243355" lon="11.711711929591607"><ele>779.0</ele><time>2026-05-02T11:44:32.001Z</time></trkpt><trkpt lat="46.052780192826816" lon="11.71169188478175"><ele>779.0</ele><time>2026-05-02T11:44:33.001Z</time></trkpt><trkpt lat="46.05269751142488" lon="11.71173841788225"><ele>779.0</ele><time>2026-05-02T11:44:34.001Z</time></trkpt><trkpt lat="46.052613632513385" lon="11.711853837778676"><ele>779.0</ele><time>2026-05-02T11:44:35.001Z</time></trkpt><trkpt lat="46.05253913180603" lon="11.711988753582068"><ele>779.0</ele><time>2026-05-02T11:44:36.001Z</time></trkpt><trkpt lat="46.05247342006847" lon="11.712090089668884"><ele>779.0</ele><time>2026-05-02T11:44:37.001Z</time></trkpt><trkpt lat="46.052397387310755" lon="11.712131450780822"><ele>779.0</ele><time>2026-05-02T11:44:38.001Z</time></trkpt><trkpt lat="46.05231881695925" lon="11.712112208918256"><ele>785.8000000000001</ele><time>2026-05-02T11:44:39.001Z</time></trkpt><trkpt lat="46.05224913598272" lon="11.712041400641057"><ele>792.6</ele><time>2026-05-02T11:44:40.001Z</time></trkpt><trkpt lat="46.05218991537865" lon="11.711930742972688"><ele>799.4</ele><time>2026-05-02T11:44:41.001Z</time></trkpt><trkpt lat="46.05213612386807" lon="11.711785733249085"><ele>806.2</ele><time>2026-05-02T11:44:42.001Z</time></trkpt><trkpt lat="46.052057391976945" lon="11.711639014862115"><ele>813.0</ele><time>2026-05-02T11:44:43.002Z</time></trkpt><trkpt lat="46.05196785311738" lon="11.71150308429019"><ele>813.0</ele><time>2026-05-02T11:44:44.002Z</time></trkpt><trkpt lat="46.05187225331962" lon="11.711358539423259"><ele>813.0</ele><time>2026-05-02T11:44:45.002Z</time></trkpt><trkpt lat="46.051784883031054" lon="11.711208213709236"><ele>813.0</ele><time>2026-05-02T11:44:46.002Z</time></trkpt><trkpt lat="46.05171477435498" lon="11.711045104762198"><ele>813.0</ele><time>2026-05-02T11:44:47.002Z</time></trkpt><trkpt lat="46.05164553429236" lon="11.71087701042451"><ele>819.25</ele><time>2026-05-02T11:44:48.002Z</time></trkpt><trkpt lat="46.05157135669576" lon="11.71071271974364"><ele>825.5</ele><time>2026-05-02T11:44:49.002Z</time></trkpt><trkpt lat="46.05150182056367" lon="11.71054931512461"><ele>831.75</ele><time>2026-05-02T11:44:50.002Z</time></trkpt><trkpt lat="46.05143891689496" lon="11.710413714970763"><ele>838.0</ele><time>2026-05-02T11:44:51.002Z</time></trkpt><trkpt lat="46.05136990884265" lon="11.710295071014952"><ele>824.0</ele><time>2026-05-02T11:44:52.002Z</time></trkpt><trkpt lat="46.05126422541602" lon="11.710206086238726"><ele>810.0</ele><time>2026-05-02T11:44:53.002Z</time></trkpt><trkpt lat="46.051162574061124" lon="11.710093293954337"><ele>796.0</ele><time>2026-05-02T11:44:54.002Z</time></trkpt><trkpt lat="46.05107667995665" lon="11.709958461412727"><ele>782.0</ele><time>2026-05-02T11:44:55.002Z</time></trkpt><trkpt lat="46.05100732011091" lon="11.709812199657899"><ele>782.0</ele><time>2026-05-02T11:44:56.002Z</time></trkpt><trkpt lat="46.050933717290114" lon="11.709680336179465"><ele>782.0</ele><time>2026-05-02T11:44:57.002Z</time></trkpt><trkpt lat="46.050863292626346" lon="11.70956584597831"><ele>782.0</ele><time>2026-05-02T11:44:58.002Z</time></trkpt><trkpt lat="46.05079321398664" lon="11.709491802502544"><ele>782.0</ele><time>2026-05-02T11:44:59.002Z</time></trkpt><trkpt lat="46.0507171594698" lon="11.709439503239773"><ele>782.0</ele><time>2026-05-02T11:45:00.002Z</time></trkpt><trkpt lat="46.05061787665974" lon="11.70942119724822"><ele>784.0</ele><time>2026-05-02T11:45:01.002Z</time></trkpt><trkpt lat="46.05050233254092" lon="11.709442852439343"><ele>786.0</ele><time>2026-05-02T11:45:02.002Z</time></trkpt><trkpt lat="46.050357364216886" lon="11.70948395911744"><ele>788.0</ele><time>2026-05-02T11:45:03.002Z</time></trkpt><trkpt lat="46.050219347919075" lon="11.70950814085646"><ele>790.0</ele><time>2026-05-02T11:45:04.001Z</time></trkpt><trkpt lat="46.050096126541455" lon="11.709527308182617"><ele>790.0</ele><time>2026-05-02T11:45:05.001Z</time></trkpt><trkpt lat="46.04998109476034" lon="11.709541779466262"><ele>790.0</ele><time>2026-05-02T11:45:06.001Z</time></trkpt><trkpt lat="46.049865775162026" lon="11.709551955657714"><ele>790.0</ele><time>2026-05-02T11:45:07.001Z</time></trkpt><trkpt lat="46.049747304824514" lon="11.70951076135854"><ele>790.0</ele><time>2026-05-02T11:45:08.001Z</time></trkpt><trkpt lat="46.04961794195498" lon="11.709468887655243"><ele>784.75</ele><time>2026-05-02T11:45:09.001Z</time></trkpt><trkpt lat="46.04949152645683" lon="11.709438384839766"><ele>779.5</ele><time>2026-05-02T11:45:10.001Z</time></trkpt><trkpt lat="46.04937598038178" lon="11.709383085227596"><ele>774.25</ele><time>2026-05-02T11:45:11.001Z</time></trkpt><trkpt lat="46.04926268322417" lon="11.709342570461178"><ele>769.0</ele><time>2026-05-02T11:45:12.001Z</time></trkpt><trkpt lat="46.04917318618462" lon="11.709316487752364"><ele>759.8000000000001</ele><time>2026-05-02T11:45:13.001Z</time></trkpt><trkpt lat="46.049101671279956" lon="11.70933512823138"><ele>750.6</ele><time>2026-05-02T11:45:14.001Z</time></trkpt><trkpt lat="46.049029162604334" lon="11.709390061470112"><ele>741.4</ele><time>2026-05-02T11:45:15.001Z</time></trkpt><trkpt lat="46.04895409831377" lon="11.709489066552127"><ele>732.2</ele><time>2026-05-02T11:45:16.001Z</time></trkpt><trkpt lat="46.04888238210114" lon="11.709623955812836"><ele>723.0</ele><time>2026-05-02T11:45:17.001Z</time></trkpt><trkpt lat="46.04882349346009" lon="11.709792575107535"><ele>723.0</ele><time>2026-05-02T11:45:18.001Z</time></trkpt><trkpt lat="46.04874404925036" lon="11.709946918370434"><ele>723.0</ele><time>2026-05-02T11:45:19.001Z</time></trkpt><trkpt lat="46.0486450078772" lon="11.710060410914474"><ele>723.0</ele><time>2026-05-02T11:45:20.001Z</time></trkpt><trkpt lat="46.04855162318863" lon="11.71017451572855"><ele>723.0</ele><time>2026-05-02T11:45:21.001Z</time></trkpt><trkpt lat="46.04844451883449" lon="11.710277910145537"><ele>720.25</ele><time>2026-05-02T11:45:22.001Z</time></trkpt><trkpt lat="46.04832175728098" lon="11.710365780630935"><ele>717.5</ele><time>2026-05-02T11:45:23.001Z</time></trkpt><trkpt lat="46.04818912377378" lon="11.710452544834878"><ele>714.75</ele><time>2026-05-02T11:45:24.001Z</time></trkpt><trkpt lat="46.04807096757385" lon="11.710555181781016"><ele>712.0</ele><time>2026-05-02T11:45:25.001Z</time></trkpt><trkpt lat="46.04794840804065" lon="11.710635971420407"><ele>712.0</ele><time>2026-05-02T11:45:26.001Z</time></trkpt><trkpt lat="46.04781878153131" lon="11.71068794991798"><ele>712.0</ele><time>2026-05-02T11:45:27.001Z</time></trkpt><trkpt lat="46.04770627180288" lon="11.710742871137246"><ele>712.0</ele><time>2026-05-02T11:45:28.001Z</time></trkpt><trkpt lat="46.04762221093561" lon="11.710821845335358"><ele>712.0</ele><time>2026-05-02T11:45:29.001Z</time></trkpt><trkpt lat="46.04755842438925" lon="11.710948972720162"><ele>718.0</ele><time>2026-05-02T11:45:30.001Z</time></trkpt><trkpt lat="46.04751449398156" lon="11.711129663003"><ele>724.0</ele><time>2026-05-02T11:45:31.001Z</time></trkpt><trkpt lat="46.04747576122541" lon="11.711351569933807"><ele>730.0</ele><time>2026-05-02T11:45:32.001Z</time></trkpt><trkpt lat="46.047448995440476" lon="11.711585373445992"><ele>717.0</ele><time>2026-05-02T11:45:33.001Z</time></trkpt><trkpt lat="46.047438837304426" lon="11.711814774065521"><ele>704.0</ele><time>2026-05-02T11:45:34.001Z</time></trkpt><trkpt lat="46.04743583903489" lon="11.712011220901267"><ele>691.0</ele><time>2026-05-02T11:45:35.001Z</time></trkpt><trkpt lat="46.04741301537097" lon="11.712183903536083"><ele>678.0</ele><time>2026-05-02T11:45:36.001Z</time></trkpt><trkpt lat="46.047349243554045" lon="11.712344770322938"><ele>678.0</ele><time>2026-05-02T11:45:37.001Z</time></trkpt><trkpt lat="46.047276666236634" lon="11.7125013460198"><ele>678.0</ele><time>2026-05-02T11:45:38.001Z</time></trkpt><trkpt lat="46.04723233910051" lon="11.712674586236501"><ele>678.0</ele><time>2026-05-02T11:45:39.001Z</time></trkpt><trkpt lat="46.047203315310284" lon="11.712853348708505"><ele>678.0</ele><time>2026-05-02T11:45:40.001Z</time></trkpt><trkpt lat="46.047177756769564" lon="11.7130315907487"><ele>680.0</ele><time>2026-05-02T11:45:41.001Z</time></trkpt><trkpt lat="46.047147260934985" lon="11.713201862751927"><ele>682.0</ele><time>2026-05-02T11:45:42.001Z</time></trkpt><trkpt lat="46.04709703359105" lon="11.713366544364519"><ele>684.0</ele><time>2026-05-02T11:45:43.001Z</time></trkpt><trkpt lat="46.04704333358372" lon="11.713520548229049"><ele>686.0</ele><time>2026-05-02T11:45:44.001Z</time></trkpt><trkpt lat="46.0469861039388" lon="11.713665869792411"><ele>687.5999999999999</ele><time>2026-05-02T11:45:45.001Z</time></trkpt><trkpt lat="46.04691105680119" lon="11.713783214458877"><ele>689.2</ele><time>2026-05-02T11:45:46.001Z</time></trkpt><trkpt lat="46.04680963898602" lon="11.713852116396902"><ele>690.8</ele><time>2026-05-02T11:45:47.001Z</time></trkpt><trkpt lat="46.04674503270386" lon="11.71393319144184"><ele>692.4000000000001</ele><time>2026-05-02T11:45:48.001Z</time></trkpt><trkpt lat="46.04671957321087" lon="11.71403638641393"><ele>694.0</ele><time>2026-05-02T11:45:49.001Z</time></trkpt><trkpt lat="46.046741294187086" lon="11.714161139990239"><ele>694.0</ele><time>2026-05-02T11:45:50.001Z</time></trkpt><trkpt lat="46.04679007862631" lon="11.714303068033438"><ele>694.0</ele><time>2026-05-02T11:45:51.001Z</time></trkpt><trkpt lat="46.04685546717144" lon="11.714445801951161"><ele>694.0</ele><time>2026-05-02T11:45:52.001Z</time></trkpt><trkpt lat="46.04690040082995" lon="11.714569625423133"><ele>694.0</ele><time>2026-05-02T11:45:53.001Z</time></trkpt><trkpt lat="46.04689934972253" lon="11.714692428085609"><ele>694.0</ele><time>2026-05-02T11:45:54.001Z</time></trkpt><trkpt lat="46.046843703982105" lon="11.714801702213787"><ele>696.5</ele><time>2026-05-02T11:45:55.001Z</time></trkpt><trkpt lat="46.04676802067412" lon="11.714895281607241"><ele>699.0</ele><time>2026-05-02T11:45:56.001Z</time></trkpt><trkpt lat="46.046689384933806" lon="11.71496111118037"><ele>701.5</ele><time>2026-05-02T11:45:57.001Z</time></trkpt><trkpt lat="46.046610904656085" lon="11.715012522894229"><ele>704.0</ele><time>2026-05-02T11:45:58.001Z</time></trkpt><trkpt lat="46.046528157313546" lon="11.715043678815325"><ele>706.5</ele><time>2026-05-02T11:45:59.001Z</time></trkpt><trkpt lat="46.04644982473048" lon="11.715071345954312"><ele>709.0</ele><time>2026-05-02T11:46:00.001Z</time></trkpt><trkpt lat="46.04639834678398" lon="11.715149261800677"><ele>705.3333333333334</ele><time>2026-05-02T11:46:01.001Z</time></trkpt><trkpt lat="46.04635434494725" lon="11.715249069728062"><ele>701.6666666666667</ele><time>2026-05-02T11:46:02.001Z</time></trkpt><trkpt lat="46.046307663566296" lon="11.715341707603514"><ele>698.0</ele><time>2026-05-02T11:46:03.001Z</time></trkpt><trkpt lat="46.04625256158653" lon="11.71541971355186"><ele>694.3333333333334</ele><time>2026-05-02T11:46:04.001Z</time></trkpt><trkpt lat="46.04618973694252" lon="11.71548522949272"><ele>690.6666666666666</ele><time>2026-05-02T11:46:05.001Z</time></trkpt><trkpt lat="46.0461228820048" lon="11.71554438583512"><ele>687.0</ele><time>2026-05-02T11:46:06.001Z</time></trkpt><trkpt lat="46.04606356331561" lon="11.715607261710847"><ele>687.0</ele><time>2026-05-02T11:46:07.001Z</time></trkpt><trkpt lat="46.0459932984964" lon="11.715672587171477"><ele>687.0</ele><time>2026-05-02T11:46:08.001Z</time></trkpt><trkpt lat="46.045920482016605" lon="11.715741040573963"><ele>687.0</ele><time>2026-05-02T11:46:09.001Z</time></trkpt><trkpt lat="46.04585136711224" lon="11.715818616647049"><ele>687.0</ele><time>2026-05-02T11:46:10.001Z</time></trkpt><trkpt lat="46.045802642496916" lon="11.715921990172504"><ele>687.0</ele><time>2026-05-02T11:46:11.001Z</time></trkpt><trkpt lat="46.045798546775494" lon="11.71605085458086"><ele>687.0</ele><time>2026-05-02T11:46:12.001Z</time></trkpt><trkpt lat="46.045794728380294" lon="11.716165901904512"><ele>679.1666666666666</ele><time>2026-05-02T11:46:13.001Z</time></trkpt><trkpt lat="46.04577453876965" lon="11.716254520985746"><ele>671.3333333333334</ele><time>2026-05-02T11:46:14.001Z</time></trkpt><trkpt lat="46.045723747658705" lon="11.716340815229286"><ele>663.5</ele><time>2026-05-02T11:46:15.001Z</time></trkpt><trkpt lat="46.04564863537648" lon="11.716417757350978"><ele>655.6666666666667</ele><time>2026-05-02T11:46:16.001Z</time></trkpt><trkpt lat="46.04558024734129" lon="11.716505865780482"><ele>647.8333333333334</ele><time>2026-05-02T11:46:17.001Z</time></trkpt><trkpt lat="46.04554639364707" lon="11.716629797911118"><ele>640.0</ele><time>2026-05-02T11:46:18.001Z</time></trkpt><trkpt lat="46.045539846544045" lon="11.716788084087906"><ele>642.25</ele><time>2026-05-02T11:46:19.001Z</time></trkpt><trkpt lat="46.04554110167795" lon="11.716970586393405"><ele>644.5</ele><time>2026-05-02T11:46:20.001Z</time></trkpt><trkpt lat="46.04553667336322" lon="11.71713718181339"><ele>646.75</ele><time>2026-05-02T11:46:21.001Z</time></trkpt><trkpt lat="46.04550086286711" lon="11.717288891749085"><ele>649.0</ele><time>2026-05-02T11:46:22.001Z</time></trkpt><trkpt lat="46.04544008395393" lon="11.717427308864263"><ele>649.0</ele><time>2026-05-02T11:46:23.001Z</time></trkpt><trkpt lat="46.04536241926546" lon="11.717543828433577"><ele>649.0</ele><time>2026-05-02T11:46:24.001Z</time></trkpt><trkpt lat="46.04527962387548" lon="11.717641682729267"><ele>649.0</ele><time>2026-05-02T11:46:25.001Z</time></trkpt><trkpt lat="46.045223757536135" lon="11.717760987371049"><ele>649.0</ele><time>2026-05-02T11:46:26.001Z</time></trkpt><trkpt lat="46.045198134263906" lon="11.717911255489994"><ele>649.0</ele><time>2026-05-02T11:46:27.001Z</time></trkpt><trkpt lat="46.04519514397453" lon="11.718078695668138"><ele>653.25</ele><time>2026-05-02T11:46:28.001Z</time></trkpt><trkpt lat="46.04519091282152" lon="11.718245506597812"><ele>657.5</ele><time>2026-05-02T11:46:29.001Z</time></trkpt><trkpt lat="46.04516668723171" lon="11.718400175876182"><ele>661.75</ele><time>2026-05-02T11:46:30.001Z</time></trkpt><trkpt lat="46.04511924422628" lon="11.718542975474405"><ele>666.0</ele><time>2026-05-02T11:46:31.001Z</time></trkpt><trkpt lat="46.04504810821818" lon="11.718675330277446"><ele>656.75</ele><time>2026-05-02T11:46:32.001Z</time></trkpt><trkpt lat="46.04495641422357" lon="11.718795970214474"><ele>647.5</ele><time>2026-05-02T11:46:33.001Z</time></trkpt><trkpt lat="46.044856615893615" lon="11.7188901289117"><ele>638.25</ele><time>2026-05-02T11:46:34.001Z</time></trkpt><trkpt lat="46.044759170953924" lon="11.71896887239286"><ele>629.0</ele><time>2026-05-02T11:46:35.001Z</time></trkpt><trkpt lat="46.04468023012449" lon="11.719051950420095"><ele>629.0</ele><time>2026-05-02T11:46:36.001Z</time></trkpt><trkpt lat="46.04461895671861" lon="11.719167432729858"><ele>629.0</ele><time>2026-05-02T11:46:37.001Z</time></trkpt><trkpt lat="46.044571052107386" lon="11.719335168886944"><ele>629.0</ele><time>2026-05-02T11:46:38.001Z</time></trkpt><trkpt lat="46.044508157579024" lon="11.719508557416296"><ele>629.0</ele><time>2026-05-02T11:46:39.001Z</time></trkpt><trkpt lat="46.0444157292377" lon="11.719643769049684"><ele>634.0</ele><time>2026-05-02T11:46:40.001Z</time></trkpt><trkpt lat="46.0443224051703" lon="11.719772133246432"><ele>639.0</ele><time>2026-05-02T11:46:41.001Z</time></trkpt><trkpt lat="46.044260097276535" lon="11.719954033201363"><ele>644.0</ele><time>2026-05-02T11:46:42.001Z</time></trkpt><trkpt lat="46.04419340345792" lon="11.720183374387817"><ele>649.0</ele><time>2026-05-02T11:46:43.001Z</time></trkpt><trkpt lat="46.0441213706086" lon="11.720408474703504"><ele>634.3333333333334</ele><time>2026-05-02T11:46:44.001Z</time></trkpt><trkpt lat="46.04404903961299" lon="11.720623868876691"><ele>619.6666666666666</ele><time>2026-05-02T11:46:45.001Z</time></trkpt><trkpt lat="46.04397674446808" lon="11.720831472363386"><ele>605.0</ele><time>2026-05-02T11:46:46.001Z</time></trkpt><trkpt lat="46.04391873466602" lon="11.721030550154317"><ele>611.0</ele><time>2026-05-02T11:46:47.001Z</time></trkpt><trkpt lat="46.04385318225782" lon="11.721220156309172"><ele>617.0</ele><time>2026-05-02T11:46:48.001Z</time></trkpt><trkpt lat="46.04377869684692" lon="11.721393401919357"><ele>623.0</ele><time>2026-05-02T11:46:49.001Z</time></trkpt><trkpt lat="46.04369671026351" lon="11.72154729707485"><ele>629.0</ele><time>2026-05-02T11:46:50.001Z</time></trkpt><trkpt lat="46.043592667596265" lon="11.721659199598426"><ele>629.0</ele><time>2026-05-02T11:46:51.001Z</time></trkpt><trkpt lat="46.04347794023909" lon="11.721723180977442"><ele>629.0</ele><time>2026-05-02T11:46:52.001Z</time></trkpt><trkpt lat="46.04339372799843" lon="11.721796196553928"><ele>629.0</ele><time>2026-05-02T11:46:53.001Z</time></trkpt><trkpt lat="46.04332948923352" lon="11.721868426953781"><ele>629.0</ele><time>2026-05-02T11:46:54.001Z</time></trkpt><trkpt lat="46.04330073623313" lon="11.721984938759137"><ele>629.0</ele><time>2026-05-02T11:46:55.002Z</time></trkpt><trkpt lat="46.04331306479702" lon="11.722149233361323"><ele>629.0</ele><time>2026-05-02T11:46:56.002Z</time></trkpt><trkpt lat="46.043329898451645" lon="11.722346178029012"><ele>629.0</ele><time>2026-05-02T11:46:57.002Z</time></trkpt><trkpt lat="46.04332377795229" lon="11.722575349869015"><ele>629.0</ele><time>2026-05-02T11:46:58.002Z</time></trkpt><trkpt lat="46.043298076499575" lon="11.722817153675733"><ele>610.6666666666666</ele><time>2026-05-02T11:46:59.002Z</time></trkpt><trkpt lat="46.04325982960714" lon="11.723043548587627"><ele>592.3333333333334</ele><time>2026-05-02T11:47:00.002Z</time></trkpt><trkpt lat="46.04323973372436" lon="11.723268483724702"><ele>574.0</ele><time>2026-05-02T11:47:01.002Z</time></trkpt><trkpt lat="46.04322404147245" lon="11.72347186248314"><ele>574.8333333333334</ele><time>2026-05-02T11:47:02.002Z</time></trkpt><trkpt lat="46.04320041499985" lon="11.72362224776476"><ele>575.6666666666667</ele><time>2026-05-02T11:47:03.002Z</time></trkpt><trkpt lat="46.04318719569618" lon="11.723734292680042"><ele>576.5</ele><time>2026-05-02T11:47:04.002Z</time></trkpt><trkpt lat="46.04319341831361" lon="11.723840086215908"><ele>577.3333333333334</ele><time>2026-05-02T11:47:05.002Z</time></trkpt><trkpt lat="46.043231863985" lon="11.723939136900778"><ele>578.1666666666666</ele><time>2026-05-02T11:47:06.002Z</time></trkpt><trkpt lat="46.043308220535636" lon="11.724020139041203"><ele>579.0</ele><time>2026-05-02T11:47:07.002Z</time></trkpt><trkpt lat="46.04341085795417" lon="11.724073437083181"><ele>589.25</ele><time>2026-05-02T11:47:08.002Z</time></trkpt><trkpt lat="46.04353393422263" lon="11.724086029993599"><ele>599.5</ele><time>2026-05-02T11:47:09.002Z</time></trkpt><trkpt lat="46.04366588324014" lon="11.724068456594313"><ele>609.75</ele><time>2026-05-02T11:47:10.001Z</time></trkpt><trkpt lat="46.04379377572687" lon="11.724048476395108"><ele>620.0</ele><time>2026-05-02T11:47:11.001Z</time></trkpt><trkpt lat="46.043915720021225" lon="11.724031376035308"><ele>620.0</ele><time>2026-05-02T11:47:12.001Z</time></trkpt><trkpt lat="46.04403154188732" lon="11.724019276183782"><ele>620.0</ele><time>2026-05-02T11:47:13.001Z</time></trkpt><trkpt lat="46.044147861522674" lon="11.724004428445955"><ele>620.0</ele><time>2026-05-02T11:47:14.001Z</time></trkpt><trkpt lat="46.044258140948294" lon="11.723963245700226"><ele>620.0</ele><time>2026-05-02T11:47:15.001Z</time></trkpt><trkpt lat="46.04436465688059" lon="11.723910175153618"><ele>618.8</ele><time>2026-05-02T11:47:16.001Z</time></trkpt><trkpt lat="46.04447354804187" lon="11.723873524826798"><ele>617.6</ele><time>2026-05-02T11:47:17.001Z</time></trkpt><trkpt lat="46.04457152564358" lon="11.723840637830492"><ele>616.4</ele><time>2026-05-02T11:47:18.001Z</time></trkpt><trkpt lat="46.0446651767115" lon="11.723820979845875"><ele>615.2</ele><time>2026-05-02T11:47:19.001Z</time></trkpt><trkpt lat="46.04475489718962" lon="11.723825137595151"><ele>614.0</ele><time>2026-05-02T11:47:20Z</time></trkpt><trkpt lat="46.04484430519707" lon="11.723853453462294"><ele>614.0</ele><time>2026-05-02T11:47:21Z</time></trkpt><trkpt lat="46.04493745295664" lon="11.723896145327702"><ele>614.0</ele><time>2026-05-02T11:47:22Z</time></trkpt><trkpt lat="46.04504083858805" lon="11.723944533239441"><ele>614.0</ele><time>2026-05-02T11:47:23Z</time></trkpt><trkpt lat="46.045149582104905" lon="11.723978842554935"><ele>614.0</ele><time>2026-05-02T11:47:24Z</time></trkpt><trkpt lat="46.04525785932626" lon="11.72400146686019"><ele>614.0</ele><time>2026-05-02T11:47:25Z</time></trkpt><trkpt lat="46.045365229396744" lon="11.72401206290293"><ele>613.4</ele><time>2026-05-02T11:47:26Z</time></trkpt><trkpt lat="46.04546819870828" lon="11.72401962707755"><ele>612.8</ele><time>2026-05-02T11:47:27Z</time></trkpt><trkpt lat="46.04556622972622" lon="11.724012767814592"><ele>612.2</ele><time>2026-05-02T11:47:28Z</time></trkpt><trkpt lat="46.04564197060921" lon="11.72398170994634"><ele>611.6</ele><time>2026-05-02T11:47:29Z</time></trkpt><trkpt lat="46.04572693754537" lon="11.724001051077586"><ele>611.0</ele><time>2026-05-02T11:47:31Z</time></trkpt><trkpt lat="46.04571809698129" lon="11.724126985763492"><ele>611.0</ele><time>2026-05-02T11:47:33Z</time></trkpt><trkpt lat="46.04557965832788" lon="11.724135106777492"><ele>611.0</ele><time>2026-05-02T11:47:35Z</time></trkpt><trkpt lat="46.045485330323814" lon="11.724126886258807"><ele>611.0</ele><time>2026-05-02T11:47:36Z</time></trkpt><trkpt lat="46.04535893837948" lon="11.724121720809352"><ele>611.0</ele><time>2026-05-02T11:47:37Z</time></trkpt><trkpt lat="46.045247400113496" lon="11.724133394841186"><ele>611.0</ele><time>2026-05-02T11:47:38Z</time></trkpt><trkpt lat="46.04514861088742" lon="11.724157378764389"><ele>611.0</ele><time>2026-05-02T11:47:39.001Z</time></trkpt><trkpt lat="46.04505947967144" lon="11.724207382937358"><ele>611.0</ele><time>2026-05-02T11:47:40.001Z</time></trkpt><trkpt lat="46.04498079712507" lon="11.724288755243641"><ele>611.0</ele><time>2026-05-02T11:47:41.001Z</time></trkpt><trkpt lat="46.044890160946245" lon="11.724371469632406"><ele>611.0</ele><time>2026-05-02T11:47:42.001Z</time></trkpt><trkpt lat="46.04478255754107" lon="11.724425086564105"><ele>605.8</ele><time>2026-05-02T11:47:43.001Z</time></trkpt><trkpt lat="46.044689650424246" lon="11.724461269379203"><ele>600.6</ele><time>2026-05-02T11:47:44.001Z</time></trkpt><trkpt lat="46.04460533253807" lon="11.72446920664683"><ele>595.4</ele><time>2026-05-02T11:47:45.001Z</time></trkpt><trkpt lat="46.044515268042176" lon="11.724430578735596"><ele>590.2</ele><time>2026-05-02T11:47:46.001Z</time></trkpt><trkpt lat="46.04440739174453" lon="11.724422046157711"><ele>585.0</ele><time>2026-05-02T11:47:47.001Z</time></trkpt><trkpt lat="46.044304089215615" lon="11.72445911940462"><ele>585.0</ele><time>2026-05-02T11:47:48.001Z</time></trkpt><trkpt lat="46.044194085548504" lon="11.724537333361837"><ele>585.0</ele><time>2026-05-02T11:47:49.001Z</time></trkpt><trkpt lat="46.04407703496275" lon="11.724612437700047"><ele>585.0</ele><time>2026-05-02T11:47:50.001Z</time></trkpt><trkpt lat="46.04396572408237" lon="11.724674074286"><ele>585.0</ele><time>2026-05-02T11:47:51.001Z</time></trkpt><trkpt lat="46.04385367867302" lon="11.724741344466755"><ele>586.8</ele><time>2026-05-02T11:47:52.001Z</time></trkpt><trkpt lat="46.0437349928926" lon="11.724807871324991"><ele>588.6</ele><time>2026-05-02T11:47:53.001Z</time></trkpt><trkpt lat="46.043632633210166" lon="11.724825174911347"><ele>590.4</ele><time>2026-05-02T11:47:54.001Z</time></trkpt><trkpt lat="46.043523219755805" lon="11.72485431536912"><ele>592.2</ele><time>2026-05-02T11:47:55.001Z</time></trkpt><trkpt lat="46.04341818820097" lon="11.72487962676286"><ele>594.0</ele><time>2026-05-02T11:47:56.001Z</time></trkpt><trkpt lat="46.04332492892742" lon="11.724902620003213"><ele>591.2</ele><time>2026-05-02T11:47:57.001Z</time></trkpt><trkpt lat="46.043237514683945" lon="11.724928924847665"><ele>588.4</ele><time>2026-05-02T11:47:58.001Z</time></trkpt><trkpt lat="46.04314446175186" lon="11.724971021069218"><ele>585.6</ele><time>2026-05-02T11:47:59.001Z</time></trkpt><trkpt lat="46.04303176745286" lon="11.725029195267178"><ele>582.8</ele><time>2026-05-02T11:48:00.001Z</time></trkpt><trkpt lat="46.04292935693359" lon="11.72509623816677"><ele>580.0</ele><time>2026-05-02T11:48:01.001Z</time></trkpt><trkpt lat="46.04283076112821" lon="11.72516747309112"><ele>578.0</ele><time>2026-05-02T11:48:02.001Z</time></trkpt><trkpt lat="46.04273084381417" lon="11.725230061590397"><ele>576.0</ele><time>2026-05-02T11:48:03.001Z</time></trkpt><trkpt lat="46.04263182564788" lon="11.72528293683413"><ele>574.0</ele><time>2026-05-02T11:48:04.001Z</time></trkpt><trkpt lat="46.04254386690033" lon="11.725330053147294"><ele>572.0</ele><time>2026-05-02T11:48:05.001Z</time></trkpt><trkpt lat="46.0424728751361" lon="11.725372032200893"><ele>570.0</ele><time>2026-05-02T11:48:06.001Z</time></trkpt><trkpt lat="46.042409066288094" lon="11.725397586872292"><ele>570.0</ele><time>2026-05-02T11:48:07.001Z</time></trkpt><trkpt lat="46.04233867848369" lon="11.725458244562653"><ele>570.0</ele><time>2026-05-02T11:48:09.001Z</time></trkpt><trkpt lat="46.04240616519136" lon="11.72556453124687"><ele>570.0</ele><time>2026-05-02T11:48:11.001Z</time></trkpt><trkpt lat="46.042480728034846" lon="11.725539835539108"><ele>570.0</ele><time>2026-05-02T11:48:12.001Z</time></trkpt><trkpt lat="46.042560265097215" lon="11.725476977174957"><ele>570.0</ele><time>2026-05-02T11:48:13.001Z</time></trkpt><trkpt lat="46.042664620753285" lon="11.725423554856992"><ele>570.0</ele><time>2026-05-02T11:48:14.001Z</time></trkpt><trkpt lat="46.04279040229627" lon="11.725382592869803"><ele>570.0</ele><time>2026-05-02T11:48:15.001Z</time></trkpt><trkpt lat="46.04292034287499" lon="11.725348056673397"><ele>570.0</ele><time>2026-05-02T11:48:16.001Z</time></trkpt><trkpt lat="46.04305055552986" lon="11.725313762835315"><ele>570.0</ele><time>2026-05-02T11:48:17.001Z</time></trkpt><trkpt lat="46.043175398970966" lon="11.725288780931166"><ele>567.75</ele><time>2026-05-02T11:48:18.001Z</time></trkpt><trkpt lat="46.04330244018141" lon="11.725268802997281"><ele>565.5</ele><time>2026-05-02T11:48:19.001Z</time></trkpt><trkpt lat="46.04342476864253" lon="11.725265040291553"><ele>563.25</ele><time>2026-05-02T11:48:20.001Z</time></trkpt><trkpt lat="46.04354399766712" lon="11.725274840843962"><ele>561.0</ele><time>2026-05-02T11:48:21.001Z</time></trkpt><trkpt lat="46.04366133993044" lon="11.725305485625322"><ele>561.0</ele><time>2026-05-02T11:48:22.001Z</time></trkpt><trkpt lat="46.043770207967476" lon="11.725342982697963"><ele>561.0</ele><time>2026-05-02T11:48:23.001Z</time></trkpt><trkpt lat="46.043873311883935" lon="11.725374822320235"><ele>561.0</ele><time>2026-05-02T11:48:24.001Z</time></trkpt><trkpt lat="46.04397984384802" lon="11.725390385903234"><ele>561.0</ele><time>2026-05-02T11:48:25.001Z</time></trkpt><trkpt lat="46.0440847422516" lon="11.725374352262408"><ele>561.0</ele><time>2026-05-02T11:48:26.001Z</time></trkpt><trkpt lat="46.04417816270955" lon="11.725298805576566"><ele>567.0</ele><time>2026-05-02T11:48:27.001Z</time></trkpt><trkpt lat="46.044282505816874" lon="11.72522447028915"><ele>573.0</ele><time>2026-05-02T11:48:28.001Z</time></trkpt><trkpt lat="46.0444024656824" lon="11.725211487433885"><ele>579.0</ele><time>2026-05-02T11:48:29.001Z</time></trkpt><trkpt lat="46.04452658881489" lon="11.725198111725836"><ele>585.0</ele><time>2026-05-02T11:48:30.001Z</time></trkpt><trkpt lat="46.04464690447807" lon="11.725178476473937"><ele>585.0</ele><time>2026-05-02T11:48:31.001Z</time></trkpt><trkpt lat="46.04477003260534" lon="11.725142465491478"><ele>585.0</ele><time>2026-05-02T11:48:32.001Z</time></trkpt><trkpt lat="46.04488613956557" lon="11.725190388345563"><ele>585.0</ele><time>2026-05-02T11:48:33.001Z</time></trkpt><trkpt lat="46.04499171263462" lon="11.725246438573274"><ele>585.0</ele><time>2026-05-02T11:48:34.001Z</time></trkpt><trkpt lat="46.04508794896372" lon="11.725274976028814"><ele>583.4</ele><time>2026-05-02T11:48:35.001Z</time></trkpt><trkpt lat="46.045178936152716" lon="11.725264909288942"><ele>581.8</ele><time>2026-05-02T11:48:36.001Z</time></trkpt><trkpt lat="46.04528428554091" lon="11.725224426645273"><ele>580.2</ele><time>2026-05-02T11:48:37.001Z</time></trkpt><trkpt lat="46.04539461574758" lon="11.725170531069686"><ele>578.6</ele><time>2026-05-02T11:48:38.001Z</time></trkpt><trkpt lat="46.04550328219446" lon="11.725135850571366"><ele>577.0</ele><time>2026-05-02T11:48:39.001Z</time></trkpt><trkpt lat="46.04560506369329" lon="11.725135973815833"><ele>577.0</ele><time>2026-05-02T11:48:40.001Z</time></trkpt><trkpt lat="46.04570538262191" lon="11.725143250836153"><ele>577.0</ele><time>2026-05-02T11:48:41.001Z</time></trkpt><trkpt lat="46.04579533392527" lon="11.725164363820557"><ele>577.0</ele><time>2026-05-02T11:48:42.001Z</time></trkpt><trkpt lat="46.04587974504759" lon="11.725194195364528"><ele>577.0</ele><time>2026-05-02T11:48:43.001Z</time></trkpt><trkpt lat="46.04596494983241" lon="11.725220064852511"><ele>577.0</ele><time>2026-05-02T11:48:44.001Z</time></trkpt><trkpt lat="46.04604266045407" lon="11.725253025396007"><ele>577.0</ele><time>2026-05-02T11:48:45.001Z</time></trkpt><trkpt lat="46.04609880970726" lon="11.725305662722585"><ele>576.6666666666667</ele><time>2026-05-02T11:48:46.001Z</time></trkpt><trkpt lat="46.04614111957938" lon="11.72547178426826"><ele>576.3333333333334</ele><time>2026-05-02T11:48:48.001Z</time></trkpt><trkpt lat="46.04613654983402" lon="11.725565974722143"><ele>576.0</ele><time>2026-05-02T11:48:49.001Z</time></trkpt><trkpt lat="46.046112385218464" lon="11.72565697027012"><ele>575.6666666666666</ele><time>2026-05-02T11:48:50.001Z</time></trkpt><trkpt lat="46.046046955967576" lon="11.725736998210856"><ele>575.3333333333333</ele><time>2026-05-02T11:48:51.001Z</time></trkpt><trkpt lat="46.045974203852616" lon="11.725814868835977"><ele>575.0</ele><time>2026-05-02T11:48:52.001Z</time></trkpt><trkpt lat="46.04588572028855" lon="11.725900626103574"><ele>573.0</ele><time>2026-05-02T11:48:53.001Z</time></trkpt><trkpt lat="46.045783154598546" lon="11.725992964137246"><ele>571.0</ele><time>2026-05-02T11:48:54.001Z</time></trkpt><trkpt lat="46.045678766855076" lon="11.72610573235398"><ele>569.0</ele><time>2026-05-02T11:48:55.001Z</time></trkpt><trkpt lat="46.04558819055302" lon="11.72625036203575"><ele>567.0</ele><time>2026-05-02T11:48:56.001Z</time></trkpt><trkpt lat="46.04548874711634" lon="11.726395193927173"><ele>567.0</ele><time>2026-05-02T11:48:57.001Z</time></trkpt><trkpt lat="46.045379371110236" lon="11.726499973043119"><ele>567.0</ele><time>2026-05-02T11:48:58.001Z</time></trkpt><trkpt lat="46.04526597484358" lon="11.726590266455784"><ele>567.0</ele><time>2026-05-02T11:48:59.001Z</time></trkpt><trkpt lat="46.04515898766788" lon="11.726700650746217"><ele>567.0</ele><time>2026-05-02T11:49:00.001Z</time></trkpt><trkpt lat="46.04506349559554" lon="11.726817467516344"><ele>567.25</ele><time>2026-05-02T11:49:01.001Z</time></trkpt><trkpt lat="46.04497673514127" lon="11.726942887712127"><ele>567.5</ele><time>2026-05-02T11:49:02.001Z</time></trkpt><trkpt lat="46.04490780690787" lon="11.727100711444901"><ele>567.75</ele><time>2026-05-02T11:49:03.001Z</time></trkpt><trkpt lat="46.04485987834668" lon="11.727262845242883"><ele>568.0</ele><time>2026-05-02T11:49:04.001Z</time></trkpt><trkpt lat="46.044850138012684" lon="11.727420245865483"><ele>568.0</ele><time>2026-05-02T11:49:05.001Z</time></trkpt><trkpt lat="46.04487153485072" lon="11.727557396713356"><ele>568.0</ele><time>2026-05-02T11:49:06.001Z</time></trkpt><trkpt lat="46.04486288944022" lon="11.727667942671893"><ele>568.0</ele><time>2026-05-02T11:49:07.001Z</time></trkpt><trkpt lat="46.04478749052459" lon="11.727710823194322"><ele>568.0</ele><time>2026-05-02T11:49:08.001Z</time></trkpt><trkpt lat="46.04468180644287" lon="11.727708753095067"><ele>568.0</ele><time>2026-05-02T11:49:09.001Z</time></trkpt><trkpt lat="46.04455051605305" lon="11.72767847547496"><ele>568.0</ele><time>2026-05-02T11:49:10.001Z</time></trkpt><trkpt lat="46.0444170580348" lon="11.727683036405402"><ele>568.0</ele><time>2026-05-02T11:49:11.001Z</time></trkpt><trkpt lat="46.04427896809354" lon="11.727758950415149"><ele>568.0</ele><time>2026-05-02T11:49:12.001Z</time></trkpt><trkpt lat="46.04414671826241" lon="11.727869068322374"><ele>568.0</ele><time>2026-05-02T11:49:13.002Z</time></trkpt><trkpt lat="46.04403089453181" lon="11.72796962309643"><ele>566.75</ele><time>2026-05-02T11:49:14.002Z</time></trkpt><trkpt lat="46.04392779847543" lon="11.728021044511152"><ele>565.5</ele><time>2026-05-02T11:49:15.002Z</time></trkpt><trkpt lat="46.04383190037523" lon="11.728085712083082"><ele>564.25</ele><time>2026-05-02T11:49:16Z</time></trkpt><trkpt lat="46.04375306636019" lon="11.728207414429479"><ele>563.0</ele><time>2026-05-02T11:49:17Z</time></trkpt><trkpt lat="46.04368316672894" lon="11.728362230316982"><ele>563.0</ele><time>2026-05-02T11:49:18Z</time></trkpt><trkpt lat="46.04362761385763" lon="11.728526334748407"><ele>563.0</ele><time>2026-05-02T11:49:19Z</time></trkpt><trkpt lat="46.04358428411197" lon="11.728685809328447"><ele>563.0</ele><time>2026-05-02T11:49:20Z</time></trkpt><trkpt lat="46.04354050350944" lon="11.728818480716662"><ele>563.0</ele><time>2026-05-02T11:49:21Z</time></trkpt><trkpt lat="46.04345583477549" lon="11.728915199884874"><ele>567.25</ele><time>2026-05-02T11:49:22Z</time></trkpt><trkpt lat="46.043336623074914" lon="11.728968985632735"><ele>571.5</ele><time>2026-05-02T11:49:23Z</time></trkpt><trkpt lat="46.04319090966705" lon="11.729029442640796"><ele>575.75</ele><time>2026-05-02T11:49:24Z</time></trkpt><trkpt lat="46.043042813658246" lon="11.729124348322108"><ele>580.0</ele><time>2026-05-02T11:49:25Z</time></trkpt><trkpt lat="46.042898408631665" lon="11.729201551155302"><ele>580.0</ele><time>2026-05-02T11:49:26Z</time></trkpt><trkpt lat="46.042758950178836" lon="11.729259469035448"><ele>580.0</ele><time>2026-05-02T11:49:27Z</time></trkpt><trkpt lat="46.0426167799265" lon="11.729340485074829"><ele>580.0</ele><time>2026-05-02T11:49:28Z</time></trkpt><trkpt lat="46.042478950967464" lon="11.729454550315207"><ele>582.25</ele><time>2026-05-02T11:49:29Z</time></trkpt><trkpt lat="46.04234848079921" lon="11.729579041043959"><ele>584.5</ele><time>2026-05-02T11:49:30Z</time></trkpt><trkpt lat="46.04223427284917" lon="11.729682173220748"><ele>586.75</ele><time>2026-05-02T11:49:31Z</time></trkpt><trkpt lat="46.04212697341536" lon="11.72977853094397"><ele>589.0</ele><time>2026-05-02T11:49:32Z</time></trkpt><trkpt lat="46.04201684189187" lon="11.729842154007196"><ele>589.0</ele><time>2026-05-02T11:49:33Z</time></trkpt><trkpt lat="46.041901073144835" lon="11.72989331917683"><ele>589.0</ele><time>2026-05-02T11:49:34Z</time></trkpt><trkpt lat="46.04178948664204" lon="11.72994353685463"><ele>589.0</ele><time>2026-05-02T11:49:35Z</time></trkpt><trkpt lat="46.041702076301526" lon="11.730027513197888"><ele>589.0</ele><time>2026-05-02T11:49:36Z</time></trkpt><trkpt lat="46.04166577086959" lon="11.730182432786581"><ele>589.2</ele><time>2026-05-02T11:49:37Z</time></trkpt><trkpt lat="46.04164222676861" lon="11.730345754100965"><ele>589.4</ele><time>2026-05-02T11:49:38Z</time></trkpt><trkpt lat="46.04167054801014" lon="11.730466020512694"><ele>589.6</ele><time>2026-05-02T11:49:39Z</time></trkpt><trkpt lat="46.04173785036571" lon="11.730560981843556"><ele>589.8</ele><time>2026-05-02T11:49:40Z</time></trkpt><trkpt lat="46.041866178128494" lon="11.730650061545738"><ele>590.0</ele><time>2026-05-02T11:49:41Z</time></trkpt><trkpt lat="46.0420394130475" lon="11.730775315334704"><ele>590.0</ele><time>2026-05-02T11:49:42Z</time></trkpt><trkpt lat="46.04218066441872" lon="11.73086632407111"><ele>590.0</ele><time>2026-05-02T11:49:43Z</time></trkpt><trkpt lat="46.04228789581119" lon="11.73097981038905"><ele>590.0</ele><time>2026-05-02T11:49:44Z</time></trkpt><trkpt lat="46.042380107542876" lon="11.731100640197578"><ele>590.0</ele><time>2026-05-02T11:49:45Z</time></trkpt><trkpt lat="46.042413843910765" lon="11.731229449878915"><ele>588.2</ele><time>2026-05-02T11:49:46Z</time></trkpt><trkpt lat="46.042431464262506" lon="11.731323519622535"><ele>586.4</ele><time>2026-05-02T11:49:47Z</time></trkpt><trkpt lat="46.042312593771214" lon="11.731392142897485"><ele>584.6</ele><time>2026-05-02T11:49:49Z</time></trkpt><trkpt lat="46.042218023487756" lon="11.731461741663615"><ele>582.8</ele><time>2026-05-02T11:49:50Z</time></trkpt><trkpt lat="46.04210266125835" lon="11.73156931028294"><ele>581.0</ele><time>2026-05-02T11:49:51Z</time></trkpt><trkpt lat="46.04200742622836" lon="11.731732574981127"><ele>581.0</ele><time>2026-05-02T11:49:52Z</time></trkpt><trkpt lat="46.041918227896396" lon="11.731879938744711"><ele>581.0</ele><time>2026-05-02T11:49:53Z</time></trkpt><trkpt lat="46.04184266005984" lon="11.73203147141211"><ele>581.0</ele><time>2026-05-02T11:49:54Z</time></trkpt><trkpt lat="46.04177634314259" lon="11.732196969634417"><ele>581.0</ele><time>2026-05-02T11:49:55Z</time></trkpt><trkpt lat="46.04169594637329" lon="11.732365471086723"><ele>584.5</ele><time>2026-05-02T11:49:56Z</time></trkpt><trkpt lat="46.04165514867689" lon="11.73256043690745"><ele>588.0</ele><time>2026-05-02T11:49:57Z</time></trkpt><trkpt lat="46.04161725363954" lon="11.73273090418117"><ele>591.5</ele><time>2026-05-02T11:49:58Z</time></trkpt><trkpt lat="46.04157115656674" lon="11.732881704819908"><ele>595.0</ele><time>2026-05-02T11:49:59Z</time></trkpt><trkpt lat="46.04155036798583" lon="11.733014945170227"><ele>588.6</ele><time>2026-05-02T11:50:00Z</time></trkpt><trkpt lat="46.04148972652682" lon="11.733111634206796"><ele>582.2</ele><time>2026-05-02T11:50:01Z</time></trkpt><trkpt lat="46.04141276509684" lon="11.733171454701473"><ele>575.8</ele><time>2026-05-02T11:50:02Z</time></trkpt><trkpt lat="46.04134492234852" lon="11.733237031402888"><ele>569.4</ele><time>2026-05-02T11:50:03Z</time></trkpt><trkpt lat="46.04129200117394" lon="11.733342538993785"><ele>563.0</ele><time>2026-05-02T11:50:04Z</time></trkpt><trkpt lat="46.041282709993254" lon="11.733521947831134"><ele>563.0</ele><time>2026-05-02T11:50:05Z</time></trkpt><trkpt lat="46.0412933021974" lon="11.733729950886168"><ele>563.0</ele><time>2026-05-02T11:50:06Z</time></trkpt><trkpt lat="46.04130993891171" lon="11.733949930749668"><ele>563.0</ele><time>2026-05-02T11:50:07Z</time></trkpt><trkpt lat="46.04132730420046" lon="11.734148823978582"><ele>563.0</ele><time>2026-05-02T11:50:08Z</time></trkpt><trkpt lat="46.04135710534364" lon="11.734331967300653"><ele>565.6</ele><time>2026-05-02T11:50:09.001Z</time></trkpt><trkpt lat="46.0413908703785" lon="11.734494206268877"><ele>568.1999999999999</ele><time>2026-05-02T11:50:10.001Z</time></trkpt><trkpt lat="46.041405735824455" lon="11.734636478106548"><ele>570.8</ele><time>2026-05-02T11:50:11.001Z</time></trkpt><trkpt lat="46.041400625892784" lon="11.734774847916189"><ele>573.4</ele><time>2026-05-02T11:50:12.001Z</time></trkpt><trkpt lat="46.04131866010172" lon="11.734892412986953"><ele>576.0</ele><time>2026-05-02T11:50:13.001Z</time></trkpt><trkpt lat="46.04121777454321" lon="11.73498368894592"><ele>576.0</ele><time>2026-05-02T11:50:14.001Z</time></trkpt><trkpt lat="46.04111881250406" lon="11.73505123565773"><ele>576.0</ele><time>2026-05-02T11:50:15.001Z</time></trkpt><trkpt lat="46.041041970300846" lon="11.735131949514221"><ele>576.0</ele><time>2026-05-02T11:50:16.001Z</time></trkpt><trkpt lat="46.04097597237984" lon="11.735224444411264"><ele>576.0</ele><time>2026-05-02T11:50:17.001Z</time></trkpt><trkpt lat="46.04095467033874" lon="11.735382539548048"><ele>576.0</ele><time>2026-05-02T11:50:18.001Z</time></trkpt><trkpt lat="46.04092304963058" lon="11.735553309052351"><ele>579.25</ele><time>2026-05-02T11:50:19.001Z</time></trkpt><trkpt lat="46.04088917144885" lon="11.735742882666651"><ele>582.5</ele><time>2026-05-02T11:50:20.001Z</time></trkpt><trkpt lat="46.04085967840719" lon="11.735952748704305"><ele>585.75</ele><time>2026-05-02T11:50:21.001Z</time></trkpt><trkpt lat="46.040833550785095" lon="11.736180274995181"><ele>589.0</ele><time>2026-05-02T11:50:22.001Z</time></trkpt><trkpt lat="46.04080179494209" lon="11.73640439789207"><ele>579.75</ele><time>2026-05-02T11:50:23.001Z</time></trkpt><trkpt lat="46.04076657850247" lon="11.736625377022357"><ele>570.5</ele><time>2026-05-02T11:50:24.001Z</time></trkpt><trkpt lat="46.04073268960167" lon="11.736829807622753"><ele>561.25</ele><time>2026-05-02T11:50:25.001Z</time></trkpt><trkpt lat="46.040696941262915" lon="11.737018390053608"><ele>552.0</ele><time>2026-05-02T11:50:26.001Z</time></trkpt><trkpt lat="46.0406643524317" lon="11.737202251400209"><ele>552.0</ele><time>2026-05-02T11:50:27.001Z</time></trkpt><trkpt lat="46.0406487926462" lon="11.737382918667663"><ele>552.0</ele><time>2026-05-02T11:50:28.001Z</time></trkpt><trkpt lat="46.040639144488125" lon="11.737573652181732"><ele>552.0</ele><time>2026-05-02T11:50:29.001Z</time></trkpt><trkpt lat="46.040617448813975" lon="11.737771763407865"><ele>552.0</ele><time>2026-05-02T11:50:30.001Z</time></trkpt><trkpt lat="46.04063154030563" lon="11.73797175038401"><ele>553.25</ele><time>2026-05-02T11:50:31.001Z</time></trkpt><trkpt lat="46.04062682371585" lon="11.738174416832752"><ele>554.5</ele><time>2026-05-02T11:50:32.001Z</time></trkpt><trkpt lat="46.040618665366715" lon="11.738372132112888"><ele>555.75</ele><time>2026-05-02T11:50:33.001Z</time></trkpt><trkpt lat="46.04061141473385" lon="11.73856068934558"><ele>557.0</ele><time>2026-05-02T11:50:34.001Z</time></trkpt><trkpt lat="46.04060027357529" lon="11.73873919732271"><ele>557.6</ele><time>2026-05-02T11:50:35.001Z</time></trkpt><trkpt lat="46.040593472344774" lon="11.738911360374184"><ele>558.2</ele><time>2026-05-02T11:50:36.001Z</time></trkpt><trkpt lat="46.04058763168105" lon="11.739071948844478"><ele>558.8</ele><time>2026-05-02T11:50:37.001Z</time></trkpt><trkpt lat="46.04057036604792" lon="11.73922061660038"><ele>559.4</ele><time>2026-05-02T11:50:38.001Z</time></trkpt><trkpt lat="46.04055965384641" lon="11.739357783210595"><ele>560.0</ele><time>2026-05-02T11:50:39.001Z</time></trkpt><trkpt lat="46.040522664541264" lon="11.739477652012994"><ele>562.0</ele><time>2026-05-02T11:50:40.001Z</time></trkpt><trkpt lat="46.04049328113244" lon="11.739579612869559"><ele>564.0</ele><time>2026-05-02T11:50:41.001Z</time></trkpt><trkpt lat="46.04047510542389" lon="11.739686414772551"><ele>566.0</ele><time>2026-05-02T11:50:42.001Z</time></trkpt><trkpt lat="46.04043651101798" lon="11.739778062533686"><ele>568.0</ele><time>2026-05-02T11:50:43.001Z</time></trkpt><trkpt lat="46.04039611432808" lon="11.739887531851537"><ele>570.0</ele><time>2026-05-02T11:50:44.001Z</time></trkpt><trkpt lat="46.04035811402325" lon="11.74000572152569"><ele>572.0</ele><time>2026-05-02T11:50:45.001Z</time></trkpt><trkpt lat="46.04031309385118" lon="11.740135272836447"><ele>573.8000000000001</ele><time>2026-05-02T11:50:46.001Z</time></trkpt><trkpt lat="46.04027501573086" lon="11.740271981005327"><ele>575.6</ele><time>2026-05-02T11:50:47.001Z</time></trkpt><trkpt lat="46.04023678380213" lon="11.740413335452818"><ele>577.4000000000001</ele><time>2026-05-02T11:50:48.001Z</time></trkpt><trkpt lat="46.04021016062719" lon="11.74055329535615"><ele>579.2</ele><time>2026-05-02T11:50:49.001Z</time></trkpt><trkpt lat="46.04018897301728" lon="11.740689564540402"><ele>581.0</ele><time>2026-05-02T11:50:50.001Z</time></trkpt><trkpt lat="46.04018708765449" lon="11.740825501885247"><ele>581.0</ele><time>2026-05-02T11:50:51.001Z</time></trkpt><trkpt lat="46.040195380713165" lon="11.740969531765787"><ele>581.0</ele><time>2026-05-02T11:50:52.001Z</time></trkpt><trkpt lat="46.040203264867976" lon="11.741117112129336"><ele>581.0</ele><time>2026-05-02T11:50:53.001Z</time></trkpt><trkpt lat="46.040227077552785" lon="11.741266106155573"><ele>581.0</ele><time>2026-05-02T11:50:54.001Z</time></trkpt><trkpt lat="46.040269425396616" lon="11.741409645090327"><ele>581.0</ele><time>2026-05-02T11:50:55.001Z</time></trkpt><trkpt lat="46.04032738411557" lon="11.74153493754037"><ele>580.0</ele><time>2026-05-02T11:50:56.001Z</time></trkpt><trkpt lat="46.04039364503" lon="11.741646581986561"><ele>579.0</ele><time>2026-05-02T11:50:57.001Z</time></trkpt><trkpt lat="46.0404739039167" lon="11.741736506173023"><ele>578.0</ele><time>2026-05-02T11:50:58.001Z</time></trkpt><trkpt lat="46.040555810453355" lon="11.74181293075159"><ele>577.0</ele><time>2026-05-02T11:50:59.001Z</time></trkpt><trkpt lat="46.04063022703699" lon="11.741878979643879"><ele>576.0</ele><time>2026-05-02T11:51:00.001Z</time></trkpt><trkpt lat="46.04069882487295" lon="11.741899102045805"><ele>575.4</ele><time>2026-05-02T11:51:01.001Z</time></trkpt><trkpt lat="46.040773421446886" lon="11.74189329933926"><ele>574.8</ele><time>2026-05-02T11:51:02.001Z</time></trkpt><trkpt lat="46.040853577666425" lon="11.741869760611754"><ele>574.1999999999999</ele><time>2026-05-02T11:51:03.001Z</time></trkpt><trkpt lat="46.040945555613746" lon="11.741840412411563"><ele>573.6</ele><time>2026-05-02T11:51:04.001Z</time></trkpt><trkpt lat="46.04104665475552" lon="11.741806000508394"><ele>573.0</ele><time>2026-05-02T11:51:05.001Z</time></trkpt><trkpt lat="46.04114414896867" lon="11.741777147168879"><ele>573.0</ele><time>2026-05-02T11:51:06.001Z</time></trkpt><trkpt lat="46.04123831881395" lon="11.74175249524109"><ele>573.0</ele><time>2026-05-02T11:51:07.001Z</time></trkpt><trkpt lat="46.04133246561636" lon="11.741738205449751"><ele>573.0</ele><time>2026-05-02T11:51:08.001Z</time></trkpt><trkpt lat="46.0414235626803" lon="11.741740486698307"><ele>573.0</ele><time>2026-05-02T11:51:09.001Z</time></trkpt><trkpt lat="46.041514434006004" lon="11.741764820462093"><ele>573.0</ele><time>2026-05-02T11:51:10.001Z</time></trkpt><trkpt lat="46.04160695473385" lon="11.741802824918265"><ele>573.75</ele><time>2026-05-02T11:51:11.001Z</time></trkpt><trkpt lat="46.04170295215507" lon="11.741861061963716"><ele>574.5</ele><time>2026-05-02T11:51:12.001Z</time></trkpt><trkpt lat="46.041810763480775" lon="11.741930301018236"><ele>575.25</ele><time>2026-05-02T11:51:13.001Z</time></trkpt><trkpt lat="46.041925052825924" lon="11.742005932298895"><ele>576.0</ele><time>2026-05-02T11:51:14.001Z</time></trkpt><trkpt lat="46.04203781297863" lon="11.742077889114928"><ele>573.0</ele><time>2026-05-02T11:51:15.001Z</time></trkpt><trkpt lat="46.04215009474888" lon="11.742141607420113"><ele>570.0</ele><time>2026-05-02T11:51:16.001Z</time></trkpt><trkpt lat="46.04225713240641" lon="11.742193769609209"><ele>567.0</ele><time>2026-05-02T11:51:17.001Z</time></trkpt><trkpt lat="46.04236009474799" lon="11.742248641122343"><ele>564.0</ele><time>2026-05-02T11:51:18.001Z</time></trkpt><trkpt lat="46.04246228919271" lon="11.74228733839335"><ele>561.0</ele><time>2026-05-02T11:51:19.001Z</time></trkpt><trkpt lat="46.04256020191649" lon="11.742324666357357"><ele>561.0</ele><time>2026-05-02T11:51:20.001Z</time></trkpt><trkpt lat="46.04265630425327" lon="11.742366163449278"><ele>561.0</ele><time>2026-05-02T11:51:21.001Z</time></trkpt><trkpt lat="46.042749262562715" lon="11.742405896384781"><ele>561.0</ele><time>2026-05-02T11:51:22Z</time></trkpt><trkpt lat="46.042840422926254" lon="11.742445690810877"><ele>561.0</ele><time>2026-05-02T11:51:23Z</time></trkpt><trkpt lat="46.04292777717884" lon="11.742478148307901"><ele>561.0</ele><time>2026-05-02T11:51:24Z</time></trkpt><trkpt lat="46.04301430206404" lon="11.742502854385329"><ele>561.0</ele><time>2026-05-02T11:51:25Z</time></trkpt><trkpt lat="46.04310244228249" lon="11.742509872278669"><ele>561.0</ele><time>2026-05-02T11:51:26Z</time></trkpt><trkpt lat="46.0431815770739" lon="11.742495949089108"><ele>561.0</ele><time>2026-05-02T11:51:27Z</time></trkpt><trkpt lat="46.04328339939104" lon="11.742482204991385"><ele>561.0</ele><time>2026-05-02T11:51:29Z</time></trkpt><trkpt lat="46.04319377596581" lon="11.742532711890462"><ele>561.0</ele><time>2026-05-02T11:51:34Z</time></trkpt><trkpt lat="46.04311480441534" lon="11.742589230693214"><ele>561.0</ele><time>2026-05-02T11:51:36Z</time></trkpt><trkpt lat="46.04305178115801" lon="11.742577074942067"><ele>561.0</ele><time>2026-05-02T11:51:37Z</time></trkpt><trkpt lat="46.04296790688296" lon="11.742558721907118"><ele>561.0</ele><time>2026-05-02T11:51:38Z</time></trkpt><trkpt lat="46.04287052702417" lon="11.742539555871176"><ele>561.0</ele><time>2026-05-02T11:51:39Z</time></trkpt><trkpt lat="46.04276047022781" lon="11.742520426779825"><ele>561.0</ele><time>2026-05-02T11:51:40Z</time></trkpt><trkpt lat="46.042636464753734" lon="11.742500155292381"><ele>561.0</ele><time>2026-05-02T11:51:41Z</time></trkpt><trkpt lat="46.042505105764" lon="11.742479826044722"><ele>561.0</ele><time>2026-05-02T11:51:42Z</time></trkpt><trkpt lat="46.042370548535025" lon="11.742456178755202"><ele>561.0</ele><time>2026-05-02T11:51:43Z</time></trkpt><trkpt lat="46.04224435695864" lon="11.742434523219746"><ele>561.0</ele><time>2026-05-02T11:51:44Z</time></trkpt><trkpt lat="46.04212293350582" lon="11.742420690401833"><ele>559.6</ele><time>2026-05-02T11:51:45Z</time></trkpt><trkpt lat="46.0420056593616" lon="11.742413790864386"><ele>558.2</ele><time>2026-05-02T11:51:46Z</time></trkpt><trkpt lat="46.04189782231148" lon="11.742449825679858"><ele>556.8</ele><time>2026-05-02T11:51:47Z</time></trkpt><trkpt lat="46.041800475266186" lon="11.742522339884937"><ele>555.4</ele><time>2026-05-02T11:51:48Z</time></trkpt><trkpt lat="46.04170933459116" lon="11.742590686264135"><ele>554.0</ele><time>2026-05-02T11:51:49Z</time></trkpt><trkpt lat="46.04164066283565" lon="11.742670479917965"><ele>552.4</ele><time>2026-05-02T11:51:50Z</time></trkpt><trkpt lat="46.041553742746395" lon="11.742777099620826"><ele>550.8</ele><time>2026-05-02T11:51:52Z</time></trkpt><trkpt lat="46.04149588110439" lon="11.742852217613871"><ele>549.2</ele><time>2026-05-02T11:51:54Z</time></trkpt><trkpt lat="46.041431544231884" lon="11.742935244528645"><ele>547.6</ele><time>2026-05-02T11:53:13.001Z</time></trkpt><trkpt lat="46.04138014281426" lon="11.743027348615573"><ele>546.0</ele><time>2026-05-02T11:53:14.001Z</time></trkpt><trkpt lat="46.04130666935927" lon="11.74310546739481"><ele>546.0</ele><time>2026-05-02T11:53:15.001Z</time></trkpt><trkpt lat="46.04121088147256" lon="11.743168831339649"><ele>546.0</ele><time>2026-05-02T11:53:16.001Z</time></trkpt><trkpt lat="46.041113864198394" lon="11.743244511560237"><ele>546.0</ele><time>2026-05-02T11:53:17.001Z</time></trkpt><trkpt lat="46.041015437573385" lon="11.743308324275263"><ele>546.0</ele><time>2026-05-02T11:53:18.001Z</time></trkpt><trkpt lat="46.04091370228829" lon="11.74337742180167"><ele>546.0</ele><time>2026-05-02T11:53:19.001Z</time></trkpt><trkpt lat="46.04083519787434" lon="11.743466678200935"><ele>544.6</ele><time>2026-05-02T11:53:20.001Z</time></trkpt><trkpt lat="46.040762596520004" lon="11.743499689309251"><ele>543.2</ele><time>2026-05-02T11:53:21.001Z</time></trkpt><trkpt lat="46.04066227889097" lon="11.743439494993979"><ele>541.8</ele><time>2026-05-02T11:53:23.001Z</time></trkpt><trkpt lat="46.04059725211672" lon="11.743379777376513"><ele>540.4</ele><time>2026-05-02T11:53:24.001Z</time></trkpt><trkpt lat="46.04051120880105" lon="11.743269604224643"><ele>539.0</ele><time>2026-05-02T11:53:25.001Z</time></trkpt><trkpt lat="46.04041804126692" lon="11.743172167967447"><ele>539.0</ele><time>2026-05-02T11:53:26.001Z</time></trkpt><trkpt lat="46.040324515968685" lon="11.743098414026964"><ele>539.0</ele><time>2026-05-02T11:53:27.001Z</time></trkpt><trkpt lat="46.04021286618672" lon="11.743045964818736"><ele>539.0</ele><time>2026-05-02T11:53:28Z</time></trkpt><trkpt lat="46.0400835706402" lon="11.74302281600587"><ele>539.0</ele><time>2026-05-02T11:53:29Z</time></trkpt><trkpt lat="46.039956156313366" lon="11.74301086904768"><ele>540.5</ele><time>2026-05-02T11:53:30Z</time></trkpt><trkpt lat="46.03984223911052" lon="11.74300051450774"><ele>542.0</ele><time>2026-05-02T11:53:31Z</time></trkpt><trkpt lat="46.039732365472354" lon="11.7429974766187"><ele>543.5</ele><time>2026-05-02T11:53:32Z</time></trkpt><trkpt lat="46.039617119870876" lon="11.743048491761057"><ele>545.0</ele><time>2026-05-02T11:53:33Z</time></trkpt><trkpt lat="46.03950258332069" lon="11.74312033195746"><ele>545.0</ele><time>2026-05-02T11:53:34Z</time></trkpt><trkpt lat="46.03938378082805" lon="11.743203832928685"><ele>545.0</ele><time>2026-05-02T11:53:35Z</time></trkpt><trkpt lat="46.039271661605355" lon="11.743269599749848"><ele>545.0</ele><time>2026-05-02T11:53:36Z</time></trkpt><trkpt lat="46.039178174847805" lon="11.743358310220131"><ele>545.0</ele><time>2026-05-02T11:53:37Z</time></trkpt><trkpt lat="46.039085417670165" lon="11.743430714725339"><ele>544.8</ele><time>2026-05-02T11:53:38Z</time></trkpt><trkpt lat="46.0389911938419" lon="11.743479068459814"><ele>544.6</ele><time>2026-05-02T11:53:39Z</time></trkpt><trkpt lat="46.03889558372982" lon="11.74351434161597"><ele>544.4</ele><time>2026-05-02T11:53:40Z</time></trkpt><trkpt lat="46.038805991620265" lon="11.743529822060504"><ele>544.2</ele><time>2026-05-02T11:53:41Z</time></trkpt><trkpt lat="46.038718551767964" lon="11.743540241439344"><ele>544.0</ele><time>2026-05-02T11:53:42Z</time></trkpt><trkpt lat="46.03863738186272" lon="11.74355110409752"><ele>540.8</ele><time>2026-05-02T11:53:43Z</time></trkpt><trkpt lat="46.03855827269472" lon="11.743561460031069"><ele>537.5999999999999</ele><time>2026-05-02T11:53:44Z</time></trkpt><trkpt lat="46.038449945012566" lon="11.743579515606829"><ele>534.4</ele><time>2026-05-02T11:53:45Z</time></trkpt><trkpt lat="46.038330163727835" lon="11.743607641410453"><ele>531.1999999999999</ele><time>2026-05-02T11:53:46Z</time></trkpt><trkpt lat="46.038202068771255" lon="11.743633350125094"><ele>528.0</ele><time>2026-05-02T11:53:47Z</time></trkpt><trkpt lat="46.03808351301691" lon="11.74365454358416"><ele>528.0</ele><time>2026-05-02T11:53:48Z</time></trkpt><trkpt lat="46.0379690575747" lon="11.743662216462988"><ele>528.0</ele><time>2026-05-02T11:53:49Z</time></trkpt><trkpt lat="46.0378461548849" lon="11.74365879755407"><ele>528.0</ele><time>2026-05-02T11:53:50Z</time></trkpt><trkpt lat="46.03772135333241" lon="11.743637608242386"><ele>528.0</ele><time>2026-05-02T11:53:51Z</time></trkpt><trkpt lat="46.037597501234" lon="11.743589330085111"><ele>527.25</ele><time>2026-05-02T11:53:52Z</time></trkpt><trkpt lat="46.03747264505421" lon="11.743525193868253"><ele>526.5</ele><time>2026-05-02T11:53:53Z</time></trkpt><trkpt lat="46.03735283272507" lon="11.74346274018203"><ele>525.75</ele><time>2026-05-02T11:53:54Z</time></trkpt><trkpt lat="46.03724068931702" lon="11.743405458654296"><ele>525.0</ele><time>2026-05-02T11:53:55Z</time></trkpt><trkpt lat="46.03713490516195" lon="11.743342940357588"><ele>525.0</ele><time>2026-05-02T11:53:56Z</time></trkpt><trkpt lat="46.037030406220396" lon="11.743290151979824"><ele>525.0</ele><time>2026-05-02T11:53:57Z</time></trkpt><trkpt lat="46.03694394649419" lon="11.743247921048717"><ele>525.0</ele><time>2026-05-02T11:53:58Z</time></trkpt><trkpt lat="46.03687624057116" lon="11.743206199054463"><ele>525.0</ele><time>2026-05-02T11:53:59Z</time></trkpt><trkpt lat="46.03682604483771" lon="11.743142631436752"><ele>525.0</ele><time>2026-05-02T11:54:00Z</time></trkpt><trkpt lat="46.03685014090373" lon="11.742977840408118"><ele>525.0</ele><time>2026-05-02T11:54:02Z</time></trkpt><trkpt lat="46.036903355421146" lon="11.742873387833669"><ele>525.0</ele><time>2026-05-02T11:54:03Z</time></trkpt><trkpt lat="46.03696038050714" lon="11.742756143618875"><ele>525.0</ele><time>2026-05-02T11:54:04Z</time></trkpt><trkpt lat="46.03700588079791" lon="11.742617077045809"><ele>525.0</ele><time>2026-05-02T11:54:05Z</time></trkpt><trkpt lat="46.03702049619924" lon="11.742449874385354"><ele>525.0</ele><time>2026-05-02T11:54:06Z</time></trkpt><trkpt lat="46.03701131041174" lon="11.742285866060557"><ele>524.8333333333334</ele><time>2026-05-02T11:54:07Z</time></trkpt><trkpt lat="46.03699863415903" lon="11.742132317363337"><ele>524.6666666666666</ele><time>2026-05-02T11:54:08Z</time></trkpt><trkpt lat="46.03698688303852" lon="11.741988834463333"><ele>524.5</ele><time>2026-05-02T11:54:09Z</time></trkpt><trkpt lat="46.03697491541776" lon="11.741853931661284"><ele>524.3333333333333</ele><time>2026-05-02T11:54:10Z</time></trkpt><trkpt lat="46.03696528913103" lon="11.741737583508183"><ele>524.1666666666666</ele><time>2026-05-02T11:54:11Z</time></trkpt><trkpt lat="46.03695562269434" lon="11.741645527291492"><ele>524.0</ele><time>2026-05-02T11:54:12Z</time></trkpt><trkpt lat="46.036881583078205" lon="11.741536523263134"><ele>524.0</ele><time>2026-05-02T11:54:14Z</time></trkpt><trkpt lat="46.03681177264446" lon="11.741621442452642"><ele>524.0</ele><time>2026-05-02T11:54:16Z</time></trkpt><trkpt lat="46.03680681771113" lon="11.741725792747065"><ele>524.0</ele><time>2026-05-02T11:54:17Z</time></trkpt><trkpt lat="46.036821748625584" lon="11.741850583526919"><ele>524.0</ele><time>2026-05-02T11:54:18Z</time></trkpt><trkpt lat="46.036828966320634" lon="11.742000317921807"><ele>524.0</ele><time>2026-05-02T11:54:19Z</time></trkpt><trkpt lat="46.036817269095685" lon="11.742154753370945"><ele>524.0</ele><time>2026-05-02T11:54:20Z</time></trkpt><trkpt lat="46.03676552917105" lon="11.742293718137644"><ele>524.0</ele><time>2026-05-02T11:54:21Z</time></trkpt><trkpt lat="46.03673353821842" lon="11.742434917003456"><ele>524.0</ele><time>2026-05-02T11:54:22.001Z</time></trkpt><trkpt lat="46.03666774064051" lon="11.742541521963286"><ele>524.0</ele><time>2026-05-02T11:54:23.001Z</time></trkpt><trkpt lat="46.03657294852185" lon="11.742587013972692"><ele>524.0</ele><time>2026-05-02T11:54:24.001Z</time></trkpt><trkpt lat="46.03646742922911" lon="11.742608537636276"><ele>520.75</ele><time>2026-05-02T11:54:25.001Z</time></trkpt><trkpt lat="46.03635585586396" lon="11.742670730906834"><ele>517.5</ele><time>2026-05-02T11:54:26.001Z</time></trkpt><trkpt lat="46.03623507829591" lon="11.742702363146705"><ele>514.25</ele><time>2026-05-02T11:54:27.001Z</time></trkpt><trkpt lat="46.03612750789597" lon="11.742740146446023"><ele>511.0</ele><time>2026-05-02T11:54:28.001Z</time></trkpt><trkpt lat="46.03602899569329" lon="11.742778020522861"><ele>511.00000000000006</ele><time>2026-05-02T11:54:29.001Z</time></trkpt><trkpt lat="46.03593570517136" lon="11.742808759640667"><ele>511.0</ele><time>2026-05-02T11:54:30.001Z</time></trkpt><trkpt lat="46.035853479619426" lon="11.742850329481232"><ele>511.0</ele><time>2026-05-02T11:54:31.001Z</time></trkpt><trkpt lat="46.035799485870726" lon="11.742926953748595"><ele>511.0</ele><time>2026-05-02T11:54:32.001Z</time></trkpt><trkpt lat="46.035772495843965" lon="11.743037497214262"><ele>511.00000000000006</ele><time>2026-05-02T11:54:33.001Z</time></trkpt><trkpt lat="46.03578500444584" lon="11.743162568799566"><ele>511.0</ele><time>2026-05-02T11:54:34.001Z</time></trkpt><trkpt lat="46.03581505600991" lon="11.743265907852717"><ele>511.00000000000006</ele><time>2026-05-02T11:54:35.001Z</time></trkpt><trkpt lat="46.03586417371814" lon="11.743344865673324"><ele>511.0</ele><time>2026-05-02T11:54:36.001Z</time></trkpt><trkpt lat="46.03592453430727" lon="11.743431371347667"><ele>511.0</ele><time>2026-05-02T11:54:37.001Z</time></trkpt><trkpt lat="46.0359796033745" lon="11.74352822315507"><ele>511.0</ele><time>2026-05-02T11:54:38.001Z</time></trkpt><trkpt lat="46.0360274348571" lon="11.743627671069197"><ele>511.00000000000006</ele><time>2026-05-02T11:54:39.001Z</time></trkpt><trkpt lat="46.036067651862226" lon="11.743702139482115"><ele>511.0</ele><time>2026-05-02T11:54:40.001Z</time></trkpt><trkpt lat="46.036122148589534" lon="11.743815807114192"><ele>510.0</ele><time>2026-05-02T11:54:42.001Z</time></trkpt><trkpt lat="46.035941186136945" lon="11.7438632262773"><ele>509.0</ele><time>2026-05-02T11:54:45.001Z</time></trkpt><trkpt lat="46.03585649111078" lon="11.743841688282279"><ele>508.0</ele><time>2026-05-02T11:54:46.001Z</time></trkpt><trkpt lat="46.035763087110745" lon="11.743821087167637"><ele>507.0</ele><time>2026-05-02T11:54:47.001Z</time></trkpt><trkpt lat="46.035659792695476" lon="11.743789651209463"><ele>505.6666666666667</ele><time>2026-05-02T11:54:48.001Z</time></trkpt><trkpt lat="46.03556486540373" lon="11.743769996701412"><ele>504.33333333333337</ele><time>2026-05-02T11:54:49.001Z</time></trkpt><trkpt lat="46.03549312291018" lon="11.74375433952848"><ele>503.0</ele><time>2026-05-02T11:54:50.001Z</time></trkpt><trkpt lat="46.0354213261124" lon="11.743695327766247"><ele>501.6666666666667</ele><time>2026-05-02T11:54:52.001Z</time></trkpt><trkpt lat="46.035388007712776" lon="11.743857215015616"><ele>500.33333333333337</ele><time>2026-05-02T11:54:56.001Z</time></trkpt><trkpt lat="46.03542542907869" lon="11.74394370012946"><ele>499.0</ele><time>2026-05-02T11:54:57.001Z</time></trkpt><trkpt lat="46.03544512739967" lon="11.744038241935076"><ele>499.00000000000006</ele><time>2026-05-02T11:54:58.001Z</time></trkpt><trkpt lat="46.03545767297814" lon="11.744139893735483"><ele>499.0</ele><time>2026-05-02T11:54:59.001Z</time></trkpt><trkpt lat="46.03548433824125" lon="11.744241098881467"><ele>499.0</ele><time>2026-05-02T11:55:00.001Z</time></trkpt><trkpt lat="46.035531923302905" lon="11.74433984470159"><ele>499.0</ele><time>2026-05-02T11:55:01.001Z</time></trkpt><trkpt lat="46.03558584667041" lon="11.744424351496857"><ele>499.00000000000006</ele><time>2026-05-02T11:55:02.001Z</time></trkpt><trkpt lat="46.03565170682001" lon="11.744493720090652"><ele>499.0</ele><time>2026-05-02T11:55:03.001Z</time></trkpt><trkpt lat="46.035725147637294" lon="11.74456154603643"><ele>499.0</ele><time>2026-05-02T11:55:04.001Z</time></trkpt><trkpt lat="46.0357978480641" lon="11.744652895345986"><ele>499.0</ele><time>2026-05-02T11:55:05.001Z</time></trkpt><trkpt lat="46.035863727165534" lon="11.744771009734803"><ele>499.0</ele><time>2026-05-02T11:55:06.001Z</time></trkpt><trkpt lat="46.03589904807705" lon="11.744920186626237"><ele>499.0</ele><time>2026-05-02T11:55:07.001Z</time></trkpt><trkpt lat="46.03594003859617" lon="11.745064492229309"><ele>499.0</ele><time>2026-05-02T11:55:08.001Z</time></trkpt><trkpt lat="46.035947973804" lon="11.745220713934122"><ele>496.4</ele><time>2026-05-02T11:55:09.001Z</time></trkpt><trkpt lat="46.03594917311577" lon="11.745373844348745"><ele>493.79999999999995</ele><time>2026-05-02T11:55:10.001Z</time></trkpt><trkpt lat="46.03595602207969" lon="11.745513895968452"><ele>491.20000000000005</ele><time>2026-05-02T11:55:11.001Z</time></trkpt><trkpt lat="46.03598828545853" lon="11.74562951238438"><ele>488.6</ele><time>2026-05-02T11:55:12.001Z</time></trkpt><trkpt lat="46.03607007490833" lon="11.745715623225436"><ele>486.0</ele><time>2026-05-02T11:55:13.001Z</time></trkpt><trkpt lat="46.03616279402722" lon="11.745749328143088"><ele>486.0</ele><time>2026-05-02T11:55:14.001Z</time></trkpt><trkpt lat="46.036243187204064" lon="11.745713226006016"><ele>486.0</ele><time>2026-05-02T11:55:15.001Z</time></trkpt><trkpt lat="46.036300162277655" lon="11.745627688487888"><ele>486.0</ele><time>2026-05-02T11:55:16.001Z</time></trkpt><trkpt lat="46.036380735234005" lon="11.745561212997222"><ele>486.0</ele><time>2026-05-02T11:55:17.001Z</time></trkpt><trkpt lat="46.036450516100196" lon="11.745498408057957"><ele>486.0</ele><time>2026-05-02T11:55:18.001Z</time></trkpt><trkpt lat="46.03653298722585" lon="11.745537051567778"><ele>486.0</ele><time>2026-05-02T11:55:19.001Z</time></trkpt><trkpt lat="46.036600952131245" lon="11.745580390924767"><ele>488.8333333333333</ele><time>2026-05-02T11:55:20.001Z</time></trkpt><trkpt lat="46.03666928379006" lon="11.745610454814935"><ele>491.66666666666663</ele><time>2026-05-02T11:55:21.001Z</time></trkpt><trkpt lat="46.03673061788369" lon="11.745661789963133"><ele>494.5</ele><time>2026-05-02T11:55:22.001Z</time></trkpt><trkpt lat="46.0367924452566" lon="11.74572627583177"><ele>497.3333333333333</ele><time>2026-05-02T11:55:23.001Z</time></trkpt><trkpt lat="46.03682580188837" lon="11.745809332549767"><ele>500.16666666666663</ele><time>2026-05-02T11:55:24.001Z</time></trkpt><trkpt lat="46.03681759785933" lon="11.745903769993513"><ele>503.0</ele><time>2026-05-02T11:55:25.001Z</time></trkpt><trkpt lat="46.03673748074837" lon="11.746035689301277"><ele>504.4</ele><time>2026-05-02T11:55:27.001Z</time></trkpt><trkpt lat="46.036642299457284" lon="11.746065872686971"><ele>505.79999999999995</ele><time>2026-05-02T11:55:29.001Z</time></trkpt><trkpt lat="46.03656429289506" lon="11.74612026889354"><ele>507.2</ele><time>2026-05-02T11:55:42Z</time></trkpt><trkpt lat="46.03646958399862" lon="11.746255117700127"><ele>508.6</ele><time>2026-05-02T11:55:44Z</time></trkpt><trkpt lat="46.03642033641085" lon="11.746326406060508"><ele>510.0</ele><time>2026-05-02T11:55:45Z</time></trkpt><trkpt lat="46.03636431244993" lon="11.746417240697602"><ele>504.4</ele><time>2026-05-02T11:55:46Z</time></trkpt><trkpt lat="46.03630158715845" lon="11.746533107235132"><ele>498.8</ele><time>2026-05-02T11:55:47Z</time></trkpt><trkpt lat="46.03625233639149" lon="11.746658259501073"><ele>493.20000000000005</ele><time>2026-05-02T11:55:48Z</time></trkpt><trkpt lat="46.03622712417246" lon="11.746805767173198"><ele>487.6</ele><time>2026-05-02T11:55:49Z</time></trkpt><trkpt lat="46.03623686876364" lon="11.746962264472677"><ele>482.0</ele><time>2026-05-02T11:55:50Z</time></trkpt><trkpt lat="46.03627837139275" lon="11.747102275588759"><ele>482.0</ele><time>2026-05-02T11:55:51Z</time></trkpt><trkpt lat="46.03632572814445" lon="11.747225792760142"><ele>482.00000000000006</ele><time>2026-05-02T11:55:52Z</time></trkpt><trkpt lat="46.036340754079085" lon="11.747352841995983"><ele>482.00000000000006</ele><time>2026-05-02T11:55:53Z</time></trkpt><trkpt lat="46.036302965848" lon="11.747469680749273"><ele>482.0</ele><time>2026-05-02T11:55:54Z</time></trkpt><trkpt lat="46.036224591420805" lon="11.747566498725364"><ele>482.0</ele><time>2026-05-02T11:55:55Z</time></trkpt><trkpt lat="46.036120877736735" lon="11.747565933072366"><ele>482.0</ele><time>2026-05-02T11:55:56Z</time></trkpt><trkpt lat="46.0360172531796" lon="11.747639814125936"><ele>482.0</ele><time>2026-05-02T11:55:57Z</time></trkpt><trkpt lat="46.03591349591229" lon="11.747755849651973"><ele>482.0</ele><time>2026-05-02T11:55:58Z</time></trkpt><trkpt lat="46.0358087478586" lon="11.747892222818843"><ele>482.0</ele><time>2026-05-02T11:55:59Z</time></trkpt><trkpt lat="46.03570167183315" lon="11.74804451316114"><ele>478.5</ele><time>2026-05-02T11:56:00Z</time></trkpt><trkpt lat="46.035605008397674" lon="11.748194267678407"><ele>475.0</ele><time>2026-05-02T11:56:01Z</time></trkpt><trkpt lat="46.035520443399896" lon="11.748344314998185"><ele>471.5</ele><time>2026-05-02T11:56:02Z</time></trkpt><trkpt lat="46.03544843449618" lon="11.748517581481702"><ele>468.0</ele><time>2026-05-02T11:56:03Z</time></trkpt><trkpt lat="46.03539053375304" lon="11.748709687846533"><ele>468.0</ele><time>2026-05-02T11:56:04Z</time></trkpt><trkpt lat="46.03536410908961" lon="11.748923542874492"><ele>468.0</ele><time>2026-05-02T11:56:05Z</time></trkpt><trkpt lat="46.03535825588939" lon="11.749129870581022"><ele>468.0</ele><time>2026-05-02T11:56:06Z</time></trkpt><trkpt lat="46.03535751419022" lon="11.749307788685575"><ele>468.0</ele><time>2026-05-02T11:56:07Z</time></trkpt><trkpt lat="46.03535063785498" lon="11.749467495608128"><ele>468.2</ele><time>2026-05-02T11:56:08Z</time></trkpt><trkpt lat="46.035339260908216" lon="11.749610642776874"><ele>468.4</ele><time>2026-05-02T11:56:09Z</time></trkpt><trkpt lat="46.03531039853361" lon="11.749748424957366"><ele>468.59999999999997</ele><time>2026-05-02T11:56:10Z</time></trkpt><trkpt lat="46.03526893226567" lon="11.749889159949785"><ele>468.79999999999995</ele><time>2026-05-02T11:56:11Z</time></trkpt><trkpt lat="46.03526763704263" lon="11.75004969506888"><ele>469.0</ele><time>2026-05-02T11:56:12Z</time></trkpt><trkpt lat="46.03532231109772" lon="11.750271545037874"><ele>464.6666666666667</ele><time>2026-05-02T11:56:13Z</time></trkpt><trkpt lat="46.035409772387474" lon="11.750530121189753"><ele>460.33333333333337</ele><time>2026-05-02T11:56:14Z</time></trkpt><trkpt lat="46.03551934399413" lon="11.750798288935831"><ele>456.0</ele><time>2026-05-02T11:56:15Z</time></trkpt><trkpt lat="46.03562240411271" lon="11.751049868256178"><ele>454.33333333333337</ele><time>2026-05-02T11:56:16Z</time></trkpt><trkpt lat="46.035711679332856" lon="11.751280632878895"><ele>452.6666666666667</ele><time>2026-05-02T11:56:17Z</time></trkpt><trkpt lat="46.03578918664254" lon="11.751500643767534"><ele>451.0</ele><time>2026-05-02T11:56:18Z</time></trkpt><trkpt lat="46.03585704690704" lon="11.751719229553759"><ele>458.33333333333337</ele><time>2026-05-02T11:56:19Z</time></trkpt><trkpt lat="46.035910436732536" lon="11.75194250522023"><ele>465.66666666666663</ele><time>2026-05-02T11:56:20Z</time></trkpt><trkpt lat="46.03595678472446" lon="11.752160890105813"><ele>473.0</ele><time>2026-05-02T11:56:21Z</time></trkpt><trkpt lat="46.03600382856076" lon="11.752375609765052"><ele>473.0</ele><time>2026-05-02T11:56:22Z</time></trkpt><trkpt lat="46.0360480006778" lon="11.752578761660944"><ele>473.0</ele><time>2026-05-02T11:56:23Z</time></trkpt><trkpt lat="46.036081526674465" lon="11.752781840550439"><ele>473.0</ele><time>2026-05-02T11:56:24Z</time></trkpt><trkpt lat="46.036111247764815" lon="11.752980090613551"><ele>473.0</ele><time>2026-05-02T11:56:25Z</time></trkpt><trkpt lat="46.0361062130352" lon="11.753175977002298"><ele>471.75</ele><time>2026-05-02T11:56:26Z</time></trkpt><trkpt lat="46.036069207961745" lon="11.753361846280335"><ele>470.5</ele><time>2026-05-02T11:56:27Z</time></trkpt><trkpt lat="46.036013308212446" lon="11.753541349683456"><ele>469.25</ele><time>2026-05-02T11:56:28Z</time></trkpt><trkpt lat="46.035929759102665" lon="11.753709990710556"><ele>468.0</ele><time>2026-05-02T11:56:29Z</time></trkpt><trkpt lat="46.035869878743995" lon="11.753881600673864"><ele>468.0</ele><time>2026-05-02T11:56:30Z</time></trkpt><trkpt lat="46.035836064359344" lon="11.754054458598077"><ele>468.0</ele><time>2026-05-02T11:56:31Z</time></trkpt><trkpt lat="46.0358172815455" lon="11.754213857262071"><ele>468.0</ele><time>2026-05-02T11:56:32Z</time></trkpt><trkpt lat="46.03577911632989" lon="11.754361653748289"><ele>468.0</ele><time>2026-05-02T11:56:33Z</time></trkpt><trkpt lat="46.035679478733165" lon="11.754484757716943"><ele>465.66666666666663</ele><time>2026-05-02T11:56:34Z</time></trkpt><trkpt lat="46.03554799134011" lon="11.754572555202559"><ele>463.3333333333333</ele><time>2026-05-02T11:56:35Z</time></trkpt><trkpt lat="46.035399664747594" lon="11.754652092717066"><ele>461.0</ele><time>2026-05-02T11:56:36Z</time></trkpt><trkpt lat="46.035258211845324" lon="11.754752213987036"><ele>461.0</ele><time>2026-05-02T11:56:37Z</time></trkpt><trkpt lat="46.035128518191584" lon="11.754846095043666"><ele>461.0</ele><time>2026-05-02T11:56:38Z</time></trkpt><trkpt lat="46.03500364250334" lon="11.754936213714682"><ele>461.0</ele><time>2026-05-02T11:56:39Z</time></trkpt><trkpt lat="46.03488382476262" lon="11.755020688687816"><ele>461.0</ele><time>2026-05-02T11:56:40Z</time></trkpt><trkpt lat="46.03476631544607" lon="11.755099098159004"><ele>460.25</ele><time>2026-05-02T11:56:41.001Z</time></trkpt><trkpt lat="46.034657020424916" lon="11.755181078540195"><ele>459.5</ele><time>2026-05-02T11:56:42.001Z</time></trkpt><trkpt lat="46.034552294631325" lon="11.755255334707785"><ele>458.75</ele><time>2026-05-02T11:56:43.001Z</time></trkpt><trkpt lat="46.034452724480204" lon="11.755326526164051"><ele>458.0</ele><time>2026-05-02T11:56:44.001Z</time></trkpt><trkpt lat="46.03435927189411" lon="11.75538946356549"><ele>458.0</ele><time>2026-05-02T11:56:45.001Z</time></trkpt><trkpt lat="46.03426414919148" lon="11.755451739015996"><ele>457.99999999999994</ele><time>2026-05-02T11:56:46.001Z</time></trkpt><trkpt lat="46.03415714686344" lon="11.755516387448678"><ele>457.99999999999994</ele><time>2026-05-02T11:56:47.001Z</time></trkpt><trkpt lat="46.03405573949668" lon="11.755567127266078"><ele>458.0</ele><time>2026-05-02T11:56:48.001Z</time></trkpt><trkpt lat="46.03396235940411" lon="11.755591312199511"><ele>458.0</ele><time>2026-05-02T11:56:49.001Z</time></trkpt><trkpt lat="46.03387444138585" lon="11.75559599164797"><ele>459.66666666666663</ele><time>2026-05-02T11:56:50.001Z</time></trkpt><trkpt lat="46.03379427301315" lon="11.755600545514941"><ele>461.3333333333333</ele><time>2026-05-02T11:56:51.001Z</time></trkpt><trkpt lat="46.03372871615621" lon="11.755594715158578"><ele>463.0</ele><time>2026-05-02T11:56:52.001Z</time></trkpt><trkpt lat="46.03361330714112" lon="11.755540072635199"><ele>464.66666666666663</ele><time>2026-05-02T11:56:54.001Z</time></trkpt><trkpt lat="46.03355487681682" lon="11.755506304217278"><ele>466.3333333333333</ele><time>2026-05-02T11:56:55.001Z</time></trkpt><trkpt lat="46.033461451280616" lon="11.755458956291427"><ele>468.0</ele><time>2026-05-02T11:56:57.001Z</time></trkpt><trkpt lat="46.0333939368837" lon="11.75539317165619"><ele>468.0</ele><time>2026-05-02T11:56:59.001Z</time></trkpt><trkpt lat="46.03333815172385" lon="11.755324518576268"><ele>468.0</ele><time>2026-05-02T11:57:02.001Z</time></trkpt><trkpt lat="46.03339610708907" lon="11.755409829086233"><ele>468.0</ele><time>2026-05-02T11:57:07.001Z</time></trkpt><trkpt lat="46.03341411360549" lon="11.755515694968189"><ele>468.0</ele><time>2026-05-02T11:57:08.001Z</time></trkpt><trkpt lat="46.03348191887104" lon="11.755553800179246"><ele>468.0</ele><time>2026-05-02T11:57:09.001Z</time></trkpt><trkpt lat="46.03356452685476" lon="11.755593577617589"><ele>468.0</ele><time>2026-05-02T11:57:10.001Z</time></trkpt><trkpt lat="46.03365462979428" lon="11.755618584784353"><ele>468.0</ele><time>2026-05-02T11:57:11.001Z</time></trkpt><trkpt lat="46.03375695076108" lon="11.755631742892218"><ele>467.99999999999994</ele><time>2026-05-02T11:57:12.001Z</time></trkpt><trkpt lat="46.033860041783456" lon="11.755630444131413"><ele>467.99999999999994</ele><time>2026-05-02T11:57:13.001Z</time></trkpt><trkpt lat="46.033951616781536" lon="11.755615560239045"><ele>468.0</ele><time>2026-05-02T11:57:14.001Z</time></trkpt><trkpt lat="46.0340301796103" lon="11.755596460490652"><ele>468.0</ele><time>2026-05-02T11:57:15.001Z</time></trkpt><trkpt lat="46.034112081345036" lon="11.755603021409433"><ele>468.0</ele><time>2026-05-02T11:57:17.001Z</time></trkpt><trkpt lat="46.03409949743081" lon="11.755699267013933"><ele>467.99999999999994</ele><time>2026-05-02T11:57:20.001Z</time></trkpt><trkpt lat="46.03396557325988" lon="11.755791989510042"><ele>467.99999999999994</ele><time>2026-05-02T11:57:24.001Z</time></trkpt><trkpt lat="46.03387953101671" lon="11.755813395410698"><ele>468.0</ele><time>2026-05-02T11:57:25.001Z</time></trkpt><trkpt lat="46.03379517029284" lon="11.755833077181183"><ele>468.0</ele><time>2026-05-02T11:57:26.001Z</time></trkpt><trkpt lat="46.033705808040715" lon="11.755851961428387"><ele>468.0</ele><time>2026-05-02T11:57:27.001Z</time></trkpt><trkpt lat="46.03360417462981" lon="11.755867895657117"><ele>467.99999999999994</ele><time>2026-05-02T11:57:28.001Z</time></trkpt><trkpt lat="46.033494666434066" lon="11.755890348425083"><ele>467.99999999999994</ele><time>2026-05-02T11:57:29.001Z</time></trkpt><trkpt lat="46.03339232221157" lon="11.755920079196008"><ele>468.0</ele><time>2026-05-02T11:57:30.001Z</time></trkpt><trkpt lat="46.03330787966519" lon="11.755946082552166"><ele>468.0</ele><time>2026-05-02T11:57:31.001Z</time></trkpt><trkpt lat="46.03319909798083" lon="11.756002158467064"><ele>468.1666666666667</ele><time>2026-05-02T11:57:33.001Z</time></trkpt><trkpt lat="46.03313052026276" lon="11.756010535380266"><ele>468.33333333333337</ele><time>2026-05-02T11:57:34.001Z</time></trkpt><trkpt lat="46.033039533765546" lon="11.756044315544756"><ele>468.5</ele><time>2026-05-02T11:57:35.001Z</time></trkpt><trkpt lat="46.032963425640155" lon="11.756114208642792"><ele>468.6666666666667</ele><time>2026-05-02T11:57:36.001Z</time></trkpt><trkpt lat="46.03289830613062" lon="11.756192102292193"><ele>468.83333333333337</ele><time>2026-05-02T11:57:37.001Z</time></trkpt><trkpt lat="46.032848296158306" lon="11.756266874424691"><ele>469.0</ele><time>2026-05-02T11:57:38.001Z</time></trkpt><trkpt lat="46.03277904899422" lon="11.75638549721156"><ele>468.0</ele><time>2026-05-02T11:57:40Z</time></trkpt><trkpt lat="46.032727399501745" lon="11.756551300521439"><ele>467.0</ele><time>2026-05-02T11:57:42Z</time></trkpt><trkpt lat="46.032731530206696" lon="11.75669076734077"><ele>466.0</ele><time>2026-05-02T11:57:43Z</time></trkpt><trkpt lat="46.032700652124625" lon="11.756815563884206"><ele>465.0</ele><time>2026-05-02T11:57:44Z</time></trkpt><trkpt lat="46.03268394396484" lon="11.756924952244983"><ele>464.0</ele><time>2026-05-02T11:57:45Z</time></trkpt><trkpt lat="46.0326504610287" lon="11.757020190174007"><ele>463.1428571428572</ele><time>2026-05-02T11:57:46Z</time></trkpt><trkpt lat="46.03259625228961" lon="11.757089030232468"><ele>462.28571428571433</ele><time>2026-05-02T11:57:47Z</time></trkpt><trkpt lat="46.03254201284121" lon="11.75717735013802"><ele>461.42857142857144</ele><time>2026-05-02T11:57:48Z</time></trkpt><trkpt lat="46.03249640975899" lon="11.757270341281618"><ele>460.5714285714286</ele><time>2026-05-02T11:57:49Z</time></trkpt><trkpt lat="46.03243651235743" lon="11.757328121030415"><ele>459.7142857142858</ele><time>2026-05-02T11:57:50Z</time></trkpt><trkpt lat="46.03242944841565" lon="11.757428083569579"><ele>458.85714285714283</ele><time>2026-05-02T11:57:51Z</time></trkpt><trkpt lat="46.03245142575649" lon="11.757514916917238"><ele>458.0</ele><time>2026-05-02T11:57:52Z</time></trkpt><trkpt lat="46.03251885539545" lon="11.75764606334733"><ele>457.99999999999994</ele><time>2026-05-02T11:57:54Z</time></trkpt><trkpt lat="46.03255176811054" lon="11.757723657543808"><ele>458.0</ele><time>2026-05-02T11:57:57Z</time></trkpt><trkpt lat="46.03250572820647" lon="11.757635518963387"><ele>458.0</ele><time>2026-05-02T11:59:03.001Z</time></trkpt><trkpt lat="46.032465613875004" lon="11.757488549864865"><ele>458.0</ele><time>2026-05-02T11:59:05.001Z</time></trkpt><trkpt lat="46.032424555359405" lon="11.757367688305257"><ele>457.99999999999994</ele><time>2026-05-02T11:59:07.001Z</time></trkpt><trkpt lat="46.03240704151798" lon="11.757256122079754"><ele>458.0</ele><time>2026-05-02T11:59:09.001Z</time></trkpt><trkpt lat="46.032635644794404" lon="11.757066795183572"><ele>457.99999999999994</ele><time>2026-05-02T11:59:10.001Z</time></trkpt><trkpt lat="46.03268499428548" lon="11.75697649872411"><ele>458.0</ele><time>2026-05-02T11:59:11.001Z</time></trkpt><trkpt lat="46.0327232990117" lon="11.75687954915043"><ele>458.0</ele><time>2026-05-02T11:59:12.001Z</time></trkpt><trkpt lat="46.03274139801115" lon="11.756769944439725"><ele>458.0</ele><time>2026-05-02T11:59:13.001Z</time></trkpt><trkpt lat="46.032742876880704" lon="11.756662808400934"><ele>457.99999999999994</ele><time>2026-05-02T11:59:14.001Z</time></trkpt><trkpt lat="46.032750590765005" lon="11.756554797961426"><ele>458.0</ele><time>2026-05-02T11:59:15.001Z</time></trkpt><trkpt lat="46.032779113706994" lon="11.756465704137879"><ele>458.99999999999994</ele><time>2026-05-02T11:59:16.001Z</time></trkpt><trkpt lat="46.03286534280989" lon="11.75634069550186"><ele>460.0</ele><time>2026-05-02T11:59:18.001Z</time></trkpt><trkpt lat="46.03292491005565" lon="11.75627940293093"><ele>461.0</ele><time>2026-05-02T11:59:19.001Z</time></trkpt><trkpt lat="46.032997460319734" lon="11.756218173161763"><ele>462.0</ele><time>2026-05-02T11:59:20.001Z</time></trkpt><trkpt lat="46.033071620372084" lon="11.75615645161099"><ele>462.99999999999994</ele><time>2026-05-02T11:59:21.001Z</time></trkpt><trkpt lat="46.03312826601727" lon="11.756087191234512"><ele>464.0</ele><time>2026-05-02T11:59:22.001Z</time></trkpt><trkpt lat="46.03318329485546" lon="11.756030605902481"><ele>464.79999999999995</ele><time>2026-05-02T11:59:23.001Z</time></trkpt><trkpt lat="46.03326669385377" lon="11.755985501760453"><ele>465.59999999999997</ele><time>2026-05-02T11:59:24.001Z</time></trkpt><trkpt lat="46.033369015525174" lon="11.755947328166403"><ele>466.4</ele><time>2026-05-02T11:59:25.001Z</time></trkpt><trkpt lat="46.033460520113685" lon="11.755920946462696"><ele>467.2</ele><time>2026-05-02T11:59:26.001Z</time></trkpt><trkpt lat="46.03354918376609" lon="11.755896913741745"><ele>468.0</ele><time>2026-05-02T11:59:27.001Z</time></trkpt><trkpt lat="46.03364438033959" lon="11.755880831849934"><ele>468.0</ele><time>2026-05-02T11:59:28.001Z</time></trkpt><trkpt lat="46.03372951883078" lon="11.755864333844182"><ele>468.0</ele><time>2026-05-02T11:59:29.001Z</time></trkpt><trkpt lat="46.03381674647151" lon="11.755849120433547"><ele>468.0</ele><time>2026-05-02T11:59:30.001Z</time></trkpt><trkpt lat="46.03389944656096" lon="11.755827501155942"><ele>468.0</ele><time>2026-05-02T11:59:31.001Z</time></trkpt><trkpt lat="46.033979415269414" lon="11.755801544873444"><ele>468.0</ele><time>2026-05-02T11:59:32.001Z</time></trkpt><trkpt lat="46.034046121348545" lon="11.755763620730653"><ele>468.0</ele><time>2026-05-02T11:59:33.001Z</time></trkpt><trkpt lat="46.03413396544835" lon="11.755681770845905"><ele>468.0</ele><time>2026-05-02T11:59:35.001Z</time></trkpt><trkpt lat="46.03417232192966" lon="11.755592789366496"><ele>467.99999999999994</ele><time>2026-05-02T11:59:39.001Z</time></trkpt><trkpt lat="46.03408360995086" lon="11.75553745301672"><ele>467.99999999999994</ele><time>2026-05-02T11:59:43.001Z</time></trkpt><trkpt lat="46.033981939437574" lon="11.755580673904259"><ele>468.0</ele><time>2026-05-02T11:59:44.001Z</time></trkpt><trkpt lat="46.033897435488136" lon="11.755600463039384"><ele>468.0</ele><time>2026-05-02T11:59:45.001Z</time></trkpt><trkpt lat="46.033801614446816" lon="11.755606782012592"><ele>468.0</ele><time>2026-05-02T11:59:46Z</time></trkpt><trkpt lat="46.03369159333753" lon="11.755583326521881"><ele>468.0</ele><time>2026-05-02T11:59:47Z</time></trkpt><trkpt lat="46.033580508450235" lon="11.755533506988982"><ele>468.0</ele><time>2026-05-02T11:59:48Z</time></trkpt><trkpt lat="46.033461675187844" lon="11.755456639147724"><ele>468.0</ele><time>2026-05-02T11:59:49Z</time></trkpt><trkpt lat="46.03334538311341" lon="11.755345970546845"><ele>468.25</ele><time>2026-05-02T11:59:50Z</time></trkpt><trkpt lat="46.03323611870009" lon="11.75520427888597"><ele>468.5</ele><time>2026-05-02T11:59:51Z</time></trkpt><trkpt lat="46.033138825205725" lon="11.755046890892244"><ele>468.75</ele><time>2026-05-02T11:59:52Z</time></trkpt><trkpt lat="46.03304160824092" lon="11.754877620940594"><ele>469.0</ele><time>2026-05-02T11:59:53Z</time></trkpt><trkpt lat="46.03294288374939" lon="11.754708703561073"><ele>470.5</ele><time>2026-05-02T11:59:54Z</time></trkpt><trkpt lat="46.03285006225597" lon="11.754555009587227"><ele>472.0</ele><time>2026-05-02T11:59:55Z</time></trkpt><trkpt lat="46.03276762068569" lon="11.754380745031272"><ele>473.5</ele><time>2026-05-02T11:59:56Z</time></trkpt><trkpt lat="46.03271034743673" lon="11.754168768153631"><ele>475.0</ele><time>2026-05-02T11:59:57Z</time></trkpt><trkpt lat="46.032674675283246" lon="11.753952405057888"><ele>475.0</ele><time>2026-05-02T11:59:58Z</time></trkpt><trkpt lat="46.03265378381747" lon="11.753748272284971"><ele>475.0</ele><time>2026-05-02T11:59:59Z</time></trkpt><trkpt lat="46.03264194375032" lon="11.753564205655934"><ele>475.0</ele><time>2026-05-02T12:00:00Z</time></trkpt><trkpt lat="46.03260505753396" lon="11.753391732781624"><ele>475.0</ele><time>2026-05-02T12:00:01Z</time></trkpt><trkpt lat="46.03252146837615" lon="11.75326856187979"><ele>464.25</ele><time>2026-05-02T12:00:02Z</time></trkpt><trkpt lat="46.032401905237506" lon="11.753188173517053"><ele>453.5</ele><time>2026-05-02T12:00:03Z</time></trkpt><trkpt lat="46.03226884428072" lon="11.753178533864247"><ele>442.75</ele><time>2026-05-02T12:00:04Z</time></trkpt><trkpt lat="46.032138528821875" lon="11.753249383500501"><ele>432.0</ele><time>2026-05-02T12:00:05Z</time></trkpt><trkpt lat="46.032016691875974" lon="11.753377473244775"><ele>432.0</ele><time>2026-05-02T12:00:06Z</time></trkpt><trkpt lat="46.03188859853441" lon="11.753521629218099"><ele>432.0</ele><time>2026-05-02T12:00:07Z</time></trkpt><trkpt lat="46.031756372372826" lon="11.75366499993389"><ele>432.0</ele><time>2026-05-02T12:00:08Z</time></trkpt><trkpt lat="46.03163655861876" lon="11.753793439770666"><ele>428.75</ele><time>2026-05-02T12:00:09Z</time></trkpt><trkpt lat="46.031531226872914" lon="11.753933179766063"><ele>425.5</ele><time>2026-05-02T12:00:10Z</time></trkpt><trkpt lat="46.03144316189832" lon="11.7540813330069"><ele>422.25</ele><time>2026-05-02T12:00:11Z</time></trkpt><trkpt lat="46.0313824964345" lon="11.754248567565023"><ele>419.0</ele><time>2026-05-02T12:00:12Z</time></trkpt><trkpt lat="46.031361315418934" lon="11.754444827486022"><ele>419.0</ele><time>2026-05-02T12:00:13Z</time></trkpt><trkpt lat="46.031390888332886" lon="11.754663037866202"><ele>419.0</ele><time>2026-05-02T12:00:14Z</time></trkpt><trkpt lat="46.03145082887919" lon="11.754884293408255"><ele>419.0</ele><time>2026-05-02T12:00:15Z</time></trkpt><trkpt lat="46.03153578868972" lon="11.755112666858254"><ele>424.0</ele><time>2026-05-02T12:00:16Z</time></trkpt><trkpt lat="46.031626522919545" lon="11.755341771157399"><ele>429.0</ele><time>2026-05-02T12:00:17Z</time></trkpt><trkpt lat="46.03170721423768" lon="11.755551963944367"><ele>434.0</ele><time>2026-05-02T12:00:18Z</time></trkpt><trkpt lat="46.031775423071295" lon="11.755758741216743"><ele>436.0</ele><time>2026-05-02T12:00:19Z</time></trkpt><trkpt lat="46.03179724359829" lon="11.755972953426646"><ele>438.0</ele><time>2026-05-02T12:00:20Z</time></trkpt><trkpt lat="46.03176744600397" lon="11.756181310812181"><ele>440.0</ele><time>2026-05-02T12:00:21Z</time></trkpt><trkpt lat="46.0317083978021" lon="11.756379301839448"><ele>442.0</ele><time>2026-05-02T12:00:22Z</time></trkpt><trkpt lat="46.03164040187072" lon="11.756556988633893"><ele>445.25</ele><time>2026-05-02T12:00:23Z</time></trkpt><trkpt lat="46.031598628645995" lon="11.756740346857805"><ele>448.5</ele><time>2026-05-02T12:00:24Z</time></trkpt><trkpt lat="46.03157621545835" lon="11.756924787166684"><ele>451.75</ele><time>2026-05-02T12:00:25Z</time></trkpt><trkpt lat="46.03158065045317" lon="11.757119965436212"><ele>455.0</ele><time>2026-05-02T12:00:26Z</time></trkpt><trkpt lat="46.03160704209003" lon="11.757327007064687"><ele>449.66666666666663</ele><time>2026-05-02T12:00:27Z</time></trkpt><trkpt lat="46.031635218953184" lon="11.75754530864952"><ele>444.33333333333337</ele><time>2026-05-02T12:00:28Z</time></trkpt><trkpt lat="46.031656868920784" lon="11.75778321399437"><ele>439.0</ele><time>2026-05-02T12:00:29Z</time></trkpt><trkpt lat="46.03168628382503" lon="11.758041490566747"><ele>439.0</ele><time>2026-05-02T12:00:30Z</time></trkpt><trkpt lat="46.03171649898858" lon="11.758308891183242"><ele>439.0</ele><time>2026-05-02T12:00:31Z</time></trkpt><trkpt lat="46.03174673925597" lon="11.7585725546206"><ele>439.0</ele><time>2026-05-02T12:00:32Z</time></trkpt><trkpt lat="46.03177564127729" lon="11.758818037503728"><ele>441.0</ele><time>2026-05-02T12:00:33Z</time></trkpt><trkpt lat="46.03180070556222" lon="11.759046650384581"><ele>443.0</ele><time>2026-05-02T12:00:34Z</time></trkpt><trkpt lat="46.03182804919929" lon="11.759266289317758"><ele>445.0</ele><time>2026-05-02T12:00:35Z</time></trkpt><trkpt lat="46.03185386910807" lon="11.759475485852505"><ele>447.0</ele><time>2026-05-02T12:00:36Z</time></trkpt><trkpt lat="46.0318779625577" lon="11.759675981949687"><ele>449.0</ele><time>2026-05-02T12:00:37Z</time></trkpt><trkpt lat="46.03189410578316" lon="11.759868810231989"><ele>451.0</ele><time>2026-05-02T12:00:38Z</time></trkpt><trkpt lat="46.031873500746016" lon="11.760060686409336"><ele>453.0</ele><time>2026-05-02T12:00:39Z</time></trkpt><trkpt lat="46.03181208371853" lon="11.760244454391618"><ele>447.66666666666663</ele><time>2026-05-02T12:00:40Z</time></trkpt><trkpt lat="46.03172007705712" lon="11.760424261733695"><ele>442.3333333333333</ele><time>2026-05-02T12:00:41Z</time></trkpt><trkpt lat="46.03161644390628" lon="11.760615284617327"><ele>437.0</ele><time>2026-05-02T12:00:42.001Z</time></trkpt><trkpt lat="46.031525058256506" lon="11.760808686582317"><ele>434.5</ele><time>2026-05-02T12:00:43.001Z</time></trkpt><trkpt lat="46.03144838078681" lon="11.760989129327687"><ele>432.0</ele><time>2026-05-02T12:00:44.001Z</time></trkpt><trkpt lat="46.03135814062192" lon="11.761133611044503"><ele>429.5</ele><time>2026-05-02T12:00:45.001Z</time></trkpt><trkpt lat="46.03123281749935" lon="11.761257541701235"><ele>427.0</ele><time>2026-05-02T12:00:46.001Z</time></trkpt><trkpt lat="46.031092745024345" lon="11.76139524567962"><ele>427.0</ele><time>2026-05-02T12:00:47.001Z</time></trkpt><trkpt lat="46.03095852017997" lon="11.761518587431091"><ele>427.0</ele><time>2026-05-02T12:00:48.001Z</time></trkpt><trkpt lat="46.03083661887398" lon="11.761647461741575"><ele>427.0</ele><time>2026-05-02T12:00:49.001Z</time></trkpt><trkpt lat="46.03071514664834" lon="11.76176028629669"><ele>430.25</ele><time>2026-05-02T12:00:50.001Z</time></trkpt><trkpt lat="46.03058028096738" lon="11.761843978678481"><ele>433.5</ele><time>2026-05-02T12:00:51.001Z</time></trkpt><trkpt lat="46.03044058442035" lon="11.761899188286494"><ele>436.75</ele><time>2026-05-02T12:00:52.001Z</time></trkpt><trkpt lat="46.030306245661556" lon="11.761920098096873"><ele>440.0</ele><time>2026-05-02T12:00:53.001Z</time></trkpt><trkpt lat="46.03017919593689" lon="11.761904942614567"><ele>439.99999999999994</ele><time>2026-05-02T12:00:54.001Z</time></trkpt><trkpt lat="46.03008075956286" lon="11.761871770735523"><ele>440.0</ele><time>2026-05-02T12:00:55.001Z</time></trkpt><trkpt lat="46.03000158546693" lon="11.761855818052556"><ele>440.0</ele><time>2026-05-02T12:00:56.001Z</time></trkpt><trkpt lat="46.029932013869725" lon="11.7618791291618"><ele>440.0</ele><time>2026-05-02T12:00:57.001Z</time></trkpt><trkpt lat="46.02989142547344" lon="11.76197049346201"><ele>439.99999999999994</ele><time>2026-05-02T12:00:58.001Z</time></trkpt><trkpt lat="46.02990262790411" lon="11.762061771643674"><ele>440.0</ele><time>2026-05-02T12:00:59.001Z</time></trkpt><trkpt lat="46.02995375487941" lon="11.76212063110662"><ele>429.0</ele><time>2026-05-02T12:01:00.001Z</time></trkpt><trkpt lat="46.03003004047066" lon="11.762142626498644"><ele>418.0</ele><time>2026-05-02T12:01:01.001Z</time></trkpt><trkpt lat="46.03014706330723" lon="11.76212200465112"><ele>407.0</ele><time>2026-05-02T12:01:02.001Z</time></trkpt><trkpt lat="46.030300504018555" lon="11.762115334322386"><ele>396.0</ele><time>2026-05-02T12:01:03.001Z</time></trkpt><trkpt lat="46.03046796983317" lon="11.762104928396509"><ele>396.0</ele><time>2026-05-02T12:01:04.001Z</time></trkpt><trkpt lat="46.03064426136155" lon="11.76206800514059"><ele>396.0</ele><time>2026-05-02T12:01:05.001Z</time></trkpt><trkpt lat="46.030806044911536" lon="11.762007901471279"><ele>396.0</ele><time>2026-05-02T12:01:06.001Z</time></trkpt><trkpt lat="46.030963929839274" lon="11.761945086290515"><ele>392.33333333333337</ele><time>2026-05-02T12:01:07.001Z</time></trkpt><trkpt lat="46.03111812816273" lon="11.761873704084817"><ele>388.6666666666667</ele><time>2026-05-02T12:01:08.001Z</time></trkpt><trkpt lat="46.03126553816918" lon="11.761789966070324"><ele>385.0</ele><time>2026-05-02T12:01:09.001Z</time></trkpt><trkpt lat="46.03140830859083" lon="11.761691872922773"><ele>387.0</ele><time>2026-05-02T12:01:10.001Z</time></trkpt><trkpt lat="46.03153546006806" lon="11.761601012777657"><ele>389.0</ele><time>2026-05-02T12:01:11.001Z</time></trkpt><trkpt lat="46.03164402304239" lon="11.761531907205885"><ele>391.0</ele><time>2026-05-02T12:01:12.001Z</time></trkpt><trkpt lat="46.03173443485996" lon="11.761507822232316"><ele>393.0</ele><time>2026-05-02T12:01:13.001Z</time></trkpt><trkpt lat="46.03181527618631" lon="11.76155526094507"><ele>395.0</ele><time>2026-05-02T12:01:14.001Z</time></trkpt><trkpt lat="46.03186978504612" lon="11.761657987928956"><ele>394.99999999999994</ele><time>2026-05-02T12:01:15.001Z</time></trkpt><trkpt lat="46.03190030259237" lon="11.761786786769518"><ele>395.0</ele><time>2026-05-02T12:01:16.001Z</time></trkpt><trkpt lat="46.03194589332874" lon="11.761893016700933"><ele>395.0</ele><time>2026-05-02T12:01:17.001Z</time></trkpt><trkpt lat="46.032021798069756" lon="11.76195045901961"><ele>395.0</ele><time>2026-05-02T12:01:18.001Z</time></trkpt><trkpt lat="46.03210967764131" lon="11.761954567754382"><ele>394.99999999999994</ele><time>2026-05-02T12:01:19.001Z</time></trkpt><trkpt lat="46.032196377427304" lon="11.761904846835362"><ele>395.0</ele><time>2026-05-02T12:01:20.001Z</time></trkpt><trkpt lat="46.03228350123792" lon="11.761835657704655"><ele>394.99999999999994</ele><time>2026-05-02T12:01:21.001Z</time></trkpt><trkpt lat="46.03237146088064" lon="11.761785240629152"><ele>395.0</ele><time>2026-05-02T12:01:22.001Z</time></trkpt><trkpt lat="46.0324527121192" lon="11.761703286021813"><ele>395.0</ele><time>2026-05-02T12:01:23.001Z</time></trkpt><trkpt lat="46.03254590704953" lon="11.761721165605998"><ele>395.0</ele><time>2026-05-02T12:01:24.001Z</time></trkpt><trkpt lat="46.03262048669362" lon="11.761697658742364"><ele>394.99999999999994</ele><time>2026-05-02T12:01:26.001Z</time></trkpt><trkpt lat="46.0326875314479" lon="11.761680981981497"><ele>395.0</ele><time>2026-05-02T12:01:27.001Z</time></trkpt><trkpt lat="46.03276387200627" lon="11.761662071315513"><ele>394.8</ele><time>2026-05-02T12:01:28.001Z</time></trkpt><trkpt lat="46.03285167338197" lon="11.76164353415759"><ele>394.6</ele><time>2026-05-02T12:01:29.001Z</time></trkpt><trkpt lat="46.03294108796782" lon="11.761621494385654"><ele>394.4</ele><time>2026-05-02T12:01:30.001Z</time></trkpt><trkpt lat="46.0330308021177" lon="11.761599279709639"><ele>394.2</ele><time>2026-05-02T12:01:31.001Z</time></trkpt><trkpt lat="46.03313123946009" lon="11.761567646562911"><ele>394.0</ele><time>2026-05-02T12:01:32.001Z</time></trkpt><trkpt lat="46.033250564929936" lon="11.761510941256466"><ele>393.6666666666667</ele><time>2026-05-02T12:01:33.001Z</time></trkpt><trkpt lat="46.03338638062708" lon="11.761447073354667"><ele>393.33333333333337</ele><time>2026-05-02T12:01:34.001Z</time></trkpt><trkpt lat="46.033534779206896" lon="11.761373246975229"><ele>393.0</ele><time>2026-05-02T12:01:35.001Z</time></trkpt><trkpt lat="46.03368582496492" lon="11.761297723158867"><ele>393.0</ele><time>2026-05-02T12:01:36.001Z</time></trkpt><trkpt lat="46.03383503270465" lon="11.761218834981571"><ele>393.0</ele><time>2026-05-02T12:01:37.001Z</time></trkpt><trkpt lat="46.033984067876276" lon="11.761137688844707"><ele>393.0</ele><time>2026-05-02T12:01:38.001Z</time></trkpt><trkpt lat="46.03413367917406" lon="11.761066269010112"><ele>409.66666666666663</ele><time>2026-05-02T12:01:39.001Z</time></trkpt><trkpt lat="46.03427365688554" lon="11.761017984255814"><ele>426.3333333333333</ele><time>2026-05-02T12:01:40.001Z</time></trkpt><trkpt lat="46.034426145188" lon="11.760990800711147"><ele>443.0</ele><time>2026-05-02T12:01:41.001Z</time></trkpt><trkpt lat="46.03458342335606" lon="11.760987491206416"><ele>443.0</ele><time>2026-05-02T12:01:42.001Z</time></trkpt><trkpt lat="46.034742920715445" lon="11.76101648344384"><ele>443.0</ele><time>2026-05-02T12:01:43.001Z</time></trkpt><trkpt lat="46.034901957303106" lon="11.761061724178102"><ele>443.0</ele><time>2026-05-02T12:01:44.001Z</time></trkpt><trkpt lat="46.03507257917084" lon="11.761107619375931"><ele>428.66666666666663</ele><time>2026-05-02T12:01:45.001Z</time></trkpt><trkpt lat="46.035253707699766" lon="11.761158062909546"><ele>414.33333333333337</ele><time>2026-05-02T12:01:46.013Z</time></trkpt><trkpt lat="46.03543799987662" lon="11.761206660572663"><ele>400.0</ele><time>2026-05-02T12:01:47.013Z</time></trkpt><trkpt lat="46.03562504146856" lon="11.761260399087238"><ele>398.33333333333337</ele><time>2026-05-02T12:01:48.011Z</time></trkpt><trkpt lat="46.03581175403073" lon="11.761313987000692"><ele>396.66666666666663</ele><time>2026-05-02T12:01:49.013Z</time></trkpt><trkpt lat="46.035945496791086" lon="11.761351876450584"><ele>395.0</ele><time>2026-05-02T12:01:51.001Z</time></trkpt><trkpt lat="46.036092264852456" lon="11.761391457696027"><ele>395.0</ele><time>2026-05-02T12:01:52.001Z</time></trkpt><trkpt lat="46.03627928462151" lon="11.761440443729985"><ele>395.0</ele><time>2026-05-02T12:01:53.001Z</time></trkpt><trkpt lat="46.03640119231072" lon="11.761489356641789"><ele>395.0</ele><time>2026-05-02T12:01:54.001Z</time></trkpt><trkpt lat="46.03652196344115" lon="11.761555630171578"><ele>395.0</ele><time>2026-05-02T12:01:55.001Z</time></trkpt><trkpt lat="46.036618414454864" lon="11.761621751177548"><ele>395.6</ele><time>2026-05-02T12:01:56.001Z</time></trkpt><trkpt lat="46.03672141525438" lon="11.76169537456354"><ele>396.2</ele><time>2026-05-02T12:01:57Z</time></trkpt><trkpt lat="46.036789777290586" lon="11.761811524148488"><ele>396.79999999999995</ele><time>2026-05-02T12:01:58Z</time></trkpt><trkpt lat="46.03686183146698" lon="11.76189855708077"><ele>397.4</ele><time>2026-05-02T12:01:59Z</time></trkpt><trkpt lat="46.03692837823754" lon="11.761986662000893"><ele>398.0</ele><time>2026-05-02T12:02:00Z</time></trkpt><trkpt lat="46.03699014904824" lon="11.762081278317005"><ele>396.2</ele><time>2026-05-02T12:02:01Z</time></trkpt><trkpt lat="46.037051830000586" lon="11.762174230056466"><ele>394.4</ele><time>2026-05-02T12:02:02Z</time></trkpt><trkpt lat="46.03711614970712" lon="11.762278848720046"><ele>392.59999999999997</ele><time>2026-05-02T12:02:03Z</time></trkpt><trkpt lat="46.03718988896496" lon="11.762387524219863"><ele>390.79999999999995</ele><time>2026-05-02T12:02:04Z</time></trkpt><trkpt lat="46.03727925028662" lon="11.762484762978055"><ele>389.0</ele><time>2026-05-02T12:02:05Z</time></trkpt><trkpt lat="46.037383287026124" lon="11.762570982725405"><ele>388.5</ele><time>2026-05-02T12:02:06Z</time></trkpt><trkpt lat="46.037497510334134" lon="11.762653919025434"><ele>388.0</ele><time>2026-05-02T12:02:07Z</time></trkpt><trkpt lat="46.037612724724625" lon="11.762742444616395"><ele>387.5</ele><time>2026-05-02T12:02:08Z</time></trkpt><trkpt lat="46.037724607825574" lon="11.762866017780508"><ele>387.0</ele><time>2026-05-02T12:02:09Z</time></trkpt><trkpt lat="46.03782613270882" lon="11.763015802744873"><ele>387.0</ele><time>2026-05-02T12:02:10Z</time></trkpt><trkpt lat="46.0379270574983" lon="11.763180061488955"><ele>387.0</ele><time>2026-05-02T12:02:11Z</time></trkpt><trkpt lat="46.0380213941586" lon="11.76335656580921"><ele>387.0</ele><time>2026-05-02T12:02:12Z</time></trkpt><trkpt lat="46.038118308373534" lon="11.763522149259094"><ele>388.5</ele><time>2026-05-02T12:02:13Z</time></trkpt><trkpt lat="46.038208587886814" lon="11.763666918155938"><ele>390.0</ele><time>2026-05-02T12:02:14Z</time></trkpt><trkpt lat="46.03831047262578" lon="11.763780591009612"><ele>391.5</ele><time>2026-05-02T12:02:15Z</time></trkpt><trkpt lat="46.03843423765096" lon="11.76386491783749"><ele>393.0</ele><time>2026-05-02T12:02:16Z</time></trkpt><trkpt lat="46.038575248800754" lon="11.763901230352136"><ele>393.0</ele><time>2026-05-02T12:02:17Z</time></trkpt><trkpt lat="46.038722195038" lon="11.763898891055321"><ele>393.0</ele><time>2026-05-02T12:02:18Z</time></trkpt><trkpt lat="46.03887412854473" lon="11.763865802794557"><ele>393.0</ele><time>2026-05-02T12:02:19Z</time></trkpt><trkpt lat="46.039033594240756" lon="11.763813529716039"><ele>400.0</ele><time>2026-05-02T12:02:20Z</time></trkpt><trkpt lat="46.03920288839907" lon="11.763756878909835"><ele>407.0</ele><time>2026-05-02T12:02:21Z</time></trkpt><trkpt lat="46.03938162683559" lon="11.763706373072223"><ele>414.0</ele><time>2026-05-02T12:02:22.013Z</time></trkpt><trkpt lat="46.03956513925083" lon="11.76365867948546"><ele>414.0</ele><time>2026-05-02T12:02:23.013Z</time></trkpt><trkpt lat="46.03975147432103" lon="11.763612503190677"><ele>414.0</ele><time>2026-05-02T12:02:24Z</time></trkpt><trkpt lat="46.0398972745677" lon="11.763574117669082"><ele>414.0</ele><time>2026-05-02T12:02:25Z</time></trkpt><trkpt lat="46.040075750714635" lon="11.763525623771157"><ele>432.0</ele><time>2026-05-02T12:02:26Z</time></trkpt><trkpt lat="46.040271478454365" lon="11.763503321855532"><ele>450.0</ele><time>2026-05-02T12:02:27Z</time></trkpt><trkpt lat="46.040472119231296" lon="11.763503093065136"><ele>468.0</ele><time>2026-05-02T12:02:28Z</time></trkpt><trkpt lat="46.04066922977044" lon="11.763497356365551"><ele>470.0</ele><time>2026-05-02T12:02:29Z</time></trkpt><trkpt lat="46.040857833617714" lon="11.763462706790383"><ele>472.0</ele><time>2026-05-02T12:02:30Z</time></trkpt><trkpt lat="46.04104324077125" lon="11.76339583364245"><ele>474.0</ele><time>2026-05-02T12:02:31Z</time></trkpt><trkpt lat="46.041231319576355" lon="11.763308716466177"><ele>474.0</ele><time>2026-05-02T12:02:32Z</time></trkpt><trkpt lat="46.04142078005262" lon="11.763218763361182"><ele>474.0</ele><time>2026-05-02T12:02:33Z</time></trkpt><trkpt lat="46.04161739951275" lon="11.763131632049124"><ele>474.0</ele><time>2026-05-02T12:02:34.013Z</time></trkpt><trkpt lat="46.04181275580167" lon="11.763046737019087"><ele>475.0</ele><time>2026-05-02T12:02:35.013Z</time></trkpt><trkpt lat="46.04200513540413" lon="11.762959822712752"><ele>476.0</ele><time>2026-05-02T12:02:36.013Z</time></trkpt><trkpt lat="46.04219549761967" lon="11.7628765488005"><ele>477.0</ele><time>2026-05-02T12:02:37.013Z</time></trkpt><trkpt lat="46.04238526959896" lon="11.762792817736202"><ele>416.0</ele><time>2026-05-02T12:02:38.01Z</time></trkpt><trkpt lat="46.04390036784675" lon="11.761941667657123"><ele>415.66666666666663</ele><time>2026-05-02T12:02:47Z</time></trkpt><trkpt lat="46.044063998898864" lon="11.761828760351488"><ele>415.33333333333337</ele><time>2026-05-02T12:02:48Z</time></trkpt><trkpt lat="46.04425391497159" lon="11.761747676248175"><ele>415.0</ele><time>2026-05-02T12:02:49Z</time></trkpt><trkpt lat="46.044429418309356" lon="11.761670015333012"><ele>415.0</ele><time>2026-05-02T12:02:50Z</time></trkpt><trkpt lat="46.044616891900354" lon="11.761606427460237"><ele>415.0</ele><time>2026-05-02T12:02:51Z</time></trkpt><trkpt lat="46.044786593389865" lon="11.761534849341649"><ele>415.0</ele><time>2026-05-02T12:02:52Z</time></trkpt><trkpt lat="46.04493711686308" lon="11.761454043795446"><ele>412.0</ele><time>2026-05-02T12:02:53Z</time></trkpt><trkpt lat="46.04509666603233" lon="11.761409445403613"><ele>409.0</ele><time>2026-05-02T12:02:54Z</time></trkpt><trkpt lat="46.045267689891595" lon="11.761393543621095"><ele>406.0</ele><time>2026-05-02T12:02:55.001Z</time></trkpt><trkpt lat="46.045442620985554" lon="11.761408598626844"><ele>406.0</ele><time>2026-05-02T12:02:56.001Z</time></trkpt><trkpt lat="46.04561769230911" lon="11.761432337071234"><ele>406.0</ele><time>2026-05-02T12:02:57.001Z</time></trkpt><trkpt lat="46.0457918831699" lon="11.761446839698667"><ele>406.0</ele><time>2026-05-02T12:02:58.001Z</time></trkpt><trkpt lat="46.045959977577915" lon="11.761458579909995"><ele>403.33333333333337</ele><time>2026-05-02T12:02:59.001Z</time></trkpt><trkpt lat="46.046128920011085" lon="11.761475420993142"><ele>400.66666666666663</ele><time>2026-05-02T12:03:00.001Z</time></trkpt><trkpt lat="46.046298191176604" lon="11.761490647262274"><ele>398.0</ele><time>2026-05-02T12:03:01.001Z</time></trkpt><trkpt lat="46.04646566308781" lon="11.761497551824677"><ele>403.66666666666663</ele><time>2026-05-02T12:03:02.001Z</time></trkpt><trkpt lat="46.04662978538345" lon="11.761512439295869"><ele>409.33333333333337</ele><time>2026-05-02T12:03:03.001Z</time></trkpt><trkpt lat="46.046789046201404" lon="11.761540757163624"><ele>415.0</ele><time>2026-05-02T12:03:04.001Z</time></trkpt><trkpt lat="46.04693619699674" lon="11.761559814644764"><ele>415.0</ele><time>2026-05-02T12:03:05.001Z</time></trkpt><trkpt lat="46.04706647344796" lon="11.76160752230523"><ele>415.0</ele><time>2026-05-02T12:03:06.001Z</time></trkpt><trkpt lat="46.04718527321056" lon="11.761687459168844"><ele>415.0</ele><time>2026-05-02T12:03:07.001Z</time></trkpt><trkpt lat="46.047305294147094" lon="11.761778289737208"><ele>415.0</ele><time>2026-05-02T12:03:08.001Z</time></trkpt><trkpt lat="46.047421905357965" lon="11.761861957288849"><ele>408.75</ele><time>2026-05-02T12:03:09.001Z</time></trkpt><trkpt lat="46.04753147569094" lon="11.76193765001685"><ele>402.5</ele><time>2026-05-02T12:03:10.001Z</time></trkpt><trkpt lat="46.04762624035711" lon="11.762021643632963"><ele>396.25</ele><time>2026-05-02T12:03:11.001Z</time></trkpt><trkpt lat="46.0477205742928" lon="11.762109090118638"><ele>390.0</ele><time>2026-05-02T12:03:12.001Z</time></trkpt><trkpt lat="46.04781676065407" lon="11.762202931105184"><ele>390.0</ele><time>2026-05-02T12:03:13.001Z</time></trkpt><trkpt lat="46.04791526718667" lon="11.762298210082884"><ele>390.0</ele><time>2026-05-02T12:03:14.001Z</time></trkpt><trkpt lat="46.04801610729161" lon="11.762394863375942"><ele>390.0</ele><time>2026-05-02T12:03:15.001Z</time></trkpt><trkpt lat="46.04811743304919" lon="11.762493842181472"><ele>390.0</ele><time>2026-05-02T12:03:16.001Z</time></trkpt><trkpt lat="46.048220009951585" lon="11.762591417834132"><ele>394.0</ele><time>2026-05-02T12:03:17.001Z</time></trkpt><trkpt lat="46.048332451360814" lon="11.76265820082776"><ele>398.0</ele><time>2026-05-02T12:03:18.001Z</time></trkpt><trkpt lat="46.04845727361417" lon="11.762684529662783"><ele>402.0</ele><time>2026-05-02T12:03:19.001Z</time></trkpt><trkpt lat="46.04858866030139" lon="11.762686362338181"><ele>406.0</ele><time>2026-05-02T12:03:20.001Z</time></trkpt><trkpt lat="46.048724336660996" lon="11.762665233450106"><ele>406.0</ele><time>2026-05-02T12:03:21.001Z</time></trkpt><trkpt lat="46.04886659847158" lon="11.762635799447736"><ele>406.0</ele><time>2026-05-02T12:03:22.001Z</time></trkpt><trkpt lat="46.04901643177215" lon="11.762613535389264"><ele>406.0</ele><time>2026-05-02T12:03:23.001Z</time></trkpt><trkpt lat="46.049174148140644" lon="11.762600770206433"><ele>412.33333333333337</ele><time>2026-05-02T12:03:24.001Z</time></trkpt><trkpt lat="46.04934819937369" lon="11.76259117204995"><ele>418.66666666666663</ele><time>2026-05-02T12:03:25.001Z</time></trkpt><trkpt lat="46.04953151707916" lon="11.762582637191837"><ele>425.0</ele><time>2026-05-02T12:03:26.001Z</time></trkpt><trkpt lat="46.04971817007372" lon="11.762567386601562"><ele>425.0</ele><time>2026-05-02T12:03:27.001Z</time></trkpt><trkpt lat="46.04990585913008" lon="11.762572548414287"><ele>425.0</ele><time>2026-05-02T12:03:28.001Z</time></trkpt><trkpt lat="46.050089731428756" lon="11.76262255243988"><ele>425.0</ele><time>2026-05-02T12:03:29.001Z</time></trkpt><trkpt lat="46.05026206103234" lon="11.762728879142747"><ele>414.3333333333333</ele><time>2026-05-02T12:03:30.001Z</time></trkpt><trkpt lat="46.05042643258913" lon="11.762875185830188"><ele>403.66666666666663</ele><time>2026-05-02T12:03:31.001Z</time></trkpt><trkpt lat="46.05059347673808" lon="11.763030623995743"><ele>393.0</ele><time>2026-05-02T12:03:32.001Z</time></trkpt><trkpt lat="46.05076968008023" lon="11.76315551446053"><ele>401.33333333333337</ele><time>2026-05-02T12:03:33.001Z</time></trkpt><trkpt lat="46.05094213914266" lon="11.763235840180467"><ele>409.6666666666667</ele><time>2026-05-02T12:03:34.001Z</time></trkpt><trkpt lat="46.05110134756981" lon="11.763310403663322"><ele>418.0</ele><time>2026-05-02T12:03:35.001Z</time></trkpt><trkpt lat="46.051236766560685" lon="11.763409529456306"><ele>415.75</ele><time>2026-05-02T12:03:36.001Z</time></trkpt><trkpt lat="46.05132412269876" lon="11.763582842928287"><ele>413.5</ele><time>2026-05-02T12:03:37.001Z</time></trkpt><trkpt lat="46.05142722633724" lon="11.763732935755362"><ele>411.25</ele><time>2026-05-02T12:03:38.001Z</time></trkpt><trkpt lat="46.051515823442806" lon="11.763887272711743"><ele>409.0</ele><time>2026-05-02T12:03:39.001Z</time></trkpt><trkpt lat="46.05164032205312" lon="11.76394686038017"><ele>409.0</ele><time>2026-05-02T12:03:40.001Z</time></trkpt><trkpt lat="46.05177411675182" lon="11.763944753273902"><ele>409.0</ele><time>2026-05-02T12:03:41.001Z</time></trkpt><trkpt lat="46.05188634434474" lon="11.76386972028833"><ele>409.0</ele><time>2026-05-02T12:03:42.001Z</time></trkpt><trkpt lat="46.051988702616214" lon="11.763737723486436"><ele>409.0</ele><time>2026-05-02T12:03:43.001Z</time></trkpt><trkpt lat="46.05210033480588" lon="11.763595989624283"><ele>414.75</ele><time>2026-05-02T12:03:44.001Z</time></trkpt><trkpt lat="46.05222788324638" lon="11.763524404141673"><ele>420.5</ele><time>2026-05-02T12:03:45.001Z</time></trkpt><trkpt lat="46.052376427930426" lon="11.763505446406752"><ele>426.25</ele><time>2026-05-02T12:03:46.001Z</time></trkpt><trkpt lat="46.052524079918165" lon="11.76349841628893"><ele>432.0</ele><time>2026-05-02T12:03:47.001Z</time></trkpt><trkpt lat="46.0526544144258" lon="11.763485412995886"><ele>432.75</ele><time>2026-05-02T12:03:48.001Z</time></trkpt><trkpt lat="46.052792709207694" lon="11.763489510356633"><ele>433.5</ele><time>2026-05-02T12:03:49.001Z</time></trkpt><trkpt lat="46.05291904568349" lon="11.763503746378282"><ele>434.25</ele><time>2026-05-02T12:03:50.001Z</time></trkpt><trkpt lat="46.05304087190247" lon="11.763506281478485"><ele>435.0</ele><time>2026-05-02T12:03:51.001Z</time></trkpt><trkpt lat="46.053153548750146" lon="11.763505442884577"><ele>435.0</ele><time>2026-05-02T12:03:52.001Z</time></trkpt><trkpt lat="46.053265992134904" lon="11.763463533099676"><ele>435.0</ele><time>2026-05-02T12:03:53.001Z</time></trkpt><trkpt lat="46.05337972366667" lon="11.763371452993114"><ele>435.0</ele><time>2026-05-02T12:03:54.001Z</time></trkpt><trkpt lat="46.053488340166105" lon="11.763259117937308"><ele>435.0</ele><time>2026-05-02T12:03:55.001Z</time></trkpt><trkpt lat="46.0536084739369" lon="11.763164080183966"><ele>429.0</ele><time>2026-05-02T12:03:56.001Z</time></trkpt><trkpt lat="46.05373534244391" lon="11.763098141068"><ele>423.0</ele><time>2026-05-02T12:03:57.001Z</time></trkpt><trkpt lat="46.0538621796889" lon="11.763049593782867"><ele>417.0</ele><time>2026-05-02T12:03:58.001Z</time></trkpt><trkpt lat="46.0539850190365" lon="11.763013389674532"><ele>411.0</ele><time>2026-05-02T12:03:59.001Z</time></trkpt><trkpt lat="46.05410021042142" lon="11.762962272136225"><ele>408.5</ele><time>2026-05-02T12:04:00.001Z</time></trkpt><trkpt lat="46.054203310453154" lon="11.762870711849157"><ele>406.0</ele><time>2026-05-02T12:04:01.001Z</time></trkpt><trkpt lat="46.05430021924929" lon="11.762771335746736"><ele>403.5</ele><time>2026-05-02T12:04:02.001Z</time></trkpt><trkpt lat="46.05440185457653" lon="11.762689722833889"><ele>401.0</ele><time>2026-05-02T12:04:03Z</time></trkpt><trkpt lat="46.05449504946055" lon="11.76256328235854"><ele>401.0</ele><time>2026-05-02T12:04:04Z</time></trkpt><trkpt lat="46.05463283302384" lon="11.762547453910019"><ele>401.0</ele><time>2026-05-02T12:04:05Z</time></trkpt><trkpt lat="46.05477831285442" lon="11.762555978485889"><ele>401.0</ele><time>2026-05-02T12:04:06Z</time></trkpt><trkpt lat="46.05487811254433" lon="11.76275018458114"><ele>401.0</ele><time>2026-05-02T12:04:07Z</time></trkpt><trkpt lat="46.054997467051386" lon="11.762830159365786"><ele>401.0</ele><time>2026-05-02T12:04:08Z</time></trkpt><trkpt lat="46.055120037193966" lon="11.762905505930473"><ele>401.0</ele><time>2026-05-02T12:04:09Z</time></trkpt><trkpt lat="46.05525342739532" lon="11.762972856857093"><ele>401.0</ele><time>2026-05-02T12:04:10Z</time></trkpt><trkpt lat="46.05539317957373" lon="11.763027410397626"><ele>401.0</ele><time>2026-05-02T12:04:11Z</time></trkpt><trkpt lat="46.055534858316825" lon="11.76307850105017"><ele>401.0</ele><time>2026-05-02T12:04:12Z</time></trkpt><trkpt lat="46.055669224888646" lon="11.763136949249404"><ele>401.0</ele><time>2026-05-02T12:04:13Z</time></trkpt><trkpt lat="46.05578744605944" lon="11.763186540831617"><ele>401.0</ele><time>2026-05-02T12:04:14Z</time></trkpt><trkpt lat="46.05590328773398" lon="11.763210800241957"><ele>403.0</ele><time>2026-05-02T12:04:15Z</time></trkpt><trkpt lat="46.056020698751524" lon="11.76317768899997"><ele>405.0</ele><time>2026-05-02T12:04:16Z</time></trkpt><trkpt lat="46.05614696766816" lon="11.76309150565665"><ele>407.0</ele><time>2026-05-02T12:04:17Z</time></trkpt><trkpt lat="46.056279872382255" lon="11.762985725643887"><ele>409.0</ele><time>2026-05-02T12:04:18Z</time></trkpt><trkpt lat="46.05640758250998" lon="11.762862352628547"><ele>409.0</ele><time>2026-05-02T12:04:19Z</time></trkpt><trkpt lat="46.05654116881261" lon="11.762768011380867"><ele>409.0</ele><time>2026-05-02T12:04:20Z</time></trkpt><trkpt lat="46.05668241843014" lon="11.76271614799094"><ele>409.0</ele><time>2026-05-02T12:04:21Z</time></trkpt><trkpt lat="46.056829635981806" lon="11.762702825138451"><ele>409.0</ele><time>2026-05-02T12:04:22Z</time></trkpt><trkpt lat="46.056980151341094" lon="11.762710300976863"><ele>407.0</ele><time>2026-05-02T12:04:23Z</time></trkpt><trkpt lat="46.057133276566326" lon="11.762752938862162"><ele>405.0</ele><time>2026-05-02T12:04:24Z</time></trkpt><trkpt lat="46.05728585054048" lon="11.76281924090774"><ele>403.0</ele><time>2026-05-02T12:04:25Z</time></trkpt><trkpt lat="46.057444210751214" lon="11.762897321225815"><ele>405.33333333333337</ele><time>2026-05-02T12:04:26Z</time></trkpt><trkpt lat="46.05760462620784" lon="11.762969448734356"><ele>407.66666666666663</ele><time>2026-05-02T12:04:27Z</time></trkpt><trkpt lat="46.0577645999886" lon="11.763044157542224"><ele>410.0</ele><time>2026-05-02T12:04:28Z</time></trkpt><trkpt lat="46.057920778129066" lon="11.763144530544238"><ele>410.0</ele><time>2026-05-02T12:04:29Z</time></trkpt><trkpt lat="46.05805701599544" lon="11.763279873199254"><ele>410.0</ele><time>2026-05-02T12:04:30Z</time></trkpt><trkpt lat="46.05817423715755" lon="11.763443678788478"><ele>410.0</ele><time>2026-05-02T12:04:31Z</time></trkpt><trkpt lat="46.05829519954062" lon="11.763578693661351"><ele>408.3333333333333</ele><time>2026-05-02T12:04:32Z</time></trkpt><trkpt lat="46.05844105393459" lon="11.763673082376961"><ele>406.66666666666663</ele><time>2026-05-02T12:04:33Z</time></trkpt><trkpt lat="46.05860414135496" lon="11.76372497131386"><ele>405.0</ele><time>2026-05-02T12:04:34Z</time></trkpt><trkpt lat="46.0587428177603" lon="11.763747944800572"><ele>405.0</ele><time>2026-05-02T12:04:35Z</time></trkpt><trkpt lat="46.05887220666593" lon="11.763776562489161"><ele>405.0</ele><time>2026-05-02T12:04:36Z</time></trkpt><trkpt lat="46.05899162539497" lon="11.763717495413836"><ele>405.0</ele><time>2026-05-02T12:04:37Z</time></trkpt><trkpt lat="46.05911171921289" lon="11.763612498259043"><ele>405.0</ele><time>2026-05-02T12:04:38Z</time></trkpt><trkpt lat="46.05921184816257" lon="11.763458686801737"><ele>411.25</ele><time>2026-05-02T12:04:39Z</time></trkpt><trkpt lat="46.05930312725223" lon="11.763285994133392"><ele>417.5</ele><time>2026-05-02T12:04:40Z</time></trkpt><trkpt lat="46.0593831874761" lon="11.763127603035711"><ele>423.75</ele><time>2026-05-02T12:04:41Z</time></trkpt><trkpt lat="46.05947526087311" lon="11.762995065728793"><ele>430.0</ele><time>2026-05-02T12:04:42Z</time></trkpt><trkpt lat="46.059576286758464" lon="11.762885218531267"><ele>430.0</ele><time>2026-05-02T12:04:43Z</time></trkpt><trkpt lat="46.05969219638489" lon="11.762810398107277"><ele>430.0</ele><time>2026-05-02T12:04:44Z</time></trkpt><trkpt lat="46.059819272903" lon="11.762743903952757"><ele>430.0</ele><time>2026-05-02T12:04:45Z</time></trkpt><trkpt lat="46.05994235299848" lon="11.762672913269373"><ele>430.0</ele><time>2026-05-02T12:04:46Z</time></trkpt><trkpt lat="46.0600580281906" lon="11.76261021265737"><ele>432.2</ele><time>2026-05-02T12:04:47Z</time></trkpt><trkpt lat="46.06016878622425" lon="11.762553184538662"><ele>434.4</ele><time>2026-05-02T12:04:48Z</time></trkpt><trkpt lat="46.06027241662333" lon="11.762521612246216"><ele>436.6</ele><time>2026-05-02T12:04:49Z</time></trkpt><trkpt lat="46.060360698589236" lon="11.762526612217265"><ele>438.8</ele><time>2026-05-02T12:04:50Z</time></trkpt><trkpt lat="46.060443500719416" lon="11.762563517477263"><ele>441.0</ele><time>2026-05-02T12:04:51Z</time></trkpt><trkpt lat="46.06049341037784" lon="11.762665977545575"><ele>435.6</ele><time>2026-05-02T12:04:52.001Z</time></trkpt><trkpt lat="46.060521754029416" lon="11.762793411223816"><ele>430.20000000000005</ele><time>2026-05-02T12:04:53.001Z</time></trkpt><trkpt lat="46.06055234607637" lon="11.762928348185927"><ele>424.79999999999995</ele><time>2026-05-02T12:04:54.001Z</time></trkpt><trkpt lat="46.06059077601966" lon="11.763064911041827"><ele>419.4</ele><time>2026-05-02T12:04:55.001Z</time></trkpt><trkpt lat="46.06063029807651" lon="11.763199171699096"><ele>414.0</ele><time>2026-05-02T12:04:56.001Z</time></trkpt><trkpt lat="46.06067097382724" lon="11.763338541904544"><ele>414.0</ele><time>2026-05-02T12:04:57.001Z</time></trkpt><trkpt lat="46.060713816063384" lon="11.76346117339455"><ele>414.0</ele><time>2026-05-02T12:04:58.001Z</time></trkpt><trkpt lat="46.060788665193066" lon="11.763537155784686"><ele>414.0</ele><time>2026-05-02T12:04:59.001Z</time></trkpt><trkpt lat="46.060875843477625" lon="11.763551309315282"><ele>414.0</ele><time>2026-05-02T12:05:00.001Z</time></trkpt><trkpt lat="46.060969683618225" lon="11.76351700352137"><ele>414.0</ele><time>2026-05-02T12:05:01.001Z</time></trkpt><trkpt lat="46.061073635405634" lon="11.763453280459752"><ele>414.0</ele><time>2026-05-02T12:05:02.001Z</time></trkpt><trkpt lat="46.06119002700903" lon="11.76340682005413"><ele>414.0</ele><time>2026-05-02T12:05:03.001Z</time></trkpt><trkpt lat="46.061315127959276" lon="11.763387404857518"><ele>414.0</ele><time>2026-05-02T12:05:04.001Z</time></trkpt><trkpt lat="46.06145103257732" lon="11.763404337567941"><ele>414.0</ele><time>2026-05-02T12:05:05.001Z</time></trkpt><trkpt lat="46.061584643862666" lon="11.763463526199683"><ele>421.75</ele><time>2026-05-02T12:05:06.001Z</time></trkpt><trkpt lat="46.06170661025054" lon="11.763572514777913"><ele>429.5</ele><time>2026-05-02T12:05:07.001Z</time></trkpt><trkpt lat="46.06181402809234" lon="11.76371912651923"><ele>437.25</ele><time>2026-05-02T12:05:08.001Z</time></trkpt><trkpt lat="46.06193216357233" lon="11.763836613036904"><ele>445.0</ele><time>2026-05-02T12:05:09.001Z</time></trkpt><trkpt lat="46.062075256950635" lon="11.76392279275095"><ele>445.0</ele><time>2026-05-02T12:05:10.001Z</time></trkpt><trkpt lat="46.06223403452043" lon="11.763975291735335"><ele>445.0</ele><time>2026-05-02T12:05:11.001Z</time></trkpt><trkpt lat="46.06239964544941" lon="11.763986856364731"><ele>445.0</ele><time>2026-05-02T12:05:12.001Z</time></trkpt><trkpt lat="46.0625716327248" lon="11.763973734118421"><ele>441.6666666666667</ele><time>2026-05-02T12:05:13.001Z</time></trkpt><trkpt lat="46.06274737341972" lon="11.763971936615489"><ele>438.33333333333337</ele><time>2026-05-02T12:05:14.001Z</time></trkpt><trkpt lat="46.062926106125765" lon="11.764001342261595"><ele>435.0</ele><time>2026-05-02T12:05:15.001Z</time></trkpt><trkpt lat="46.06310192896664" lon="11.764043075440933"><ele>435.0</ele><time>2026-05-02T12:05:16.001Z</time></trkpt><trkpt lat="46.063274999466564" lon="11.764079593262142"><ele>435.0</ele><time>2026-05-02T12:05:17.001Z</time></trkpt><trkpt lat="46.06345304265057" lon="11.764109122088668"><ele>435.0</ele><time>2026-05-02T12:05:18.001Z</time></trkpt><trkpt lat="46.063630571706106" lon="11.764143818930009"><ele>436.66666666666663</ele><time>2026-05-02T12:05:19.001Z</time></trkpt><trkpt lat="46.06380517192634" lon="11.764179933833669"><ele>438.3333333333333</ele><time>2026-05-02T12:05:20.001Z</time></trkpt><trkpt lat="46.06398379247484" lon="11.764223539641806"><ele>440.0</ele><time>2026-05-02T12:05:21.001Z</time></trkpt><trkpt lat="46.06415852529526" lon="11.764284096709119"><ele>441.66666666666663</ele><time>2026-05-02T12:05:22.001Z</time></trkpt><trkpt lat="46.064331664636086" lon="11.764358288193392"><ele>443.33333333333337</ele><time>2026-05-02T12:05:23.001Z</time></trkpt><trkpt lat="46.064514290356215" lon="11.764443680078404"><ele>445.0</ele><time>2026-05-02T12:05:24.001Z</time></trkpt><trkpt lat="46.06470024428126" lon="11.7645310291507"><ele>454.6666666666667</ele><time>2026-05-02T12:05:25.001Z</time></trkpt><trkpt lat="46.064894413205515" lon="11.76461579463495"><ele>464.33333333333337</ele><time>2026-05-02T12:05:26.013Z</time></trkpt><trkpt lat="46.065095595777414" lon="11.764690249647042"><ele>474.0</ele><time>2026-05-02T12:05:27.014Z</time></trkpt><trkpt lat="46.06530684409941" lon="11.764753191461407"><ele>488.0</ele><time>2026-05-02T12:05:28.012Z</time></trkpt><trkpt lat="46.065521319773914" lon="11.764808667808957"><ele>502.0</ele><time>2026-05-02T12:05:29.01Z</time></trkpt><trkpt lat="46.06730012354849" lon="11.764459607712324"><ele>469.0</ele><time>2026-05-02T12:05:33.03Z</time></trkpt><trkpt lat="46.06770677221047" lon="11.764178805313211"><ele>469.0</ele><time>2026-05-02T12:05:34.03Z</time></trkpt><trkpt lat="46.06807979854488" lon="11.763814260202194"><ele>462.0</ele><time>2026-05-02T12:05:35.029Z</time></trkpt><trkpt lat="46.06846662031215" lon="11.763488859350135"><ele>455.0</ele><time>2026-05-02T12:05:36.025Z</time></trkpt><trkpt lat="46.06900312010764" lon="11.763196354742872"><ele>459.66666666666663</ele><time>2026-05-02T12:05:48.001Z</time></trkpt><trkpt lat="46.069180515984904" lon="11.763083381020891"><ele>464.33333333333337</ele><time>2026-05-02T12:05:49.001Z</time></trkpt><trkpt lat="46.069286188752784" lon="11.762843350973682"><ele>469.0</ele><time>2026-05-02T12:05:50.001Z</time></trkpt><trkpt lat="46.0694098167976" lon="11.762727298025423"><ele>466.0</ele><time>2026-05-02T12:05:51.001Z</time></trkpt><trkpt lat="46.06952115033639" lon="11.762588325944604"><ele>463.0</ele><time>2026-05-02T12:05:52.001Z</time></trkpt><trkpt lat="46.06961841313186" lon="11.762425819603362"><ele>460.0</ele><time>2026-05-02T12:05:53.001Z</time></trkpt><trkpt lat="46.07048974415554" lon="11.76209699235179"><ele>435.0</ele><time>2026-05-02T12:05:54.001Z</time></trkpt><trkpt lat="46.069926816904996" lon="11.762262707666695"><ele>443.33333333333337</ele><time>2026-05-02T12:05:55.001Z</time></trkpt><trkpt lat="46.07009905846294" lon="11.762194900966902"><ele>451.6666666666667</ele><time>2026-05-02T12:05:56.001Z</time></trkpt><trkpt lat="46.070274793353256" lon="11.762122028179906"><ele>460.0</ele><time>2026-05-02T12:05:57.001Z</time></trkpt><trkpt lat="46.07045218932572" lon="11.762046912432867"><ele>460.0</ele><time>2026-05-02T12:05:58.001Z</time></trkpt><trkpt lat="46.07061861274126" lon="11.76193911744064"><ele>460.0</ele><time>2026-05-02T12:05:59.001Z</time></trkpt><trkpt lat="46.070776202677045" lon="11.761852231332513"><ele>460.0</ele><time>2026-05-02T12:06:00.001Z</time></trkpt><trkpt lat="46.07091746486896" lon="11.761860552555078"><ele>464.0</ele><time>2026-05-02T12:06:01.001Z</time></trkpt><trkpt lat="46.071077259173116" lon="11.761909320704394"><ele>468.0</ele><time>2026-05-02T12:06:02.001Z</time></trkpt><trkpt lat="46.071225457608506" lon="11.761992928271896"><ele>472.0</ele><time>2026-05-02T12:06:03.001Z</time></trkpt><trkpt lat="46.07136726441418" lon="11.762126021096652"><ele>472.0</ele><time>2026-05-02T12:06:04.001Z</time></trkpt><trkpt lat="46.07153445564909" lon="11.76220389873664"><ele>472.0</ele><time>2026-05-02T12:06:05.001Z</time></trkpt><trkpt lat="46.07172153250866" lon="11.762182278800212"><ele>472.0</ele><time>2026-05-02T12:06:06.001Z</time></trkpt><trkpt lat="46.07188401842282" lon="11.762261020615847"><ele>468.6666666666667</ele><time>2026-05-02T12:06:07.001Z</time></trkpt><trkpt lat="46.07205311284125" lon="11.762373806209126"><ele>465.33333333333337</ele><time>2026-05-02T12:06:08.001Z</time></trkpt><trkpt lat="46.07220915329663" lon="11.762453491656077"><ele>462.0</ele><time>2026-05-02T12:06:09Z</time></trkpt><trkpt lat="46.07237403891412" lon="11.762593020898995"><ele>472.66666666666663</ele><time>2026-05-02T12:06:10Z</time></trkpt><trkpt lat="46.07254132173958" lon="11.76272286589871"><ele>483.3333333333333</ele><time>2026-05-02T12:06:11Z</time></trkpt><trkpt lat="46.07270797367123" lon="11.762850155603582"><ele>494.0</ele><time>2026-05-02T12:06:12Z</time></trkpt><trkpt lat="46.07286027764267" lon="11.762968226008047"><ele>494.0</ele><time>2026-05-02T12:06:13Z</time></trkpt><trkpt lat="46.072983940416066" lon="11.763086516776761"><ele>494.0</ele><time>2026-05-02T12:06:14Z</time></trkpt><trkpt lat="46.07308510528258" lon="11.763226442512194"><ele>494.0</ele><time>2026-05-02T12:06:15Z</time></trkpt><trkpt lat="46.07318263509807" lon="11.763366767955338"><ele>494.0</ele><time>2026-05-02T12:06:16Z</time></trkpt><trkpt lat="46.073300885699425" lon="11.763485363888464"><ele>485.66666666666663</ele><time>2026-05-02T12:06:17Z</time></trkpt><trkpt lat="46.07343628030581" lon="11.763520389606727"><ele>477.33333333333337</ele><time>2026-05-02T12:06:18Z</time></trkpt><trkpt lat="46.07360261252473" lon="11.76350272871305"><ele>469.0</ele><time>2026-05-02T12:06:19Z</time></trkpt><trkpt lat="46.073785641179555" lon="11.76346093122597"><ele>469.0</ele><time>2026-05-02T12:06:20Z</time></trkpt><trkpt lat="46.07397087243312" lon="11.763469559541653"><ele>469.0</ele><time>2026-05-02T12:06:21Z</time></trkpt><trkpt lat="46.07412994644709" lon="11.763432041871898"><ele>469.0</ele><time>2026-05-02T12:06:22Z</time></trkpt><trkpt lat="46.074278141332485" lon="11.763406905975591"><ele>464.75</ele><time>2026-05-02T12:06:23Z</time></trkpt><trkpt lat="46.07441705770687" lon="11.76339518425241"><ele>460.5</ele><time>2026-05-02T12:06:24Z</time></trkpt><trkpt lat="46.07453532738371" lon="11.763482416216899"><ele>456.25</ele><time>2026-05-02T12:06:25Z</time></trkpt><trkpt lat="46.07464254542287" lon="11.76361243018138"><ele>452.0</ele><time>2026-05-02T12:06:26Z</time></trkpt><trkpt lat="46.07476218509923" lon="11.763738663771079"><ele>455.0</ele><time>2026-05-02T12:06:27Z</time></trkpt><trkpt lat="46.074868306341884" lon="11.763906346030431"><ele>458.0</ele><time>2026-05-02T12:06:28Z</time></trkpt><trkpt lat="46.07495293747828" lon="11.76411236346636"><ele>461.0</ele><time>2026-05-02T12:06:29Z</time></trkpt><trkpt lat="46.075062009379224" lon="11.76429026467726"><ele>480.0</ele><time>2026-05-02T12:06:30Z</time></trkpt><trkpt lat="46.075176820886526" lon="11.764464261362896"><ele>499.0</ele><time>2026-05-02T12:06:31Z</time></trkpt><trkpt lat="46.07533192319624" lon="11.764592456784737"><ele>518.0</ele><time>2026-05-02T12:06:32Z</time></trkpt><trkpt lat="46.07549834232755" lon="11.764718673837757"><ele>518.0</ele><time>2026-05-02T12:06:33Z</time></trkpt><trkpt lat="46.07567058887344" lon="11.764847272623753"><ele>518.0</ele><time>2026-05-02T12:06:34Z</time></trkpt><trkpt lat="46.07584351537743" lon="11.764979236648513"><ele>518.0</ele><time>2026-05-02T12:06:35Z</time></trkpt><trkpt lat="46.07603135640352" lon="11.765089958771958"><ele>514.3333333333333</ele><time>2026-05-02T12:06:36Z</time></trkpt><trkpt lat="46.07620324117344" lon="11.765231140870954"><ele>510.66666666666663</ele><time>2026-05-02T12:06:37Z</time></trkpt><trkpt lat="46.07639008187439" lon="11.76534011293167"><ele>507.0</ele><time>2026-05-02T12:06:38Z</time></trkpt><trkpt lat="46.07657104853154" lon="11.765469198380202"><ele>493.0</ele><time>2026-05-02T12:06:39Z</time></trkpt><trkpt lat="46.07675602030323" lon="11.765595918407252"><ele>479.0</ele><time>2026-05-02T12:06:40Z</time></trkpt><trkpt lat="46.076946166289616" lon="11.765715506236806"><ele>465.0</ele><time>2026-05-02T12:06:41Z</time></trkpt><trkpt lat="46.07713789464954" lon="11.765823642923552"><ele>465.0</ele><time>2026-05-02T12:06:42Z</time></trkpt><trkpt lat="46.07733165214889" lon="11.765912984148816"><ele>465.0</ele><time>2026-05-02T12:06:43Z</time></trkpt><trkpt lat="46.0775288484929" lon="11.765987323975313"><ele>465.0</ele><time>2026-05-02T12:06:44Z</time></trkpt><trkpt lat="46.07771357321162" lon="11.766122798391725"><ele>481.0</ele><time>2026-05-02T12:06:45Z</time></trkpt><trkpt lat="46.07790347123709" lon="11.766227946841214"><ele>497.0</ele><time>2026-05-02T12:06:46.001Z</time></trkpt><trkpt lat="46.07807455481756" lon="11.766305086187655"><ele>513.0</ele><time>2026-05-02T12:06:47.001Z</time></trkpt><trkpt lat="46.07824843315865" lon="11.766404694761123"><ele>516.6666666666666</ele><time>2026-05-02T12:06:48.001Z</time></trkpt><trkpt lat="46.078456391944336" lon="11.76645065309211"><ele>520.3333333333333</ele><time>2026-05-02T12:06:49.013Z</time></trkpt><trkpt lat="46.07866284067081" lon="11.766462392894724"><ele>524.0</ele><time>2026-05-02T12:06:50.013Z</time></trkpt><trkpt lat="46.07886376143334" lon="11.76645866266747"><ele>524.0</ele><time>2026-05-02T12:06:51.014Z</time></trkpt><trkpt lat="46.07906344712782" lon="11.766490549610847"><ele>524.0</ele><time>2026-05-02T12:06:52.013Z</time></trkpt><trkpt lat="46.079245377659205" lon="11.766416958691037"><ele>524.0</ele><time>2026-05-02T12:06:53.013Z</time></trkpt><trkpt lat="46.08079933268663" lon="11.76570804439556"><ele>607.0</ele><time>2026-05-02T12:06:56.03Z</time></trkpt><trkpt lat="46.08132041530913" lon="11.76551048019331"><ele>629.0</ele><time>2026-05-02T12:06:57.029Z</time></trkpt><trkpt lat="46.08184067360364" lon="11.765311342922207"><ele>581.0</ele><time>2026-05-02T12:06:58.026Z</time></trkpt><trkpt lat="46.08236189536718" lon="11.765110864802379"><ele>567.0</ele><time>2026-05-02T12:06:59.026Z</time></trkpt><trkpt lat="46.08288641459115" lon="11.764912740569871"><ele>518.0</ele><time>2026-05-02T12:07:00.03Z</time></trkpt><trkpt lat="46.08340845439627" lon="11.76471837629045"><ele>518.0</ele><time>2026-05-02T12:07:01.03Z</time></trkpt><trkpt lat="46.0836958" lon="11.7645534"><ele>518.0</ele><time>2026-05-02T12:07:02.03Z</time></trkpt><trkpt lat="46.08378904875934" lon="11.764548020448316"><ele>518.0</ele><time>2026-05-02T12:07:16.001Z</time></trkpt><trkpt lat="46.0839626891725" lon="11.76445351846737"><ele>518.0</ele><time>2026-05-02T12:07:17.001Z</time></trkpt><trkpt lat="46.08406344499518" lon="11.764455219508346"><ele>518.0</ele><time>2026-05-02T12:07:18.001Z</time></trkpt><trkpt lat="46.08418419613236" lon="11.764407784524105"><ele>518.0</ele><time>2026-05-02T12:07:19.001Z</time></trkpt><trkpt lat="46.0842961391131" lon="11.764324574762238"><ele>518.0</ele><time>2026-05-02T12:07:20.001Z</time></trkpt><trkpt lat="46.084408643326135" lon="11.764248689515597"><ele>512.5</ele><time>2026-05-02T12:07:21.001Z</time></trkpt><trkpt lat="46.084537765388625" lon="11.764213609044194"><ele>507.0</ele><time>2026-05-02T12:07:22.001Z</time></trkpt><trkpt lat="46.08468142005423" lon="11.764202983274545"><ele>501.5</ele><time>2026-05-02T12:07:23.001Z</time></trkpt><trkpt lat="46.08483190891536" lon="11.764258049371476"><ele>496.0</ele><time>2026-05-02T12:07:24.001Z</time></trkpt><trkpt lat="46.084981243669716" lon="11.76430089825691"><ele>496.0</ele><time>2026-05-02T12:07:25.001Z</time></trkpt><trkpt lat="46.08512496613026" lon="11.76438591773335"><ele>496.0</ele><time>2026-05-02T12:07:26.001Z</time></trkpt><trkpt lat="46.08528384975012" lon="11.764354492246857"><ele>496.0</ele><time>2026-05-02T12:07:27.001Z</time></trkpt><trkpt lat="46.085437240890684" lon="11.764270500989893"><ele>496.0</ele><time>2026-05-02T12:07:28.001Z</time></trkpt><trkpt lat="46.085597155026704" lon="11.764219914663597"><ele>496.0</ele><time>2026-05-02T12:07:29.001Z</time></trkpt><trkpt lat="46.08575262128393" lon="11.764180103369545"><ele>496.0</ele><time>2026-05-02T12:07:30.001Z</time></trkpt><trkpt lat="46.08591461059829" lon="11.764145926336933"><ele>512.0</ele><time>2026-05-02T12:07:31.014Z</time></trkpt><trkpt lat="46.086073337868676" lon="11.764111014943747"><ele>528.0</ele><time>2026-05-02T12:07:32.015Z</time></trkpt><trkpt lat="46.0862325686587" lon="11.764075997623758"><ele>544.0</ele><time>2026-05-02T12:07:33.013Z</time></trkpt><trkpt lat="46.08639303207422" lon="11.764035392808214"><ele>544.0</ele><time>2026-05-02T12:07:34.014Z</time></trkpt><trkpt lat="46.086553566468034" lon="11.763996070937532"><ele>544.0</ele><time>2026-05-02T12:07:35.013Z</time></trkpt><trkpt lat="46.08815706380529" lon="11.76355796680782"><ele>536.5</ele><time>2026-05-02T12:07:38.029Z</time></trkpt><trkpt lat="46.0884718" lon="11.7634777"><ele>529.0</ele><time>2026-05-02T12:07:39.028Z</time></trkpt><trkpt lat="46.09265211508245" lon="11.761705968539939"><ele>524.3333333333334</ele><time>2026-05-02T12:08:08.001Z</time></trkpt><trkpt lat="46.0928308496049" lon="11.761658137768954"><ele>519.6666666666666</ele><time>2026-05-02T12:08:09.001Z</time></trkpt><trkpt lat="46.09302775694166" lon="11.761577424909888"><ele>515.0</ele><time>2026-05-02T12:08:10.002Z</time></trkpt><trkpt lat="46.093212954502654" lon="11.76155250631275"><ele>520.6666666666666</ele><time>2026-05-02T12:08:11.002Z</time></trkpt><trkpt lat="46.09339763492277" lon="11.761555244349768"><ele>526.3333333333334</ele><time>2026-05-02T12:08:12.002Z</time></trkpt><trkpt lat="46.0935902658408" lon="11.761597602947555"><ele>532.0</ele><time>2026-05-02T12:08:13.002Z</time></trkpt><trkpt lat="46.09377475680905" lon="11.761648891564436"><ele>532.0</ele><time>2026-05-02T12:08:14.002Z</time></trkpt><trkpt lat="46.09395603022596" lon="11.761738723284973"><ele>532.0</ele><time>2026-05-02T12:08:15Z</time></trkpt><trkpt lat="46.0941381289596" lon="11.761837045219563"><ele>532.0</ele><time>2026-05-02T12:08:16Z</time></trkpt><trkpt lat="46.09432208077515" lon="11.761928503761688"><ele>572.0</ele><time>2026-05-02T12:08:17.011Z</time></trkpt><trkpt lat="46.09450454936361" lon="11.762004053249552"><ele>612.0</ele><time>2026-05-02T12:08:18.015Z</time></trkpt><trkpt lat="46.09468567400225" lon="11.762093820190872"><ele>652.0</ele><time>2026-05-02T12:08:19.014Z</time></trkpt><trkpt lat="46.094863669122894" lon="11.762183745532298"><ele>633.0</ele><time>2026-05-02T12:08:20.015Z</time></trkpt><trkpt lat="46.10280008525225" lon="11.771919149916407"><ele>633.0</ele><time>2026-05-02T12:09:08.001Z</time></trkpt><trkpt lat="46.10294240099305" lon="11.772063239202955"><ele>633.0</ele><time>2026-05-02T12:09:09.001Z</time></trkpt><trkpt lat="46.103031284476785" lon="11.772223335505291"><ele>633.0</ele><time>2026-05-02T12:09:10.001Z</time></trkpt><trkpt lat="46.10315283063626" lon="11.77233811080914"><ele>618.3333333333334</ele><time>2026-05-02T12:09:11.001Z</time></trkpt><trkpt lat="46.10329541023593" lon="11.772423146515626"><ele>603.6666666666667</ele><time>2026-05-02T12:09:12.001Z</time></trkpt><trkpt lat="46.10343763222115" lon="11.772502954666495"><ele>589.0</ele><time>2026-05-02T12:09:13.001Z</time></trkpt><trkpt lat="46.1035927845126" lon="11.772572024854226"><ele>589.0</ele><time>2026-05-02T12:09:14.001Z</time></trkpt><trkpt lat="46.10375065863568" lon="11.772624082274358"><ele>589.0</ele><time>2026-05-02T12:09:15.001Z</time></trkpt><trkpt lat="46.1039157645051" lon="11.772637928036461"><ele>589.0</ele><time>2026-05-02T12:09:16.001Z</time></trkpt><trkpt lat="46.10408141156155" lon="11.77263172503252"><ele>592.75</ele><time>2026-05-02T12:09:17.001Z</time></trkpt><trkpt lat="46.10422989258637" lon="11.772611177012232"><ele>596.5</ele><time>2026-05-02T12:09:18.001Z</time></trkpt><trkpt lat="46.1043523004793" lon="11.772601984217587"><ele>600.25</ele><time>2026-05-02T12:09:19.001Z</time></trkpt><trkpt lat="46.10446969482156" lon="11.772619322693934"><ele>604.0</ele><time>2026-05-02T12:09:20.001Z</time></trkpt><trkpt lat="46.10457977017435" lon="11.772665462430092"><ele>608.0</ele><time>2026-05-02T12:09:21.001Z</time></trkpt><trkpt lat="46.10467699629154" lon="11.772739791734724"><ele>612.0</ele><time>2026-05-02T12:09:22.001Z</time></trkpt><trkpt lat="46.104768505160344" lon="11.772829045705317"><ele>616.0</ele><time>2026-05-02T12:09:23.001Z</time></trkpt><trkpt lat="46.1048520744977" lon="11.772920317320239"><ele>620.0</ele><time>2026-05-02T12:09:24.001Z</time></trkpt><trkpt lat="46.10494527131837" lon="11.773009806552555"><ele>624.0</ele><time>2026-05-02T12:09:25.001Z</time></trkpt><trkpt lat="46.105049825264075" lon="11.773098971215894"><ele>624.0</ele><time>2026-05-02T12:09:26.001Z</time></trkpt><trkpt lat="46.1051544312881" lon="11.773186456463755"><ele>624.0</ele><time>2026-05-02T12:09:27.001Z</time></trkpt><trkpt lat="46.1052755668071" lon="11.773260665035801"><ele>624.0</ele><time>2026-05-02T12:09:28.001Z</time></trkpt><trkpt lat="46.10540565192517" lon="11.773307269849939"><ele>624.0</ele><time>2026-05-02T12:09:29.001Z</time></trkpt><trkpt lat="46.105547821025766" lon="11.773315265001463"><ele>624.0</ele><time>2026-05-02T12:09:30.001Z</time></trkpt><trkpt lat="46.105689232173944" lon="11.773295999275025"><ele>624.0</ele><time>2026-05-02T12:09:31.001Z</time></trkpt><trkpt lat="46.10581633605894" lon="11.77329282436506"><ele>624.0</ele><time>2026-05-02T12:09:32.001Z</time></trkpt><trkpt lat="46.10593776765476" lon="11.773307784138126"><ele>624.0</ele><time>2026-05-02T12:09:33.001Z</time></trkpt><trkpt lat="46.106047626419084" lon="11.773350307194674"><ele>616.6</ele><time>2026-05-02T12:09:34.001Z</time></trkpt><trkpt lat="46.10613821796185" lon="11.773420344937827"><ele>609.2</ele><time>2026-05-02T12:09:35.001Z</time></trkpt><trkpt lat="46.10622354070749" lon="11.77351543181584"><ele>601.8000000000001</ele><time>2026-05-02T12:09:36.001Z</time></trkpt><trkpt lat="46.1063185189684" lon="11.773624369589072"><ele>594.4</ele><time>2026-05-02T12:09:37.001Z</time></trkpt><trkpt lat="46.10640710008182" lon="11.773728155009477"><ele>587.0</ele><time>2026-05-02T12:09:38.001Z</time></trkpt><trkpt lat="46.10648173665223" lon="11.773811123990182"><ele>587.0</ele><time>2026-05-02T12:09:39.001Z</time></trkpt><trkpt lat="46.106530501590406" lon="11.773877916095442"><ele>587.0</ele><time>2026-05-02T12:09:40.001Z</time></trkpt><trkpt lat="46.10657685108399" lon="11.77397523896653"><ele>587.0</ele><time>2026-05-02T12:09:42.001Z</time></trkpt><trkpt lat="46.10662671271804" lon="11.77390950657836"><ele>587.0</ele><time>2026-05-02T12:09:51.001Z</time></trkpt><trkpt lat="46.10649512770817" lon="11.773748205281867"><ele>587.0</ele><time>2026-05-02T12:09:53.001Z</time></trkpt><trkpt lat="46.10641004545007" lon="11.773665359492737"><ele>587.0</ele><time>2026-05-02T12:09:54.001Z</time></trkpt><trkpt lat="46.10632430269837" lon="11.77357050027096"><ele>587.0</ele><time>2026-05-02T12:09:55.001Z</time></trkpt><trkpt lat="46.10623610127454" lon="11.773472492941792"><ele>587.0</ele><time>2026-05-02T12:09:56.001Z</time></trkpt><trkpt lat="46.106149790231015" lon="11.773386836166397"><ele>587.0</ele><time>2026-05-02T12:09:57.001Z</time></trkpt><trkpt lat="46.10603635732983" lon="11.773304512833642"><ele>581.75</ele><time>2026-05-02T12:09:58.001Z</time></trkpt><trkpt lat="46.10590531908363" lon="11.77327459096125"><ele>576.5</ele><time>2026-05-02T12:09:59.001Z</time></trkpt><trkpt lat="46.1057620593694" lon="11.77326971966218"><ele>571.25</ele><time>2026-05-02T12:10:00.001Z</time></trkpt><trkpt lat="46.105625060836466" lon="11.773273133400648"><ele>566.0</ele><time>2026-05-02T12:10:01.001Z</time></trkpt><trkpt lat="46.10549360101133" lon="11.773267224165098"><ele>580.5</ele><time>2026-05-02T12:10:02.001Z</time></trkpt><trkpt lat="46.10536347431604" lon="11.77324419523977"><ele>595.0</ele><time>2026-05-02T12:10:03.001Z</time></trkpt><trkpt lat="46.10524095649628" lon="11.773189351185502"><ele>609.5</ele><time>2026-05-02T12:10:04.001Z</time></trkpt><trkpt lat="46.10512453738376" lon="11.773101342473494"><ele>624.0</ele><time>2026-05-02T12:10:05.001Z</time></trkpt><trkpt lat="46.10500610039413" lon="11.772989997652607"><ele>619.0</ele><time>2026-05-02T12:10:06.001Z</time></trkpt><trkpt lat="46.104888531798" lon="11.772872417827136"><ele>614.0</ele><time>2026-05-02T12:10:07.001Z</time></trkpt><trkpt lat="46.104787603911646" lon="11.772765284204743"><ele>609.0</ele><time>2026-05-02T12:10:08.001Z</time></trkpt><trkpt lat="46.104690559096454" lon="11.77267743302244"><ele>604.0</ele><time>2026-05-02T12:10:09.001Z</time></trkpt><trkpt lat="46.10458897389563" lon="11.772620582236986"><ele>604.0</ele><time>2026-05-02T12:10:10.001Z</time></trkpt><trkpt lat="46.104490204844176" lon="11.772586072261845"><ele>604.0</ele><time>2026-05-02T12:10:11.001Z</time></trkpt><trkpt lat="46.1043813308997" lon="11.772570749367848"><ele>604.0</ele><time>2026-05-02T12:10:12.001Z</time></trkpt><trkpt lat="46.104277657790554" lon="11.772577776146507"><ele>604.0</ele><time>2026-05-02T12:10:13.001Z</time></trkpt><trkpt lat="46.10418787919346" lon="11.772595794874977"><ele>604.0</ele><time>2026-05-02T12:10:14.001Z</time></trkpt><trkpt lat="46.104124088221255" lon="11.772603803456972"><ele>611.6666666666667</ele><time>2026-05-02T12:10:15.001Z</time></trkpt><trkpt lat="46.1040884441689" lon="11.77270196997727"><ele>619.3333333333334</ele><time>2026-05-02T12:10:18.001Z</time></trkpt><trkpt lat="46.1040317650484" lon="11.772788643951374"><ele>627.0</ele><time>2026-05-02T12:10:22.001Z</time></trkpt><trkpt lat="46.10399034789662" lon="11.772871682479341"><ele>634.6666666666666</ele><time>2026-05-02T12:10:24.001Z</time></trkpt><trkpt lat="46.10390741914348" lon="11.772938719797201"><ele>642.3333333333333</ele><time>2026-05-02T12:10:53.001Z</time></trkpt><trkpt lat="46.10380213323679" lon="11.772994245949032"><ele>650.0</ele><time>2026-05-02T12:10:55.001Z</time></trkpt><trkpt lat="46.10367560964399" lon="11.773001775882982"><ele>650.6666666666666</ele><time>2026-05-02T12:10:57.001Z</time></trkpt><trkpt lat="46.103607564138606" lon="11.772982855778482"><ele>651.3333333333333</ele><time>2026-05-02T12:10:58.001Z</time></trkpt><trkpt lat="46.10353550003859" lon="11.772959482508513"><ele>652.0</ele><time>2026-05-02T12:10:59.001Z</time></trkpt><trkpt lat="46.103458278730756" lon="11.772926220552733"><ele>652.6666666666666</ele><time>2026-05-02T12:11:00.001Z</time></trkpt><trkpt lat="46.1033895383956" lon="11.772883157898868"><ele>653.3333333333334</ele><time>2026-05-02T12:11:01.001Z</time></trkpt><trkpt lat="46.10331627822865" lon="11.772841790432249"><ele>654.0</ele><time>2026-05-02T12:11:02.001Z</time></trkpt><trkpt lat="46.103252226566426" lon="11.772785953478174"><ele>655.1666666666666</ele><time>2026-05-02T12:11:03.001Z</time></trkpt><trkpt lat="46.1031877833548" lon="11.77272801821091"><ele>656.3333333333334</ele><time>2026-05-02T12:11:04.001Z</time></trkpt><trkpt lat="46.103129993343494" lon="11.772673568125619"><ele>657.5</ele><time>2026-05-02T12:11:05.001Z</time></trkpt><trkpt lat="46.103070538506394" lon="11.772613361368817"><ele>658.6666666666667</ele><time>2026-05-02T12:11:06.001Z</time></trkpt><trkpt lat="46.10300486259239" lon="11.772536307859449"><ele>659.8333333333334</ele><time>2026-05-02T12:11:07.001Z</time></trkpt><trkpt lat="46.10293564555299" lon="11.772468735408712"><ele>661.0</ele><time>2026-05-02T12:11:08.001Z</time></trkpt><trkpt lat="46.10287127511027" lon="11.77240441784251"><ele>656.3333333333334</ele><time>2026-05-02T12:11:09.001Z</time></trkpt><trkpt lat="46.10280747997981" lon="11.772344201849844"><ele>651.6666666666667</ele><time>2026-05-02T12:11:10.001Z</time></trkpt><trkpt lat="46.10274516918423" lon="11.772267455170452"><ele>647.0</ele><time>2026-05-02T12:11:11.001Z</time></trkpt><trkpt lat="46.10268766001624" lon="11.772200244527292"><ele>642.3333333333334</ele><time>2026-05-02T12:11:12.001Z</time></trkpt><trkpt lat="46.10263543356586" lon="11.772114903663022"><ele>637.6666666666666</ele><time>2026-05-02T12:11:13.001Z</time></trkpt><trkpt lat="46.10258556913179" lon="11.77202712647461"><ele>633.0</ele><time>2026-05-02T12:11:14.001Z</time></trkpt><trkpt lat="46.102528452762606" lon="11.771925160855318"><ele>633.5</ele><time>2026-05-02T12:11:15.001Z</time></trkpt><trkpt lat="46.10247816310569" lon="11.771814120177316"><ele>634.0</ele><time>2026-05-02T12:11:16.001Z</time></trkpt><trkpt lat="46.10242328550597" lon="11.771701568726929"><ele>634.5</ele><time>2026-05-02T12:11:17.001Z</time></trkpt><trkpt lat="46.10236597674832" lon="11.771596108108968"><ele>635.0</ele><time>2026-05-02T12:11:18.001Z</time></trkpt><trkpt lat="46.10232439888721" lon="11.77150768333171"><ele>635.5</ele><time>2026-05-02T12:11:19.001Z</time></trkpt><trkpt lat="46.10229302955593" lon="11.771427832114009"><ele>636.0</ele><time>2026-05-02T12:11:20.001Z</time></trkpt><trkpt lat="46.102269577376276" lon="11.771339444020475"><ele>636.0</ele><time>2026-05-02T12:11:21.001Z</time></trkpt><trkpt lat="46.10226376694982" lon="11.771244200770255"><ele>636.0</ele><time>2026-05-02T12:11:22.001Z</time></trkpt><trkpt lat="46.10226163316047" lon="11.771153274065643"><ele>636.0</ele><time>2026-05-02T12:11:23.001Z</time></trkpt><trkpt lat="46.102221175354934" lon="11.771016675131268"><ele>636.0</ele><time>2026-05-02T12:11:25.001Z</time></trkpt><trkpt lat="46.10215299590979" lon="11.77099278540475"><ele>636.0</ele><time>2026-05-02T12:11:26.001Z</time></trkpt><trkpt lat="46.10208571986321" lon="11.7709784864175"><ele>636.0</ele><time>2026-05-02T12:11:27.001Z</time></trkpt><trkpt lat="46.102018192029554" lon="11.770969136349253"><ele>636.0</ele><time>2026-05-02T12:11:28.001Z</time></trkpt><trkpt lat="46.101943360962366" lon="11.770958989157394"><ele>631.4</ele><time>2026-05-02T12:11:29.001Z</time></trkpt><trkpt lat="46.10187405552302" lon="11.770948352505872"><ele>626.8</ele><time>2026-05-02T12:11:30.001Z</time></trkpt><trkpt lat="46.10179443883138" lon="11.770895908980405"><ele>622.1999999999999</ele><time>2026-05-02T12:11:32.001Z</time></trkpt><trkpt lat="46.101765683547896" lon="11.770782837308566"><ele>617.6</ele><time>2026-05-02T12:11:34.001Z</time></trkpt><trkpt lat="46.10173850706837" lon="11.770625143993735"><ele>613.0</ele><time>2026-05-02T12:11:36.001Z</time></trkpt><trkpt lat="46.10166832103051" lon="11.770472480422086"><ele>613.0</ele><time>2026-05-02T12:11:38.001Z</time></trkpt><trkpt lat="46.10161090734421" lon="11.770423536263005"><ele>613.0</ele><time>2026-05-02T12:11:39.001Z</time></trkpt><trkpt lat="46.101504045712545" lon="11.770307524815978"><ele>613.0</ele><time>2026-05-02T12:11:41.001Z</time></trkpt><trkpt lat="46.10144489043156" lon="11.770258772117302"><ele>613.0</ele><time>2026-05-02T12:11:42.001Z</time></trkpt><trkpt lat="46.10138021976747" lon="11.770206367347438"><ele>613.0</ele><time>2026-05-02T12:11:43.001Z</time></trkpt><trkpt lat="46.10132345287334" lon="11.770151675502188"><ele>613.0</ele><time>2026-05-02T12:11:44.001Z</time></trkpt><trkpt lat="46.1012730055361" lon="11.770085277159582"><ele>620.8333333333334</ele><time>2026-05-02T12:11:45.001Z</time></trkpt><trkpt lat="46.101228167819365" lon="11.770011170769106"><ele>628.6666666666667</ele><time>2026-05-02T12:11:46.001Z</time></trkpt><trkpt lat="46.10118538807199" lon="11.76992542673951"><ele>636.5</ele><time>2026-05-02T12:11:47.001Z</time></trkpt><trkpt lat="46.10113918829667" lon="11.769841625916774"><ele>644.3333333333334</ele><time>2026-05-02T12:11:48.001Z</time></trkpt><trkpt lat="46.10109900566351" lon="11.769759225068787"><ele>652.1666666666666</ele><time>2026-05-02T12:11:49.001Z</time></trkpt><trkpt lat="46.10107501199256" lon="11.76961973384368"><ele>660.0</ele><time>2026-05-02T12:11:51.001Z</time></trkpt><trkpt lat="46.10106224150731" lon="11.769521948641154"><ele>660.0</ele><time>2026-05-02T12:11:52.001Z</time></trkpt><trkpt lat="46.10100362991033" lon="11.769464560188313"><ele>660.0</ele><time>2026-05-02T12:11:54.001Z</time></trkpt><trkpt lat="46.10095149665545" lon="11.769517619600327"><ele>660.0</ele><time>2026-05-02T12:11:56.001Z</time></trkpt><trkpt lat="46.10096482568746" lon="11.769626454421175"><ele>660.0</ele><time>2026-05-02T12:11:58.001Z</time></trkpt><trkpt lat="46.10101582613113" lon="11.769783997629377"><ele>660.0</ele><time>2026-05-02T12:12:00.001Z</time></trkpt><trkpt lat="46.10105877476581" lon="11.769865319935708"><ele>660.0</ele><time>2026-05-02T12:12:01.001Z</time></trkpt><trkpt lat="46.10109809072154" lon="11.769958588860305"><ele>660.0000000000001</ele><time>2026-05-02T12:12:02.001Z</time></trkpt><trkpt lat="46.10113820170741" lon="11.770067889279458"><ele>660.0</ele><time>2026-05-02T12:12:03.001Z</time></trkpt><trkpt lat="46.10117278901051" lon="11.770163636882621"><ele>660.0</ele><time>2026-05-02T12:12:04.001Z</time></trkpt><trkpt lat="46.10122338867314" lon="11.770247227572652"><ele>660.0</ele><time>2026-05-02T12:12:05.001Z</time></trkpt><trkpt lat="46.10128215130135" lon="11.77029571075889"><ele>660.0</ele><time>2026-05-02T12:12:06.001Z</time></trkpt><trkpt lat="46.10134495661365" lon="11.77032629263733"><ele>660.0000000000001</ele><time>2026-05-02T12:12:07.001Z</time></trkpt><trkpt lat="46.101411374812535" lon="11.770360876474024"><ele>660.0</ele><time>2026-05-02T12:12:08.001Z</time></trkpt><trkpt lat="46.101491235211284" lon="11.77047411970696"><ele>661.6</ele><time>2026-05-02T12:12:10.001Z</time></trkpt><trkpt lat="46.101509108574284" lon="11.770619170330749"><ele>663.2</ele><time>2026-05-02T12:12:12.001Z</time></trkpt><trkpt lat="46.10147447889527" lon="11.770742272217452"><ele>664.8</ele><time>2026-05-02T12:12:14.001Z</time></trkpt><trkpt lat="46.101404223795555" lon="11.77089043421914"><ele>666.4</ele><time>2026-05-02T12:12:16.001Z</time></trkpt><trkpt lat="46.10135416928249" lon="11.770950259205629"><ele>668.0</ele><time>2026-05-02T12:12:17.001Z</time></trkpt><trkpt lat="46.101244763112824" lon="11.771023415955822"><ele>668.0</ele><time>2026-05-02T12:12:19.001Z</time></trkpt><trkpt lat="46.10114233458592" lon="11.77108588316563"><ele>668.0</ele><time>2026-05-02T12:12:21.001Z</time></trkpt><trkpt lat="46.10109853640806" lon="11.771157490098146"><ele>668.0</ele><time>2026-05-02T12:12:22.001Z</time></trkpt><trkpt lat="46.10104212864589" lon="11.771305925994348"><ele>668.0</ele><time>2026-05-02T12:12:24.001Z</time></trkpt><trkpt lat="46.10098780316546" lon="11.771483344227722"><ele>668.0</ele><time>2026-05-02T12:12:26.001Z</time></trkpt><trkpt lat="46.100965818941376" lon="11.771572446593392"><ele>668.0</ele><time>2026-05-02T12:12:27.001Z</time></trkpt><trkpt lat="46.10094361331043" lon="11.771668007625548"><ele>668.0</ele><time>2026-05-02T12:12:28Z</time></trkpt><trkpt lat="46.10092557400776" lon="11.771756262592435"><ele>668.0</ele><time>2026-05-02T12:12:29.001Z</time></trkpt><trkpt lat="46.10093887970863" lon="11.771907530860052"><ele>668.0</ele><time>2026-05-02T12:12:31Z</time></trkpt><trkpt lat="46.10101215466783" lon="11.771994753641883"><ele>668.0</ele><time>2026-05-02T12:12:33Z</time></trkpt><trkpt lat="46.1011256343897" lon="11.771971588547277"><ele>668.0</ele><time>2026-05-02T12:12:35Z</time></trkpt><trkpt lat="46.10122767663709" lon="11.77187455412923"><ele>668.0</ele><time>2026-05-02T12:12:37Z</time></trkpt><trkpt lat="46.101331410890836" lon="11.771833353064826"><ele>668.0</ele><time>2026-05-02T12:12:39Z</time></trkpt><trkpt lat="46.101387512816274" lon="11.771877913499372"><ele>668.0</ele><time>2026-05-02T12:12:40Z</time></trkpt><trkpt lat="46.10149264521743" lon="11.771932587667653"><ele>668.0</ele><time>2026-05-02T12:12:42Z</time></trkpt><trkpt lat="46.101613113921886" lon="11.771985907880206"><ele>668.0</ele><time>2026-05-02T12:12:44Z</time></trkpt><trkpt lat="46.10173464943555" lon="11.771939357329012"><ele>670.2</ele><time>2026-05-02T12:12:46Z</time></trkpt><trkpt lat="46.10184887581143" lon="11.771940348572699"><ele>672.4</ele><time>2026-05-02T12:12:48Z</time></trkpt><trkpt lat="46.10191823096743" lon="11.772055839298254"><ele>674.6</ele><time>2026-05-02T12:12:50Z</time></trkpt><trkpt lat="46.10193168758443" lon="11.77222536745053"><ele>676.8000000000001</ele><time>2026-05-02T12:12:52Z</time></trkpt><trkpt lat="46.10194362131151" lon="11.772334728772108"><ele>679.0</ele><time>2026-05-02T12:12:53Z</time></trkpt><trkpt lat="46.10196100378903" lon="11.77245196813215"><ele>679.0</ele><time>2026-05-02T12:12:54Z</time></trkpt><trkpt lat="46.101990897619096" lon="11.772564235766433"><ele>679.0</ele><time>2026-05-02T12:12:55Z</time></trkpt><trkpt lat="46.102017101094596" lon="11.772668495046881"><ele>679.0</ele><time>2026-05-02T12:12:56Z</time></trkpt><trkpt lat="46.10202814809421" lon="11.772766785287287"><ele>679.0</ele><time>2026-05-02T12:12:57Z</time></trkpt><trkpt lat="46.10202513425864" lon="11.77287278187763"><ele>679.0</ele><time>2026-05-02T12:12:58Z</time></trkpt><trkpt lat="46.102018590404136" lon="11.772983565311446"><ele>679.0</ele><time>2026-05-02T12:12:59Z</time></trkpt><trkpt lat="46.102012062873996" lon="11.773098034287365"><ele>684.0</ele><time>2026-05-02T12:13:00Z</time></trkpt><trkpt lat="46.10201418923633" lon="11.773214321214999"><ele>689.0</ele><time>2026-05-02T12:13:01Z</time></trkpt><trkpt lat="46.10204102743494" lon="11.773378294262152"><ele>694.0</ele><time>2026-05-02T12:13:03Z</time></trkpt><trkpt lat="46.10211413943796" lon="11.77350977186633"><ele>699.0</ele><time>2026-05-02T12:13:05Z</time></trkpt><trkpt lat="46.10216569706874" lon="11.773581880795344"><ele>704.0</ele><time>2026-05-02T12:13:06Z</time></trkpt><trkpt lat="46.10219870445234" lon="11.77366709418669"><ele>706.7142857142858</ele><time>2026-05-02T12:13:07Z</time></trkpt><trkpt lat="46.10222318503126" lon="11.77376245531775"><ele>709.4285714285714</ele><time>2026-05-02T12:13:08Z</time></trkpt><trkpt lat="46.10223781543192" lon="11.773853955655184"><ele>712.1428571428571</ele><time>2026-05-02T12:13:09Z</time></trkpt><trkpt lat="46.10225897086233" lon="11.773950515636376"><ele>714.8571428571429</ele><time>2026-05-02T12:13:10Z</time></trkpt><trkpt lat="46.10231512977731" lon="11.774015354971459"><ele>717.5714285714286</ele><time>2026-05-02T12:13:11Z</time></trkpt><trkpt lat="46.102373503887144" lon="11.77408005000515"><ele>720.2857142857143</ele><time>2026-05-02T12:13:12Z</time></trkpt><trkpt lat="46.10244039044818" lon="11.77414537167568"><ele>723.0</ele><time>2026-05-02T12:13:13Z</time></trkpt><trkpt lat="46.10248834377485" lon="11.774222168388915"><ele>718.7142857142858</ele><time>2026-05-02T12:13:14.001Z</time></trkpt><trkpt lat="46.10252072482788" lon="11.774314018789816"><ele>714.4285714285714</ele><time>2026-05-02T12:13:15.001Z</time></trkpt><trkpt lat="46.102538976846446" lon="11.77442153785293"><ele>710.1428571428571</ele><time>2026-05-02T12:13:16.001Z</time></trkpt><trkpt lat="46.10255078578708" lon="11.774524745686104"><ele>705.8571428571429</ele><time>2026-05-02T12:13:17.001Z</time></trkpt><trkpt lat="46.102560477706106" lon="11.77462376956853"><ele>701.5714285714286</ele><time>2026-05-02T12:13:18.001Z</time></trkpt><trkpt lat="46.102563155035206" lon="11.774732808982408"><ele>697.2857142857143</ele><time>2026-05-02T12:13:19.001Z</time></trkpt><trkpt lat="46.10256426761532" lon="11.774838421725807"><ele>693.0</ele><time>2026-05-02T12:13:20.001Z</time></trkpt><trkpt lat="46.10258488262865" lon="11.77493290292328"><ele>693.0</ele><time>2026-05-02T12:13:21.001Z</time></trkpt><trkpt lat="46.102606999046486" lon="11.775036000675824"><ele>693.0</ele><time>2026-05-02T12:13:22.001Z</time></trkpt><trkpt lat="46.10262918689527" lon="11.775134510215452"><ele>693.0</ele><time>2026-05-02T12:13:23.001Z</time></trkpt><trkpt lat="46.10265379291668" lon="11.775231430481481"><ele>693.0</ele><time>2026-05-02T12:13:24.001Z</time></trkpt><trkpt lat="46.102684504918095" lon="11.775325277167239"><ele>693.0</ele><time>2026-05-02T12:13:25.001Z</time></trkpt><trkpt lat="46.102716900839596" lon="11.775419584796216"><ele>693.0</ele><time>2026-05-02T12:13:26.001Z</time></trkpt><trkpt lat="46.102752686678976" lon="11.775513424871104"><ele>693.0</ele><time>2026-05-02T12:13:27.001Z</time></trkpt><trkpt lat="46.10278486812274" lon="11.775606690748063"><ele>697.25</ele><time>2026-05-02T12:13:28.001Z</time></trkpt><trkpt lat="46.10284204027148" lon="11.77576733705669"><ele>701.5</ele><time>2026-05-02T12:13:30.001Z</time></trkpt><trkpt lat="46.102891569158324" lon="11.775931525772336"><ele>705.75</ele><time>2026-05-02T12:13:32.001Z</time></trkpt><trkpt lat="46.10289589051843" lon="11.776099985609909"><ele>710.0</ele><time>2026-05-02T12:13:34.001Z</time></trkpt><trkpt lat="46.102861265705734" lon="11.77625975651491"><ele>711.2</ele><time>2026-05-02T12:13:36.001Z</time></trkpt><trkpt lat="46.10283580771719" lon="11.776418418583473"><ele>712.4</ele><time>2026-05-02T12:13:38.001Z</time></trkpt><trkpt lat="46.10281913489532" lon="11.776601531274608"><ele>713.5999999999999</ele><time>2026-05-02T12:13:40.001Z</time></trkpt><trkpt lat="46.10280601937014" lon="11.776699710281868"><ele>714.8</ele><time>2026-05-02T12:13:41.001Z</time></trkpt><trkpt lat="46.10279808235171" lon="11.776791458481803"><ele>716.0</ele><time>2026-05-02T12:13:42.001Z</time></trkpt><trkpt lat="46.102778140978536" lon="11.776961154432916"><ele>717.0</ele><time>2026-05-02T12:13:44.001Z</time></trkpt><trkpt lat="46.10275334217024" lon="11.777045392744087"><ele>718.0</ele><time>2026-05-02T12:13:45.001Z</time></trkpt><trkpt lat="46.10268149960049" lon="11.777191280713115"><ele>719.0</ele><time>2026-05-02T12:13:47.001Z</time></trkpt><trkpt lat="46.10265174606699" lon="11.777275840286126"><ele>720.0</ele><time>2026-05-02T12:13:48.001Z</time></trkpt><trkpt lat="46.10263529750564" lon="11.777367388525319"><ele>721.0</ele><time>2026-05-02T12:13:49.001Z</time></trkpt><trkpt lat="46.102621621728915" lon="11.777527519623717"><ele>722.0</ele><time>2026-05-02T12:13:51.001Z</time></trkpt><trkpt lat="46.10261361729833" lon="11.777618393476322"><ele>722.2</ele><time>2026-05-02T12:13:52.001Z</time></trkpt><trkpt lat="46.10262877105234" lon="11.777707159224699"><ele>722.4000000000001</ele><time>2026-05-02T12:13:53.001Z</time></trkpt><trkpt lat="46.10264866491952" lon="11.777898418923098"><ele>722.5999999999999</ele><time>2026-05-02T12:13:55.001Z</time></trkpt><trkpt lat="46.10262470200097" lon="11.778025921535045"><ele>722.8</ele><time>2026-05-02T12:13:57.001Z</time></trkpt><trkpt lat="46.10262274474742" lon="11.778137605436813"><ele>723.0</ele><time>2026-05-02T12:14:08.001Z</time></trkpt><trkpt lat="46.10263004165896" lon="11.778265974171422"><ele>723.0</ele><time>2026-05-02T12:14:10.001Z</time></trkpt><trkpt lat="46.10263406442603" lon="11.77836118185219"><ele>723.0</ele><time>2026-05-02T12:14:11.001Z</time></trkpt><trkpt lat="46.102645282303726" lon="11.778451094398914"><ele>723.0</ele><time>2026-05-02T12:14:12.001Z</time></trkpt><trkpt lat="46.10265993586257" lon="11.778636468892346"><ele>723.0</ele><time>2026-05-02T12:14:14.001Z</time></trkpt><trkpt lat="46.102655157576955" lon="11.77874750937814"><ele>723.0</ele><time>2026-05-02T12:14:15.001Z</time></trkpt><trkpt lat="46.10264427548614" lon="11.778866286791391"><ele>723.0</ele><time>2026-05-02T12:14:16.001Z</time></trkpt><trkpt lat="46.10263637332293" lon="11.778988395619782"><ele>723.5714285714287</ele><time>2026-05-02T12:14:17.001Z</time></trkpt><trkpt lat="46.102627808181296" lon="11.779114482136116"><ele>724.1428571428571</ele><time>2026-05-02T12:14:18.001Z</time></trkpt><trkpt lat="46.10262941786372" lon="11.779220377784204"><ele>724.7142857142858</ele><time>2026-05-02T12:14:19.001Z</time></trkpt><trkpt lat="46.10262484346619" lon="11.779322981887951"><ele>725.2857142857143</ele><time>2026-05-02T12:14:20.001Z</time></trkpt><trkpt lat="46.10261529628909" lon="11.779428255372888"><ele>725.8571428571429</ele><time>2026-05-02T12:14:21.001Z</time></trkpt><trkpt lat="46.102609716871136" lon="11.779532201903763"><ele>726.4285714285714</ele><time>2026-05-02T12:14:22.001Z</time></trkpt><trkpt lat="46.10260411286996" lon="11.779624538506063"><ele>727.0</ele><time>2026-05-02T12:14:23.001Z</time></trkpt><trkpt lat="46.10259386119167" lon="11.779825330844783"><ele>727.6666666666667</ele><time>2026-05-02T12:14:25.001Z</time></trkpt><trkpt lat="46.10258193587379" lon="11.779940488503229"><ele>728.3333333333334</ele><time>2026-05-02T12:14:26.001Z</time></trkpt><trkpt lat="46.10257673969846" lon="11.780040970332347"><ele>729.0</ele><time>2026-05-02T12:14:27.001Z</time></trkpt><trkpt lat="46.10257823374984" lon="11.78014597425438"><ele>729.6666666666666</ele><time>2026-05-02T12:14:28.001Z</time></trkpt><trkpt lat="46.10260145440201" lon="11.780322510941073"><ele>730.3333333333333</ele><time>2026-05-02T12:14:30.001Z</time></trkpt><trkpt lat="46.102618483826454" lon="11.780456493138862"><ele>731.0</ele><time>2026-05-02T12:14:32.001Z</time></trkpt><trkpt lat="46.10254109254948" lon="11.780368836297223"><ele>731.0</ele><time>2026-05-02T12:14:46Z</time></trkpt><trkpt lat="46.102517815934036" lon="11.780232114999722"><ele>731.0</ele><time>2026-05-02T12:14:48Z</time></trkpt><trkpt lat="46.10249874824643" lon="11.780018939819787"><ele>731.0</ele><time>2026-05-02T12:14:50Z</time></trkpt><trkpt lat="46.10248873137253" lon="11.779900570276672"><ele>731.0</ele><time>2026-05-02T12:14:51Z</time></trkpt><trkpt lat="46.10247525426809" lon="11.779799466859101"><ele>731.0</ele><time>2026-05-02T12:14:52Z</time></trkpt><trkpt lat="46.10245553684458" lon="11.779707153037661"><ele>731.0</ele><time>2026-05-02T12:14:53Z</time></trkpt><trkpt lat="46.10243549596464" lon="11.779617702427911"><ele>731.0</ele><time>2026-05-02T12:14:54Z</time></trkpt><trkpt lat="46.10240521315746" lon="11.779524590100946"><ele>731.0</ele><time>2026-05-02T12:14:55Z</time></trkpt><trkpt lat="46.10238246557798" lon="11.779437318449745"><ele>731.0</ele><time>2026-05-02T12:14:56Z</time></trkpt><trkpt lat="46.102361995053386" lon="11.77934099444959"><ele>731.0</ele><time>2026-05-02T12:14:57Z</time></trkpt><trkpt lat="46.10234414225632" lon="11.779246099931076"><ele>731.0</ele><time>2026-05-02T12:14:58Z</time></trkpt><trkpt lat="46.102335524244474" lon="11.779148375160894"><ele>731.0</ele><time>2026-05-02T12:14:59Z</time></trkpt><trkpt lat="46.10231751270294" lon="11.77904655795374"><ele>739.1428571428571</ele><time>2026-05-02T12:15:00Z</time></trkpt><trkpt lat="46.10228953085214" lon="11.7789527665077"><ele>747.2857142857142</ele><time>2026-05-02T12:15:01Z</time></trkpt><trkpt lat="46.10227238867578" lon="11.778842554366355"><ele>755.4285714285714</ele><time>2026-05-02T12:15:02Z</time></trkpt><trkpt lat="46.10225933628371" lon="11.778744096552684"><ele>763.5714285714286</ele><time>2026-05-02T12:15:03Z</time></trkpt><trkpt lat="46.10224299861882" lon="11.778633957889756"><ele>771.7142857142858</ele><time>2026-05-02T12:15:04Z</time></trkpt><trkpt lat="46.10222729582043" lon="11.778530688144638"><ele>779.8571428571429</ele><time>2026-05-02T12:15:05Z</time></trkpt><trkpt lat="46.102196635552566" lon="11.778433279327158"><ele>788.0</ele><time>2026-05-02T12:15:06Z</time></trkpt><trkpt lat="46.1021945616069" lon="11.778301351856244"><ele>788.0</ele><time>2026-05-02T12:15:07Z</time></trkpt><trkpt lat="46.102194194002756" lon="11.778186133880865"><ele>788.0</ele><time>2026-05-02T12:15:08Z</time></trkpt><trkpt lat="46.102187637314216" lon="11.778080114257383"><ele>788.0</ele><time>2026-05-02T12:15:09Z</time></trkpt><trkpt lat="46.102186387624755" lon="11.777973355056808"><ele>788.0</ele><time>2026-05-02T12:15:10Z</time></trkpt><trkpt lat="46.10216920224769" lon="11.777866894151797"><ele>788.0</ele><time>2026-05-02T12:15:11Z</time></trkpt><trkpt lat="46.10214151021652" lon="11.777770372519587"><ele>788.0</ele><time>2026-05-02T12:15:12Z</time></trkpt><trkpt lat="46.10210892449761" lon="11.777683972668498"><ele>788.0</ele><time>2026-05-02T12:15:13Z</time></trkpt><trkpt lat="46.102079789652414" lon="11.777596806880346"><ele>787.6666666666667</ele><time>2026-05-02T12:15:14Z</time></trkpt><trkpt lat="46.10205046148199" lon="11.777509088518427"><ele>787.3333333333334</ele><time>2026-05-02T12:15:15Z</time></trkpt><trkpt lat="46.10204242436011" lon="11.777396391399897"><ele>787.0</ele><time>2026-05-02T12:15:16Z</time></trkpt><trkpt lat="46.102038475668614" lon="11.777288223240483"><ele>786.6666666666667</ele><time>2026-05-02T12:15:17Z</time></trkpt><trkpt lat="46.1020361905996" lon="11.777192938887664"><ele>786.3333333333334</ele><time>2026-05-02T12:15:18Z</time></trkpt><trkpt lat="46.10204791341866" lon="11.777085160047076"><ele>786.0</ele><time>2026-05-02T12:15:19Z</time></trkpt><trkpt lat="46.10202891561266" lon="11.776889362219167"><ele>784.0</ele><time>2026-05-02T12:15:21Z</time></trkpt><trkpt lat="46.10200878609261" lon="11.776774500233799"><ele>782.0</ele><time>2026-05-02T12:15:22Z</time></trkpt><trkpt lat="46.10195113097049" lon="11.77666348410558"><ele>780.0</ele><time>2026-05-02T12:15:23Z</time></trkpt><trkpt lat="46.10191585294892" lon="11.776561898582708"><ele>778.0</ele><time>2026-05-02T12:15:24Z</time></trkpt><trkpt lat="46.10185224535313" lon="11.776372570210093"><ele>776.0</ele><time>2026-05-02T12:15:26Z</time></trkpt><trkpt lat="46.10179493823423" lon="11.776266686282693"><ele>776.0000000000001</ele><time>2026-05-02T12:15:27Z</time></trkpt><trkpt lat="46.1017481876224" lon="11.776154178068134"><ele>776.0</ele><time>2026-05-02T12:15:28Z</time></trkpt><trkpt lat="46.10170152858973" lon="11.77603997761671"><ele>776.0</ele><time>2026-05-02T12:15:29Z</time></trkpt><trkpt lat="46.101660817058765" lon="11.775944204469335"><ele>776.0</ele><time>2026-05-02T12:15:30Z</time></trkpt><trkpt lat="46.101621244559645" lon="11.775848377934386"><ele>776.0000000000001</ele><time>2026-05-02T12:15:31Z</time></trkpt><trkpt lat="46.10158014096508" lon="11.775753414864143"><ele>776.0</ele><time>2026-05-02T12:15:32Z</time></trkpt><trkpt lat="46.101543839656266" lon="11.775677969563688"><ele>781.5999999999999</ele><time>2026-05-02T12:15:33Z</time></trkpt><trkpt lat="46.1014569884019" lon="11.775545520765993"><ele>787.2</ele><time>2026-05-02T12:15:35Z</time></trkpt><trkpt lat="46.10141460725716" lon="11.77547480637173"><ele>792.8</ele><time>2026-05-02T12:15:36Z</time></trkpt><trkpt lat="46.1013143844141" lon="11.775379067531652"><ele>798.4000000000001</ele><time>2026-05-02T12:15:38Z</time></trkpt><trkpt lat="46.101202846075886" lon="11.77535075845035"><ele>804.0</ele><time>2026-05-02T12:15:40Z</time></trkpt><trkpt lat="46.10112477721816" lon="11.775275370006451"><ele>804.0</ele><time>2026-05-02T12:15:42.001Z</time></trkpt><trkpt lat="46.10111723593297" lon="11.775158502875096"><ele>804.0</ele><time>2026-05-02T12:15:44.001Z</time></trkpt><trkpt lat="46.10111382866785" lon="11.775025108023975"><ele>804.0</ele><time>2026-05-02T12:15:46.001Z</time></trkpt><trkpt lat="46.10103118036495" lon="11.775042029992322"><ele>804.0</ele><time>2026-05-02T12:15:49.001Z</time></trkpt><trkpt lat="46.10101984970924" lon="11.77515921274407"><ele>804.0</ele><time>2026-05-02T12:15:51.001Z</time></trkpt><trkpt lat="46.10107107053415" lon="11.77532097320931"><ele>804.0</ele><time>2026-05-02T12:15:53.001Z</time></trkpt><trkpt lat="46.10110240138804" lon="11.775422416281057"><ele>804.0</ele><time>2026-05-02T12:15:54.001Z</time></trkpt><trkpt lat="46.10119350793892" lon="11.775528734355962"><ele>804.0</ele><time>2026-05-02T12:15:56.001Z</time></trkpt><trkpt lat="46.101264176629826" lon="11.775557135839566"><ele>804.0</ele><time>2026-05-02T12:15:57.001Z</time></trkpt><trkpt lat="46.10136343106899" lon="11.775669677008517"><ele>804.0</ele><time>2026-05-02T12:15:59.001Z</time></trkpt><trkpt lat="46.10141090756755" lon="11.775835633380282"><ele>804.0</ele><time>2026-05-02T12:16:01.001Z</time></trkpt><trkpt lat="46.101436298438564" lon="11.775942398521488"><ele>804.0</ele><time>2026-05-02T12:16:02.001Z</time></trkpt><trkpt lat="46.101454964339304" lon="11.776052072433414"><ele>804.0</ele><time>2026-05-02T12:16:03.001Z</time></trkpt><trkpt lat="46.101479740045235" lon="11.776157632825985"><ele>804.0</ele><time>2026-05-02T12:16:04.001Z</time></trkpt><trkpt lat="46.10148934889739" lon="11.776281508459704"><ele>804.0</ele><time>2026-05-02T12:16:05.001Z</time></trkpt><trkpt lat="46.101521587383544" lon="11.776391335701554"><ele>804.0</ele><time>2026-05-02T12:16:06.001Z</time></trkpt><trkpt lat="46.101557402823424" lon="11.776499213221447"><ele>801.0</ele><time>2026-05-02T12:16:07.001Z</time></trkpt><trkpt lat="46.101583947409" lon="11.776667305941176"><ele>798.0</ele><time>2026-05-02T12:16:09.001Z</time></trkpt><trkpt lat="46.1015721965009" lon="11.776768071249464"><ele>795.0</ele><time>2026-05-02T12:16:10.001Z</time></trkpt><trkpt lat="46.10159292239908" lon="11.776880752442246"><ele>792.0</ele><time>2026-05-02T12:16:11.001Z</time></trkpt><trkpt lat="46.1016035982107" lon="11.776977579663692"><ele>789.0</ele><time>2026-05-02T12:16:12.001Z</time></trkpt><trkpt lat="46.1016346827267" lon="11.77706438968251"><ele>786.0</ele><time>2026-05-02T12:16:13.001Z</time></trkpt><trkpt lat="46.101639862327325" lon="11.777225261024158"><ele>786.0</ele><time>2026-05-02T12:16:15.001Z</time></trkpt><trkpt lat="46.10161822069448" lon="11.777315754210868"><ele>786.0</ele><time>2026-05-02T12:16:16.001Z</time></trkpt><trkpt lat="46.101589654200644" lon="11.777413660709136"><ele>786.0</ele><time>2026-05-02T12:16:17.001Z</time></trkpt><trkpt lat="46.10155433005826" lon="11.77760259959056"><ele>786.0</ele><time>2026-05-02T12:16:19.001Z</time></trkpt><trkpt lat="46.10155761408577" lon="11.77769951837148"><ele>786.0</ele><time>2026-05-02T12:16:20.001Z</time></trkpt><trkpt lat="46.101572302994505" lon="11.777796955893816"><ele>786.0</ele><time>2026-05-02T12:16:21.001Z</time></trkpt><trkpt lat="46.101603856092936" lon="11.777901035105133"><ele>786.4</ele><time>2026-05-02T12:16:22.001Z</time></trkpt><trkpt lat="46.101636564167194" lon="11.778003061239836"><ele>786.8</ele><time>2026-05-02T12:16:23.001Z</time></trkpt><trkpt lat="46.10163326413797" lon="11.778171085524935"><ele>787.1999999999999</ele><time>2026-05-02T12:16:25.001Z</time></trkpt><trkpt lat="46.101610530915586" lon="11.778330781511938"><ele>787.5999999999999</ele><time>2026-05-02T12:16:27.001Z</time></trkpt><trkpt lat="46.10153599218919" lon="11.778472361468307"><ele>788.0</ele><time>2026-05-02T12:16:29.001Z</time></trkpt><trkpt lat="46.10151450398175" lon="11.778559460856384"><ele>802.2</ele><time>2026-05-02T12:16:30.001Z</time></trkpt><trkpt lat="46.10151222407902" lon="11.778719059032095"><ele>816.4</ele><time>2026-05-02T12:16:32.001Z</time></trkpt><trkpt lat="46.10153894526073" lon="11.778811851506177"><ele>830.6000000000001</ele><time>2026-05-02T12:16:33.001Z</time></trkpt><trkpt lat="46.101577039016036" lon="11.778948640588776"><ele>844.8000000000001</ele><time>2026-05-02T12:16:35.001Z</time></trkpt><trkpt lat="46.10155809282164" lon="11.779042778455219"><ele>859.0</ele><time>2026-05-02T12:16:37.001Z</time></trkpt><trkpt lat="46.1014457991875" lon="11.779109596644494"><ele>859.0</ele><time>2026-05-02T12:16:39Z</time></trkpt><trkpt lat="46.10150552712985" lon="11.779274246166334"><ele>859.0000000000001</ele><time>2026-05-02T12:16:41Z</time></trkpt><trkpt lat="46.101446439643404" lon="11.779318631756421"><ele>859.0000000000001</ele><time>2026-05-02T12:16:43Z</time></trkpt><trkpt lat="46.10138134070321" lon="11.779300071709644"><ele>859.0</ele><time>2026-05-02T12:16:48Z</time></trkpt><trkpt lat="46.10139318866727" lon="11.779145505777597"><ele>859.0</ele><time>2026-05-02T12:16:50Z</time></trkpt><trkpt lat="46.10144730919354" lon="11.779030390137912"><ele>858.9999999999999</ele><time>2026-05-02T12:16:51Z</time></trkpt><trkpt lat="46.1014856558542" lon="11.778955355129844"><ele>859.0</ele><time>2026-05-02T12:16:52Z</time></trkpt><trkpt lat="46.101457988289376" lon="11.778838194866266"><ele>859.0</ele><time>2026-05-02T12:16:54Z</time></trkpt><trkpt lat="46.101396246872646" lon="11.778722710339654"><ele>859.0</ele><time>2026-05-02T12:16:56Z</time></trkpt><trkpt lat="46.10143094943726" lon="11.778644599707025"><ele>858.9999999999999</ele><time>2026-05-02T12:16:57Z</time></trkpt><trkpt lat="46.101435110584504" lon="11.778509023170498"><ele>859.0</ele><time>2026-05-02T12:16:59Z</time></trkpt><trkpt lat="46.10146779644576" lon="11.77836392806137"><ele>858.9999999999999</ele><time>2026-05-02T12:17:01Z</time></trkpt><trkpt lat="46.101484567347676" lon="11.778269557075204"><ele>859.0</ele><time>2026-05-02T12:17:02Z</time></trkpt><trkpt lat="46.10149518200787" lon="11.778174226453329"><ele>859.0</ele><time>2026-05-02T12:17:03Z</time></trkpt><trkpt lat="46.10148508451275" lon="11.77802601204366"><ele>859.0</ele><time>2026-05-02T12:17:05Z</time></trkpt><trkpt lat="46.10144307619238" lon="11.777953029285458"><ele>858.9999999999999</ele><time>2026-05-02T12:17:06Z</time></trkpt><trkpt lat="46.10139729314836" lon="11.777873553779722"><ele>859.0</ele><time>2026-05-02T12:17:07Z</time></trkpt><trkpt lat="46.10134850048983" lon="11.777736398713618"><ele>857.3333333333333</ele><time>2026-05-02T12:17:09Z</time></trkpt><trkpt lat="46.101334237139454" lon="11.77763342757357"><ele>855.6666666666666</ele><time>2026-05-02T12:17:10Z</time></trkpt><trkpt lat="46.101324547649085" lon="11.77754192485907"><ele>854.0</ele><time>2026-05-02T12:17:11Z</time></trkpt><trkpt lat="46.10130252655389" lon="11.777432853159853"><ele>852.3333333333333</ele><time>2026-05-02T12:17:12Z</time></trkpt><trkpt lat="46.10127352428331" lon="11.777327856568597"><ele>850.6666666666666</ele><time>2026-05-02T12:17:13Z</time></trkpt><trkpt lat="46.101240171852666" lon="11.777234339559573"><ele>849.0</ele><time>2026-05-02T12:17:14Z</time></trkpt><trkpt lat="46.10119818513543" lon="11.777122558376343"><ele>849.0</ele><time>2026-05-02T12:17:15Z</time></trkpt><trkpt lat="46.101155443513754" lon="11.777023446515678"><ele>849.0</ele><time>2026-05-02T12:17:16Z</time></trkpt><trkpt lat="46.10110574853392" lon="11.776943686535708"><ele>849.0</ele><time>2026-05-02T12:17:17Z</time></trkpt><trkpt lat="46.101013225175095" lon="11.776851356296365"><ele>849.0</ele><time>2026-05-02T12:17:19Z</time></trkpt><trkpt lat="46.10095033538246" lon="11.77682112022882"><ele>849.0</ele><time>2026-05-02T12:17:20Z</time></trkpt><trkpt lat="46.1008757399302" lon="11.77678383311543"><ele>849.0</ele><time>2026-05-02T12:17:21Z</time></trkpt><trkpt lat="46.1008109624412" lon="11.776736726016553"><ele>848.6666666666666</ele><time>2026-05-02T12:17:22Z</time></trkpt><trkpt lat="46.1007360414769" lon="11.776699257847495"><ele>848.3333333333333</ele><time>2026-05-02T12:17:23Z</time></trkpt><trkpt lat="46.10065975921699" lon="11.776662031605925"><ele>848.0</ele><time>2026-05-02T12:17:24Z</time></trkpt><trkpt lat="46.10058730086979" lon="11.776624555101657"><ele>847.6666666666666</ele><time>2026-05-02T12:17:25Z</time></trkpt><trkpt lat="46.10051633629251" lon="11.776580206985255"><ele>847.3333333333333</ele><time>2026-05-02T12:17:26Z</time></trkpt><trkpt lat="46.100455856813134" lon="11.77654232832122"><ele>847.0</ele><time>2026-05-02T12:17:27Z</time></trkpt><trkpt lat="46.10037672883383" lon="11.77647569571341"><ele>846.9999999999999</ele><time>2026-05-02T12:17:29Z</time></trkpt><trkpt lat="46.100297232475214" lon="11.776514582757706"><ele>847.0</ele><time>2026-05-02T12:17:32Z</time></trkpt><trkpt lat="46.10028984596656" lon="11.776614929034254"><ele>847.0</ele><time>2026-05-02T12:17:34Z</time></trkpt><trkpt lat="46.10032679131363" lon="11.776732665316414"><ele>847.0</ele><time>2026-05-02T12:17:36Z</time></trkpt><trkpt lat="46.10036296305373" lon="11.776808835839102"><ele>846.9999999999999</ele><time>2026-05-02T12:17:37Z</time></trkpt><trkpt lat="46.10042320477775" lon="11.77695208394766"><ele>847.0</ele><time>2026-05-02T12:17:39Z</time></trkpt><trkpt lat="46.10046559869558" lon="11.777046992363065"><ele>847.3333333333333</ele><time>2026-05-02T12:17:40Z</time></trkpt><trkpt lat="46.100510588473895" lon="11.777124849523284"><ele>847.6666666666666</ele><time>2026-05-02T12:17:41Z</time></trkpt><trkpt lat="46.10057417588442" lon="11.777217348976349"><ele>848.0</ele><time>2026-05-02T12:17:42Z</time></trkpt><trkpt lat="46.100628827845014" lon="11.777296166388778"><ele>848.3333333333333</ele><time>2026-05-02T12:17:43Z</time></trkpt><trkpt lat="46.100679400169525" lon="11.777368723742676"><ele>848.6666666666666</ele><time>2026-05-02T12:17:44Z</time></trkpt><trkpt lat="46.10073666588475" lon="11.77744759393258"><ele>849.0</ele><time>2026-05-02T12:17:45Z</time></trkpt><trkpt lat="46.10080042484552" lon="11.77752694969572"><ele>849.0</ele><time>2026-05-02T12:17:46Z</time></trkpt><trkpt lat="46.10085786575212" lon="11.77762525269191"><ele>849.0</ele><time>2026-05-02T12:17:47Z</time></trkpt><trkpt lat="46.10091704079401" lon="11.777714092589706"><ele>849.0</ele><time>2026-05-02T12:17:48Z</time></trkpt><trkpt lat="46.100964893607056" lon="11.77778962159631"><ele>849.0</ele><time>2026-05-02T12:17:49Z</time></trkpt><trkpt lat="46.10101879468757" lon="11.777923872499624"><ele>849.0</ele><time>2026-05-02T12:17:51Z</time></trkpt><trkpt lat="46.101018052186234" lon="11.778062370420942"><ele>849.0</ele><time>2026-05-02T12:17:53Z</time></trkpt><trkpt lat="46.100971341104604" lon="11.778173832501867"><ele>851.0</ele><time>2026-05-02T12:17:55Z</time></trkpt><trkpt lat="46.10090782201469" lon="11.778322211844737"><ele>853.0</ele><time>2026-05-02T12:17:57.001Z</time></trkpt><trkpt lat="46.10086884279072" lon="11.77839994878723"><ele>855.0000000000001</ele><time>2026-05-02T12:17:58.001Z</time></trkpt><trkpt lat="46.100819008279885" lon="11.778543057469276"><ele>857.0</ele><time>2026-05-02T12:18:00.001Z</time></trkpt><trkpt lat="46.10082159375785" lon="11.778712850472697"><ele>859.0</ele><time>2026-05-02T12:18:02.001Z</time></trkpt><trkpt lat="46.10083747675043" lon="11.778812571594417"><ele>858.9999999999999</ele><time>2026-05-02T12:18:03.001Z</time></trkpt><trkpt lat="46.10084862627248" lon="11.778926950465578"><ele>859.0</ele><time>2026-05-02T12:18:04.001Z</time></trkpt><trkpt lat="46.10084729230394" lon="11.779030878445004"><ele>859.0</ele><time>2026-05-02T12:18:05.001Z</time></trkpt><trkpt lat="46.10082878123868" lon="11.779120946274997"><ele>859.0</ele><time>2026-05-02T12:18:06.001Z</time></trkpt><trkpt lat="46.10082602088303" lon="11.779231771377974"><ele>858.9999999999999</ele><time>2026-05-02T12:18:07.001Z</time></trkpt><trkpt lat="46.10081102384124" lon="11.779355596211577"><ele>859.0</ele><time>2026-05-02T12:18:08.001Z</time></trkpt><trkpt lat="46.10079171431373" lon="11.779474909203675"><ele>862.0</ele><time>2026-05-02T12:18:09.001Z</time></trkpt><trkpt lat="46.10076998015225" lon="11.779575774273006"><ele>865.0000000000001</ele><time>2026-05-02T12:18:10.001Z</time></trkpt><trkpt lat="46.10075685387488" lon="11.779699677841815"><ele>868.0000000000001</ele><time>2026-05-02T12:18:12.001Z</time></trkpt><trkpt lat="46.10071638246668" lon="11.779549660663468"><ele>871.0</ele><time>2026-05-02T12:18:21.001Z</time></trkpt><trkpt lat="46.100734665833144" lon="11.779368244606763"><ele>874.0</ele><time>2026-05-02T12:18:23.001Z</time></trkpt><trkpt lat="46.10074404576296" lon="11.77925824053282"><ele>871.4999999999999</ele><time>2026-05-02T12:18:24.001Z</time></trkpt><trkpt lat="46.10075338887017" lon="11.779148668310134"><ele>869.0</ele><time>2026-05-02T12:18:25.001Z</time></trkpt><trkpt lat="46.10075903440177" lon="11.779055391642373"><ele>866.5</ele><time>2026-05-02T12:18:26.001Z</time></trkpt><trkpt lat="46.10075839234178" lon="11.778952184136166"><ele>864.0</ele><time>2026-05-02T12:18:27.001Z</time></trkpt><trkpt lat="46.10074592551149" lon="11.778857711852513"><ele>861.4999999999999</ele><time>2026-05-02T12:18:28.001Z</time></trkpt><trkpt lat="46.100710450339896" lon="11.778760491025274"><ele>859.0</ele><time>2026-05-02T12:18:29.001Z</time></trkpt><trkpt lat="46.100632795913384" lon="11.778602173102836"><ele>864.6666666666666</ele><time>2026-05-02T12:18:31.001Z</time></trkpt><trkpt lat="46.10062299828378" lon="11.778500115375543"><ele>870.3333333333333</ele><time>2026-05-02T12:18:32.001Z</time></trkpt><trkpt lat="46.10061508930089" lon="11.778408286231736"><ele>876.0</ele><time>2026-05-02T12:18:33.001Z</time></trkpt><trkpt lat="46.100575448732144" lon="11.778235034177419"><ele>881.6666666666667</ele><time>2026-05-02T12:18:35.001Z</time></trkpt><trkpt lat="46.1005279132848" lon="11.778152524413553"><ele>887.3333333333334</ele><time>2026-05-02T12:18:36.001Z</time></trkpt><trkpt lat="46.100442127819676" lon="11.778066455592546"><ele>893.0</ele><time>2026-05-02T12:18:38.001Z</time></trkpt><trkpt lat="46.100385176157104" lon="11.778015639771889"><ele>893.0</ele><time>2026-05-02T12:18:39.001Z</time></trkpt><trkpt lat="46.10032949613656" lon="11.777969206794737"><ele>893.0</ele><time>2026-05-02T12:18:40.001Z</time></trkpt><trkpt lat="46.10027435132344" lon="11.7779236090767"><ele>893.0</ele><time>2026-05-02T12:18:41.001Z</time></trkpt><trkpt lat="46.10020251100087" lon="11.77787257061612"><ele>893.0</ele><time>2026-05-02T12:18:42.001Z</time></trkpt><trkpt lat="46.100057304216605" lon="11.777789643732147"><ele>893.0</ele><time>2026-05-02T12:18:44.001Z</time></trkpt><trkpt lat="46.09995954825568" lon="11.777722249895113"><ele>892.3333333333334</ele><time>2026-05-02T12:18:46Z</time></trkpt><trkpt lat="46.09989624243889" lon="11.777680333963552"><ele>891.6666666666667</ele><time>2026-05-02T12:18:47Z</time></trkpt><trkpt lat="46.09983649622459" lon="11.777543493305568"><ele>891.0</ele><time>2026-05-02T12:18:49Z</time></trkpt><trkpt lat="46.09981242059418" lon="11.777428414222033"><ele>890.3333333333333</ele><time>2026-05-02T12:18:50Z</time></trkpt><trkpt lat="46.0997835075576" lon="11.777336205225955"><ele>889.6666666666666</ele><time>2026-05-02T12:18:51Z</time></trkpt><trkpt lat="46.09971072704276" lon="11.777232916591714"><ele>889.0</ele><time>2026-05-02T12:18:53Z</time></trkpt><trkpt lat="46.09961611567691" lon="11.777247880243957"><ele>889.0</ele><time>2026-05-02T12:18:55Z</time></trkpt><trkpt lat="46.099544207724016" lon="11.777313023611725"><ele>889.0000000000001</ele><time>2026-05-02T12:18:57Z</time></trkpt><trkpt lat="46.09950744664109" lon="11.777451381797517"><ele>889.0000000000001</ele><time>2026-05-02T12:18:59Z</time></trkpt><trkpt lat="46.09950101619129" lon="11.777629949373619"><ele>889.0</ele><time>2026-05-02T12:19:01Z</time></trkpt><trkpt lat="46.09954762612818" lon="11.777726265419277"><ele>889.0</ele><time>2026-05-02T12:19:02Z</time></trkpt><trkpt lat="46.099574891576545" lon="11.777849446379722"><ele>895.4000000000001</ele><time>2026-05-02T12:19:03Z</time></trkpt><trkpt lat="46.09962512073824" lon="11.777971311467429"><ele>901.8000000000001</ele><time>2026-05-02T12:19:04Z</time></trkpt><trkpt lat="46.0996745165256" lon="11.778085478523547"><ele>908.1999999999999</ele><time>2026-05-02T12:19:05Z</time></trkpt><trkpt lat="46.09972410479288" lon="11.778200090459205"><ele>914.5999999999999</ele><time>2026-05-02T12:19:06Z</time></trkpt><trkpt lat="46.0997752623317" lon="11.778318215157087"><ele>921.0</ele><time>2026-05-02T12:19:07Z</time></trkpt><trkpt lat="46.09982519172877" lon="11.77843280978449"><ele>918.8333333333334</ele><time>2026-05-02T12:19:08Z</time></trkpt><trkpt lat="46.099870344075946" lon="11.77853644044457"><ele>916.6666666666667</ele><time>2026-05-02T12:19:09Z</time></trkpt><trkpt lat="46.0999280447589" lon="11.778624251392923"><ele>914.5</ele><time>2026-05-02T12:19:10Z</time></trkpt><trkpt lat="46.09995996821883" lon="11.7787207166386"><ele>912.3333333333334</ele><time>2026-05-02T12:19:11Z</time></trkpt><trkpt lat="46.1000068739858" lon="11.778802968546033"><ele>910.1666666666667</ele><time>2026-05-02T12:19:12Z</time></trkpt><trkpt lat="46.100036419996556" lon="11.778899462062183"><ele>908.0</ele><time>2026-05-02T12:19:13Z</time></trkpt><trkpt lat="46.100078544771634" lon="11.77897593936344"><ele>908.0000000000001</ele><time>2026-05-02T12:19:14Z</time></trkpt><trkpt lat="46.10009802927157" lon="11.779093190841872"><ele>908.0</ele><time>2026-05-02T12:19:15Z</time></trkpt><trkpt lat="46.10012204635648" lon="11.779184786915895"><ele>908.0</ele><time>2026-05-02T12:19:16Z</time></trkpt><trkpt lat="46.10015166528261" lon="11.779306116658779"><ele>908.0</ele><time>2026-05-02T12:19:17Z</time></trkpt><trkpt lat="46.10017751907864" lon="11.779421614107722"><ele>908.0000000000001</ele><time>2026-05-02T12:19:18Z</time></trkpt><trkpt lat="46.100207395631216" lon="11.779531248647215"><ele>908.0</ele><time>2026-05-02T12:19:19Z</time></trkpt><trkpt lat="46.10022527823775" lon="11.779661327816815"><ele>911.5000000000001</ele><time>2026-05-02T12:19:20Z</time></trkpt><trkpt lat="46.10024023841899" lon="11.77979223199327"><ele>915.0</ele><time>2026-05-02T12:19:21Z</time></trkpt><trkpt lat="46.10025301634012" lon="11.779913086226003"><ele>918.5</ele><time>2026-05-02T12:19:22Z</time></trkpt><trkpt lat="46.100275800865326" lon="11.780033118627449"><ele>922.0</ele><time>2026-05-02T12:19:23Z</time></trkpt><trkpt lat="46.10031018625266" lon="11.780144904802473"><ele>925.5000000000001</ele><time>2026-05-02T12:19:24Z</time></trkpt><trkpt lat="46.100338063475164" lon="11.780252850675542"><ele>929.0</ele><time>2026-05-02T12:19:25Z</time></trkpt><trkpt lat="46.100392031636126" lon="11.780339211269602"><ele>929.0000000000001</ele><time>2026-05-02T12:19:26Z</time></trkpt><trkpt lat="46.1004511376374" lon="11.780455835271038"><ele>929.0</ele><time>2026-05-02T12:19:28Z</time></trkpt><trkpt lat="46.10038677374613" lon="11.780492812849111"><ele>929.0</ele><time>2026-05-02T12:19:34Z</time></trkpt><trkpt lat="46.10031062452021" lon="11.780359439987095"><ele>929.0</ele><time>2026-05-02T12:19:36Z</time></trkpt><trkpt lat="46.100266610656696" lon="11.78028656397346"><ele>929.0000000000001</ele><time>2026-05-02T12:19:37Z</time></trkpt><trkpt lat="46.1002234601768" lon="11.780215117502468"><ele>929.0</ele><time>2026-05-02T12:19:38Z</time></trkpt><trkpt lat="46.100176133683036" lon="11.780138841639245"><ele>929.0000000000001</ele><time>2026-05-02T12:19:39Z</time></trkpt><trkpt lat="46.10012177426734" lon="11.780057364868057"><ele>929.0</ele><time>2026-05-02T12:19:40Z</time></trkpt><trkpt lat="46.100045402459365" lon="11.7799908620895"><ele>929.0</ele><time>2026-05-02T12:19:41Z</time></trkpt><trkpt lat="46.09996770725051" lon="11.779942769851802"><ele>929.0</ele><time>2026-05-02T12:19:42Z</time></trkpt><trkpt lat="46.0999116651477" lon="11.779871199949172"><ele>929.0000000000001</ele><time>2026-05-02T12:19:43Z</time></trkpt><trkpt lat="46.099843548123516" lon="11.77983405793224"><ele>929.0</ele><time>2026-05-02T12:19:44Z</time></trkpt><trkpt lat="46.09979203781364" lon="11.779758055137744"><ele>931.6666666666667</ele><time>2026-05-02T12:19:45Z</time></trkpt><trkpt lat="46.09974272811866" lon="11.779668118678586"><ele>934.3333333333334</ele><time>2026-05-02T12:19:46Z</time></trkpt><trkpt lat="46.09970270526773" lon="11.77956840601803"><ele>937.0</ele><time>2026-05-02T12:19:47Z</time></trkpt><trkpt lat="46.09964055800663" lon="11.779473270936649"><ele>939.6666666666667</ele><time>2026-05-02T12:19:48Z</time></trkpt><trkpt lat="46.099579775662896" lon="11.779376564925462"><ele>942.3333333333334</ele><time>2026-05-02T12:19:49Z</time></trkpt><trkpt lat="46.09951784921302" lon="11.77931009592688"><ele>945.0</ele><time>2026-05-02T12:19:50Z</time></trkpt><trkpt lat="46.099437969628184" lon="11.779232431741242"><ele>945.0</ele><time>2026-05-02T12:19:51Z</time></trkpt><trkpt lat="46.099365910931134" lon="11.77916235176531"><ele>945.0</ele><time>2026-05-02T12:19:52Z</time></trkpt><trkpt lat="46.099295057208735" lon="11.779088563939736"><ele>945.0</ele><time>2026-05-02T12:19:53Z</time></trkpt><trkpt lat="46.099247650399136" lon="11.779022359542099"><ele>945.0</ele><time>2026-05-02T12:19:54Z</time></trkpt><trkpt lat="46.099205417967234" lon="11.778949585023591"><ele>945.0</ele><time>2026-05-02T12:19:55Z</time></trkpt><trkpt lat="46.09917266196789" lon="11.778861197191631"><ele>945.0</ele><time>2026-05-02T12:19:56Z</time></trkpt><trkpt lat="46.09913673078709" lon="11.778764148151366"><ele>945.0</ele><time>2026-05-02T12:19:57Z</time></trkpt><trkpt lat="46.099101541768306" lon="11.778668460855123"><ele>945.0</ele><time>2026-05-02T12:19:58Z</time></trkpt><trkpt lat="46.099042542474876" lon="11.778541680152255"><ele>945.0</ele><time>2026-05-02T12:20:00Z</time></trkpt><trkpt lat="46.098978640270026" lon="11.778526407844831"><ele>945.0</ele><time>2026-05-02T12:20:01Z</time></trkpt><trkpt lat="46.09893757216508" lon="11.778654892621377"><ele>945.0</ele><time>2026-05-02T12:20:03Z</time></trkpt><trkpt lat="46.09893767120601" lon="11.778750623553936"><ele>945.0</ele><time>2026-05-02T12:20:05.001Z</time></trkpt><trkpt lat="46.09897852054345" lon="11.778826625680848"><ele>945.0</ele><time>2026-05-02T12:20:06.001Z</time></trkpt><trkpt lat="46.09902912147959" lon="11.778918915005619"><ele>945.0</ele><time>2026-05-02T12:20:07.001Z</time></trkpt><trkpt lat="46.09904902297526" lon="11.779015274957786"><ele>945.0</ele><time>2026-05-02T12:20:08.001Z</time></trkpt><trkpt lat="46.099087622593025" lon="11.77911920817458"><ele>945.0</ele><time>2026-05-02T12:20:09.001Z</time></trkpt><trkpt lat="46.0991373410223" lon="11.779208902128984"><ele>945.0</ele><time>2026-05-02T12:20:10.001Z</time></trkpt><trkpt lat="46.09918840123391" lon="11.77931667757518"><ele>945.0</ele><time>2026-05-02T12:20:11.001Z</time></trkpt><trkpt lat="46.099229730908434" lon="11.779448389262711"><ele>949.0</ele><time>2026-05-02T12:20:12.001Z</time></trkpt><trkpt lat="46.09927741854911" lon="11.779558284252609"><ele>953.0</ele><time>2026-05-02T12:20:13.001Z</time></trkpt><trkpt lat="46.099329548270994" lon="11.779661972751972"><ele>957.0</ele><time>2026-05-02T12:20:14.001Z</time></trkpt><trkpt lat="46.09938733635225" lon="11.779762490767146"><ele>961.0</ele><time>2026-05-02T12:20:15.001Z</time></trkpt><trkpt lat="46.0994312191902" lon="11.77986543086092"><ele>965.0</ele><time>2026-05-02T12:20:16.001Z</time></trkpt><trkpt lat="46.09946513533026" lon="11.779986710567693"><ele>969.0</ele><time>2026-05-02T12:20:17.001Z</time></trkpt><trkpt lat="46.099496796088204" lon="11.780099937339575"><ele>971.5</ele><time>2026-05-02T12:20:18.001Z</time></trkpt><trkpt lat="46.09951944091183" lon="11.780203358323927"><ele>974.0</ele><time>2026-05-02T12:20:19.001Z</time></trkpt><trkpt lat="46.09954427660228" lon="11.780309598222424"><ele>976.5</ele><time>2026-05-02T12:20:20.001Z</time></trkpt><trkpt lat="46.099576697288896" lon="11.78041653987824"><ele>979.0</ele><time>2026-05-02T12:20:21.001Z</time></trkpt><trkpt lat="46.09962060142294" lon="11.78050968517184"><ele>981.5</ele><time>2026-05-02T12:20:22.001Z</time></trkpt><trkpt lat="46.09966676754519" lon="11.780591942286708"><ele>984.0</ele><time>2026-05-02T12:20:23.001Z</time></trkpt><trkpt lat="46.09971693832594" lon="11.780654533281137"><ele>984.0</ele><time>2026-05-02T12:20:24.001Z</time></trkpt><trkpt lat="46.099815865388685" lon="11.780720570905668"><ele>984.0000000000001</ele><time>2026-05-02T12:20:26.001Z</time></trkpt><trkpt lat="46.09985427601765" lon="11.780798544639776"><ele>984.0000000000001</ele><time>2026-05-02T12:20:28.001Z</time></trkpt><trkpt lat="46.099795770355726" lon="11.78088591066987"><ele>984.0</ele><time>2026-05-02T12:20:30.001Z</time></trkpt><trkpt lat="46.099731604843726" lon="11.780849647348688"><ele>984.0</ele><time>2026-05-02T12:20:32.001Z</time></trkpt><trkpt lat="46.099640106778836" lon="11.78071207345462"><ele>984.0</ele><time>2026-05-02T12:20:34.001Z</time></trkpt><trkpt lat="46.0995853568652" lon="11.780642695667247"><ele>984.0000000000001</ele><time>2026-05-02T12:20:35.001Z</time></trkpt><trkpt lat="46.09950790505077" lon="11.780560817489201"><ele>984.0000000000001</ele><time>2026-05-02T12:20:36.001Z</time></trkpt><trkpt lat="46.09946606024577" lon="11.78044239838626"><ele>984.0</ele><time>2026-05-02T12:20:37.001Z</time></trkpt><trkpt lat="46.099405388524666" lon="11.780304387080047"><ele>984.0</ele><time>2026-05-02T12:20:38.001Z</time></trkpt><trkpt lat="46.09933793664414" lon="11.780163096636967"><ele>981.0</ele><time>2026-05-02T12:20:39.001Z</time></trkpt><trkpt lat="46.09927413989536" lon="11.780064344948256"><ele>978.0000000000001</ele><time>2026-05-02T12:20:40.001Z</time></trkpt><trkpt lat="46.099206203534635" lon="11.77997988383418"><ele>975.0000000000001</ele><time>2026-05-02T12:20:41.001Z</time></trkpt><trkpt lat="46.09912820862897" lon="11.77989518372872"><ele>972.0</ele><time>2026-05-02T12:20:42.001Z</time></trkpt><trkpt lat="46.09903418807366" lon="11.779813951827569"><ele>969.0</ele><time>2026-05-02T12:20:43.001Z</time></trkpt><trkpt lat="46.09894208131908" lon="11.779701087443923"><ele>970.8333333333334</ele><time>2026-05-02T12:20:44.001Z</time></trkpt><trkpt lat="46.098850553834865" lon="11.77960190592827"><ele>972.6666666666667</ele><time>2026-05-02T12:20:45.001Z</time></trkpt><trkpt lat="46.098779629772636" lon="11.779499876237548"><ele>974.5</ele><time>2026-05-02T12:20:46.001Z</time></trkpt><trkpt lat="46.09872001897787" lon="11.779418153502363"><ele>976.3333333333334</ele><time>2026-05-02T12:20:47.001Z</time></trkpt><trkpt lat="46.098676810535814" lon="11.779317266073333"><ele>978.1666666666667</ele><time>2026-05-02T12:20:48.001Z</time></trkpt><trkpt lat="46.098646912792404" lon="11.77923722042489"><ele>980.0</ele><time>2026-05-02T12:20:49.001Z</time></trkpt><trkpt lat="46.09860457177892" lon="11.779124512266366"><ele>980.0</ele><time>2026-05-02T12:20:50.001Z</time></trkpt><trkpt lat="46.098565182389095" lon="11.779025408035759"><ele>980.0</ele><time>2026-05-02T12:20:51Z</time></trkpt><trkpt lat="46.09851843320309" lon="11.778944177529622"><ele>980.0</ele><time>2026-05-02T12:20:52Z</time></trkpt><trkpt lat="46.09848369632944" lon="11.778863820414069"><ele>980.0</ele><time>2026-05-02T12:20:53Z</time></trkpt><trkpt lat="46.09843468452841" lon="11.778796545107983"><ele>980.0</ele><time>2026-05-02T12:20:54Z</time></trkpt><trkpt lat="46.098360659060795" lon="11.77874139721272"><ele>980.0</ele><time>2026-05-02T12:20:55Z</time></trkpt><trkpt lat="46.09829579197756" lon="11.778697106997358"><ele>980.0</ele><time>2026-05-02T12:20:56Z</time></trkpt><trkpt lat="46.09822642118138" lon="11.778646547280841"><ele>980.0</ele><time>2026-05-02T12:20:58Z</time></trkpt><trkpt lat="46.09816614248458" lon="11.778705174069872"><ele>980.0</ele><time>2026-05-02T12:21:00Z</time></trkpt><trkpt lat="46.09822471046231" lon="11.778847455531832"><ele>980.0</ele><time>2026-05-02T12:21:01Z</time></trkpt><trkpt lat="46.098349854512556" lon="11.778924537284313"><ele>980.0</ele><time>2026-05-02T12:21:06Z</time></trkpt><trkpt lat="46.09836866122017" lon="11.779013836679251"><ele>980.0</ele><time>2026-05-02T12:21:07Z</time></trkpt><trkpt lat="46.09839875847598" lon="11.77909874881476"><ele>980.0000000000001</ele><time>2026-05-02T12:21:08Z</time></trkpt><trkpt lat="46.09843094231375" lon="11.779185381756367"><ele>980.0</ele><time>2026-05-02T12:21:09Z</time></trkpt><trkpt lat="46.098474326174625" lon="11.77925980935936"><ele>980.0</ele><time>2026-05-02T12:21:10Z</time></trkpt><trkpt lat="46.098488479970726" lon="11.779367191874055"><ele>980.0</ele><time>2026-05-02T12:21:11Z</time></trkpt><trkpt lat="46.09852019749361" lon="11.779476422600244"><ele>980.0000000000001</ele><time>2026-05-02T12:21:12Z</time></trkpt><trkpt lat="46.09855931225423" lon="11.779578028115752"><ele>980.0</ele><time>2026-05-02T12:21:13Z</time></trkpt><trkpt lat="46.09859784467289" lon="11.77967718883171"><ele>986.0</ele><time>2026-05-02T12:21:14Z</time></trkpt><trkpt lat="46.098639222634915" lon="11.779783672369526"><ele>992.0</ele><time>2026-05-02T12:21:15Z</time></trkpt><trkpt lat="46.09868464908611" lon="11.77989952012769"><ele>998.0</ele><time>2026-05-02T12:21:16Z</time></trkpt><trkpt lat="46.09872984570329" lon="11.78001240283405"><ele>1004.0</ele><time>2026-05-02T12:21:17Z</time></trkpt><trkpt lat="46.098781788459476" lon="11.780134933390256"><ele>1010.0</ele><time>2026-05-02T12:21:18Z</time></trkpt><trkpt lat="46.09882849854521" lon="11.780244647758431"><ele>1013.1666666666667</ele><time>2026-05-02T12:21:19Z</time></trkpt><trkpt lat="46.09887521123296" lon="11.780354368260738"><ele>1016.3333333333334</ele><time>2026-05-02T12:21:20Z</time></trkpt><trkpt lat="46.09889694307691" lon="11.780460716688692"><ele>1019.5</ele><time>2026-05-02T12:21:21Z</time></trkpt><trkpt lat="46.09893262136481" lon="11.780561870193004"><ele>1022.6666666666667</ele><time>2026-05-02T12:21:22Z</time></trkpt><trkpt lat="46.09897168470982" lon="11.780660960392732"><ele>1025.8333333333333</ele><time>2026-05-02T12:21:23Z</time></trkpt><trkpt lat="46.09898649978632" lon="11.780763480715708"><ele>1029.0</ele><time>2026-05-02T12:21:24Z</time></trkpt><trkpt lat="46.098996053217576" lon="11.780882516116419"><ele>1029.0</ele><time>2026-05-02T12:21:25Z</time></trkpt><trkpt lat="46.0990277370996" lon="11.780984599806091"><ele>1029.0</ele><time>2026-05-02T12:21:26Z</time></trkpt><trkpt lat="46.099042148192126" lon="11.781105134297961"><ele>1029.0</ele><time>2026-05-02T12:21:27Z</time></trkpt><trkpt lat="46.099059401009995" lon="11.78121051260037"><ele>1029.0</ele><time>2026-05-02T12:21:28Z</time></trkpt><trkpt lat="46.099104653220934" lon="11.781359830488872"><ele>1029.0</ele><time>2026-05-02T12:21:30Z</time></trkpt><trkpt lat="46.09914157038475" lon="11.781520524602476"><ele>1035.25</ele><time>2026-05-02T12:21:32Z</time></trkpt><trkpt lat="46.09910965739834" lon="11.781671355711143"><ele>1041.5</ele><time>2026-05-02T12:21:34Z</time></trkpt><trkpt lat="46.09901529057773" lon="11.781769578456098"><ele>1047.75</ele><time>2026-05-02T12:21:36Z</time></trkpt><trkpt lat="46.09897879100962" lon="11.781898867512016"><ele>1054.0</ele><time>2026-05-02T12:21:38Z</time></trkpt><trkpt lat="46.09901564104455" lon="11.782095531697564"><ele>1058.6000000000001</ele><time>2026-05-02T12:21:40Z</time></trkpt><trkpt lat="46.0990275430513" lon="11.782206204067032"><ele>1063.2</ele><time>2026-05-02T12:21:41Z</time></trkpt><trkpt lat="46.09904854148036" lon="11.782301012678623"><ele>1067.8000000000002</ele><time>2026-05-02T12:21:42Z</time></trkpt><trkpt lat="46.099072436865164" lon="11.782390620365298"><ele>1072.4</ele><time>2026-05-02T12:21:43Z</time></trkpt><trkpt lat="46.099137518617745" lon="11.782541844353888"><ele>1077.0</ele><time>2026-05-02T12:21:45Z</time></trkpt><trkpt lat="46.09925518780945" lon="11.782613208728426"><ele>1076.5</ele><time>2026-05-02T12:21:47Z</time></trkpt><trkpt lat="46.099319983002374" lon="11.782642503438025"><ele>1076.0</ele><time>2026-05-02T12:21:48Z</time></trkpt><trkpt lat="46.099389218059166" lon="11.782684499646638"><ele>1075.5</ele><time>2026-05-02T12:21:49Z</time></trkpt><trkpt lat="46.099455118768304" lon="11.782715262251632"><ele>1075.0</ele><time>2026-05-02T12:21:50Z</time></trkpt><trkpt lat="46.0995161752734" lon="11.782746745482159"><ele>1074.5</ele><time>2026-05-02T12:21:51Z</time></trkpt><trkpt lat="46.09960669183979" lon="11.782862394482565"><ele>1074.0</ele><time>2026-05-02T12:21:53Z</time></trkpt><trkpt lat="46.099687799566034" lon="11.782970236895512"><ele>1074.0</ele><time>2026-05-02T12:21:55Z</time></trkpt><trkpt lat="46.09977095274982" lon="11.783081401141807"><ele>1074.0</ele><time>2026-05-02T12:21:57Z</time></trkpt><trkpt lat="46.099822735881304" lon="11.783134484529695"><ele>1074.0</ele><time>2026-05-02T12:21:58Z</time></trkpt><trkpt lat="46.09989695082" lon="11.783158083110486"><ele>1074.0</ele><time>2026-05-02T12:21:59Z</time></trkpt><trkpt lat="46.09996604152943" lon="11.783174838030229"><ele>1074.0</ele><time>2026-05-02T12:22:00Z</time></trkpt><trkpt lat="46.100078599038824" lon="11.78321168092177"><ele>1074.0</ele><time>2026-05-02T12:22:02Z</time></trkpt><trkpt lat="46.10011843142878" lon="11.783319297346884"><ele>1065.2857142857142</ele><time>2026-05-02T12:22:04Z</time></trkpt><trkpt lat="46.10011520117485" lon="11.783412523236079"><ele>1056.5714285714284</ele><time>2026-05-02T12:22:05.001Z</time></trkpt><trkpt lat="46.10009866967407" lon="11.78350298140373"><ele>1047.857142857143</ele><time>2026-05-02T12:22:06.001Z</time></trkpt><trkpt lat="46.10007427837976" lon="11.78359576147213"><ele>1039.142857142857</ele><time>2026-05-02T12:22:07.001Z</time></trkpt><trkpt lat="46.10004562470963" lon="11.783689425350492"><ele>1030.4285714285716</ele><time>2026-05-02T12:22:08.001Z</time></trkpt><trkpt lat="46.099993577947394" lon="11.783779078505596"><ele>1021.7142857142858</ele><time>2026-05-02T12:22:09.001Z</time></trkpt><trkpt lat="46.09995459616924" lon="11.78387794271794"><ele>1013.0</ele><time>2026-05-02T12:22:10.001Z</time></trkpt><trkpt lat="46.09992655555249" lon="11.783985956173597"><ele>1023.8333333333334</ele><time>2026-05-02T12:22:11.001Z</time></trkpt><trkpt lat="46.09990212448173" lon="11.784101277047098"><ele>1034.6666666666667</ele><time>2026-05-02T12:22:12.001Z</time></trkpt><trkpt lat="46.0998777993062" lon="11.784212360116994"><ele>1045.5</ele><time>2026-05-02T12:22:13.001Z</time></trkpt><trkpt lat="46.09985269780432" lon="11.784327775357271"><ele>1056.3333333333333</ele><time>2026-05-02T12:22:14.001Z</time></trkpt><trkpt lat="46.09982946825609" lon="11.784419347072603"><ele>1067.1666666666665</ele><time>2026-05-02T12:22:15.001Z</time></trkpt><trkpt lat="46.0998568209152" lon="11.78450566613993"><ele>1078.0</ele><time>2026-05-02T12:22:16.001Z</time></trkpt><trkpt lat="46.099840943754074" lon="11.784651168331552"><ele>1078.0</ele><time>2026-05-02T12:22:18.001Z</time></trkpt><trkpt lat="46.09983792737572" lon="11.784780053227758"><ele>1078.0</ele><time>2026-05-02T12:22:20.001Z</time></trkpt><trkpt lat="46.0997827261804" lon="11.784857183769844"><ele>1078.0</ele><time>2026-05-02T12:22:22.001Z</time></trkpt><trkpt lat="46.09969716222114" lon="11.784944080009783"><ele>1078.0</ele><time>2026-05-02T12:22:24.001Z</time></trkpt><trkpt lat="46.099651025989324" lon="11.785075869743437"><ele>1078.0</ele><time>2026-05-02T12:22:26.001Z</time></trkpt><trkpt lat="46.099615687544535" lon="11.785161259040311"><ele>1078.0</ele><time>2026-05-02T12:22:27.001Z</time></trkpt><trkpt lat="46.09957154042745" lon="11.78523005654725"><ele>1074.1666666666665</ele><time>2026-05-02T12:22:28.001Z</time></trkpt><trkpt lat="46.09952659076918" lon="11.785296388793693"><ele>1070.3333333333333</ele><time>2026-05-02T12:22:29.001Z</time></trkpt><trkpt lat="46.09947929984385" lon="11.785395174527482"><ele>1066.5</ele><time>2026-05-02T12:22:30.001Z</time></trkpt><trkpt lat="46.09944376853722" lon="11.785508323204645"><ele>1062.6666666666667</ele><time>2026-05-02T12:22:31.001Z</time></trkpt><trkpt lat="46.09937073739118" lon="11.78563961699734"><ele>1058.8333333333335</ele><time>2026-05-02T12:22:33.001Z</time></trkpt><trkpt lat="46.09931252935274" lon="11.785697952707157"><ele>1055.0</ele><time>2026-05-02T12:22:34.001Z</time></trkpt><trkpt lat="46.09927103979068" lon="11.785813565947308"><ele>1055.0</ele><time>2026-05-02T12:22:36.001Z</time></trkpt><trkpt lat="46.09924376633413" lon="11.785951378952735"><ele>1055.0</ele><time>2026-05-02T12:22:38.001Z</time></trkpt><trkpt lat="46.09922186932912" lon="11.78611513665029"><ele>1055.0</ele><time>2026-05-02T12:22:40.001Z</time></trkpt><trkpt lat="46.099200809205605" lon="11.78621013330917"><ele>1055.0</ele><time>2026-05-02T12:22:41.001Z</time></trkpt><trkpt lat="46.099170356043174" lon="11.786295328201604"><ele>1055.0</ele><time>2026-05-02T12:22:42.001Z</time></trkpt><trkpt lat="46.09914778872073" lon="11.786382737214996"><ele>1055.0</ele><time>2026-05-02T12:22:43.001Z</time></trkpt><trkpt lat="46.099130792654506" lon="11.786478368097097"><ele>1052.7142857142858</ele><time>2026-05-02T12:22:44.001Z</time></trkpt><trkpt lat="46.099093194068466" lon="11.786556483146335"><ele>1050.4285714285716</ele><time>2026-05-02T12:22:45.001Z</time></trkpt><trkpt lat="46.09905550438686" lon="11.786645345305688"><ele>1048.142857142857</ele><time>2026-05-02T12:22:46.001Z</time></trkpt><trkpt lat="46.09901842493836" lon="11.786735154758798"><ele>1045.857142857143</ele><time>2026-05-02T12:22:47.001Z</time></trkpt><trkpt lat="46.09899178313323" lon="11.786843484507502"><ele>1043.5714285714284</ele><time>2026-05-02T12:22:48.001Z</time></trkpt><trkpt lat="46.09894465995851" lon="11.786921442095142"><ele>1041.2857142857142</ele><time>2026-05-02T12:22:49.001Z</time></trkpt><trkpt lat="46.098897821593" lon="11.78700599776358"><ele>1039.0</ele><time>2026-05-02T12:22:50.001Z</time></trkpt><trkpt lat="46.098865361772276" lon="11.787090797830285"><ele>1048.8333333333333</ele><time>2026-05-02T12:22:51.001Z</time></trkpt><trkpt lat="46.09883630176037" lon="11.787189727288167"><ele>1058.6666666666665</ele><time>2026-05-02T12:22:52.001Z</time></trkpt><trkpt lat="46.09881464750027" lon="11.78731357186568"><ele>1068.5</ele><time>2026-05-02T12:22:53.001Z</time></trkpt><trkpt lat="46.09879910661362" lon="11.787437677513964"><ele>1078.3333333333333</ele><time>2026-05-02T12:22:54.001Z</time></trkpt><trkpt lat="46.09877821819791" lon="11.78754121622377"><ele>1088.1666666666667</ele><time>2026-05-02T12:22:55.001Z</time></trkpt><trkpt lat="46.098773717798395" lon="11.787696036675301"><ele>1098.0</ele><time>2026-05-02T12:22:57Z</time></trkpt><trkpt lat="46.098825621910386" lon="11.787825689038725"><ele>1098.0</ele><time>2026-05-02T12:22:59Z</time></trkpt><trkpt lat="46.098905982655175" lon="11.787941139748924"><ele>1098.0</ele><time>2026-05-02T12:23:01Z</time></trkpt><trkpt lat="46.098951855917875" lon="11.788040367981639"><ele>1098.0</ele><time>2026-05-02T12:23:03Z</time></trkpt><trkpt lat="46.098915545285635" lon="11.788186456989596"><ele>1098.0</ele><time>2026-05-02T12:23:05Z</time></trkpt><trkpt lat="46.09889096971645" lon="11.78834167965245"><ele>1098.0</ele><time>2026-05-02T12:23:07Z</time></trkpt><trkpt lat="46.098989847703265" lon="11.788385794219959"><ele>1098.0</ele><time>2026-05-02T12:23:09Z</time></trkpt><trkpt lat="46.099076835174664" lon="11.788372288153045"><ele>1098.0</ele><time>2026-05-02T12:23:11Z</time></trkpt><trkpt lat="46.0991700067071" lon="11.788308106737137"><ele>1098.0</ele><time>2026-05-02T12:23:13Z</time></trkpt><trkpt lat="46.09923667767676" lon="11.788345393594277"><ele>1098.0</ele><time>2026-05-02T12:23:15Z</time></trkpt><trkpt lat="46.09925751292752" lon="11.788469684698406"><ele>1098.0</ele><time>2026-05-02T12:23:17Z</time></trkpt><trkpt lat="46.099244284463595" lon="11.788607375451537"><ele>1098.0</ele><time>2026-05-02T12:23:19Z</time></trkpt><trkpt lat="46.09916073171342" lon="11.7886155821701"><ele>1099.2</ele><time>2026-05-02T12:23:21Z</time></trkpt><trkpt lat="46.09907818247953" lon="11.788672669797908"><ele>1100.4</ele><time>2026-05-02T12:23:23Z</time></trkpt><trkpt lat="46.098989823732744" lon="11.788744832037626"><ele>1101.6000000000001</ele><time>2026-05-02T12:23:25Z</time></trkpt><trkpt lat="46.09891080874687" lon="11.78887066002105"><ele>1102.8</ele><time>2026-05-02T12:23:27Z</time></trkpt><trkpt lat="46.098861867899394" lon="11.789009219575119"><ele>1104.0</ele><time>2026-05-02T12:23:29Z</time></trkpt><trkpt lat="46.09883134529051" lon="11.78916803815272"><ele>1104.0</ele><time>2026-05-02T12:23:31Z</time></trkpt><trkpt lat="46.09882244515787" lon="11.789323341554844"><ele>1104.0</ele><time>2026-05-02T12:23:33Z</time></trkpt><trkpt lat="46.098877161634604" lon="11.789472000394444"><ele>1104.0</ele><time>2026-05-02T12:23:35Z</time></trkpt><trkpt lat="46.098932341181396" lon="11.789585700646052"><ele>1104.0</ele><time>2026-05-02T12:23:37Z</time></trkpt><trkpt lat="46.0989808815168" lon="11.78969824217403"><ele>1104.0</ele><time>2026-05-02T12:23:39Z</time></trkpt><trkpt lat="46.099003944488985" lon="11.789810190161697"><ele>1110.8333333333333</ele><time>2026-05-02T12:23:41Z</time></trkpt><trkpt lat="46.09900288260977" lon="11.789901795238196"><ele>1117.6666666666667</ele><time>2026-05-02T12:23:42Z</time></trkpt><trkpt lat="46.099002698693056" lon="11.790011516125023"><ele>1124.5</ele><time>2026-05-02T12:23:43Z</time></trkpt><trkpt lat="46.09899754828511" lon="11.790126476553976"><ele>1131.3333333333335</ele><time>2026-05-02T12:23:44Z</time></trkpt><trkpt lat="46.098989195078545" lon="11.790251604478646"><ele>1138.1666666666667</ele><time>2026-05-02T12:23:45Z</time></trkpt><trkpt lat="46.0989770691722" lon="11.79035415121882"><ele>1145.0</ele><time>2026-05-02T12:23:46Z</time></trkpt><trkpt lat="46.09895584889626" lon="11.790481208447922"><ele>1146.8333333333335</ele><time>2026-05-02T12:23:48Z</time></trkpt><trkpt lat="46.098966537781635" lon="11.790595818874749"><ele>1148.6666666666667</ele><time>2026-05-02T12:23:50Z</time></trkpt><trkpt lat="46.09900693913317" lon="11.790671705326162"><ele>1150.5</ele><time>2026-05-02T12:23:52Z</time></trkpt><trkpt lat="46.09907314388615" lon="11.790700704565833"><ele>1152.3333333333333</ele><time>2026-05-02T12:23:54Z</time></trkpt><trkpt lat="46.099142470193186" lon="11.79072117670994"><ele>1154.1666666666665</ele><time>2026-05-02T12:23:56Z</time></trkpt><trkpt lat="46.099229150587156" lon="11.790743647227524"><ele>1156.0</ele><time>2026-05-02T12:23:58Z</time></trkpt><trkpt lat="46.09932639207898" lon="11.790671031072188"><ele>1151.8333333333333</ele><time>2026-05-02T12:24:00Z</time></trkpt><trkpt lat="46.09942745059927" lon="11.790609230093906"><ele>1147.6666666666665</ele><time>2026-05-02T12:24:02Z</time></trkpt><trkpt lat="46.09952445006044" lon="11.790489010452434"><ele>1143.5</ele><time>2026-05-02T12:24:04Z</time></trkpt><trkpt lat="46.099581968257716" lon="11.79043058815866"><ele>1139.3333333333333</ele><time>2026-05-02T12:24:05.001Z</time></trkpt><trkpt lat="46.09964404524726" lon="11.790394053104398"><ele>1135.1666666666667</ele><time>2026-05-02T12:24:06.001Z</time></trkpt><trkpt lat="46.099700122475646" lon="11.790349234362319"><ele>1131.0</ele><time>2026-05-02T12:24:07.001Z</time></trkpt><trkpt lat="46.09973208778342" lon="11.790267600972406"><ele>1123.6</ele><time>2026-05-02T12:24:08.001Z</time></trkpt><trkpt lat="46.09979497919143" lon="11.79012625283456"><ele>1116.1999999999998</ele><time>2026-05-02T12:24:10.001Z</time></trkpt><trkpt lat="46.099820430646766" lon="11.790038022621248"><ele>1108.8000000000002</ele><time>2026-05-02T12:24:11.001Z</time></trkpt><trkpt lat="46.09987278881935" lon="11.789910777957912"><ele>1101.4</ele><time>2026-05-02T12:24:13.001Z</time></trkpt><trkpt lat="46.09995289876409" lon="11.789912126633084"><ele>1094.0</ele><time>2026-05-02T12:24:15.001Z</time></trkpt><trkpt lat="46.10004833444113" lon="11.789966462343584"><ele>1094.0</ele><time>2026-05-02T12:24:18.001Z</time></trkpt><trkpt lat="46.10015519642677" lon="11.789963283086808"><ele>1094.0</ele><time>2026-05-02T12:24:20.001Z</time></trkpt><trkpt lat="46.1002355692619" lon="11.789894168030544"><ele>1094.0</ele><time>2026-05-02T12:24:22.001Z</time></trkpt><trkpt lat="46.10034182966682" lon="11.78978497222432"><ele>1094.0</ele><time>2026-05-02T12:24:24.001Z</time></trkpt><trkpt lat="46.10040217207378" lon="11.789722236425016"><ele>1094.0</ele><time>2026-05-02T12:24:25.001Z</time></trkpt><trkpt lat="46.10046541571355" lon="11.78965722352721"><ele>1094.0</ele><time>2026-05-02T12:24:26.001Z</time></trkpt><trkpt lat="46.100522093307355" lon="11.78960309601274"><ele>1094.0</ele><time>2026-05-02T12:24:27.001Z</time></trkpt><trkpt lat="46.10062224720202" lon="11.78951256575406"><ele>1094.0</ele><time>2026-05-02T12:24:29.001Z</time></trkpt><trkpt lat="46.10069147478809" lon="11.789496947203919"><ele>1094.0</ele><time>2026-05-02T12:24:30.001Z</time></trkpt><trkpt lat="46.100755413509155" lon="11.789478171904284"><ele>1094.0</ele><time>2026-05-02T12:24:31.001Z</time></trkpt><trkpt lat="46.1008588011782" lon="11.789482937484136"><ele>1094.0</ele><time>2026-05-02T12:24:33.001Z</time></trkpt><trkpt lat="46.100924229388035" lon="11.789523069330142"><ele>1097.3333333333335</ele><time>2026-05-02T12:24:35.001Z</time></trkpt><trkpt lat="46.100963918807935" lon="11.789670131016303"><ele>1100.6666666666667</ele><time>2026-05-02T12:24:37.001Z</time></trkpt><trkpt lat="46.101002384230235" lon="11.789747601433746"><ele>1104.0</ele><time>2026-05-02T12:24:38.001Z</time></trkpt><trkpt lat="46.10104650035464" lon="11.78983053643711"><ele>1107.3333333333333</ele><time>2026-05-02T12:24:39.001Z</time></trkpt><trkpt lat="46.10109695003634" lon="11.789885760465555"><ele>1110.6666666666665</ele><time>2026-05-02T12:24:40.001Z</time></trkpt><trkpt lat="46.10116792506904" lon="11.789999563727276"><ele>1114.0</ele><time>2026-05-02T12:24:42.001Z</time></trkpt><trkpt lat="46.1011890254255" lon="11.79013281266786"><ele>1120.6666666666665</ele><time>2026-05-02T12:24:44.001Z</time></trkpt><trkpt lat="46.101197209020555" lon="11.790236159119496"><ele>1127.3333333333333</ele><time>2026-05-02T12:24:45.001Z</time></trkpt><trkpt lat="46.10122562841907" lon="11.790346163272336"><ele>1134.0</ele><time>2026-05-02T12:24:46.001Z</time></trkpt><trkpt lat="46.101263003802494" lon="11.790435555553826"><ele>1140.6666666666667</ele><time>2026-05-02T12:24:47.001Z</time></trkpt><trkpt lat="46.101328042018345" lon="11.790499970279285"><ele>1147.3333333333335</ele><time>2026-05-02T12:24:48.001Z</time></trkpt><trkpt lat="46.101367628228985" lon="11.790595013865717"><ele>1154.0</ele><time>2026-05-02T12:24:49.001Z</time></trkpt><trkpt lat="46.1014243687956" lon="11.79066745171454"><ele>1154.0</ele><time>2026-05-02T12:24:50.001Z</time></trkpt><trkpt lat="46.10150024038031" lon="11.790730345009916"><ele>1154.0</ele><time>2026-05-02T12:24:51.001Z</time></trkpt><trkpt lat="46.10157531808465" lon="11.790768545022303"><ele>1154.0</ele><time>2026-05-02T12:24:52.001Z</time></trkpt><trkpt lat="46.10165776202794" lon="11.790728641765305"><ele>1154.0</ele><time>2026-05-02T12:24:53.001Z</time></trkpt><trkpt lat="46.10173025657962" lon="11.790763484013508"><ele>1154.0</ele><time>2026-05-02T12:24:54.001Z</time></trkpt><trkpt lat="46.10179964867322" lon="11.790788019516881"><ele>1154.0</ele><time>2026-05-02T12:24:56.001Z</time></trkpt><trkpt lat="46.101787533694655" lon="11.790900150441283"><ele>1150.3333333333335</ele><time>2026-05-02T12:24:58.001Z</time></trkpt><trkpt lat="46.10176106799723" lon="11.791045241060283"><ele>1146.6666666666667</ele><time>2026-05-02T12:25:00.001Z</time></trkpt><trkpt lat="46.1017403539341" lon="11.791150754837195"><ele>1143.0</ele><time>2026-05-02T12:25:01.001Z</time></trkpt><trkpt lat="46.101701966311765" lon="11.79126190517409"><ele>1139.3333333333333</ele><time>2026-05-02T12:25:02.001Z</time></trkpt><trkpt lat="46.10168922265268" lon="11.791378206713848"><ele>1135.6666666666665</ele><time>2026-05-02T12:25:03Z</time></trkpt><trkpt lat="46.1016842985806" lon="11.791503551109821"><ele>1132.0</ele><time>2026-05-02T12:25:04Z</time></trkpt><trkpt lat="46.10168662708526" lon="11.79161288880197"><ele>1132.0</ele><time>2026-05-02T12:25:05Z</time></trkpt><trkpt lat="46.10168901460804" lon="11.791715655854038"><ele>1132.0</ele><time>2026-05-02T12:25:06Z</time></trkpt><trkpt lat="46.10169711312311" lon="11.791866727696313"><ele>1132.0</ele><time>2026-05-02T12:25:08Z</time></trkpt><trkpt lat="46.10170682194571" lon="11.791966260574803"><ele>1132.0</ele><time>2026-05-02T12:25:09Z</time></trkpt><trkpt lat="46.10170302796581" lon="11.792063412176432"><ele>1132.0</ele><time>2026-05-02T12:25:10Z</time></trkpt><trkpt lat="46.10176564986069" lon="11.792220465396154"><ele>1132.0</ele><time>2026-05-02T12:25:12Z</time></trkpt><trkpt lat="46.10177856807719" lon="11.79231134995335"><ele>1135.8333333333333</ele><time>2026-05-02T12:25:13Z</time></trkpt><trkpt lat="46.10181221215709" lon="11.792400949021157"><ele>1139.6666666666665</ele><time>2026-05-02T12:25:14Z</time></trkpt><trkpt lat="46.10182238540076" lon="11.792501215135086"><ele>1143.5</ele><time>2026-05-02T12:25:15Z</time></trkpt><trkpt lat="46.1018464986506" lon="11.79259400623806"><ele>1147.3333333333333</ele><time>2026-05-02T12:25:16Z</time></trkpt><trkpt lat="46.101878637867195" lon="11.792697244626883"><ele>1151.1666666666667</ele><time>2026-05-02T12:25:17Z</time></trkpt><trkpt lat="46.10194502663792" lon="11.792851643733222"><ele>1155.0</ele><time>2026-05-02T12:25:19Z</time></trkpt><trkpt lat="46.10196639824556" lon="11.79294237089199"><ele>1160.5</ele><time>2026-05-02T12:25:20Z</time></trkpt><trkpt lat="46.10200737483643" lon="11.793033696808411"><ele>1166.0</ele><time>2026-05-02T12:25:21Z</time></trkpt><trkpt lat="46.10205698136399" lon="11.793109353038153"><ele>1171.5</ele><time>2026-05-02T12:25:22Z</time></trkpt><trkpt lat="46.102097010274804" lon="11.79322398484463"><ele>1177.0</ele><time>2026-05-02T12:25:23Z</time></trkpt><trkpt lat="46.10214150842039" lon="11.79331583487792"><ele>1182.5</ele><time>2026-05-02T12:25:24Z</time></trkpt><trkpt lat="46.10217390575884" lon="11.793395130075867"><ele>1188.0</ele><time>2026-05-02T12:25:25Z</time></trkpt><trkpt lat="46.10221383567778" lon="11.793492123039384"><ele>1192.4</ele><time>2026-05-02T12:25:26Z</time></trkpt><trkpt lat="46.102265317095046" lon="11.793554815361063"><ele>1196.8</ele><time>2026-05-02T12:25:27Z</time></trkpt><trkpt lat="46.102334584632" lon="11.793696577981846"><ele>1201.2</ele><time>2026-05-02T12:25:29Z</time></trkpt><trkpt lat="46.10243752196843" lon="11.793770925882727"><ele>1205.6</ele><time>2026-05-02T12:25:31Z</time></trkpt><trkpt lat="46.10248105728492" lon="11.79389781515077"><ele>1210.0</ele><time>2026-05-02T12:25:33Z</time></trkpt><trkpt lat="46.102510325323706" lon="11.794078092654528"><ele>1205.2857142857142</ele><time>2026-05-02T12:25:35Z</time></trkpt><trkpt lat="46.1025357657019" lon="11.79418245979227"><ele>1200.5714285714287</ele><time>2026-05-02T12:25:36Z</time></trkpt><trkpt lat="46.1025531301795" lon="11.794291295379468"><ele>1195.857142857143</ele><time>2026-05-02T12:25:37Z</time></trkpt><trkpt lat="46.10256165348329" lon="11.794398418604324"><ele>1191.142857142857</ele><time>2026-05-02T12:25:38Z</time></trkpt><trkpt lat="46.10259117780163" lon="11.794496149143525"><ele>1186.4285714285713</ele><time>2026-05-02T12:25:39Z</time></trkpt><trkpt lat="46.10261809247186" lon="11.794600736643867"><ele>1181.7142857142858</ele><time>2026-05-02T12:25:40Z</time></trkpt><trkpt lat="46.10265375815829" lon="11.79467816814515"><ele>1177.0</ele><time>2026-05-02T12:25:41Z</time></trkpt><trkpt lat="46.10269035349539" lon="11.794757157415889"><ele>1177.0</ele><time>2026-05-02T12:25:42Z</time></trkpt><trkpt lat="46.102734814613086" lon="11.794832178425363"><ele>1177.0</ele><time>2026-05-02T12:25:43Z</time></trkpt><trkpt lat="46.102776438383074" lon="11.794927339348117"><ele>1177.0</ele><time>2026-05-02T12:25:44Z</time></trkpt><trkpt lat="46.1028123361637" lon="11.795023789429825"><ele>1177.0</ele><time>2026-05-02T12:25:45Z</time></trkpt><trkpt lat="46.10287783036155" lon="11.795184930111425"><ele>1177.0</ele><time>2026-05-02T12:25:47Z</time></trkpt><trkpt lat="46.10292540888637" lon="11.79526771212167"><ele>1177.0</ele><time>2026-05-02T12:25:48Z</time></trkpt><trkpt lat="46.10298455685351" lon="11.79534933181021"><ele>1178.6666666666665</ele><time>2026-05-02T12:25:49Z</time></trkpt><trkpt lat="46.10303228640036" lon="11.79542766543776"><ele>1180.3333333333333</ele><time>2026-05-02T12:25:50Z</time></trkpt><trkpt lat="46.103083285931966" lon="11.795507042924715"><ele>1182.0</ele><time>2026-05-02T12:25:51Z</time></trkpt><trkpt lat="46.10320275749754" lon="11.795575905797072"><ele>1183.6666666666667</ele><time>2026-05-02T12:25:53Z</time></trkpt><trkpt lat="46.103276244298584" lon="11.795596145964126"><ele>1185.3333333333335</ele><time>2026-05-02T12:25:54Z</time></trkpt><trkpt lat="46.103341683390056" lon="11.795601452915012"><ele>1187.0</ele><time>2026-05-02T12:25:55Z</time></trkpt><trkpt lat="46.10343284131854" lon="11.795611914890864"><ele>1187.0</ele><time>2026-05-02T12:25:57Z</time></trkpt><trkpt lat="46.10347678198712" lon="11.795542761689115"><ele>1187.0</ele><time>2026-05-02T12:26:16.001Z</time></trkpt><trkpt lat="46.10351498720886" lon="11.795449840487642"><ele>1187.0</ele><time>2026-05-02T12:26:19.001Z</time></trkpt><trkpt lat="46.103531483327686" lon="11.795293414280007"><ele>1187.0</ele><time>2026-05-02T12:26:21.001Z</time></trkpt><trkpt lat="46.1035180588914" lon="11.795160314243496"><ele>1187.0</ele><time>2026-05-02T12:26:23.001Z</time></trkpt><trkpt lat="46.10347829415287" lon="11.79499835653492"><ele>1187.0</ele><time>2026-05-02T12:26:25.001Z</time></trkpt><trkpt lat="46.103455960440684" lon="11.794899888275246"><ele>1187.0</ele><time>2026-05-02T12:26:26.001Z</time></trkpt><trkpt lat="46.10344220353331" lon="11.794804160997415"><ele>1187.0</ele><time>2026-05-02T12:26:27.001Z</time></trkpt><trkpt lat="46.10344951953004" lon="11.794647947491084"><ele>1187.0</ele><time>2026-05-02T12:26:29.001Z</time></trkpt><trkpt lat="46.1034769961038" lon="11.794478417877853"><ele>1187.0</ele><time>2026-05-02T12:26:31.001Z</time></trkpt><trkpt lat="46.10347725959133" lon="11.794385989177634"><ele>1187.0</ele><time>2026-05-02T12:26:32.001Z</time></trkpt><trkpt lat="46.10348359835604" lon="11.794291960977816"><ele>1187.0</ele><time>2026-05-02T12:26:33.001Z</time></trkpt><trkpt lat="46.10348164709913" lon="11.794192481705375"><ele>1187.0</ele><time>2026-05-02T12:26:34.001Z</time></trkpt><trkpt lat="46.10347425771435" lon="11.794101965765105"><ele>1187.0</ele><time>2026-05-02T12:26:35.001Z</time></trkpt><trkpt lat="46.10346399123663" lon="11.79393520913937"><ele>1187.0</ele><time>2026-05-02T12:26:37.001Z</time></trkpt><trkpt lat="46.10346521842502" lon="11.793760905359074"><ele>1187.0</ele><time>2026-05-02T12:26:39.001Z</time></trkpt><trkpt lat="46.1034934030933" lon="11.793669663008025"><ele>1187.0</ele><time>2026-05-02T12:26:40.001Z</time></trkpt><trkpt lat="46.10352123632396" lon="11.793559765671786"><ele>1187.0</ele><time>2026-05-02T12:26:41.001Z</time></trkpt><trkpt lat="46.10355413419944" lon="11.793442004021268"><ele>1187.0</ele><time>2026-05-02T12:26:42.001Z</time></trkpt><trkpt lat="46.1035846993667" lon="11.793326213743402"><ele>1187.0</ele><time>2026-05-02T12:26:43.001Z</time></trkpt><trkpt lat="46.10361956243443" lon="11.793229075592118"><ele>1187.0</ele><time>2026-05-02T12:26:44.001Z</time></trkpt><trkpt lat="46.10362614366878" lon="11.79306248061891"><ele>1187.0</ele><time>2026-05-02T12:26:46.001Z</time></trkpt><trkpt lat="46.10361499460918" lon="11.792962983517295"><ele>1187.0</ele><time>2026-05-02T12:26:47.001Z</time></trkpt><trkpt lat="46.103619568384765" lon="11.79286488784365"><ele>1164.1666666666667</ele><time>2026-05-02T12:26:48.001Z</time></trkpt><trkpt lat="46.10363770918194" lon="11.792769980473466"><ele>1141.3333333333335</ele><time>2026-05-02T12:26:49.001Z</time></trkpt><trkpt lat="46.10366868139458" lon="11.792681073826026"><ele>1118.5</ele><time>2026-05-02T12:26:50.001Z</time></trkpt><trkpt lat="46.10371462982442" lon="11.792604941726792"><ele>1095.6666666666667</ele><time>2026-05-02T12:26:51.001Z</time></trkpt><trkpt lat="46.103751177743725" lon="11.792528140187816"><ele>1072.8333333333333</ele><time>2026-05-02T12:26:52.001Z</time></trkpt><trkpt lat="46.10384767141058" lon="11.792424385793206"><ele>1050.0</ele><time>2026-05-02T12:26:54.001Z</time></trkpt><trkpt lat="46.10391145729902" lon="11.792357209860938"><ele>1050.0</ele><time>2026-05-02T12:26:55.001Z</time></trkpt><trkpt lat="46.10397840377194" lon="11.792312443678236"><ele>1050.0</ele><time>2026-05-02T12:26:56.001Z</time></trkpt><trkpt lat="46.10405204123759" lon="11.792259266770934"><ele>1050.0</ele><time>2026-05-02T12:26:57.001Z</time></trkpt><trkpt lat="46.104123669171514" lon="11.792231944847662"><ele>1050.0</ele><time>2026-05-02T12:26:58.001Z</time></trkpt><trkpt lat="46.10422609896268" lon="11.792181695080101"><ele>1050.0</ele><time>2026-05-02T12:27:00.001Z</time></trkpt><trkpt lat="46.104273825738474" lon="11.792088214737765"><ele>1050.0</ele><time>2026-05-02T12:27:01.001Z</time></trkpt><trkpt lat="46.104351672554586" lon="11.791943621123204"><ele>1082.2</ele><time>2026-05-02T12:27:03.001Z</time></trkpt><trkpt lat="46.10441007368984" lon="11.791895428072792"><ele>1114.4</ele><time>2026-05-02T12:27:04.001Z</time></trkpt><trkpt lat="46.10449469505539" lon="11.7917995292815"><ele>1146.6</ele><time>2026-05-02T12:27:06.001Z</time></trkpt><trkpt lat="46.10457917497636" lon="11.791744793149185"><ele>1178.8</ele><time>2026-05-02T12:27:08.001Z</time></trkpt><trkpt lat="46.10467186208862" lon="11.791716536479518"><ele>1211.0</ele><time>2026-05-02T12:27:10Z</time></trkpt><trkpt lat="46.10473259725172" lon="11.791598574867828"><ele>1208.8</ele><time>2026-05-02T12:27:12Z</time></trkpt><trkpt lat="46.10476033560063" lon="11.791433221490072"><ele>1206.6</ele><time>2026-05-02T12:27:14Z</time></trkpt><trkpt lat="46.10477250357514" lon="11.791260480456685"><ele>1204.4</ele><time>2026-05-02T12:27:16Z</time></trkpt><trkpt lat="46.1048208432666" lon="11.791136287201343"><ele>1202.2</ele><time>2026-05-02T12:27:18Z</time></trkpt><trkpt lat="46.104867865708734" lon="11.791044109445906"><ele>1200.0</ele><time>2026-05-02T12:27:20Z</time></trkpt><trkpt lat="46.10491331515113" lon="11.790880662538704"><ele>1200.0</ele><time>2026-05-02T12:27:22Z</time></trkpt><trkpt lat="46.10491522184329" lon="11.790727168586246"><ele>1200.0</ele><time>2026-05-02T12:27:24Z</time></trkpt><trkpt lat="46.104923812391206" lon="11.790599278054081"><ele>1200.0</ele><time>2026-05-02T12:27:26Z</time></trkpt><trkpt lat="46.10500469645063" lon="11.790463452090709"><ele>1200.0</ele><time>2026-05-02T12:27:28Z</time></trkpt><trkpt lat="46.10503746665353" lon="11.79037149041173"><ele>1200.0</ele><time>2026-05-02T12:27:29Z</time></trkpt><trkpt lat="46.10505376557393" lon="11.790280058199874"><ele>1200.0</ele><time>2026-05-02T12:27:30Z</time></trkpt><trkpt lat="46.105051291385294" lon="11.79018243493034"><ele>1200.0</ele><time>2026-05-02T12:27:31Z</time></trkpt><trkpt lat="46.10503255514969" lon="11.790018820579997"><ele>1200.0</ele><time>2026-05-02T12:27:33Z</time></trkpt><trkpt lat="46.10506286564745" lon="11.789860482674912"><ele>1200.0</ele><time>2026-05-02T12:27:35Z</time></trkpt><trkpt lat="46.10509214301359" lon="11.789771063005325"><ele>1200.0</ele><time>2026-05-02T12:27:36Z</time></trkpt><trkpt lat="46.105116941267426" lon="11.789662694924553"><ele>1200.0</ele><time>2026-05-02T12:27:37Z</time></trkpt><trkpt lat="46.105136272938324" lon="11.78953910251534"><ele>1200.0</ele><time>2026-05-02T12:27:38Z</time></trkpt><trkpt lat="46.105160019069366" lon="11.789440372335953"><ele>1200.0</ele><time>2026-05-02T12:27:39Z</time></trkpt><trkpt lat="46.10521880374543" lon="11.789291510624386"><ele>1200.0</ele><time>2026-05-02T12:27:41Z</time></trkpt><trkpt lat="46.10525154687806" lon="11.78921285873758"><ele>1200.0</ele><time>2026-05-02T12:27:42Z</time></trkpt><trkpt lat="46.10525389561269" lon="11.789118025314878"><ele>1200.0</ele><time>2026-05-02T12:27:43Z</time></trkpt><trkpt lat="46.10524731918778" lon="11.789024930298195"><ele>1200.0</ele><time>2026-05-02T12:27:44Z</time></trkpt><trkpt lat="46.105197085363784" lon="11.78887671969719"><ele>1200.0</ele><time>2026-05-02T12:27:46Z</time></trkpt><trkpt lat="46.10514337558919" lon="11.788791219521817"><ele>1200.0</ele><time>2026-05-02T12:27:47Z</time></trkpt><trkpt lat="46.10509520051925" lon="11.788700663912733"><ele>1200.0</ele><time>2026-05-02T12:27:48Z</time></trkpt><trkpt lat="46.10506538359556" lon="11.78859891674963"><ele>1200.0</ele><time>2026-05-02T12:27:49Z</time></trkpt><trkpt lat="46.105038180423506" lon="11.788501892752333"><ele>1200.0</ele><time>2026-05-02T12:27:50Z</time></trkpt><trkpt lat="46.105025614831796" lon="11.788331952043562"><ele>1200.0</ele><time>2026-05-02T12:27:52Z</time></trkpt><trkpt lat="46.10502616604553" lon="11.788232972655052"><ele>1200.0</ele><time>2026-05-02T12:27:53Z</time></trkpt><trkpt lat="46.105080300673826" lon="11.78805692761053"><ele>1200.0</ele><time>2026-05-02T12:27:55Z</time></trkpt><trkpt lat="46.10511732762156" lon="11.787959248309624"><ele>1200.0</ele><time>2026-05-02T12:27:56Z</time></trkpt><trkpt lat="46.10515356389429" lon="11.787847773331405"><ele>1200.0</ele><time>2026-05-02T12:27:57Z</time></trkpt><trkpt lat="46.10517652752135" lon="11.78771711703543"><ele>1200.0</ele><time>2026-05-02T12:27:58Z</time></trkpt><trkpt lat="46.10519163973129" lon="11.787592240071683"><ele>1200.0</ele><time>2026-05-02T12:27:59Z</time></trkpt><trkpt lat="46.105199609220094" lon="11.787492964777687"><ele>1200.0</ele><time>2026-05-02T12:28:00Z</time></trkpt><trkpt lat="46.10522740639262" lon="11.787401611286429"><ele>1200.0</ele><time>2026-05-02T12:28:01Z</time></trkpt><trkpt lat="46.10525718582283" lon="11.78721491527581"><ele>1200.0</ele><time>2026-05-02T12:28:03Z</time></trkpt><trkpt lat="46.10526944716928" lon="11.787124565363365"><ele>1200.0</ele><time>2026-05-02T12:28:04Z</time></trkpt><trkpt lat="46.10531971527787" lon="11.786959575652487"><ele>1200.0</ele><time>2026-05-02T12:28:06Z</time></trkpt><trkpt lat="46.105374408672006" lon="11.786868776533762"><ele>1200.0</ele><time>2026-05-02T12:28:07Z</time></trkpt><trkpt lat="46.10546210765231" lon="11.786702813696069"><ele>1200.0</ele><time>2026-05-02T12:28:09Z</time></trkpt><trkpt lat="46.105495077335746" lon="11.786608542796204"><ele>1200.0</ele><time>2026-05-02T12:28:10Z</time></trkpt><trkpt lat="46.10553199846108" lon="11.786477731217417"><ele>1200.0</ele><time>2026-05-02T12:28:12Z</time></trkpt><trkpt lat="46.10559527791581" lon="11.786419452440287"><ele>1195.4</ele><time>2026-05-02T12:28:15.001Z</time></trkpt><trkpt lat="46.10569087754888" lon="11.786444688796953"><ele>1190.8</ele><time>2026-05-02T12:28:17.001Z</time></trkpt><trkpt lat="46.10575179309137" lon="11.786472000094388"><ele>1186.2</ele><time>2026-05-02T12:28:18.001Z</time></trkpt><trkpt lat="46.105873630383826" lon="11.78648343314382"><ele>1181.6</ele><time>2026-05-02T12:28:20.001Z</time></trkpt><trkpt lat="46.1059687344988" lon="11.786467497176258"><ele>1177.0</ele><time>2026-05-02T12:28:22.001Z</time></trkpt><trkpt lat="46.10607550964276" lon="11.786498848056533"><ele>1177.0</ele><time>2026-05-02T12:28:24.001Z</time></trkpt><trkpt lat="46.10616422528953" lon="11.786595989140443"><ele>1177.0</ele><time>2026-05-02T12:28:26.001Z</time></trkpt><trkpt lat="46.106278225680796" lon="11.786652144982897"><ele>1177.0</ele><time>2026-05-02T12:28:28.001Z</time></trkpt><trkpt lat="46.10637834806415" lon="11.786667130792752"><ele>1177.0</ele><time>2026-05-02T12:28:30.001Z</time></trkpt><trkpt lat="46.10647204864647" lon="11.786645778462033"><ele>1177.0</ele><time>2026-05-02T12:28:32.001Z</time></trkpt><trkpt lat="46.10651028177982" lon="11.786727796446074"><ele>1177.0</ele><time>2026-05-02T12:28:35.001Z</time></trkpt><trkpt lat="46.106445158394365" lon="11.786812818479813"><ele>1177.0</ele><time>2026-05-02T12:28:38.001Z</time></trkpt><trkpt lat="46.10633524455759" lon="11.78677219823435"><ele>1177.0</ele><time>2026-05-02T12:28:40.001Z</time></trkpt><trkpt lat="46.10627168667243" lon="11.786745778960627"><ele>1177.0</ele><time>2026-05-02T12:28:41.001Z</time></trkpt><trkpt lat="46.106146792433634" lon="11.786703588477058"><ele>1177.0</ele><time>2026-05-02T12:28:43.001Z</time></trkpt><trkpt lat="46.10607481152414" lon="11.786677636748037"><ele>1177.0</ele><time>2026-05-02T12:28:44.001Z</time></trkpt><trkpt lat="46.10595435704592" lon="11.786638017091171"><ele>1177.0</ele><time>2026-05-02T12:28:46.001Z</time></trkpt><trkpt lat="46.10586185379818" lon="11.786666107744791"><ele>1177.0</ele><time>2026-05-02T12:28:48.001Z</time></trkpt><trkpt lat="46.105772459155595" lon="11.786660210679742"><ele>1177.0</ele><time>2026-05-02T12:28:50.001Z</time></trkpt><trkpt lat="46.10579468745088" lon="11.786759696308044"><ele>1177.0</ele><time>2026-05-02T12:28:53.001Z</time></trkpt><trkpt lat="46.10591829665721" lon="11.786750690986993"><ele>1177.0</ele><time>2026-05-02T12:28:56.001Z</time></trkpt><trkpt lat="46.10601271408307" lon="11.786714507068693"><ele>1177.0</ele><time>2026-05-02T12:28:58.001Z</time></trkpt><trkpt lat="46.10609919311989" lon="11.786764034429574"><ele>1177.0</ele><time>2026-05-02T12:29:00.001Z</time></trkpt><trkpt lat="46.106182359953706" lon="11.786883071863386"><ele>1177.0</ele><time>2026-05-02T12:29:02.001Z</time></trkpt><trkpt lat="46.10630219398324" lon="11.786951908202948"><ele>1177.0</ele><time>2026-05-02T12:29:04.001Z</time></trkpt><trkpt lat="46.10641539023913" lon="11.787011808136675"><ele>1177.857142857143</ele><time>2026-05-02T12:29:06.001Z</time></trkpt><trkpt lat="46.10648394042799" lon="11.787022226621096"><ele>1178.7142857142858</ele><time>2026-05-02T12:29:07.001Z</time></trkpt><trkpt lat="46.10655408156609" lon="11.787031849608173"><ele>1179.5714285714284</ele><time>2026-05-02T12:29:08.001Z</time></trkpt><trkpt lat="46.106661527079915" lon="11.786968591111501"><ele>1180.4285714285716</ele><time>2026-05-02T12:29:10.001Z</time></trkpt><trkpt lat="46.10671498129014" lon="11.786920239714656"><ele>1181.2857142857142</ele><time>2026-05-02T12:29:11.001Z</time></trkpt><trkpt lat="46.10677448264458" lon="11.786882664768614"><ele>1182.142857142857</ele><time>2026-05-02T12:29:12.001Z</time></trkpt><trkpt lat="46.106834743549854" lon="11.78685046953268"><ele>1183.0</ele><time>2026-05-02T12:29:13.001Z</time></trkpt><trkpt lat="46.106898294627875" lon="11.786804760915059"><ele>1183.0</ele><time>2026-05-02T12:29:14.001Z</time></trkpt><trkpt lat="46.106966512601026" lon="11.786759997211862"><ele>1183.0</ele><time>2026-05-02T12:29:15Z</time></trkpt><trkpt lat="46.107027678843146" lon="11.786724943283629"><ele>1183.0</ele><time>2026-05-02T12:29:16Z</time></trkpt><trkpt lat="46.107131034550285" lon="11.786725720325144"><ele>1183.0</ele><time>2026-05-02T12:29:18Z</time></trkpt><trkpt lat="46.10725993751157" lon="11.786749679689903"><ele>1183.0</ele><time>2026-05-02T12:29:20Z</time></trkpt><trkpt lat="46.107328872048406" lon="11.786797942079776"><ele>1183.0</ele><time>2026-05-02T12:29:21Z</time></trkpt><trkpt lat="46.10739793446347" lon="11.786814364841028"><ele>1183.0</ele><time>2026-05-02T12:29:22Z</time></trkpt><trkpt lat="46.10747026616854" lon="11.786833491807437"><ele>1183.0</ele><time>2026-05-02T12:29:23Z</time></trkpt><trkpt lat="46.10753225880745" lon="11.786864069855618"><ele>1183.0</ele><time>2026-05-02T12:29:24Z</time></trkpt><trkpt lat="46.107596272187656" lon="11.78683886118416"><ele>1183.0</ele><time>2026-05-02T12:29:25Z</time></trkpt><trkpt lat="46.10770687695138" lon="11.786783698860356"><ele>1183.0</ele><time>2026-05-02T12:29:27Z</time></trkpt><trkpt lat="46.10780672490061" lon="11.786825806781659"><ele>1193.5</ele><time>2026-05-02T12:29:29Z</time></trkpt><trkpt lat="46.107913679450185" lon="11.786917600484003"><ele>1204.0</ele><time>2026-05-02T12:29:31Z</time></trkpt><trkpt lat="46.107978910891696" lon="11.786950986302292"><ele>1214.5</ele><time>2026-05-02T12:29:32Z</time></trkpt><trkpt lat="46.108044749662106" lon="11.786958814150761"><ele>1225.0</ele><time>2026-05-02T12:29:33Z</time></trkpt><trkpt lat="46.10813986279688" lon="11.786995056259148"><ele>1235.5</ele><time>2026-05-02T12:29:35Z</time></trkpt><trkpt lat="46.108198729154516" lon="11.787076181823288"><ele>1246.0</ele><time>2026-05-02T12:29:37Z</time></trkpt><trkpt lat="46.10819491877386" lon="11.787215107733076"><ele>1246.0</ele><time>2026-05-02T12:29:39Z</time></trkpt><trkpt lat="46.10820922539959" lon="11.78739414983328"><ele>1246.0</ele><time>2026-05-02T12:29:41Z</time></trkpt><trkpt lat="46.10822518039881" lon="11.787508305053052"><ele>1246.0</ele><time>2026-05-02T12:29:42Z</time></trkpt><trkpt lat="46.10825164798581" lon="11.787609752984869"><ele>1246.0</ele><time>2026-05-02T12:29:43Z</time></trkpt><trkpt lat="46.108259684167884" lon="11.787757617183354"><ele>1246.0</ele><time>2026-05-02T12:29:45Z</time></trkpt><trkpt lat="46.10820062008709" lon="11.787880670715735"><ele>1249.8333333333333</ele><time>2026-05-02T12:29:47Z</time></trkpt><trkpt lat="46.10815303316405" lon="11.787946620676772"><ele>1253.6666666666665</ele><time>2026-05-02T12:29:48Z</time></trkpt><trkpt lat="46.108102138041815" lon="11.788024339071697"><ele>1257.5</ele><time>2026-05-02T12:29:49Z</time></trkpt><trkpt lat="46.10805928999812" lon="11.788120377199066"><ele>1261.3333333333333</ele><time>2026-05-02T12:29:50Z</time></trkpt><trkpt lat="46.10801583175464" lon="11.788222743648047"><ele>1265.1666666666667</ele><time>2026-05-02T12:29:51Z</time></trkpt><trkpt lat="46.10798997378613" lon="11.788341276073325"><ele>1269.0</ele><time>2026-05-02T12:29:52Z</time></trkpt><trkpt lat="46.10796518255549" lon="11.788456233945315"><ele>1270.3333333333333</ele><time>2026-05-02T12:29:53Z</time></trkpt><trkpt lat="46.10793924747967" lon="11.788567491520785"><ele>1271.6666666666667</ele><time>2026-05-02T12:29:54Z</time></trkpt><trkpt lat="46.10792592229874" lon="11.788675086758863"><ele>1273.0</ele><time>2026-05-02T12:29:55Z</time></trkpt><trkpt lat="46.1079184136433" lon="11.788770416015002"><ele>1274.3333333333335</ele><time>2026-05-02T12:29:56Z</time></trkpt><trkpt lat="46.10794433307355" lon="11.78895205055375"><ele>1275.6666666666667</ele><time>2026-05-02T12:29:58Z</time></trkpt><trkpt lat="46.10797884585185" lon="11.789034945037846"><ele>1277.0</ele><time>2026-05-02T12:29:59Z</time></trkpt><trkpt lat="46.10801275082896" lon="11.789127340509879"><ele>1277.0</ele><time>2026-05-02T12:30:00Z</time></trkpt><trkpt lat="46.108021483969004" lon="11.789287756956483"><ele>1277.0</ele><time>2026-05-02T12:30:02Z</time></trkpt><trkpt lat="46.10800535106113" lon="11.789384380962488"><ele>1277.0</ele><time>2026-05-02T12:30:03Z</time></trkpt><trkpt lat="46.1079929761246" lon="11.78950194518737"><ele>1277.0</ele><time>2026-05-02T12:30:04Z</time></trkpt><trkpt lat="46.108012042462185" lon="11.789624682455248"><ele>1277.0</ele><time>2026-05-02T12:30:05Z</time></trkpt><trkpt lat="46.10804807100332" lon="11.789729723197347"><ele>1277.0</ele><time>2026-05-02T12:30:06Z</time></trkpt><trkpt lat="46.1080900133404" lon="11.789839660993394"><ele>1279.5</ele><time>2026-05-02T12:30:07Z</time></trkpt><trkpt lat="46.1081512574034" lon="11.789940064441618"><ele>1282.0</ele><time>2026-05-02T12:30:08Z</time></trkpt><trkpt lat="46.10820618117691" lon="11.790016900439696"><ele>1284.5</ele><time>2026-05-02T12:30:09Z</time></trkpt><trkpt lat="46.10825707262252" lon="11.790088016205594"><ele>1287.0</ele><time>2026-05-02T12:30:10Z</time></trkpt><trkpt lat="46.10830993176052" lon="11.790141688903383"><ele>1289.5</ele><time>2026-05-02T12:30:11Z</time></trkpt><trkpt lat="46.10838271148335" lon="11.790238501688961"><ele>1292.0</ele><time>2026-05-02T12:30:13Z</time></trkpt><trkpt lat="46.108395139179" lon="11.790394554505962"><ele>1286.4285714285716</ele><time>2026-05-02T12:30:15Z</time></trkpt><trkpt lat="46.108396801671645" lon="11.7904862603286"><ele>1280.857142857143</ele><time>2026-05-02T12:30:16Z</time></trkpt><trkpt lat="46.10839332270172" lon="11.790591384236437"><ele>1275.2857142857142</ele><time>2026-05-02T12:30:17Z</time></trkpt><trkpt lat="46.108382583215445" lon="11.790692566656727"><ele>1269.7142857142858</ele><time>2026-05-02T12:30:18Z</time></trkpt><trkpt lat="46.108382055449866" lon="11.790799605583006"><ele>1264.142857142857</ele><time>2026-05-02T12:30:19Z</time></trkpt><trkpt lat="46.108375022687696" lon="11.790916816328721"><ele>1258.5714285714287</ele><time>2026-05-02T12:30:20Z</time></trkpt><trkpt lat="46.10837921208107" lon="11.79101940875256"><ele>1253.0</ele><time>2026-05-02T12:30:21Z</time></trkpt><trkpt lat="46.10839629820667" lon="11.791114810359527"><ele>1252.3333333333335</ele><time>2026-05-02T12:30:22Z</time></trkpt><trkpt lat="46.10844581274026" lon="11.791207464607242"><ele>1251.6666666666667</ele><time>2026-05-02T12:30:23Z</time></trkpt><trkpt lat="46.10849347991523" lon="11.791294579814807"><ele>1251.0</ele><time>2026-05-02T12:30:24Z</time></trkpt><trkpt lat="46.108510649233324" lon="11.791394452253975"><ele>1250.3333333333333</ele><time>2026-05-02T12:30:25.001Z</time></trkpt><trkpt lat="46.10854023477293" lon="11.791494045489063"><ele>1249.6666666666665</ele><time>2026-05-02T12:30:26.001Z</time></trkpt><trkpt lat="46.1085720101321" lon="11.791596493551676"><ele>1249.0</ele><time>2026-05-02T12:30:27.001Z</time></trkpt><trkpt lat="46.10860696723235" lon="11.791696592498997"><ele>1248.9999999999998</ele><time>2026-05-02T12:30:28.001Z</time></trkpt><trkpt lat="46.10866571692784" lon="11.791785525243117"><ele>1249.0</ele><time>2026-05-02T12:30:29.001Z</time></trkpt><trkpt lat="46.10869808802294" lon="11.79188328685311"><ele>1249.0</ele><time>2026-05-02T12:30:30.001Z</time></trkpt><trkpt lat="46.10875754976514" lon="11.791955382858454"><ele>1249.0</ele><time>2026-05-02T12:30:31.001Z</time></trkpt><trkpt lat="46.10879728559677" lon="11.792031260742489"><ele>1249.0</ele><time>2026-05-02T12:30:32.001Z</time></trkpt><trkpt lat="46.10884008149315" lon="11.792118062839906"><ele>1248.9999999999998</ele><time>2026-05-02T12:30:33.001Z</time></trkpt><trkpt lat="46.10887169346484" lon="11.792206991720903"><ele>1249.0</ele><time>2026-05-02T12:30:34.001Z</time></trkpt><trkpt lat="46.10889894352822" lon="11.792379277956403"><ele>1252.4</ele><time>2026-05-02T12:30:36.001Z</time></trkpt><trkpt lat="46.10891318467386" lon="11.792469215663315"><ele>1255.8000000000002</ele><time>2026-05-02T12:30:37.001Z</time></trkpt><trkpt lat="46.10896860235857" lon="11.792575093850633"><ele>1259.1999999999998</ele><time>2026-05-02T12:30:39.001Z</time></trkpt><trkpt lat="46.10901317456475" lon="11.792648909039551"><ele>1262.6</ele><time>2026-05-02T12:30:41.001Z</time></trkpt><trkpt lat="46.109114396625614" lon="11.792667953775805"><ele>1266.0</ele><time>2026-05-02T12:30:43.001Z</time></trkpt><trkpt lat="46.10925080261139" lon="11.79261317044416"><ele>1266.0</ele><time>2026-05-02T12:30:45.001Z</time></trkpt><trkpt lat="46.10932598350698" lon="11.792542129197352"><ele>1266.0</ele><time>2026-05-02T12:30:46.001Z</time></trkpt><trkpt lat="46.10940107584103" lon="11.792464653776877"><ele>1266.0</ele><time>2026-05-02T12:30:47.001Z</time></trkpt><trkpt lat="46.10945906291277" lon="11.792415061659904"><ele>1266.0</ele><time>2026-05-02T12:30:48.001Z</time></trkpt><trkpt lat="46.10954414445553" lon="11.792350163128352"><ele>1266.0</ele><time>2026-05-02T12:30:50.001Z</time></trkpt><trkpt lat="46.10962475574067" lon="11.792292491248771"><ele>1266.0</ele><time>2026-05-02T12:30:52.001Z</time></trkpt><trkpt lat="46.109691968674056" lon="11.79230285813353"><ele>1266.0</ele><time>2026-05-02T12:30:53.001Z</time></trkpt><trkpt lat="46.109754233291554" lon="11.792337621420446"><ele>1266.0</ele><time>2026-05-02T12:30:54.001Z</time></trkpt><trkpt lat="46.109832826196346" lon="11.792341481391896"><ele>1266.0</ele><time>2026-05-02T12:30:55.001Z</time></trkpt><trkpt lat="46.10990197798235" lon="11.792365213970003"><ele>1266.0</ele><time>2026-05-02T12:30:56.001Z</time></trkpt><trkpt lat="46.1100054389183" lon="11.79233079067272"><ele>1266.0</ele><time>2026-05-02T12:30:58.001Z</time></trkpt><trkpt lat="46.11009927605453" lon="11.79225967617739"><ele>1266.0</ele><time>2026-05-02T12:31:00.001Z</time></trkpt><trkpt lat="46.11018881471021" lon="11.792235734592744"><ele>1265.5</ele><time>2026-05-02T12:31:02.001Z</time></trkpt><trkpt lat="46.11028883898296" lon="11.792230759832053"><ele>1265.0</ele><time>2026-05-02T12:31:04.001Z</time></trkpt><trkpt lat="46.11035473471111" lon="11.792242661559792"><ele>1264.5</ele><time>2026-05-02T12:31:05.001Z</time></trkpt><trkpt lat="46.11043012579579" lon="11.79227930440018"><ele>1264.0</ele><time>2026-05-02T12:31:06.001Z</time></trkpt><trkpt lat="46.11050143839862" lon="11.792305515435237"><ele>1263.5</ele><time>2026-05-02T12:31:07.001Z</time></trkpt><trkpt lat="46.11056704387583" lon="11.792320753972737"><ele>1263.0</ele><time>2026-05-02T12:31:08.001Z</time></trkpt><trkpt lat="46.110665041238214" lon="11.792399940770286"><ele>1263.0</ele><time>2026-05-02T12:31:10.001Z</time></trkpt><trkpt lat="46.11073118711083" lon="11.792427999868512"><ele>1263.0</ele><time>2026-05-02T12:31:11.001Z</time></trkpt><trkpt lat="46.11080225071217" lon="11.79248840314611"><ele>1263.0</ele><time>2026-05-02T12:31:12.001Z</time></trkpt><trkpt lat="46.11088045404524" lon="11.792528799124867"><ele>1263.0</ele><time>2026-05-02T12:31:13.001Z</time></trkpt><trkpt lat="46.11096503265725" lon="11.792539385180152"><ele>1263.0</ele><time>2026-05-02T12:31:14.001Z</time></trkpt><trkpt lat="46.111045721886356" lon="11.792568324505455"><ele>1263.0</ele><time>2026-05-02T12:31:15.001Z</time></trkpt><trkpt lat="46.11113111575026" lon="11.792548984181536"><ele>1262.5</ele><time>2026-05-02T12:31:16.001Z</time></trkpt><trkpt lat="46.11120848401749" lon="11.792523567621716"><ele>1262.0</ele><time>2026-05-02T12:31:17.001Z</time></trkpt><trkpt lat="46.11128031416175" lon="11.792486731189006"><ele>1261.5</ele><time>2026-05-02T12:31:18.001Z</time></trkpt><trkpt lat="46.111341836496855" lon="11.79244803131839"><ele>1261.0</ele><time>2026-05-02T12:31:19.001Z</time></trkpt><trkpt lat="46.11140432354346" lon="11.792402041008419"><ele>1260.5</ele><time>2026-05-02T12:31:20.001Z</time></trkpt><trkpt lat="46.11150254921533" lon="11.792329932534296"><ele>1260.0</ele><time>2026-05-02T12:31:22Z</time></trkpt><trkpt lat="46.11156419292239" lon="11.792291639451873"><ele>1262.5</ele><time>2026-05-02T12:31:23Z</time></trkpt><trkpt lat="46.11166715977359" lon="11.79219619896211"><ele>1265.0</ele><time>2026-05-02T12:31:25Z</time></trkpt><trkpt lat="46.111714896589724" lon="11.792115813014988"><ele>1267.5</ele><time>2026-05-02T12:31:26Z</time></trkpt><trkpt lat="46.111750662317924" lon="11.792017588283219"><ele>1270.0</ele><time>2026-05-02T12:31:27Z</time></trkpt><trkpt lat="46.11177597213275" lon="11.79192247386135"><ele>1272.5</ele><time>2026-05-02T12:31:28Z</time></trkpt><trkpt lat="46.11178115155546" lon="11.791809574481855"><ele>1275.0</ele><time>2026-05-02T12:31:29Z</time></trkpt><trkpt lat="46.111774390597276" lon="11.791718428061744"><ele>1269.8333333333333</ele><time>2026-05-02T12:31:30Z</time></trkpt><trkpt lat="46.111801272299324" lon="11.791595822128638"><ele>1264.6666666666667</ele><time>2026-05-02T12:31:32Z</time></trkpt><trkpt lat="46.11185922857606" lon="11.791523123436066"><ele>1259.5</ele><time>2026-05-02T12:31:34Z</time></trkpt><trkpt lat="46.11197856485725" lon="11.791487087528207"><ele>1254.3333333333335</ele><time>2026-05-02T12:31:36Z</time></trkpt><trkpt lat="46.11205016235112" lon="11.791410522006121"><ele>1249.1666666666667</ele><time>2026-05-02T12:31:37Z</time></trkpt><trkpt lat="46.11210410429014" lon="11.791347783721434"><ele>1244.0</ele><time>2026-05-02T12:31:38Z</time></trkpt><trkpt lat="46.11219616575678" lon="11.791232083715952"><ele>1244.0</ele><time>2026-05-02T12:31:40Z</time></trkpt><trkpt lat="46.112286275485076" lon="11.791201194508206"><ele>1244.0</ele><time>2026-05-02T12:31:42Z</time></trkpt><trkpt lat="46.112377180912226" lon="11.791221056931478"><ele>1244.0</ele><time>2026-05-02T12:31:44Z</time></trkpt><trkpt lat="46.112489393509065" lon="11.791274663933976"><ele>1244.0</ele><time>2026-05-02T12:31:46Z</time></trkpt><trkpt lat="46.11255981436618" lon="11.791304453618496"><ele>1244.0</ele><time>2026-05-02T12:31:47Z</time></trkpt><trkpt lat="46.11261847877302" lon="11.791364099816523"><ele>1244.0</ele><time>2026-05-02T12:31:48Z</time></trkpt><trkpt lat="46.11268173485945" lon="11.791436140941709"><ele>1247.142857142857</ele><time>2026-05-02T12:31:49Z</time></trkpt><trkpt lat="46.11272969265448" lon="11.791531360980603"><ele>1250.2857142857144</ele><time>2026-05-02T12:31:50Z</time></trkpt><trkpt lat="46.11278549747251" lon="11.791582334692873"><ele>1253.4285714285716</ele><time>2026-05-02T12:31:51Z</time></trkpt><trkpt lat="46.11281926565809" lon="11.791667603990993"><ele>1256.5714285714284</ele><time>2026-05-02T12:31:52Z</time></trkpt><trkpt lat="46.11286741881717" lon="11.791741654288554"><ele>1259.7142857142858</ele><time>2026-05-02T12:31:53Z</time></trkpt><trkpt lat="46.11291931779558" lon="11.791806639517661"><ele>1262.857142857143</ele><time>2026-05-02T12:31:54Z</time></trkpt><trkpt lat="46.11296016880697" lon="11.791892296942352"><ele>1266.0</ele><time>2026-05-02T12:31:55Z</time></trkpt><trkpt lat="46.11302319323245" lon="11.791962021395511"><ele>1271.6</ele><time>2026-05-02T12:31:56Z</time></trkpt><trkpt lat="46.11308067019486" lon="11.792021873632018"><ele>1277.1999999999998</ele><time>2026-05-02T12:31:57Z</time></trkpt><trkpt lat="46.11311923648277" lon="11.79209542798335"><ele>1282.8000000000002</ele><time>2026-05-02T12:31:58Z</time></trkpt><trkpt lat="46.1132211136724" lon="11.792181837527568"><ele>1288.4</ele><time>2026-05-02T12:32:00Z</time></trkpt><trkpt lat="46.11333074738344" lon="11.792162117643471"><ele>1294.0</ele><time>2026-05-02T12:32:02Z</time></trkpt><trkpt lat="46.11340434952412" lon="11.792066969384381"><ele>1294.0</ele><time>2026-05-02T12:32:04Z</time></trkpt><trkpt lat="46.11349181854314" lon="11.792048426047963"><ele>1294.0</ele><time>2026-05-02T12:32:06Z</time></trkpt><trkpt lat="46.11358842087197" lon="11.792104433081201"><ele>1294.0</ele><time>2026-05-02T12:32:08Z</time></trkpt><trkpt lat="46.11367078959937" lon="11.792202132919197"><ele>1294.0</ele><time>2026-05-02T12:32:10Z</time></trkpt><trkpt lat="46.11373223891286" lon="11.79225685415225"><ele>1294.0</ele><time>2026-05-02T12:32:11Z</time></trkpt><trkpt lat="46.11379987658039" lon="11.792292734552754"><ele>1294.0</ele><time>2026-05-02T12:32:12Z</time></trkpt><trkpt lat="46.11386428460755" lon="11.792307279885353"><ele>1294.0</ele><time>2026-05-02T12:32:13Z</time></trkpt><trkpt lat="46.11397542849342" lon="11.792285522374781"><ele>1294.0</ele><time>2026-05-02T12:32:15Z</time></trkpt><trkpt lat="46.11402091218271" lon="11.792204861931546"><ele>1294.0</ele><time>2026-05-02T12:32:16Z</time></trkpt><trkpt lat="46.114098871613116" lon="11.792075793238268"><ele>1294.0</ele><time>2026-05-02T12:32:18Z</time></trkpt><trkpt lat="46.11413411301526" lon="11.79199906788705"><ele>1294.0</ele><time>2026-05-02T12:32:19Z</time></trkpt><trkpt lat="46.11418330380344" lon="11.791865793945169"><ele>1291.8000000000002</ele><time>2026-05-02T12:32:21Z</time></trkpt><trkpt lat="46.114189972378064" lon="11.791761668192814"><ele>1289.6000000000001</ele><time>2026-05-02T12:32:23Z</time></trkpt><trkpt lat="46.11413843303625" lon="11.791646575940042"><ele>1287.4</ele><time>2026-05-02T12:32:25Z</time></trkpt><trkpt lat="46.11406343449977" lon="11.791533711444623"><ele>1285.2</ele><time>2026-05-02T12:32:27Z</time></trkpt><trkpt lat="46.114025606259" lon="11.791360804731141"><ele>1283.0</ele><time>2026-05-02T12:32:29Z</time></trkpt><trkpt lat="46.11401096896912" lon="11.791175238518253"><ele>1280.6000000000001</ele><time>2026-05-02T12:32:31Z</time></trkpt><trkpt lat="46.11404500368888" lon="11.791040794550785"><ele>1278.2</ele><time>2026-05-02T12:32:33Z</time></trkpt><trkpt lat="46.114096671167175" lon="11.79095254631678"><ele>1275.8</ele><time>2026-05-02T12:32:35Z</time></trkpt><trkpt lat="46.11416380439384" lon="11.790888634817899"><ele>1273.4</ele><time>2026-05-02T12:32:37.001Z</time></trkpt><trkpt lat="46.11426093075319" lon="11.790778065794905"><ele>1271.0</ele><time>2026-05-02T12:32:39.001Z</time></trkpt><trkpt lat="46.114363925427355" lon="11.790689362916535"><ele>1271.0000000000002</ele><time>2026-05-02T12:32:41.001Z</time></trkpt><trkpt lat="46.11439856286358" lon="11.790597247308947"><ele>1271.0</ele><time>2026-05-02T12:32:42.001Z</time></trkpt><trkpt lat="46.11442753275758" lon="11.790496653574765"><ele>1271.0</ele><time>2026-05-02T12:32:43.001Z</time></trkpt><trkpt lat="46.11444260272952" lon="11.79039169773646"><ele>1271.0</ele><time>2026-05-02T12:32:44.001Z</time></trkpt><trkpt lat="46.114439540349544" lon="11.79028434887626"><ele>1271.0</ele><time>2026-05-02T12:32:45.001Z</time></trkpt><trkpt lat="46.114432392718676" lon="11.790177656579875"><ele>1271.0000000000002</ele><time>2026-05-02T12:32:46.001Z</time></trkpt><trkpt lat="46.11441369649999" lon="11.790081693446501"><ele>1271.0</ele><time>2026-05-02T12:32:47.001Z</time></trkpt><trkpt lat="46.11437543257519" lon="11.789989297442624"><ele>1270.6666666666667</ele><time>2026-05-02T12:32:48.001Z</time></trkpt><trkpt lat="46.11431778010557" lon="11.789919895415808"><ele>1270.3333333333335</ele><time>2026-05-02T12:32:49.001Z</time></trkpt><trkpt lat="46.1142785334125" lon="11.789840462918844"><ele>1270.0</ele><time>2026-05-02T12:32:50.001Z</time></trkpt><trkpt lat="46.114235495587245" lon="11.789770969044605"><ele>1269.6666666666667</ele><time>2026-05-02T12:32:51.001Z</time></trkpt><trkpt lat="46.114195140471224" lon="11.789641777075314"><ele>1269.3333333333333</ele><time>2026-05-02T12:32:53.001Z</time></trkpt><trkpt lat="46.11419490213741" lon="11.789539919914054"><ele>1269.0</ele><time>2026-05-02T12:32:55.001Z</time></trkpt><trkpt lat="46.11424793694629" lon="11.789450166824116"><ele>1269.0</ele><time>2026-05-02T12:32:57.001Z</time></trkpt><trkpt lat="46.114319520382864" lon="11.789357800532436"><ele>1269.0</ele><time>2026-05-02T12:32:59.001Z</time></trkpt><trkpt lat="46.11441687588299" lon="11.78928064842261"><ele>1269.0</ele><time>2026-05-02T12:33:01.001Z</time></trkpt><trkpt lat="46.11452685651273" lon="11.789210028237738"><ele>1269.0</ele><time>2026-05-02T12:33:03.001Z</time></trkpt><trkpt lat="46.11463249893716" lon="11.789145657370645"><ele>1269.0</ele><time>2026-05-02T12:33:05.001Z</time></trkpt><trkpt lat="46.114728419460775" lon="11.789039789317858"><ele>1267.4</ele><time>2026-05-02T12:33:07.001Z</time></trkpt><trkpt lat="46.11476041510708" lon="11.788958644880946"><ele>1265.8000000000002</ele><time>2026-05-02T12:33:08.001Z</time></trkpt><trkpt lat="46.11475661950406" lon="11.788847766588388"><ele>1264.1999999999998</ele><time>2026-05-02T12:33:09.001Z</time></trkpt><trkpt lat="46.11480697738829" lon="11.788705416126378"><ele>1262.6</ele><time>2026-05-02T12:33:11.001Z</time></trkpt><trkpt lat="46.11484167517967" lon="11.788569785177765"><ele>1261.0</ele><time>2026-05-02T12:33:13.001Z</time></trkpt><trkpt lat="46.11486608987998" lon="11.788409251426465"><ele>1259.5</ele><time>2026-05-02T12:33:15.001Z</time></trkpt><trkpt lat="46.114887785168385" lon="11.788317794547861"><ele>1258.0</ele><time>2026-05-02T12:33:16.001Z</time></trkpt><trkpt lat="46.11491592906178" lon="11.788224041018912"><ele>1256.5</ele><time>2026-05-02T12:33:17.001Z</time></trkpt><trkpt lat="46.11492826971656" lon="11.788115425259551"><ele>1255.0</ele><time>2026-05-02T12:33:18.001Z</time></trkpt><trkpt lat="46.11492773064715" lon="11.787988520292584"><ele>1253.5</ele><time>2026-05-02T12:33:19.001Z</time></trkpt><trkpt lat="46.11489858784534" lon="11.787875818955921"><ele>1252.0</ele><time>2026-05-02T12:33:20.001Z</time></trkpt><trkpt lat="46.11487468205804" lon="11.787780713926017"><ele>1253.3333333333333</ele><time>2026-05-02T12:33:21.001Z</time></trkpt><trkpt lat="46.114822229004695" lon="11.787625486280657"><ele>1254.6666666666665</ele><time>2026-05-02T12:33:23.001Z</time></trkpt><trkpt lat="46.114781469321" lon="11.787533553321195"><ele>1256.0</ele><time>2026-05-02T12:33:24.001Z</time></trkpt><trkpt lat="46.11477217390004" lon="11.787374319734763"><ele>1257.3333333333333</ele><time>2026-05-02T12:33:26.001Z</time></trkpt><trkpt lat="46.11479658483472" lon="11.787284765938033"><ele>1258.6666666666667</ele><time>2026-05-02T12:33:28Z</time></trkpt><trkpt lat="46.11483913265575" lon="11.787205540619574"><ele>1260.0</ele><time>2026-05-02T12:33:30Z</time></trkpt><trkpt lat="46.11490571252514" lon="11.787139953376874"><ele>1266.0</ele><time>2026-05-02T12:33:32Z</time></trkpt><trkpt lat="46.11500471591732" lon="11.7870806360115"><ele>1272.0</ele><time>2026-05-02T12:33:34Z</time></trkpt><trkpt lat="46.11511398079822" lon="11.787058633404962"><ele>1278.0</ele><time>2026-05-02T12:33:36Z</time></trkpt><trkpt lat="46.11523844301448" lon="11.787058326292398"><ele>1284.0</ele><time>2026-05-02T12:33:38Z</time></trkpt><trkpt lat="46.115328534978616" lon="11.787063362211965"><ele>1290.0</ele><time>2026-05-02T12:33:40Z</time></trkpt><trkpt lat="46.11539329352505" lon="11.787077001823153"><ele>1290.0</ele><time>2026-05-02T12:33:41Z</time></trkpt><trkpt lat="46.11545679706714" lon="11.78709566141601"><ele>1290.0</ele><time>2026-05-02T12:33:42Z</time></trkpt><trkpt lat="46.115571522357904" lon="11.78712609377887"><ele>1290.0</ele><time>2026-05-02T12:33:44Z</time></trkpt><trkpt lat="46.115684363014935" lon="11.787132126280207"><ele>1290.0</ele><time>2026-05-02T12:33:46Z</time></trkpt><trkpt lat="46.11580800989995" lon="11.787083396526807"><ele>1290.0</ele><time>2026-05-02T12:33:48Z</time></trkpt><trkpt lat="46.11592991184353" lon="11.78701983674389"><ele>1296.4</ele><time>2026-05-02T12:33:50Z</time></trkpt><trkpt lat="46.11604409259219" lon="11.78698026452544"><ele>1302.8</ele><time>2026-05-02T12:33:52Z</time></trkpt><trkpt lat="46.1161063299682" lon="11.786963303026614"><ele>1309.1999999999998</ele><time>2026-05-02T12:33:53Z</time></trkpt><trkpt lat="46.11620978039732" lon="11.786940619835127"><ele>1315.6</ele><time>2026-05-02T12:33:55Z</time></trkpt><trkpt lat="46.116314666712725" lon="11.786941961751277"><ele>1322.0</ele><time>2026-05-02T12:33:57Z</time></trkpt><trkpt lat="46.11638686173906" lon="11.786984276825748"><ele>1322.0</ele><time>2026-05-02T12:33:59Z</time></trkpt><trkpt lat="46.116459592914275" lon="11.78705027390807"><ele>1322.0</ele><time>2026-05-02T12:34:01Z</time></trkpt><trkpt lat="46.11654284432419" lon="11.787148134122825"><ele>1322.0</ele><time>2026-05-02T12:34:03Z</time></trkpt><trkpt lat="46.116592438686915" lon="11.787213923598712"><ele>1322.0</ele><time>2026-05-02T12:34:04Z</time></trkpt><trkpt lat="46.116641168268984" lon="11.787287103299503"><ele>1322.0</ele><time>2026-05-02T12:34:05Z</time></trkpt><trkpt lat="46.11669014108234" lon="11.787349147140693"><ele>1322.0</ele><time>2026-05-02T12:34:06Z</time></trkpt><trkpt lat="46.11674013049603" lon="11.787441219200126"><ele>1321.5714285714284</ele><time>2026-05-02T12:34:07Z</time></trkpt><trkpt lat="46.11679196678107" lon="11.787541906535834"><ele>1321.142857142857</ele><time>2026-05-02T12:34:08Z</time></trkpt><trkpt lat="46.1168393278653" lon="11.787640424976408"><ele>1320.7142857142858</ele><time>2026-05-02T12:34:09Z</time></trkpt><trkpt lat="46.116873140695546" lon="11.787724224195305"><ele>1320.2857142857142</ele><time>2026-05-02T12:34:10Z</time></trkpt><trkpt lat="46.11691579977617" lon="11.78780135124923"><ele>1319.857142857143</ele><time>2026-05-02T12:34:11Z</time></trkpt><trkpt lat="46.11695024513204" lon="11.787889522585786"><ele>1319.4285714285713</ele><time>2026-05-02T12:34:12Z</time></trkpt><trkpt lat="46.11700371728016" lon="11.7879558033055"><ele>1319.0</ele><time>2026-05-02T12:34:13Z</time></trkpt><trkpt lat="46.11702796196162" lon="11.78804063461402"><ele>1323.8000000000002</ele><time>2026-05-02T12:34:14Z</time></trkpt><trkpt lat="46.11706739918886" lon="11.788113117505022"><ele>1328.6000000000001</ele><time>2026-05-02T12:34:15Z</time></trkpt><trkpt lat="46.11713859435694" lon="11.788212454521823"><ele>1333.4</ele><time>2026-05-02T12:34:17Z</time></trkpt><trkpt lat="46.11723979460439" lon="11.788265161390745"><ele>1338.2</ele><time>2026-05-02T12:34:19Z</time></trkpt><trkpt lat="46.117355841599945" lon="11.788246583647338"><ele>1343.0</ele><time>2026-05-02T12:34:21Z</time></trkpt><trkpt lat="46.11746134790149" lon="11.788205634513195"><ele>1343.0</ele><time>2026-05-02T12:34:23Z</time></trkpt><trkpt lat="46.117524036375556" lon="11.788180019811724"><ele>1343.0</ele><time>2026-05-02T12:34:24Z</time></trkpt><trkpt lat="46.11759256708999" lon="11.788146338678889"><ele>1343.0</ele><time>2026-05-02T12:34:25Z</time></trkpt><trkpt lat="46.11768621634073" lon="11.788090863533704"><ele>1343.0</ele><time>2026-05-02T12:34:27Z</time></trkpt><trkpt lat="46.117762097844235" lon="11.788043071395629"><ele>1343.0</ele><time>2026-05-02T12:34:29Z</time></trkpt><trkpt lat="46.11785768484879" lon="11.787986616480502"><ele>1343.0</ele><time>2026-05-02T12:34:31.001Z</time></trkpt><trkpt lat="46.11791625080682" lon="11.787952054614173"><ele>1343.0</ele><time>2026-05-02T12:34:32.001Z</time></trkpt><trkpt lat="46.11798341478761" lon="11.787912955758616"><ele>1343.0</ele><time>2026-05-02T12:34:33.001Z</time></trkpt><trkpt lat="46.11805604463964" lon="11.787874997354809"><ele>1343.0</ele><time>2026-05-02T12:34:34.001Z</time></trkpt><trkpt lat="46.1181778840737" lon="11.787830025078952"><ele>1343.0</ele><time>2026-05-02T12:34:36.001Z</time></trkpt><trkpt lat="46.11824122324681" lon="11.78780687725278"><ele>1343.0</ele><time>2026-05-02T12:34:37.001Z</time></trkpt><trkpt lat="46.118309522192334" lon="11.78778521435243"><ele>1343.0</ele><time>2026-05-02T12:34:38.001Z</time></trkpt><trkpt lat="46.11837285801624" lon="11.787771480222522"><ele>1343.0</ele><time>2026-05-02T12:34:39.001Z</time></trkpt><trkpt lat="46.11849833898426" lon="11.787782824928076"><ele>1343.0</ele><time>2026-05-02T12:34:41.001Z</time></trkpt><trkpt lat="46.11856821579959" lon="11.787817192074993"><ele>1343.0</ele><time>2026-05-02T12:34:42.001Z</time></trkpt><trkpt lat="46.11862774941581" lon="11.787868826257425"><ele>1343.0</ele><time>2026-05-02T12:34:43.001Z</time></trkpt><trkpt lat="46.11868942731424" lon="11.7879319924104"><ele>1343.0</ele><time>2026-05-02T12:34:44.001Z</time></trkpt><trkpt lat="46.11876957763073" lon="11.788017596273376"><ele>1343.0</ele><time>2026-05-02T12:34:45.001Z</time></trkpt><trkpt lat="46.118879588363214" lon="11.788133036744943"><ele>1343.0</ele><time>2026-05-02T12:34:46.001Z</time></trkpt><trkpt lat="46.11896357038094" lon="11.788250960592645"><ele>1343.0</ele><time>2026-05-02T12:34:47.001Z</time></trkpt><trkpt lat="46.11905834851466" lon="11.788333810284072"><ele>1343.0</ele><time>2026-05-02T12:34:48.001Z</time></trkpt><trkpt lat="46.1191477448933" lon="11.788407443982825"><ele>1343.0</ele><time>2026-05-02T12:34:49.001Z</time></trkpt><trkpt lat="46.119222267961725" lon="11.788459061352512"><ele>1343.0</ele><time>2026-05-02T12:34:50.001Z</time></trkpt><trkpt lat="46.119293396197705" lon="11.788526800664513"><ele>1344.3333333333335</ele><time>2026-05-02T12:34:51.001Z</time></trkpt><trkpt lat="46.11937217478377" lon="11.788567843556283"><ele>1345.6666666666667</ele><time>2026-05-02T12:34:52.001Z</time></trkpt><trkpt lat="46.11943755116924" lon="11.788648285853563"><ele>1347.0</ele><time>2026-05-02T12:34:53.001Z</time></trkpt><trkpt lat="46.119504589034634" lon="11.788708020571367"><ele>1348.3333333333333</ele><time>2026-05-02T12:34:54.001Z</time></trkpt><trkpt lat="46.119575765752785" lon="11.788762051133137"><ele>1349.6666666666665</ele><time>2026-05-02T12:34:55.001Z</time></trkpt><trkpt lat="46.11964026614955" lon="11.788834242004398"><ele>1351.0</ele><time>2026-05-02T12:34:56.001Z</time></trkpt><trkpt lat="46.119701701238384" lon="11.788942613220165"><ele>1351.0</ele><time>2026-05-02T12:34:57.001Z</time></trkpt><trkpt lat="46.11976449035593" lon="11.789028500852732"><ele>1351.0</ele><time>2026-05-02T12:34:58.001Z</time></trkpt><trkpt lat="46.11981984591035" lon="11.789106137140347"><ele>1351.0</ele><time>2026-05-02T12:34:59.001Z</time></trkpt><trkpt lat="46.1198795174704" lon="11.789192699770572"><ele>1351.0</ele><time>2026-05-02T12:35:00.001Z</time></trkpt><trkpt lat="46.1199353148938" lon="11.789277051148575"><ele>1351.0</ele><time>2026-05-02T12:35:01.001Z</time></trkpt><trkpt lat="46.11999482669224" lon="11.789340128355887"><ele>1351.0</ele><time>2026-05-02T12:35:02.001Z</time></trkpt><trkpt lat="46.1200424911981" lon="11.789441189383098"><ele>1351.0</ele><time>2026-05-02T12:35:03.001Z</time></trkpt><trkpt lat="46.12009564729173" lon="11.789543105830015"><ele>1351.0</ele><time>2026-05-02T12:35:04.001Z</time></trkpt><trkpt lat="46.12013815482321" lon="11.78964206552813"><ele>1351.0</ele><time>2026-05-02T12:35:05.001Z</time></trkpt><trkpt lat="46.12018340370833" lon="11.78975508689057"><ele>1351.0</ele><time>2026-05-02T12:35:06.001Z</time></trkpt><trkpt lat="46.12023431686443" lon="11.789860127927556"><ele>1351.0</ele><time>2026-05-02T12:35:07.001Z</time></trkpt><trkpt lat="46.12027171249047" lon="11.789965783295962"><ele>1351.0</ele><time>2026-05-02T12:35:08.001Z</time></trkpt><trkpt lat="46.12033249229525" lon="11.790057306913067"><ele>1351.0</ele><time>2026-05-02T12:35:09.001Z</time></trkpt><trkpt lat="46.12039921951618" lon="11.790140101225575"><ele>1351.0</ele><time>2026-05-02T12:35:10.001Z</time></trkpt><trkpt lat="46.12046802018125" lon="11.790207794803997"><ele>1351.0</ele><time>2026-05-02T12:35:11.001Z</time></trkpt><trkpt lat="46.120539793359946" lon="11.790264964539885"><ele>1351.0</ele><time>2026-05-02T12:35:12.001Z</time></trkpt><trkpt lat="46.12060328756244" lon="11.790347186850317"><ele>1351.0</ele><time>2026-05-02T12:35:13.001Z</time></trkpt><trkpt lat="46.12067535305163" lon="11.790416242951327"><ele>1351.0</ele><time>2026-05-02T12:35:14.001Z</time></trkpt><trkpt lat="46.12074985561731" lon="11.790492389959018"><ele>1350.0</ele><time>2026-05-02T12:35:15.001Z</time></trkpt><trkpt lat="46.120828611954835" lon="11.790560582206565"><ele>1349.0</ele><time>2026-05-02T12:35:16.001Z</time></trkpt><trkpt lat="46.12089591744325" lon="11.79064883599176"><ele>1348.0</ele><time>2026-05-02T12:35:17.001Z</time></trkpt><trkpt lat="46.1209522586859" lon="11.790745653919268"><ele>1347.0</ele><time>2026-05-02T12:35:18.001Z</time></trkpt><trkpt lat="46.12099724851629" lon="11.790858727854618"><ele>1346.0</ele><time>2026-05-02T12:35:19.001Z</time></trkpt><trkpt lat="46.12103473499445" lon="11.790970673834465"><ele>1345.0</ele><time>2026-05-02T12:35:20.001Z</time></trkpt><trkpt lat="46.12107014137928" lon="11.791076384094762"><ele>1348.3333333333333</ele><time>2026-05-02T12:35:21.001Z</time></trkpt><trkpt lat="46.12110032698424" lon="11.79119216204452"><ele>1351.6666666666665</ele><time>2026-05-02T12:35:22.001Z</time></trkpt><trkpt lat="46.121129039578555" lon="11.791302613804225"><ele>1355.0</ele><time>2026-05-02T12:35:23.001Z</time></trkpt><trkpt lat="46.121153555732704" lon="11.791415904897464"><ele>1358.3333333333333</ele><time>2026-05-02T12:35:24.001Z</time></trkpt><trkpt lat="46.121173841100855" lon="11.791538921070652"><ele>1361.6666666666667</ele><time>2026-05-02T12:35:25.001Z</time></trkpt><trkpt lat="46.12118567453225" lon="11.791664922727573"><ele>1365.0</ele><time>2026-05-02T12:35:26.001Z</time></trkpt><trkpt lat="46.12118825724831" lon="11.791799344003605"><ele>1366.4</ele><time>2026-05-02T12:35:27.001Z</time></trkpt><trkpt lat="46.12120243751615" lon="11.79192264775603"><ele>1367.8</ele><time>2026-05-02T12:35:28.001Z</time></trkpt><trkpt lat="46.121223704609896" lon="11.792058022925204"><ele>1369.1999999999998</ele><time>2026-05-02T12:35:29.001Z</time></trkpt><trkpt lat="46.121229900868485" lon="11.79219820424176"><ele>1370.6</ele><time>2026-05-02T12:35:30.001Z</time></trkpt><trkpt lat="46.121239047321964" lon="11.792347086887306"><ele>1372.0</ele><time>2026-05-02T12:35:31.001Z</time></trkpt><trkpt lat="46.121244427166246" lon="11.792481509521968"><ele>1372.0</ele><time>2026-05-02T12:35:32.001Z</time></trkpt><trkpt lat="46.121227415238" lon="11.792613731117793"><ele>1372.0</ele><time>2026-05-02T12:35:33Z</time></trkpt><trkpt lat="46.121223766041595" lon="11.792749951600785"><ele>1372.0</ele><time>2026-05-02T12:35:34Z</time></trkpt><trkpt lat="46.121217598433056" lon="11.79289100941938"><ele>1372.0</ele><time>2026-05-02T12:35:35Z</time></trkpt><trkpt lat="46.12121095753846" lon="11.793031678407136"><ele>1372.0</ele><time>2026-05-02T12:35:36Z</time></trkpt><trkpt lat="46.12120424431365" lon="11.793173879396829"><ele>1370.6666666666665</ele><time>2026-05-02T12:35:37Z</time></trkpt><trkpt lat="46.12120827287073" lon="11.793307537933586"><ele>1369.3333333333333</ele><time>2026-05-02T12:35:38Z</time></trkpt><trkpt lat="46.1211985297579" lon="11.793433523520177"><ele>1368.0</ele><time>2026-05-02T12:35:39Z</time></trkpt><trkpt lat="46.121196914770586" lon="11.793553996257504"><ele>1366.6666666666667</ele><time>2026-05-02T12:35:40Z</time></trkpt><trkpt lat="46.12118653949831" lon="11.793655314152272"><ele>1365.3333333333335</ele><time>2026-05-02T12:35:41Z</time></trkpt><trkpt lat="46.12118144385813" lon="11.793747338495749"><ele>1364.0</ele><time>2026-05-02T12:35:42Z</time></trkpt><trkpt lat="46.121171401730415" lon="11.79388576742685"><ele>1362.8333333333335</ele><time>2026-05-02T12:35:44Z</time></trkpt><trkpt lat="46.12116439623992" lon="11.794028057848134"><ele>1361.6666666666667</ele><time>2026-05-02T12:35:46Z</time></trkpt><trkpt lat="46.12119615460549" lon="11.794109641128351"><ele>1360.5</ele><time>2026-05-02T12:35:47Z</time></trkpt><trkpt lat="46.12124477209195" lon="11.794168601306614"><ele>1359.3333333333333</ele><time>2026-05-02T12:35:48Z</time></trkpt><trkpt lat="46.12128984003209" lon="11.794287646485838"><ele>1358.1666666666665</ele><time>2026-05-02T12:35:50Z</time></trkpt><trkpt lat="46.12131178216594" lon="11.794399775062601"><ele>1357.0</ele><time>2026-05-02T12:35:52Z</time></trkpt><trkpt lat="46.121333013666806" lon="11.794516284971218"><ele>1355.3333333333333</ele><time>2026-05-02T12:35:54Z</time></trkpt><trkpt lat="46.121335478811766" lon="11.794629180484955"><ele>1353.6666666666665</ele><time>2026-05-02T12:35:56Z</time></trkpt><trkpt lat="46.12134572934543" lon="11.794720948126276"><ele>1352.0</ele><time>2026-05-02T12:35:58Z</time></trkpt><trkpt lat="46.121364328278375" lon="11.794817070537967"><ele>1350.3333333333333</ele><time>2026-05-02T12:36:00Z</time></trkpt><trkpt lat="46.12137947270938" lon="11.794933221484001"><ele>1348.6666666666667</ele><time>2026-05-02T12:36:02Z</time></trkpt><trkpt lat="46.12140011046649" lon="11.795062149037088"><ele>1347.0</ele><time>2026-05-02T12:36:05Z</time></trkpt><trkpt lat="46.121403994572745" lon="11.795179392631104"><ele>1343.1999999999998</ele><time>2026-05-02T12:36:08Z</time></trkpt><trkpt lat="46.12136784330965" lon="11.79532081474285"><ele>1339.4</ele><time>2026-05-02T12:36:11Z</time></trkpt><trkpt lat="46.121387944623194" lon="11.795447654974545"><ele>1335.6</ele><time>2026-05-02T12:36:13Z</time></trkpt><trkpt lat="46.121398128514436" lon="11.795584993502045"><ele>1331.8000000000002</ele><time>2026-05-02T12:36:15Z</time></trkpt><trkpt lat="46.12140186981606" lon="11.795743720549714"><ele>1328.0</ele><time>2026-05-02T12:36:17Z</time></trkpt><trkpt lat="46.12141267002765" lon="11.795914946210116"><ele>1326.1666666666667</ele><time>2026-05-02T12:36:19Z</time></trkpt><trkpt lat="46.12141138431674" lon="11.79608572447006"><ele>1324.3333333333335</ele><time>2026-05-02T12:36:21Z</time></trkpt><trkpt lat="46.12140601791426" lon="11.79618051183449"><ele>1322.5</ele><time>2026-05-02T12:36:22Z</time></trkpt><trkpt lat="46.1214025205621" lon="11.796286930430968"><ele>1320.6666666666667</ele><time>2026-05-02T12:36:23Z</time></trkpt><trkpt lat="46.1214005541468" lon="11.796390006879834"><ele>1318.8333333333333</ele><time>2026-05-02T12:36:24Z</time></trkpt><trkpt lat="46.12139894031573" lon="11.796487188336192"><ele>1317.0</ele><time>2026-05-02T12:36:25Z</time></trkpt><trkpt lat="46.12139846091312" lon="11.7965828067069"><ele>1317.0</ele><time>2026-05-02T12:36:26Z</time></trkpt><trkpt lat="46.121402514107174" lon="11.796731433105522"><ele>1317.0</ele><time>2026-05-02T12:36:28Z</time></trkpt><trkpt lat="46.12142506665792" lon="11.79687271023817"><ele>1317.0</ele><time>2026-05-02T12:36:30Z</time></trkpt><trkpt lat="46.121453097575824" lon="11.79703513893092"><ele>1317.0</ele><time>2026-05-02T12:36:32Z</time></trkpt><trkpt lat="46.1214801247838" lon="11.797134920712912"><ele>1317.0</ele><time>2026-05-02T12:36:33Z</time></trkpt><trkpt lat="46.1215078620566" lon="11.797237271540846"><ele>1317.0</ele><time>2026-05-02T12:36:34Z</time></trkpt><trkpt lat="46.12153219098389" lon="11.797335101053827"><ele>1317.0</ele><time>2026-05-02T12:36:35Z</time></trkpt><trkpt lat="46.121549545304084" lon="11.797424263875644"><ele>1317.0</ele><time>2026-05-02T12:36:36Z</time></trkpt><trkpt lat="46.12158255343087" lon="11.797578806642075"><ele>1317.0</ele><time>2026-05-02T12:36:38Z</time></trkpt><trkpt lat="46.12161495892874" lon="11.797712209998815"><ele>1317.0</ele><time>2026-05-02T12:36:40Z</time></trkpt><trkpt lat="46.12167337279194" lon="11.797876322088722"><ele>1315.0</ele><time>2026-05-02T12:36:42Z</time></trkpt><trkpt lat="46.12171700703794" lon="11.797968763604374"><ele>1313.0</ele><time>2026-05-02T12:36:43.001Z</time></trkpt><trkpt lat="46.121756888046114" lon="11.798063066967215"><ele>1311.0</ele><time>2026-05-02T12:36:44.001Z</time></trkpt><trkpt lat="46.12182110519252" lon="11.798217785718721"><ele>1309.0</ele><time>2026-05-02T12:36:46.001Z</time></trkpt><trkpt lat="46.12189665589057" lon="11.798351405109456"><ele>1307.0</ele><time>2026-05-02T12:36:48.001Z</time></trkpt><trkpt lat="46.121985721174084" lon="11.79847781134696"><ele>1307.8333333333335</ele><time>2026-05-02T12:36:50.001Z</time></trkpt><trkpt lat="46.122039472911304" lon="11.798537595841067"><ele>1308.6666666666667</ele><time>2026-05-02T12:36:51.001Z</time></trkpt><trkpt lat="46.12208743719619" lon="11.798597574087928"><ele>1309.5</ele><time>2026-05-02T12:36:52.001Z</time></trkpt><trkpt lat="46.12217748733196" lon="11.798709973665165"><ele>1310.3333333333333</ele><time>2026-05-02T12:36:54.001Z</time></trkpt><trkpt lat="46.12225462992112" lon="11.798808565827724"><ele>1311.1666666666665</ele><time>2026-05-02T12:36:56.001Z</time></trkpt><trkpt lat="46.122319775932695" lon="11.798855509819848"><ele>1312.0</ele><time>2026-05-02T12:36:58.001Z</time></trkpt><trkpt lat="46.12240259673316" lon="11.79890948129433"><ele>1312.8333333333333</ele><time>2026-05-02T12:37:01.001Z</time></trkpt><trkpt lat="46.12247634558106" lon="11.798957542719066"><ele>1313.6666666666665</ele><time>2026-05-02T12:37:03.001Z</time></trkpt><trkpt lat="46.12256503496826" lon="11.798987298921983"><ele>1314.5</ele><time>2026-05-02T12:37:05.001Z</time></trkpt><trkpt lat="46.12262449297143" lon="11.799035328374316"><ele>1315.3333333333333</ele><time>2026-05-02T12:37:07.001Z</time></trkpt><trkpt lat="46.12269393729018" lon="11.79907619706289"><ele>1316.1666666666667</ele><time>2026-05-02T12:37:09.001Z</time></trkpt><trkpt lat="46.122774345974534" lon="11.799129019255885"><ele>1317.0</ele><time>2026-05-02T12:37:11.001Z</time></trkpt><trkpt lat="46.122846275330815" lon="11.799181042580718"><ele>1317.0</ele><time>2026-05-02T12:37:13.001Z</time></trkpt><trkpt lat="46.122924555911254" lon="11.79922275771992"><ele>1317.0</ele><time>2026-05-02T12:37:15.001Z</time></trkpt><trkpt lat="46.12299414738277" lon="11.799292651687177"><ele>1317.0</ele><time>2026-05-02T12:37:17.001Z</time></trkpt><trkpt lat="46.12306450741767" lon="11.799383121874712"><ele>1317.0</ele><time>2026-05-02T12:37:19.001Z</time></trkpt><trkpt lat="46.1231081692793" lon="11.799486466636445"><ele>1317.0</ele><time>2026-05-02T12:37:21.001Z</time></trkpt><trkpt lat="46.123121613091115" lon="11.79958835723927"><ele>1317.0</ele><time>2026-05-02T12:37:23.001Z</time></trkpt><trkpt lat="46.12314609019802" lon="11.799725372063987"><ele>1315.8333333333333</ele><time>2026-05-02T12:37:25.001Z</time></trkpt><trkpt lat="46.12316793990082" lon="11.799833331087319"><ele>1314.6666666666667</ele><time>2026-05-02T12:37:26.001Z</time></trkpt><trkpt lat="46.12318107664483" lon="11.799941825276932"><ele>1313.5</ele><time>2026-05-02T12:37:27.001Z</time></trkpt><trkpt lat="46.12319700409772" lon="11.800039005732009"><ele>1312.3333333333335</ele><time>2026-05-02T12:37:28.001Z</time></trkpt><trkpt lat="46.12322599800923" lon="11.800215853690299"><ele>1311.1666666666667</ele><time>2026-05-02T12:37:30.001Z</time></trkpt><trkpt lat="46.12323394973766" lon="11.800307865734965"><ele>1310.0</ele><time>2026-05-02T12:37:31.001Z</time></trkpt><trkpt lat="46.12322629303212" lon="11.800478092414272"><ele>1308.0</ele><time>2026-05-02T12:37:33.001Z</time></trkpt><trkpt lat="46.123197192513146" lon="11.800641315662052"><ele>1306.0</ele><time>2026-05-02T12:37:35.001Z</time></trkpt><trkpt lat="46.123213077507465" lon="11.800818266663327"><ele>1304.0</ele><time>2026-05-02T12:37:37.001Z</time></trkpt><trkpt lat="46.12324979069391" lon="11.800978708576903"><ele>1302.0</ele><time>2026-05-02T12:37:39Z</time></trkpt><trkpt lat="46.1232257518724" lon="11.801104093825419"><ele>1300.0</ele><time>2026-05-02T12:37:41Z</time></trkpt><trkpt lat="46.12314584835332" lon="11.801208770141209"><ele>1298.3333333333333</ele><time>2026-05-02T12:37:43Z</time></trkpt><trkpt lat="46.12309199416464" lon="11.80126155344534"><ele>1296.6666666666665</ele><time>2026-05-02T12:37:44Z</time></trkpt><trkpt lat="46.12302310577274" lon="11.80130643506424"><ele>1295.0</ele><time>2026-05-02T12:37:45Z</time></trkpt><trkpt lat="46.12294749721072" lon="11.80135013709516"><ele>1293.3333333333333</ele><time>2026-05-02T12:37:46Z</time></trkpt><trkpt lat="46.122863948905625" lon="11.801382194567541"><ele>1291.6666666666667</ele><time>2026-05-02T12:37:47Z</time></trkpt><trkpt lat="46.12277229760251" lon="11.80139704687104"><ele>1290.0</ele><time>2026-05-02T12:37:48Z</time></trkpt><trkpt lat="46.122678154000596" lon="11.801405033396296"><ele>1290.0</ele><time>2026-05-02T12:37:49Z</time></trkpt><trkpt lat="46.122589201351765" lon="11.801430342427773"><ele>1290.0</ele><time>2026-05-02T12:37:50Z</time></trkpt><trkpt lat="46.12249718120819" lon="11.801484069478326"><ele>1290.0</ele><time>2026-05-02T12:37:51Z</time></trkpt><trkpt lat="46.122404890790605" lon="11.801537151638565"><ele>1290.0</ele><time>2026-05-02T12:37:52Z</time></trkpt><trkpt lat="46.12230859073263" lon="11.80158900099304"><ele>1290.0</ele><time>2026-05-02T12:37:53Z</time></trkpt><trkpt lat="46.122210044538626" lon="11.801643014177966"><ele>1290.8</ele><time>2026-05-02T12:37:54Z</time></trkpt><trkpt lat="46.12211938708254" lon="11.801704059790893"><ele>1291.6</ele><time>2026-05-02T12:37:55Z</time></trkpt><trkpt lat="46.122031291487026" lon="11.801762249993821"><ele>1292.4</ele><time>2026-05-02T12:37:56Z</time></trkpt><trkpt lat="46.121943608540214" lon="11.801818243138714"><ele>1293.2</ele><time>2026-05-02T12:37:57Z</time></trkpt><trkpt lat="46.12185682684122" lon="11.80186862664897"><ele>1294.0</ele><time>2026-05-02T12:37:58Z</time></trkpt><trkpt lat="46.12177348972902" lon="11.801918057412687"><ele>1294.0</ele><time>2026-05-02T12:37:59Z</time></trkpt><trkpt lat="46.12168290772989" lon="11.801959850640507"><ele>1294.0</ele><time>2026-05-02T12:38:00Z</time></trkpt><trkpt lat="46.12160052363126" lon="11.802013533695922"><ele>1294.0</ele><time>2026-05-02T12:38:01Z</time></trkpt><trkpt lat="46.121525596100426" lon="11.802080444267357"><ele>1294.0</ele><time>2026-05-02T12:38:02Z</time></trkpt><trkpt lat="46.12145388907886" lon="11.802174569320183"><ele>1294.0</ele><time>2026-05-02T12:38:03Z</time></trkpt><trkpt lat="46.121377845630654" lon="11.802294505359411"><ele>1297.25</ele><time>2026-05-02T12:38:04Z</time></trkpt><trkpt lat="46.1212984473159" lon="11.802421963883607"><ele>1300.5</ele><time>2026-05-02T12:38:05Z</time></trkpt><trkpt lat="46.12121379548404" lon="11.802541063901103"><ele>1303.75</ele><time>2026-05-02T12:38:06Z</time></trkpt><trkpt lat="46.12113429791208" lon="11.80265579052978"><ele>1307.0</ele><time>2026-05-02T12:38:07Z</time></trkpt><trkpt lat="46.121065908959025" lon="11.80276714134317"><ele>1307.0</ele><time>2026-05-02T12:38:08Z</time></trkpt><trkpt lat="46.12100029320362" lon="11.802869419597462"><ele>1307.0</ele><time>2026-05-02T12:38:09Z</time></trkpt><trkpt lat="46.12095011738454" lon="11.802972283461061"><ele>1307.0</ele><time>2026-05-02T12:38:10Z</time></trkpt><trkpt lat="46.120898733107126" lon="11.803070924203897"><ele>1307.0</ele><time>2026-05-02T12:38:11Z</time></trkpt><trkpt lat="46.120848701059764" lon="11.803158991870045"><ele>1307.0</ele><time>2026-05-02T12:38:12Z</time></trkpt><trkpt lat="46.12080817819753" lon="11.803238351919822"><ele>1307.0</ele><time>2026-05-02T12:38:13Z</time></trkpt><trkpt lat="46.12076138195419" lon="11.80336616958855"><ele>1307.0</ele><time>2026-05-02T12:38:15Z</time></trkpt><trkpt lat="46.12080065464599" lon="11.803470324731398"><ele>1307.0</ele><time>2026-05-02T12:38:17Z</time></trkpt><trkpt lat="46.120891745016635" lon="11.80351069489307"><ele>1307.0</ele><time>2026-05-02T12:38:19Z</time></trkpt><trkpt lat="46.1209913565467" lon="11.803486180769227"><ele>1307.0</ele><time>2026-05-02T12:38:21Z</time></trkpt><trkpt lat="46.1211005610027" lon="11.80345082937388"><ele>1307.0</ele><time>2026-05-02T12:38:23Z</time></trkpt><trkpt lat="46.12120609436213" lon="11.803447927269438"><ele>1307.0</ele><time>2026-05-02T12:38:25Z</time></trkpt><trkpt lat="46.12132429049571" lon="11.803435723945686"><ele>1307.0</ele><time>2026-05-02T12:38:27Z</time></trkpt><trkpt lat="46.12143823791057" lon="11.803437079787665"><ele>1307.0</ele><time>2026-05-02T12:38:29Z</time></trkpt><trkpt lat="46.12150631307309" lon="11.803447164474479"><ele>1307.0</ele><time>2026-05-02T12:38:30Z</time></trkpt><trkpt lat="46.121569042567906" lon="11.803462511913851"><ele>1307.0</ele><time>2026-05-02T12:38:31Z</time></trkpt><trkpt lat="46.12164101119842" lon="11.803484529124056"><ele>1307.0</ele><time>2026-05-02T12:38:32Z</time></trkpt><trkpt lat="46.121719073860135" lon="11.803511096848721"><ele>1311.3333333333335</ele><time>2026-05-02T12:38:33Z</time></trkpt><trkpt lat="46.12179354960607" lon="11.803538110859108"><ele>1315.6666666666667</ele><time>2026-05-02T12:38:34Z</time></trkpt><trkpt lat="46.12185474543606" lon="11.803562571744553"><ele>1320.0</ele><time>2026-05-02T12:38:35Z</time></trkpt><trkpt lat="46.12192655024028" lon="11.80357701071226"><ele>1324.3333333333333</ele><time>2026-05-02T12:38:36Z</time></trkpt><trkpt lat="46.121996075546654" lon="11.80361380187777"><ele>1328.6666666666665</ele><time>2026-05-02T12:38:37Z</time></trkpt><trkpt lat="46.12207940613852" lon="11.803712938186143"><ele>1333.0</ele><time>2026-05-02T12:38:39Z</time></trkpt><trkpt lat="46.12212583583366" lon="11.80377464018655"><ele>1333.0</ele><time>2026-05-02T12:38:40Z</time></trkpt><trkpt lat="46.122141129762085" lon="11.803923322746282"><ele>1333.0</ele><time>2026-05-02T12:38:42Z</time></trkpt><trkpt lat="46.12210600905104" lon="11.80407146161184"><ele>1333.0</ele><time>2026-05-02T12:38:44Z</time></trkpt><trkpt lat="46.1220814109427" lon="11.804168289012035"><ele>1333.0</ele><time>2026-05-02T12:38:45Z</time></trkpt><trkpt lat="46.12205519649601" lon="11.80428327716534"><ele>1333.0</ele><time>2026-05-02T12:38:46Z</time></trkpt><trkpt lat="46.122017808345625" lon="11.804400072259822"><ele>1333.8333333333333</ele><time>2026-05-02T12:38:47Z</time></trkpt><trkpt lat="46.12198087339572" lon="11.804510614350399"><ele>1334.6666666666665</ele><time>2026-05-02T12:38:48Z</time></trkpt><trkpt lat="46.1219469315898" lon="11.804627641021565"><ele>1335.5</ele><time>2026-05-02T12:38:49Z</time></trkpt><trkpt lat="46.12191368508739" lon="11.80473542027683"><ele>1336.3333333333333</ele><time>2026-05-02T12:38:50Z</time></trkpt><trkpt lat="46.121888802368666" lon="11.804840041084237"><ele>1337.1666666666667</ele><time>2026-05-02T12:38:51Z</time></trkpt><trkpt lat="46.12188148535123" lon="11.804965994222878"><ele>1338.0</ele><time>2026-05-02T12:38:52.001Z</time></trkpt><trkpt lat="46.12189525478856" lon="11.80507797992458"><ele>1339.5</ele><time>2026-05-02T12:38:53.001Z</time></trkpt><trkpt lat="46.12190116681703" lon="11.805186102763491"><ele>1341.0</ele><time>2026-05-02T12:38:54.001Z</time></trkpt><trkpt lat="46.12190364869894" lon="11.805308725203227"><ele>1342.5</ele><time>2026-05-02T12:38:55.001Z</time></trkpt><trkpt lat="46.12190549139457" lon="11.805404887908342"><ele>1344.0</ele><time>2026-05-02T12:38:56.001Z</time></trkpt><trkpt lat="46.121908440563324" lon="11.805502785892575"><ele>1345.5</ele><time>2026-05-02T12:38:57.001Z</time></trkpt><trkpt lat="46.121941377707714" lon="11.805587161240673"><ele>1347.0</ele><time>2026-05-02T12:38:58.001Z</time></trkpt><trkpt lat="46.122032648588444" lon="11.805688352788179"><ele>1347.0</ele><time>2026-05-02T12:39:00.001Z</time></trkpt><trkpt lat="46.1221683556193" lon="11.805712108654467"><ele>1347.0</ele><time>2026-05-02T12:39:02.001Z</time></trkpt><trkpt lat="46.12223853740588" lon="11.805703442325596"><ele>1347.0</ele><time>2026-05-02T12:39:03.001Z</time></trkpt><trkpt lat="46.12232688868097" lon="11.805682969182891"><ele>1347.0</ele><time>2026-05-02T12:39:04.001Z</time></trkpt><trkpt lat="46.1224223599621" lon="11.805650518985814"><ele>1347.0</ele><time>2026-05-02T12:39:05.001Z</time></trkpt><trkpt lat="46.12251460849407" lon="11.805620321349327"><ele>1344.0</ele><time>2026-05-02T12:39:06.001Z</time></trkpt><trkpt lat="46.122619766732946" lon="11.805602920040371"><ele>1341.0</ele><time>2026-05-02T12:39:08.001Z</time></trkpt><trkpt lat="46.12271677875054" lon="11.805652989785678"><ele>1338.0</ele><time>2026-05-02T12:39:10.001Z</time></trkpt><trkpt lat="46.12278719919695" lon="11.805755320009672"><ele>1335.0</ele><time>2026-05-02T12:39:12.001Z</time></trkpt><trkpt lat="46.12281144011201" lon="11.805898987426033"><ele>1332.0</ele><time>2026-05-02T12:39:14.001Z</time></trkpt><trkpt lat="46.1228115569374" lon="11.806082529607622"><ele>1336.857142857143</ele><time>2026-05-02T12:39:16.001Z</time></trkpt><trkpt lat="46.12281322850053" lon="11.80618516554355"><ele>1341.7142857142856</ele><time>2026-05-02T12:39:17.001Z</time></trkpt><trkpt lat="46.12282998625809" lon="11.806279500522875"><ele>1346.5714285714284</ele><time>2026-05-02T12:39:18.001Z</time></trkpt><trkpt lat="46.122867889225965" lon="11.806372561930981"><ele>1351.4285714285716</ele><time>2026-05-02T12:39:19.001Z</time></trkpt><trkpt lat="46.122913212553264" lon="11.806457753159474"><ele>1356.2857142857142</ele><time>2026-05-02T12:39:20.001Z</time></trkpt><trkpt lat="46.122968053563" lon="11.806524719504594"><ele>1361.142857142857</ele><time>2026-05-02T12:39:21.001Z</time></trkpt><trkpt lat="46.123040875683635" lon="11.806592711728175"><ele>1366.0</ele><time>2026-05-02T12:39:22.001Z</time></trkpt><trkpt lat="46.12310567538519" lon="11.806660564195697"><ele>1366.0</ele><time>2026-05-02T12:39:23.001Z</time></trkpt><trkpt lat="46.12319260173964" lon="11.806722078117767"><ele>1366.0</ele><time>2026-05-02T12:39:24.001Z</time></trkpt><trkpt lat="46.12328519688051" lon="11.806771166771858"><ele>1366.0</ele><time>2026-05-02T12:39:25.001Z</time></trkpt><trkpt lat="46.12336869944971" lon="11.806857674790276"><ele>1366.0</ele><time>2026-05-02T12:39:26.001Z</time></trkpt><trkpt lat="46.123434932683416" lon="11.80693628310877"><ele>1366.0</ele><time>2026-05-02T12:39:27.001Z</time></trkpt><trkpt lat="46.12348623123494" lon="11.807006451135495"><ele>1368.8333333333333</ele><time>2026-05-02T12:39:28.001Z</time></trkpt><trkpt lat="46.123530484444096" lon="11.807074477510364"><ele>1371.6666666666665</ele><time>2026-05-02T12:39:29.001Z</time></trkpt><trkpt lat="46.12358139584304" lon="11.807200142293476"><ele>1374.5</ele><time>2026-05-02T12:39:31.001Z</time></trkpt><trkpt lat="46.12361195940552" lon="11.807363746435705"><ele>1377.3333333333333</ele><time>2026-05-02T12:39:33.001Z</time></trkpt><trkpt lat="46.12362587476752" lon="11.80746575790035"><ele>1380.1666666666667</ele><time>2026-05-02T12:39:34.001Z</time></trkpt><trkpt lat="46.12366162370232" lon="11.807549647315126"><ele>1383.0</ele><time>2026-05-02T12:39:35.001Z</time></trkpt><trkpt lat="46.12371915322751" lon="11.80761738415416"><ele>1385.6000000000001</ele><time>2026-05-02T12:39:36.001Z</time></trkpt><trkpt lat="46.12379299155225" lon="11.807668738549735"><ele>1388.2</ele><time>2026-05-02T12:39:37.001Z</time></trkpt><trkpt lat="46.123885251517855" lon="11.807710594450208"><ele>1390.8</ele><time>2026-05-02T12:39:38.001Z</time></trkpt><trkpt lat="46.12399071935016" lon="11.807742003904073"><ele>1393.4</ele><time>2026-05-02T12:39:39.001Z</time></trkpt><trkpt lat="46.12409658146961" lon="11.807767794897547"><ele>1396.0</ele><time>2026-05-02T12:39:40.001Z</time></trkpt><trkpt lat="46.12418457739077" lon="11.807765432167665"><ele>1396.0</ele><time>2026-05-02T12:39:41.001Z</time></trkpt><trkpt lat="46.124268451352016" lon="11.80774666991636"><ele>1396.0</ele><time>2026-05-02T12:39:42.001Z</time></trkpt><trkpt lat="46.12434144232648" lon="11.807742655886319"><ele>1396.0</ele><time>2026-05-02T12:39:43.001Z</time></trkpt><trkpt lat="46.124410239074294" lon="11.807737524426287"><ele>1396.0</ele><time>2026-05-02T12:39:44.001Z</time></trkpt><trkpt lat="46.1245098380616" lon="11.80778509548517"><ele>1396.0</ele><time>2026-05-02T12:39:46Z</time></trkpt><trkpt lat="46.12457518602022" lon="11.807814835559729"><ele>1396.0</ele><time>2026-05-02T12:39:47Z</time></trkpt><trkpt lat="46.12463627267194" lon="11.807845762806865"><ele>1396.0</ele><time>2026-05-02T12:39:48Z</time></trkpt><trkpt lat="46.124705447815586" lon="11.807884371123818"><ele>1396.0</ele><time>2026-05-02T12:39:49Z</time></trkpt><trkpt lat="46.124782139689096" lon="11.807933081058824"><ele>1396.0</ele><time>2026-05-02T12:39:50Z</time></trkpt><trkpt lat="46.12486438613946" lon="11.807975505479847"><ele>1396.0</ele><time>2026-05-02T12:39:51Z</time></trkpt><trkpt lat="46.12492730990148" lon="11.808041452469668"><ele>1396.0</ele><time>2026-05-02T12:39:52Z</time></trkpt><trkpt lat="46.124974151336666" lon="11.808130884179318"><ele>1396.0</ele><time>2026-05-02T12:39:53Z</time></trkpt><trkpt lat="46.12501660104202" lon="11.808231115739998"><ele>1394.0</ele><time>2026-05-02T12:39:54Z</time></trkpt><trkpt lat="46.1250704256042" lon="11.808318408337502"><ele>1392.0</ele><time>2026-05-02T12:39:55Z</time></trkpt><trkpt lat="46.12513031086523" lon="11.808388261590917"><ele>1390.0</ele><time>2026-05-02T12:39:56Z</time></trkpt><trkpt lat="46.12525595700402" lon="11.80841766814455"><ele>1388.0</ele><time>2026-05-02T12:39:58Z</time></trkpt><trkpt lat="46.125322138292205" lon="11.808446230159907"><ele>1386.0</ele><time>2026-05-02T12:39:59Z</time></trkpt><trkpt lat="46.12539138344651" lon="11.808422533751369"><ele>1384.0</ele><time>2026-05-02T12:40:00Z</time></trkpt><trkpt lat="46.125499082676185" lon="11.808463207432222"><ele>1384.0</ele><time>2026-05-02T12:40:02Z</time></trkpt><trkpt lat="46.125564282220076" lon="11.80849745539795"><ele>1384.0</ele><time>2026-05-02T12:40:03Z</time></trkpt><trkpt lat="46.1256432187095" lon="11.808505230152639"><ele>1384.0</ele><time>2026-05-02T12:40:04Z</time></trkpt><trkpt lat="46.12571853146874" lon="11.808470677746127"><ele>1384.0</ele><time>2026-05-02T12:40:05Z</time></trkpt><trkpt lat="46.12578806166302" lon="11.808430035834094"><ele>1384.0</ele><time>2026-05-02T12:40:06Z</time></trkpt><trkpt lat="46.125856512279015" lon="11.808389452781553"><ele>1384.0</ele><time>2026-05-02T12:40:08Z</time></trkpt><trkpt lat="46.12591557549287" lon="11.808350386371439"><ele>1384.0</ele><time>2026-05-02T12:40:10Z</time></trkpt><trkpt lat="46.12601076109918" lon="11.808298310124915"><ele>1383.6666666666665</ele><time>2026-05-02T12:40:12Z</time></trkpt><trkpt lat="46.12610816512313" lon="11.808287038826984"><ele>1383.3333333333333</ele><time>2026-05-02T12:40:14Z</time></trkpt><trkpt lat="46.12617274561087" lon="11.808288386412451"><ele>1383.0</ele><time>2026-05-02T12:40:15Z</time></trkpt><trkpt lat="46.12623689035641" lon="11.808288369210281"><ele>1382.6666666666667</ele><time>2026-05-02T12:40:16Z</time></trkpt><trkpt lat="46.12631293366415" lon="11.808285568843456"><ele>1382.3333333333335</ele><time>2026-05-02T12:40:17Z</time></trkpt><trkpt lat="46.126405284126626" lon="11.808233403197786"><ele>1382.0</ele><time>2026-05-02T12:40:19Z</time></trkpt><trkpt lat="46.12647587778566" lon="11.80824431729473"><ele>1382.0</ele><time>2026-05-02T12:40:21Z</time></trkpt><trkpt lat="46.126521660041014" lon="11.808312875122336"><ele>1382.0</ele><time>2026-05-02T12:40:23Z</time></trkpt><trkpt lat="46.1265070434168" lon="11.808439601794682"><ele>1382.0</ele><time>2026-05-02T12:40:26Z</time></trkpt><trkpt lat="46.12649283652362" lon="11.808539078268057"><ele>1382.0</ele><time>2026-05-02T12:40:28Z</time></trkpt><trkpt lat="46.12647835112991" lon="11.808690907319814"><ele>1382.0</ele><time>2026-05-02T12:40:30Z</time></trkpt><trkpt lat="46.126462000808594" lon="11.808838474287425"><ele>1382.0</ele><time>2026-05-02T12:40:32Z</time></trkpt><trkpt lat="46.126446990936046" lon="11.808927106234382"><ele>1388.1999999999998</ele><time>2026-05-02T12:40:33Z</time></trkpt><trkpt lat="46.12642323962477" lon="11.809087676478143"><ele>1394.4</ele><time>2026-05-02T12:40:35Z</time></trkpt><trkpt lat="46.12639971488065" lon="11.809240564029063"><ele>1400.6</ele><time>2026-05-02T12:40:37Z</time></trkpt><trkpt lat="46.12639748650523" lon="11.809375578257395"><ele>1406.8000000000002</ele><time>2026-05-02T12:40:39Z</time></trkpt><trkpt lat="46.126443020013184" lon="11.809486374932938"><ele>1413.0</ele><time>2026-05-02T12:40:41Z</time></trkpt><trkpt lat="46.12648516657867" lon="11.809608357577853"><ele>1416.8000000000002</ele><time>2026-05-02T12:40:43Z</time></trkpt><trkpt lat="46.12655707199654" lon="11.809706313298792"><ele>1420.6</ele><time>2026-05-02T12:40:45Z</time></trkpt><trkpt lat="46.126599609425774" lon="11.809828831088451"><ele>1424.4</ele><time>2026-05-02T12:40:47Z</time></trkpt><trkpt lat="46.12659758113174" lon="11.809977643819167"><ele>1428.1999999999998</ele><time>2026-05-02T12:40:49Z</time></trkpt><trkpt lat="46.12660002826419" lon="11.810138783556033"><ele>1432.0</ele><time>2026-05-02T12:40:51Z</time></trkpt><trkpt lat="46.12661365216958" lon="11.810309028591501"><ele>1422.0</ele><time>2026-05-02T12:40:53Z</time></trkpt><trkpt lat="46.126644795065936" lon="11.810392524583936"><ele>1412.0</ele><time>2026-05-02T12:40:54Z</time></trkpt><trkpt lat="46.12670433041827" lon="11.81044551351337"><ele>1402.0</ele><time>2026-05-02T12:40:55Z</time></trkpt><trkpt lat="46.126758553476066" lon="11.810562697160428"><ele>1392.0</ele><time>2026-05-02T12:40:57Z</time></trkpt><trkpt lat="46.12678979487798" lon="11.810680221411179"><ele>1382.0</ele><time>2026-05-02T12:40:59.001Z</time></trkpt><trkpt lat="46.12677708149056" lon="11.810783906750297"><ele>1372.0</ele><time>2026-05-02T12:41:00.001Z</time></trkpt><trkpt lat="46.12676780655592" lon="11.81088352205991"><ele>1372.0</ele><time>2026-05-02T12:41:01.001Z</time></trkpt><trkpt lat="46.126751719714115" lon="11.810973671729556"><ele>1372.0</ele><time>2026-05-02T12:41:02.001Z</time></trkpt><trkpt lat="46.1267438329272" lon="11.81106589823689"><ele>1372.0</ele><time>2026-05-02T12:41:03.001Z</time></trkpt><trkpt lat="46.12671882456657" lon="11.81115043711823"><ele>1372.0</ele><time>2026-05-02T12:41:04.001Z</time></trkpt><trkpt lat="46.1266902675814" lon="11.811309929073639"><ele>1372.0</ele><time>2026-05-02T12:41:06.001Z</time></trkpt><trkpt lat="46.126665947412874" lon="11.811473594143635"><ele>1372.0</ele><time>2026-05-02T12:41:08.001Z</time></trkpt><trkpt lat="46.126651535761845" lon="11.811643770601881"><ele>1371.1666666666665</ele><time>2026-05-02T12:41:10.001Z</time></trkpt><trkpt lat="46.12668978825074" lon="11.811726702421524"><ele>1370.3333333333333</ele><time>2026-05-02T12:41:11.001Z</time></trkpt><trkpt lat="46.12674831092809" lon="11.811763812735727"><ele>1369.5</ele><time>2026-05-02T12:41:12.001Z</time></trkpt><trkpt lat="46.126834153084104" lon="11.811859714297782"><ele>1368.6666666666667</ele><time>2026-05-02T12:41:14.001Z</time></trkpt><trkpt lat="46.12693151683537" lon="11.811954659573532"><ele>1367.8333333333335</ele><time>2026-05-02T12:41:16.001Z</time></trkpt><trkpt lat="46.12700308982945" lon="11.812017442521196"><ele>1367.0</ele><time>2026-05-02T12:41:18.001Z</time></trkpt><trkpt lat="46.126983473098115" lon="11.812144891569783"><ele>1366.3333333333335</ele><time>2026-05-02T12:41:20.001Z</time></trkpt><trkpt lat="46.1269246551032" lon="11.812203839700155"><ele>1365.6666666666667</ele><time>2026-05-02T12:41:22.001Z</time></trkpt><trkpt lat="46.126854783336434" lon="11.812340805297781"><ele>1365.0</ele><time>2026-05-02T12:41:24.001Z</time></trkpt><trkpt lat="46.12680623612281" lon="11.812420321614127"><ele>1364.3333333333333</ele><time>2026-05-02T12:41:25.001Z</time></trkpt><trkpt lat="46.126761887647525" lon="11.812492960745459"><ele>1363.6666666666665</ele><time>2026-05-02T12:41:26.001Z</time></trkpt><trkpt lat="46.12671899391506" lon="11.812570811177626"><ele>1363.0</ele><time>2026-05-02T12:41:27.001Z</time></trkpt><trkpt lat="46.12668518939373" lon="11.812659869556787"><ele>1359.3333333333333</ele><time>2026-05-02T12:41:28.001Z</time></trkpt><trkpt lat="46.1266618061983" lon="11.812759001204627"><ele>1355.6666666666665</ele><time>2026-05-02T12:41:29.001Z</time></trkpt><trkpt lat="46.12665309221448" lon="11.812855478411935"><ele>1352.0</ele><time>2026-05-02T12:41:30.001Z</time></trkpt><trkpt lat="46.12665215988346" lon="11.812946962023691"><ele>1348.3333333333333</ele><time>2026-05-02T12:41:31.001Z</time></trkpt><trkpt lat="46.12665443955087" lon="11.813044488270151"><ele>1344.6666666666667</ele><time>2026-05-02T12:41:32.001Z</time></trkpt><trkpt lat="46.12666688799628" lon="11.813211643484893"><ele>1341.0</ele><time>2026-05-02T12:41:34.001Z</time></trkpt><trkpt lat="46.12669800332968" lon="11.813371533129242"><ele>1338.4</ele><time>2026-05-02T12:41:36.001Z</time></trkpt><trkpt lat="46.12676922608869" lon="11.813501935554763"><ele>1335.8</ele><time>2026-05-02T12:41:38.001Z</time></trkpt><trkpt lat="46.12678074322535" lon="11.813639259125075"><ele>1333.2</ele><time>2026-05-02T12:41:40.001Z</time></trkpt><trkpt lat="46.12677689958903" lon="11.81376432126266"><ele>1330.6000000000001</ele><time>2026-05-02T12:41:42.001Z</time></trkpt><trkpt lat="46.12673915628172" lon="11.813919035399115"><ele>1328.0</ele><time>2026-05-02T12:41:44.001Z</time></trkpt><trkpt lat="46.12670061056331" lon="11.813997821974342"><ele>1328.0</ele><time>2026-05-02T12:41:45.001Z</time></trkpt><trkpt lat="46.12666874546708" lon="11.814079956384152"><ele>1328.0</ele><time>2026-05-02T12:41:46.001Z</time></trkpt><trkpt lat="46.12661601850695" lon="11.814140004334687"><ele>1328.0</ele><time>2026-05-02T12:41:47.001Z</time></trkpt><trkpt lat="46.12653568083555" lon="11.814244007274135"><ele>1328.0</ele><time>2026-05-02T12:41:49.001Z</time></trkpt><trkpt lat="46.12643956197317" lon="11.8142449589752"><ele>1328.0</ele><time>2026-05-02T12:41:51Z</time></trkpt><trkpt lat="46.12636218460584" lon="11.814236659330351"><ele>1328.0</ele><time>2026-05-02T12:41:52Z</time></trkpt><trkpt lat="46.12629185099495" lon="11.81424582302691"><ele>1329.5</ele><time>2026-05-02T12:41:53Z</time></trkpt><trkpt lat="46.12622628218459" lon="11.81430498236015"><ele>1331.0</ele><time>2026-05-02T12:41:54Z</time></trkpt><trkpt lat="46.12617130427666" lon="11.814356460321893"><ele>1332.5</ele><time>2026-05-02T12:41:55Z</time></trkpt><trkpt lat="46.12612608808956" lon="11.814504563655847"><ele>1334.0</ele><time>2026-05-02T12:41:57Z</time></trkpt><trkpt lat="46.126179275149205" lon="11.81460172428342"><ele>1335.5</ele><time>2026-05-02T12:41:58Z</time></trkpt><trkpt lat="46.12621250638251" lon="11.814681853848244"><ele>1337.0</ele><time>2026-05-02T12:41:59Z</time></trkpt><trkpt lat="46.126253726084514" lon="11.814793797979181"><ele>1337.0</ele><time>2026-05-02T12:42:00Z</time></trkpt><trkpt lat="46.1262805004796" lon="11.814910910484922"><ele>1337.0</ele><time>2026-05-02T12:42:01Z</time></trkpt><trkpt lat="46.12629218284423" lon="11.815015358476305"><ele>1337.0</ele><time>2026-05-02T12:42:02Z</time></trkpt><trkpt lat="46.12629962165764" lon="11.815173839802087"><ele>1337.0</ele><time>2026-05-02T12:42:04Z</time></trkpt><trkpt lat="46.12623921818371" lon="11.815217396023334"><ele>1337.0</ele><time>2026-05-02T12:42:05Z</time></trkpt><trkpt lat="46.1261424787493" lon="11.81533085202037"><ele>1335.142857142857</ele><time>2026-05-02T12:42:07Z</time></trkpt><trkpt lat="46.1260842220006" lon="11.815371335886617"><ele>1333.2857142857142</ele><time>2026-05-02T12:42:08Z</time></trkpt><trkpt lat="46.12602977058012" lon="11.81542610333256"><ele>1331.4285714285716</ele><time>2026-05-02T12:42:09Z</time></trkpt><trkpt lat="46.1259587706881" lon="11.81545640546281"><ele>1329.5714285714284</ele><time>2026-05-02T12:42:10Z</time></trkpt><trkpt lat="46.1258953111583" lon="11.815494985969304"><ele>1327.7142857142858</ele><time>2026-05-02T12:42:11Z</time></trkpt><trkpt lat="46.12583486644976" lon="11.815532169393755"><ele>1325.857142857143</ele><time>2026-05-02T12:42:12Z</time></trkpt><trkpt lat="46.125777833984664" lon="11.815575179793857"><ele>1324.0</ele><time>2026-05-02T12:42:13Z</time></trkpt><trkpt lat="46.12572579848735" lon="11.815631065654712"><ele>1324.0</ele><time>2026-05-02T12:42:14Z</time></trkpt><trkpt lat="46.12569437374343" lon="11.815710990954393"><ele>1324.0</ele><time>2026-05-02T12:42:15Z</time></trkpt><trkpt lat="46.125655417733824" lon="11.815784471412762"><ele>1324.0</ele><time>2026-05-02T12:42:16Z</time></trkpt><trkpt lat="46.125601758651776" lon="11.815919083621544"><ele>1324.0</ele><time>2026-05-02T12:42:18Z</time></trkpt><trkpt lat="46.125503874539646" lon="11.815977136467254"><ele>1324.0</ele><time>2026-05-02T12:42:20Z</time></trkpt><trkpt lat="46.12543553383192" lon="11.81599565357327"><ele>1324.0</ele><time>2026-05-02T12:42:21Z</time></trkpt><trkpt lat="46.12536689781412" lon="11.816009843687375"><ele>1324.0</ele><time>2026-05-02T12:42:22Z</time></trkpt><trkpt lat="46.12524546520743" lon="11.816014069606732"><ele>1324.0</ele><time>2026-05-02T12:42:24Z</time></trkpt><trkpt lat="46.125184359398624" lon="11.815987149276785"><ele>1324.0</ele><time>2026-05-02T12:42:25Z</time></trkpt><trkpt lat="46.1251167930934" lon="11.815946595107063"><ele>1324.0</ele><time>2026-05-02T12:42:26Z</time></trkpt><trkpt lat="46.12503811647468" lon="11.815919221209555"><ele>1324.0</ele><time>2026-05-02T12:42:27Z</time></trkpt><trkpt lat="46.124966558166065" lon="11.815911904913525"><ele>1324.0</ele><time>2026-05-02T12:42:28Z</time></trkpt><trkpt lat="46.12490342203687" lon="11.815947450184796"><ele>1319.8000000000002</ele><time>2026-05-02T12:42:29Z</time></trkpt><trkpt lat="46.124813289141436" lon="11.816020298313285"><ele>1315.6000000000001</ele><time>2026-05-02T12:42:31Z</time></trkpt><trkpt lat="46.12471812475911" lon="11.816116119001224"><ele>1311.4</ele><time>2026-05-02T12:42:33Z</time></trkpt><trkpt lat="46.12463875561186" lon="11.816198554499547"><ele>1307.2</ele><time>2026-05-02T12:42:35Z</time></trkpt><trkpt lat="46.124554375723406" lon="11.816143757658592"><ele>1303.0</ele><time>2026-05-02T12:42:37Z</time></trkpt><trkpt lat="46.12447586534257" lon="11.816146987390049"><ele>1303.0</ele><time>2026-05-02T12:42:38Z</time></trkpt><trkpt lat="46.12439657089537" lon="11.816182860842638"><ele>1303.0</ele><time>2026-05-02T12:42:39Z</time></trkpt><trkpt lat="46.1243330431787" lon="11.816272860253592"><ele>1303.0</ele><time>2026-05-02T12:42:40Z</time></trkpt><trkpt lat="46.12429376937745" lon="11.81636800565539"><ele>1303.0</ele><time>2026-05-02T12:42:41Z</time></trkpt><trkpt lat="46.124286456780666" lon="11.81650427083346"><ele>1303.0</ele><time>2026-05-02T12:42:42Z</time></trkpt><trkpt lat="46.12430180494494" lon="11.816614668615118"><ele>1303.0</ele><time>2026-05-02T12:42:43Z</time></trkpt><trkpt lat="46.124266961240984" lon="11.816702302719177"><ele>1303.0</ele><time>2026-05-02T12:42:44Z</time></trkpt><trkpt lat="46.12417918391877" lon="11.816760040313246"><ele>1303.0</ele><time>2026-05-02T12:42:46Z</time></trkpt><trkpt lat="46.12410303716762" lon="11.8167693459127"><ele>1303.0</ele><time>2026-05-02T12:42:47Z</time></trkpt><trkpt lat="46.124017446949416" lon="11.816826867853468"><ele>1303.0</ele><time>2026-05-02T12:42:48Z</time></trkpt><trkpt lat="46.123964225832815" lon="11.816937690899081"><ele>1303.0</ele><time>2026-05-02T12:42:49Z</time></trkpt><trkpt lat="46.12389761934537" lon="11.817016590330168"><ele>1303.0</ele><time>2026-05-02T12:42:50Z</time></trkpt><trkpt lat="46.123834011584414" lon="11.817086907831788"><ele>1302.3333333333333</ele><time>2026-05-02T12:42:51Z</time></trkpt><trkpt lat="46.123761699889556" lon="11.817145294726473"><ele>1301.6666666666665</ele><time>2026-05-02T12:42:52Z</time></trkpt><trkpt lat="46.123688477458714" lon="11.817211316174271"><ele>1301.0</ele><time>2026-05-02T12:42:53Z</time></trkpt><trkpt lat="46.12361813343577" lon="11.817251316521478"><ele>1300.3333333333333</ele><time>2026-05-02T12:42:54Z</time></trkpt><trkpt lat="46.12354219404104" lon="11.81726183247001"><ele>1299.6666666666667</ele><time>2026-05-02T12:42:55Z</time></trkpt><trkpt lat="46.12347595510759" lon="11.817285058666517"><ele>1299.0</ele><time>2026-05-02T12:42:56Z</time></trkpt><trkpt lat="46.12341162440875" lon="11.817292835557678"><ele>1299.0</ele><time>2026-05-02T12:42:57Z</time></trkpt><trkpt lat="46.12330503490336" lon="11.817320047677772"><ele>1299.0</ele><time>2026-05-02T12:42:59.001Z</time></trkpt><trkpt lat="46.12321484970618" lon="11.817389123896227"><ele>1299.0</ele><time>2026-05-02T12:43:01.001Z</time></trkpt><trkpt lat="46.12314730561066" lon="11.817484884678445"><ele>1299.0</ele><time>2026-05-02T12:43:03.001Z</time></trkpt><trkpt lat="46.12313350525314" lon="11.817660116506216"><ele>1299.0</ele><time>2026-05-02T12:43:05.001Z</time></trkpt><trkpt lat="46.12316994689252" lon="11.817741210384868"><ele>1297.0</ele><time>2026-05-02T12:43:06.001Z</time></trkpt><trkpt lat="46.12321943195907" lon="11.817810076795725"><ele>1295.0</ele><time>2026-05-02T12:43:07.001Z</time></trkpt><trkpt lat="46.12326664402609" lon="11.817888192995671"><ele>1293.0</ele><time>2026-05-02T12:43:08.001Z</time></trkpt><trkpt lat="46.12331716272417" lon="11.817995291288533"><ele>1291.0</ele><time>2026-05-02T12:43:09.001Z</time></trkpt><trkpt lat="46.12335944364879" lon="11.818091005378957"><ele>1289.0</ele><time>2026-05-02T12:43:10.001Z</time></trkpt><trkpt lat="46.1234060765889" lon="11.818182000033813"><ele>1287.0</ele><time>2026-05-02T12:43:11.001Z</time></trkpt><trkpt lat="46.12345153694808" lon="11.8182582693548"><ele>1287.0</ele><time>2026-05-02T12:43:12.001Z</time></trkpt><trkpt lat="46.12349502272146" lon="11.81832583922879"><ele>1287.0</ele><time>2026-05-02T12:43:13.001Z</time></trkpt><trkpt lat="46.123557289646605" lon="11.818454656863018"><ele>1287.0</ele><time>2026-05-02T12:43:15.001Z</time></trkpt><trkpt lat="46.12359520104338" lon="11.81861793339591"><ele>1287.0</ele><time>2026-05-02T12:43:17.001Z</time></trkpt><trkpt lat="46.12357646667418" lon="11.818784557318402"><ele>1287.0</ele><time>2026-05-02T12:43:19.001Z</time></trkpt><trkpt lat="46.12352398977158" lon="11.818849784131535"><ele>1287.0</ele><time>2026-05-02T12:43:20.001Z</time></trkpt><trkpt lat="46.123461033685665" lon="11.818906029929554"><ele>1287.0</ele><time>2026-05-02T12:43:21.001Z</time></trkpt><trkpt lat="46.12339668858664" lon="11.81896324046226"><ele>1287.0</ele><time>2026-05-02T12:43:22.001Z</time></trkpt><trkpt lat="46.1233310829571" lon="11.819013088587335"><ele>1287.0</ele><time>2026-05-02T12:43:23.001Z</time></trkpt><trkpt lat="46.12325254002448" lon="11.819068240643205"><ele>1287.0</ele><time>2026-05-02T12:43:24.001Z</time></trkpt><trkpt lat="46.123179202680696" lon="11.819122394616379"><ele>1287.0</ele><time>2026-05-02T12:43:25.001Z</time></trkpt><trkpt lat="46.123108438079505" lon="11.819168178870681"><ele>1287.0</ele><time>2026-05-02T12:43:26.001Z</time></trkpt><trkpt lat="46.12303776122987" lon="11.819228188699999"><ele>1287.0</ele><time>2026-05-02T12:43:27.001Z</time></trkpt><trkpt lat="46.12294777068796" lon="11.819251919353265"><ele>1287.0</ele><time>2026-05-02T12:43:28.001Z</time></trkpt><trkpt lat="46.12286796971622" lon="11.819300815820817"><ele>1287.0</ele><time>2026-05-02T12:43:29.001Z</time></trkpt><trkpt lat="46.1227824823452" lon="11.819337531797416"><ele>1287.0</ele><time>2026-05-02T12:43:30.001Z</time></trkpt><trkpt lat="46.12270025925712" lon="11.819370475500252"><ele>1287.0</ele><time>2026-05-02T12:43:31.001Z</time></trkpt><trkpt lat="46.12261169159704" lon="11.81940749671457"><ele>1281.8333333333333</ele><time>2026-05-02T12:43:32.001Z</time></trkpt><trkpt lat="46.12251619165209" lon="11.819419990115794"><ele>1276.6666666666667</ele><time>2026-05-02T12:43:33.001Z</time></trkpt><trkpt lat="46.12243861485536" lon="11.819446960395142"><ele>1271.5</ele><time>2026-05-02T12:43:34.001Z</time></trkpt><trkpt lat="46.1223674014596" lon="11.819496237798765"><ele>1266.3333333333335</ele><time>2026-05-02T12:43:35.001Z</time></trkpt><trkpt lat="46.122293009851816" lon="11.819508208078572"><ele>1261.1666666666667</ele><time>2026-05-02T12:43:36.001Z</time></trkpt><trkpt lat="46.12221929527649" lon="11.819530590420785"><ele>1256.0</ele><time>2026-05-02T12:43:37.001Z</time></trkpt><trkpt lat="46.12215147422565" lon="11.81956890414998"><ele>1256.0</ele><time>2026-05-02T12:43:38.001Z</time></trkpt><trkpt lat="46.122089735925776" lon="11.819613900799494"><ele>1256.0</ele><time>2026-05-02T12:43:39.001Z</time></trkpt><trkpt lat="46.12202597924013" lon="11.819661727438769"><ele>1256.0</ele><time>2026-05-02T12:43:40.001Z</time></trkpt><trkpt lat="46.12196202639349" lon="11.819709419801324"><ele>1256.0</ele><time>2026-05-02T12:43:41.001Z</time></trkpt><trkpt lat="46.12188748588586" lon="11.819746636227988"><ele>1256.0</ele><time>2026-05-02T12:43:42.001Z</time></trkpt><trkpt lat="46.12179952445242" lon="11.819774630342442"><ele>1256.0</ele><time>2026-05-02T12:43:43.001Z</time></trkpt><trkpt lat="46.12170706906558" lon="11.819808425285492"><ele>1256.0</ele><time>2026-05-02T12:43:44.001Z</time></trkpt><trkpt lat="46.121609157565764" lon="11.81987040323698"><ele>1256.0</ele><time>2026-05-02T12:43:45.001Z</time></trkpt><trkpt lat="46.12150837204773" lon="11.81989395958963"><ele>1256.0</ele><time>2026-05-02T12:43:46.001Z</time></trkpt><trkpt lat="46.121409136504624" lon="11.81994053734279"><ele>1256.0</ele><time>2026-05-02T12:43:47.001Z</time></trkpt><trkpt lat="46.12132356801875" lon="11.820006444697185"><ele>1256.0</ele><time>2026-05-02T12:43:48.001Z</time></trkpt><trkpt lat="46.12123347612083" lon="11.820041097806019"><ele>1257.3333333333335</ele><time>2026-05-02T12:43:49.001Z</time></trkpt><trkpt lat="46.121146236749595" lon="11.820097955700493"><ele>1258.6666666666667</ele><time>2026-05-02T12:43:50.001Z</time></trkpt><trkpt lat="46.12106847501133" lon="11.82012511215639"><ele>1260.0</ele><time>2026-05-02T12:43:51.001Z</time></trkpt><trkpt lat="46.12097794646727" lon="11.820163774146433"><ele>1261.3333333333333</ele><time>2026-05-02T12:43:52.001Z</time></trkpt><trkpt lat="46.120894905179675" lon="11.820193508732562"><ele>1262.6666666666665</ele><time>2026-05-02T12:43:53.001Z</time></trkpt><trkpt lat="46.12082213006152" lon="11.820252767409889"><ele>1264.0</ele><time>2026-05-02T12:43:54.001Z</time></trkpt><trkpt lat="46.1207492422187" lon="11.82029360380486"><ele>1259.3333333333333</ele><time>2026-05-02T12:43:55.001Z</time></trkpt><trkpt lat="46.12067284461826" lon="11.8203331759242"><ele>1254.6666666666665</ele><time>2026-05-02T12:43:56.001Z</time></trkpt><trkpt lat="46.12055101752903" lon="11.820389564206716"><ele>1250.0</ele><time>2026-05-02T12:43:58Z</time></trkpt><trkpt lat="46.12047844326197" lon="11.82041506318431"><ele>1245.3333333333333</ele><time>2026-05-02T12:43:59Z</time></trkpt><trkpt lat="46.12040369152062" lon="11.820420911550642"><ele>1240.6666666666667</ele><time>2026-05-02T12:44:00Z</time></trkpt><trkpt lat="46.12031607130799" lon="11.820419192774267"><ele>1236.0</ele><time>2026-05-02T12:44:01Z</time></trkpt><trkpt lat="46.12023409361552" lon="11.820426735814044"><ele>1236.0000000000002</ele><time>2026-05-02T12:44:02Z</time></trkpt><trkpt lat="46.120157861007165" lon="11.82042740365294"><ele>1236.0</ele><time>2026-05-02T12:44:03Z</time></trkpt><trkpt lat="46.120079997485966" lon="11.820431436633255"><ele>1236.0</ele><time>2026-05-02T12:44:04Z</time></trkpt><trkpt lat="46.120009042638515" lon="11.820441778057084"><ele>1236.0</ele><time>2026-05-02T12:44:05Z</time></trkpt><trkpt lat="46.11994151538245" lon="11.820460488349363"><ele>1236.0</ele><time>2026-05-02T12:44:06Z</time></trkpt><trkpt lat="46.11987334039605" lon="11.820497161896867"><ele>1236.0000000000002</ele><time>2026-05-02T12:44:07Z</time></trkpt><trkpt lat="46.11981192844228" lon="11.820547687030663"><ele>1236.0</ele><time>2026-05-02T12:44:08Z</time></trkpt><trkpt lat="46.119746068329434" lon="11.820597164963784"><ele>1236.3333333333333</ele><time>2026-05-02T12:44:09Z</time></trkpt><trkpt lat="46.119683294945816" lon="11.820626557818949"><ele>1236.6666666666667</ele><time>2026-05-02T12:44:10Z</time></trkpt><trkpt lat="46.11961836306032" lon="11.820655102455511"><ele>1237.0</ele><time>2026-05-02T12:44:11Z</time></trkpt><trkpt lat="46.11950133023258" lon="11.820704430015432"><ele>1237.3333333333335</ele><time>2026-05-02T12:44:13Z</time></trkpt><trkpt lat="46.119436285114425" lon="11.82072158174139"><ele>1237.6666666666667</ele><time>2026-05-02T12:44:14Z</time></trkpt><trkpt lat="46.119370625814774" lon="11.820741650051177"><ele>1238.0</ele><time>2026-05-02T12:44:15Z</time></trkpt><trkpt lat="46.11930265122288" lon="11.820760035410807"><ele>1238.0</ele><time>2026-05-02T12:44:16Z</time></trkpt><trkpt lat="46.119232992291764" lon="11.82076766247066"><ele>1238.0</ele><time>2026-05-02T12:44:17Z</time></trkpt><trkpt lat="46.11916174868274" lon="11.820784930200555"><ele>1238.0</ele><time>2026-05-02T12:44:18Z</time></trkpt><trkpt lat="46.119089059137714" lon="11.8207955339115"><ele>1238.0</ele><time>2026-05-02T12:44:19Z</time></trkpt><trkpt lat="46.11901881428463" lon="11.820779002437934"><ele>1238.0</ele><time>2026-05-02T12:44:20Z</time></trkpt><trkpt lat="46.11895300546482" lon="11.820740769329642"><ele>1238.0</ele><time>2026-05-02T12:44:21Z</time></trkpt><trkpt lat="46.11886398732216" lon="11.820717909992773"><ele>1238.0</ele><time>2026-05-02T12:44:22Z</time></trkpt><trkpt lat="46.118789459945006" lon="11.820712311885446"><ele>1236.7142857142858</ele><time>2026-05-02T12:44:23Z</time></trkpt><trkpt lat="46.118714395741634" lon="11.820718666438111"><ele>1235.4285714285716</ele><time>2026-05-02T12:44:24Z</time></trkpt><trkpt lat="46.118628206647074" lon="11.82075858834031"><ele>1234.1428571428573</ele><time>2026-05-02T12:44:25Z</time></trkpt><trkpt lat="46.118561844857304" lon="11.820795518095116"><ele>1232.857142857143</ele><time>2026-05-02T12:44:26Z</time></trkpt><trkpt lat="46.11850019943079" lon="11.820836628466845"><ele>1231.5714285714287</ele><time>2026-05-02T12:44:27Z</time></trkpt><trkpt lat="46.118438278135606" lon="11.820882296500482"><ele>1230.2857142857144</ele><time>2026-05-02T12:44:28Z</time></trkpt><trkpt lat="46.11837786125092" lon="11.820939192016052"><ele>1229.0</ele><time>2026-05-02T12:44:29Z</time></trkpt><trkpt lat="46.118328044559576" lon="11.821002968334442"><ele>1229.0</ele><time>2026-05-02T12:44:30Z</time></trkpt><trkpt lat="46.1182997381041" lon="11.821092119345204"><ele>1229.0</ele><time>2026-05-02T12:44:31Z</time></trkpt><trkpt lat="46.11831021349966" lon="11.821198354763123"><ele>1229.0</ele><time>2026-05-02T12:44:32Z</time></trkpt><trkpt lat="46.11836339984068" lon="11.821349654519272"><ele>1229.0</ele><time>2026-05-02T12:44:34Z</time></trkpt><trkpt lat="46.11840051997515" lon="11.821447510155396"><ele>1229.0</ele><time>2026-05-02T12:44:35Z</time></trkpt><trkpt lat="46.11845306418684" lon="11.821545038047875"><ele>1229.0</ele><time>2026-05-02T12:44:36Z</time></trkpt><trkpt lat="46.11852618643023" lon="11.82162143276801"><ele>1229.0</ele><time>2026-05-02T12:44:37Z</time></trkpt><trkpt lat="46.118587144037065" lon="11.821682247108637"><ele>1229.0</ele><time>2026-05-02T12:44:38Z</time></trkpt><trkpt lat="46.11865619743532" lon="11.821708802812719"><ele>1229.0</ele><time>2026-05-02T12:44:39Z</time></trkpt><trkpt lat="46.11872762994016" lon="11.821781138179887"><ele>1229.0</ele><time>2026-05-02T12:44:40Z</time></trkpt><trkpt lat="46.1188138037958" lon="11.82183509687773"><ele>1229.0</ele><time>2026-05-02T12:44:41Z</time></trkpt><trkpt lat="46.118887794595985" lon="11.82188121029629"><ele>1229.0</ele><time>2026-05-02T12:44:42Z</time></trkpt><trkpt lat="46.11896235311687" lon="11.821927800100012"><ele>1231.5</ele><time>2026-05-02T12:44:43Z</time></trkpt><trkpt lat="46.11904339505772" lon="11.821978554422852"><ele>1234.0</ele><time>2026-05-02T12:44:44Z</time></trkpt><trkpt lat="46.11911331771973" lon="11.822015879177522"><ele>1236.5</ele><time>2026-05-02T12:44:45Z</time></trkpt><trkpt lat="46.119193817125705" lon="11.822025597384227"><ele>1239.0</ele><time>2026-05-02T12:44:46Z</time></trkpt><trkpt lat="46.11924813173482" lon="11.822075946814838"><ele>1241.5</ele><time>2026-05-02T12:44:47Z</time></trkpt><trkpt lat="46.11934100135127" lon="11.822088683345926"><ele>1244.0</ele><time>2026-05-02T12:44:49Z</time></trkpt><trkpt lat="46.11942933030804" lon="11.821959895243685"><ele>1244.0</ele><time>2026-05-02T12:44:51Z</time></trkpt><trkpt lat="46.119480943271355" lon="11.82187064219419"><ele>1244.0</ele><time>2026-05-02T12:44:52Z</time></trkpt><trkpt lat="46.11952346391652" lon="11.821787889982785"><ele>1244.0</ele><time>2026-05-02T12:44:53Z</time></trkpt><trkpt lat="46.11959142129645" lon="11.821665819819223"><ele>1244.0</ele><time>2026-05-02T12:44:55Z</time></trkpt><trkpt lat="46.11966141324332" lon="11.821623497569306"><ele>1244.0</ele><time>2026-05-02T12:44:58.001Z</time></trkpt><trkpt lat="46.11978041756029" lon="11.82164441284796"><ele>1240.8333333333335</ele><time>2026-05-02T12:45:00.001Z</time></trkpt><trkpt lat="46.119841408627906" lon="11.821744534486168"><ele>1237.6666666666667</ele><time>2026-05-02T12:45:01.001Z</time></trkpt><trkpt lat="46.1199196484997" lon="11.821810313002372"><ele>1234.5</ele><time>2026-05-02T12:45:02.001Z</time></trkpt><trkpt lat="46.119995819841655" lon="11.82188357666876"><ele>1231.3333333333333</ele><time>2026-05-02T12:45:03.001Z</time></trkpt><trkpt lat="46.120067867925655" lon="11.821951537353506"><ele>1228.1666666666665</ele><time>2026-05-02T12:45:04.001Z</time></trkpt><trkpt lat="46.12013490010102" lon="11.822006477569904"><ele>1225.0</ele><time>2026-05-02T12:45:05.001Z</time></trkpt><trkpt lat="46.120203957257225" lon="11.82205549980039"><ele>1223.5</ele><time>2026-05-02T12:45:06.001Z</time></trkpt><trkpt lat="46.12027556954346" lon="11.822076816051846"><ele>1222.0</ele><time>2026-05-02T12:45:07.001Z</time></trkpt><trkpt lat="46.12034963592895" lon="11.82210189289486"><ele>1220.5</ele><time>2026-05-02T12:45:08.001Z</time></trkpt><trkpt lat="46.12043128119885" lon="11.822081651660088"><ele>1219.0</ele><time>2026-05-02T12:45:09.001Z</time></trkpt><trkpt lat="46.12053115589107" lon="11.822059131441167"><ele>1217.5</ele><time>2026-05-02T12:45:10.001Z</time></trkpt><trkpt lat="46.120616675425616" lon="11.82204807129871"><ele>1216.0</ele><time>2026-05-02T12:45:11.001Z</time></trkpt><trkpt lat="46.12068118839906" lon="11.822059407643083"><ele>1212.0</ele><time>2026-05-02T12:45:12.001Z</time></trkpt><trkpt lat="46.1207770544757" lon="11.82218268266116"><ele>1208.0</ele><time>2026-05-02T12:45:14.001Z</time></trkpt><trkpt lat="46.12087340852899" lon="11.822261196241909"><ele>1204.0</ele><time>2026-05-02T12:45:16.001Z</time></trkpt><trkpt lat="46.12096659324795" lon="11.822197815525199"><ele>1200.0</ele><time>2026-05-02T12:45:18.001Z</time></trkpt><trkpt lat="46.12101498224621" lon="11.822132466712242"><ele>1196.0</ele><time>2026-05-02T12:45:19.001Z</time></trkpt><trkpt lat="46.121096977349296" lon="11.822040138079565"><ele>1196.0</ele><time>2026-05-02T12:45:21.001Z</time></trkpt><trkpt lat="46.121156590733904" lon="11.82213058099025"><ele>1196.0</ele><time>2026-05-02T12:45:23.001Z</time></trkpt><trkpt lat="46.12110724991893" lon="11.822258964385062"><ele>1196.0</ele><time>2026-05-02T12:45:25.001Z</time></trkpt><trkpt lat="46.12103657629434" lon="11.822289439135393"><ele>1196.0</ele><time>2026-05-02T12:45:26.001Z</time></trkpt><trkpt lat="46.120965272485556" lon="11.822351678084221"><ele>1196.0</ele><time>2026-05-02T12:45:27.001Z</time></trkpt><trkpt lat="46.120893259912364" lon="11.822411027308094"><ele>1196.0</ele><time>2026-05-02T12:45:28.001Z</time></trkpt><trkpt lat="46.12082593621294" lon="11.822456102519167"><ele>1196.0</ele><time>2026-05-02T12:45:29.001Z</time></trkpt><trkpt lat="46.120757426064905" lon="11.822508301966826"><ele>1196.0</ele><time>2026-05-02T12:45:30.001Z</time></trkpt><trkpt lat="46.12069772099884" lon="11.822576091986086"><ele>1196.0</ele><time>2026-05-02T12:45:31.001Z</time></trkpt><trkpt lat="46.12067126553745" lon="11.822664999142821"><ele>1196.0</ele><time>2026-05-02T12:45:32.001Z</time></trkpt><trkpt lat="46.12064331831277" lon="11.822798580430076"><ele>1196.0</ele><time>2026-05-02T12:45:34.001Z</time></trkpt><trkpt lat="46.12070949707586" lon="11.822905550407867"><ele>1196.0</ele><time>2026-05-02T12:45:36.001Z</time></trkpt><trkpt lat="46.120823934816336" lon="11.82299123474457"><ele>1201.5</ele><time>2026-05-02T12:45:38.001Z</time></trkpt><trkpt lat="46.120903203679894" lon="11.823046709630084"><ele>1207.0</ele><time>2026-05-02T12:45:39.001Z</time></trkpt><trkpt lat="46.12098477385439" lon="11.823083606537375"><ele>1212.5</ele><time>2026-05-02T12:45:40.001Z</time></trkpt><trkpt lat="46.121053264379654" lon="11.823150963087178"><ele>1218.0</ele><time>2026-05-02T12:45:41.001Z</time></trkpt><trkpt lat="46.12113873091442" lon="11.823191311174174"><ele>1223.5</ele><time>2026-05-02T12:45:42.001Z</time></trkpt><trkpt lat="46.12122983339187" lon="11.823249550382938"><ele>1229.0</ele><time>2026-05-02T12:45:43.001Z</time></trkpt><trkpt lat="46.12131310049653" lon="11.823289369553416"><ele>1229.0</ele><time>2026-05-02T12:45:44.001Z</time></trkpt><trkpt lat="46.12138039692152" lon="11.82332037803382"><ele>1229.0</ele><time>2026-05-02T12:45:45.001Z</time></trkpt><trkpt lat="46.1214503196717" lon="11.82334773623081"><ele>1229.0</ele><time>2026-05-02T12:45:46.001Z</time></trkpt><trkpt lat="46.1215311287574" lon="11.823375202022227"><ele>1229.0</ele><time>2026-05-02T12:45:47.001Z</time></trkpt><trkpt lat="46.12161528895613" lon="11.823403806992404"><ele>1229.0</ele><time>2026-05-02T12:45:48.001Z</time></trkpt><trkpt lat="46.12169240621381" lon="11.82342530431335"><ele>1229.0</ele><time>2026-05-02T12:45:49.001Z</time></trkpt><trkpt lat="46.12177314312803" lon="11.82345106789969"><ele>1233.0</ele><time>2026-05-02T12:45:50.001Z</time></trkpt><trkpt lat="46.12185541352142" lon="11.823487271408412"><ele>1237.0</ele><time>2026-05-02T12:45:51.001Z</time></trkpt><trkpt lat="46.12192447544196" lon="11.823536401479753"><ele>1241.0</ele><time>2026-05-02T12:45:52.001Z</time></trkpt><trkpt lat="46.12200576950745" lon="11.823591901103411"><ele>1245.0</ele><time>2026-05-02T12:45:53.001Z</time></trkpt><trkpt lat="46.12207358559359" lon="11.823663941245957"><ele>1249.0</ele><time>2026-05-02T12:45:54.001Z</time></trkpt><trkpt lat="46.12213563593511" lon="11.823715418310481"><ele>1253.0</ele><time>2026-05-02T12:45:55.001Z</time></trkpt><trkpt lat="46.122203611518636" lon="11.823771187085812"><ele>1253.0</ele><time>2026-05-02T12:45:56.001Z</time></trkpt><trkpt lat="46.12227256941081" lon="11.823826894924215"><ele>1253.0</ele><time>2026-05-02T12:45:57.001Z</time></trkpt><trkpt lat="46.12234938093508" lon="11.82386717491727"><ele>1253.0</ele><time>2026-05-02T12:45:58.001Z</time></trkpt><trkpt lat="46.12241208019335" lon="11.823924354226298"><ele>1253.0</ele><time>2026-05-02T12:45:59.001Z</time></trkpt><trkpt lat="46.122477927974" lon="11.82395860703014"><ele>1253.0</ele><time>2026-05-02T12:46:00.001Z</time></trkpt><trkpt lat="46.122556826458904" lon="11.823997305747541"><ele>1253.0</ele><time>2026-05-02T12:46:01.001Z</time></trkpt><trkpt lat="46.122644343256304" lon="11.824033880461243"><ele>1244.8</ele><time>2026-05-02T12:46:02.001Z</time></trkpt><trkpt lat="46.12273347992266" lon="11.82406205117469"><ele>1236.6</ele><time>2026-05-02T12:46:03Z</time></trkpt><trkpt lat="46.12282637090375" lon="11.824053729627334"><ele>1228.4</ele><time>2026-05-02T12:46:04Z</time></trkpt><trkpt lat="46.12291047129957" lon="11.82405518971381"><ele>1220.2</ele><time>2026-05-02T12:46:05Z</time></trkpt><trkpt lat="46.123005232926566" lon="11.824065374083196"><ele>1212.0</ele><time>2026-05-02T12:46:06Z</time></trkpt><trkpt lat="46.12309863365306" lon="11.8240422065167"><ele>1212.0</ele><time>2026-05-02T12:46:07Z</time></trkpt><trkpt lat="46.12318305339057" lon="11.82401273884252"><ele>1212.0</ele><time>2026-05-02T12:46:08Z</time></trkpt><trkpt lat="46.123252706494156" lon="11.823966955641447"><ele>1212.0</ele><time>2026-05-02T12:46:09Z</time></trkpt><trkpt lat="46.12332680842206" lon="11.82396544756979"><ele>1212.0</ele><time>2026-05-02T12:46:10Z</time></trkpt><trkpt lat="46.12344657373503" lon="11.823912496951976"><ele>1212.0</ele><time>2026-05-02T12:46:12Z</time></trkpt><trkpt lat="46.12351442102073" lon="11.823904613174822"><ele>1212.0</ele><time>2026-05-02T12:46:13Z</time></trkpt><trkpt lat="46.12358905559881" lon="11.823881719255445"><ele>1207.1666666666667</ele><time>2026-05-02T12:46:14Z</time></trkpt><trkpt lat="46.12366239622496" lon="11.823870170594677"><ele>1202.3333333333333</ele><time>2026-05-02T12:46:15Z</time></trkpt><trkpt lat="46.12374219097906" lon="11.823867448733301"><ele>1197.5</ele><time>2026-05-02T12:46:16Z</time></trkpt><trkpt lat="46.123818792326176" lon="11.823855493303451"><ele>1192.6666666666665</ele><time>2026-05-02T12:46:17Z</time></trkpt><trkpt lat="46.123897919127806" lon="11.82384075496433"><ele>1187.8333333333333</ele><time>2026-05-02T12:46:18Z</time></trkpt><trkpt lat="46.12397587633299" lon="11.82383604002688"><ele>1183.0</ele><time>2026-05-02T12:46:19Z</time></trkpt><trkpt lat="46.12405995480817" lon="11.823810332928538"><ele>1180.8333333333333</ele><time>2026-05-02T12:46:20Z</time></trkpt><trkpt lat="46.12415354183131" lon="11.823788259491234"><ele>1178.6666666666665</ele><time>2026-05-02T12:46:21Z</time></trkpt><trkpt lat="46.124241509390345" lon="11.823782545926097"><ele>1176.5</ele><time>2026-05-02T12:46:22Z</time></trkpt><trkpt lat="46.12433376013242" lon="11.82378267008231"><ele>1174.3333333333333</ele><time>2026-05-02T12:46:23Z</time></trkpt><trkpt lat="46.12440432825388" lon="11.823760141580403"><ele>1172.1666666666667</ele><time>2026-05-02T12:46:24Z</time></trkpt><trkpt lat="46.1245022352482" lon="11.82374926672496"><ele>1170.0</ele><time>2026-05-02T12:46:25Z</time></trkpt><trkpt lat="46.124593539577255" lon="11.823729611325446"><ele>1170.0</ele><time>2026-05-02T12:46:26Z</time></trkpt><trkpt lat="46.12468062007579" lon="11.823725540213363"><ele>1170.0</ele><time>2026-05-02T12:46:27Z</time></trkpt><trkpt lat="46.124767427102896" lon="11.823732646738758"><ele>1170.0</ele><time>2026-05-02T12:46:28Z</time></trkpt><trkpt lat="46.12485733263195" lon="11.823724275495481"><ele>1170.0</ele><time>2026-05-02T12:46:29Z</time></trkpt><trkpt lat="46.12493921384431" lon="11.823726078804448"><ele>1170.0</ele><time>2026-05-02T12:46:30Z</time></trkpt><trkpt lat="46.12503593879336" lon="11.823717491800894"><ele>1170.0</ele><time>2026-05-02T12:46:31Z</time></trkpt><trkpt lat="46.12512689422357" lon="11.823708715494927"><ele>1169.1666666666667</ele><time>2026-05-02T12:46:32Z</time></trkpt><trkpt lat="46.12522338690362" lon="11.823690624877171"><ele>1168.3333333333333</ele><time>2026-05-02T12:46:33Z</time></trkpt><trkpt lat="46.12530936329688" lon="11.823672727281494"><ele>1167.5</ele><time>2026-05-02T12:46:34Z</time></trkpt><trkpt lat="46.12539992255114" lon="11.823654517969084"><ele>1166.6666666666665</ele><time>2026-05-02T12:46:35Z</time></trkpt><trkpt lat="46.125485011735435" lon="11.823641325693956"><ele>1165.8333333333333</ele><time>2026-05-02T12:46:36Z</time></trkpt><trkpt lat="46.125566841627275" lon="11.823631848972635"><ele>1165.0</ele><time>2026-05-02T12:46:37Z</time></trkpt><trkpt lat="46.125650568018514" lon="11.823615604380262"><ele>1165.8333333333333</ele><time>2026-05-02T12:46:38Z</time></trkpt><trkpt lat="46.125735874821565" lon="11.823604272147755"><ele>1166.6666666666665</ele><time>2026-05-02T12:46:39Z</time></trkpt><trkpt lat="46.12581648791562" lon="11.823610910709991"><ele>1167.5</ele><time>2026-05-02T12:46:40Z</time></trkpt><trkpt lat="46.1258957505537" lon="11.823610481651437"><ele>1168.3333333333333</ele><time>2026-05-02T12:46:41Z</time></trkpt><trkpt lat="46.125970965731696" lon="11.823620299043192"><ele>1169.1666666666667</ele><time>2026-05-02T12:46:42Z</time></trkpt><trkpt lat="46.126053233493586" lon="11.823628671555612"><ele>1170.0</ele><time>2026-05-02T12:46:43Z</time></trkpt><trkpt lat="46.12612635564952" lon="11.823655497104673"><ele>1170.0</ele><time>2026-05-02T12:46:44Z</time></trkpt><trkpt lat="46.12621391401523" lon="11.82364759252189"><ele>1170.0</ele><time>2026-05-02T12:46:45Z</time></trkpt><trkpt lat="46.12630148368257" lon="11.823630491959083"><ele>1170.0</ele><time>2026-05-02T12:46:46Z</time></trkpt><trkpt lat="46.12638308309892" lon="11.82359979393573"><ele>1170.0</ele><time>2026-05-02T12:46:47Z</time></trkpt><trkpt lat="46.12646768102084" lon="11.823542887309953"><ele>1170.0</ele><time>2026-05-02T12:46:48Z</time></trkpt><trkpt lat="46.12653780065977" lon="11.82345762106751"><ele>1170.0</ele><time>2026-05-02T12:46:49Z</time></trkpt><trkpt lat="46.1266044661915" lon="11.823406161571853"><ele>1162.3333333333333</ele><time>2026-05-02T12:46:50Z</time></trkpt><trkpt lat="46.12665541993607" lon="11.823304430940517"><ele>1154.6666666666667</ele><time>2026-05-02T12:46:51Z</time></trkpt><trkpt lat="46.12672579061845" lon="11.823243381756395"><ele>1147.0</ele><time>2026-05-02T12:46:52Z</time></trkpt><trkpt lat="46.12677860505612" lon="11.823159444738696"><ele>1139.3333333333335</ele><time>2026-05-02T12:46:53Z</time></trkpt><trkpt lat="46.12683553510847" lon="11.823087411007533"><ele>1131.6666666666667</ele><time>2026-05-02T12:46:54Z</time></trkpt><trkpt lat="46.126890507259226" lon="11.823019291180744"><ele>1124.0</ele><time>2026-05-02T12:46:55Z</time></trkpt><trkpt lat="46.12694846212098" lon="11.822958116865411"><ele>1124.0</ele><time>2026-05-02T12:46:56Z</time></trkpt><trkpt lat="46.12700465477257" lon="11.822910099368718"><ele>1124.0</ele><time>2026-05-02T12:46:57Z</time></trkpt><trkpt lat="46.12706960405177" lon="11.822888630546895"><ele>1124.0</ele><time>2026-05-02T12:46:58Z</time></trkpt><trkpt lat="46.12715390558971" lon="11.822824532806617"><ele>1124.0</ele><time>2026-05-02T12:47:00Z</time></trkpt><trkpt lat="46.12721823079075" lon="11.822795683836711"><ele>1124.0</ele><time>2026-05-02T12:47:02.001Z</time></trkpt><trkpt lat="46.12728465859635" lon="11.822773106048507"><ele>1124.0</ele><time>2026-05-02T12:47:05.001Z</time></trkpt><trkpt lat="46.127416903101796" lon="11.822792222000512"><ele>1126.0</ele><time>2026-05-02T12:50:45.001Z</time></trkpt><trkpt lat="46.127526420890675" lon="11.822779768571467"><ele>1128.0</ele><time>2026-05-02T12:50:47.001Z</time></trkpt><trkpt lat="46.127593060276965" lon="11.822776471659934"><ele>1130.0</ele><time>2026-05-02T12:50:48.001Z</time></trkpt><trkpt lat="46.1276551665618" lon="11.822754983534962"><ele>1132.0</ele><time>2026-05-02T12:50:49.001Z</time></trkpt><trkpt lat="46.12772490230471" lon="11.822783054249644"><ele>1134.0</ele><time>2026-05-02T12:50:50.001Z</time></trkpt><trkpt lat="46.12778724505219" lon="11.822831602786193"><ele>1136.0</ele><time>2026-05-02T12:50:51.001Z</time></trkpt><trkpt lat="46.12786507848551" lon="11.822855482784059"><ele>1136.0</ele><time>2026-05-02T12:50:52.001Z</time></trkpt><trkpt lat="46.12794761301831" lon="11.822890423726497"><ele>1136.0</ele><time>2026-05-02T12:50:53.001Z</time></trkpt><trkpt lat="46.128030638332206" lon="11.822932951364539"><ele>1136.0</ele><time>2026-05-02T12:50:54.001Z</time></trkpt><trkpt lat="46.128110329246844" lon="11.822967851260657"><ele>1136.0</ele><time>2026-05-02T12:50:55.001Z</time></trkpt><trkpt lat="46.12818710638873" lon="11.823000726068983"><ele>1136.0</ele><time>2026-05-02T12:50:56.001Z</time></trkpt><trkpt lat="46.12827178935766" lon="11.823013390481856"><ele>1136.0</ele><time>2026-05-02T12:50:57.001Z</time></trkpt><trkpt lat="46.12835504615763" lon="11.823011202916891"><ele>1137.0</ele><time>2026-05-02T12:50:58.001Z</time></trkpt><trkpt lat="46.12843861101528" lon="11.822996977508849"><ele>1138.0</ele><time>2026-05-02T12:50:59.001Z</time></trkpt><trkpt lat="46.128522181833524" lon="11.82297175181645"><ele>1139.0</ele><time>2026-05-02T12:51:00.001Z</time></trkpt><trkpt lat="46.12860828987008" lon="11.822947575841662"><ele>1140.0</ele><time>2026-05-02T12:51:01.001Z</time></trkpt><trkpt lat="46.12869156137112" lon="11.822908084970743"><ele>1141.0</ele><time>2026-05-02T12:51:02.001Z</time></trkpt><trkpt lat="46.128782186472115" lon="11.822862189993343"><ele>1142.0</ele><time>2026-05-02T12:51:02.999Z</time></trkpt><trkpt lat="46.128895059119756" lon="11.822807085953356"><ele>1142.0</ele><time>2026-05-02T12:51:03.999Z</time></trkpt><trkpt lat="46.129011686407665" lon="11.822731830756078"><ele>1142.0</ele><time>2026-05-02T12:51:04.999Z</time></trkpt><trkpt lat="46.129128600011384" lon="11.82266203668868"><ele>1142.0</ele><time>2026-05-02T12:51:05.999Z</time></trkpt><trkpt lat="46.12924928309372" lon="11.822626322222892"><ele>1142.0</ele><time>2026-05-02T12:51:06.999Z</time></trkpt><trkpt lat="46.12935305370552" lon="11.822604325929563"><ele>1137.3333333333335</ele><time>2026-05-02T12:51:07.999Z</time></trkpt><trkpt lat="46.12943037288671" lon="11.822591031513175"><ele>1132.6666666666667</ele><time>2026-05-02T12:51:08.999Z</time></trkpt><trkpt lat="46.129498605923914" lon="11.82258587015722"><ele>1128.0</ele><time>2026-05-02T12:51:09.999Z</time></trkpt><trkpt lat="46.12958841131148" lon="11.822586718323638"><ele>1123.3333333333333</ele><time>2026-05-02T12:51:10.999Z</time></trkpt><trkpt lat="46.129668386318606" lon="11.822592862660617"><ele>1118.6666666666665</ele><time>2026-05-02T12:51:11.999Z</time></trkpt><trkpt lat="46.12976068471101" lon="11.822607833122762"><ele>1114.0</ele><time>2026-05-02T12:51:12.999Z</time></trkpt><trkpt lat="46.1298549750567" lon="11.822631756226846"><ele>1118.2</ele><time>2026-05-02T12:51:14Z</time></trkpt><trkpt lat="46.12994629793456" lon="11.822664872383552"><ele>1122.4</ele><time>2026-05-02T12:51:15Z</time></trkpt><trkpt lat="46.13000668322832" lon="11.822700708474086"><ele>1126.6</ele><time>2026-05-02T12:51:16Z</time></trkpt><trkpt lat="46.13008928648314" lon="11.822784912890777"><ele>1130.8</ele><time>2026-05-02T12:51:18Z</time></trkpt><trkpt lat="46.13012257708929" lon="11.822888872944775"><ele>1135.0</ele><time>2026-05-02T12:51:20Z</time></trkpt><trkpt lat="46.1301155529715" lon="11.823048321056502"><ele>1135.0</ele><time>2026-05-02T12:51:22Z</time></trkpt><trkpt lat="46.13010795709037" lon="11.823148436458327"><ele>1135.0</ele><time>2026-05-02T12:51:23Z</time></trkpt><trkpt lat="46.13008753442496" lon="11.823251364575594"><ele>1135.0</ele><time>2026-05-02T12:51:24Z</time></trkpt><trkpt lat="46.130053913385915" lon="11.823381518293255"><ele>1135.0</ele><time>2026-05-02T12:51:25Z</time></trkpt><trkpt lat="46.130013138079775" lon="11.823541635593198"><ele>1135.0</ele><time>2026-05-02T12:51:26Z</time></trkpt><trkpt lat="46.12998177314716" lon="11.823691878597591"><ele>1136.6</ele><time>2026-05-02T12:51:27Z</time></trkpt><trkpt lat="46.12996537328213" lon="11.823823407811341"><ele>1138.2</ele><time>2026-05-02T12:51:28Z</time></trkpt><trkpt lat="46.129974471249085" lon="11.82396897247733"><ele>1139.8</ele><time>2026-05-02T12:51:29Z</time></trkpt><trkpt lat="46.12997982614622" lon="11.824091943387305"><ele>1141.4</ele><time>2026-05-02T12:51:30Z</time></trkpt><trkpt lat="46.129965767019776" lon="11.824240492073354"><ele>1143.0</ele><time>2026-05-02T12:51:31Z</time></trkpt><trkpt lat="46.129994495592285" lon="11.824338419132651"><ele>1145.5</ele><time>2026-05-02T12:51:32Z</time></trkpt><trkpt lat="46.129984782647966" lon="11.824453270016399"><ele>1148.0</ele><time>2026-05-02T12:51:33Z</time></trkpt><trkpt lat="46.129986825205776" lon="11.824554946201735"><ele>1150.5</ele><time>2026-05-02T12:51:34Z</time></trkpt><trkpt lat="46.129975342953635" lon="11.824688556813916"><ele>1153.0</ele><time>2026-05-02T12:51:36Z</time></trkpt><trkpt lat="46.1299481993256" lon="11.824854663863665"><ele>1155.5</ele><time>2026-05-02T12:51:38Z</time></trkpt><trkpt lat="46.129933222224686" lon="11.824942964735468"><ele>1158.0</ele><time>2026-05-02T12:51:39Z</time></trkpt><trkpt lat="46.12989839971953" lon="11.825022709893275"><ele>1158.0</ele><time>2026-05-02T12:51:40Z</time></trkpt><trkpt lat="46.129906368920615" lon="11.825124246897488"><ele>1158.0</ele><time>2026-05-02T12:51:41Z</time></trkpt><trkpt lat="46.12995034245107" lon="11.825199023301687"><ele>1158.0</ele><time>2026-05-02T12:51:42Z</time></trkpt><trkpt lat="46.129971068026464" lon="11.825306464709843"><ele>1158.0</ele><time>2026-05-02T12:51:43Z</time></trkpt><trkpt lat="46.13002265193219" lon="11.825412391749424"><ele>1158.0</ele><time>2026-05-02T12:51:44Z</time></trkpt><trkpt lat="46.130089353893176" lon="11.82552500093691"><ele>1158.0</ele><time>2026-05-02T12:51:45Z</time></trkpt><trkpt lat="46.130134097029256" lon="11.825591597157723"><ele>1163.4</ele><time>2026-05-02T12:51:46Z</time></trkpt><trkpt lat="46.13022607022161" lon="11.825724828644734"><ele>1168.8</ele><time>2026-05-02T12:51:48Z</time></trkpt><trkpt lat="46.130291739620674" lon="11.825787247480726"><ele>1174.2</ele><time>2026-05-02T12:51:49Z</time></trkpt><trkpt lat="46.13035551844576" lon="11.825842789235608"><ele>1179.6</ele><time>2026-05-02T12:51:50Z</time></trkpt><trkpt lat="46.130412763285115" lon="11.825892118926353"><ele>1185.0</ele><time>2026-05-02T12:51:51Z</time></trkpt><trkpt lat="46.130516856375536" lon="11.82600113954626"><ele>1184.6</ele><time>2026-05-02T12:51:53Z</time></trkpt><trkpt lat="46.130567861120106" lon="11.82606769846935"><ele>1184.2</ele><time>2026-05-02T12:51:54Z</time></trkpt><trkpt lat="46.13062134385835" lon="11.82613692945486"><ele>1183.8</ele><time>2026-05-02T12:51:55Z</time></trkpt><trkpt lat="46.130706992106845" lon="11.826231464749343"><ele>1183.4</ele><time>2026-05-02T12:51:57Z</time></trkpt><trkpt lat="46.13081942664312" lon="11.826311772631934"><ele>1183.0</ele><time>2026-05-02T12:51:59Z</time></trkpt><trkpt lat="46.13092301335137" lon="11.826346558208018"><ele>1183.0</ele><time>2026-05-02T12:52:00Z</time></trkpt><trkpt lat="46.13103585934088" lon="11.826365374191274"><ele>1183.0</ele><time>2026-05-02T12:52:01Z</time></trkpt><trkpt lat="46.131145561663054" lon="11.82637791635279"><ele>1183.0</ele><time>2026-05-02T12:52:02Z</time></trkpt><trkpt lat="46.13123836244005" lon="11.826388294115057"><ele>1183.0</ele><time>2026-05-02T12:52:03Z</time></trkpt><trkpt lat="46.13132710061928" lon="11.826409670695016"><ele>1183.0</ele><time>2026-05-02T12:52:04Z</time></trkpt><trkpt lat="46.13142012776773" lon="11.826445239863046"><ele>1183.0</ele><time>2026-05-02T12:52:05Z</time></trkpt><trkpt lat="46.13149364094627" lon="11.826478193319891"><ele>1183.0</ele><time>2026-05-02T12:52:06Z</time></trkpt><trkpt lat="46.13157111840585" lon="11.826522624225587"><ele>1183.0</ele><time>2026-05-02T12:52:07Z</time></trkpt><trkpt lat="46.13164190968477" lon="11.826575127631594"><ele>1183.0</ele><time>2026-05-02T12:52:08Z</time></trkpt><trkpt lat="46.13169554596327" lon="11.826640950527457"><ele>1183.0</ele><time>2026-05-02T12:52:09Z</time></trkpt><trkpt lat="46.13173013133022" lon="11.826720665903238"><ele>1183.0</ele><time>2026-05-02T12:52:10Z</time></trkpt><trkpt lat="46.131773839511546" lon="11.826885572000302"><ele>1178.2</ele><time>2026-05-02T12:52:12Z</time></trkpt><trkpt lat="46.13179760941877" lon="11.827043851287817"><ele>1173.4</ele><time>2026-05-02T12:52:14Z</time></trkpt><trkpt lat="46.13183250480396" lon="11.82722266047204"><ele>1168.6000000000001</ele><time>2026-05-02T12:52:16Z</time></trkpt><trkpt lat="46.13183419424066" lon="11.827316132232696"><ele>1163.8</ele><time>2026-05-02T12:52:17Z</time></trkpt><trkpt lat="46.131859120729686" lon="11.827484151192664"><ele>1159.0</ele><time>2026-05-02T12:52:19Z</time></trkpt><trkpt lat="46.13187181613142" lon="11.82765562342477"><ele>1157.8</ele><time>2026-05-02T12:52:21Z</time></trkpt><trkpt lat="46.131883413390156" lon="11.827828650785008"><ele>1156.6000000000001</ele><time>2026-05-02T12:52:23Z</time></trkpt><trkpt lat="46.13188006019185" lon="11.827981535123124"><ele>1155.4</ele><time>2026-05-02T12:52:25Z</time></trkpt><trkpt lat="46.13187058562625" lon="11.828081326795427"><ele>1154.2</ele><time>2026-05-02T12:52:26Z</time></trkpt><trkpt lat="46.13182751556658" lon="11.828210349929272"><ele>1153.0</ele><time>2026-05-02T12:52:28Z</time></trkpt><trkpt lat="46.131789620316525" lon="11.828290101166418"><ele>1153.0</ele><time>2026-05-02T12:52:29Z</time></trkpt><trkpt lat="46.131744845887695" lon="11.828375229261674"><ele>1153.0</ele><time>2026-05-02T12:52:30.001Z</time></trkpt><trkpt lat="46.13169245770274" lon="11.828482310610621"><ele>1153.0</ele><time>2026-05-02T12:52:31.001Z</time></trkpt><trkpt lat="46.13165648071173" lon="11.828577837339168"><ele>1153.0</ele><time>2026-05-02T12:52:32.001Z</time></trkpt><trkpt lat="46.131645842864856" lon="11.828679646099928"><ele>1153.0</ele><time>2026-05-02T12:52:33.001Z</time></trkpt><trkpt lat="46.13163846251616" lon="11.828770671736347"><ele>1153.0</ele><time>2026-05-02T12:52:34.001Z</time></trkpt><trkpt lat="46.131630524902434" lon="11.828875196265837"><ele>1153.0</ele><time>2026-05-02T12:52:35.001Z</time></trkpt><trkpt lat="46.131632139437876" lon="11.828983196198696"><ele>1152.3333333333333</ele><time>2026-05-02T12:52:36.001Z</time></trkpt><trkpt lat="46.131659557304225" lon="11.82909546631286"><ele>1151.6666666666665</ele><time>2026-05-02T12:52:37.001Z</time></trkpt><trkpt lat="46.13170714543797" lon="11.829169227253495"><ele>1151.0</ele><time>2026-05-02T12:52:38.001Z</time></trkpt><trkpt lat="46.13174460365374" lon="11.829270940412997"><ele>1150.3333333333333</ele><time>2026-05-02T12:52:39.001Z</time></trkpt><trkpt lat="46.131793038756854" lon="11.829352636248306"><ele>1149.6666666666667</ele><time>2026-05-02T12:52:40.001Z</time></trkpt><trkpt lat="46.1318419731789" lon="11.829433977078248"><ele>1149.0</ele><time>2026-05-02T12:52:41.001Z</time></trkpt><trkpt lat="46.131893319457184" lon="11.82950569280705"><ele>1148.5</ele><time>2026-05-02T12:52:42.001Z</time></trkpt><trkpt lat="46.13193022357708" lon="11.829582487491729"><ele>1148.0</ele><time>2026-05-02T12:52:43.001Z</time></trkpt><trkpt lat="46.13195087776425" lon="11.829746027190403"><ele>1147.5</ele><time>2026-05-02T12:52:45.001Z</time></trkpt><trkpt lat="46.13194159394127" lon="11.829865801893328"><ele>1147.0</ele><time>2026-05-02T12:52:47.001Z</time></trkpt><trkpt lat="46.131868051929104" lon="11.82992522505597"><ele>1146.5</ele><time>2026-05-02T12:52:49.001Z</time></trkpt><trkpt lat="46.13179826768097" lon="11.830030927251308"><ele>1146.0</ele><time>2026-05-02T12:52:51.001Z</time></trkpt><trkpt lat="46.13184021925212" lon="11.830189546204096"><ele>1145.5</ele><time>2026-05-02T12:52:53.001Z</time></trkpt><trkpt lat="46.131891494160556" lon="11.830253119078517"><ele>1145.0</ele><time>2026-05-02T12:52:54.001Z</time></trkpt><trkpt lat="46.13196221453644" lon="11.830318290063364"><ele>1144.5</ele><time>2026-05-02T12:52:55.001Z</time></trkpt><trkpt lat="46.132035426705414" lon="11.830378288021464"><ele>1144.0</ele><time>2026-05-02T12:52:56.001Z</time></trkpt><trkpt lat="46.13207710189358" lon="11.830450898368369"><ele>1143.5</ele><time>2026-05-02T12:52:57.001Z</time></trkpt><trkpt lat="46.13210370909373" lon="11.830637633163013"><ele>1143.0</ele><time>2026-05-02T12:52:59.001Z</time></trkpt><trkpt lat="46.13209689149827" lon="11.830729235205524"><ele>1143.0</ele><time>2026-05-02T12:53:00.001Z</time></trkpt><trkpt lat="46.13206750161766" lon="11.830890207992907"><ele>1143.0</ele><time>2026-05-02T12:53:02.001Z</time></trkpt><trkpt lat="46.132025115661605" lon="11.830990132974325"><ele>1143.0</ele><time>2026-05-02T12:53:03.001Z</time></trkpt><trkpt lat="46.13195459797006" lon="11.831075652861562"><ele>1143.0</ele><time>2026-05-02T12:53:04.001Z</time></trkpt><trkpt lat="46.13189049776921" lon="11.831203090956155"><ele>1143.0</ele><time>2026-05-02T12:53:05.001Z</time></trkpt><trkpt lat="46.13184498763783" lon="11.831326773894117"><ele>1144.1666666666667</ele><time>2026-05-02T12:53:06.001Z</time></trkpt><trkpt lat="46.13181801021109" lon="11.83143664294177"><ele>1145.3333333333333</ele><time>2026-05-02T12:53:07.001Z</time></trkpt><trkpt lat="46.131854612371406" lon="11.831573176562532"><ele>1146.5</ele><time>2026-05-02T12:53:08.001Z</time></trkpt><trkpt lat="46.13188500315369" lon="11.831678772115703"><ele>1147.6666666666665</ele><time>2026-05-02T12:53:08.999Z</time></trkpt><trkpt lat="46.131922418509006" lon="11.831789684080425"><ele>1148.8333333333333</ele><time>2026-05-02T12:53:09.999Z</time></trkpt><trkpt lat="46.13196651103917" lon="11.831912535721107"><ele>1150.0</ele><time>2026-05-02T12:53:10.999Z</time></trkpt><trkpt lat="46.13200487737627" lon="11.832044733276811"><ele>1151.0</ele><time>2026-05-02T12:53:11.999Z</time></trkpt><trkpt lat="46.13203836223292" lon="11.832201665334352"><ele>1152.0</ele><time>2026-05-02T12:53:12.999Z</time></trkpt><trkpt lat="46.132073904956144" lon="11.832359325721995"><ele>1153.0</ele><time>2026-05-02T12:53:13.999Z</time></trkpt><trkpt lat="46.132131894301814" lon="11.83251260412482"><ele>1154.0</ele><time>2026-05-02T12:53:14.999Z</time></trkpt><trkpt lat="46.13221702447082" lon="11.832645547663468"><ele>1154.5</ele><time>2026-05-02T12:53:15.999Z</time></trkpt><trkpt lat="46.13228535985717" lon="11.832764806195643"><ele>1155.0</ele><time>2026-05-02T12:53:16.999Z</time></trkpt><trkpt lat="46.13233141820735" lon="11.832880839405469"><ele>1155.5</ele><time>2026-05-02T12:53:17.999Z</time></trkpt><trkpt lat="46.13235981973324" lon="11.832991143217113"><ele>1156.0</ele><time>2026-05-02T12:53:19Z</time></trkpt><trkpt lat="46.132376382402896" lon="11.833082276423456"><ele>1156.5</ele><time>2026-05-02T12:53:20Z</time></trkpt><trkpt lat="46.132365761145124" lon="11.833179848580997"><ele>1157.0</ele><time>2026-05-02T12:53:21Z</time></trkpt><trkpt lat="46.132341693697214" lon="11.8333118230525"><ele>1157.0</ele><time>2026-05-02T12:53:22Z</time></trkpt><trkpt lat="46.13230577764572" lon="11.833456404241648"><ele>1157.0</ele><time>2026-05-02T12:53:23Z</time></trkpt><trkpt lat="46.13225702953412" lon="11.833617098527753"><ele>1157.0</ele><time>2026-05-02T12:53:24Z</time></trkpt><trkpt lat="46.13220466186642" lon="11.833791617024842"><ele>1157.0</ele><time>2026-05-02T12:53:25Z</time></trkpt><trkpt lat="46.13213443181799" lon="11.83395010743068"><ele>1153.25</ele><time>2026-05-02T12:53:26Z</time></trkpt><trkpt lat="46.132059617395925" lon="11.83412171370928"><ele>1149.5</ele><time>2026-05-02T12:53:27Z</time></trkpt><trkpt lat="46.13196362291554" lon="11.834259416107356"><ele>1145.75</ele><time>2026-05-02T12:53:28Z</time></trkpt><trkpt lat="46.13188187919094" lon="11.834417457546145"><ele>1142.0</ele><time>2026-05-02T12:53:29Z</time></trkpt><trkpt lat="46.131801027776696" lon="11.834595217763079"><ele>1144.5</ele><time>2026-05-02T12:53:30Z</time></trkpt><trkpt lat="46.13172890512175" lon="11.834738621331557"><ele>1147.0</ele><time>2026-05-02T12:53:31Z</time></trkpt><trkpt lat="46.13165888407317" lon="11.834878284901672"><ele>1149.5</ele><time>2026-05-02T12:53:32Z</time></trkpt><trkpt lat="46.131598733794355" lon="11.835027047752464"><ele>1152.0</ele><time>2026-05-02T12:53:33Z</time></trkpt><trkpt lat="46.13154285973597" lon="11.835204594833456"><ele>1152.0</ele><time>2026-05-02T12:53:34Z</time></trkpt><trkpt lat="46.13146321120448" lon="11.835351359058468"><ele>1152.0</ele><time>2026-05-02T12:53:35Z</time></trkpt><trkpt lat="46.131394480238825" lon="11.83551285723713"><ele>1152.0</ele><time>2026-05-02T12:53:36Z</time></trkpt><trkpt lat="46.13132172211883" lon="11.835684278815629"><ele>1152.0</ele><time>2026-05-02T12:53:37Z</time></trkpt><trkpt lat="46.131255571164004" lon="11.835844093569358"><ele>1146.75</ele><time>2026-05-02T12:53:38Z</time></trkpt><trkpt lat="46.131191616605044" lon="11.83601039895766"><ele>1141.5</ele><time>2026-05-02T12:53:39Z</time></trkpt><trkpt lat="46.13115132273368" lon="11.836171278744919"><ele>1136.25</ele><time>2026-05-02T12:53:40Z</time></trkpt><trkpt lat="46.131087268247704" lon="11.836319347533554"><ele>1131.0</ele><time>2026-05-02T12:53:41Z</time></trkpt><trkpt lat="46.131034262182894" lon="11.836470630108323"><ele>1131.0</ele><time>2026-05-02T12:53:42Z</time></trkpt><trkpt lat="46.13100216456626" lon="11.836624214022267"><ele>1131.0</ele><time>2026-05-02T12:53:43Z</time></trkpt><trkpt lat="46.13099065482824" lon="11.836787344640165"><ele>1131.0</ele><time>2026-05-02T12:53:44Z</time></trkpt><trkpt lat="46.130951602809425" lon="11.836936467539275"><ele>1131.0</ele><time>2026-05-02T12:53:45Z</time></trkpt><trkpt lat="46.130937938762465" lon="11.837071628277156"><ele>1131.0</ele><time>2026-05-02T12:53:46Z</time></trkpt><trkpt lat="46.13093984116183" lon="11.837198107823781"><ele>1130.2</ele><time>2026-05-02T12:53:47Z</time></trkpt><trkpt lat="46.13092892986988" lon="11.837323845742631"><ele>1129.3999999999999</ele><time>2026-05-02T12:53:48Z</time></trkpt><trkpt lat="46.130940239739644" lon="11.83744362801827"><ele>1128.6</ele><time>2026-05-02T12:53:49Z</time></trkpt><trkpt lat="46.13096946457411" lon="11.837570286719465"><ele>1127.8</ele><time>2026-05-02T12:53:50Z</time></trkpt><trkpt lat="46.13099977052573" lon="11.837709644263295"><ele>1127.0</ele><time>2026-05-02T12:53:51Z</time></trkpt><trkpt lat="46.131055426998465" lon="11.83786116417991"><ele>1127.0</ele><time>2026-05-02T12:53:52Z</time></trkpt><trkpt lat="46.131120822377866" lon="11.83800868689385"><ele>1127.0</ele><time>2026-05-02T12:53:53Z</time></trkpt><trkpt lat="46.131177500015795" lon="11.838129472442105"><ele>1127.0</ele><time>2026-05-02T12:53:54Z</time></trkpt><trkpt lat="46.13124205690497" lon="11.838233326671208"><ele>1127.0</ele><time>2026-05-02T12:53:55Z</time></trkpt><trkpt lat="46.13127181594705" lon="11.838359369421564"><ele>1127.0</ele><time>2026-05-02T12:53:56Z</time></trkpt><trkpt lat="46.1313142947093" lon="11.838462472737278"><ele>1127.0</ele><time>2026-05-02T12:53:57Z</time></trkpt><trkpt lat="46.131372403315716" lon="11.838550724273825"><ele>1127.0</ele><time>2026-05-02T12:53:58Z</time></trkpt><trkpt lat="46.13143329211323" lon="11.838643774217623"><ele>1127.0</ele><time>2026-05-02T12:53:59Z</time></trkpt><trkpt lat="46.13147061397264" lon="11.838744224466344"><ele>1127.0</ele><time>2026-05-02T12:54:00Z</time></trkpt><trkpt lat="46.13149472956464" lon="11.838841720530386"><ele>1127.0</ele><time>2026-05-02T12:54:01Z</time></trkpt><trkpt lat="46.13150068001603" lon="11.838941075499617"><ele>1127.0</ele><time>2026-05-02T12:54:02Z</time></trkpt><trkpt lat="46.13150070834942" lon="11.839041408637199"><ele>1127.0</ele><time>2026-05-02T12:54:03Z</time></trkpt><trkpt lat="46.13149789079551" lon="11.83914823885798"><ele>1127.0</ele><time>2026-05-02T12:54:04Z</time></trkpt><trkpt lat="46.1314914434337" lon="11.839250546354767"><ele>1127.0</ele><time>2026-05-02T12:54:05Z</time></trkpt><trkpt lat="46.131486297479846" lon="11.839341726099608"><ele>1127.0</ele><time>2026-05-02T12:54:06Z</time></trkpt><trkpt lat="46.13141593251415" lon="11.839456736951112"><ele>1127.0</ele><time>2026-05-02T12:54:08Z</time></trkpt><trkpt lat="46.13132370731729" lon="11.839564584037083"><ele>1127.0</ele><time>2026-05-02T12:54:10Z</time></trkpt><trkpt lat="46.13127132221857" lon="11.839630565616313"><ele>1126.857142857143</ele><time>2026-05-02T12:54:11Z</time></trkpt><trkpt lat="46.13122596116291" lon="11.839693633875552"><ele>1126.7142857142858</ele><time>2026-05-02T12:54:12Z</time></trkpt><trkpt lat="46.13119374514638" lon="11.839790350485414"><ele>1126.5714285714284</ele><time>2026-05-02T12:54:13Z</time></trkpt><trkpt lat="46.131196866719094" lon="11.839895073235908"><ele>1126.4285714285716</ele><time>2026-05-02T12:54:14Z</time></trkpt><trkpt lat="46.1312068975871" lon="11.839998929990905"><ele>1126.2857142857142</ele><time>2026-05-02T12:54:15Z</time></trkpt><trkpt lat="46.13121820702927" lon="11.840094158527819"><ele>1126.142857142857</ele><time>2026-05-02T12:54:16Z</time></trkpt><trkpt lat="46.13129261138465" lon="11.840144900372986"><ele>1126.0</ele><time>2026-05-02T12:54:17Z</time></trkpt><trkpt lat="46.131351372155365" lon="11.840226865909584"><ele>1126.0</ele><time>2026-05-02T12:54:18Z</time></trkpt><trkpt lat="46.13141902973442" lon="11.840281421748768"><ele>1126.0</ele><time>2026-05-02T12:54:19Z</time></trkpt><trkpt lat="46.131462457234406" lon="11.840380038306993"><ele>1126.0</ele><time>2026-05-02T12:54:20Z</time></trkpt><trkpt lat="46.13149968316375" lon="11.840482982151029"><ele>1126.0</ele><time>2026-05-02T12:54:21Z</time></trkpt><trkpt lat="46.13152667370018" lon="11.840576792445349"><ele>1126.0</ele><time>2026-05-02T12:54:22Z</time></trkpt><trkpt lat="46.13153400284578" lon="11.840673480709315"><ele>1126.0</ele><time>2026-05-02T12:54:23.001Z</time></trkpt><trkpt lat="46.13151523846799" lon="11.840770469885415"><ele>1126.0</ele><time>2026-05-02T12:54:24.001Z</time></trkpt><trkpt lat="46.13145144698558" lon="11.840821375378988"><ele>1126.0</ele><time>2026-05-02T12:54:25.001Z</time></trkpt><trkpt lat="46.13140992983881" lon="11.840891053983121"><ele>1126.0</ele><time>2026-05-02T12:54:26.001Z</time></trkpt><trkpt lat="46.1313745758344" lon="11.841002887056197"><ele>1126.0</ele><time>2026-05-02T12:54:27.001Z</time></trkpt><trkpt lat="46.131324189036185" lon="11.841134732810154"><ele>1126.0</ele><time>2026-05-02T12:54:28.001Z</time></trkpt><trkpt lat="46.131311258556266" lon="11.841253731591943"><ele>1126.0</ele><time>2026-05-02T12:54:29.001Z</time></trkpt><trkpt lat="46.13131503443793" lon="11.841367634442536"><ele>1126.0</ele><time>2026-05-02T12:54:30.001Z</time></trkpt><trkpt lat="46.13127367902937" lon="11.841496730422922"><ele>1125.6666666666665</ele><time>2026-05-02T12:54:31.001Z</time></trkpt><trkpt lat="46.13122042217153" lon="11.841616356580497"><ele>1125.3333333333333</ele><time>2026-05-02T12:54:32.001Z</time></trkpt><trkpt lat="46.131161269297195" lon="11.841712853815748"><ele>1125.0</ele><time>2026-05-02T12:54:33.001Z</time></trkpt><trkpt lat="46.13108728481073" lon="11.841754959591015"><ele>1124.6666666666667</ele><time>2026-05-02T12:54:34.001Z</time></trkpt><trkpt lat="46.13101491077185" lon="11.841808897415794"><ele>1124.3333333333335</ele><time>2026-05-02T12:54:35.001Z</time></trkpt><trkpt lat="46.13094000888591" lon="11.84186708849228"><ele>1124.0</ele><time>2026-05-02T12:54:36.001Z</time></trkpt><trkpt lat="46.1308684943999" lon="11.84195346301159"><ele>1125.6000000000001</ele><time>2026-05-02T12:54:37.001Z</time></trkpt><trkpt lat="46.13079510257868" lon="11.842009856431336"><ele>1127.2</ele><time>2026-05-02T12:54:38.001Z</time></trkpt><trkpt lat="46.13071468415835" lon="11.842076113892409"><ele>1128.8000000000002</ele><time>2026-05-02T12:54:39.001Z</time></trkpt><trkpt lat="46.130667522793935" lon="11.842215443830673"><ele>1130.4</ele><time>2026-05-02T12:54:40.001Z</time></trkpt><trkpt lat="46.13065040889051" lon="11.842330057497161"><ele>1132.0</ele><time>2026-05-02T12:54:41.001Z</time></trkpt><trkpt lat="46.130641754291815" lon="11.842476045082712"><ele>1132.0</ele><time>2026-05-02T12:54:42.001Z</time></trkpt><trkpt lat="46.13062999819469" lon="11.842616204355012"><ele>1132.0</ele><time>2026-05-02T12:54:43.001Z</time></trkpt><trkpt lat="46.13060307603232" lon="11.842740740195286"><ele>1132.0</ele><time>2026-05-02T12:54:44.001Z</time></trkpt><trkpt lat="46.130570151893416" lon="11.842852253961798"><ele>1132.0</ele><time>2026-05-02T12:54:45.001Z</time></trkpt><trkpt lat="46.13053504337879" lon="11.84294828176858"><ele>1132.0</ele><time>2026-05-02T12:54:46.001Z</time></trkpt><trkpt lat="46.1304892489948" lon="11.843030532012696"><ele>1132.0</ele><time>2026-05-02T12:54:47.001Z</time></trkpt><trkpt lat="46.13044472472327" lon="11.843110786225111"><ele>1129.6</ele><time>2026-05-02T12:54:48.001Z</time></trkpt><trkpt lat="46.130379826969175" lon="11.843194538495487"><ele>1127.2</ele><time>2026-05-02T12:54:49.001Z</time></trkpt><trkpt lat="46.13029954617204" lon="11.84330595690136"><ele>1124.8</ele><time>2026-05-02T12:54:50.001Z</time></trkpt><trkpt lat="46.13021698699547" lon="11.843420535345247"><ele>1122.4</ele><time>2026-05-02T12:54:51.001Z</time></trkpt><trkpt lat="46.13014762005327" lon="11.84356592280825"><ele>1120.0</ele><time>2026-05-02T12:54:52.001Z</time></trkpt><trkpt lat="46.130063374234865" lon="11.843693123851462"><ele>1121.0</ele><time>2026-05-02T12:54:53.001Z</time></trkpt><trkpt lat="46.129984575527146" lon="11.843819171972443"><ele>1122.0</ele><time>2026-05-02T12:54:54.001Z</time></trkpt><trkpt lat="46.12992524673047" lon="11.84395256254932"><ele>1123.0</ele><time>2026-05-02T12:54:55.001Z</time></trkpt><trkpt lat="46.12987051601269" lon="11.84408449144833"><ele>1124.0</ele><time>2026-05-02T12:54:56.001Z</time></trkpt><trkpt lat="46.1298210561288" lon="11.844201214394921"><ele>1125.0</ele><time>2026-05-02T12:54:57.001Z</time></trkpt><trkpt lat="46.129775593074676" lon="11.844311477909562"><ele>1125.0</ele><time>2026-05-02T12:54:58.001Z</time></trkpt><trkpt lat="46.12973679215059" lon="11.844411507965356"><ele>1125.0</ele><time>2026-05-02T12:54:59.001Z</time></trkpt><trkpt lat="46.12971837378898" lon="11.844518977809633"><ele>1125.0</ele><time>2026-05-02T12:55:00.001Z</time></trkpt><trkpt lat="46.129746420983736" lon="11.8446106424921"><ele>1125.0</ele><time>2026-05-02T12:55:01.001Z</time></trkpt><trkpt lat="46.12978780469963" lon="11.844694144724038"><ele>1125.0</ele><time>2026-05-02T12:55:02.001Z</time></trkpt><trkpt lat="46.129848474821685" lon="11.844788456317723"><ele>1125.0</ele><time>2026-05-02T12:55:03.001Z</time></trkpt><trkpt lat="46.12990971303478" lon="11.84489064306202"><ele>1125.1666666666667</ele><time>2026-05-02T12:55:04.001Z</time></trkpt><trkpt lat="46.12995668660686" lon="11.844996866201917"><ele>1125.3333333333333</ele><time>2026-05-02T12:55:05.001Z</time></trkpt><trkpt lat="46.13000655732998" lon="11.84507299810685"><ele>1125.5</ele><time>2026-05-02T12:55:06.001Z</time></trkpt><trkpt lat="46.13004827059703" lon="11.845146336140457"><ele>1125.6666666666665</ele><time>2026-05-02T12:55:07.001Z</time></trkpt><trkpt lat="46.13010029143191" lon="11.845197792129085"><ele>1125.8333333333333</ele><time>2026-05-02T12:55:08.001Z</time></trkpt><trkpt lat="46.13020594801097" lon="11.845225673938748"><ele>1126.0</ele><time>2026-05-02T12:55:10.001Z</time></trkpt><trkpt lat="46.13031240955937" lon="11.845158684991352"><ele>1123.6666666666665</ele><time>2026-05-02T12:55:12.001Z</time></trkpt><trkpt lat="46.13037117020379" lon="11.845105928849192"><ele>1121.3333333333333</ele><time>2026-05-02T12:55:13.001Z</time></trkpt><trkpt lat="46.13042572980161" lon="11.845053623295193"><ele>1119.0</ele><time>2026-05-02T12:55:14.001Z</time></trkpt><trkpt lat="46.13051333914166" lon="11.844923253201035"><ele>1116.6666666666667</ele><time>2026-05-02T12:55:16Z</time></trkpt><trkpt lat="46.130568163559865" lon="11.844843822207743"><ele>1114.3333333333335</ele><time>2026-05-02T12:55:17Z</time></trkpt><trkpt lat="46.13060121019213" lon="11.844722479753855"><ele>1112.0</ele><time>2026-05-02T12:55:18Z</time></trkpt><trkpt lat="46.13063732977576" lon="11.844615431291352"><ele>1112.0</ele><time>2026-05-02T12:55:19Z</time></trkpt><trkpt lat="46.13065579188985" lon="11.844485670761735"><ele>1112.0</ele><time>2026-05-02T12:55:20Z</time></trkpt><trkpt lat="46.1307536559585" lon="11.844399427578566"><ele>1112.0</ele><time>2026-05-02T12:55:22Z</time></trkpt><trkpt lat="46.130878157865325" lon="11.844314303188975"><ele>1112.0</ele><time>2026-05-02T12:55:24Z</time></trkpt><trkpt lat="46.13093849961184" lon="11.844269360682748"><ele>1112.0</ele><time>2026-05-02T12:55:25Z</time></trkpt><trkpt lat="46.131006266102276" lon="11.844235420983942"><ele>1111.5</ele><time>2026-05-02T12:55:26Z</time></trkpt><trkpt lat="46.13107621756512" lon="11.84417427884552"><ele>1111.0</ele><time>2026-05-02T12:55:27Z</time></trkpt><trkpt lat="46.13113270171905" lon="11.84411818997645"><ele>1110.5</ele><time>2026-05-02T12:55:28Z</time></trkpt><trkpt lat="46.13119737316796" lon="11.844039882962555"><ele>1110.0</ele><time>2026-05-02T12:55:29Z</time></trkpt><trkpt lat="46.13125392530142" lon="11.843953059850321"><ele>1109.5</ele><time>2026-05-02T12:55:30Z</time></trkpt><trkpt lat="46.131313997299614" lon="11.843882027787748"><ele>1109.0</ele><time>2026-05-02T12:55:31Z</time></trkpt><trkpt lat="46.1313817213699" lon="11.843804607878083"><ele>1109.0</ele><time>2026-05-02T12:55:32Z</time></trkpt><trkpt lat="46.13146033900505" lon="11.843738293229146"><ele>1109.0</ele><time>2026-05-02T12:55:33Z</time></trkpt><trkpt lat="46.131531898667326" lon="11.843679749672866"><ele>1109.0</ele><time>2026-05-02T12:55:34Z</time></trkpt><trkpt lat="46.131584092966726" lon="11.843615032282784"><ele>1109.0</ele><time>2026-05-02T12:55:35Z</time></trkpt><trkpt lat="46.131653116001" lon="11.843557214824083"><ele>1109.0</ele><time>2026-05-02T12:55:36Z</time></trkpt><trkpt lat="46.13171950953906" lon="11.843485539461655"><ele>1109.0</ele><time>2026-05-02T12:55:37Z</time></trkpt><trkpt lat="46.13177200930446" lon="11.843403903294668"><ele>1107.5</ele><time>2026-05-02T12:55:38Z</time></trkpt><trkpt lat="46.131826247014516" lon="11.843325844384468"><ele>1106.0</ele><time>2026-05-02T12:55:39Z</time></trkpt><trkpt lat="46.131872004720044" lon="11.84322009837168"><ele>1104.5</ele><time>2026-05-02T12:55:40Z</time></trkpt><trkpt lat="46.13190776805948" lon="11.843114391046942"><ele>1103.0</ele><time>2026-05-02T12:55:41Z</time></trkpt><trkpt lat="46.131936320256386" lon="11.843016164507832"><ele>1101.5</ele><time>2026-05-02T12:55:42Z</time></trkpt><trkpt lat="46.13199658096931" lon="11.84285872372724"><ele>1100.0</ele><time>2026-05-02T12:55:44Z</time></trkpt><trkpt lat="46.13203692859934" lon="11.842768813484392"><ele>1100.0</ele><time>2026-05-02T12:55:45Z</time></trkpt><trkpt lat="46.13210215895734" lon="11.842701848814139"><ele>1100.0</ele><time>2026-05-02T12:55:46Z</time></trkpt><trkpt lat="46.132160652075896" lon="11.842622008811873"><ele>1100.0</ele><time>2026-05-02T12:55:47Z</time></trkpt><trkpt lat="46.132217936212655" lon="11.84256737808686"><ele>1100.0</ele><time>2026-05-02T12:55:48Z</time></trkpt><trkpt lat="46.13227748516579" lon="11.842537706910369"><ele>1100.0</ele><time>2026-05-02T12:55:49Z</time></trkpt><trkpt lat="46.132341872315145" lon="11.842525283228664"><ele>1100.0</ele><time>2026-05-02T12:55:50Z</time></trkpt><trkpt lat="46.13246262642006" lon="11.842531825154746"><ele>1098.6</ele><time>2026-05-02T12:55:52Z</time></trkpt><trkpt lat="46.132564616966555" lon="11.842511224557828"><ele>1097.2</ele><time>2026-05-02T12:55:54Z</time></trkpt><trkpt lat="46.132656194637875" lon="11.842419444154977"><ele>1095.8</ele><time>2026-05-02T12:55:56Z</time></trkpt><trkpt lat="46.13268268047496" lon="11.842335903314941"><ele>1094.4</ele><time>2026-05-02T12:55:57Z</time></trkpt><trkpt lat="46.132655306138524" lon="11.842241027758003"><ele>1093.0</ele><time>2026-05-02T12:55:58Z</time></trkpt><trkpt lat="46.13249823945285" lon="11.842130925079354"><ele>1093.0</ele><time>2026-05-02T12:56:00Z</time></trkpt><trkpt lat="46.13240889374785" lon="11.842107996382264"><ele>1093.0</ele><time>2026-05-02T12:56:01Z</time></trkpt><trkpt lat="46.132322232560576" lon="11.84208835393476"><ele>1093.0</ele><time>2026-05-02T12:56:02Z</time></trkpt><trkpt lat="46.13222494746374" lon="11.842053858911578"><ele>1093.0</ele><time>2026-05-02T12:56:04Z</time></trkpt><trkpt lat="46.13239063082349" lon="11.842002109846254"><ele>1093.0</ele><time>2026-05-02T12:56:09.001Z</time></trkpt><trkpt lat="46.132484297157625" lon="11.841991657652132"><ele>1093.0</ele><time>2026-05-02T12:56:10.001Z</time></trkpt><trkpt lat="46.13256900633168" lon="11.841985918249849"><ele>1093.0</ele><time>2026-05-02T12:56:11.001Z</time></trkpt><trkpt lat="46.13265447784297" lon="11.841969290687778"><ele>1093.0</ele><time>2026-05-02T12:56:12.001Z</time></trkpt><trkpt lat="46.132743435311816" lon="11.841975235354385"><ele>1093.0</ele><time>2026-05-02T12:56:13.001Z</time></trkpt><trkpt lat="46.13282886367542" lon="11.841975817679"><ele>1093.0</ele><time>2026-05-02T12:56:14.001Z</time></trkpt><trkpt lat="46.1329179894214" lon="11.84197476105232"><ele>1093.0</ele><time>2026-05-02T12:56:15.001Z</time></trkpt><trkpt lat="46.13300987593061" lon="11.84197072222282"><ele>1093.0</ele><time>2026-05-02T12:56:16.001Z</time></trkpt><trkpt lat="46.13309513090328" lon="11.841939782816109"><ele>1093.0</ele><time>2026-05-02T12:56:17.001Z</time></trkpt><trkpt lat="46.13318192074178" lon="11.841912837691291"><ele>1093.0</ele><time>2026-05-02T12:56:18.001Z</time></trkpt><trkpt lat="46.133266502969796" lon="11.841842139037652"><ele>1093.0</ele><time>2026-05-02T12:56:19.001Z</time></trkpt><trkpt lat="46.13334553175403" lon="11.84174905516211"><ele>1093.0</ele><time>2026-05-02T12:56:20.001Z</time></trkpt><trkpt lat="46.133415108641906" lon="11.841635380273532"><ele>1091.4</ele><time>2026-05-02T12:56:21.001Z</time></trkpt><trkpt lat="46.13347630358964" lon="11.841515258296296"><ele>1089.8</ele><time>2026-05-02T12:56:22.001Z</time></trkpt><trkpt lat="46.133514909312865" lon="11.841367139075507"><ele>1088.2</ele><time>2026-05-02T12:56:23.001Z</time></trkpt><trkpt lat="46.133565957052504" lon="11.841222467485384"><ele>1086.6</ele><time>2026-05-02T12:56:24.001Z</time></trkpt><trkpt lat="46.133611415996555" lon="11.84107211465924"><ele>1085.0</ele><time>2026-05-02T12:56:25.001Z</time></trkpt><trkpt lat="46.13364554582081" lon="11.840912255256557"><ele>1083.5</ele><time>2026-05-02T12:56:26.001Z</time></trkpt><trkpt lat="46.13368376442595" lon="11.840746774701024"><ele>1082.0</ele><time>2026-05-02T12:56:27.001Z</time></trkpt><trkpt lat="46.13369908827883" lon="11.840571697632498"><ele>1080.5</ele><time>2026-05-02T12:56:28.001Z</time></trkpt><trkpt lat="46.13372555176904" lon="11.840394041070027"><ele>1079.0</ele><time>2026-05-02T12:56:29.001Z</time></trkpt><trkpt lat="46.13374898564763" lon="11.840215015525672"><ele>1077.4</ele><time>2026-05-02T12:56:30.001Z</time></trkpt><trkpt lat="46.13378160710622" lon="11.840067889908038"><ele>1075.8000000000002</ele><time>2026-05-02T12:56:31.001Z</time></trkpt><trkpt lat="46.133787595516445" lon="11.839903133516463"><ele>1074.1999999999998</ele><time>2026-05-02T12:56:32.001Z</time></trkpt><trkpt lat="46.1337802336558" lon="11.839744437966704"><ele>1072.6</ele><time>2026-05-02T12:56:33.001Z</time></trkpt><trkpt lat="46.13379720683624" lon="11.839590538750791"><ele>1071.0</ele><time>2026-05-02T12:56:34.001Z</time></trkpt><trkpt lat="46.1338056609796" lon="11.839416322219607"><ele>1068.25</ele><time>2026-05-02T12:56:35.001Z</time></trkpt><trkpt lat="46.13380355815375" lon="11.839233009513608"><ele>1065.5</ele><time>2026-05-02T12:56:36.001Z</time></trkpt><trkpt lat="46.13382094175193" lon="11.839049005790248"><ele>1062.75</ele><time>2026-05-02T12:56:37.001Z</time></trkpt><trkpt lat="46.13382854271116" lon="11.838865512766015"><ele>1060.0</ele><time>2026-05-02T12:56:38.001Z</time></trkpt><trkpt lat="46.13384185335796" lon="11.838679983812973"><ele>1060.0</ele><time>2026-05-02T12:56:39.001Z</time></trkpt><trkpt lat="46.13385501810971" lon="11.838532483418826"><ele>1060.0</ele><time>2026-05-02T12:56:40.001Z</time></trkpt><trkpt lat="46.1338713171038" lon="11.838412487381236"><ele>1060.0</ele><time>2026-05-02T12:56:41.001Z</time></trkpt><trkpt lat="46.13388422839638" lon="11.838308082552569"><ele>1060.0</ele><time>2026-05-02T12:56:42.001Z</time></trkpt><trkpt lat="46.13389651901791" lon="11.838212215301894"><ele>1060.0</ele><time>2026-05-02T12:56:43.001Z</time></trkpt><trkpt lat="46.133904420212154" lon="11.838075441228776"><ele>1060.0</ele><time>2026-05-02T12:56:45.001Z</time></trkpt><trkpt lat="46.13378486864147" lon="11.838003497993755"><ele>1058.8</ele><time>2026-05-02T12:56:50.001Z</time></trkpt><trkpt lat="46.13368552456044" lon="11.837949845783978"><ele>1057.6</ele><time>2026-05-02T12:56:52.001Z</time></trkpt><trkpt lat="46.133608943237526" lon="11.837816638553543"><ele>1056.4</ele><time>2026-05-02T12:56:54.001Z</time></trkpt><trkpt lat="46.133570286200786" lon="11.837708735764577"><ele>1055.2</ele><time>2026-05-02T12:56:55.001Z</time></trkpt><trkpt lat="46.133541075069495" lon="11.837606597322143"><ele>1054.0</ele><time>2026-05-02T12:56:56.001Z</time></trkpt><trkpt lat="46.133550940968945" lon="11.83750052945104"><ele>1049.5</ele><time>2026-05-02T12:56:57.001Z</time></trkpt><trkpt lat="46.133580994283854" lon="11.837403433852845"><ele>1045.0</ele><time>2026-05-02T12:56:58.001Z</time></trkpt><trkpt lat="46.13363749779845" lon="11.8373484994124"><ele>1040.5</ele><time>2026-05-02T12:56:59.001Z</time></trkpt><trkpt lat="46.13370251590071" lon="11.837289775829143"><ele>1036.0</ele><time>2026-05-02T12:57:00.001Z</time></trkpt><trkpt lat="46.13377077243933" lon="11.837210134667632"><ele>1031.5</ele><time>2026-05-02T12:57:01.001Z</time></trkpt><trkpt lat="46.133851248259795" lon="11.837149594424135"><ele>1027.0</ele><time>2026-05-02T12:57:02.001Z</time></trkpt><trkpt lat="46.133945361839615" lon="11.837119751106107"><ele>1027.0</ele><time>2026-05-02T12:57:03.001Z</time></trkpt><trkpt lat="46.13403019858196" lon="11.837071021142263"><ele>1027.0</ele><time>2026-05-02T12:57:04.001Z</time></trkpt><trkpt lat="46.134095267318926" lon="11.837016131396188"><ele>1027.0</ele><time>2026-05-02T12:57:05.001Z</time></trkpt><trkpt lat="46.13416283798274" lon="11.836892934541194"><ele>1027.0</ele><time>2026-05-02T12:57:07.001Z</time></trkpt><trkpt lat="46.13407020869248" lon="11.836802556216579"><ele>1027.0</ele><time>2026-05-02T12:57:09.001Z</time></trkpt><trkpt lat="46.13399443031251" lon="11.836816904334192"><ele>1027.0</ele><time>2026-05-02T12:57:10.001Z</time></trkpt><trkpt lat="46.133914959908616" lon="11.836890270465988"><ele>1027.0</ele><time>2026-05-02T12:57:11.001Z</time></trkpt><trkpt lat="46.13384704429206" lon="11.836953632148562"><ele>1027.0</ele><time>2026-05-02T12:57:12.001Z</time></trkpt><trkpt lat="46.13377144421946" lon="11.836962874063463"><ele>1027.0</ele><time>2026-05-02T12:57:15.001Z</time></trkpt><trkpt lat="46.13385894612935" lon="11.83682946747268"><ele>1027.0</ele><time>2026-05-02T12:57:17.001Z</time></trkpt><trkpt lat="46.13393916534542" lon="11.836780490344845"><ele>1025.0</ele><time>2026-05-02T12:57:18.001Z</time></trkpt><trkpt lat="46.13402150585713" lon="11.836729427136735"><ele>1023.0</ele><time>2026-05-02T12:57:19.001Z</time></trkpt><trkpt lat="46.13408589626436" lon="11.836626868580101"><ele>1021.0</ele><time>2026-05-02T12:57:20.001Z</time></trkpt><trkpt lat="46.1341263661957" lon="11.836495226226805"><ele>1019.0</ele><time>2026-05-02T12:57:21Z</time></trkpt><trkpt lat="46.13414281654493" lon="11.836344850697827"><ele>1017.0</ele><time>2026-05-02T12:57:22Z</time></trkpt><trkpt lat="46.13418534927548" lon="11.836204066386157"><ele>1017.0</ele><time>2026-05-02T12:57:23Z</time></trkpt><trkpt lat="46.134228952716235" lon="11.836065082294567"><ele>1017.0</ele><time>2026-05-02T12:57:24Z</time></trkpt><trkpt lat="46.13427624794633" lon="11.835914412775002"><ele>1017.0</ele><time>2026-05-02T12:57:25Z</time></trkpt><trkpt lat="46.13432177059844" lon="11.835762181062265"><ele>1017.0</ele><time>2026-05-02T12:57:26Z</time></trkpt><trkpt lat="46.13434756271166" lon="11.835609864248442"><ele>1017.0</ele><time>2026-05-02T12:57:27Z</time></trkpt><trkpt lat="46.13438051767734" lon="11.83548735674727"><ele>1012.1666666666666</ele><time>2026-05-02T12:57:28Z</time></trkpt><trkpt lat="46.13443174177018" lon="11.835390972717585"><ele>1007.3333333333333</ele><time>2026-05-02T12:57:29Z</time></trkpt><trkpt lat="46.1344682397368" lon="11.83529473772873"><ele>1002.5</ele><time>2026-05-02T12:57:30Z</time></trkpt><trkpt lat="46.1345471063287" lon="11.835250833850857"><ele>997.6666666666666</ele><time>2026-05-02T12:57:31Z</time></trkpt><trkpt lat="46.13459772245783" lon="11.835123533181491"><ele>992.8333333333333</ele><time>2026-05-02T12:57:33Z</time></trkpt><trkpt lat="46.134534055711434" lon="11.835072988844145"><ele>988.0</ele><time>2026-05-02T12:57:34Z</time></trkpt><trkpt lat="46.134420233624226" lon="11.835079768823721"><ele>988.0</ele><time>2026-05-02T12:57:36Z</time></trkpt><trkpt lat="46.13432986114585" lon="11.835182940218171"><ele>988.0</ele><time>2026-05-02T12:57:37Z</time></trkpt><trkpt lat="46.13426173692111" lon="11.835295007822394"><ele>988.0</ele><time>2026-05-02T12:57:38Z</time></trkpt><trkpt lat="46.13421732689975" lon="11.83541584402417"><ele>988.0</ele><time>2026-05-02T12:57:39Z</time></trkpt><trkpt lat="46.134169055814404" lon="11.835504206411546"><ele>988.0</ele><time>2026-05-02T12:57:40Z</time></trkpt><trkpt lat="46.13411442786135" lon="11.835602853885753"><ele>988.0</ele><time>2026-05-02T12:57:42Z</time></trkpt><trkpt lat="46.13409171581578" lon="11.835517736722775"><ele>988.0</ele><time>2026-05-02T12:57:44Z</time></trkpt><trkpt lat="46.13410116715117" lon="11.83534777693944"><ele>988.0</ele><time>2026-05-02T12:57:46Z</time></trkpt><trkpt lat="46.13417894963283" lon="11.835263782060956"><ele>988.0</ele><time>2026-05-02T12:57:47Z</time></trkpt><trkpt lat="46.13422875507264" lon="11.835160160131641"><ele>988.0</ele><time>2026-05-02T12:57:48Z</time></trkpt><trkpt lat="46.13427784904579" lon="11.835053791368631"><ele>982.3333333333333</ele><time>2026-05-02T12:57:49Z</time></trkpt><trkpt lat="46.13432886849498" lon="11.834947434076817"><ele>976.6666666666666</ele><time>2026-05-02T12:57:50Z</time></trkpt><trkpt lat="46.134380821944724" lon="11.834837349289616"><ele>971.0</ele><time>2026-05-02T12:57:51Z</time></trkpt><trkpt lat="46.134440428055896" lon="11.834738916729536"><ele>965.3333333333333</ele><time>2026-05-02T12:57:52Z</time></trkpt><trkpt lat="46.134514554367435" lon="11.83467670445295"><ele>959.6666666666666</ele><time>2026-05-02T12:57:53Z</time></trkpt><trkpt lat="46.1345773462819" lon="11.83462482370972"><ele>954.0</ele><time>2026-05-02T12:57:54Z</time></trkpt><trkpt lat="46.13460174537838" lon="11.834537054088658"><ele>954.0</ele><time>2026-05-02T12:57:55Z</time></trkpt><trkpt lat="46.13456821902669" lon="11.834446795503997"><ele>954.0</ele><time>2026-05-02T12:57:56Z</time></trkpt><trkpt lat="46.13449937078305" lon="11.834427942618856"><ele>954.0</ele><time>2026-05-02T12:57:57Z</time></trkpt><trkpt lat="46.13442695113754" lon="11.834454557951398"><ele>954.0</ele><time>2026-05-02T12:57:58Z</time></trkpt><trkpt lat="46.13436545011332" lon="11.834477665398797"><ele>954.0</ele><time>2026-05-02T12:57:59Z</time></trkpt><trkpt lat="46.1342654439002" lon="11.83450753646505"><ele>954.0</ele><time>2026-05-02T12:58:01Z</time></trkpt><trkpt lat="46.13417514071706" lon="11.834474360287043"><ele>954.0</ele><time>2026-05-02T12:58:03.001Z</time></trkpt><trkpt lat="46.13414318777902" lon="11.83438871781247"><ele>954.0</ele><time>2026-05-02T12:58:04.001Z</time></trkpt><trkpt lat="46.13412653898678" lon="11.834295961527786"><ele>954.0</ele><time>2026-05-02T12:58:05.001Z</time></trkpt><trkpt lat="46.13413267159192" lon="11.834189719845485"><ele>954.0</ele><time>2026-05-02T12:58:06.001Z</time></trkpt><trkpt lat="46.13415949924456" lon="11.834084614800046"><ele>954.0</ele><time>2026-05-02T12:58:07.001Z</time></trkpt><trkpt lat="46.13419491896377" lon="11.833967656756641"><ele>954.0</ele><time>2026-05-02T12:58:08.001Z</time></trkpt><trkpt lat="46.134234478863036" lon="11.83385670042202"><ele>950.6</ele><time>2026-05-02T12:58:09.001Z</time></trkpt><trkpt lat="46.134285052696214" lon="11.83376034646208"><ele>947.2</ele><time>2026-05-02T12:58:10.001Z</time></trkpt><trkpt lat="46.134281217369775" lon="11.833631469565887"><ele>943.8000000000001</ele><time>2026-05-02T12:58:11.001Z</time></trkpt><trkpt lat="46.134285478221415" lon="11.833498545455596"><ele>940.4000000000001</ele><time>2026-05-02T12:58:12.001Z</time></trkpt><trkpt lat="46.134283675990545" lon="11.833359261936732"><ele>937.0</ele><time>2026-05-02T12:58:13.001Z</time></trkpt><trkpt lat="46.134274090351816" lon="11.833218128685415"><ele>934.8</ele><time>2026-05-02T12:58:14.001Z</time></trkpt><trkpt lat="46.134258182021846" lon="11.833075211185136"><ele>932.6</ele><time>2026-05-02T12:58:15.001Z</time></trkpt><trkpt lat="46.13421536992358" lon="11.83295449813661"><ele>930.3999999999999</ele><time>2026-05-02T12:58:16.001Z</time></trkpt><trkpt lat="46.134174322555296" lon="11.832822766037276"><ele>928.1999999999999</ele><time>2026-05-02T12:58:17.001Z</time></trkpt><trkpt lat="46.13411804240664" lon="11.832698608376308"><ele>926.0</ele><time>2026-05-02T12:58:18.001Z</time></trkpt><trkpt lat="46.13405724466649" lon="11.832587857615213"><ele>945.4</ele><time>2026-05-02T12:58:19.001Z</time></trkpt><trkpt lat="46.133990938214716" lon="11.832480129888854"><ele>964.8</ele><time>2026-05-02T12:58:20.001Z</time></trkpt><trkpt lat="46.133963269293034" lon="11.832347502833318"><ele>984.1999999999999</ele><time>2026-05-02T12:58:21.001Z</time></trkpt><trkpt lat="46.13393495096771" lon="11.832211497647098"><ele>1003.5999999999999</ele><time>2026-05-02T12:58:22.001Z</time></trkpt><trkpt lat="46.133914212312355" lon="11.832086624566132"><ele>1023.0</ele><time>2026-05-02T12:58:23.001Z</time></trkpt><trkpt lat="46.13389332114696" lon="11.831961324219355"><ele>1023.0</ele><time>2026-05-02T12:58:24.001Z</time></trkpt><trkpt lat="46.133863547489014" lon="11.831829029577312"><ele>1023.0</ele><time>2026-05-02T12:58:25.001Z</time></trkpt><trkpt lat="46.13383267027089" lon="11.831698284630178"><ele>1023.0</ele><time>2026-05-02T12:58:26.001Z</time></trkpt><trkpt lat="46.133820430926384" lon="11.83154951741907"><ele>1023.0</ele><time>2026-05-02T12:58:27.001Z</time></trkpt><trkpt lat="46.13382283692052" lon="11.831391281161189"><ele>1023.0</ele><time>2026-05-02T12:58:28.001Z</time></trkpt><trkpt lat="46.133843732707895" lon="11.831238785951413"><ele>1017.2</ele><time>2026-05-02T12:58:29.001Z</time></trkpt><trkpt lat="46.13387379634472" lon="11.831092728054234"><ele>1011.4</ele><time>2026-05-02T12:58:30.001Z</time></trkpt><trkpt lat="46.13390733225677" lon="11.830945618804934"><ele>1005.6000000000001</ele><time>2026-05-02T12:58:31.001Z</time></trkpt><trkpt lat="46.133937322456674" lon="11.83081083825617"><ele>999.8000000000001</ele><time>2026-05-02T12:58:32.001Z</time></trkpt><trkpt lat="46.13396029673046" lon="11.830677346706572"><ele>994.0</ele><time>2026-05-02T12:58:33.001Z</time></trkpt><trkpt lat="46.13399167579305" lon="11.830539459396311"><ele>980.4000000000001</ele><time>2026-05-02T12:58:34.001Z</time></trkpt><trkpt lat="46.133986729781704" lon="11.830379924429701"><ele>966.8000000000001</ele><time>2026-05-02T12:58:35.001Z</time></trkpt><trkpt lat="46.1339899016456" lon="11.830219771771407"><ele>953.1999999999999</ele><time>2026-05-02T12:58:36.001Z</time></trkpt><trkpt lat="46.133986094209604" lon="11.830061174895036"><ele>939.5999999999999</ele><time>2026-05-02T12:58:37.001Z</time></trkpt><trkpt lat="46.133982845275405" lon="11.829905495592984"><ele>926.0</ele><time>2026-05-02T12:58:38.001Z</time></trkpt><trkpt lat="46.13398876576728" lon="11.8297608283173"><ele>926.0000000000001</ele><time>2026-05-02T12:58:39.001Z</time></trkpt><trkpt lat="46.13399201093547" lon="11.829628988259449"><ele>926.0</ele><time>2026-05-02T12:58:40.001Z</time></trkpt><trkpt lat="46.13396202992466" lon="11.829520719030706"><ele>926.0</ele><time>2026-05-02T12:58:41.001Z</time></trkpt><trkpt lat="46.133938451016704" lon="11.829422538151405"><ele>926.0</ele><time>2026-05-02T12:58:42.001Z</time></trkpt><trkpt lat="46.13390957924022" lon="11.829323583935889"><ele>926.0000000000001</ele><time>2026-05-02T12:58:43.001Z</time></trkpt><trkpt lat="46.13387510289555" lon="11.829220610178389"><ele>926.0</ele><time>2026-05-02T12:58:44.001Z</time></trkpt><trkpt lat="46.13382975170305" lon="11.829101600108721"><ele>926.0</ele><time>2026-05-02T12:58:45.001Z</time></trkpt><trkpt lat="46.13378510361455" lon="11.828977942636302"><ele>925.9999999999999</ele><time>2026-05-02T12:58:46.001Z</time></trkpt><trkpt lat="46.13371990463961" lon="11.828861970696652"><ele>925.9999999999999</ele><time>2026-05-02T12:58:47.001Z</time></trkpt><trkpt lat="46.13366067711679" lon="11.828739673242517"><ele>926.0</ele><time>2026-05-02T12:58:48.001Z</time></trkpt><trkpt lat="46.13361654106002" lon="11.828594993949341"><ele>926.0</ele><time>2026-05-02T12:58:49.001Z</time></trkpt><trkpt lat="46.13354743334001" lon="11.828484681895894"><ele>926.0</ele><time>2026-05-02T12:58:50.001Z</time></trkpt><trkpt lat="46.13348735686922" lon="11.828374993430648"><ele>925.9999999999999</ele><time>2026-05-02T12:58:51.001Z</time></trkpt><trkpt lat="46.13342750370661" lon="11.82826757487902"><ele>925.9999999999999</ele><time>2026-05-02T12:58:52.001Z</time></trkpt><trkpt lat="46.13335051353936" lon="11.82818145546015"><ele>926.0</ele><time>2026-05-02T12:58:53.001Z</time></trkpt><trkpt lat="46.13329089846651" lon="11.828082756985715"><ele>926.0</ele><time>2026-05-02T12:58:54.001Z</time></trkpt><trkpt lat="46.13323552783156" lon="11.827999563806921"><ele>958.3333333333334</ele><time>2026-05-02T12:58:55.001Z</time></trkpt><trkpt lat="46.13318761721743" lon="11.827934413457804"><ele>990.6666666666667</ele><time>2026-05-02T12:58:56.001Z</time></trkpt><trkpt lat="46.13313885471238" lon="11.827868102477725"><ele>1023.0</ele><time>2026-05-02T12:58:57.001Z</time></trkpt><trkpt lat="46.13307584800485" lon="11.827782270619885"><ele>1055.3333333333333</ele><time>2026-05-02T12:58:59.001Z</time></trkpt><trkpt lat="46.13302871103474" lon="11.827718010054866"><ele>1087.6666666666665</ele><time>2026-05-02T12:59:01.001Z</time></trkpt><trkpt lat="46.13296070027566" lon="11.82756642502857"><ele>1120.0</ele><time>2026-05-02T12:59:03.001Z</time></trkpt><trkpt lat="46.1328828478178" lon="11.82747284130193"><ele>1120.0</ele><time>2026-05-02T12:59:04.001Z</time></trkpt><trkpt lat="46.13280641974113" lon="11.827341002350543"><ele>1120.0</ele><time>2026-05-02T12:59:05.001Z</time></trkpt><trkpt lat="46.132732581791494" lon="11.82718508288922"><ele>1120.0</ele><time>2026-05-02T12:59:06.001Z</time></trkpt><trkpt lat="46.13267392745525" lon="11.827030347599266"><ele>1120.0</ele><time>2026-05-02T12:59:07.015Z</time></trkpt><trkpt lat="46.13262135817033" lon="11.826855937975143"><ele>1120.0</ele><time>2026-05-02T12:59:08.015Z</time></trkpt><trkpt lat="46.13256988554296" lon="11.826683136405874"><ele>1120.0</ele><time>2026-05-02T12:59:09.014Z</time></trkpt><trkpt lat="46.13252523881311" lon="11.826509871656821"><ele>1120.0</ele><time>2026-05-02T12:59:10.015Z</time></trkpt><trkpt lat="46.13240322209869" lon="11.82573460500332"><ele>1122.75</ele><time>2026-05-02T12:59:14.319Z</time></trkpt><trkpt lat="46.13238267366663" lon="11.825546463130344"><ele>1125.5</ele><time>2026-05-02T12:59:15.32Z</time></trkpt><trkpt lat="46.13236467598916" lon="11.825358504803747"><ele>1128.25</ele><time>2026-05-02T12:59:16.319Z</time></trkpt><trkpt lat="46.132348916107766" lon="11.82516992348425"><ele>1131.0</ele><time>2026-05-02T12:59:17.317Z</time></trkpt><trkpt lat="46.132334430931984" lon="11.824979992043083"><ele>1114.75</ele><time>2026-05-02T12:59:18.32Z</time></trkpt><trkpt lat="46.132321098736234" lon="11.82479090160441"><ele>1098.5</ele><time>2026-05-02T12:59:19.319Z</time></trkpt><trkpt lat="46.13229167068056" lon="11.824602809728022"><ele>1082.25</ele><time>2026-05-02T12:59:20.322Z</time></trkpt><trkpt lat="46.13229702876226" lon="11.824411036151034"><ele>1066.0</ele><time>2026-05-02T12:59:21.322Z</time></trkpt><trkpt lat="46.13243677657668" lon="11.8227021675667"><ele>1066.0</ele><time>2026-05-02T12:59:31.001Z</time></trkpt><trkpt lat="46.132419706391325" lon="11.822560665527998"><ele>1066.0</ele><time>2026-05-02T12:59:32.001Z</time></trkpt><trkpt lat="46.13226321685809" lon="11.822441252129572"><ele>1066.0</ele><time>2026-05-02T12:59:33.001Z</time></trkpt><trkpt lat="46.132232528117086" lon="11.822307020275563"><ele>1066.0</ele><time>2026-05-02T12:59:34.001Z</time></trkpt><trkpt lat="46.13219876465196" lon="11.822162226211567"><ele>1066.0</ele><time>2026-05-02T12:59:35.001Z</time></trkpt><trkpt lat="46.13215884459919" lon="11.82199072138333"><ele>1066.0</ele><time>2026-05-02T12:59:36.001Z</time></trkpt><trkpt lat="46.13212360018258" lon="11.821818172054018"><ele>1066.0</ele><time>2026-05-02T12:59:37Z</time></trkpt><trkpt lat="46.13209577273191" lon="11.821638340188532"><ele>1066.0</ele><time>2026-05-02T12:59:38Z</time></trkpt><trkpt lat="46.13208133348479" lon="11.821441784729073"><ele>1066.0</ele><time>2026-05-02T12:59:39Z</time></trkpt><trkpt lat="46.13208543650325" lon="11.821275867241614"><ele>1066.0</ele><time>2026-05-02T12:59:40Z</time></trkpt><trkpt lat="46.13209066840034" lon="11.821124734663629"><ele>1066.0</ele><time>2026-05-02T12:59:41Z</time></trkpt><trkpt lat="46.13209582988998" lon="11.820971773525818"><ele>1066.0</ele><time>2026-05-02T12:59:42Z</time></trkpt><trkpt lat="46.13208536833581" lon="11.820845557262729"><ele>1066.0</ele><time>2026-05-02T12:59:43Z</time></trkpt><trkpt lat="46.132099253782826" lon="11.82069821523134"><ele>1066.0</ele><time>2026-05-02T12:59:44Z</time></trkpt><trkpt lat="46.13210415713435" lon="11.82055552919121"><ele>1066.0</ele><time>2026-05-02T12:59:45Z</time></trkpt><trkpt lat="46.13211746585394" lon="11.820435544401175"><ele>1066.0</ele><time>2026-05-02T12:59:46Z</time></trkpt><trkpt lat="46.13209578532898" lon="11.820329668430096"><ele>1066.0</ele><time>2026-05-02T12:59:47Z</time></trkpt><trkpt lat="46.132063013214946" lon="11.82021268388248"><ele>1066.0</ele><time>2026-05-02T12:59:48Z</time></trkpt><trkpt lat="46.1320192232313" lon="11.820083660370928"><ele>1066.0</ele><time>2026-05-02T12:59:49Z</time></trkpt><trkpt lat="46.13195529172948" lon="11.819961165636066"><ele>1066.0</ele><time>2026-05-02T12:59:50Z</time></trkpt><trkpt lat="46.13190028746984" lon="11.819836148135142"><ele>1066.0</ele><time>2026-05-02T12:59:51Z</time></trkpt><trkpt lat="46.13187376749433" lon="11.819697301895802"><ele>1066.0</ele><time>2026-05-02T12:59:52Z</time></trkpt><trkpt lat="46.13185885707985" lon="11.81955421455314"><ele>1066.0</ele><time>2026-05-02T12:59:53Z</time></trkpt><trkpt lat="46.131815064289654" lon="11.81942685540234"><ele>1066.0</ele><time>2026-05-02T12:59:54Z</time></trkpt><trkpt lat="46.1317832412771" lon="11.819294677500979"><ele>1066.0</ele><time>2026-05-02T12:59:55Z</time></trkpt><trkpt lat="46.13175247282445" lon="11.819160199906813"><ele>1066.0</ele><time>2026-05-02T12:59:56Z</time></trkpt><trkpt lat="46.13171297895682" lon="11.819041684612587"><ele>1066.0</ele><time>2026-05-02T12:59:57Z</time></trkpt><trkpt lat="46.13168163237057" lon="11.818917336639627"><ele>1066.0</ele><time>2026-05-02T12:59:58Z</time></trkpt><trkpt lat="46.13165774967974" lon="11.818779756530784"><ele>1066.0</ele><time>2026-05-02T12:59:59Z</time></trkpt><trkpt lat="46.13166197286118" lon="11.81865415213016"><ele>1066.0</ele><time>2026-05-02T13:00:00Z</time></trkpt><trkpt lat="46.13169382522414" lon="11.81852592373685"><ele>1066.0</ele><time>2026-05-02T13:00:01Z</time></trkpt><trkpt lat="46.13174123498837" lon="11.818412920141649"><ele>1066.0</ele><time>2026-05-02T13:00:02Z</time></trkpt><trkpt lat="46.131771814275695" lon="11.818291375487561"><ele>1066.0</ele><time>2026-05-02T13:00:03Z</time></trkpt><trkpt lat="46.131818694355545" lon="11.818170035819048"><ele>1066.0</ele><time>2026-05-02T13:00:04Z</time></trkpt><trkpt lat="46.13183280145341" lon="11.818043178800632"><ele>1066.0</ele><time>2026-05-02T13:00:05Z</time></trkpt><trkpt lat="46.131840267075276" lon="11.817905289792213"><ele>1066.0</ele><time>2026-05-02T13:00:06Z</time></trkpt><trkpt lat="46.13176353670343" lon="11.81778552926719"><ele>1066.0</ele><time>2026-05-02T13:00:07Z</time></trkpt><trkpt lat="46.131721559565904" lon="11.8176547726431"><ele>1066.0</ele><time>2026-05-02T13:00:08Z</time></trkpt><trkpt lat="46.13172147827349" lon="11.817528078631199"><ele>1066.0</ele><time>2026-05-02T13:00:09Z</time></trkpt><trkpt lat="46.131701308568495" lon="11.817380729642107"><ele>1066.0</ele><time>2026-05-02T13:00:10Z</time></trkpt><trkpt lat="46.13166928609079" lon="11.817252437268234"><ele>1066.0</ele><time>2026-05-02T13:00:11Z</time></trkpt><trkpt lat="46.13162787512695" lon="11.817124370988976"><ele>1066.0</ele><time>2026-05-02T13:00:12Z</time></trkpt><trkpt lat="46.13153577803737" lon="11.81703470872329"><ele>1066.0</ele><time>2026-05-02T13:00:13Z</time></trkpt><trkpt lat="46.131444429002315" lon="11.816982403906046"><ele>1066.0</ele><time>2026-05-02T13:00:14Z</time></trkpt><trkpt lat="46.131363837131225" lon="11.816940546578543"><ele>1066.0</ele><time>2026-05-02T13:00:15Z</time></trkpt><trkpt lat="46.13132350906296" lon="11.816844396074083"><ele>1066.0</ele><time>2026-05-02T13:00:16Z</time></trkpt><trkpt lat="46.13133229816351" lon="11.816723423856379"><ele>1066.0</ele><time>2026-05-02T13:00:17Z</time></trkpt><trkpt lat="46.131377276663166" lon="11.816617628497742"><ele>1066.0</ele><time>2026-05-02T13:00:18Z</time></trkpt><trkpt lat="46.13141759227688" lon="11.816472670240058"><ele>1066.0</ele><time>2026-05-02T13:00:19Z</time></trkpt><trkpt lat="46.131459595888856" lon="11.816303103341436"><ele>1066.0</ele><time>2026-05-02T13:00:20Z</time></trkpt><trkpt lat="46.13150371897689" lon="11.816122600260943"><ele>1066.0</ele><time>2026-05-02T13:00:21Z</time></trkpt><trkpt lat="46.13155384262557" lon="11.81592386800717"><ele>1066.0</ele><time>2026-05-02T13:00:22Z</time></trkpt><trkpt lat="46.131607202494955" lon="11.815717551670295"><ele>1066.0</ele><time>2026-05-02T13:00:23.015Z</time></trkpt><trkpt lat="46.131661341328936" lon="11.815509047633123"><ele>1066.0</ele><time>2026-05-02T13:00:24.016Z</time></trkpt><trkpt lat="46.13171515986741" lon="11.815290518908876"><ele>1066.0</ele><time>2026-05-02T13:00:25.015Z</time></trkpt><trkpt lat="46.131768805571795" lon="11.815076533650803"><ele>1066.0</ele><time>2026-05-02T13:00:26.016Z</time></trkpt><trkpt lat="46.13203362319978" lon="11.8141737982775"><ele>1066.0</ele><time>2026-05-02T13:00:30.32Z</time></trkpt><trkpt lat="46.13206745130264" lon="11.813949393199563"><ele>1066.0</ele><time>2026-05-02T13:00:31.324Z</time></trkpt><trkpt lat="46.13211440271185" lon="11.813733446050701"><ele>1066.0</ele><time>2026-05-02T13:00:32.318Z</time></trkpt><trkpt lat="46.13216273668319" lon="11.813515685078235"><ele>1066.0</ele><time>2026-05-02T13:00:33.322Z</time></trkpt><trkpt lat="46.13223399199533" lon="11.81331187477912"><ele>1066.0</ele><time>2026-05-02T13:00:34.323Z</time></trkpt><trkpt lat="46.13229551908555" lon="11.813102959345835"><ele>1066.0</ele><time>2026-05-02T13:00:35.323Z</time></trkpt><trkpt lat="46.132344438222034" lon="11.812886057408145"><ele>1066.0</ele><time>2026-05-02T13:00:36.319Z</time></trkpt><trkpt lat="46.13242391610999" lon="11.812688132668283"><ele>1066.0</ele><time>2026-05-02T13:00:37.318Z</time></trkpt><trkpt lat="46.132486088556945" lon="11.812476837612056"><ele>1066.0</ele><time>2026-05-02T13:00:38.323Z</time></trkpt><trkpt lat="46.132542683203134" lon="11.812263540014843"><ele>1066.0</ele><time>2026-05-02T13:00:39.322Z</time></trkpt><trkpt lat="46.132580565709574" lon="11.812041035665738"><ele>1066.0</ele><time>2026-05-02T13:00:40.323Z</time></trkpt><trkpt lat="46.13263604822105" lon="11.811828334430986"><ele>1066.0</ele><time>2026-05-02T13:00:41.321Z</time></trkpt><trkpt lat="46.13270847262348" lon="11.811625415905299"><ele>1066.0</ele><time>2026-05-02T13:00:42.318Z</time></trkpt><trkpt lat="46.132763939224404" lon="11.81141064389957"><ele>1066.0</ele><time>2026-05-02T13:00:43.323Z</time></trkpt><trkpt lat="46.132791603743016" lon="11.811184758815838"><ele>1066.0</ele><time>2026-05-02T13:00:44.318Z</time></trkpt><trkpt lat="46.13282578400275" lon="11.810962347581363"><ele>906.5</ele><time>2026-05-02T13:00:45.319Z</time></trkpt><trkpt lat="46.1328716" lon="11.8107869"><ele>747.0</ele><time>2026-05-02T13:00:46.323Z</time></trkpt><trkpt lat="46.133300950793675" lon="11.810070471849116"><ele>747.0</ele><time>2026-05-02T13:00:53.001Z</time></trkpt><trkpt lat="46.13337920229673" lon="11.810023038530389"><ele>747.0</ele><time>2026-05-02T13:00:54.001Z</time></trkpt><trkpt lat="46.13340534500234" lon="11.809925802278977"><ele>747.0</ele><time>2026-05-02T13:00:55.001Z</time></trkpt><trkpt lat="46.133461883059866" lon="11.809842544399412"><ele>747.0</ele><time>2026-05-02T13:00:56.001Z</time></trkpt><trkpt lat="46.13353116123506" lon="11.809751416962829"><ele>747.0</ele><time>2026-05-02T13:00:57.001Z</time></trkpt><trkpt lat="46.13359907646368" lon="11.809626990736158"><ele>747.0</ele><time>2026-05-02T13:00:58.001Z</time></trkpt><trkpt lat="46.13365327904462" lon="11.809501790101912"><ele>753.75</ele><time>2026-05-02T13:00:59.001Z</time></trkpt><trkpt lat="46.13372653893415" lon="11.809293214821025"><ele>760.5</ele><time>2026-05-02T13:01:00.001Z</time></trkpt><trkpt lat="46.13379136070139" lon="11.809148857363164"><ele>767.25</ele><time>2026-05-02T13:01:01.001Z</time></trkpt><trkpt lat="46.13384211468293" lon="11.80899543649275"><ele>774.0</ele><time>2026-05-02T13:01:02.001Z</time></trkpt><trkpt lat="46.13388114704289" lon="11.808839930877394"><ele>774.0</ele><time>2026-05-02T13:01:03.001Z</time></trkpt><trkpt lat="46.133920862450395" lon="11.808684988444716"><ele>774.0</ele><time>2026-05-02T13:01:04.001Z</time></trkpt><trkpt lat="46.133982993747836" lon="11.808546969886754"><ele>774.0</ele><time>2026-05-02T13:01:05.001Z</time></trkpt><trkpt lat="46.13407430178521" lon="11.808443613062815"><ele>774.0</ele><time>2026-05-02T13:01:06.001Z</time></trkpt><trkpt lat="46.13418336711504" lon="11.808375571824833"><ele>767.5</ele><time>2026-05-02T13:01:07.001Z</time></trkpt><trkpt lat="46.134295559020096" lon="11.8083265198468"><ele>761.0</ele><time>2026-05-02T13:01:08.001Z</time></trkpt><trkpt lat="46.13440151849625" lon="11.80826625565646"><ele>754.5</ele><time>2026-05-02T13:01:09.001Z</time></trkpt><trkpt lat="46.134498055554786" lon="11.80817601754882"><ele>748.0</ele><time>2026-05-02T13:01:10.001Z</time></trkpt><trkpt lat="46.13458339295785" lon="11.808068446610907"><ele>748.0</ele><time>2026-05-02T13:01:11.001Z</time></trkpt><trkpt lat="46.13466232632112" lon="11.807952759741953"><ele>748.0</ele><time>2026-05-02T13:01:12.001Z</time></trkpt><trkpt lat="46.13473973483194" lon="11.807835956775557"><ele>748.0</ele><time>2026-05-02T13:01:13.001Z</time></trkpt><trkpt lat="46.13481560347159" lon="11.807721243532429"><ele>748.0</ele><time>2026-05-02T13:01:14.001Z</time></trkpt><trkpt lat="46.13489171582355" lon="11.807605559887579"><ele>748.0</ele><time>2026-05-02T13:01:15.001Z</time></trkpt><trkpt lat="46.13496535181633" lon="11.807491484141925"><ele>741.5</ele><time>2026-05-02T13:01:16.001Z</time></trkpt><trkpt lat="46.135041601165376" lon="11.807359596073853"><ele>735.0</ele><time>2026-05-02T13:01:17.001Z</time></trkpt><trkpt lat="46.1351112925324" lon="11.807219574830096"><ele>728.5</ele><time>2026-05-02T13:01:18.001Z</time></trkpt><trkpt lat="46.135159102498235" lon="11.807074031912416"><ele>722.0</ele><time>2026-05-02T13:01:19.001Z</time></trkpt><trkpt lat="46.13520995504938" lon="11.806936888310938"><ele>722.0</ele><time>2026-05-02T13:01:20.001Z</time></trkpt><trkpt lat="46.13527065852067" lon="11.806824719959948"><ele>722.0</ele><time>2026-05-02T13:01:21.001Z</time></trkpt><trkpt lat="46.13533013089415" lon="11.806748890733195"><ele>722.0</ele><time>2026-05-02T13:01:22.001Z</time></trkpt><trkpt lat="46.13540197698547" lon="11.806714223967228"><ele>722.0</ele><time>2026-05-02T13:01:23.001Z</time></trkpt><trkpt lat="46.135472929648564" lon="11.806730668881595"><ele>722.0</ele><time>2026-05-02T13:01:24.001Z</time></trkpt><trkpt lat="46.13553254104506" lon="11.806770333911173"><ele>722.0</ele><time>2026-05-02T13:01:25.001Z</time></trkpt><trkpt lat="46.13561960316576" lon="11.806850621249536"><ele>722.0</ele><time>2026-05-02T13:01:27.001Z</time></trkpt><trkpt lat="46.13566761760205" lon="11.806927586472009"><ele>722.0</ele><time>2026-05-02T13:01:29.001Z</time></trkpt><trkpt lat="46.135702076399824" lon="11.807004419448553"><ele>722.0</ele><time>2026-05-02T13:01:33.001Z</time></trkpt></trkseg><trkseg><trkpt lat="46.14528228023602" lon="11.802106598119746"><ele>646.0</ele><time>2026-05-02T14:08:01Z</time></trkpt><trkpt lat="46.14533650450434" lon="11.802178117399082"><ele>646.0</ele><time>2026-05-02T14:08:02Z</time></trkpt><trkpt lat="46.145390187283134" lon="11.802253478056695"><ele>646.0</ele><time>2026-05-02T14:08:03Z</time></trkpt><trkpt lat="46.14545468410833" lon="11.80233547774254"><ele>646.0</ele><time>2026-05-02T14:08:04Z</time></trkpt><trkpt lat="46.14553183554862" lon="11.802417055437452"><ele>646.0</ele><time>2026-05-02T14:08:05Z</time></trkpt><trkpt lat="46.14562577879129" lon="11.80249577383541"><ele>646.0</ele><time>2026-05-02T14:08:06Z</time></trkpt><trkpt lat="46.14573409229585" lon="11.802575786719036"><ele>646.5</ele><time>2026-05-02T14:08:07Z</time></trkpt><trkpt lat="46.145838932155065" lon="11.802653445091309"><ele>647.0</ele><time>2026-05-02T14:08:08Z</time></trkpt><trkpt lat="46.145939094194524" lon="11.802730938577806"><ele>647.5</ele><time>2026-05-02T14:08:09Z</time></trkpt><trkpt lat="46.14604295018434" lon="11.802809645773392"><ele>648.0</ele><time>2026-05-02T14:08:10Z</time></trkpt><trkpt lat="46.14614970634892" lon="11.802891523820307"><ele>648.0</ele><time>2026-05-02T14:08:11Z</time></trkpt><trkpt lat="46.14625983084232" lon="11.802973170188546"><ele>648.0</ele><time>2026-05-02T14:08:12Z</time></trkpt><trkpt lat="46.14636740772048" lon="11.803047495159282"><ele>648.0</ele><time>2026-05-02T14:08:13Z</time></trkpt><trkpt lat="46.14646808084117" lon="11.8031203949585"><ele>648.0</ele><time>2026-05-02T14:08:14Z</time></trkpt><trkpt lat="46.14656285966096" lon="11.803197898894384"><ele>645.75</ele><time>2026-05-02T14:08:15Z</time></trkpt><trkpt lat="46.146655250139155" lon="11.80327749449999"><ele>643.5</ele><time>2026-05-02T14:08:16Z</time></trkpt><trkpt lat="46.14674435754438" lon="11.80337633091382"><ele>641.25</ele><time>2026-05-02T14:08:17Z</time></trkpt><trkpt lat="46.146834250368876" lon="11.80348984425614"><ele>639.0</ele><time>2026-05-02T14:08:18Z</time></trkpt><trkpt lat="46.14692468702988" lon="11.803612342250764"><ele>639.0</ele><time>2026-05-02T14:08:19Z</time></trkpt><trkpt lat="46.14701938738228" lon="11.80373776036762"><ele>639.0</ele><time>2026-05-02T14:08:20Z</time></trkpt><trkpt lat="46.14710693464692" lon="11.803856286744438"><ele>639.0</ele><time>2026-05-02T14:08:21Z</time></trkpt><trkpt lat="46.147189427382294" lon="11.803965240409479"><ele>639.0</ele><time>2026-05-02T14:08:22Z</time></trkpt><trkpt lat="46.14726425385237" lon="11.804069074813176"><ele>639.0</ele><time>2026-05-02T14:08:23Z</time></trkpt><trkpt lat="46.14734841576604" lon="11.804188030274016"><ele>639.0</ele><time>2026-05-02T14:08:24Z</time></trkpt><trkpt lat="46.14743621494654" lon="11.804315679319378"><ele>639.0</ele><time>2026-05-02T14:08:25Z</time></trkpt><trkpt lat="46.1475287733311" lon="11.8044639425879"><ele>639.0</ele><time>2026-05-02T14:08:26Z</time></trkpt><trkpt lat="46.14761936457345" lon="11.80462367980636"><ele>639.0</ele><time>2026-05-02T14:08:27Z</time></trkpt><trkpt lat="46.14769882659133" lon="11.804787041991556"><ele>639.0</ele><time>2026-05-02T14:08:28Z</time></trkpt><trkpt lat="46.14777212663191" lon="11.804961805881474"><ele>639.0</ele><time>2026-05-02T14:08:29Z</time></trkpt><trkpt lat="46.14783793847307" lon="11.805152558404501"><ele>639.0</ele><time>2026-05-02T14:08:30Z</time></trkpt><trkpt lat="46.14789930185614" lon="11.80535795016338"><ele>646.3333333333334</ele><time>2026-05-02T14:08:31Z</time></trkpt><trkpt lat="46.147961849001014" lon="11.805568215333516"><ele>653.6666666666667</ele><time>2026-05-02T14:08:32Z</time></trkpt><trkpt lat="46.14802766240612" lon="11.805781724723658"><ele>661.0</ele><time>2026-05-02T14:08:33Z</time></trkpt><trkpt lat="46.14809186289848" lon="11.805995984437168"><ele>669.0</ele><time>2026-05-02T14:08:34Z</time></trkpt><trkpt lat="46.14815615520065" lon="11.806212549313297"><ele>677.0</ele><time>2026-05-02T14:08:35Z</time></trkpt><trkpt lat="46.14822206875536" lon="11.806429881201753"><ele>685.0</ele><time>2026-05-02T14:08:36Z</time></trkpt><trkpt lat="46.148291913821524" lon="11.806647284064232"><ele>671.6666666666667</ele><time>2026-05-02T14:08:37Z</time></trkpt><trkpt lat="46.14835914950873" lon="11.806856462317057"><ele>658.3333333333334</ele><time>2026-05-02T14:08:38Z</time></trkpt><trkpt lat="46.148418150164375" lon="11.80706818037168"><ele>645.0</ele><time>2026-05-02T14:08:39Z</time></trkpt><trkpt lat="46.148467633211474" lon="11.80728630611326"><ele>645.0</ele><time>2026-05-02T14:08:40Z</time></trkpt><trkpt lat="46.14850874201256" lon="11.807504333757356"><ele>645.0</ele><time>2026-05-02T14:08:41Z</time></trkpt><trkpt lat="46.1485398587163" lon="11.807726959121512"><ele>645.0</ele><time>2026-05-02T14:08:42Z</time></trkpt><trkpt lat="46.148619275285924" lon="11.807906436012884"><ele>642.4</ele><time>2026-05-02T14:08:43Z</time></trkpt><trkpt lat="46.148688815347874" lon="11.80806144026704"><ele>639.8</ele><time>2026-05-02T14:08:44Z</time></trkpt><trkpt lat="46.14878392141885" lon="11.808172148240264"><ele>637.2</ele><time>2026-05-02T14:08:45Z</time></trkpt><trkpt lat="46.148875227162726" lon="11.808222617223448"><ele>634.6</ele><time>2026-05-02T14:08:46Z</time></trkpt><trkpt lat="46.14895735443646" lon="11.808197054082115"><ele>632.0</ele><time>2026-05-02T14:08:47Z</time></trkpt><trkpt lat="46.14904878065849" lon="11.808150072826862"><ele>632.0</ele><time>2026-05-02T14:08:48Z</time></trkpt><trkpt lat="46.14914466526827" lon="11.8080769753919"><ele>632.0</ele><time>2026-05-02T14:08:49Z</time></trkpt><trkpt lat="46.149243185799605" lon="11.808004328560262"><ele>632.0</ele><time>2026-05-02T14:08:50Z</time></trkpt><trkpt lat="46.14934481265795" lon="11.807933218513808"><ele>632.0</ele><time>2026-05-02T14:08:51.001Z</time></trkpt><trkpt lat="46.14943937330543" lon="11.807865795746846"><ele>632.0</ele><time>2026-05-02T14:08:52.001Z</time></trkpt><trkpt lat="46.14952490391541" lon="11.807800443213935"><ele>632.0</ele><time>2026-05-02T14:08:53.001Z</time></trkpt><trkpt lat="46.14960320610517" lon="11.807757784594067"><ele>632.0</ele><time>2026-05-02T14:08:54.001Z</time></trkpt><trkpt lat="46.14968049726508" lon="11.807756307486267"><ele>632.0</ele><time>2026-05-02T14:08:55.001Z</time></trkpt><trkpt lat="46.1497465127577" lon="11.807818492380976"><ele>632.0</ele><time>2026-05-02T14:08:56.001Z</time></trkpt><trkpt lat="46.14980943329774" lon="11.807930905853187"><ele>632.0</ele><time>2026-05-02T14:08:57.001Z</time></trkpt><trkpt lat="46.14985123880953" lon="11.808078545001733"><ele>631.5</ele><time>2026-05-02T14:08:58.001Z</time></trkpt><trkpt lat="46.149885147871736" lon="11.8082480876067"><ele>631.0</ele><time>2026-05-02T14:08:59.001Z</time></trkpt><trkpt lat="46.14993024519643" lon="11.808432031042441"><ele>630.5</ele><time>2026-05-02T14:09:00.001Z</time></trkpt><trkpt lat="46.1499986651542" lon="11.808622259623354"><ele>630.0</ele><time>2026-05-02T14:09:01.001Z</time></trkpt><trkpt lat="46.15007873887471" lon="11.808811897538755"><ele>629.6666666666666</ele><time>2026-05-02T14:09:02.001Z</time></trkpt><trkpt lat="46.15015936539086" lon="11.808993519160907"><ele>629.3333333333333</ele><time>2026-05-02T14:09:03.001Z</time></trkpt><trkpt lat="46.150238575394354" lon="11.809187402724987"><ele>629.0</ele><time>2026-05-02T14:09:04.001Z</time></trkpt><trkpt lat="46.15032699773942" lon="11.80938311557995"><ele>629.0</ele><time>2026-05-02T14:09:05.001Z</time></trkpt><trkpt lat="46.1504097643228" lon="11.8095680938"><ele>629.0</ele><time>2026-05-02T14:09:06.001Z</time></trkpt><trkpt lat="46.1504947062638" lon="11.809743320262271"><ele>629.0</ele><time>2026-05-02T14:09:07.001Z</time></trkpt><trkpt lat="46.15058148533423" lon="11.809910597408686"><ele>629.0</ele><time>2026-05-02T14:09:08.001Z</time></trkpt><trkpt lat="46.15067749226412" lon="11.81007665207218"><ele>630.0</ele><time>2026-05-02T14:09:09.001Z</time></trkpt><trkpt lat="46.150772807040696" lon="11.81024245495506"><ele>631.0</ele><time>2026-05-02T14:09:10.001Z</time></trkpt><trkpt lat="46.15087506569298" lon="11.810402442468764"><ele>632.0</ele><time>2026-05-02T14:09:11.001Z</time></trkpt><trkpt lat="46.150984397880094" lon="11.810561131762979"><ele>632.0</ele><time>2026-05-02T14:09:12.001Z</time></trkpt><trkpt lat="46.15109530479979" lon="11.81071932492775"><ele>632.0</ele><time>2026-05-02T14:09:13.001Z</time></trkpt><trkpt lat="46.151210409314665" lon="11.810877090586107"><ele>632.0</ele><time>2026-05-02T14:09:14.001Z</time></trkpt><trkpt lat="46.15133085211335" lon="11.811026102409974"><ele>632.6666666666666</ele><time>2026-05-02T14:09:15.001Z</time></trkpt><trkpt lat="46.15145692324335" lon="11.811173965818066"><ele>633.3333333333334</ele><time>2026-05-02T14:09:16.001Z</time></trkpt><trkpt lat="46.151587728618736" lon="11.811316999978345"><ele>634.0</ele><time>2026-05-02T14:09:17.001Z</time></trkpt><trkpt lat="46.151720990768176" lon="11.81145961210223"><ele>634.3333333333334</ele><time>2026-05-02T14:09:18.001Z</time></trkpt><trkpt lat="46.15186019651725" lon="11.811594162270952"><ele>634.6666666666666</ele><time>2026-05-02T14:09:19.001Z</time></trkpt><trkpt lat="46.15200167535709" lon="11.811729467670926"><ele>635.0</ele><time>2026-05-02T14:09:20.001Z</time></trkpt><trkpt lat="46.15215042664212" lon="11.811851902642116"><ele>635.0</ele><time>2026-05-02T14:09:21.001Z</time></trkpt><trkpt lat="46.15229749936931" lon="11.811970944773348"><ele>635.0</ele><time>2026-05-02T14:09:22Z</time></trkpt><trkpt lat="46.152443258251495" lon="11.812087720762964"><ele>635.0</ele><time>2026-05-02T14:09:23Z</time></trkpt><trkpt lat="46.15259017670652" lon="11.812209403980415"><ele>635.0</ele><time>2026-05-02T14:09:24Z</time></trkpt><trkpt lat="46.152740357990176" lon="11.812329405624297"><ele>635.0</ele><time>2026-05-02T14:09:25Z</time></trkpt><trkpt lat="46.1528894142161" lon="11.81244691101927"><ele>635.0</ele><time>2026-05-02T14:09:26Z</time></trkpt><trkpt lat="46.153042356050285" lon="11.812564923212236"><ele>636.3333333333333</ele><time>2026-05-02T14:09:27Z</time></trkpt><trkpt lat="46.15319067143387" lon="11.812685383114067"><ele>637.6666666666666</ele><time>2026-05-02T14:09:28Z</time></trkpt><trkpt lat="46.15334288197017" lon="11.812805793328623"><ele>639.0</ele><time>2026-05-02T14:09:29Z</time></trkpt><trkpt lat="46.15349634054242" lon="11.812915992300427"><ele>639.0</ele><time>2026-05-02T14:09:30Z</time></trkpt><trkpt lat="46.15364790129637" lon="11.81302561245053"><ele>639.0</ele><time>2026-05-02T14:09:31Z</time></trkpt><trkpt lat="46.153802152675645" lon="11.813132323519367"><ele>639.0</ele><time>2026-05-02T14:09:32Z</time></trkpt><trkpt lat="46.15395726100931" lon="11.813229862405523"><ele>639.6666666666666</ele><time>2026-05-02T14:09:33Z</time></trkpt><trkpt lat="46.154116585221196" lon="11.81332095983516"><ele>640.3333333333333</ele><time>2026-05-02T14:09:34Z</time></trkpt><trkpt lat="46.154277956986206" lon="11.81340552679734"><ele>641.0</ele><time>2026-05-02T14:09:35Z</time></trkpt><trkpt lat="46.15444125829833" lon="11.813484941561523"><ele>641.6666666666666</ele><time>2026-05-02T14:09:36Z</time></trkpt><trkpt lat="46.15460526803137" lon="11.813561493466972"><ele>642.3333333333334</ele><time>2026-05-02T14:09:37Z</time></trkpt><trkpt lat="46.15476432449516" lon="11.81363539607672"><ele>643.0</ele><time>2026-05-02T14:09:38Z</time></trkpt><trkpt lat="46.15492699281585" lon="11.813706329274858"><ele>643.0</ele><time>2026-05-02T14:09:39Z</time></trkpt><trkpt lat="46.15508172524205" lon="11.813769668643594"><ele>643.0</ele><time>2026-05-02T14:09:40Z</time></trkpt><trkpt lat="46.15521715446072" lon="11.813838626627996"><ele>643.0</ele><time>2026-05-02T14:09:41Z</time></trkpt><trkpt lat="46.15534094353299" lon="11.813919872066096"><ele>643.0</ele><time>2026-05-02T14:09:42Z</time></trkpt><trkpt lat="46.155454501451686" lon="11.814000156676993"><ele>643.0</ele><time>2026-05-02T14:09:43Z</time></trkpt><trkpt lat="46.15555939028491" lon="11.814080282923845"><ele>643.0</ele><time>2026-05-02T14:09:44Z</time></trkpt><trkpt lat="46.15565645187636" lon="11.814155723008009"><ele>643.0</ele><time>2026-05-02T14:09:45Z</time></trkpt><trkpt lat="46.15575808005026" lon="11.81423232078571"><ele>643.0</ele><time>2026-05-02T14:09:46Z</time></trkpt><trkpt lat="46.155877582000656" lon="11.814315743091164"><ele>644.0</ele><time>2026-05-02T14:09:47Z</time></trkpt><trkpt lat="46.15600413911865" lon="11.814406443337763"><ele>645.0</ele><time>2026-05-02T14:09:48Z</time></trkpt><trkpt lat="46.15612309139502" lon="11.814522917686793"><ele>646.0</ele><time>2026-05-02T14:09:49Z</time></trkpt><trkpt lat="46.156223462244164" lon="11.814665414302015"><ele>647.0</ele><time>2026-05-02T14:09:50Z</time></trkpt><trkpt lat="46.15630601169267" lon="11.814824339334052"><ele>647.0</ele><time>2026-05-02T14:09:51Z</time></trkpt><trkpt lat="46.15637949857988" lon="11.814981253448902"><ele>647.0</ele><time>2026-05-02T14:09:52Z</time></trkpt><trkpt lat="46.15645106506187" lon="11.815144221928014"><ele>647.0</ele><time>2026-05-02T14:09:53Z</time></trkpt><trkpt lat="46.15652480219558" lon="11.815313798163768"><ele>647.0</ele><time>2026-05-02T14:09:54Z</time></trkpt><trkpt lat="46.1566047324023" lon="11.815504149995185"><ele>649.0</ele><time>2026-05-02T14:09:55Z</time></trkpt><trkpt lat="46.15669183500057" lon="11.81570971769412"><ele>651.0</ele><time>2026-05-02T14:09:56Z</time></trkpt><trkpt lat="46.15678168131215" lon="11.815911677550924"><ele>653.0</ele><time>2026-05-02T14:09:57Z</time></trkpt><trkpt lat="46.15686791683701" lon="11.81610970366001"><ele>655.3333333333333</ele><time>2026-05-02T14:09:58Z</time></trkpt><trkpt lat="46.15695807981656" lon="11.816322529509454"><ele>657.6666666666666</ele><time>2026-05-02T14:09:59Z</time></trkpt><trkpt lat="46.157048338381514" lon="11.816546523118902"><ele>660.0</ele><time>2026-05-02T14:10:00Z</time></trkpt><trkpt lat="46.15714517004821" lon="11.816770966991628"><ele>660.0</ele><time>2026-05-02T14:10:01Z</time></trkpt><trkpt lat="46.15724521891738" lon="11.816988233400648"><ele>660.0</ele><time>2026-05-02T14:10:02Z</time></trkpt><trkpt lat="46.15734568820601" lon="11.817202269215697"><ele>660.0</ele><time>2026-05-02T14:10:03Z</time></trkpt><trkpt lat="46.157460796454636" lon="11.817402358711895"><ele>660.0</ele><time>2026-05-02T14:10:04Z</time></trkpt><trkpt lat="46.157590377681835" lon="11.817585080423724"><ele>660.0</ele><time>2026-05-02T14:10:05Z</time></trkpt><trkpt lat="46.15773639415403" lon="11.817747461002446"><ele>660.0</ele><time>2026-05-02T14:10:06Z</time></trkpt><trkpt lat="46.15788936567589" lon="11.817892686753867"><ele>660.0</ele><time>2026-05-02T14:10:07Z</time></trkpt><trkpt lat="46.15804676996824" lon="11.81803182494708"><ele>660.0</ele><time>2026-05-02T14:10:08Z</time></trkpt><trkpt lat="46.15820361120708" lon="11.818170195688248"><ele>660.0</ele><time>2026-05-02T14:10:09Z</time></trkpt><trkpt lat="46.15835796292546" lon="11.818305858961152"><ele>659.3333333333334</ele><time>2026-05-02T14:10:10Z</time></trkpt><trkpt lat="46.1585173878544" lon="11.818447808673948"><ele>658.6666666666667</ele><time>2026-05-02T14:10:11Z</time></trkpt><trkpt lat="46.15867822960679" lon="11.8185893747329"><ele>658.0</ele><time>2026-05-02T14:10:12Z</time></trkpt><trkpt lat="46.15884074219135" lon="11.818727588523654"><ele>658.0</ele><time>2026-05-02T14:10:13Z</time></trkpt><trkpt lat="46.15900138005335" lon="11.818869709548677"><ele>658.0</ele><time>2026-05-02T14:10:14Z</time></trkpt><trkpt lat="46.15916050591336" lon="11.819016379677558"><ele>658.0</ele><time>2026-05-02T14:10:15Z</time></trkpt><trkpt lat="46.159319165920444" lon="11.819160217657396"><ele>658.3333333333334</ele><time>2026-05-02T14:10:16Z</time></trkpt><trkpt lat="46.15947516970273" lon="11.819301550078388"><ele>658.6666666666666</ele><time>2026-05-02T14:10:17Z</time></trkpt><trkpt lat="46.15963119321416" lon="11.819442433322013"><ele>659.0</ele><time>2026-05-02T14:10:18Z</time></trkpt><trkpt lat="46.15978711878938" lon="11.819581223836046"><ele>662.0</ele><time>2026-05-02T14:10:19Z</time></trkpt><trkpt lat="46.15993531809531" lon="11.819712396051449"><ele>665.0</ele><time>2026-05-02T14:10:20Z</time></trkpt><trkpt lat="46.16007040462141" lon="11.819835317173684"><ele>668.0</ele><time>2026-05-02T14:10:21Z</time></trkpt><trkpt lat="46.1601981669322" lon="11.819951763992481"><ele>668.0</ele><time>2026-05-02T14:10:22Z</time></trkpt><trkpt lat="46.16032615714949" lon="11.820068043934613"><ele>668.0</ele><time>2026-05-02T14:10:23Z</time></trkpt><trkpt lat="46.1604509655463" lon="11.82017635620487"><ele>668.0</ele><time>2026-05-02T14:10:24Z</time></trkpt><trkpt lat="46.160571235729385" lon="11.820282141832507"><ele>668.0</ele><time>2026-05-02T14:10:25Z</time></trkpt><trkpt lat="46.160691188228164" lon="11.820381907333187"><ele>667.75</ele><time>2026-05-02T14:10:26Z</time></trkpt><trkpt lat="46.16080978644249" lon="11.8204698105866"><ele>667.5</ele><time>2026-05-02T14:10:27Z</time></trkpt><trkpt lat="46.16092402621466" lon="11.820536801932398"><ele>667.25</ele><time>2026-05-02T14:10:28Z</time></trkpt><trkpt lat="46.1610358725272" lon="11.820588556394478"><ele>667.0</ele><time>2026-05-02T14:10:29Z</time></trkpt><trkpt lat="46.16115110079744" lon="11.82063192404781"><ele>667.0</ele><time>2026-05-02T14:10:30Z</time></trkpt><trkpt lat="46.161268294604184" lon="11.820666893229776"><ele>667.0</ele><time>2026-05-02T14:10:31Z</time></trkpt><trkpt lat="46.16138591844078" lon="11.820692727085884"><ele>667.0</ele><time>2026-05-02T14:10:32Z</time></trkpt><trkpt lat="46.16150440534667" lon="11.820714302084115"><ele>667.0</ele><time>2026-05-02T14:10:33Z</time></trkpt><trkpt lat="46.16162463850519" lon="11.820737530447358"><ele>669.75</ele><time>2026-05-02T14:10:34Z</time></trkpt><trkpt lat="46.16174556675826" lon="11.820762206116159"><ele>672.5</ele><time>2026-05-02T14:10:35Z</time></trkpt><trkpt lat="46.161867613895026" lon="11.820788464027663"><ele>675.25</ele><time>2026-05-02T14:10:36Z</time></trkpt><trkpt lat="46.161992125539825" lon="11.820808416232266"><ele>678.0</ele><time>2026-05-02T14:10:37Z</time></trkpt><trkpt lat="46.16211794629473" lon="11.820828823089377"><ele>678.0</ele><time>2026-05-02T14:10:38Z</time></trkpt><trkpt lat="46.16224317787624" lon="11.820850997635148"><ele>678.0</ele><time>2026-05-02T14:10:39Z</time></trkpt><trkpt lat="46.16237053390244" lon="11.82087595904334"><ele>678.0</ele><time>2026-05-02T14:10:40Z</time></trkpt><trkpt lat="46.162500190142524" lon="11.820900229024197"><ele>678.0</ele><time>2026-05-02T14:10:41Z</time></trkpt><trkpt lat="46.16263453374133" lon="11.820923462615283"><ele>679.0</ele><time>2026-05-02T14:10:42Z</time></trkpt><trkpt lat="46.1627700408675" lon="11.820946568994145"><ele>680.0</ele><time>2026-05-02T14:10:43Z</time></trkpt><trkpt lat="46.162905791878195" lon="11.820969695220407"><ele>681.0</ele><time>2026-05-02T14:10:44Z</time></trkpt><trkpt lat="46.1630396388169" lon="11.820997013559465"><ele>682.0</ele><time>2026-05-02T14:10:45Z</time></trkpt><trkpt lat="46.16317429832235" lon="11.821023725645883"><ele>681.5</ele><time>2026-05-02T14:10:46Z</time></trkpt><trkpt lat="46.16330994800934" lon="11.821048211826394"><ele>681.0</ele><time>2026-05-02T14:10:47Z</time></trkpt><trkpt lat="46.16344670734777" lon="11.82107116265842"><ele>680.5</ele><time>2026-05-02T14:10:48Z</time></trkpt><trkpt lat="46.16358315057387" lon="11.82109081566539"><ele>680.0</ele><time>2026-05-02T14:10:49Z</time></trkpt><trkpt lat="46.163721313803805" lon="11.821109725744698"><ele>680.0</ele><time>2026-05-02T14:10:50Z</time></trkpt><trkpt lat="46.163858263634815" lon="11.821130903250413"><ele>680.0</ele><time>2026-05-02T14:10:51Z</time></trkpt><trkpt lat="46.163994759587844" lon="11.821149445392034"><ele>680.0</ele><time>2026-05-02T14:10:52Z</time></trkpt><trkpt lat="46.16413181269388" lon="11.821166305715527"><ele>680.0</ele><time>2026-05-02T14:10:53Z</time></trkpt><trkpt lat="46.16426847046943" lon="11.821182217360418"><ele>680.75</ele><time>2026-05-02T14:10:54Z</time></trkpt><trkpt lat="46.16440282190555" lon="11.821199572549416"><ele>681.5</ele><time>2026-05-02T14:10:55.001Z</time></trkpt><trkpt lat="46.16453676628296" lon="11.821216012161504"><ele>682.25</ele><time>2026-05-02T14:10:56.001Z</time></trkpt><trkpt lat="46.16467039471312" lon="11.82123256400518"><ele>683.0</ele><time>2026-05-02T14:10:57.001Z</time></trkpt><trkpt lat="46.16480352496873" lon="11.821250225323015"><ele>682.0</ele><time>2026-05-02T14:10:58.001Z</time></trkpt><trkpt lat="46.16493696870642" lon="11.821266919137232"><ele>681.0</ele><time>2026-05-02T14:10:59.001Z</time></trkpt><trkpt lat="46.165067320312126" lon="11.821283365662937"><ele>680.0</ele><time>2026-05-02T14:11:00.001Z</time></trkpt><trkpt lat="46.16520102336956" lon="11.821299140568168"><ele>679.0</ele><time>2026-05-02T14:11:01.001Z</time></trkpt><trkpt lat="46.165339976650394" lon="11.821315897770052"><ele>679.0</ele><time>2026-05-02T14:11:02.001Z</time></trkpt><trkpt lat="46.16548074205274" lon="11.821333008228947"><ele>679.0</ele><time>2026-05-02T14:11:03.001Z</time></trkpt><trkpt lat="46.16562194355435" lon="11.821350757985835"><ele>679.0</ele><time>2026-05-02T14:11:04.001Z</time></trkpt><trkpt lat="46.16576496957993" lon="11.821365722855536"><ele>679.0</ele><time>2026-05-02T14:11:05.001Z</time></trkpt><trkpt lat="46.16591072223534" lon="11.821381222542442"><ele>680.5</ele><time>2026-05-02T14:11:06.001Z</time></trkpt><trkpt lat="46.1660575998683" lon="11.821398030864708"><ele>682.0</ele><time>2026-05-02T14:11:07.001Z</time></trkpt><trkpt lat="46.16620491052611" lon="11.821417142504483"><ele>683.5</ele><time>2026-05-02T14:11:08.001Z</time></trkpt><trkpt lat="46.166352459537904" lon="11.821436542453469"><ele>685.0</ele><time>2026-05-02T14:11:09.001Z</time></trkpt><trkpt lat="46.16649546016408" lon="11.82145893502539"><ele>685.5</ele><time>2026-05-02T14:11:10.001Z</time></trkpt><trkpt lat="46.166636591449986" lon="11.821481628121852"><ele>686.0</ele><time>2026-05-02T14:11:11.001Z</time></trkpt><trkpt lat="46.166775089775726" lon="11.821499146773094"><ele>686.5</ele><time>2026-05-02T14:11:12.001Z</time></trkpt><trkpt lat="46.1669130895911" lon="11.8215165181922"><ele>687.0</ele><time>2026-05-02T14:11:13.001Z</time></trkpt><trkpt lat="46.16704997630884" lon="11.82153228388384"><ele>687.0</ele><time>2026-05-02T14:11:14.001Z</time></trkpt><trkpt lat="46.16718512560964" lon="11.821547268713784"><ele>687.0</ele><time>2026-05-02T14:11:15.001Z</time></trkpt><trkpt lat="46.1673182544605" lon="11.821562854342014"><ele>687.0</ele><time>2026-05-02T14:11:16.001Z</time></trkpt><trkpt lat="46.16744890325172" lon="11.821580394759408"><ele>687.0</ele><time>2026-05-02T14:11:17.001Z</time></trkpt><trkpt lat="46.16757717519264" lon="11.821596908786816"><ele>687.75</ele><time>2026-05-02T14:11:18.001Z</time></trkpt><trkpt lat="46.16770263310747" lon="11.821611723064247"><ele>688.5</ele><time>2026-05-02T14:11:19.001Z</time></trkpt><trkpt lat="46.167826758585626" lon="11.821626173971682"><ele>689.25</ele><time>2026-05-02T14:11:20.001Z</time></trkpt><trkpt lat="46.16795017990834" lon="11.821640695339365"><ele>690.0</ele><time>2026-05-02T14:11:21.001Z</time></trkpt><trkpt lat="46.168073520633286" lon="11.821655858589146"><ele>689.25</ele><time>2026-05-02T14:11:22.001Z</time></trkpt><trkpt lat="46.16819376618143" lon="11.821672544018554"><ele>688.5</ele><time>2026-05-02T14:11:23.001Z</time></trkpt><trkpt lat="46.16831314790128" lon="11.82168950160862"><ele>687.75</ele><time>2026-05-02T14:11:24.001Z</time></trkpt><trkpt lat="46.16843047256678" lon="11.821706628021564"><ele>687.0</ele><time>2026-05-02T14:11:25.001Z</time></trkpt><trkpt lat="46.16854635526531" lon="11.821723317380108"><ele>687.0</ele><time>2026-05-02T14:11:26.001Z</time></trkpt><trkpt lat="46.16865996863719" lon="11.821745150523764"><ele>687.0</ele><time>2026-05-02T14:11:27.001Z</time></trkpt><trkpt lat="46.16877113186349" lon="11.821774691056993"><ele>687.0</ele><time>2026-05-02T14:11:28Z</time></trkpt><trkpt lat="46.16887815964482" lon="11.821807535543249"><ele>687.0</ele><time>2026-05-02T14:11:29Z</time></trkpt><trkpt lat="46.168983596379974" lon="11.82184035593914"><ele>687.0</ele><time>2026-05-02T14:11:30Z</time></trkpt><trkpt lat="46.16909188896275" lon="11.821875644266765"><ele>687.5</ele><time>2026-05-02T14:11:31Z</time></trkpt><trkpt lat="46.1692005809232" lon="11.821912174355404"><ele>688.0</ele><time>2026-05-02T14:11:32Z</time></trkpt><trkpt lat="46.16930996799736" lon="11.82194866654351"><ele>688.5</ele><time>2026-05-02T14:11:33Z</time></trkpt><trkpt lat="46.169420250616774" lon="11.82198212894366"><ele>689.0</ele><time>2026-05-02T14:11:34Z</time></trkpt><trkpt lat="46.16953182352814" lon="11.822015516842788"><ele>689.0</ele><time>2026-05-02T14:11:35Z</time></trkpt><trkpt lat="46.16964455429919" lon="11.822052273793553"><ele>689.0</ele><time>2026-05-02T14:11:36Z</time></trkpt><trkpt lat="46.16975589260574" lon="11.822092562439947"><ele>689.0</ele><time>2026-05-02T14:11:37Z</time></trkpt><trkpt lat="46.16986497027892" lon="11.82214214552657"><ele>689.0</ele><time>2026-05-02T14:11:38Z</time></trkpt><trkpt lat="46.16997072737098" lon="11.822204086971098"><ele>690.4000000000001</ele><time>2026-05-02T14:11:39Z</time></trkpt><trkpt lat="46.1700728307929" lon="11.82227916996311"><ele>691.8</ele><time>2026-05-02T14:11:40Z</time></trkpt><trkpt lat="46.17016191599246" lon="11.822360187654402"><ele>693.2</ele><time>2026-05-02T14:11:41Z</time></trkpt><trkpt lat="46.17024474117313" lon="11.82244602865727"><ele>694.5999999999999</ele><time>2026-05-02T14:11:42Z</time></trkpt><trkpt lat="46.170316417178334" lon="11.822537748110436"><ele>696.0</ele><time>2026-05-02T14:11:43Z</time></trkpt><trkpt lat="46.17037790352928" lon="11.822618182838266"><ele>695.3333333333334</ele><time>2026-05-02T14:11:44Z</time></trkpt><trkpt lat="46.17043040841674" lon="11.822689447481292"><ele>694.6666666666666</ele><time>2026-05-02T14:11:45Z</time></trkpt><trkpt lat="46.17047784172631" lon="11.82275842539698"><ele>694.0</ele><time>2026-05-02T14:11:46Z</time></trkpt><trkpt lat="46.170510979491965" lon="11.822835822505915"><ele>693.3333333333333</ele><time>2026-05-02T14:11:47Z</time></trkpt><trkpt lat="46.170528010376295" lon="11.823011598184106"><ele>692.6666666666666</ele><time>2026-05-02T14:11:49Z</time></trkpt><trkpt lat="46.17051421288741" lon="11.823115070417968"><ele>692.0</ele><time>2026-05-02T14:11:50Z</time></trkpt><trkpt lat="46.17051322365878" lon="11.823225948925806"><ele>692.0</ele><time>2026-05-02T14:11:51Z</time></trkpt><trkpt lat="46.170550577615494" lon="11.82333481342547"><ele>692.0</ele><time>2026-05-02T14:11:52Z</time></trkpt><trkpt lat="46.17061741573353" lon="11.82339054489694"><ele>692.0</ele><time>2026-05-02T14:11:53Z</time></trkpt><trkpt lat="46.17077140032444" lon="11.823352406013512"><ele>692.0</ele><time>2026-05-02T14:11:55Z</time></trkpt><trkpt lat="46.17085212184308" lon="11.823331791089268"><ele>692.0</ele><time>2026-05-02T14:11:56Z</time></trkpt><trkpt lat="46.170933005692646" lon="11.823379856810632"><ele>692.4000000000001</ele><time>2026-05-02T14:11:57Z</time></trkpt><trkpt lat="46.17100838276553" lon="11.8234718819725"><ele>692.8000000000001</ele><time>2026-05-02T14:11:58Z</time></trkpt><trkpt lat="46.17108554390983" lon="11.823575634151815"><ele>693.2</ele><time>2026-05-02T14:11:59Z</time></trkpt><trkpt lat="46.171170471651514" lon="11.823682204156905"><ele>693.6</ele><time>2026-05-02T14:12:00Z</time></trkpt><trkpt lat="46.171254268355234" lon="11.82379711094436"><ele>694.0</ele><time>2026-05-02T14:12:01Z</time></trkpt><trkpt lat="46.171320989883206" lon="11.823922649824777"><ele>694.0</ele><time>2026-05-02T14:12:02Z</time></trkpt><trkpt lat="46.17137299053037" lon="11.824055670827606"><ele>694.0</ele><time>2026-05-02T14:12:03Z</time></trkpt><trkpt lat="46.17140738515155" lon="11.82420234934557"><ele>694.0</ele><time>2026-05-02T14:12:04Z</time></trkpt><trkpt lat="46.17143748561626" lon="11.824361527851584"><ele>694.0</ele><time>2026-05-02T14:12:05Z</time></trkpt><trkpt lat="46.17146939642009" lon="11.824529357194272"><ele>694.0</ele><time>2026-05-02T14:12:06Z</time></trkpt><trkpt lat="46.17150623334718" lon="11.824704912686018"><ele>696.0</ele><time>2026-05-02T14:12:07Z</time></trkpt><trkpt lat="46.17154414872434" lon="11.824886260241664"><ele>698.0</ele><time>2026-05-02T14:12:08Z</time></trkpt><trkpt lat="46.17157746134781" lon="11.825065373888425"><ele>700.0</ele><time>2026-05-02T14:12:09Z</time></trkpt><trkpt lat="46.171614919967325" lon="11.825248374673208"><ele>702.0</ele><time>2026-05-02T14:12:10Z</time></trkpt><trkpt lat="46.171656093072315" lon="11.825438516198275"><ele>702.0</ele><time>2026-05-02T14:12:11Z</time></trkpt><trkpt lat="46.17170786829686" lon="11.825626836601952"><ele>702.0</ele><time>2026-05-02T14:12:12Z</time></trkpt><trkpt lat="46.17177592807359" lon="11.82581436242227"><ele>702.0</ele><time>2026-05-02T14:12:13Z</time></trkpt><trkpt lat="46.17187024829395" lon="11.825980770044993"><ele>702.0</ele><time>2026-05-02T14:12:14Z</time></trkpt><trkpt lat="46.17198442406682" lon="11.82612668620083"><ele>702.3333333333334</ele><time>2026-05-02T14:12:15Z</time></trkpt><trkpt lat="46.172115755413365" lon="11.826246701162255"><ele>702.6666666666667</ele><time>2026-05-02T14:12:16Z</time></trkpt><trkpt lat="46.17225987035851" lon="11.826340938912946"><ele>703.0</ele><time>2026-05-02T14:12:17Z</time></trkpt><trkpt lat="46.172406624382134" lon="11.826421594948636"><ele>703.0</ele><time>2026-05-02T14:12:18Z</time></trkpt><trkpt lat="46.17255388539539" lon="11.826497696431243"><ele>703.0</ele><time>2026-05-02T14:12:19Z</time></trkpt><trkpt lat="46.1727016009315" lon="11.82658236113099"><ele>703.0</ele><time>2026-05-02T14:12:20Z</time></trkpt><trkpt lat="46.172845634466974" lon="11.826668530676093"><ele>703.0</ele><time>2026-05-02T14:12:21Z</time></trkpt><trkpt lat="46.17298918889085" lon="11.826753776115662"><ele>703.0</ele><time>2026-05-02T14:12:22Z</time></trkpt><trkpt lat="46.17313324629285" lon="11.826834040910766"><ele>703.0</ele><time>2026-05-02T14:12:23Z</time></trkpt><trkpt lat="46.173272372218925" lon="11.826916036124047"><ele>703.25</ele><time>2026-05-02T14:12:24Z</time></trkpt><trkpt lat="46.17340723596488" lon="11.826999126692309"><ele>703.5</ele><time>2026-05-02T14:12:25Z</time></trkpt><trkpt lat="46.173532272081964" lon="11.827070686615622"><ele>703.75</ele><time>2026-05-02T14:12:26Z</time></trkpt><trkpt lat="46.173645974486334" lon="11.827135320166215"><ele>704.0</ele><time>2026-05-02T14:12:27Z</time></trkpt><trkpt lat="46.173757202809185" lon="11.827201903573918"><ele>704.0</ele><time>2026-05-02T14:12:28Z</time></trkpt><trkpt lat="46.17386569517213" lon="11.827262411592278"><ele>704.0</ele><time>2026-05-02T14:12:29Z</time></trkpt><trkpt lat="46.17396838722398" lon="11.827325178739951"><ele>704.0</ele><time>2026-05-02T14:12:30Z</time></trkpt><trkpt lat="46.17406821772339" lon="11.827383449210796"><ele>704.0</ele><time>2026-05-02T14:12:31Z</time></trkpt><trkpt lat="46.174170890481626" lon="11.82744325604193"><ele>704.0</ele><time>2026-05-02T14:12:32Z</time></trkpt><trkpt lat="46.17427432194882" lon="11.827505754006198"><ele>704.6</ele><time>2026-05-02T14:12:33Z</time></trkpt><trkpt lat="46.174379418526456" lon="11.827563663133851"><ele>705.2</ele><time>2026-05-02T14:12:34Z</time></trkpt><trkpt lat="46.174484674258714" lon="11.827626427404827"><ele>705.8000000000001</ele><time>2026-05-02T14:12:35Z</time></trkpt><trkpt lat="46.174574481295195" lon="11.827677898943325"><ele>706.4000000000001</ele><time>2026-05-02T14:12:36Z</time></trkpt><trkpt lat="46.17466233778731" lon="11.827724691363725"><ele>707.0</ele><time>2026-05-02T14:12:37Z</time></trkpt><trkpt lat="46.174742978105186" lon="11.827778665744056"><ele>707.0</ele><time>2026-05-02T14:12:38Z</time></trkpt><trkpt lat="46.17481915107344" lon="11.827825978236088"><ele>707.0</ele><time>2026-05-02T14:12:39Z</time></trkpt><trkpt lat="46.17488625698583" lon="11.827863755644076"><ele>707.0</ele><time>2026-05-02T14:12:40Z</time></trkpt><trkpt lat="46.174977307997025" lon="11.827912238314951"><ele>707.0</ele><time>2026-05-02T14:12:42Z</time></trkpt><trkpt lat="46.17504787452534" lon="11.827947889174807"><ele>707.0</ele><time>2026-05-02T14:12:44Z</time></trkpt><trkpt lat="46.17516352025374" lon="11.828016176469776"><ele>707.6666666666666</ele><time>2026-05-02T14:12:46Z</time></trkpt><trkpt lat="46.17523261295438" lon="11.828055961560331"><ele>708.3333333333333</ele><time>2026-05-02T14:12:47Z</time></trkpt><trkpt lat="46.175305352957494" lon="11.82810306682348"><ele>709.0</ele><time>2026-05-02T14:12:48Z</time></trkpt><trkpt lat="46.175381940031116" lon="11.8281458318646"><ele>709.6666666666666</ele><time>2026-05-02T14:12:49Z</time></trkpt><trkpt lat="46.175451433822914" lon="11.828171700122125"><ele>710.3333333333334</ele><time>2026-05-02T14:12:50Z</time></trkpt><trkpt lat="46.17551559009298" lon="11.82819086343473"><ele>711.0</ele><time>2026-05-02T14:12:51Z</time></trkpt><trkpt lat="46.175603921530644" lon="11.82830263721207"><ele>711.0</ele><time>2026-05-02T14:12:53Z</time></trkpt><trkpt lat="46.1756150868832" lon="11.82841039197652"><ele>711.0</ele><time>2026-05-02T14:12:54Z</time></trkpt><trkpt lat="46.17561599731361" lon="11.82853760295652"><ele>711.0</ele><time>2026-05-02T14:12:55Z</time></trkpt><trkpt lat="46.17563974894293" lon="11.828660711676442"><ele>711.0</ele><time>2026-05-02T14:12:56Z</time></trkpt><trkpt lat="46.17565937443757" lon="11.828786671788908"><ele>711.0</ele><time>2026-05-02T14:12:57Z</time></trkpt><trkpt lat="46.175676568790536" lon="11.82892582487496"><ele>711.0</ele><time>2026-05-02T14:12:58Z</time></trkpt><trkpt lat="46.17569799112724" lon="11.829071726712094"><ele>711.1999999999999</ele><time>2026-05-02T14:12:59Z</time></trkpt><trkpt lat="46.175718032951096" lon="11.829224165034008"><ele>711.4</ele><time>2026-05-02T14:13:00Z</time></trkpt><trkpt lat="46.175724046455734" lon="11.829375106296949"><ele>711.6</ele><time>2026-05-02T14:13:01Z</time></trkpt><trkpt lat="46.17572880726032" lon="11.829527353675086"><ele>711.8</ele><time>2026-05-02T14:13:02Z</time></trkpt><trkpt lat="46.17572460003474" lon="11.829673907566297"><ele>712.0</ele><time>2026-05-02T14:13:03Z</time></trkpt><trkpt lat="46.17571172803605" lon="11.829822919929219"><ele>712.6</ele><time>2026-05-02T14:13:04Z</time></trkpt><trkpt lat="46.17569644730288" lon="11.829976808915276"><ele>713.2</ele><time>2026-05-02T14:13:05Z</time></trkpt><trkpt lat="46.175680435681016" lon="11.830132138265604"><ele>713.8</ele><time>2026-05-02T14:13:06Z</time></trkpt><trkpt lat="46.175663572729135" lon="11.83027034934824"><ele>714.4</ele><time>2026-05-02T14:13:07Z</time></trkpt><trkpt lat="46.175655648953224" lon="11.830392698900999"><ele>715.0</ele><time>2026-05-02T14:13:08Z</time></trkpt><trkpt lat="46.17567732468693" lon="11.830494577183844"><ele>714.6</ele><time>2026-05-02T14:13:09Z</time></trkpt><trkpt lat="46.17571494855396" lon="11.830569605072265"><ele>714.2</ele><time>2026-05-02T14:13:10.001Z</time></trkpt><trkpt lat="46.1758131949719" lon="11.83056894002511"><ele>713.8</ele><time>2026-05-02T14:13:11.001Z</time></trkpt><trkpt lat="46.17589987051246" lon="11.830559401315716"><ele>713.4</ele><time>2026-05-02T14:13:12.001Z</time></trkpt><trkpt lat="46.17599574252909" lon="11.830564321715672"><ele>713.0</ele><time>2026-05-02T14:13:13.001Z</time></trkpt><trkpt lat="46.176100714249" lon="11.83057105791416"><ele>713.0</ele><time>2026-05-02T14:13:14.001Z</time></trkpt><trkpt lat="46.1762059375732" lon="11.830574259687133"><ele>713.0</ele><time>2026-05-02T14:13:15.001Z</time></trkpt><trkpt lat="46.176309908031705" lon="11.830577994139755"><ele>713.0</ele><time>2026-05-02T14:13:16.001Z</time></trkpt><trkpt lat="46.17641288685668" lon="11.83058495450494"><ele>713.0</ele><time>2026-05-02T14:13:17.001Z</time></trkpt><trkpt lat="46.17651328531975" lon="11.830592132925053"><ele>713.0</ele><time>2026-05-02T14:13:18.001Z</time></trkpt><trkpt lat="46.176612574110855" lon="11.830597827083135"><ele>713.4</ele><time>2026-05-02T14:13:19.001Z</time></trkpt><trkpt lat="46.176710360727434" lon="11.830607481567814"><ele>713.8</ele><time>2026-05-02T14:13:20.001Z</time></trkpt><trkpt lat="46.176810476205475" lon="11.830612773912003"><ele>714.2</ele><time>2026-05-02T14:13:21.001Z</time></trkpt><trkpt lat="46.17690820618469" lon="11.8306187885261"><ele>714.6</ele><time>2026-05-02T14:13:22.001Z</time></trkpt><trkpt lat="46.17700209928759" lon="11.830620176868717"><ele>715.0</ele><time>2026-05-02T14:13:23.001Z</time></trkpt><trkpt lat="46.177092196635144" lon="11.83062425960519"><ele>715.0</ele><time>2026-05-02T14:13:24.001Z</time></trkpt><trkpt lat="46.17717970596513" lon="11.83063954805051"><ele>715.0</ele><time>2026-05-02T14:13:25.001Z</time></trkpt><trkpt lat="46.17725956365099" lon="11.830699121155961"><ele>715.0</ele><time>2026-05-02T14:13:26.001Z</time></trkpt><trkpt lat="46.17732141286707" lon="11.830799388294746"><ele>715.0</ele><time>2026-05-02T14:13:27.001Z</time></trkpt><trkpt lat="46.177369302075405" lon="11.830923078471802"><ele>715.0</ele><time>2026-05-02T14:13:28.001Z</time></trkpt><trkpt lat="46.17742630801209" lon="11.831048198622394"><ele>716.0</ele><time>2026-05-02T14:13:29.001Z</time></trkpt><trkpt lat="46.17749069940883" lon="11.83117735590883"><ele>717.0</ele><time>2026-05-02T14:13:30.001Z</time></trkpt><trkpt lat="46.17755880161805" lon="11.831312326765977"><ele>718.0</ele><time>2026-05-02T14:13:31.001Z</time></trkpt><trkpt lat="46.17762957293856" lon="11.831445042638604"><ele>719.0</ele><time>2026-05-02T14:13:32.001Z</time></trkpt><trkpt lat="46.17769763036605" lon="11.831574948990562"><ele>719.0</ele><time>2026-05-02T14:13:33.001Z</time></trkpt><trkpt lat="46.17775956617977" lon="11.831702339305256"><ele>719.0</ele><time>2026-05-02T14:13:34Z</time></trkpt><trkpt lat="46.17782378305913" lon="11.831822712252361"><ele>719.0</ele><time>2026-05-02T14:13:35Z</time></trkpt><trkpt lat="46.17790146558716" lon="11.831928005741304"><ele>719.0</ele><time>2026-05-02T14:13:36Z</time></trkpt><trkpt lat="46.17798666904832" lon="11.83201858650828"><ele>719.0</ele><time>2026-05-02T14:13:37Z</time></trkpt><trkpt lat="46.17808539330322" lon="11.832081847523535"><ele>719.8000000000001</ele><time>2026-05-02T14:13:38Z</time></trkpt><trkpt lat="46.178188597691005" lon="11.83212555180481"><ele>720.6</ele><time>2026-05-02T14:13:39Z</time></trkpt><trkpt lat="46.17828410312339" lon="11.832163311422669"><ele>721.4</ele><time>2026-05-02T14:13:40Z</time></trkpt><trkpt lat="46.1783760487926" lon="11.832205732284232"><ele>722.2</ele><time>2026-05-02T14:13:41Z</time></trkpt><trkpt lat="46.17845542196105" lon="11.832249560409227"><ele>723.0</ele><time>2026-05-02T14:13:42Z</time></trkpt><trkpt lat="46.17852943096559" lon="11.83228624694492"><ele>723.0000000000001</ele><time>2026-05-02T14:13:43Z</time></trkpt><trkpt lat="46.178597279726944" lon="11.832316089909593"><ele>723.0</ele><time>2026-05-02T14:13:44Z</time></trkpt><trkpt lat="46.1786671559562" lon="11.83235201627501"><ele>723.0</ele><time>2026-05-02T14:13:45Z</time></trkpt><trkpt lat="46.1787370616924" lon="11.832388392060004"><ele>723.0</ele><time>2026-05-02T14:13:46Z</time></trkpt><trkpt lat="46.17880806442064" lon="11.83242469933432"><ele>723.0</ele><time>2026-05-02T14:13:47Z</time></trkpt><trkpt lat="46.17886232228684" lon="11.832482301155876"><ele>723.0000000000001</ele><time>2026-05-02T14:13:48Z</time></trkpt><trkpt lat="46.17890631306084" lon="11.832576500974127"><ele>723.0</ele><time>2026-05-02T14:13:50Z</time></trkpt><trkpt lat="46.17887715864095" lon="11.832754793869983"><ele>723.0</ele><time>2026-05-02T14:13:51Z</time></trkpt><trkpt lat="46.178862684412366" lon="11.83285233131858"><ele>723.0</ele><time>2026-05-02T14:13:52Z</time></trkpt><trkpt lat="46.17881507799456" lon="11.832946346014966"><ele>723.0</ele><time>2026-05-02T14:13:53Z</time></trkpt><trkpt lat="46.17879021678526" lon="11.83306926683668"><ele>723.0</ele><time>2026-05-02T14:13:54Z</time></trkpt><trkpt lat="46.17875956217749" lon="11.83319429566617"><ele>723.0</ele><time>2026-05-02T14:13:55Z</time></trkpt><trkpt lat="46.17875038718663" lon="11.833316475274751"><ele>723.0</ele><time>2026-05-02T14:13:56Z</time></trkpt><trkpt lat="46.17875980280973" lon="11.833441067522559"><ele>723.0</ele><time>2026-05-02T14:13:57Z</time></trkpt><trkpt lat="46.17879231329775" lon="11.8335703231709"><ele>723.0</ele><time>2026-05-02T14:13:58Z</time></trkpt><trkpt lat="46.17883179631982" lon="11.833690387452005"><ele>723.0</ele><time>2026-05-02T14:13:59Z</time></trkpt><trkpt lat="46.1788815701578" lon="11.833809360361121"><ele>723.0</ele><time>2026-05-02T14:14:00Z</time></trkpt><trkpt lat="46.1789381059221" lon="11.833931521360542"><ele>723.0</ele><time>2026-05-02T14:14:01Z</time></trkpt><trkpt lat="46.1789999826106" lon="11.834065462814241"><ele>724.0</ele><time>2026-05-02T14:14:02Z</time></trkpt><trkpt lat="46.17906873821823" lon="11.834205284713587"><ele>725.0</ele><time>2026-05-02T14:14:03Z</time></trkpt><trkpt lat="46.17914292131897" lon="11.83435342807206"><ele>726.0</ele><time>2026-05-02T14:14:04Z</time></trkpt><trkpt lat="46.17921752690127" lon="11.834496754783688"><ele>727.0</ele><time>2026-05-02T14:14:05Z</time></trkpt><trkpt lat="46.179266027139214" lon="11.83463288496481"><ele>727.0</ele><time>2026-05-02T14:14:06Z</time></trkpt><trkpt lat="46.1793130142759" lon="11.834774612106669"><ele>727.0</ele><time>2026-05-02T14:14:07Z</time></trkpt><trkpt lat="46.17935335365769" lon="11.834935688534904"><ele>727.0</ele><time>2026-05-02T14:14:08Z</time></trkpt><trkpt lat="46.179388659745804" lon="11.835103876342988"><ele>727.0</ele><time>2026-05-02T14:14:09Z</time></trkpt><trkpt lat="46.17942869858042" lon="11.83527549148239"><ele>726.75</ele><time>2026-05-02T14:14:10Z</time></trkpt><trkpt lat="46.17946890260488" lon="11.835447008986847"><ele>726.5</ele><time>2026-05-02T14:14:11Z</time></trkpt><trkpt lat="46.179509244742384" lon="11.83562175644551"><ele>726.25</ele><time>2026-05-02T14:14:12Z</time></trkpt><trkpt lat="46.179555006523344" lon="11.835801029066193"><ele>726.0</ele><time>2026-05-02T14:14:13Z</time></trkpt><trkpt lat="46.17961161691282" lon="11.83597860362708"><ele>726.0</ele><time>2026-05-02T14:14:14Z</time></trkpt><trkpt lat="46.1796770981148" lon="11.836152695639536"><ele>726.0</ele><time>2026-05-02T14:14:15Z</time></trkpt><trkpt lat="46.179742512068685" lon="11.83632726332309"><ele>726.0</ele><time>2026-05-02T14:14:16Z</time></trkpt><trkpt lat="46.17980503572746" lon="11.836504764411488"><ele>726.0</ele><time>2026-05-02T14:14:17Z</time></trkpt><trkpt lat="46.17986722331341" lon="11.836683863192505"><ele>727.75</ele><time>2026-05-02T14:14:18Z</time></trkpt><trkpt lat="46.17993193589309" lon="11.836863641302527"><ele>729.5</ele><time>2026-05-02T14:14:19Z</time></trkpt><trkpt lat="46.17999916158433" lon="11.837040190703453"><ele>731.25</ele><time>2026-05-02T14:14:20Z</time></trkpt><trkpt lat="46.18006411577902" lon="11.837214244389735"><ele>733.0</ele><time>2026-05-02T14:14:21Z</time></trkpt><trkpt lat="46.180127099716" lon="11.837392061911247"><ele>733.0</ele><time>2026-05-02T14:14:22Z</time></trkpt><trkpt lat="46.18018686767065" lon="11.837570653989875"><ele>733.0</ele><time>2026-05-02T14:14:23Z</time></trkpt><trkpt lat="46.180248563865845" lon="11.83774727516869"><ele>733.0</ele><time>2026-05-02T14:14:24Z</time></trkpt><trkpt lat="46.18030204137058" lon="11.837927948972785"><ele>733.0</ele><time>2026-05-02T14:14:25Z</time></trkpt><trkpt lat="46.18034623384653" lon="11.838115664276303"><ele>733.25</ele><time>2026-05-02T14:14:26Z</time></trkpt><trkpt lat="46.180381629505085" lon="11.838307962148845"><ele>733.5</ele><time>2026-05-02T14:14:27Z</time></trkpt><trkpt lat="46.180425007786056" lon="11.838496320624456"><ele>733.75</ele><time>2026-05-02T14:14:28Z</time></trkpt><trkpt lat="46.180470742475016" lon="11.838684729250621"><ele>734.0</ele><time>2026-05-02T14:14:29Z</time></trkpt><trkpt lat="46.18051553319162" lon="11.838864682614814"><ele>734.75</ele><time>2026-05-02T14:14:30Z</time></trkpt><trkpt lat="46.180558834696264" lon="11.839043352184976"><ele>735.5</ele><time>2026-05-02T14:14:31Z</time></trkpt><trkpt lat="46.18059426777442" lon="11.839214918080359"><ele>736.25</ele><time>2026-05-02T14:14:32Z</time></trkpt><trkpt lat="46.180628599315554" lon="11.839369677186243"><ele>737.0</ele><time>2026-05-02T14:14:33Z</time></trkpt><trkpt lat="46.18066621101567" lon="11.83952695417506"><ele>738.25</ele><time>2026-05-02T14:14:34Z</time></trkpt><trkpt lat="46.18070424109114" lon="11.839690546681929"><ele>739.5</ele><time>2026-05-02T14:14:35Z</time></trkpt><trkpt lat="46.180743969224494" lon="11.839862014422604"><ele>740.75</ele><time>2026-05-02T14:14:36Z</time></trkpt><trkpt lat="46.180783855028025" lon="11.840040815420231"><ele>742.0</ele><time>2026-05-02T14:14:37Z</time></trkpt><trkpt lat="46.180825100963915" lon="11.840226159097295"><ele>742.25</ele><time>2026-05-02T14:14:38Z</time></trkpt><trkpt lat="46.180873918070915" lon="11.840416138714223"><ele>742.5</ele><time>2026-05-02T14:14:39Z</time></trkpt><trkpt lat="46.180929591921995" lon="11.840600197464582"><ele>742.75</ele><time>2026-05-02T14:14:40Z</time></trkpt><trkpt lat="46.180996162966835" lon="11.840783067619258"><ele>743.0</ele><time>2026-05-02T14:14:41Z</time></trkpt><trkpt lat="46.18107492179734" lon="11.840959540014389"><ele>744.25</ele><time>2026-05-02T14:14:42Z</time></trkpt><trkpt lat="46.18115946841401" lon="11.841131294194623"><ele>745.5</ele><time>2026-05-02T14:14:43Z</time></trkpt><trkpt lat="46.181251199556186" lon="11.841298700534804"><ele>746.75</ele><time>2026-05-02T14:14:44Z</time></trkpt><trkpt lat="46.18134769391985" lon="11.841461921083019"><ele>748.0</ele><time>2026-05-02T14:14:45Z</time></trkpt><trkpt lat="46.181449299916814" lon="11.841622848348196"><ele>748.0</ele><time>2026-05-02T14:14:46Z</time></trkpt><trkpt lat="46.1815494376385" lon="11.841766977875869"><ele>748.0</ele><time>2026-05-02T14:14:47Z</time></trkpt><trkpt lat="46.181650523678705" lon="11.841901992469298"><ele>748.0</ele><time>2026-05-02T14:14:48Z</time></trkpt><trkpt lat="46.181748945681015" lon="11.842032423153459"><ele>748.0</ele><time>2026-05-02T14:14:49Z</time></trkpt><trkpt lat="46.18184725995875" lon="11.84216119273947"><ele>748.0</ele><time>2026-05-02T14:14:50Z</time></trkpt><trkpt lat="46.18194187976626" lon="11.842283185225956"><ele>748.0</ele><time>2026-05-02T14:14:51Z</time></trkpt><trkpt lat="46.18203238693699" lon="11.842403323581332"><ele>748.0</ele><time>2026-05-02T14:14:52Z</time></trkpt><trkpt lat="46.18211840733126" lon="11.842525365611955"><ele>748.0</ele><time>2026-05-02T14:14:53Z</time></trkpt><trkpt lat="46.18220533316705" lon="11.8426402187083"><ele>749.0</ele><time>2026-05-02T14:14:54Z</time></trkpt><trkpt lat="46.182294055697135" lon="11.842753389572646"><ele>750.0</ele><time>2026-05-02T14:14:55Z</time></trkpt><trkpt lat="46.18237484162772" lon="11.842867498571609"><ele>751.0</ele><time>2026-05-02T14:14:56Z</time></trkpt><trkpt lat="46.18245920433018" lon="11.842980288709215"><ele>752.0</ele><time>2026-05-02T14:14:57Z</time></trkpt><trkpt lat="46.182544606347875" lon="11.843097181164817"><ele>752.0</ele><time>2026-05-02T14:14:58Z</time></trkpt><trkpt lat="46.182630982993956" lon="11.843211193941432"><ele>752.0</ele><time>2026-05-02T14:14:59Z</time></trkpt><trkpt lat="46.18271744387678" lon="11.843325666100208"><ele>752.0</ele><time>2026-05-02T14:15:00Z</time></trkpt><trkpt lat="46.18280877037503" lon="11.843443065579788"><ele>752.0</ele><time>2026-05-02T14:15:01Z</time></trkpt><trkpt lat="46.18290428401546" lon="11.843561327568287"><ele>753.75</ele><time>2026-05-02T14:15:02Z</time></trkpt><trkpt lat="46.182999707200636" lon="11.84368511300922"><ele>755.5</ele><time>2026-05-02T14:15:03Z</time></trkpt><trkpt lat="46.18309538342508" lon="11.843814286720583"><ele>757.25</ele><time>2026-05-02T14:15:04Z</time></trkpt><trkpt lat="46.18319010083444" lon="11.843948951054568"><ele>759.0</ele><time>2026-05-02T14:15:05Z</time></trkpt><trkpt lat="46.1832903067401" lon="11.844082156322735"><ele>759.0</ele><time>2026-05-02T14:15:06.001Z</time></trkpt><trkpt lat="46.18339895448979" lon="11.844216002956957"><ele>759.0</ele><time>2026-05-02T14:15:07.001Z</time></trkpt><trkpt lat="46.18350501063556" lon="11.844349474859033"><ele>759.0</ele><time>2026-05-02T14:15:08.001Z</time></trkpt><trkpt lat="46.183614631078235" lon="11.844479487301383"><ele>759.0</ele><time>2026-05-02T14:15:09.001Z</time></trkpt><trkpt lat="46.18372872723844" lon="11.84460919758189"><ele>760.25</ele><time>2026-05-02T14:15:10.001Z</time></trkpt><trkpt lat="46.183847383933994" lon="11.84473041150111"><ele>761.5</ele><time>2026-05-02T14:15:11.001Z</time></trkpt><trkpt lat="46.1839723626528" lon="11.844843190371629"><ele>762.75</ele><time>2026-05-02T14:15:12.001Z</time></trkpt><trkpt lat="46.184094956690714" lon="11.844955344496647"><ele>764.0</ele><time>2026-05-02T14:15:13.001Z</time></trkpt><trkpt lat="46.18422558093352" lon="11.845065309663145"><ele>764.75</ele><time>2026-05-02T14:15:14.001Z</time></trkpt><trkpt lat="46.184345020782" lon="11.845171417567437"><ele>765.5</ele><time>2026-05-02T14:15:15.001Z</time></trkpt><trkpt lat="46.18446681666476" lon="11.845274338994047"><ele>766.25</ele><time>2026-05-02T14:15:16.001Z</time></trkpt><trkpt lat="46.18458068993026" lon="11.845371476404681"><ele>767.0</ele><time>2026-05-02T14:15:17.001Z</time></trkpt><trkpt lat="46.18469744948065" lon="11.845464794006002"><ele>767.0</ele><time>2026-05-02T14:15:18.001Z</time></trkpt><trkpt lat="46.18481118836327" lon="11.845556209789276"><ele>767.0</ele><time>2026-05-02T14:15:19.001Z</time></trkpt><trkpt lat="46.18491862557927" lon="11.845653342904859"><ele>767.0</ele><time>2026-05-02T14:15:20.001Z</time></trkpt><trkpt lat="46.18501672206505" lon="11.84576911522688"><ele>767.0</ele><time>2026-05-02T14:15:21.001Z</time></trkpt><trkpt lat="46.18507975456107" lon="11.845916242002298"><ele>769.5</ele><time>2026-05-02T14:15:22.001Z</time></trkpt><trkpt lat="46.18512326279933" lon="11.846071196568637"><ele>772.0</ele><time>2026-05-02T14:15:23.001Z</time></trkpt><trkpt lat="46.185159708018496" lon="11.846228047827914"><ele>774.5</ele><time>2026-05-02T14:15:24.001Z</time></trkpt><trkpt lat="46.18518836763959" lon="11.846394395685607"><ele>777.0</ele><time>2026-05-02T14:15:25.001Z</time></trkpt><trkpt lat="46.18520589834073" lon="11.846566158301655"><ele>777.0</ele><time>2026-05-02T14:15:26.001Z</time></trkpt><trkpt lat="46.185225543562844" lon="11.846740663953828"><ele>777.0</ele><time>2026-05-02T14:15:27.001Z</time></trkpt><trkpt lat="46.185249633342984" lon="11.846912243312499"><ele>777.0</ele><time>2026-05-02T14:15:28.001Z</time></trkpt><trkpt lat="46.18527646245896" lon="11.847084138526279"><ele>777.0</ele><time>2026-05-02T14:15:29.001Z</time></trkpt><trkpt lat="46.18530844243773" lon="11.847249208645643"><ele>777.25</ele><time>2026-05-02T14:15:30.001Z</time></trkpt><trkpt lat="46.185334654330696" lon="11.84741837909592"><ele>777.5</ele><time>2026-05-02T14:15:31.001Z</time></trkpt><trkpt lat="46.185358097805704" lon="11.847592460526435"><ele>777.75</ele><time>2026-05-02T14:15:32.001Z</time></trkpt><trkpt lat="46.18538486952042" lon="11.847771014249663"><ele>778.0</ele><time>2026-05-02T14:15:33.001Z</time></trkpt><trkpt lat="46.18541296981156" lon="11.847947859597937"><ele>778.25</ele><time>2026-05-02T14:15:34.001Z</time></trkpt><trkpt lat="46.185440106543965" lon="11.848124763357797"><ele>778.5</ele><time>2026-05-02T14:15:35.001Z</time></trkpt><trkpt lat="46.18546715076943" lon="11.848302429900368"><ele>778.75</ele><time>2026-05-02T14:15:36.001Z</time></trkpt><trkpt lat="46.185492687993744" lon="11.848474221512195"><ele>779.0</ele><time>2026-05-02T14:15:37.001Z</time></trkpt><trkpt lat="46.18551798208638" lon="11.848646690405207"><ele>782.4000000000001</ele><time>2026-05-02T14:15:38.001Z</time></trkpt><trkpt lat="46.18554096699283" lon="11.848798138563465"><ele>785.8</ele><time>2026-05-02T14:15:39.001Z</time></trkpt><trkpt lat="46.185564558124305" lon="11.848928735294363"><ele>789.2</ele><time>2026-05-02T14:15:40Z</time></trkpt><trkpt lat="46.18559677578114" lon="11.849044643565133"><ele>792.5999999999999</ele><time>2026-05-02T14:15:41Z</time></trkpt><trkpt lat="46.185648819525476" lon="11.849154780381234"><ele>796.0</ele><time>2026-05-02T14:15:42Z</time></trkpt><trkpt lat="46.18571791409106" lon="11.849250234597216"><ele>795.5999999999999</ele><time>2026-05-02T14:15:43Z</time></trkpt><trkpt lat="46.185805422049114" lon="11.849324796453203"><ele>795.2</ele><time>2026-05-02T14:15:44Z</time></trkpt><trkpt lat="46.18587896066929" lon="11.84941060099927"><ele>794.8</ele><time>2026-05-02T14:15:45Z</time></trkpt><trkpt lat="46.18594638008648" lon="11.84951189022935"><ele>794.4000000000001</ele><time>2026-05-02T14:15:46Z</time></trkpt><trkpt lat="46.18600682436019" lon="11.849617261071826"><ele>794.0</ele><time>2026-05-02T14:15:47Z</time></trkpt><trkpt lat="46.186070869799785" lon="11.849725362761653"><ele>794.0</ele><time>2026-05-02T14:15:48Z</time></trkpt><trkpt lat="46.18613182711695" lon="11.849837631949075"><ele>794.0</ele><time>2026-05-02T14:15:49Z</time></trkpt><trkpt lat="46.18619299456955" lon="11.849954557373747"><ele>794.0</ele><time>2026-05-02T14:15:50Z</time></trkpt><trkpt lat="46.18625982701011" lon="11.850075487462183"><ele>794.0</ele><time>2026-05-02T14:15:51Z</time></trkpt><trkpt lat="46.18632891768925" lon="11.850196821170325"><ele>794.0</ele><time>2026-05-02T14:15:52Z</time></trkpt><trkpt lat="46.18638799282424" lon="11.850305828488892"><ele>795.5000000000001</ele><time>2026-05-02T14:15:53Z</time></trkpt><trkpt lat="46.18644078270849" lon="11.850408990974339"><ele>797.0</ele><time>2026-05-02T14:15:54Z</time></trkpt><trkpt lat="46.186488702032264" lon="11.850503125922259"><ele>798.5</ele><time>2026-05-02T14:15:55Z</time></trkpt><trkpt lat="46.18653750549699" lon="11.850604191196512"><ele>800.0</ele><time>2026-05-02T14:15:56Z</time></trkpt><trkpt lat="46.186576306995335" lon="11.850718751171437"><ele>801.5000000000001</ele><time>2026-05-02T14:15:57Z</time></trkpt><trkpt lat="46.18660020094097" lon="11.850849316632722"><ele>803.0</ele><time>2026-05-02T14:15:58Z</time></trkpt><trkpt lat="46.18662032147547" lon="11.850991603442981"><ele>803.1666666666667</ele><time>2026-05-02T14:15:59Z</time></trkpt><trkpt lat="46.18661518913431" lon="11.85113743616271"><ele>803.3333333333334</ele><time>2026-05-02T14:16:00Z</time></trkpt><trkpt lat="46.18658773984597" lon="11.85128116739516"><ele>803.5</ele><time>2026-05-02T14:16:01Z</time></trkpt><trkpt lat="46.186540199334566" lon="11.851402744387862"><ele>803.6666666666667</ele><time>2026-05-02T14:16:02Z</time></trkpt><trkpt lat="46.186490380778444" lon="11.851487688086257"><ele>803.8333333333334</ele><time>2026-05-02T14:16:03Z</time></trkpt><trkpt lat="46.186441991031906" lon="11.851563024901814"><ele>804.0</ele><time>2026-05-02T14:16:04Z</time></trkpt><trkpt lat="46.186384352171245" lon="11.851626892325577"><ele>808.0</ele><time>2026-05-02T14:16:05Z</time></trkpt><trkpt lat="46.186308673076674" lon="11.851630258704013"><ele>812.0</ele><time>2026-05-02T14:16:06Z</time></trkpt><trkpt lat="46.18622777261387" lon="11.851568913737985"><ele>816.0</ele><time>2026-05-02T14:16:07Z</time></trkpt><trkpt lat="46.186145510738086" lon="11.851464842452382"><ele>820.0</ele><time>2026-05-02T14:16:08Z</time></trkpt><trkpt lat="46.186054013380584" lon="11.851339487480974"><ele>824.0</ele><time>2026-05-02T14:16:09Z</time></trkpt><trkpt lat="46.185946396141" lon="11.851206739267155"><ele>824.0</ele><time>2026-05-02T14:16:10Z</time></trkpt><trkpt lat="46.185836674757375" lon="11.851071985232904"><ele>824.0</ele><time>2026-05-02T14:16:11Z</time></trkpt><trkpt lat="46.185732124135484" lon="11.850955545718438"><ele>824.0</ele><time>2026-05-02T14:16:12Z</time></trkpt><trkpt lat="46.18564090707819" lon="11.850858228394273"><ele>824.0</ele><time>2026-05-02T14:16:13Z</time></trkpt><trkpt lat="46.18556578755223" lon="11.850794316801043"><ele>826.3333333333334</ele><time>2026-05-02T14:16:14Z</time></trkpt><trkpt lat="46.18550330974137" lon="11.850776454717101"><ele>828.6666666666667</ele><time>2026-05-02T14:16:15Z</time></trkpt><trkpt lat="46.18544358713614" lon="11.850854842457496"><ele>831.0</ele><time>2026-05-02T14:16:16Z</time></trkpt><trkpt lat="46.18545546914548" lon="11.851008912942078"><ele>833.3333333333333</ele><time>2026-05-02T14:16:17Z</time></trkpt><trkpt lat="46.18550079951203" lon="11.851118429861948"><ele>835.6666666666666</ele><time>2026-05-02T14:16:18Z</time></trkpt><trkpt lat="46.18556863911874" lon="11.8512070341316"><ele>838.0</ele><time>2026-05-02T14:16:19Z</time></trkpt><trkpt lat="46.18565737369411" lon="11.851312072104921"><ele>838.0</ele><time>2026-05-02T14:16:20Z</time></trkpt><trkpt lat="46.185736614760806" lon="11.85146173105769"><ele>838.0</ele><time>2026-05-02T14:16:21Z</time></trkpt><trkpt lat="46.1858037517605" lon="11.851641095779815"><ele>838.0</ele><time>2026-05-02T14:16:22Z</time></trkpt><trkpt lat="46.18585223629256" lon="11.851836910777386"><ele>838.0</ele><time>2026-05-02T14:16:23Z</time></trkpt><trkpt lat="46.18589696223646" lon="11.852033165944663"><ele>838.0</ele><time>2026-05-02T14:16:24Z</time></trkpt><trkpt lat="46.18594249725913" lon="11.852216884770147"><ele>838.0</ele><time>2026-05-02T14:16:25Z</time></trkpt><trkpt lat="46.185985821460726" lon="11.85238135809003"><ele>838.0</ele><time>2026-05-02T14:16:26Z</time></trkpt><trkpt lat="46.186018458201715" lon="11.8525056143236"><ele>838.0</ele><time>2026-05-02T14:16:27Z</time></trkpt><trkpt lat="46.18605514673663" lon="11.852617706594282"><ele>838.0</ele><time>2026-05-02T14:16:28Z</time></trkpt><trkpt lat="46.18606825966398" lon="11.852723219803341"><ele>841.8333333333333</ele><time>2026-05-02T14:16:29Z</time></trkpt><trkpt lat="46.18609422620848" lon="11.852821136943987"><ele>845.6666666666666</ele><time>2026-05-02T14:16:30Z</time></trkpt><trkpt lat="46.1860903824004" lon="11.852963115507816"><ele>849.5</ele><time>2026-05-02T14:16:32Z</time></trkpt><trkpt lat="46.18598269052781" lon="11.852941735121172"><ele>853.3333333333333</ele><time>2026-05-02T14:16:34Z</time></trkpt><trkpt lat="46.18593503978249" lon="11.85285659552201"><ele>857.1666666666666</ele><time>2026-05-02T14:16:35Z</time></trkpt><trkpt lat="46.18588614229665" lon="11.852771634354141"><ele>861.0</ele><time>2026-05-02T14:16:36Z</time></trkpt><trkpt lat="46.18582206033788" lon="11.852696521738995"><ele>861.0</ele><time>2026-05-02T14:16:37Z</time></trkpt><trkpt lat="46.185769141938955" lon="11.852633159551702"><ele>861.0</ele><time>2026-05-02T14:16:38Z</time></trkpt><trkpt lat="46.185707587443" lon="11.852555961800718"><ele>861.0</ele><time>2026-05-02T14:16:39Z</time></trkpt><trkpt lat="46.185648279734735" lon="11.852477463282751"><ele>861.0</ele><time>2026-05-02T14:16:40Z</time></trkpt><trkpt lat="46.18559736211524" lon="11.852414872515704"><ele>861.0</ele><time>2026-05-02T14:16:41Z</time></trkpt><trkpt lat="46.18551343107426" lon="11.852295451887825"><ele>861.0</ele><time>2026-05-02T14:16:43Z</time></trkpt><trkpt lat="46.18540958233152" lon="11.8522347300062"><ele>862.0</ele><time>2026-05-02T14:16:45Z</time></trkpt><trkpt lat="46.185350481443386" lon="11.852268446372888"><ele>863.0</ele><time>2026-05-02T14:16:46Z</time></trkpt><trkpt lat="46.18530961701306" lon="11.852353774699969"><ele>864.0</ele><time>2026-05-02T14:16:47Z</time></trkpt><trkpt lat="46.18531188110904" lon="11.85246259926834"><ele>865.0</ele><time>2026-05-02T14:16:48Z</time></trkpt><trkpt lat="46.185353815466634" lon="11.85256263805794"><ele>866.0</ele><time>2026-05-02T14:16:49Z</time></trkpt><trkpt lat="46.18544027025009" lon="11.852695183660817"><ele>867.0</ele><time>2026-05-02T14:16:50Z</time></trkpt><trkpt lat="46.185526460734174" lon="11.852917205429836"><ele>865.0</ele><time>2026-05-02T14:16:51Z</time></trkpt><trkpt lat="46.18563580285104" lon="11.853145247803878"><ele>863.0</ele><time>2026-05-02T14:16:52Z</time></trkpt><trkpt lat="46.185748355245806" lon="11.853365412157709"><ele>861.0</ele><time>2026-05-02T14:16:53Z</time></trkpt><trkpt lat="46.185866535778715" lon="11.85361171624842"><ele>871.3333333333333</ele><time>2026-05-02T14:16:54Z</time></trkpt><trkpt lat="46.18600122996458" lon="11.853832384269896"><ele>881.6666666666666</ele><time>2026-05-02T14:16:55Z</time></trkpt><trkpt lat="46.18614093750535" lon="11.854033326965315"><ele>892.0</ele><time>2026-05-02T14:16:56Z</time></trkpt><trkpt lat="46.186291009214344" lon="11.854210020005803"><ele>892.6666666666666</ele><time>2026-05-02T14:16:57Z</time></trkpt><trkpt lat="46.18644031793312" lon="11.854375311135774"><ele>893.3333333333333</ele><time>2026-05-02T14:16:58Z</time></trkpt><trkpt lat="46.18659274899924" lon="11.854533024270005"><ele>894.0</ele><time>2026-05-02T14:16:59Z</time></trkpt><trkpt lat="46.18673612516846" lon="11.854687816764475"><ele>894.0</ele><time>2026-05-02T14:17:00Z</time></trkpt><trkpt lat="46.18686507357643" lon="11.854849429418573"><ele>894.0</ele><time>2026-05-02T14:17:01Z</time></trkpt><trkpt lat="46.186949828747224" lon="11.855052919419409"><ele>894.0</ele><time>2026-05-02T14:17:02Z</time></trkpt><trkpt lat="46.18702369296674" lon="11.855267262035891"><ele>905.0</ele><time>2026-05-02T14:17:03Z</time></trkpt><trkpt lat="46.187097433602986" lon="11.855483750650215"><ele>916.0</ele><time>2026-05-02T14:17:04.001Z</time></trkpt><trkpt lat="46.18717178702768" lon="11.855700936358723"><ele>927.0</ele><time>2026-05-02T14:17:05.001Z</time></trkpt><trkpt lat="46.18724629035378" lon="11.855916251504242"><ele>933.25</ele><time>2026-05-02T14:17:06.001Z</time></trkpt><trkpt lat="46.18731023333202" lon="11.856125016610035"><ele>939.5</ele><time>2026-05-02T14:17:07.001Z</time></trkpt><trkpt lat="46.187336972055554" lon="11.856330360889247"><ele>945.75</ele><time>2026-05-02T14:17:08.001Z</time></trkpt><trkpt lat="46.18733636535522" lon="11.856533567710917"><ele>952.0</ele><time>2026-05-02T14:17:09.001Z</time></trkpt><trkpt lat="46.18733055574757" lon="11.856743782642111"><ele>955.6666666666666</ele><time>2026-05-02T14:17:10.001Z</time></trkpt><trkpt lat="46.18732201555776" lon="11.856959234968896"><ele>959.3333333333333</ele><time>2026-05-02T14:17:11.001Z</time></trkpt><trkpt lat="46.18731287326135" lon="11.857180812700225"><ele>963.0</ele><time>2026-05-02T14:17:12.001Z</time></trkpt><trkpt lat="46.187301547038835" lon="11.857406491217116"><ele>962.6666666666667</ele><time>2026-05-02T14:17:13.001Z</time></trkpt><trkpt lat="46.18728984781854" lon="11.857639602269419"><ele>962.3333333333334</ele><time>2026-05-02T14:17:14.001Z</time></trkpt><trkpt lat="46.187274593078634" lon="11.857873933110477"><ele>962.0</ele><time>2026-05-02T14:17:15.001Z</time></trkpt><trkpt lat="46.18725569272743" lon="11.858092998430939"><ele>962.0</ele><time>2026-05-02T14:17:16.001Z</time></trkpt><trkpt lat="46.1872313580987" lon="11.85831597305923"><ele>962.0</ele><time>2026-05-02T14:17:17.001Z</time></trkpt><trkpt lat="46.1871489685177" lon="11.858502364907379"><ele>962.0</ele><time>2026-05-02T14:17:18.001Z</time></trkpt><trkpt lat="46.18704792051769" lon="11.858693193670636"><ele>955.3333333333334</ele><time>2026-05-02T14:17:19.001Z</time></trkpt><trkpt lat="46.18694112824934" lon="11.858875824827525"><ele>948.6666666666667</ele><time>2026-05-02T14:17:20.001Z</time></trkpt><trkpt lat="46.186831830665795" lon="11.859065891437789"><ele>942.0</ele><time>2026-05-02T14:17:21.001Z</time></trkpt><trkpt lat="46.18672102990311" lon="11.859246278846674"><ele>940.75</ele><time>2026-05-02T14:17:22.001Z</time></trkpt><trkpt lat="46.18663524324451" lon="11.859428733569976"><ele>939.5</ele><time>2026-05-02T14:17:23.001Z</time></trkpt><trkpt lat="46.18656868534892" lon="11.859611828062967"><ele>938.25</ele><time>2026-05-02T14:17:24.001Z</time></trkpt><trkpt lat="46.18651646514243" lon="11.859781152687454"><ele>937.0</ele><time>2026-05-02T14:17:25.001Z</time></trkpt><trkpt lat="46.186497257098296" lon="11.859954174486605"><ele>939.5</ele><time>2026-05-02T14:17:26.001Z</time></trkpt><trkpt lat="46.1865121969764" lon="11.860131877671934"><ele>942.0</ele><time>2026-05-02T14:17:27.001Z</time></trkpt><trkpt lat="46.18655451305965" lon="11.860296416506813"><ele>944.5</ele><time>2026-05-02T14:17:28.001Z</time></trkpt><trkpt lat="46.186619924040876" lon="11.860436664899192"><ele>947.0</ele><time>2026-05-02T14:17:29.001Z</time></trkpt><trkpt lat="46.18671528497482" lon="11.860563390847808"><ele>947.0</ele><time>2026-05-02T14:17:30.001Z</time></trkpt><trkpt lat="46.18682926085488" lon="11.860659420853006"><ele>947.0</ele><time>2026-05-02T14:17:31.001Z</time></trkpt><trkpt lat="46.186958210314664" lon="11.860710217952928"><ele>947.0</ele><time>2026-05-02T14:17:32.001Z</time></trkpt><trkpt lat="46.18709877842114" lon="11.860712599154944"><ele>947.0</ele><time>2026-05-02T14:17:33.001Z</time></trkpt><trkpt lat="46.18723491184202" lon="11.860649289347789"><ele>951.6666666666667</ele><time>2026-05-02T14:17:34.001Z</time></trkpt><trkpt lat="46.187361340927794" lon="11.860533812611218"><ele>956.3333333333333</ele><time>2026-05-02T14:17:35.001Z</time></trkpt><trkpt lat="46.18748427011558" lon="11.86038170922188"><ele>961.0</ele><time>2026-05-02T14:17:36.001Z</time></trkpt><trkpt lat="46.18762306286167" lon="11.860274582732874"><ele>961.0</ele><time>2026-05-02T14:17:37.001Z</time></trkpt><trkpt lat="46.18777317281262" lon="11.860222317294696"><ele>961.0</ele><time>2026-05-02T14:17:38.001Z</time></trkpt><trkpt lat="46.18790027290749" lon="11.860199869758583"><ele>961.0</ele><time>2026-05-02T14:17:39.001Z</time></trkpt><trkpt lat="46.187995584211436" lon="11.860163378010503"><ele>961.0</ele><time>2026-05-02T14:17:40.001Z</time></trkpt><trkpt lat="46.18808647051962" lon="11.860156840105354"><ele>961.0</ele><time>2026-05-02T14:17:41.001Z</time></trkpt><trkpt lat="46.188167482721994" lon="11.860218199311703"><ele>961.0</ele><time>2026-05-02T14:17:42.001Z</time></trkpt><trkpt lat="46.18821194506244" lon="11.860334188872145"><ele>961.0</ele><time>2026-05-02T14:17:43.001Z</time></trkpt><trkpt lat="46.188267639650995" lon="11.86048358430928"><ele>961.0</ele><time>2026-05-02T14:17:44.001Z</time></trkpt><trkpt lat="46.18835350495213" lon="11.860661292502634"><ele>964.75</ele><time>2026-05-02T14:17:45.001Z</time></trkpt><trkpt lat="46.18846119957358" lon="11.860795287711543"><ele>968.5</ele><time>2026-05-02T14:17:46Z</time></trkpt><trkpt lat="46.188574305577085" lon="11.860870668767141"><ele>972.25</ele><time>2026-05-02T14:17:47Z</time></trkpt><trkpt lat="46.1886978124691" lon="11.860886950146288"><ele>976.0</ele><time>2026-05-02T14:17:48Z</time></trkpt><trkpt lat="46.18882778028256" lon="11.860867474209876"><ele>976.0</ele><time>2026-05-02T14:17:49Z</time></trkpt><trkpt lat="46.18895297315059" lon="11.860841560985536"><ele>975.9999999999999</ele><time>2026-05-02T14:17:50Z</time></trkpt><trkpt lat="46.18905942008699" lon="11.860840160665305"><ele>975.9999999999999</ele><time>2026-05-02T14:17:51Z</time></trkpt><trkpt lat="46.18914630225814" lon="11.860878120745607"><ele>976.0</ele><time>2026-05-02T14:17:52Z</time></trkpt><trkpt lat="46.18924090999922" lon="11.860981767607381"><ele>976.0</ele><time>2026-05-02T14:17:53Z</time></trkpt><trkpt lat="46.18934101655426" lon="11.861084919138769"><ele>978.5999999999999</ele><time>2026-05-02T14:17:54Z</time></trkpt><trkpt lat="46.189450146789326" lon="11.86118199451197"><ele>981.1999999999999</ele><time>2026-05-02T14:17:55Z</time></trkpt><trkpt lat="46.18955372971211" lon="11.861255925465937"><ele>983.8000000000001</ele><time>2026-05-02T14:17:56Z</time></trkpt><trkpt lat="46.18964953560904" lon="11.861316340688221"><ele>986.4000000000001</ele><time>2026-05-02T14:17:57Z</time></trkpt><trkpt lat="46.189733166176325" lon="11.8613376566002"><ele>989.0</ele><time>2026-05-02T14:17:58Z</time></trkpt><trkpt lat="46.18981381197959" lon="11.861342257972426"><ele>989.0</ele><time>2026-05-02T14:17:59Z</time></trkpt><trkpt lat="46.189892177886335" lon="11.86145039711827"><ele>989.0000000000001</ele><time>2026-05-02T14:18:01Z</time></trkpt><trkpt lat="46.189868183815044" lon="11.86154563190847"><ele>989.0000000000001</ele><time>2026-05-02T14:18:02Z</time></trkpt><trkpt lat="46.18979877365369" lon="11.861597260871019"><ele>989.0</ele><time>2026-05-02T14:18:03Z</time></trkpt><trkpt lat="46.18970557395151" lon="11.861591216415437"><ele>989.0</ele><time>2026-05-02T14:18:04Z</time></trkpt><trkpt lat="46.189614740651386" lon="11.861515003829183"><ele>989.0</ele><time>2026-05-02T14:18:05Z</time></trkpt><trkpt lat="46.18950175547417" lon="11.86150244791937"><ele>989.0000000000001</ele><time>2026-05-02T14:18:06Z</time></trkpt><trkpt lat="46.189396668656634" lon="11.86149048173535"><ele>989.0000000000001</ele><time>2026-05-02T14:18:07Z</time></trkpt><trkpt lat="46.18928968992795" lon="11.861506660902636"><ele>989.0</ele><time>2026-05-02T14:18:08Z</time></trkpt><trkpt lat="46.189176904244626" lon="11.861558498463891"><ele>989.0</ele><time>2026-05-02T14:18:09Z</time></trkpt><trkpt lat="46.18906941674439" lon="11.861651934268416"><ele>988.5</ele><time>2026-05-02T14:18:10Z</time></trkpt><trkpt lat="46.18897853708328" lon="11.86178496875643"><ele>988.0</ele><time>2026-05-02T14:18:11Z</time></trkpt><trkpt lat="46.1889025321746" lon="11.861948720479377"><ele>987.5</ele><time>2026-05-02T14:18:12Z</time></trkpt><trkpt lat="46.188850696779866" lon="11.862135043588095"><ele>987.0</ele><time>2026-05-02T14:18:13Z</time></trkpt><trkpt lat="46.188832825434375" lon="11.862334134512004"><ele>987.0</ele><time>2026-05-02T14:18:14Z</time></trkpt><trkpt lat="46.18884786249032" lon="11.86253368962838"><ele>987.0</ele><time>2026-05-02T14:18:15Z</time></trkpt><trkpt lat="46.188882608226244" lon="11.862731284838269"><ele>987.0</ele><time>2026-05-02T14:18:16Z</time></trkpt><trkpt lat="46.18890994409341" lon="11.862933502376128"><ele>987.0</ele><time>2026-05-02T14:18:17Z</time></trkpt><trkpt lat="46.18892444158273" lon="11.863132439854601"><ele>991.25</ele><time>2026-05-02T14:18:18Z</time></trkpt><trkpt lat="46.188913742649824" lon="11.863326719648992"><ele>995.5</ele><time>2026-05-02T14:18:19Z</time></trkpt><trkpt lat="46.188864054476866" lon="11.863494844632745"><ele>999.75</ele><time>2026-05-02T14:18:20Z</time></trkpt><trkpt lat="46.18875157047892" lon="11.863577407385687"><ele>1004.0</ele><time>2026-05-02T14:18:21Z</time></trkpt><trkpt lat="46.188659435108676" lon="11.86367983835193"><ele>1007.4000000000001</ele><time>2026-05-02T14:18:22Z</time></trkpt><trkpt lat="46.18860463333125" lon="11.863783072986497"><ele>1010.8000000000001</ele><time>2026-05-02T14:18:23Z</time></trkpt><trkpt lat="46.18860079442381" lon="11.863913368425173"><ele>1014.1999999999999</ele><time>2026-05-02T14:18:24Z</time></trkpt><trkpt lat="46.18866702807845" lon="11.864016544668742"><ele>1017.5999999999999</ele><time>2026-05-02T14:18:25Z</time></trkpt><trkpt lat="46.18877779505953" lon="11.864045664910476"><ele>1021.0</ele><time>2026-05-02T14:18:26Z</time></trkpt><trkpt lat="46.188919757113666" lon="11.864012985451357"><ele>1022.0</ele><time>2026-05-02T14:18:27Z</time></trkpt><trkpt lat="46.18904593207744" lon="11.863953199579374"><ele>1022.9999999999999</ele><time>2026-05-02T14:18:28Z</time></trkpt><trkpt lat="46.189140280296165" lon="11.863941124748525"><ele>1023.9999999999999</ele><time>2026-05-02T14:18:29Z</time></trkpt><trkpt lat="46.18920402024438" lon="11.864021300914326"><ele>1025.0</ele><time>2026-05-02T14:18:30Z</time></trkpt><trkpt lat="46.189220463547336" lon="11.864159851067416"><ele>1026.0</ele><time>2026-05-02T14:18:31Z</time></trkpt><trkpt lat="46.18914275579464" lon="11.864266662145754"><ele>1030.6666666666667</ele><time>2026-05-02T14:18:32Z</time></trkpt><trkpt lat="46.18901596235119" lon="11.864288906735121"><ele>1035.3333333333335</ele><time>2026-05-02T14:18:33Z</time></trkpt><trkpt lat="46.1888572094769" lon="11.864374213757818"><ele>1040.0</ele><time>2026-05-02T14:18:34Z</time></trkpt><trkpt lat="46.18864566986143" lon="11.864514923731523"><ele>1040.0</ele><time>2026-05-02T14:18:35Z</time></trkpt><trkpt lat="46.18844121666589" lon="11.864611489541529"><ele>1040.0</ele><time>2026-05-02T14:18:36Z</time></trkpt><trkpt lat="46.18828477199031" lon="11.864604175626225"><ele>1040.0</ele><time>2026-05-02T14:18:37Z</time></trkpt><trkpt lat="46.18812161222785" lon="11.864600743644775"><ele>1038.6666666666667</ele><time>2026-05-02T14:18:38Z</time></trkpt><trkpt lat="46.1879577002971" lon="11.864648402300052"><ele>1037.3333333333333</ele><time>2026-05-02T14:18:39Z</time></trkpt><trkpt lat="46.18779285027872" lon="11.864711698139883"><ele>1036.0</ele><time>2026-05-02T14:18:40Z</time></trkpt><trkpt lat="46.18762678474036" lon="11.864830541306592"><ele>1036.0</ele><time>2026-05-02T14:18:41Z</time></trkpt><trkpt lat="46.18749850028801" lon="11.865002157673555"><ele>1036.0</ele><time>2026-05-02T14:18:42Z</time></trkpt><trkpt lat="46.18737451319539" lon="11.865068187513499"><ele>1036.0</ele><time>2026-05-02T14:18:43Z</time></trkpt><trkpt lat="46.18725589401121" lon="11.865105519177238"><ele>1036.0</ele><time>2026-05-02T14:18:44Z</time></trkpt><trkpt lat="46.187162706112986" lon="11.865167308448537"><ele>1035.75</ele><time>2026-05-02T14:18:45Z</time></trkpt><trkpt lat="46.18709004433715" lon="11.865242825232889"><ele>1035.5</ele><time>2026-05-02T14:18:46Z</time></trkpt><trkpt lat="46.187037967040965" lon="11.86535926349759"><ele>1035.25</ele><time>2026-05-02T14:18:47Z</time></trkpt><trkpt lat="46.18706404276766" lon="11.865585155789647"><ele>1035.0</ele><time>2026-05-02T14:18:48Z</time></trkpt><trkpt lat="46.187069649536774" lon="11.865826719639148"><ele>1037.0</ele><time>2026-05-02T14:18:49Z</time></trkpt><trkpt lat="46.18704009274499" lon="11.866088567864981"><ele>1039.0</ele><time>2026-05-02T14:18:50Z</time></trkpt><trkpt lat="46.186986837346744" lon="11.866329608290576"><ele>1041.0</ele><time>2026-05-02T14:18:51Z</time></trkpt><trkpt lat="46.18693414130725" lon="11.866568384343546"><ele>1045.6666666666667</ele><time>2026-05-02T14:18:52Z</time></trkpt><trkpt lat="46.18687730844985" lon="11.866818314825053"><ele>1050.3333333333335</ele><time>2026-05-02T14:18:53Z</time></trkpt><trkpt lat="46.186828089435586" lon="11.867065454365235"><ele>1055.0</ele><time>2026-05-02T14:18:54Z</time></trkpt><trkpt lat="46.18674478804836" lon="11.867287898118317"><ele>1055.0</ele><time>2026-05-02T14:18:55Z</time></trkpt><trkpt lat="46.186683589615" lon="11.8675155460632"><ele>1055.0</ele><time>2026-05-02T14:18:56Z</time></trkpt><trkpt lat="46.18660790505721" lon="11.867732594827954"><ele>1055.0</ele><time>2026-05-02T14:18:57Z</time></trkpt><trkpt lat="46.18653353226297" lon="11.867942573351128"><ele>1062.0</ele><time>2026-05-02T14:18:58Z</time></trkpt><trkpt lat="46.186467982883954" lon="11.868145379923222"><ele>1069.0</ele><time>2026-05-02T14:18:59Z</time></trkpt><trkpt lat="46.18640032344399" lon="11.868347387904135"><ele>1076.0</ele><time>2026-05-02T14:19:00Z</time></trkpt><trkpt lat="46.18634755433802" lon="11.86853380690061"><ele>1077.5</ele><time>2026-05-02T14:19:01.001Z</time></trkpt><trkpt lat="46.18630190835522" lon="11.868715517454376"><ele>1079.0</ele><time>2026-05-02T14:19:02.001Z</time></trkpt><trkpt lat="46.1862907243116" lon="11.868899541477095"><ele>1080.5</ele><time>2026-05-02T14:19:03.001Z</time></trkpt><trkpt lat="46.18629708776888" lon="11.869075238306124"><ele>1082.0</ele><time>2026-05-02T14:19:04.001Z</time></trkpt><trkpt lat="46.18627672576293" lon="11.86924410367888"><ele>1082.8</ele><time>2026-05-02T14:19:05.001Z</time></trkpt><trkpt lat="46.18619311530677" lon="11.869362798442175"><ele>1083.6</ele><time>2026-05-02T14:19:06.001Z</time></trkpt><trkpt lat="46.1861100488877" lon="11.8694516144813"><ele>1084.3999999999999</ele><time>2026-05-02T14:19:07.001Z</time></trkpt><trkpt lat="46.18600311391647" lon="11.869385739460705"><ele>1085.2</ele><time>2026-05-02T14:19:08.001Z</time></trkpt><trkpt lat="46.18589556696661" lon="11.869383139464956"><ele>1086.0</ele><time>2026-05-02T14:19:09.001Z</time></trkpt><trkpt lat="46.18578565418484" lon="11.869412043516972"><ele>1086.0</ele><time>2026-05-02T14:19:10.001Z</time></trkpt><trkpt lat="46.1857007055054" lon="11.869469673135661"><ele>1086.0</ele><time>2026-05-02T14:19:11.001Z</time></trkpt><trkpt lat="46.18564781217265" lon="11.869610200997355"><ele>1086.0</ele><time>2026-05-02T14:19:12.001Z</time></trkpt><trkpt lat="46.185662555654105" lon="11.869763615715273"><ele>1086.0</ele><time>2026-05-02T14:19:13.001Z</time></trkpt><trkpt lat="46.18572326342791" lon="11.86988687648999"><ele>1086.0</ele><time>2026-05-02T14:19:14.001Z</time></trkpt><trkpt lat="46.185819078656394" lon="11.869947224479372"><ele>1086.0</ele><time>2026-05-02T14:19:15.001Z</time></trkpt><trkpt lat="46.185944616392035" lon="11.869938878690656"><ele>1086.0</ele><time>2026-05-02T14:19:16.001Z</time></trkpt><trkpt lat="46.18607888498687" lon="11.869898839258443"><ele>1086.0</ele><time>2026-05-02T14:19:17.001Z</time></trkpt><trkpt lat="46.186204157799374" lon="11.869877385172273"><ele>1086.0</ele><time>2026-05-02T14:19:18.001Z</time></trkpt><trkpt lat="46.18630018327014" lon="11.869918460434098"><ele>1086.0</ele><time>2026-05-02T14:19:19.001Z</time></trkpt><trkpt lat="46.18636457760368" lon="11.870028807533789"><ele>1086.0</ele><time>2026-05-02T14:19:20.001Z</time></trkpt><trkpt lat="46.18637438960846" lon="11.870185643140001"><ele>1086.0</ele><time>2026-05-02T14:19:21.001Z</time></trkpt><trkpt lat="46.18632492281851" lon="11.870327592876697"><ele>1086.0</ele><time>2026-05-02T14:19:22.001Z</time></trkpt><trkpt lat="46.18620697046291" lon="11.870429928739878"><ele>1088.6666666666667</ele><time>2026-05-02T14:19:23.001Z</time></trkpt><trkpt lat="46.18609300440617" lon="11.870605530074606"><ele>1091.3333333333335</ele><time>2026-05-02T14:19:24.001Z</time></trkpt><trkpt lat="46.18597921612136" lon="11.870821298696614"><ele>1094.0</ele><time>2026-05-02T14:19:25.001Z</time></trkpt><trkpt lat="46.18590528816903" lon="11.871059025224483"><ele>1097.3333333333335</ele><time>2026-05-02T14:19:26.001Z</time></trkpt><trkpt lat="46.18587538397535" lon="11.871298469393581"><ele>1100.6666666666667</ele><time>2026-05-02T14:19:27.001Z</time></trkpt><trkpt lat="46.18586846507482" lon="11.871508768712122"><ele>1104.0</ele><time>2026-05-02T14:19:28.001Z</time></trkpt><trkpt lat="46.18588882210757" lon="11.871732772529743"><ele>1105.3333333333333</ele><time>2026-05-02T14:19:29.001Z</time></trkpt><trkpt lat="46.18594512968428" lon="11.871977077903757"><ele>1106.6666666666665</ele><time>2026-05-02T14:19:30.001Z</time></trkpt><trkpt lat="46.18598435406218" lon="11.872218771766342"><ele>1108.0</ele><time>2026-05-02T14:19:31.001Z</time></trkpt><trkpt lat="46.1860039391679" lon="11.872471241777838"><ele>1107.6666666666665</ele><time>2026-05-02T14:19:32.001Z</time></trkpt><trkpt lat="46.18598794953472" lon="11.87273647487408"><ele>1107.3333333333333</ele><time>2026-05-02T14:19:33.001Z</time></trkpt><trkpt lat="46.185942335314174" lon="11.872996215702507"><ele>1107.0</ele><time>2026-05-02T14:19:34.001Z</time></trkpt><trkpt lat="46.185850546335566" lon="11.873227206233462"><ele>1108.3333333333333</ele><time>2026-05-02T14:19:35.001Z</time></trkpt><trkpt lat="46.18574903996308" lon="11.87345320907233"><ele>1109.6666666666665</ele><time>2026-05-02T14:19:36.001Z</time></trkpt><trkpt lat="46.18561103332421" lon="11.873640524303397"><ele>1111.0</ele><time>2026-05-02T14:19:37.001Z</time></trkpt><trkpt lat="46.18547387051566" lon="11.873824863652485"><ele>1111.0</ele><time>2026-05-02T14:19:38.001Z</time></trkpt><trkpt lat="46.18534894610852" lon="11.8740142089283"><ele>1111.0</ele><time>2026-05-02T14:19:39.001Z</time></trkpt><trkpt lat="46.18522447264204" lon="11.87419750856229"><ele>1111.0</ele><time>2026-05-02T14:19:40.001Z</time></trkpt><trkpt lat="46.18511429755353" lon="11.874389915386686"><ele>1111.3333333333333</ele><time>2026-05-02T14:19:41.001Z</time></trkpt><trkpt lat="46.185022478984536" lon="11.8746093001051"><ele>1111.6666666666667</ele><time>2026-05-02T14:19:42.001Z</time></trkpt><trkpt lat="46.1849584795425" lon="11.874846702309359"><ele>1112.0</ele><time>2026-05-02T14:19:43.001Z</time></trkpt><trkpt lat="46.184947760722615" lon="11.875122111025284"><ele>1115.0</ele><time>2026-05-02T14:19:44.001Z</time></trkpt><trkpt lat="46.18497511005567" lon="11.875410699526261"><ele>1118.0</ele><time>2026-05-02T14:19:45.001Z</time></trkpt><trkpt lat="46.18502478552994" lon="11.875698726846949"><ele>1121.0</ele><time>2026-05-02T14:19:46.001Z</time></trkpt><trkpt lat="46.18506586227267" lon="11.876001986050992"><ele>1125.0</ele><time>2026-05-02T14:19:47.001Z</time></trkpt><trkpt lat="46.18512971273255" lon="11.876294629082352"><ele>1129.0</ele><time>2026-05-02T14:19:48.001Z</time></trkpt><trkpt lat="46.18516911800976" lon="11.876603490751307"><ele>1133.0</ele><time>2026-05-02T14:19:49.001Z</time></trkpt><trkpt lat="46.18519746262791" lon="11.876906464370958"><ele>1134.0</ele><time>2026-05-02T14:19:50.001Z</time></trkpt><trkpt lat="46.18522225568399" lon="11.877212852551835"><ele>1135.0</ele><time>2026-05-02T14:19:51.001Z</time></trkpt><trkpt lat="46.18524650024303" lon="11.877517339771163"><ele>1136.0</ele><time>2026-05-02T14:19:52Z</time></trkpt><trkpt lat="46.18527302007804" lon="11.877814398860838"><ele>1139.6666666666667</ele><time>2026-05-02T14:19:53Z</time></trkpt><trkpt lat="46.18530766169995" lon="11.878111577283608"><ele>1143.3333333333333</ele><time>2026-05-02T14:19:54Z</time></trkpt><trkpt lat="46.18534836872595" lon="11.878401712781342"><ele>1147.0</ele><time>2026-05-02T14:19:55Z</time></trkpt><trkpt lat="46.185408330642744" lon="11.878682750610258"><ele>1148.6666666666665</ele><time>2026-05-02T14:19:56Z</time></trkpt><trkpt lat="46.18546077211279" lon="11.87896145403923"><ele>1150.3333333333333</ele><time>2026-05-02T14:19:57Z</time></trkpt><trkpt lat="46.1855495779252" lon="11.879241288308293"><ele>1152.0</ele><time>2026-05-02T14:19:58Z</time></trkpt><trkpt lat="46.185651378566256" lon="11.87952085346088"><ele>1151.6666666666667</ele><time>2026-05-02T14:19:59Z</time></trkpt><trkpt lat="46.18575248714633" lon="11.879800817635958"><ele>1151.3333333333335</ele><time>2026-05-02T14:20:00Z</time></trkpt><trkpt lat="46.18585607719404" lon="11.88008008606681"><ele>1151.0</ele><time>2026-05-02T14:20:01Z</time></trkpt><trkpt lat="46.185955624046365" lon="11.880360361224255"><ele>1155.0</ele><time>2026-05-02T14:20:02Z</time></trkpt><trkpt lat="46.18605492476482" lon="11.880630679918365"><ele>1159.0</ele><time>2026-05-02T14:20:03Z</time></trkpt><trkpt lat="46.186147445432674" lon="11.8808992775801"><ele>1163.0</ele><time>2026-05-02T14:20:04Z</time></trkpt><trkpt lat="46.18623747819922" lon="11.881163368168197"><ele>1165.6666666666667</ele><time>2026-05-02T14:20:05Z</time></trkpt><trkpt lat="46.18632705492393" lon="11.881423289986955"><ele>1168.3333333333333</ele><time>2026-05-02T14:20:06Z</time></trkpt><trkpt lat="46.186416088476754" lon="11.881675482419833"><ele>1171.0</ele><time>2026-05-02T14:20:07Z</time></trkpt><trkpt lat="46.18651229645564" lon="11.881922838576298"><ele>1171.0</ele><time>2026-05-02T14:20:08Z</time></trkpt><trkpt lat="46.18659533329896" lon="11.882172278836038"><ele>1171.0</ele><time>2026-05-02T14:20:09Z</time></trkpt><trkpt lat="46.186682045723494" lon="11.88241664292279"><ele>1171.0</ele><time>2026-05-02T14:20:10Z</time></trkpt><trkpt lat="46.18676450840442" lon="11.882659941490187"><ele>1176.6666666666665</ele><time>2026-05-02T14:20:11Z</time></trkpt><trkpt lat="46.186841291542166" lon="11.882903543154487"><ele>1182.3333333333333</ele><time>2026-05-02T14:20:12Z</time></trkpt><trkpt lat="46.18691580424689" lon="11.883151973113584"><ele>1188.0</ele><time>2026-05-02T14:20:13Z</time></trkpt><trkpt lat="46.18697888060557" lon="11.883406942319409"><ele>1191.0</ele><time>2026-05-02T14:20:14Z</time></trkpt><trkpt lat="46.18704613777517" lon="11.883671328736083"><ele>1194.0</ele><time>2026-05-02T14:20:15Z</time></trkpt><trkpt lat="46.18711375013021" lon="11.883937872233808"><ele>1197.0</ele><time>2026-05-02T14:20:16Z</time></trkpt><trkpt lat="46.187186024820306" lon="11.884197715579194"><ele>1196.0</ele><time>2026-05-02T14:20:17Z</time></trkpt><trkpt lat="46.18727357633163" lon="11.884445049536023"><ele>1195.0</ele><time>2026-05-02T14:20:18Z</time></trkpt><trkpt lat="46.187378369821765" lon="11.884673586996781"><ele>1194.0</ele><time>2026-05-02T14:20:19Z</time></trkpt><trkpt lat="46.18753648548449" lon="11.884866148295616"><ele>1194.0</ele><time>2026-05-02T14:20:20Z</time></trkpt><trkpt lat="46.18769043503951" lon="11.885055049954508"><ele>1194.0</ele><time>2026-05-02T14:20:21Z</time></trkpt><trkpt lat="46.1878382299804" lon="11.885255489519523"><ele>1194.0</ele><time>2026-05-02T14:20:22Z</time></trkpt><trkpt lat="46.18797994300958" lon="11.885463532120674"><ele>1199.3333333333333</ele><time>2026-05-02T14:20:23Z</time></trkpt><trkpt lat="46.18812093095897" lon="11.885675499078875"><ele>1204.6666666666665</ele><time>2026-05-02T14:20:24Z</time></trkpt><trkpt lat="46.18826487935588" lon="11.885889213228106"><ele>1210.0</ele><time>2026-05-02T14:20:25Z</time></trkpt><trkpt lat="46.18841166187403" lon="11.886099548252103"><ele>1221.0</ele><time>2026-05-02T14:20:26Z</time></trkpt><trkpt lat="46.18855094008863" lon="11.886305693484468"><ele>1232.0</ele><time>2026-05-02T14:20:27Z</time></trkpt><trkpt lat="46.188695735261994" lon="11.88651910215804"><ele>1243.0</ele><time>2026-05-02T14:20:28Z</time></trkpt><trkpt lat="46.188836634808055" lon="11.886729692819706"><ele>1238.0</ele><time>2026-05-02T14:20:29Z</time></trkpt><trkpt lat="46.18896966482937" lon="11.886936616193749"><ele>1233.0</ele><time>2026-05-02T14:20:30Z</time></trkpt><trkpt lat="46.189102183750315" lon="11.887130847544812"><ele>1228.0</ele><time>2026-05-02T14:20:31Z</time></trkpt><trkpt lat="46.18921003063375" lon="11.887334263562456"><ele>1228.0</ele><time>2026-05-02T14:20:32Z</time></trkpt><trkpt lat="46.18927667349089" lon="11.887566938176585"><ele>1228.0</ele><time>2026-05-02T14:20:33Z</time></trkpt><trkpt lat="46.189310260282696" lon="11.887823209202885"><ele>1228.0</ele><time>2026-05-02T14:20:34Z</time></trkpt><trkpt lat="46.18932867531198" lon="11.888084824883219"><ele>1234.6666666666665</ele><time>2026-05-02T14:20:35Z</time></trkpt><trkpt lat="46.1893582971053" lon="11.88834449631344"><ele>1241.3333333333333</ele><time>2026-05-02T14:20:36Z</time></trkpt><trkpt lat="46.18939972722182" lon="11.88860334228714"><ele>1248.0</ele><time>2026-05-02T14:20:37Z</time></trkpt><trkpt lat="46.18945462415782" lon="11.888863655304808"><ele>1256.0</ele><time>2026-05-02T14:20:38Z</time></trkpt><trkpt lat="46.18953067825292" lon="11.889115161846757"><ele>1264.0</ele><time>2026-05-02T14:20:39Z</time></trkpt><trkpt lat="46.18960773764749" lon="11.889358318948002"><ele>1272.0</ele><time>2026-05-02T14:20:40Z</time></trkpt><trkpt lat="46.18967369335763" lon="11.889571826956297"><ele>1266.5</ele><time>2026-05-02T14:20:41Z</time></trkpt><trkpt lat="46.18972712740172" lon="11.889732537177045"><ele>1261.0</ele><time>2026-05-02T14:20:42Z</time></trkpt><trkpt lat="46.189796716704016" lon="11.889822718205457"><ele>1255.5</ele><time>2026-05-02T14:20:43Z</time></trkpt><trkpt lat="46.1899001301061" lon="11.889831045059758"><ele>1250.0</ele><time>2026-05-02T14:20:44Z</time></trkpt><trkpt lat="46.19003195088986" lon="11.889777087891368"><ele>1250.0</ele><time>2026-05-02T14:20:45Z</time></trkpt><trkpt lat="46.19018569417193" lon="11.88969001153692"><ele>1250.0</ele><time>2026-05-02T14:20:46Z</time></trkpt><trkpt lat="46.19031610217135" lon="11.889620568786567"><ele>1250.0</ele><time>2026-05-02T14:20:47Z</time></trkpt><trkpt lat="46.19041994679068" lon="11.889614407492362"><ele>1250.0</ele><time>2026-05-02T14:20:48Z</time></trkpt><trkpt lat="46.19050475615609" lon="11.889698947985806"><ele>1250.0</ele><time>2026-05-02T14:20:49Z</time></trkpt><trkpt lat="46.19055243047377" lon="11.889832082692598"><ele>1250.0</ele><time>2026-05-02T14:20:50Z</time></trkpt><trkpt lat="46.19056054606599" lon="11.890024125059934"><ele>1250.0</ele><time>2026-05-02T14:20:51Z</time></trkpt><trkpt lat="46.1905670440439" lon="11.89026780113117"><ele>1250.0</ele><time>2026-05-02T14:20:52Z</time></trkpt><trkpt lat="46.19060036524118" lon="11.890455432182497"><ele>1250.25</ele><time>2026-05-02T14:20:53Z</time></trkpt><trkpt lat="46.1906736632583" lon="11.890570504514107"><ele>1250.5</ele><time>2026-05-02T14:20:54Z</time></trkpt><trkpt lat="46.19079209055712" lon="11.890630069613483"><ele>1250.75</ele><time>2026-05-02T14:20:55Z</time></trkpt><trkpt lat="46.19092966882978" lon="11.890608114118477"><ele>1251.0</ele><time>2026-05-02T14:20:56Z</time></trkpt><trkpt lat="46.19105717281363" lon="11.89050719081933"><ele>1251.0</ele><time>2026-05-02T14:20:57Z</time></trkpt><trkpt lat="46.1911467758199" lon="11.890339296932943"><ele>1251.0</ele><time>2026-05-02T14:20:58Z</time></trkpt><trkpt lat="46.19120742583481" lon="11.890130354647598"><ele>1251.0</ele><time>2026-05-02T14:20:59Z</time></trkpt><trkpt lat="46.19122647972126" lon="11.889955099158188"><ele>1251.0</ele><time>2026-05-02T14:21:00.001Z</time></trkpt><trkpt lat="46.19126775160659" lon="11.88987749756044"><ele>1251.0</ele><time>2026-05-02T14:21:01.001Z</time></trkpt><trkpt lat="46.19133584101572" lon="11.889929322676878"><ele>1251.0</ele><time>2026-05-02T14:21:02.001Z</time></trkpt><trkpt lat="46.19136784613099" lon="11.890038431921155"><ele>1251.0</ele><time>2026-05-02T14:21:03.001Z</time></trkpt><trkpt lat="46.1913549679992" lon="11.890161395266745"><ele>1251.0</ele><time>2026-05-02T14:21:04.001Z</time></trkpt><trkpt lat="46.19130867943359" lon="11.890318852222864"><ele>1251.0</ele><time>2026-05-02T14:21:05.001Z</time></trkpt><trkpt lat="46.19127575404216" lon="11.890542212864839"><ele>1251.0</ele><time>2026-05-02T14:21:06.001Z</time></trkpt><trkpt lat="46.19128183894361" lon="11.890790601141065"><ele>1251.0</ele><time>2026-05-02T14:21:07.001Z</time></trkpt><trkpt lat="46.191307536546745" lon="11.89104411467318"><ele>1251.0</ele><time>2026-05-02T14:21:08.001Z</time></trkpt><trkpt lat="46.19132637916662" lon="11.891243901962897"><ele>1253.5</ele><time>2026-05-02T14:21:09.001Z</time></trkpt><trkpt lat="46.191339972690024" lon="11.891385549075869"><ele>1256.0</ele><time>2026-05-02T14:21:10.001Z</time></trkpt><trkpt lat="46.19138172209966" lon="11.891467408115778"><ele>1258.5</ele><time>2026-05-02T14:21:11.001Z</time></trkpt><trkpt lat="46.19146227489776" lon="11.891464624171828"><ele>1261.0</ele><time>2026-05-02T14:21:12.001Z</time></trkpt><trkpt lat="46.191538806957794" lon="11.89138339813219"><ele>1263.5</ele><time>2026-05-02T14:21:13.001Z</time></trkpt><trkpt lat="46.191568794336874" lon="11.891246308782291"><ele>1266.0</ele><time>2026-05-02T14:21:14.001Z</time></trkpt><trkpt lat="46.1915877079565" lon="11.891052797295508"><ele>1267.3333333333333</ele><time>2026-05-02T14:21:15.001Z</time></trkpt><trkpt lat="46.19161657168528" lon="11.890807688870124"><ele>1268.6666666666665</ele><time>2026-05-02T14:21:16.001Z</time></trkpt><trkpt lat="46.191655540445595" lon="11.890575803563475"><ele>1270.0</ele><time>2026-05-02T14:21:17.001Z</time></trkpt><trkpt lat="46.19168334280426" lon="11.890390083622398"><ele>1270.0</ele><time>2026-05-02T14:21:18.001Z</time></trkpt><trkpt lat="46.191706708484226" lon="11.890237558285607"><ele>1270.0</ele><time>2026-05-02T14:21:19.001Z</time></trkpt><trkpt lat="46.19172786533289" lon="11.890134025183112"><ele>1270.0</ele><time>2026-05-02T14:21:20.001Z</time></trkpt><trkpt lat="46.191839316646465" lon="11.890140761278385"><ele>1270.0</ele><time>2026-05-02T14:21:22.001Z</time></trkpt><trkpt lat="46.19187634629026" lon="11.89024680673355"><ele>1270.0</ele><time>2026-05-02T14:21:23.001Z</time></trkpt><trkpt lat="46.19187201258778" lon="11.890379957506314"><ele>1270.0</ele><time>2026-05-02T14:21:24.001Z</time></trkpt><trkpt lat="46.19184473489907" lon="11.890560787950736"><ele>1270.0</ele><time>2026-05-02T14:21:25.001Z</time></trkpt><trkpt lat="46.191840093799364" lon="11.890785400629673"><ele>1270.0</ele><time>2026-05-02T14:21:26.001Z</time></trkpt><trkpt lat="46.19186485241112" lon="11.891037073907327"><ele>1272.3333333333333</ele><time>2026-05-02T14:21:27.001Z</time></trkpt><trkpt lat="46.19189852737826" lon="11.891300652790235"><ele>1274.6666666666667</ele><time>2026-05-02T14:21:28.001Z</time></trkpt><trkpt lat="46.191916293735325" lon="11.891580700262914"><ele>1277.0</ele><time>2026-05-02T14:21:29.001Z</time></trkpt><trkpt lat="46.19192199391454" lon="11.89186013022701"><ele>1280.6666666666667</ele><time>2026-05-02T14:21:30.001Z</time></trkpt><trkpt lat="46.19192464611622" lon="11.892143719928187"><ele>1284.3333333333333</ele><time>2026-05-02T14:21:31.001Z</time></trkpt><trkpt lat="46.19192042880847" lon="11.892421463297488"><ele>1288.0</ele><time>2026-05-02T14:21:32.001Z</time></trkpt><trkpt lat="46.191901187578914" lon="11.892685317956252"><ele>1289.0</ele><time>2026-05-02T14:21:33.001Z</time></trkpt><trkpt lat="46.191866391233596" lon="11.892937744380099"><ele>1290.0</ele><time>2026-05-02T14:21:34.001Z</time></trkpt><trkpt lat="46.19184966129997" lon="11.893198808891803"><ele>1291.0</ele><time>2026-05-02T14:21:35.001Z</time></trkpt><trkpt lat="46.19186091881526" lon="11.89347204120647"><ele>1293.3333333333333</ele><time>2026-05-02T14:21:36.001Z</time></trkpt><trkpt lat="46.19186620125396" lon="11.893746440362603"><ele>1295.6666666666667</ele><time>2026-05-02T14:21:37.001Z</time></trkpt><trkpt lat="46.19186612390834" lon="11.89401493752455"><ele>1298.0</ele><time>2026-05-02T14:21:38.001Z</time></trkpt><trkpt lat="46.19186067434914" lon="11.894285868478518"><ele>1300.6666666666667</ele><time>2026-05-02T14:21:39.001Z</time></trkpt><trkpt lat="46.19184360760793" lon="11.894553327134018"><ele>1303.3333333333333</ele><time>2026-05-02T14:21:40.001Z</time></trkpt><trkpt lat="46.1918108429876" lon="11.894823910914091"><ele>1306.0</ele><time>2026-05-02T14:21:41.001Z</time></trkpt><trkpt lat="46.19177639369753" lon="11.895091033897844"><ele>1307.6666666666665</ele><time>2026-05-02T14:21:42.001Z</time></trkpt><trkpt lat="46.19174886753675" lon="11.895355193937364"><ele>1309.3333333333333</ele><time>2026-05-02T14:21:43.001Z</time></trkpt><trkpt lat="46.19172456508421" lon="11.895620514307671"><ele>1311.0</ele><time>2026-05-02T14:21:44.001Z</time></trkpt><trkpt lat="46.19170249332393" lon="11.895885013600665"><ele>1314.3333333333333</ele><time>2026-05-02T14:21:45.001Z</time></trkpt><trkpt lat="46.19168367234646" lon="11.896140767240464"><ele>1317.6666666666665</ele><time>2026-05-02T14:21:46.001Z</time></trkpt><trkpt lat="46.19166901446438" lon="11.89638249938542"><ele>1321.0</ele><time>2026-05-02T14:21:47.001Z</time></trkpt><trkpt lat="46.19164864186241" lon="11.896597833285224"><ele>1323.1999999999998</ele><time>2026-05-02T14:21:48.001Z</time></trkpt><trkpt lat="46.19163049237665" lon="11.896784204961136"><ele>1325.3999999999999</ele><time>2026-05-02T14:21:49.001Z</time></trkpt><trkpt lat="46.19161320325089" lon="11.896948574824878"><ele>1327.6</ele><time>2026-05-02T14:21:50.001Z</time></trkpt><trkpt lat="46.19160312060004" lon="11.897094097837952"><ele>1329.8</ele><time>2026-05-02T14:21:51.001Z</time></trkpt><trkpt lat="46.19161592218405" lon="11.897204475471414"><ele>1332.0</ele><time>2026-05-02T14:21:52.001Z</time></trkpt><trkpt lat="46.19168021755629" lon="11.897257901717612"><ele>1332.0</ele><time>2026-05-02T14:21:53.001Z</time></trkpt><trkpt lat="46.19176233163049" lon="11.897219998815883"><ele>1332.0</ele><time>2026-05-02T14:21:54.001Z</time></trkpt><trkpt lat="46.191823100500606" lon="11.897117428161572"><ele>1332.0</ele><time>2026-05-02T14:21:55.001Z</time></trkpt><trkpt lat="46.191876300470206" lon="11.89697748767992"><ele>1332.0</ele><time>2026-05-02T14:21:56.001Z</time></trkpt><trkpt lat="46.19192988919763" lon="11.896836727237483"><ele>1332.0</ele><time>2026-05-02T14:21:57.001Z</time></trkpt><trkpt lat="46.19197840471629" lon="11.896739635862437"><ele>1332.0</ele><time>2026-05-02T14:21:58Z</time></trkpt><trkpt lat="46.192021288640234" lon="11.896663532332651"><ele>1332.0</ele><time>2026-05-02T14:21:59Z</time></trkpt><trkpt lat="46.192120412978625" lon="11.896693313827019"><ele>1332.0</ele><time>2026-05-02T14:22:01Z</time></trkpt><trkpt lat="46.19212401948929" lon="11.896885322647073"><ele>1332.0</ele><time>2026-05-02T14:22:03Z</time></trkpt><trkpt lat="46.192100750332074" lon="11.897016664324145"><ele>1332.0</ele><time>2026-05-02T14:22:04Z</time></trkpt><trkpt lat="46.19207859178435" lon="11.897183983186556"><ele>1332.0</ele><time>2026-05-02T14:22:05Z</time></trkpt><trkpt lat="46.19207024798291" lon="11.897376442365266"><ele>1332.0</ele><time>2026-05-02T14:22:06Z</time></trkpt><trkpt lat="46.19206768538159" lon="11.89757689391278"><ele>1332.0</ele><time>2026-05-02T14:22:07Z</time></trkpt><trkpt lat="46.1920699027113" lon="11.897769371351357"><ele>1332.0</ele><time>2026-05-02T14:22:08Z</time></trkpt><trkpt lat="46.19207907116411" lon="11.8979804199005"><ele>1334.6666666666667</ele><time>2026-05-02T14:22:09Z</time></trkpt><trkpt lat="46.19209658480344" lon="11.898208149349239"><ele>1337.3333333333335</ele><time>2026-05-02T14:22:10Z</time></trkpt><trkpt lat="46.192116074019374" lon="11.89843994774904"><ele>1340.0</ele><time>2026-05-02T14:22:11Z</time></trkpt><trkpt lat="46.19213541657592" lon="11.898675551413291"><ele>1343.6666666666667</ele><time>2026-05-02T14:22:12Z</time></trkpt><trkpt lat="46.192152789766865" lon="11.898906663101554"><ele>1347.3333333333333</ele><time>2026-05-02T14:22:13Z</time></trkpt><trkpt lat="46.1921698019155" lon="11.899129778617505"><ele>1351.0</ele><time>2026-05-02T14:22:14Z</time></trkpt><trkpt lat="46.19218539007538" lon="11.89934932686208"><ele>1354.0</ele><time>2026-05-02T14:22:15Z</time></trkpt><trkpt lat="46.19220436399468" lon="11.899573484418664"><ele>1357.0</ele><time>2026-05-02T14:22:16Z</time></trkpt><trkpt lat="46.1922262449794" lon="11.899792915800646"><ele>1360.0</ele><time>2026-05-02T14:22:17Z</time></trkpt><trkpt lat="46.19225226344749" lon="11.900009355701068"><ele>1358.3333333333333</ele><time>2026-05-02T14:22:18Z</time></trkpt><trkpt lat="46.19229168894004" lon="11.900225834067205"><ele>1356.6666666666667</ele><time>2026-05-02T14:22:19Z</time></trkpt><trkpt lat="46.19234687990584" lon="11.90044005274984"><ele>1355.0</ele><time>2026-05-02T14:22:20Z</time></trkpt><trkpt lat="46.192403620943445" lon="11.900654611222"><ele>1355.0</ele><time>2026-05-02T14:22:21Z</time></trkpt><trkpt lat="46.19245213439102" lon="11.900875507949939"><ele>1355.0</ele><time>2026-05-02T14:22:22Z</time></trkpt><trkpt lat="46.19248893567261" lon="11.901100509973137"><ele>1355.0</ele><time>2026-05-02T14:22:23Z</time></trkpt><trkpt lat="46.19251426786428" lon="11.901333559033707"><ele>1355.3333333333335</ele><time>2026-05-02T14:22:24Z</time></trkpt><trkpt lat="46.19253244675053" lon="11.901570626603649"><ele>1355.6666666666667</ele><time>2026-05-02T14:22:25Z</time></trkpt><trkpt lat="46.1925478114172" lon="11.901807902489189"><ele>1356.0</ele><time>2026-05-02T14:22:26Z</time></trkpt><trkpt lat="46.192569745774804" lon="11.902042360843328"><ele>1357.6666666666667</ele><time>2026-05-02T14:22:27Z</time></trkpt><trkpt lat="46.192592729089895" lon="11.902278366841864"><ele>1359.3333333333335</ele><time>2026-05-02T14:22:28Z</time></trkpt><trkpt lat="46.1926140855251" lon="11.902519656816656"><ele>1361.0</ele><time>2026-05-02T14:22:29Z</time></trkpt><trkpt lat="46.192635995901085" lon="11.902761512593022"><ele>1362.6666666666667</ele><time>2026-05-02T14:22:30Z</time></trkpt><trkpt lat="46.192663066983386" lon="11.90300124474912"><ele>1364.3333333333333</ele><time>2026-05-02T14:22:31Z</time></trkpt><trkpt lat="46.19270023649041" lon="11.903242949732377"><ele>1366.0</ele><time>2026-05-02T14:22:32Z</time></trkpt><trkpt lat="46.192733960508775" lon="11.903454517543203"><ele>1368.5</ele><time>2026-05-02T14:22:33Z</time></trkpt><trkpt lat="46.19276281140815" lon="11.90364252947593"><ele>1371.0</ele><time>2026-05-02T14:22:34Z</time></trkpt><trkpt lat="46.19279086637182" lon="11.903828056781757"><ele>1373.5</ele><time>2026-05-02T14:22:35Z</time></trkpt><trkpt lat="46.1928226651165" lon="11.904033849965998"><ele>1376.0</ele><time>2026-05-02T14:22:36Z</time></trkpt><trkpt lat="46.192855676113794" lon="11.904248788988172"><ele>1379.75</ele><time>2026-05-02T14:22:37Z</time></trkpt><trkpt lat="46.192890757041624" lon="11.904468866614794"><ele>1383.5</ele><time>2026-05-02T14:22:38Z</time></trkpt><trkpt lat="46.19291921175327" lon="11.904669350779791"><ele>1387.25</ele><time>2026-05-02T14:22:39Z</time></trkpt><trkpt lat="46.192943168485684" lon="11.904854665282567"><ele>1391.0</ele><time>2026-05-02T14:22:40Z</time></trkpt><trkpt lat="46.192971807477605" lon="11.905047285629056"><ele>1391.75</ele><time>2026-05-02T14:22:41Z</time></trkpt><trkpt lat="46.19299592156206" lon="11.90523991383527"><ele>1392.5</ele><time>2026-05-02T14:22:42Z</time></trkpt><trkpt lat="46.19302249907274" lon="11.905435770013703"><ele>1393.25</ele><time>2026-05-02T14:22:43Z</time></trkpt><trkpt lat="46.19305652719442" lon="11.90562964502503"><ele>1394.0</ele><time>2026-05-02T14:22:44Z</time></trkpt><trkpt lat="46.19309008983286" lon="11.905825184303685"><ele>1391.5</ele><time>2026-05-02T14:22:45Z</time></trkpt><trkpt lat="46.1931249970257" lon="11.906006002202497"><ele>1389.0</ele><time>2026-05-02T14:22:46Z</time></trkpt><trkpt lat="46.19316300084147" lon="11.906197274813742"><ele>1386.5</ele><time>2026-05-02T14:22:47Z</time></trkpt><trkpt lat="46.19320120675359" lon="11.906390133594908"><ele>1384.0</ele><time>2026-05-02T14:22:48Z</time></trkpt><trkpt lat="46.19323319181435" lon="11.9065844788172"><ele>1379.75</ele><time>2026-05-02T14:22:49Z</time></trkpt><trkpt lat="46.193253588459235" lon="11.906769490281562"><ele>1375.5</ele><time>2026-05-02T14:22:50Z</time></trkpt><trkpt lat="46.19327031171057" lon="11.906949528634327"><ele>1371.25</ele><time>2026-05-02T14:22:51Z</time></trkpt><trkpt lat="46.19328817204895" lon="11.907122530433115"><ele>1367.0</ele><time>2026-05-02T14:22:52Z</time></trkpt><trkpt lat="46.19330693362512" lon="11.907299975128545"><ele>1367.0</ele><time>2026-05-02T14:22:53Z</time></trkpt><trkpt lat="46.193324010795386" lon="11.907474590413138"><ele>1367.0</ele><time>2026-05-02T14:22:54Z</time></trkpt><trkpt lat="46.19334343920785" lon="11.907649733198356"><ele>1367.0</ele><time>2026-05-02T14:22:55Z</time></trkpt><trkpt lat="46.193362143788214" lon="11.90784329949156"><ele>1367.0</ele><time>2026-05-02T14:22:56Z</time></trkpt><trkpt lat="46.19338145853222" lon="11.908064389524815"><ele>1365.6666666666667</ele><time>2026-05-02T14:22:57Z</time></trkpt><trkpt lat="46.19340481056385" lon="11.90829600999272"><ele>1364.3333333333333</ele><time>2026-05-02T14:22:58.001Z</time></trkpt><trkpt lat="46.19342749467356" lon="11.90852308281722"><ele>1363.0</ele><time>2026-05-02T14:22:59.001Z</time></trkpt><trkpt lat="46.19345062837708" lon="11.908748919375173"><ele>1363.0</ele><time>2026-05-02T14:23:00.001Z</time></trkpt><trkpt lat="46.19347231694007" lon="11.908983758721968"><ele>1363.0</ele><time>2026-05-02T14:23:01.001Z</time></trkpt><trkpt lat="46.193484307323445" lon="11.909231440331665"><ele>1363.0</ele><time>2026-05-02T14:23:02.001Z</time></trkpt><trkpt lat="46.19349227816737" lon="11.909487156670172"><ele>1361.0</ele><time>2026-05-02T14:23:03.001Z</time></trkpt><trkpt lat="46.19349651157581" lon="11.90974037190176"><ele>1359.0</ele><time>2026-05-02T14:23:04.001Z</time></trkpt><trkpt lat="46.19350381263053" lon="11.90999079215757"><ele>1357.0</ele><time>2026-05-02T14:23:05.001Z</time></trkpt><trkpt lat="46.193509230143675" lon="11.91022989519333"><ele>1355.3333333333333</ele><time>2026-05-02T14:23:06.001Z</time></trkpt><trkpt lat="46.1935249332382" lon="11.910463951037618"><ele>1353.6666666666667</ele><time>2026-05-02T14:23:07.001Z</time></trkpt><trkpt lat="46.19355206550975" lon="11.910685711971537"><ele>1352.0</ele><time>2026-05-02T14:23:08.001Z</time></trkpt><trkpt lat="46.19360199395744" lon="11.910913786158678"><ele>1351.0</ele><time>2026-05-02T14:23:09.001Z</time></trkpt><trkpt lat="46.19366039828403" lon="11.911149809633285"><ele>1350.0</ele><time>2026-05-02T14:23:10.001Z</time></trkpt><trkpt lat="46.193714186948625" lon="11.911390305907421"><ele>1349.0</ele><time>2026-05-02T14:23:11.001Z</time></trkpt><trkpt lat="46.19376841586025" lon="11.911627800217182"><ele>1346.3333333333335</ele><time>2026-05-02T14:23:12.001Z</time></trkpt><trkpt lat="46.19382330055248" lon="11.911872087649579"><ele>1343.6666666666667</ele><time>2026-05-02T14:23:13.001Z</time></trkpt><trkpt lat="46.19388391599754" lon="11.912121377069399"><ele>1341.0</ele><time>2026-05-02T14:23:14.001Z</time></trkpt><trkpt lat="46.19394370365943" lon="11.912371166739181"><ele>1340.6666666666667</ele><time>2026-05-02T14:23:15.001Z</time></trkpt><trkpt lat="46.19400387008318" lon="11.912621466261825"><ele>1340.3333333333335</ele><time>2026-05-02T14:23:16.001Z</time></trkpt><trkpt lat="46.19406407058637" lon="11.91286019211684"><ele>1340.0</ele><time>2026-05-02T14:23:17.001Z</time></trkpt><trkpt lat="46.19411704489369" lon="11.913093392931083"><ele>1340.0</ele><time>2026-05-02T14:23:18.001Z</time></trkpt><trkpt lat="46.19415953580441" lon="11.913322190624015"><ele>1340.0</ele><time>2026-05-02T14:23:19.001Z</time></trkpt><trkpt lat="46.19418136765026" lon="11.913549008491337"><ele>1340.0</ele><time>2026-05-02T14:23:20.001Z</time></trkpt><trkpt lat="46.19419242528798" lon="11.9137748903049"><ele>1337.75</ele><time>2026-05-02T14:23:21.001Z</time></trkpt><trkpt lat="46.194192400490834" lon="11.913981558336332"><ele>1335.5</ele><time>2026-05-02T14:23:22.001Z</time></trkpt><trkpt lat="46.194198447841174" lon="11.91416827573616"><ele>1333.25</ele><time>2026-05-02T14:23:23.001Z</time></trkpt><trkpt lat="46.19421104976586" lon="11.914337609915794"><ele>1331.0</ele><time>2026-05-02T14:23:24.001Z</time></trkpt><trkpt lat="46.19424298136689" lon="11.91448242981019"><ele>1329.25</ele><time>2026-05-02T14:23:25.001Z</time></trkpt><trkpt lat="46.194311982293215" lon="11.914591614237782"><ele>1327.5</ele><time>2026-05-02T14:23:26.001Z</time></trkpt><trkpt lat="46.194418668309616" lon="11.914650563623415"><ele>1325.75</ele><time>2026-05-02T14:23:27.001Z</time></trkpt><trkpt lat="46.19454876933602" lon="11.914676208406856"><ele>1324.0</ele><time>2026-05-02T14:23:28.001Z</time></trkpt><trkpt lat="46.194691775536825" lon="11.914701941021505"><ele>1323.6666666666665</ele><time>2026-05-02T14:23:29.001Z</time></trkpt><trkpt lat="46.194846566682" lon="11.914740115985001"><ele>1323.3333333333333</ele><time>2026-05-02T14:23:30.001Z</time></trkpt><trkpt lat="46.19500682880412" lon="11.91480150763192"><ele>1323.0</ele><time>2026-05-02T14:23:31.001Z</time></trkpt><trkpt lat="46.195164702498246" lon="11.914908219618924"><ele>1323.0</ele><time>2026-05-02T14:23:32.001Z</time></trkpt><trkpt lat="46.195312191106154" lon="11.915050918891316"><ele>1323.0</ele><time>2026-05-02T14:23:33.001Z</time></trkpt><trkpt lat="46.195450726273315" lon="11.91522148902228"><ele>1323.0</ele><time>2026-05-02T14:23:34.001Z</time></trkpt><trkpt lat="46.19557755271791" lon="11.915399387802118"><ele>1321.0</ele><time>2026-05-02T14:23:35.001Z</time></trkpt><trkpt lat="46.19569769377113" lon="11.915576707308277"><ele>1319.0</ele><time>2026-05-02T14:23:36.001Z</time></trkpt><trkpt lat="46.19581115180074" lon="11.915752861916891"><ele>1317.0</ele><time>2026-05-02T14:23:37.001Z</time></trkpt><trkpt lat="46.195914022400174" lon="11.915925340442877"><ele>1313.6666666666667</ele><time>2026-05-02T14:23:38.001Z</time></trkpt><trkpt lat="46.196005442719525" lon="11.916107590023277"><ele>1310.3333333333335</ele><time>2026-05-02T14:23:39.001Z</time></trkpt><trkpt lat="46.196089966143724" lon="11.916301244538422"><ele>1307.0</ele><time>2026-05-02T14:23:40.001Z</time></trkpt><trkpt lat="46.196177022422646" lon="11.916489128059354"><ele>1307.0</ele><time>2026-05-02T14:23:41.001Z</time></trkpt><trkpt lat="46.19626655032154" lon="11.916681525089405"><ele>1307.0</ele><time>2026-05-02T14:23:42.001Z</time></trkpt><trkpt lat="46.196364833742905" lon="11.916870384547982"><ele>1307.0</ele><time>2026-05-02T14:23:43.001Z</time></trkpt><trkpt lat="46.19648025780605" lon="11.91704297028326"><ele>1306.0</ele><time>2026-05-02T14:23:44.001Z</time></trkpt><trkpt lat="46.196609211177595" lon="11.917205638771703"><ele>1305.0</ele><time>2026-05-02T14:23:45.001Z</time></trkpt><trkpt lat="46.19674244748026" lon="11.917364929314301"><ele>1304.0</ele><time>2026-05-02T14:23:46.001Z</time></trkpt><trkpt lat="46.196872314831204" lon="11.91751248730777"><ele>1302.0</ele><time>2026-05-02T14:23:47.001Z</time></trkpt><trkpt lat="46.196995419234874" lon="11.917649600106426"><ele>1300.0</ele><time>2026-05-02T14:23:48.001Z</time></trkpt><trkpt lat="46.197111913485244" lon="11.917783495363027"><ele>1298.0</ele><time>2026-05-02T14:23:49.001Z</time></trkpt><trkpt lat="46.19722005313133" lon="11.917922750162134"><ele>1296.0</ele><time>2026-05-02T14:23:50.001Z</time></trkpt><trkpt lat="46.19731196681142" lon="11.91807391120807"><ele>1296.75</ele><time>2026-05-02T14:23:51.001Z</time></trkpt><trkpt lat="46.197390643939634" lon="11.918243676386881"><ele>1297.5</ele><time>2026-05-02T14:23:52.001Z</time></trkpt><trkpt lat="46.197459962137124" lon="11.918430943828541"><ele>1298.25</ele><time>2026-05-02T14:23:53.001Z</time></trkpt><trkpt lat="46.197522156401426" lon="11.918627888397264"><ele>1299.0</ele><time>2026-05-02T14:23:54.001Z</time></trkpt><trkpt lat="46.19757159245526" lon="11.918841057308194"><ele>1299.0</ele><time>2026-05-02T14:23:55.001Z</time></trkpt><trkpt lat="46.19761325403799" lon="11.919060278999257"><ele>1299.0</ele><time>2026-05-02T14:23:56.001Z</time></trkpt><trkpt lat="46.197645303898675" lon="11.919288820641903"><ele>1299.0</ele><time>2026-05-02T14:23:57.001Z</time></trkpt><trkpt lat="46.19766690743438" lon="11.919511268709543"><ele>1297.25</ele><time>2026-05-02T14:23:58.001Z</time></trkpt><trkpt lat="46.19767226280531" lon="11.919727481338926"><ele>1295.5</ele><time>2026-05-02T14:23:59.001Z</time></trkpt><trkpt lat="46.19765794378721" lon="11.919936200464246"><ele>1293.75</ele><time>2026-05-02T14:24:00.001Z</time></trkpt><trkpt lat="46.197615614841865" lon="11.920132875127656"><ele>1292.0</ele><time>2026-05-02T14:24:01.001Z</time></trkpt><trkpt lat="46.19754223790332" lon="11.9202981354644"><ele>1292.1999999999998</ele><time>2026-05-02T14:24:02.001Z</time></trkpt><trkpt lat="46.197427158894776" lon="11.92039200940476"><ele>1292.4</ele><time>2026-05-02T14:24:03.001Z</time></trkpt><trkpt lat="46.19733549865743" lon="11.920490826298366"><ele>1292.6</ele><time>2026-05-02T14:24:04Z</time></trkpt><trkpt lat="46.197259916573934" lon="11.920571641264825"><ele>1292.8000000000002</ele><time>2026-05-02T14:24:05Z</time></trkpt><trkpt lat="46.19723605308071" lon="11.920701121227191"><ele>1293.0</ele><time>2026-05-02T14:24:06Z</time></trkpt><trkpt lat="46.197260690475716" lon="11.92083734580499"><ele>1290.8000000000002</ele><time>2026-05-02T14:24:07Z</time></trkpt><trkpt lat="46.19733149432006" lon="11.92094489517869"><ele>1288.6</ele><time>2026-05-02T14:24:08Z</time></trkpt><trkpt lat="46.197419022542356" lon="11.920993954790795"><ele>1286.4</ele><time>2026-05-02T14:24:09Z</time></trkpt><trkpt lat="46.1975276221033" lon="11.92098724695259"><ele>1284.1999999999998</ele><time>2026-05-02T14:24:10Z</time></trkpt><trkpt lat="46.19765015060385" lon="11.920957737125134"><ele>1282.0</ele><time>2026-05-02T14:24:11Z</time></trkpt><trkpt lat="46.19776670479854" lon="11.92092688506333"><ele>1281.25</ele><time>2026-05-02T14:24:12Z</time></trkpt><trkpt lat="46.197881188010896" lon="11.920901253531284"><ele>1280.5</ele><time>2026-05-02T14:24:13Z</time></trkpt><trkpt lat="46.19799735679609" lon="11.920880124716614"><ele>1279.75</ele><time>2026-05-02T14:24:14Z</time></trkpt><trkpt lat="46.19811337574506" lon="11.920856951457862"><ele>1279.0</ele><time>2026-05-02T14:24:15Z</time></trkpt><trkpt lat="46.19822954623349" lon="11.920835309224188"><ele>1278.75</ele><time>2026-05-02T14:24:16Z</time></trkpt><trkpt lat="46.198350879735116" lon="11.920817982836185"><ele>1278.5</ele><time>2026-05-02T14:24:17Z</time></trkpt><trkpt lat="46.19848085871471" lon="11.920817426147092"><ele>1278.25</ele><time>2026-05-02T14:24:18Z</time></trkpt><trkpt lat="46.19861839506463" lon="11.920839210788774"><ele>1278.0</ele><time>2026-05-02T14:24:19Z</time></trkpt><trkpt lat="46.198747388394715" lon="11.920886547870504"><ele>1275.75</ele><time>2026-05-02T14:24:20Z</time></trkpt><trkpt lat="46.198871102110964" lon="11.920961388051374"><ele>1273.5</ele><time>2026-05-02T14:24:21Z</time></trkpt><trkpt lat="46.198976106298744" lon="11.921058029195917"><ele>1271.25</ele><time>2026-05-02T14:24:22Z</time></trkpt><trkpt lat="46.19905120530904" lon="11.921173176608859"><ele>1269.0</ele><time>2026-05-02T14:24:23Z</time></trkpt><trkpt lat="46.19913538571102" lon="11.921259768225223"><ele>1265.25</ele><time>2026-05-02T14:24:24.001Z</time></trkpt><trkpt lat="46.199255084659626" lon="11.92126733021381"><ele>1261.5</ele><time>2026-05-02T14:24:25Z</time></trkpt><trkpt lat="46.19940107135221" lon="11.921215005305186"><ele>1257.75</ele><time>2026-05-02T14:24:26Z</time></trkpt><trkpt lat="46.19955881365377" lon="11.921164964812865"><ele>1254.0</ele><time>2026-05-02T14:24:27Z</time></trkpt><trkpt lat="46.19972347309368" lon="11.921133647943757"><ele>1248.0</ele><time>2026-05-02T14:24:28Z</time></trkpt><trkpt lat="46.19989006061239" lon="11.921099743319935"><ele>1242.0</ele><time>2026-05-02T14:24:29Z</time></trkpt><trkpt lat="46.2000485885699" lon="11.921060097685475"><ele>1236.0</ele><time>2026-05-02T14:24:30Z</time></trkpt><trkpt lat="46.20020531041301" lon="11.921027036321828"><ele>1236.0</ele><time>2026-05-02T14:24:31Z</time></trkpt><trkpt lat="46.200357620937936" lon="11.920999821021878"><ele>1236.0</ele><time>2026-05-02T14:24:32Z</time></trkpt><trkpt lat="46.20049700280964" lon="11.920975877731692"><ele>1236.0</ele><time>2026-05-02T14:24:33Z</time></trkpt><trkpt lat="46.20062721208469" lon="11.920955453408997"><ele>1236.0</ele><time>2026-05-02T14:24:34Z</time></trkpt><trkpt lat="46.20075118803409" lon="11.920967631777149"><ele>1233.8</ele><time>2026-05-02T14:24:35Z</time></trkpt><trkpt lat="46.200856911407136" lon="11.92101626487178"><ele>1231.6</ele><time>2026-05-02T14:24:36Z</time></trkpt><trkpt lat="46.200955311393436" lon="11.921020938684707"><ele>1229.4</ele><time>2026-05-02T14:24:37Z</time></trkpt><trkpt lat="46.20104962679203" lon="11.920940802200183"><ele>1227.2</ele><time>2026-05-02T14:24:38Z</time></trkpt><trkpt lat="46.20112270593974" lon="11.920842531302341"><ele>1225.0</ele><time>2026-05-02T14:24:39Z</time></trkpt><trkpt lat="46.20120245259224" lon="11.92081002917789"><ele>1225.0</ele><time>2026-05-02T14:24:40Z</time></trkpt><trkpt lat="46.20130477572524" lon="11.92086934328679"><ele>1225.0</ele><time>2026-05-02T14:24:41Z</time></trkpt><trkpt lat="46.20142002766632" lon="11.920986989794363"><ele>1225.0</ele><time>2026-05-02T14:24:42Z</time></trkpt><trkpt lat="46.20156921025781" lon="11.921069398506688"><ele>1225.0</ele><time>2026-05-02T14:24:43Z</time></trkpt><trkpt lat="46.20173877656358" lon="11.921127301117629"><ele>1224.0</ele><time>2026-05-02T14:24:44Z</time></trkpt><trkpt lat="46.20189931013571" lon="11.921188301921159"><ele>1223.0</ele><time>2026-05-02T14:24:45Z</time></trkpt><trkpt lat="46.20205379265894" lon="11.921264495394244"><ele>1222.0</ele><time>2026-05-02T14:24:46Z</time></trkpt><trkpt lat="46.20221527475332" lon="11.921301801232058"><ele>1222.0</ele><time>2026-05-02T14:24:47Z</time></trkpt><trkpt lat="46.20237822175739" lon="11.921307099265993"><ele>1222.0</ele><time>2026-05-02T14:24:48Z</time></trkpt><trkpt lat="46.20253620078947" lon="11.921294772560355"><ele>1222.0</ele><time>2026-05-02T14:24:49Z</time></trkpt><trkpt lat="46.20268418556154" lon="11.921237345030761"><ele>1222.0</ele><time>2026-05-02T14:24:50Z</time></trkpt><trkpt lat="46.20282424870853" lon="11.921157739730358"><ele>1222.0</ele><time>2026-05-02T14:24:51Z</time></trkpt><trkpt lat="46.202966333311664" lon="11.921090835645586"><ele>1222.0</ele><time>2026-05-02T14:24:52Z</time></trkpt><trkpt lat="46.203107101240064" lon="11.921030912580347"><ele>1222.0</ele><time>2026-05-02T14:24:53Z</time></trkpt><trkpt lat="46.20324454740897" lon="11.920970683449177"><ele>1218.5</ele><time>2026-05-02T14:24:54Z</time></trkpt><trkpt lat="46.20338006832582" lon="11.920908646757773"><ele>1215.0</ele><time>2026-05-02T14:24:55Z</time></trkpt><trkpt lat="46.20351288550747" lon="11.920857725275358"><ele>1211.5</ele><time>2026-05-02T14:24:56.001Z</time></trkpt><trkpt lat="46.203643519270905" lon="11.92078917233509"><ele>1208.0</ele><time>2026-05-02T14:24:57.001Z</time></trkpt><trkpt lat="46.20375765423584" lon="11.920676210923608"><ele>1211.4</ele><time>2026-05-02T14:24:58.001Z</time></trkpt><trkpt lat="46.20385842202105" lon="11.920548613988279"><ele>1214.8</ele><time>2026-05-02T14:24:59.001Z</time></trkpt><trkpt lat="46.203943959367614" lon="11.920440544373012"><ele>1218.2</ele><time>2026-05-02T14:25:00.001Z</time></trkpt><trkpt lat="46.20402328733378" lon="11.920372624006136"><ele>1221.6</ele><time>2026-05-02T14:25:01.001Z</time></trkpt><trkpt lat="46.20408122299512" lon="11.92031386311013"><ele>1225.0</ele><time>2026-05-02T14:25:02.001Z</time></trkpt><trkpt lat="46.20416169168824" lon="11.920331404202125"><ele>1225.0</ele><time>2026-05-02T14:25:04.001Z</time></trkpt><trkpt lat="46.20409657679821" lon="11.920459491427053"><ele>1225.0</ele><time>2026-05-02T14:25:06.001Z</time></trkpt><trkpt lat="46.204019435780005" lon="11.920541202917065"><ele>1225.0</ele><time>2026-05-02T14:25:07.001Z</time></trkpt><trkpt lat="46.20392694536727" lon="11.920637769048612"><ele>1225.0</ele><time>2026-05-02T14:25:08.001Z</time></trkpt><trkpt lat="46.20382419551131" lon="11.920744413952566"><ele>1225.0</ele><time>2026-05-02T14:25:09.001Z</time></trkpt><trkpt lat="46.203713459335965" lon="11.920856673387705"><ele>1219.3333333333333</ele><time>2026-05-02T14:25:10.001Z</time></trkpt><trkpt lat="46.203595934170124" lon="11.920975459764426"><ele>1213.6666666666667</ele><time>2026-05-02T14:25:11.001Z</time></trkpt><trkpt lat="46.203471487800726" lon="11.921103744296037"><ele>1208.0</ele><time>2026-05-02T14:25:12.001Z</time></trkpt><trkpt lat="46.20334542060732" lon="11.921231388776203"><ele>1208.0</ele><time>2026-05-02T14:25:13.001Z</time></trkpt><trkpt lat="46.20322509968046" lon="11.921353035286513"><ele>1208.0</ele><time>2026-05-02T14:25:14.001Z</time></trkpt><trkpt lat="46.20310741615727" lon="11.921473640923782"><ele>1208.0</ele><time>2026-05-02T14:25:15.001Z</time></trkpt><trkpt lat="46.20299267877293" lon="11.921591690968249"><ele>1208.0</ele><time>2026-05-02T14:25:16.001Z</time></trkpt><trkpt lat="46.202879534762154" lon="11.921695337349542"><ele>1201.5</ele><time>2026-05-02T14:25:17.001Z</time></trkpt><trkpt lat="46.20275223279235" lon="11.921769311789657"><ele>1195.0</ele><time>2026-05-02T14:25:18.001Z</time></trkpt><trkpt lat="46.2026214406571" lon="11.921837362648422"><ele>1188.5</ele><time>2026-05-02T14:25:19.001Z</time></trkpt><trkpt lat="46.20249307898967" lon="11.92190788146792"><ele>1182.0</ele><time>2026-05-02T14:25:20.001Z</time></trkpt><trkpt lat="46.202363455598025" lon="11.921979093446502"><ele>1184.5</ele><time>2026-05-02T14:25:21.001Z</time></trkpt><trkpt lat="46.20223705006426" lon="11.92204753110723"><ele>1187.0</ele><time>2026-05-02T14:25:22.001Z</time></trkpt><trkpt lat="46.202115138461224" lon="11.922108837409414"><ele>1189.5</ele><time>2026-05-02T14:25:23.001Z</time></trkpt><trkpt lat="46.20200098813656" lon="11.922164956589256"><ele>1192.0</ele><time>2026-05-02T14:25:24.001Z</time></trkpt><trkpt lat="46.20190395836981" lon="11.922238165321517"><ele>1192.0</ele><time>2026-05-02T14:25:25.001Z</time></trkpt><trkpt lat="46.20181397986569" lon="11.92227578849405"><ele>1192.0</ele><time>2026-05-02T14:25:26.001Z</time></trkpt><trkpt lat="46.20174172609631" lon="11.922323899919562"><ele>1192.0</ele><time>2026-05-02T14:25:27.001Z</time></trkpt><trkpt lat="46.20170185148798" lon="11.92240026194055"><ele>1192.0</ele><time>2026-05-02T14:25:28.001Z</time></trkpt><trkpt lat="46.20170733215809" lon="11.922502358961856"><ele>1192.0</ele><time>2026-05-02T14:25:29.001Z</time></trkpt><trkpt lat="46.20175747294371" lon="11.92257408672731"><ele>1192.0</ele><time>2026-05-02T14:25:30.001Z</time></trkpt><trkpt lat="46.20184128730865" lon="11.922607855098198"><ele>1187.25</ele><time>2026-05-02T14:25:31.001Z</time></trkpt><trkpt lat="46.20195975348929" lon="11.922611919426457"><ele>1182.5</ele><time>2026-05-02T14:25:32.001Z</time></trkpt><trkpt lat="46.20209297382028" lon="11.922626635198668"><ele>1177.75</ele><time>2026-05-02T14:25:33.001Z</time></trkpt><trkpt lat="46.20223592828298" lon="11.922641349190501"><ele>1173.0</ele><time>2026-05-02T14:25:34.001Z</time></trkpt><trkpt lat="46.20241765953806" lon="11.922660109923896"><ele>1170.3333333333333</ele><time>2026-05-02T14:25:35.001Z</time></trkpt><trkpt lat="46.2025954240565" lon="11.92268424059798"><ele>1167.6666666666665</ele><time>2026-05-02T14:25:36.001Z</time></trkpt><trkpt lat="46.2027672980421" lon="11.922708036674432"><ele>1165.0</ele><time>2026-05-02T14:25:37.001Z</time></trkpt><trkpt lat="46.20293556836672" lon="11.922732373646785"><ele>1165.0</ele><time>2026-05-02T14:25:38.001Z</time></trkpt><trkpt lat="46.2031051901132" lon="11.922759021016084"><ele>1165.0</ele><time>2026-05-02T14:25:39.001Z</time></trkpt><trkpt lat="46.20327405349976" lon="11.922786916710542"><ele>1165.0</ele><time>2026-05-02T14:25:40.001Z</time></trkpt><trkpt lat="46.203435973048485" lon="11.922809740593125"><ele>1166.5</ele><time>2026-05-02T14:25:41.001Z</time></trkpt><trkpt lat="46.20358337741454" lon="11.922804993860522"><ele>1168.0</ele><time>2026-05-02T14:25:42.001Z</time></trkpt><trkpt lat="46.20371139366459" lon="11.922749750652464"><ele>1169.5</ele><time>2026-05-02T14:25:43.001Z</time></trkpt><trkpt lat="46.203815327329785" lon="11.922628383972503"><ele>1171.0</ele><time>2026-05-02T14:25:44.001Z</time></trkpt><trkpt lat="46.2038892651427" lon="11.922467204134525"><ele>1171.0</ele><time>2026-05-02T14:25:45.001Z</time></trkpt><trkpt lat="46.20394189569834" lon="11.92229306871997"><ele>1171.0</ele><time>2026-05-02T14:25:46.001Z</time></trkpt><trkpt lat="46.204007268165206" lon="11.92213685999965"><ele>1171.0</ele><time>2026-05-02T14:25:47.001Z</time></trkpt><trkpt lat="46.2040806943423" lon="11.921989867438542"><ele>1171.0</ele><time>2026-05-02T14:25:48.001Z</time></trkpt><trkpt lat="46.204162572013274" lon="11.92188234707899"><ele>1167.6</ele><time>2026-05-02T14:25:49.001Z</time></trkpt><trkpt lat="46.20426017979982" lon="11.921856670730767"><ele>1164.1999999999998</ele><time>2026-05-02T14:25:50.001Z</time></trkpt><trkpt lat="46.20434844402658" lon="11.921916877753384"><ele>1160.8000000000002</ele><time>2026-05-02T14:25:51.001Z</time></trkpt><trkpt lat="46.204419421579395" lon="11.922033104593208"><ele>1157.4</ele><time>2026-05-02T14:25:52.001Z</time></trkpt><trkpt lat="46.204507910514" lon="11.922167571225582"><ele>1154.0</ele><time>2026-05-02T14:25:53.001Z</time></trkpt><trkpt lat="46.20462422628202" lon="11.922276432399753"><ele>1154.0</ele><time>2026-05-02T14:25:54.001Z</time></trkpt><trkpt lat="46.20474216232515" lon="11.922380112608403"><ele>1154.0</ele><time>2026-05-02T14:25:55.001Z</time></trkpt><trkpt lat="46.20485331584637" lon="11.922508207451724"><ele>1154.0</ele><time>2026-05-02T14:25:56.001Z</time></trkpt><trkpt lat="46.204943189878726" lon="11.92266345372078"><ele>1154.0</ele><time>2026-05-02T14:25:57.001Z</time></trkpt><trkpt lat="46.20501262378919" lon="11.922826658875703"><ele>1151.2</ele><time>2026-05-02T14:25:58.001Z</time></trkpt><trkpt lat="46.20504786949474" lon="11.922991754291548"><ele>1148.4</ele><time>2026-05-02T14:25:59.001Z</time></trkpt><trkpt lat="46.20503828247442" lon="11.923155635302788"><ele>1145.6</ele><time>2026-05-02T14:26:00.001Z</time></trkpt><trkpt lat="46.20504409133477" lon="11.923311267922761"><ele>1142.8</ele><time>2026-05-02T14:26:01.001Z</time></trkpt><trkpt lat="46.20508988814172" lon="11.923445949844599"><ele>1140.0</ele><time>2026-05-02T14:26:02.001Z</time></trkpt><trkpt lat="46.20517361866647" lon="11.923538209707816"><ele>1137.4</ele><time>2026-05-02T14:26:03.001Z</time></trkpt><trkpt lat="46.205289102781826" lon="11.923610288560935"><ele>1134.8</ele><time>2026-05-02T14:26:04.001Z</time></trkpt><trkpt lat="46.20541174384079" lon="11.923649813931242"><ele>1132.2</ele><time>2026-05-02T14:26:05.001Z</time></trkpt><trkpt lat="46.205511264826235" lon="11.923685095632433"><ele>1129.6</ele><time>2026-05-02T14:26:06.001Z</time></trkpt><trkpt lat="46.20558065624792" lon="11.923761810418739"><ele>1127.0</ele><time>2026-05-02T14:26:07.001Z</time></trkpt><trkpt lat="46.2056075243266" lon="11.923886870271387"><ele>1127.0</ele><time>2026-05-02T14:26:08.001Z</time></trkpt><trkpt lat="46.20556237874497" lon="11.924015572562212"><ele>1127.0</ele><time>2026-05-02T14:26:09.001Z</time></trkpt><trkpt lat="46.205467147170786" lon="11.924097641411048"><ele>1127.0</ele><time>2026-05-02T14:26:10Z</time></trkpt><trkpt lat="46.205346727173534" lon="11.924129505840787"><ele>1127.0</ele><time>2026-05-02T14:26:11Z</time></trkpt><trkpt lat="46.20523123111307" lon="11.924176322050352"><ele>1127.0</ele><time>2026-05-02T14:26:12Z</time></trkpt><trkpt lat="46.205139154021246" lon="11.924194218391273"><ele>1127.0</ele><time>2026-05-02T14:26:13Z</time></trkpt><trkpt lat="46.205036826706134" lon="11.924238741334722"><ele>1127.0</ele><time>2026-05-02T14:26:14Z</time></trkpt><trkpt lat="46.20494488018309" lon="11.924280447024703"><ele>1127.0</ele><time>2026-05-02T14:26:15Z</time></trkpt><trkpt lat="46.20487532781558" lon="11.924369855418853"><ele>1127.0</ele><time>2026-05-02T14:26:16Z</time></trkpt><trkpt lat="46.20483282924276" lon="11.924494929385297"><ele>1123.6</ele><time>2026-05-02T14:26:17Z</time></trkpt><trkpt lat="46.20480733962559" lon="11.924641574286511"><ele>1120.2</ele><time>2026-05-02T14:26:18Z</time></trkpt><trkpt lat="46.20478054962463" lon="11.924788845113808"><ele>1116.8</ele><time>2026-05-02T14:26:19Z</time></trkpt><trkpt lat="46.20476359660205" lon="11.924940306829777"><ele>1113.4</ele><time>2026-05-02T14:26:20Z</time></trkpt><trkpt lat="46.20475491972535" lon="11.925068907966818"><ele>1110.0</ele><time>2026-05-02T14:26:21Z</time></trkpt><trkpt lat="46.204767452843754" lon="11.925201872527424"><ele>1110.6</ele><time>2026-05-02T14:26:22Z</time></trkpt><trkpt lat="46.20480654894101" lon="11.925345383161803"><ele>1111.2</ele><time>2026-05-02T14:26:23Z</time></trkpt><trkpt lat="46.20486664191637" lon="11.925486219139463"><ele>1111.8</ele><time>2026-05-02T14:26:24Z</time></trkpt><trkpt lat="46.20493122012449" lon="11.925615641803251"><ele>1112.4</ele><time>2026-05-02T14:26:25Z</time></trkpt><trkpt lat="46.20498891410541" lon="11.925742971315493"><ele>1113.0</ele><time>2026-05-02T14:26:26Z</time></trkpt><trkpt lat="46.20504880763294" lon="11.92587926998521"><ele>1112.5</ele><time>2026-05-02T14:26:27Z</time></trkpt><trkpt lat="46.205109474338826" lon="11.926024277213177"><ele>1112.0</ele><time>2026-05-02T14:26:28Z</time></trkpt><trkpt lat="46.20516782615105" lon="11.926167146631162"><ele>1111.5</ele><time>2026-05-02T14:26:29Z</time></trkpt><trkpt lat="46.20523023199339" lon="11.92630369670598"><ele>1111.0</ele><time>2026-05-02T14:26:30Z</time></trkpt><trkpt lat="46.20529186224938" lon="11.926441705089655"><ele>1111.0</ele><time>2026-05-02T14:26:31Z</time></trkpt><trkpt lat="46.2053517201563" lon="11.926581292235769"><ele>1111.0</ele><time>2026-05-02T14:26:32Z</time></trkpt><trkpt lat="46.20541064689234" lon="11.926719774348186"><ele>1111.0</ele><time>2026-05-02T14:26:33Z</time></trkpt><trkpt lat="46.20547172973939" lon="11.926855194100595"><ele>1111.0</ele><time>2026-05-02T14:26:34Z</time></trkpt><trkpt lat="46.20553285711937" lon="11.926990856446478"><ele>1110.2</ele><time>2026-05-02T14:26:35Z</time></trkpt><trkpt lat="46.205590257379" lon="11.927119089462426"><ele>1109.3999999999999</ele><time>2026-05-02T14:26:36Z</time></trkpt><trkpt lat="46.20564994161868" lon="11.927236098905366"><ele>1108.6</ele><time>2026-05-02T14:26:37Z</time></trkpt><trkpt lat="46.2057195709034" lon="11.927340562136207"><ele>1107.8</ele><time>2026-05-02T14:26:38Z</time></trkpt><trkpt lat="46.20581269253159" lon="11.927416503069889"><ele>1107.0</ele><time>2026-05-02T14:26:39Z</time></trkpt><trkpt lat="46.20592724113494" lon="11.927459014012712"><ele>1105.5</ele><time>2026-05-02T14:26:40Z</time></trkpt><trkpt lat="46.20604523532241" lon="11.92749659520475"><ele>1104.0</ele><time>2026-05-02T14:26:41Z</time></trkpt><trkpt lat="46.20615633001047" lon="11.927534787670734"><ele>1102.5</ele><time>2026-05-02T14:26:42Z</time></trkpt><trkpt lat="46.20626430873123" lon="11.927567070616135"><ele>1101.0</ele><time>2026-05-02T14:26:43Z</time></trkpt><trkpt lat="46.206381027695166" lon="11.927558173761522"><ele>1106.25</ele><time>2026-05-02T14:26:44Z</time></trkpt><trkpt lat="46.20650110642725" lon="11.927513575749899"><ele>1111.5</ele><time>2026-05-02T14:26:45Z</time></trkpt><trkpt lat="46.20662155807791" lon="11.927473010840007"><ele>1116.75</ele><time>2026-05-02T14:26:46Z</time></trkpt><trkpt lat="46.20672712769891" lon="11.927443346978421"><ele>1122.0</ele><time>2026-05-02T14:26:47Z</time></trkpt><trkpt lat="46.20682468103522" lon="11.927414820121212"><ele>1122.0</ele><time>2026-05-02T14:26:48Z</time></trkpt><trkpt lat="46.2069189801648" lon="11.927387741638872"><ele>1122.0</ele><time>2026-05-02T14:26:49Z</time></trkpt><trkpt lat="46.20700541270807" lon="11.927362029375319"><ele>1122.0</ele><time>2026-05-02T14:26:50Z</time></trkpt><trkpt lat="46.20708264678644" lon="11.927339744699964"><ele>1122.0</ele><time>2026-05-02T14:26:51Z</time></trkpt><trkpt lat="46.20715332991232" lon="11.927331116428888"><ele>1122.0</ele><time>2026-05-02T14:26:52Z</time></trkpt><trkpt lat="46.20721916563118" lon="11.927350652718845"><ele>1122.0</ele><time>2026-05-02T14:26:53Z</time></trkpt><trkpt lat="46.20726595126358" lon="11.927415504897752"><ele>1122.0</ele><time>2026-05-02T14:26:54Z</time></trkpt><trkpt lat="46.20729009049286" lon="11.927500527088734"><ele>1122.0</ele><time>2026-05-02T14:26:55Z</time></trkpt><trkpt lat="46.20731130554752" lon="11.927589725457075"><ele>1122.0</ele><time>2026-05-02T14:26:56Z</time></trkpt><trkpt lat="46.20733601575384" lon="11.927678448713642"><ele>1122.0</ele><time>2026-05-02T14:26:57Z</time></trkpt><trkpt lat="46.20736667104874" lon="11.927768586977406"><ele>1122.0</ele><time>2026-05-02T14:26:58Z</time></trkpt><trkpt lat="46.20739953351035" lon="11.92785598299427"><ele>1122.0</ele><time>2026-05-02T14:26:59Z</time></trkpt><trkpt lat="46.207463870034196" lon="11.928001914898449"><ele>1120.6</ele><time>2026-05-02T14:27:01Z</time></trkpt><trkpt lat="46.20751348089013" lon="11.928116161237403"><ele>1119.2</ele><time>2026-05-02T14:27:03Z</time></trkpt><trkpt lat="46.20761918949441" lon="11.928117877760828"><ele>1117.8</ele><time>2026-05-02T14:27:05Z</time></trkpt><trkpt lat="46.2076814615483" lon="11.928051027278388"><ele>1116.4</ele><time>2026-05-02T14:27:06Z</time></trkpt><trkpt lat="46.20774113531588" lon="11.927955040897618"><ele>1115.0</ele><time>2026-05-02T14:27:07Z</time></trkpt><trkpt lat="46.20781563555885" lon="11.927863249557353"><ele>1115.0</ele><time>2026-05-02T14:27:08Z</time></trkpt><trkpt lat="46.20788702069909" lon="11.927771517071266"><ele>1115.0</ele><time>2026-05-02T14:27:09Z</time></trkpt><trkpt lat="46.207963024132646" lon="11.927696338748712"><ele>1115.0</ele><time>2026-05-02T14:27:10Z</time></trkpt><trkpt lat="46.20804121930533" lon="11.927618736510446"><ele>1115.0</ele><time>2026-05-02T14:27:11Z</time></trkpt><trkpt lat="46.2081340568382" lon="11.927562266339674"><ele>1115.0</ele><time>2026-05-02T14:27:12.001Z</time></trkpt><trkpt lat="46.20823497345891" lon="11.927539212740047"><ele>1114.6</ele><time>2026-05-02T14:27:13.001Z</time></trkpt><trkpt lat="46.20833731404963" lon="11.927537594308989"><ele>1114.2</ele><time>2026-05-02T14:27:14.001Z</time></trkpt><trkpt lat="46.20843873999817" lon="11.92754307760367"><ele>1113.8</ele><time>2026-05-02T14:27:15.001Z</time></trkpt><trkpt lat="46.20853383202194" lon="11.927550794395707"><ele>1113.4</ele><time>2026-05-02T14:27:16.001Z</time></trkpt><trkpt lat="46.20863457259648" lon="11.927566671975425"><ele>1113.0</ele><time>2026-05-02T14:27:17.001Z</time></trkpt><trkpt lat="46.20873809694608" lon="11.927604207020586"><ele>1113.0</ele><time>2026-05-02T14:27:18.001Z</time></trkpt><trkpt lat="46.208828816421786" lon="11.92765671777083"><ele>1113.0</ele><time>2026-05-02T14:27:19.001Z</time></trkpt><trkpt lat="46.20891109598802" lon="11.927723778817635"><ele>1113.0</ele><time>2026-05-02T14:27:20.001Z</time></trkpt><trkpt lat="46.20898117209937" lon="11.927806357828596"><ele>1113.0</ele><time>2026-05-02T14:27:21.001Z</time></trkpt><trkpt lat="46.20903997470162" lon="11.927909487983273"><ele>1113.0</ele><time>2026-05-02T14:27:22.001Z</time></trkpt><trkpt lat="46.20908497777007" lon="11.928021596524893"><ele>1114.6</ele><time>2026-05-02T14:27:23.001Z</time></trkpt><trkpt lat="46.20913204036055" lon="11.928137814740738"><ele>1116.1999999999998</ele><time>2026-05-02T14:27:24.001Z</time></trkpt><trkpt lat="46.2091781248501" lon="11.928274441274313"><ele>1117.8</ele><time>2026-05-02T14:27:25.001Z</time></trkpt><trkpt lat="46.2092283980694" lon="11.92841232445891"><ele>1119.3999999999999</ele><time>2026-05-02T14:27:26.001Z</time></trkpt><trkpt lat="46.20926920768403" lon="11.928558253154428"><ele>1121.0</ele><time>2026-05-02T14:27:27.001Z</time></trkpt><trkpt lat="46.20929703827419" lon="11.928718799958883"><ele>1121.75</ele><time>2026-05-02T14:27:28.001Z</time></trkpt><trkpt lat="46.20930553937082" lon="11.928890445513057"><ele>1122.5</ele><time>2026-05-02T14:27:29.001Z</time></trkpt><trkpt lat="46.20929485933818" lon="11.929062688843487"><ele>1123.25</ele><time>2026-05-02T14:27:30.001Z</time></trkpt><trkpt lat="46.2092538911287" lon="11.929236695983537"><ele>1124.0</ele><time>2026-05-02T14:27:31.001Z</time></trkpt><trkpt lat="46.20919432478743" lon="11.929407759256126"><ele>1123.0</ele><time>2026-05-02T14:27:32.001Z</time></trkpt><trkpt lat="46.209135103051366" lon="11.929590336460839"><ele>1122.0</ele><time>2026-05-02T14:27:33.001Z</time></trkpt><trkpt lat="46.20907362497756" lon="11.929779006043878"><ele>1121.0</ele><time>2026-05-02T14:27:34.001Z</time></trkpt><trkpt lat="46.20901097351135" lon="11.929966599663295"><ele>1120.0</ele><time>2026-05-02T14:27:35.001Z</time></trkpt><trkpt lat="46.208946823280996" lon="11.93016243308165"><ele>1120.0</ele><time>2026-05-02T14:27:36.001Z</time></trkpt><trkpt lat="46.20888301134896" lon="11.930360549316022"><ele>1120.0</ele><time>2026-05-02T14:27:37.001Z</time></trkpt><trkpt lat="46.20881677227392" lon="11.93056172187273"><ele>1120.0</ele><time>2026-05-02T14:27:38.001Z</time></trkpt><trkpt lat="46.20874507308665" lon="11.930745113371895"><ele>1122.0</ele><time>2026-05-02T14:27:39.001Z</time></trkpt><trkpt lat="46.20869645508956" lon="11.930941343948065"><ele>1124.0</ele><time>2026-05-02T14:27:40.001Z</time></trkpt><trkpt lat="46.20864771186119" lon="11.931138994803119"><ele>1126.0</ele><time>2026-05-02T14:27:41.001Z</time></trkpt><trkpt lat="46.20861029411834" lon="11.931343098186822"><ele>1128.0</ele><time>2026-05-02T14:27:42.001Z</time></trkpt><trkpt lat="46.20857753167268" lon="11.931553661755181"><ele>1130.25</ele><time>2026-05-02T14:27:43.001Z</time></trkpt><trkpt lat="46.20854833050401" lon="11.931763340090503"><ele>1132.5</ele><time>2026-05-02T14:27:44.001Z</time></trkpt><trkpt lat="46.20851902606006" lon="11.931973700903518"><ele>1134.75</ele><time>2026-05-02T14:27:45.001Z</time></trkpt><trkpt lat="46.20848761612783" lon="11.932178240550115"><ele>1137.0</ele><time>2026-05-02T14:27:46.001Z</time></trkpt><trkpt lat="46.20845571939226" lon="11.932380004213655"><ele>1140.0</ele><time>2026-05-02T14:27:47.001Z</time></trkpt><trkpt lat="46.20842435508159" lon="11.932589817821444"><ele>1143.0</ele><time>2026-05-02T14:27:48.001Z</time></trkpt><trkpt lat="46.20839785069291" lon="11.932800034357001"><ele>1146.0</ele><time>2026-05-02T14:27:49.001Z</time></trkpt><trkpt lat="46.208373391679565" lon="11.933014147285368"><ele>1149.0</ele><time>2026-05-02T14:27:50.001Z</time></trkpt><trkpt lat="46.20834269893109" lon="11.933221971974884"><ele>1152.3333333333333</ele><time>2026-05-02T14:27:51.001Z</time></trkpt><trkpt lat="46.20830973358337" lon="11.933434250917516"><ele>1155.6666666666665</ele><time>2026-05-02T14:27:52.001Z</time></trkpt><trkpt lat="46.208280074957635" lon="11.933651681000207"><ele>1159.0</ele><time>2026-05-02T14:27:53.001Z</time></trkpt><trkpt lat="46.208249460040825" lon="11.933861710802"><ele>1159.0</ele><time>2026-05-02T14:27:54.001Z</time></trkpt><trkpt lat="46.20822151111688" lon="11.934067827783982"><ele>1159.0</ele><time>2026-05-02T14:27:55.001Z</time></trkpt><trkpt lat="46.20819644620198" lon="11.934263470475974"><ele>1159.0</ele><time>2026-05-02T14:27:56.001Z</time></trkpt><trkpt lat="46.20816810234057" lon="11.934465559160778"><ele>1159.0</ele><time>2026-05-02T14:27:57.001Z</time></trkpt><trkpt lat="46.208137229553714" lon="11.93466590873601"><ele>1156.25</ele><time>2026-05-02T14:27:58.001Z</time></trkpt><trkpt lat="46.20810606203919" lon="11.934870039923641"><ele>1153.5</ele><time>2026-05-02T14:27:59.001Z</time></trkpt><trkpt lat="46.20808046757801" lon="11.935073584498298"><ele>1150.75</ele><time>2026-05-02T14:28:00.001Z</time></trkpt><trkpt lat="46.20805288108435" lon="11.935282739262563"><ele>1148.0</ele><time>2026-05-02T14:28:01.001Z</time></trkpt><trkpt lat="46.208025610656314" lon="11.935495942819884"><ele>1148.0</ele><time>2026-05-02T14:28:02.001Z</time></trkpt><trkpt lat="46.20799293125005" lon="11.935713234069548"><ele>1148.0</ele><time>2026-05-02T14:28:03.001Z</time></trkpt><trkpt lat="46.2079557532269" lon="11.935938185481339"><ele>1148.0</ele><time>2026-05-02T14:28:04.001Z</time></trkpt><trkpt lat="46.207907363525166" lon="11.936153957861224"><ele>1151.0</ele><time>2026-05-02T14:28:05.001Z</time></trkpt><trkpt lat="46.20783474608458" lon="11.936358410790287"><ele>1154.0</ele><time>2026-05-02T14:28:06.001Z</time></trkpt><trkpt lat="46.20775492206135" lon="11.936545192601137"><ele>1157.0</ele><time>2026-05-02T14:28:07.001Z</time></trkpt><trkpt lat="46.20766429651737" lon="11.936715677967475"><ele>1159.75</ele><time>2026-05-02T14:28:08.001Z</time></trkpt><trkpt lat="46.20758039498251" lon="11.936870247245004"><ele>1162.5</ele><time>2026-05-02T14:28:09.001Z</time></trkpt><trkpt lat="46.207484914477824" lon="11.937011387233461"><ele>1165.25</ele><time>2026-05-02T14:28:10.001Z</time></trkpt><trkpt lat="46.20739983527314" lon="11.937166672120206"><ele>1168.0</ele><time>2026-05-02T14:28:11.001Z</time></trkpt><trkpt lat="46.207324705595816" lon="11.937338133796029"><ele>1164.25</ele><time>2026-05-02T14:28:12.001Z</time></trkpt><trkpt lat="46.20724158981803" lon="11.937482690096243"><ele>1160.5</ele><time>2026-05-02T14:28:13.001Z</time></trkpt><trkpt lat="46.20715985344041" lon="11.937614732343917"><ele>1156.75</ele><time>2026-05-02T14:28:14.001Z</time></trkpt><trkpt lat="46.207079223785854" lon="11.93773756985949"><ele>1153.0</ele><time>2026-05-02T14:28:15.001Z</time></trkpt><trkpt lat="46.20701344931369" lon="11.937868520110568"><ele>1153.0</ele><time>2026-05-02T14:28:16Z</time></trkpt><trkpt lat="46.20694742806789" lon="11.93799436034722"><ele>1153.0</ele><time>2026-05-02T14:28:17Z</time></trkpt><trkpt lat="46.20689842483935" lon="11.938133087667849"><ele>1153.0</ele><time>2026-05-02T14:28:18Z</time></trkpt><trkpt lat="46.20684287148745" lon="11.938273527287636"><ele>1153.0</ele><time>2026-05-02T14:28:19Z</time></trkpt><trkpt lat="46.20677863240045" lon="11.938425221211066"><ele>1155.75</ele><time>2026-05-02T14:28:20Z</time></trkpt><trkpt lat="46.20672607186561" lon="11.938586190745838"><ele>1158.5</ele><time>2026-05-02T14:28:21Z</time></trkpt><trkpt lat="46.206663334308644" lon="11.938730384258161"><ele>1161.25</ele><time>2026-05-02T14:28:22Z</time></trkpt><trkpt lat="46.20659561154174" lon="11.938867126089873"><ele>1164.0</ele><time>2026-05-02T14:28:23Z</time></trkpt><trkpt lat="46.20654242684344" lon="11.939002069769764"><ele>1157.5</ele><time>2026-05-02T14:28:24Z</time></trkpt><trkpt lat="46.20649409579812" lon="11.939147264468522"><ele>1151.0</ele><time>2026-05-02T14:28:25Z</time></trkpt><trkpt lat="46.20646082886587" lon="11.939308820983692"><ele>1144.5</ele><time>2026-05-02T14:28:26Z</time></trkpt><trkpt lat="46.206438764167544" lon="11.939482966062513"><ele>1138.0</ele><time>2026-05-02T14:28:27Z</time></trkpt><trkpt lat="46.20642390224698" lon="11.939665188090215"><ele>1138.0</ele><time>2026-05-02T14:28:28Z</time></trkpt><trkpt lat="46.20640793182351" lon="11.939852995264319"><ele>1138.0</ele><time>2026-05-02T14:28:29Z</time></trkpt><trkpt lat="46.206408462507596" lon="11.940049321306258"><ele>1138.0</ele><time>2026-05-02T14:28:30Z</time></trkpt><trkpt lat="46.20639062527695" lon="11.940244472908754"><ele>1138.0</ele><time>2026-05-02T14:28:31Z</time></trkpt><trkpt lat="46.20637168145919" lon="11.940440743995069"><ele>1139.5</ele><time>2026-05-02T14:28:31.999Z</time></trkpt><trkpt lat="46.206337895613714" lon="11.94063580153975"><ele>1141.0</ele><time>2026-05-02T14:28:32.999Z</time></trkpt><trkpt lat="46.20630065646778" lon="11.94083266483539"><ele>1142.5</ele><time>2026-05-02T14:28:33.999Z</time></trkpt><trkpt lat="46.20626701240915" lon="11.941031561240218"><ele>1144.0</ele><time>2026-05-02T14:28:34.999Z</time></trkpt><trkpt lat="46.20624193795143" lon="11.941238137583545"><ele>1144.0</ele><time>2026-05-02T14:28:35.998Z</time></trkpt><trkpt lat="46.206223393269575" lon="11.941446864442394"><ele>1144.0</ele><time>2026-05-02T14:28:36.998Z</time></trkpt><trkpt lat="46.20621643703626" lon="11.94165410121872"><ele>1144.0</ele><time>2026-05-02T14:28:37.998Z</time></trkpt><trkpt lat="46.20622575242099" lon="11.941859262108908"><ele>1144.0</ele><time>2026-05-02T14:28:38.998Z</time></trkpt><trkpt lat="46.20626050334276" lon="11.942059233410582"><ele>1144.0</ele><time>2026-05-02T14:28:39.998Z</time></trkpt><trkpt lat="46.20631895240257" lon="11.942235486635985"><ele>1144.0</ele><time>2026-05-02T14:28:40.998Z</time></trkpt><trkpt lat="46.20640394382888" lon="11.942398661012067"><ele>1144.0</ele><time>2026-05-02T14:28:41.997Z</time></trkpt><trkpt lat="46.206467389717396" lon="11.942564509119062"><ele>1144.0</ele><time>2026-05-02T14:28:42.997Z</time></trkpt><trkpt lat="46.20651143795606" lon="11.942719572910022"><ele>1143.75</ele><time>2026-05-02T14:28:43.997Z</time></trkpt><trkpt lat="46.20651921899979" lon="11.942875566005588"><ele>1143.5</ele><time>2026-05-02T14:28:44.997Z</time></trkpt><trkpt lat="46.20650250825196" lon="11.943035112948982"><ele>1143.25</ele><time>2026-05-02T14:28:45.997Z</time></trkpt><trkpt lat="46.206494031886166" lon="11.943207588854445"><ele>1143.0</ele><time>2026-05-02T14:28:46.997Z</time></trkpt><trkpt lat="46.20648730772795" lon="11.943384854904131"><ele>1151.5</ele><time>2026-05-02T14:28:47.997Z</time></trkpt><trkpt lat="46.206504577500546" lon="11.943565520862455"><ele>1160.0</ele><time>2026-05-02T14:28:48.997Z</time></trkpt><trkpt lat="46.20653645775473" lon="11.94374453695759"><ele>1168.5</ele><time>2026-05-02T14:28:49.997Z</time></trkpt><trkpt lat="46.20656500020815" lon="11.943919517902344"><ele>1177.0</ele><time>2026-05-02T14:28:50.996Z</time></trkpt><trkpt lat="46.20656753809649" lon="11.944098699297484"><ele>1177.5</ele><time>2026-05-02T14:28:51.996Z</time></trkpt><trkpt lat="46.206548740582065" lon="11.944279078293963"><ele>1178.0</ele><time>2026-05-02T14:28:52.996Z</time></trkpt><trkpt lat="46.2065286633992" lon="11.944447551605755"><ele>1178.5</ele><time>2026-05-02T14:28:53.996Z</time></trkpt><trkpt lat="46.20650956082358" lon="11.94461853464494"><ele>1179.0</ele><time>2026-05-02T14:28:54.996Z</time></trkpt><trkpt lat="46.206483538030234" lon="11.944791486963336"><ele>1170.0</ele><time>2026-05-02T14:28:55.996Z</time></trkpt><trkpt lat="46.206452673069585" lon="11.944973880909743"><ele>1161.0</ele><time>2026-05-02T14:28:56.996Z</time></trkpt><trkpt lat="46.20643427017611" lon="11.945162046434582"><ele>1152.0</ele><time>2026-05-02T14:28:57.996Z</time></trkpt><trkpt lat="46.20643711362484" lon="11.945356727607754"><ele>1143.0</ele><time>2026-05-02T14:28:58.996Z</time></trkpt><trkpt lat="46.20644806824049" lon="11.945550550344267"><ele>1143.0</ele><time>2026-05-02T14:28:59.996Z</time></trkpt><trkpt lat="46.20646562959811" lon="11.945737101522841"><ele>1143.0</ele><time>2026-05-02T14:29:00.996Z</time></trkpt><trkpt lat="46.20650305286615" lon="11.945920173357832"><ele>1143.0</ele><time>2026-05-02T14:29:01.996Z</time></trkpt><trkpt lat="46.20655833500243" lon="11.946092368694949"><ele>1143.0</ele><time>2026-05-02T14:29:02.996Z</time></trkpt><trkpt lat="46.20662333079959" lon="11.946239414528822"><ele>1152.25</ele><time>2026-05-02T14:29:03.996Z</time></trkpt><trkpt lat="46.206669968294015" lon="11.946372811975609"><ele>1161.5</ele><time>2026-05-02T14:29:04.996Z</time></trkpt><trkpt lat="46.20669828197903" lon="11.94654533527233"><ele>1170.75</ele><time>2026-05-02T14:29:05.996Z</time></trkpt><trkpt lat="46.2067053086093" lon="11.946735971766472"><ele>1180.0</ele><time>2026-05-02T14:29:06.996Z</time></trkpt><trkpt lat="46.20671134574691" lon="11.946937653772553"><ele>1181.5</ele><time>2026-05-02T14:29:07.996Z</time></trkpt><trkpt lat="46.206722287147215" lon="11.947140396083626"><ele>1183.0</ele><time>2026-05-02T14:29:08.996Z</time></trkpt><trkpt lat="46.20673275920735" lon="11.947346760631886"><ele>1184.5</ele><time>2026-05-02T14:29:09.996Z</time></trkpt><trkpt lat="46.20673545737909" lon="11.947559532895168"><ele>1186.0</ele><time>2026-05-02T14:29:10.996Z</time></trkpt><trkpt lat="46.206724570221574" lon="11.947757824743492"><ele>1187.0</ele><time>2026-05-02T14:29:11.996Z</time></trkpt><trkpt lat="46.206684164119096" lon="11.947940359105822"><ele>1188.0</ele><time>2026-05-02T14:29:12.996Z</time></trkpt><trkpt lat="46.206656554813904" lon="11.948117264082109"><ele>1189.0</ele><time>2026-05-02T14:29:13.996Z</time></trkpt><trkpt lat="46.206628504454244" lon="11.948293548908659"><ele>1190.0</ele><time>2026-05-02T14:29:14.996Z</time></trkpt><trkpt lat="46.20661569969229" lon="11.948483434402982"><ele>1190.0</ele><time>2026-05-02T14:29:15.996Z</time></trkpt><trkpt lat="46.20662771778786" lon="11.948676019049328"><ele>1190.0</ele><time>2026-05-02T14:29:16.996Z</time></trkpt><trkpt lat="46.20666478419022" lon="11.948861847910395"><ele>1190.0</ele><time>2026-05-02T14:29:17.996Z</time></trkpt><trkpt lat="46.206719487452" lon="11.949043961900013"><ele>1190.0</ele><time>2026-05-02T14:29:18.996Z</time></trkpt><trkpt lat="46.20677447036008" lon="11.949225919460519"><ele>1186.5</ele><time>2026-05-02T14:29:19.996Z</time></trkpt><trkpt lat="46.20683405522868" lon="11.949403867039885"><ele>1183.0</ele><time>2026-05-02T14:29:20.996Z</time></trkpt><trkpt lat="46.20689656891684" lon="11.949587054576151"><ele>1179.5</ele><time>2026-05-02T14:29:21.996Z</time></trkpt><trkpt lat="46.20696540348635" lon="11.949771064507335"><ele>1176.0</ele><time>2026-05-02T14:29:22.996Z</time></trkpt><trkpt lat="46.20703997241598" lon="11.949950070047588"><ele>1172.0</ele><time>2026-05-02T14:29:23.996Z</time></trkpt><trkpt lat="46.20710881618843" lon="11.95011049916743"><ele>1168.0</ele><time>2026-05-02T14:29:24.996Z</time></trkpt><trkpt lat="46.20717541284798" lon="11.95025016745343"><ele>1164.0</ele><time>2026-05-02T14:29:25.996Z</time></trkpt><trkpt lat="46.207260590964566" lon="11.950354727588604"><ele>1160.0</ele><time>2026-05-02T14:29:26.996Z</time></trkpt><trkpt lat="46.20736254575262" lon="11.950439259218895"><ele>1165.5</ele><time>2026-05-02T14:29:27.996Z</time></trkpt><trkpt lat="46.207454009333624" lon="11.95053858003607"><ele>1171.0</ele><time>2026-05-02T14:29:28.996Z</time></trkpt><trkpt lat="46.20752982137082" lon="11.950671712844745"><ele>1176.5</ele><time>2026-05-02T14:29:29.996Z</time></trkpt><trkpt lat="46.207600533146525" lon="11.9508253613034"><ele>1182.0</ele><time>2026-05-02T14:29:30.996Z</time></trkpt><trkpt lat="46.20765829885528" lon="11.950988527916632"><ele>1182.0</ele><time>2026-05-02T14:29:31.996Z</time></trkpt><trkpt lat="46.207711472233385" lon="11.951158277871013"><ele>1182.0</ele><time>2026-05-02T14:29:32.996Z</time></trkpt><trkpt lat="46.20774902059918" lon="11.95132233359486"><ele>1182.0</ele><time>2026-05-02T14:29:33.996Z</time></trkpt><trkpt lat="46.207803898561586" lon="11.951483828320564"><ele>1182.0</ele><time>2026-05-02T14:29:34.996Z</time></trkpt><trkpt lat="46.20785952161971" lon="11.951633559951603"><ele>1182.0</ele><time>2026-05-02T14:29:35.996Z</time></trkpt><trkpt lat="46.20790070692781" lon="11.95179782036506"><ele>1182.0</ele><time>2026-05-02T14:29:36.996Z</time></trkpt><trkpt lat="46.20791694368603" lon="11.951973983444491"><ele>1182.0</ele><time>2026-05-02T14:29:37.996Z</time></trkpt><trkpt lat="46.2079156600983" lon="11.952160892824368"><ele>1182.0</ele><time>2026-05-02T14:29:38.996Z</time></trkpt><trkpt lat="46.2079176932376" lon="11.952352941840953"><ele>1182.25</ele><time>2026-05-02T14:29:39.996Z</time></trkpt><trkpt lat="46.20792226728463" lon="11.952542820132729"><ele>1182.5</ele><time>2026-05-02T14:29:40.996Z</time></trkpt><trkpt lat="46.20793096469433" lon="11.952735242776626"><ele>1182.75</ele><time>2026-05-02T14:29:41.996Z</time></trkpt><trkpt lat="46.20794976216669" lon="11.952917823425013"><ele>1183.0</ele><time>2026-05-02T14:29:42.996Z</time></trkpt><trkpt lat="46.20797366200303" lon="11.953091152063894"><ele>1183.0</ele><time>2026-05-02T14:29:43.996Z</time></trkpt><trkpt lat="46.207993339803465" lon="11.953261466623937"><ele>1183.0</ele><time>2026-05-02T14:29:44.996Z</time></trkpt><trkpt lat="46.207994912229054" lon="11.95342531917026"><ele>1183.0</ele><time>2026-05-02T14:29:45.996Z</time></trkpt><trkpt lat="46.20797020050145" lon="11.953597506231631"><ele>1183.0</ele><time>2026-05-02T14:29:46.996Z</time></trkpt><trkpt lat="46.2079121132093" lon="11.953761328172932"><ele>1185.0</ele><time>2026-05-02T14:29:47.996Z</time></trkpt><trkpt lat="46.20784514170472" lon="11.953916953938533"><ele>1187.0</ele><time>2026-05-02T14:29:48.996Z</time></trkpt><trkpt lat="46.20779113953465" lon="11.954087666622147"><ele>1189.0</ele><time>2026-05-02T14:29:49.996Z</time></trkpt><trkpt lat="46.207766755527025" lon="11.954265813931938"><ele>1191.0</ele><time>2026-05-02T14:29:50.996Z</time></trkpt><trkpt lat="46.20777419481703" lon="11.954447714734533"><ele>1191.0</ele><time>2026-05-02T14:29:51.996Z</time></trkpt><trkpt lat="46.207823884892974" lon="11.954604628729525"><ele>1191.0</ele><time>2026-05-02T14:29:52.996Z</time></trkpt><trkpt lat="46.207925893522216" lon="11.954716395090381"><ele>1191.0</ele><time>2026-05-02T14:29:53.996Z</time></trkpt><trkpt lat="46.20803954721225" lon="11.95479904085381"><ele>1191.0</ele><time>2026-05-02T14:29:54.996Z</time></trkpt><trkpt lat="46.208153315688726" lon="11.954891348272584"><ele>1189.0</ele><time>2026-05-02T14:29:55.996Z</time></trkpt><trkpt lat="46.208283419864955" lon="11.954966838670401"><ele>1187.0</ele><time>2026-05-02T14:29:56.996Z</time></trkpt><trkpt lat="46.20845673835072" lon="11.955073976095811"><ele>1185.0</ele><time>2026-05-02T14:29:57.996Z</time></trkpt><trkpt lat="46.20867789952187" lon="11.955132874625402"><ele>1185.0</ele><time>2026-05-02T14:29:58.996Z</time></trkpt><trkpt lat="46.208904464918334" lon="11.955162569300965"><ele>1185.0</ele><time>2026-05-02T14:29:59.996Z</time></trkpt><trkpt lat="46.209089486651465" lon="11.955254003839181"><ele>1185.0</ele><time>2026-05-02T14:30:00.996Z</time></trkpt><trkpt lat="46.209255403670355" lon="11.955370517208546"><ele>1188.25</ele><time>2026-05-02T14:30:01.996Z</time></trkpt><trkpt lat="46.20939960545774" lon="11.9555072109945"><ele>1191.5</ele><time>2026-05-02T14:30:02.996Z</time></trkpt><trkpt lat="46.20950757521521" lon="11.955618949593509"><ele>1194.75</ele><time>2026-05-02T14:30:03.996Z</time></trkpt><trkpt lat="46.20962099141253" lon="11.95568400916924"><ele>1198.0</ele><time>2026-05-02T14:30:04.996Z</time></trkpt><trkpt lat="46.20975093458279" lon="11.955717463658795"><ele>1198.75</ele><time>2026-05-02T14:30:05.996Z</time></trkpt><trkpt lat="46.209864661591524" lon="11.95573050022952"><ele>1199.5</ele><time>2026-05-02T14:30:06.996Z</time></trkpt><trkpt lat="46.20996322529321" lon="11.95566915366572"><ele>1200.25</ele><time>2026-05-02T14:30:07.996Z</time></trkpt><trkpt lat="46.2100678999661" lon="11.955548623701327"><ele>1201.0</ele><time>2026-05-02T14:30:08.996Z</time></trkpt><trkpt lat="46.21020565867603" lon="11.95544684248317"><ele>1201.0</ele><time>2026-05-02T14:30:09.996Z</time></trkpt><trkpt lat="46.21034063549963" lon="11.955341114759674"><ele>1201.0</ele><time>2026-05-02T14:30:10.996Z</time></trkpt><trkpt lat="46.2104644156095" lon="11.955243512870215"><ele>1201.0</ele><time>2026-05-02T14:30:11.996Z</time></trkpt><trkpt lat="46.21059408400968" lon="11.955167709466782"><ele>1201.0</ele><time>2026-05-02T14:30:12.996Z</time></trkpt><trkpt lat="46.21071969200575" lon="11.95512238085157"><ele>1200.25</ele><time>2026-05-02T14:30:13.996Z</time></trkpt><trkpt lat="46.21083667981113" lon="11.955071377984257"><ele>1199.5</ele><time>2026-05-02T14:30:14.996Z</time></trkpt><trkpt lat="46.21095145249203" lon="11.955017608213945"><ele>1198.75</ele><time>2026-05-02T14:30:15.996Z</time></trkpt><trkpt lat="46.21104986620196" lon="11.954950383027455"><ele>1198.0</ele><time>2026-05-02T14:30:16.996Z</time></trkpt><trkpt lat="46.21112104408797" lon="11.954830141303352"><ele>1198.0</ele><time>2026-05-02T14:30:17.996Z</time></trkpt><trkpt lat="46.21120693480506" lon="11.954699206942605"><ele>1198.0</ele><time>2026-05-02T14:30:18.996Z</time></trkpt><trkpt lat="46.21128689907042" lon="11.954547031416721"><ele>1198.0</ele><time>2026-05-02T14:30:19.996Z</time></trkpt><trkpt lat="46.21140309387996" lon="11.9544536287988"><ele>1198.0</ele><time>2026-05-02T14:30:20.996Z</time></trkpt><trkpt lat="46.211496621529704" lon="11.95435911775528"><ele>1197.4</ele><time>2026-05-02T14:30:21.995Z</time></trkpt><trkpt lat="46.211605778473476" lon="11.954294590456454"><ele>1196.8</ele><time>2026-05-02T14:30:22.995Z</time></trkpt><trkpt lat="46.21171829328312" lon="11.954277401380104"><ele>1196.2</ele><time>2026-05-02T14:30:23.996Z</time></trkpt><trkpt lat="46.21182609502284" lon="11.954277335242448"><ele>1195.6</ele><time>2026-05-02T14:30:24.996Z</time></trkpt><trkpt lat="46.21192157089626" lon="11.954229629522665"><ele>1195.0</ele><time>2026-05-02T14:30:25.996Z</time></trkpt><trkpt lat="46.212013598402166" lon="11.954149314834709"><ele>1195.0</ele><time>2026-05-02T14:30:26.996Z</time></trkpt><trkpt lat="46.21206999528329" lon="11.954005030229608"><ele>1195.0</ele><time>2026-05-02T14:30:27.997Z</time></trkpt><trkpt lat="46.21212659920276" lon="11.953868393620857"><ele>1195.0</ele><time>2026-05-02T14:30:28.997Z</time></trkpt><trkpt lat="46.21219057844192" lon="11.95373321271105"><ele>1195.0</ele><time>2026-05-02T14:30:29.997Z</time></trkpt><trkpt lat="46.21226585309496" lon="11.953609669008042"><ele>1195.0</ele><time>2026-05-02T14:30:30.997Z</time></trkpt><trkpt lat="46.212348525674436" lon="11.953502430320716"><ele>1195.0</ele><time>2026-05-02T14:30:31.998Z</time></trkpt><trkpt lat="46.21244465609141" lon="11.95341777444912"><ele>1195.0</ele><time>2026-05-02T14:30:32.998Z</time></trkpt><trkpt lat="46.21255393775736" lon="11.953356932133428"><ele>1195.0</ele><time>2026-05-02T14:30:33.998Z</time></trkpt><trkpt lat="46.21266464512201" lon="11.953295885989343"><ele>1195.0</ele><time>2026-05-02T14:30:34.998Z</time></trkpt><trkpt lat="46.21277191276629" lon="11.953225618042172"><ele>1195.0</ele><time>2026-05-02T14:30:35.998Z</time></trkpt><trkpt lat="46.212880048906584" lon="11.953155810526335"><ele>1195.0</ele><time>2026-05-02T14:30:36.998Z</time></trkpt><trkpt lat="46.21298779293396" lon="11.953094956068568"><ele>1195.0</ele><time>2026-05-02T14:30:37.998Z</time></trkpt><trkpt lat="46.213102779557886" lon="11.953060499212173"><ele>1193.4</ele><time>2026-05-02T14:30:38.999Z</time></trkpt><trkpt lat="46.213215015926565" lon="11.953053762486743"><ele>1191.8</ele><time>2026-05-02T14:30:39.999Z</time></trkpt><trkpt lat="46.21332388825567" lon="11.953062356374264"><ele>1190.2</ele><time>2026-05-02T14:30:40.999Z</time></trkpt><trkpt lat="46.213432734332116" lon="11.953072266980886"><ele>1188.6</ele><time>2026-05-02T14:30:41.999Z</time></trkpt><trkpt lat="46.21353108687631" lon="11.953072927268723"><ele>1187.0</ele><time>2026-05-02T14:30:42.999Z</time></trkpt><trkpt lat="46.21362180629641" lon="11.953039679696154"><ele>1187.0</ele><time>2026-05-02T14:30:43.999Z</time></trkpt><trkpt lat="46.21370656828962" lon="11.952972256213371"><ele>1187.0</ele><time>2026-05-02T14:30:44.999Z</time></trkpt><trkpt lat="46.21376640961299" lon="11.952858563211006"><ele>1187.0</ele><time>2026-05-02T14:30:45.999Z</time></trkpt><trkpt lat="46.213802076525" lon="11.952724530809014"><ele>1187.0</ele><time>2026-05-02T14:30:46.999Z</time></trkpt><trkpt lat="46.21383579614542" lon="11.95258402698669"><ele>1187.0</ele><time>2026-05-02T14:30:47.999Z</time></trkpt><trkpt lat="46.2138818353468" lon="11.952456143539857"><ele>1188.4</ele><time>2026-05-02T14:30:48.999Z</time></trkpt><trkpt lat="46.213948543865946" lon="11.952353449239688"><ele>1189.8000000000002</ele><time>2026-05-02T14:30:49.999Z</time></trkpt><trkpt lat="46.21403567706676" lon="11.9522786643755"><ele>1191.2</ele><time>2026-05-02T14:30:51Z</time></trkpt><trkpt lat="46.214142179697596" lon="11.952228435858462"><ele>1192.6000000000001</ele><time>2026-05-02T14:30:52Z</time></trkpt><trkpt lat="46.2142561810891" lon="11.952183852609014"><ele>1194.0</ele><time>2026-05-02T14:30:53Z</time></trkpt><trkpt lat="46.21437443412876" lon="11.952147459378065"><ele>1194.0</ele><time>2026-05-02T14:30:54Z</time></trkpt><trkpt lat="46.21449860240721" lon="11.95212719746142"><ele>1194.0</ele><time>2026-05-02T14:30:55Z</time></trkpt><trkpt lat="46.2146305659641" lon="11.952137236772979"><ele>1194.0</ele><time>2026-05-02T14:30:56Z</time></trkpt><trkpt lat="46.21475449265986" lon="11.952163105293158"><ele>1194.0</ele><time>2026-05-02T14:30:57Z</time></trkpt><trkpt lat="46.21485560630667" lon="11.952201910769885"><ele>1191.4</ele><time>2026-05-02T14:30:58Z</time></trkpt><trkpt lat="46.21493718796656" lon="11.952258240185513"><ele>1188.8000000000002</ele><time>2026-05-02T14:31:00Z</time></trkpt><trkpt lat="46.21502075066629" lon="11.95228754608411"><ele>1186.1999999999998</ele><time>2026-05-02T14:32:30Z</time></trkpt><trkpt lat="46.215138654781406" lon="11.95236673129689"><ele>1183.6</ele><time>2026-05-02T14:32:32Z</time></trkpt><trkpt lat="46.21519991487512" lon="11.952448543663422"><ele>1181.0</ele><time>2026-05-02T14:32:33Z</time></trkpt><trkpt lat="46.21528108220024" lon="11.952508176308946"><ele>1181.0</ele><time>2026-05-02T14:32:34Z</time></trkpt><trkpt lat="46.215373524759656" lon="11.952538993092096"><ele>1181.0</ele><time>2026-05-02T14:32:35Z</time></trkpt><trkpt lat="46.21547277167742" lon="11.952574113270137"><ele>1181.0</ele><time>2026-05-02T14:32:36Z</time></trkpt><trkpt lat="46.215586972398484" lon="11.952605871279305"><ele>1181.0</ele><time>2026-05-02T14:32:37Z</time></trkpt><trkpt lat="46.215706314335414" lon="11.952633079549225"><ele>1181.0</ele><time>2026-05-02T14:32:38Z</time></trkpt><trkpt lat="46.21582947663666" lon="11.952655398832604"><ele>1174.5</ele><time>2026-05-02T14:32:39Z</time></trkpt><trkpt lat="46.21595005015079" lon="11.952678375046405"><ele>1168.0</ele><time>2026-05-02T14:32:40Z</time></trkpt><trkpt lat="46.21607026358266" lon="11.95271393749558"><ele>1161.5</ele><time>2026-05-02T14:32:41Z</time></trkpt><trkpt lat="46.216188532036114" lon="11.952754379254939"><ele>1155.0</ele><time>2026-05-02T14:32:42Z</time></trkpt><trkpt lat="46.21630195267394" lon="11.952806613005713"><ele>1155.0</ele><time>2026-05-02T14:32:43Z</time></trkpt><trkpt lat="46.21641041495076" lon="11.952879231046987"><ele>1155.0</ele><time>2026-05-02T14:32:44Z</time></trkpt><trkpt lat="46.2165193415245" lon="11.95295336602491"><ele>1155.0</ele><time>2026-05-02T14:32:45Z</time></trkpt><trkpt lat="46.21662861183823" lon="11.953019290816354"><ele>1155.0</ele><time>2026-05-02T14:32:46Z</time></trkpt><trkpt lat="46.21674168192782" lon="11.953074583435315"><ele>1154.25</ele><time>2026-05-02T14:32:47Z</time></trkpt><trkpt lat="46.21685724008673" lon="11.953105235972917"><ele>1153.5</ele><time>2026-05-02T14:32:48Z</time></trkpt><trkpt lat="46.216976937916634" lon="11.95313071601495"><ele>1152.75</ele><time>2026-05-02T14:32:49Z</time></trkpt><trkpt lat="46.21709752473125" lon="11.953132553525233"><ele>1152.0</ele><time>2026-05-02T14:32:50Z</time></trkpt><trkpt lat="46.2172214988483" lon="11.9531311458635"><ele>1148.75</ele><time>2026-05-02T14:32:51Z</time></trkpt><trkpt lat="46.21734850518356" lon="11.953112573046631"><ele>1145.5</ele><time>2026-05-02T14:32:52Z</time></trkpt><trkpt lat="46.217471145040044" lon="11.953050613583546"><ele>1142.25</ele><time>2026-05-02T14:32:53Z</time></trkpt><trkpt lat="46.21759653500296" lon="11.952979642184387"><ele>1139.0</ele><time>2026-05-02T14:32:54Z</time></trkpt><trkpt lat="46.217735006567786" lon="11.952944918884567"><ele>1139.0</ele><time>2026-05-02T14:32:55Z</time></trkpt><trkpt lat="46.2178812641766" lon="11.952927571103293"><ele>1139.0</ele><time>2026-05-02T14:32:56Z</time></trkpt><trkpt lat="46.21802710383301" lon="11.952923158290897"><ele>1139.0</ele><time>2026-05-02T14:32:57Z</time></trkpt><trkpt lat="46.21816331580835" lon="11.952944881675728"><ele>1139.0</ele><time>2026-05-02T14:32:58Z</time></trkpt><trkpt lat="46.218289366636114" lon="11.952993697794506"><ele>1137.6000000000001</ele><time>2026-05-02T14:32:59Z</time></trkpt><trkpt lat="46.21839834781492" lon="11.953077234648154"><ele>1136.2</ele><time>2026-05-02T14:33:00Z</time></trkpt><trkpt lat="46.218491401459396" lon="11.953159731184188"><ele>1134.8000000000002</ele><time>2026-05-02T14:33:01Z</time></trkpt><trkpt lat="46.21857929475685" lon="11.953221318393311"><ele>1133.4</ele><time>2026-05-02T14:33:02Z</time></trkpt><trkpt lat="46.21866981092738" lon="11.953254081233785"><ele>1132.0</ele><time>2026-05-02T14:33:03Z</time></trkpt><trkpt lat="46.218761608754576" lon="11.953292999283745"><ele>1132.0</ele><time>2026-05-02T14:33:04Z</time></trkpt><trkpt lat="46.21887338335144" lon="11.953284325008855"><ele>1132.0</ele><time>2026-05-02T14:33:05Z</time></trkpt><trkpt lat="46.21898315623534" lon="11.95331630562918"><ele>1132.0</ele><time>2026-05-02T14:33:06Z</time></trkpt><trkpt lat="46.21909197055846" lon="11.953355827082886"><ele>1132.0</ele><time>2026-05-02T14:33:07Z</time></trkpt><trkpt lat="46.219196406240656" lon="11.953395069846062"><ele>1132.0</ele><time>2026-05-02T14:33:08Z</time></trkpt><trkpt lat="46.21930252518518" lon="11.953438235998147"><ele>1130.2</ele><time>2026-05-02T14:33:09Z</time></trkpt><trkpt lat="46.21940819766088" lon="11.953475442427585"><ele>1128.4</ele><time>2026-05-02T14:33:10Z</time></trkpt><trkpt lat="46.21950999233101" lon="11.953519620401424"><ele>1126.6</ele><time>2026-05-02T14:33:11Z</time></trkpt><trkpt lat="46.219610905859156" lon="11.95357066771131"><ele>1124.8</ele><time>2026-05-02T14:33:12Z</time></trkpt><trkpt lat="46.21970760491383" lon="11.953615917135117"><ele>1123.0</ele><time>2026-05-02T14:33:13Z</time></trkpt><trkpt lat="46.21980237770073" lon="11.953638807159539"><ele>1124.8</ele><time>2026-05-02T14:33:14Z</time></trkpt><trkpt lat="46.21989598684154" lon="11.953618631740168"><ele>1126.6</ele><time>2026-05-02T14:33:15Z</time></trkpt><trkpt lat="46.21999606342882" lon="11.95356854743823"><ele>1128.4</ele><time>2026-05-02T14:33:16Z</time></trkpt><trkpt lat="46.22009919797079" lon="11.95349443132777"><ele>1130.2</ele><time>2026-05-02T14:33:17Z</time></trkpt><trkpt lat="46.22019903475252" lon="11.953403123018294"><ele>1132.0</ele><time>2026-05-02T14:33:18Z</time></trkpt><trkpt lat="46.220291483005795" lon="11.953318437942254"><ele>1134.2</ele><time>2026-05-02T14:33:19Z</time></trkpt><trkpt lat="46.22038284821103" lon="11.953242455475172"><ele>1136.4</ele><time>2026-05-02T14:33:20Z</time></trkpt><trkpt lat="46.22047616313701" lon="11.953193796830856"><ele>1138.6</ele><time>2026-05-02T14:33:21Z</time></trkpt><trkpt lat="46.22057269353937" lon="11.953180694537604"><ele>1140.8</ele><time>2026-05-02T14:33:22Z</time></trkpt><trkpt lat="46.220653357957666" lon="11.953202147668872"><ele>1143.0</ele><time>2026-05-02T14:33:23Z</time></trkpt><trkpt lat="46.220708658522746" lon="11.953263032013895"><ele>1143.0</ele><time>2026-05-02T14:33:24Z</time></trkpt><trkpt lat="46.22076728794079" lon="11.95332143803023"><ele>1143.0</ele><time>2026-05-02T14:33:26Z</time></trkpt><trkpt lat="46.220885148100294" lon="11.953143423108948"><ele>1143.0</ele><time>2026-05-02T14:39:56Z</time></trkpt><trkpt lat="46.22081402073737" lon="11.953154283099563"><ele>1143.0</ele><time>2026-05-02T14:39:59Z</time></trkpt><trkpt lat="46.22080266296563" lon="11.953267984096966"><ele>1143.0</ele><time>2026-05-02T14:41:51Z</time></trkpt><trkpt lat="46.22081350579887" lon="11.953367377146693"><ele>1142.4</ele><time>2026-05-02T14:41:53Z</time></trkpt><trkpt lat="46.220879689368765" lon="11.953504818142749"><ele>1141.8</ele><time>2026-05-02T14:41:55Z</time></trkpt><trkpt lat="46.22097701221549" lon="11.953640649444111"><ele>1141.2</ele><time>2026-05-02T14:41:57Z</time></trkpt><trkpt lat="46.22102959469274" lon="11.953746600238995"><ele>1140.6</ele><time>2026-05-02T14:41:58Z</time></trkpt><trkpt lat="46.22107615366994" lon="11.95387596356825"><ele>1140.0</ele><time>2026-05-02T14:41:59Z</time></trkpt><trkpt lat="46.221123552920986" lon="11.953998813156804"><ele>1140.0</ele><time>2026-05-02T14:42:00Z</time></trkpt><trkpt lat="46.2211691010413" lon="11.95411402697399"><ele>1140.0</ele><time>2026-05-02T14:42:01Z</time></trkpt><trkpt lat="46.22121535887772" lon="11.954234875579186"><ele>1140.0</ele><time>2026-05-02T14:42:02Z</time></trkpt><trkpt lat="46.22125656622918" lon="11.954366871857298"><ele>1140.0</ele><time>2026-05-02T14:42:03Z</time></trkpt><trkpt lat="46.22129864290868" lon="11.954501518847664"><ele>1140.0</ele><time>2026-05-02T14:42:04Z</time></trkpt><trkpt lat="46.22134641626853" lon="11.9546293314092"><ele>1139.6</ele><time>2026-05-02T14:42:05Z</time></trkpt><trkpt lat="46.22137787071785" lon="11.954750719011871"><ele>1139.2</ele><time>2026-05-02T14:42:06Z</time></trkpt><trkpt lat="46.22140104021919" lon="11.95488881556446"><ele>1138.8</ele><time>2026-05-02T14:42:07Z</time></trkpt><trkpt lat="46.221411219532115" lon="11.95504332432314"><ele>1138.4</ele><time>2026-05-02T14:42:08Z</time></trkpt><trkpt lat="46.22141006882164" lon="11.955212471885215"><ele>1138.0</ele><time>2026-05-02T14:42:09Z</time></trkpt><trkpt lat="46.22142167760494" lon="11.955361134388886"><ele>1138.6</ele><time>2026-05-02T14:42:10Z</time></trkpt><trkpt lat="46.221433127382866" lon="11.955507760539941"><ele>1139.1999999999998</ele><time>2026-05-02T14:42:11Z</time></trkpt><trkpt lat="46.2214458982051" lon="11.955665682256049"><ele>1139.8</ele><time>2026-05-02T14:42:12Z</time></trkpt><trkpt lat="46.22145857322553" lon="11.955821475730938"><ele>1140.3999999999999</ele><time>2026-05-02T14:42:13Z</time></trkpt><trkpt lat="46.22148784696792" lon="11.955976946589429"><ele>1141.0</ele><time>2026-05-02T14:42:14Z</time></trkpt><trkpt lat="46.221500507211836" lon="11.956136619480207"><ele>1141.0</ele><time>2026-05-02T14:42:15Z</time></trkpt><trkpt lat="46.22152656305663" lon="11.956297623444181"><ele>1141.0</ele><time>2026-05-02T14:42:16Z</time></trkpt><trkpt lat="46.22156949016677" lon="11.956466117742425"><ele>1141.0</ele><time>2026-05-02T14:42:17Z</time></trkpt><trkpt lat="46.22158074388324" lon="11.956645522004813"><ele>1141.0</ele><time>2026-05-02T14:42:18Z</time></trkpt><trkpt lat="46.221613415465455" lon="11.956817888153605"><ele>1139.75</ele><time>2026-05-02T14:42:19Z</time></trkpt><trkpt lat="46.221647633246576" lon="11.956996526721607"><ele>1138.5</ele><time>2026-05-02T14:42:20Z</time></trkpt><trkpt lat="46.221687467390055" lon="11.957187134968173"><ele>1137.25</ele><time>2026-05-02T14:42:21Z</time></trkpt><trkpt lat="46.22174337348234" lon="11.957377341715477"><ele>1136.0</ele><time>2026-05-02T14:42:22Z</time></trkpt><trkpt lat="46.2217770214862" lon="11.957573179901312"><ele>1136.0</ele><time>2026-05-02T14:42:23Z</time></trkpt><trkpt lat="46.22179841469852" lon="11.957775502590657"><ele>1136.0</ele><time>2026-05-02T14:42:24Z</time></trkpt><trkpt lat="46.22179249226435" lon="11.957994289670905"><ele>1136.0</ele><time>2026-05-02T14:42:25Z</time></trkpt><trkpt lat="46.22178516369478" lon="11.95819868679308"><ele>1136.0</ele><time>2026-05-02T14:42:26Z</time></trkpt><trkpt lat="46.221780244156" lon="11.958394900771394"><ele>1135.5</ele><time>2026-05-02T14:42:27Z</time></trkpt><trkpt lat="46.22177051542836" lon="11.958584713483356"><ele>1135.0</ele><time>2026-05-02T14:42:28Z</time></trkpt><trkpt lat="46.22176332845887" lon="11.958768518388323"><ele>1134.5</ele><time>2026-05-02T14:42:29Z</time></trkpt><trkpt lat="46.22175715851477" lon="11.958943178686127"><ele>1134.0</ele><time>2026-05-02T14:42:30Z</time></trkpt><trkpt lat="46.22175340887611" lon="11.959119485872217"><ele>1132.0</ele><time>2026-05-02T14:42:31Z</time></trkpt><trkpt lat="46.22175114663507" lon="11.959289307605236"><ele>1130.0</ele><time>2026-05-02T14:42:32Z</time></trkpt><trkpt lat="46.22175502839338" lon="11.959446468077283"><ele>1128.0</ele><time>2026-05-02T14:42:33Z</time></trkpt><trkpt lat="46.22178077459765" lon="11.959584582290262"><ele>1126.0</ele><time>2026-05-02T14:42:34Z</time></trkpt><trkpt lat="46.22184775916129" lon="11.959696016110078"><ele>1124.0</ele><time>2026-05-02T14:42:35Z</time></trkpt><trkpt lat="46.22194861500916" lon="11.95976308847432"><ele>1124.0</ele><time>2026-05-02T14:42:36Z</time></trkpt><trkpt lat="46.22207777933289" lon="11.959805540208386"><ele>1124.0</ele><time>2026-05-02T14:42:37.001Z</time></trkpt><trkpt lat="46.22223209152811" lon="11.959827775682749"><ele>1124.0</ele><time>2026-05-02T14:42:38.001Z</time></trkpt><trkpt lat="46.22239357058386" lon="11.959855118494957"><ele>1125.0</ele><time>2026-05-02T14:42:39.001Z</time></trkpt><trkpt lat="46.222541667121554" lon="11.959880470872497"><ele>1126.0</ele><time>2026-05-02T14:42:40.001Z</time></trkpt><trkpt lat="46.22267941441501" lon="11.959917632983815"><ele>1127.0</ele><time>2026-05-02T14:42:41.001Z</time></trkpt><trkpt lat="46.22279652487776" lon="11.959983860905679"><ele>1128.0</ele><time>2026-05-02T14:42:42.001Z</time></trkpt><trkpt lat="46.22290358199178" lon="11.960123661548836"><ele>1128.0</ele><time>2026-05-02T14:42:43.001Z</time></trkpt><trkpt lat="46.223005691114736" lon="11.96026310857734"><ele>1128.0</ele><time>2026-05-02T14:42:44.001Z</time></trkpt><trkpt lat="46.22311363019128" lon="11.96038647740209"><ele>1128.0</ele><time>2026-05-02T14:42:45.001Z</time></trkpt><trkpt lat="46.22320225758264" lon="11.960521540537627"><ele>1128.0</ele><time>2026-05-02T14:42:46.001Z</time></trkpt><trkpt lat="46.22324685009712" lon="11.960662080360441"><ele>1130.0</ele><time>2026-05-02T14:42:47.001Z</time></trkpt><trkpt lat="46.22325598142846" lon="11.960817113394125"><ele>1132.0</ele><time>2026-05-02T14:42:48.001Z</time></trkpt><trkpt lat="46.22320968411278" lon="11.960954641570183"><ele>1134.0</ele><time>2026-05-02T14:42:49.001Z</time></trkpt><trkpt lat="46.22312240050625" lon="11.961063597311275"><ele>1136.0</ele><time>2026-05-02T14:42:50.001Z</time></trkpt><trkpt lat="46.22299651630729" lon="11.961117737029715"><ele>1140.25</ele><time>2026-05-02T14:42:51.001Z</time></trkpt><trkpt lat="46.22285371601667" lon="11.961111286074717"><ele>1144.5</ele><time>2026-05-02T14:42:52.001Z</time></trkpt><trkpt lat="46.222710268441" lon="11.961040126011888"><ele>1148.75</ele><time>2026-05-02T14:42:53.001Z</time></trkpt><trkpt lat="46.22255694951994" lon="11.961028790126264"><ele>1153.0</ele><time>2026-05-02T14:42:54.001Z</time></trkpt><trkpt lat="46.22238421097432" lon="11.961018075548004"><ele>1149.3333333333333</ele><time>2026-05-02T14:42:55.001Z</time></trkpt><trkpt lat="46.22221604853531" lon="11.961056549874971"><ele>1145.6666666666667</ele><time>2026-05-02T14:42:56.001Z</time></trkpt><trkpt lat="46.22204241035066" lon="11.961067668834357"><ele>1142.0</ele><time>2026-05-02T14:42:57.001Z</time></trkpt><trkpt lat="46.22187886932158" lon="11.961077918507176"><ele>1142.0</ele><time>2026-05-02T14:42:57.999Z</time></trkpt><trkpt lat="46.22172323915691" lon="11.96110377050267"><ele>1142.0</ele><time>2026-05-02T14:42:58.999Z</time></trkpt><trkpt lat="46.2215720217209" lon="11.961152308663072"><ele>1142.0</ele><time>2026-05-02T14:42:59.999Z</time></trkpt><trkpt lat="46.22142055383429" lon="11.9612105564996"><ele>1138.25</ele><time>2026-05-02T14:43:00.999Z</time></trkpt><trkpt lat="46.22129192067151" lon="11.96129265297647"><ele>1134.5</ele><time>2026-05-02T14:43:01.999Z</time></trkpt><trkpt lat="46.22117489613637" lon="11.961393758652084"><ele>1130.75</ele><time>2026-05-02T14:43:02.999Z</time></trkpt><trkpt lat="46.221063247652886" lon="11.961510426480876"><ele>1127.0</ele><time>2026-05-02T14:43:03.999Z</time></trkpt><trkpt lat="46.2209643416096" lon="11.961622213555556"><ele>1129.2</ele><time>2026-05-02T14:43:05Z</time></trkpt><trkpt lat="46.22089075417709" lon="11.961745498144312"><ele>1131.4</ele><time>2026-05-02T14:43:06Z</time></trkpt><trkpt lat="46.2208118196307" lon="11.961818578790934"><ele>1133.6</ele><time>2026-05-02T14:43:07Z</time></trkpt><trkpt lat="46.220759144621404" lon="11.96190544986438"><ele>1135.8</ele><time>2026-05-02T14:43:08Z</time></trkpt><trkpt lat="46.220720292925755" lon="11.9620259920309"><ele>1138.0</ele><time>2026-05-02T14:43:09Z</time></trkpt><trkpt lat="46.2207129212286" lon="11.962162887175388"><ele>1138.0</ele><time>2026-05-02T14:43:10Z</time></trkpt><trkpt lat="46.22072968004771" lon="11.96230626866539"><ele>1138.0</ele><time>2026-05-02T14:43:11Z</time></trkpt><trkpt lat="46.22074288372236" lon="11.96247858990924"><ele>1138.0</ele><time>2026-05-02T14:43:12Z</time></trkpt><trkpt lat="46.22073116510991" lon="11.962654791974906"><ele>1138.0</ele><time>2026-05-02T14:43:13Z</time></trkpt><trkpt lat="46.22066388000731" lon="11.962814087420439"><ele>1134.5</ele><time>2026-05-02T14:43:14Z</time></trkpt><trkpt lat="46.22060352632369" lon="11.962984795164937"><ele>1131.0</ele><time>2026-05-02T14:43:15Z</time></trkpt><trkpt lat="46.22053286977202" lon="11.963149817559389"><ele>1127.5</ele><time>2026-05-02T14:43:16Z</time></trkpt><trkpt lat="46.22047418705898" lon="11.963331408939629"><ele>1124.0</ele><time>2026-05-02T14:43:17Z</time></trkpt><trkpt lat="46.22044811173148" lon="11.963513269571715"><ele>1124.0</ele><time>2026-05-02T14:43:18Z</time></trkpt><trkpt lat="46.22041176474232" lon="11.963662807149728"><ele>1124.0</ele><time>2026-05-02T14:43:19Z</time></trkpt><trkpt lat="46.22036853033218" lon="11.963810820165476"><ele>1124.0</ele><time>2026-05-02T14:43:20Z</time></trkpt><trkpt lat="46.220333774238995" lon="11.963981969716112"><ele>1124.0</ele><time>2026-05-02T14:43:21Z</time></trkpt><trkpt lat="46.220284515994244" lon="11.964132438217536"><ele>1124.25</ele><time>2026-05-02T14:43:22Z</time></trkpt><trkpt lat="46.22023764446416" lon="11.964281165996928"><ele>1124.5</ele><time>2026-05-02T14:43:23Z</time></trkpt><trkpt lat="46.22019820590682" lon="11.964433219096021"><ele>1124.75</ele><time>2026-05-02T14:43:24Z</time></trkpt><trkpt lat="46.22015463782262" lon="11.964591558377833"><ele>1125.0</ele><time>2026-05-02T14:43:25Z</time></trkpt><trkpt lat="46.220140127031385" lon="11.964765542522583"><ele>1125.0</ele><time>2026-05-02T14:43:26Z</time></trkpt><trkpt lat="46.22016402618039" lon="11.964948884405567"><ele>1125.0</ele><time>2026-05-02T14:43:27Z</time></trkpt><trkpt lat="46.220175433066935" lon="11.965139374310024"><ele>1125.0</ele><time>2026-05-02T14:43:28Z</time></trkpt><trkpt lat="46.22020392899179" lon="11.96534385228749"><ele>1125.0</ele><time>2026-05-02T14:43:29Z</time></trkpt><trkpt lat="46.22024762418755" lon="11.965549322355118"><ele>1123.3333333333333</ele><time>2026-05-02T14:43:30Z</time></trkpt><trkpt lat="46.22030209514894" lon="11.96574597650613"><ele>1121.6666666666665</ele><time>2026-05-02T14:43:31Z</time></trkpt><trkpt lat="46.22037302155031" lon="11.965943873436334"><ele>1120.0</ele><time>2026-05-02T14:43:32Z</time></trkpt><trkpt lat="46.22045959046792" lon="11.966146322712468"><ele>1115.6666666666665</ele><time>2026-05-02T14:43:33Z</time></trkpt><trkpt lat="46.22055169728548" lon="11.966355698734501"><ele>1111.3333333333333</ele><time>2026-05-02T14:43:34Z</time></trkpt><trkpt lat="46.22064479049821" lon="11.966579904285311"><ele>1107.0</ele><time>2026-05-02T14:43:35Z</time></trkpt><trkpt lat="46.220741467498364" lon="11.966818467295695"><ele>1118.6666666666667</ele><time>2026-05-02T14:43:36Z</time></trkpt><trkpt lat="46.22083571174393" lon="11.967057209133149"><ele>1130.3333333333335</ele><time>2026-05-02T14:43:37Z</time></trkpt><trkpt lat="46.22093392001559" lon="11.967278464903783"><ele>1142.0</ele><time>2026-05-02T14:43:38Z</time></trkpt><trkpt lat="46.22101463771254" lon="11.967486012551474"><ele>1138.6666666666667</ele><time>2026-05-02T14:43:39Z</time></trkpt><trkpt lat="46.22106745093479" lon="11.967690878397946"><ele>1135.3333333333333</ele><time>2026-05-02T14:43:40Z</time></trkpt><trkpt lat="46.22110659010828" lon="11.967922485280953"><ele>1132.0</ele><time>2026-05-02T14:43:41Z</time></trkpt><trkpt lat="46.22111085924124" lon="11.968185671911144"><ele>1132.6666666666665</ele><time>2026-05-02T14:43:42Z</time></trkpt><trkpt lat="46.221114525813725" lon="11.96845307491182"><ele>1133.3333333333333</ele><time>2026-05-02T14:43:43Z</time></trkpt><trkpt lat="46.22111961254812" lon="11.968712237926189"><ele>1134.0</ele><time>2026-05-02T14:43:44Z</time></trkpt><trkpt lat="46.221124697059125" lon="11.968943732003943"><ele>1134.0</ele><time>2026-05-02T14:43:45Z</time></trkpt><trkpt lat="46.22113172344193" lon="11.969162330355191"><ele>1134.0</ele><time>2026-05-02T14:43:46Z</time></trkpt><trkpt lat="46.22114079080653" lon="11.96937068787461"><ele>1134.0</ele><time>2026-05-02T14:43:47Z</time></trkpt><trkpt lat="46.22114142463241" lon="11.969561268514356"><ele>1134.0</ele><time>2026-05-02T14:43:48Z</time></trkpt><trkpt lat="46.22113742712831" lon="11.969734860567174"><ele>1136.75</ele><time>2026-05-02T14:43:49Z</time></trkpt><trkpt lat="46.22112361628418" lon="11.969891610316365"><ele>1139.5</ele><time>2026-05-02T14:43:50Z</time></trkpt><trkpt lat="46.22106224581481" lon="11.970036433252838"><ele>1142.25</ele><time>2026-05-02T14:43:51Z</time></trkpt><trkpt lat="46.2209638575585" lon="11.970159435656704"><ele>1145.0</ele><time>2026-05-02T14:43:52Z</time></trkpt><trkpt lat="46.220872562524995" lon="11.970320811239135"><ele>1144.75</ele><time>2026-05-02T14:43:53Z</time></trkpt><trkpt lat="46.22076917026254" lon="11.970464018523566"><ele>1144.5</ele><time>2026-05-02T14:43:54Z</time></trkpt><trkpt lat="46.22067736159579" lon="11.970620478148618"><ele>1144.25</ele><time>2026-05-02T14:43:55Z</time></trkpt><trkpt lat="46.22059359045199" lon="11.970798441979271"><ele>1144.0</ele><time>2026-05-02T14:43:56Z</time></trkpt><trkpt lat="46.220538306643824" lon="11.97100971954136"><ele>1144.0</ele><time>2026-05-02T14:43:57Z</time></trkpt><trkpt lat="46.220481979178714" lon="11.971217429685908"><ele>1144.0</ele><time>2026-05-02T14:43:58Z</time></trkpt><trkpt lat="46.22043470037633" lon="11.971413780637025"><ele>1144.0</ele><time>2026-05-02T14:43:59Z</time></trkpt><trkpt lat="46.2203888789909" lon="11.971586136445197"><ele>1144.0</ele><time>2026-05-02T14:44:00Z</time></trkpt><trkpt lat="46.22034277703742" lon="11.971758298651746"><ele>1151.0</ele><time>2026-05-02T14:44:01Z</time></trkpt><trkpt lat="46.220253151379225" lon="11.971899679614623"><ele>1158.0</ele><time>2026-05-02T14:44:02Z</time></trkpt><trkpt lat="46.22013948310188" lon="11.97201720311521"><ele>1165.0</ele><time>2026-05-02T14:44:03Z</time></trkpt><trkpt lat="46.2200174977884" lon="11.972046035526258"><ele>1172.0</ele><time>2026-05-02T14:44:04Z</time></trkpt><trkpt lat="46.21989295664264" lon="11.97205635202741"><ele>1170.0</ele><time>2026-05-02T14:44:05Z</time></trkpt><trkpt lat="46.219756495633405" lon="11.972055845485752"><ele>1168.0</ele><time>2026-05-02T14:44:06Z</time></trkpt><trkpt lat="46.21960978046351" lon="11.97206683686807"><ele>1166.0</ele><time>2026-05-02T14:44:07Z</time></trkpt><trkpt lat="46.21946620495856" lon="11.972060317665543"><ele>1164.0</ele><time>2026-05-02T14:44:08Z</time></trkpt><trkpt lat="46.21932407665078" lon="11.97205535139576"><ele>1164.0</ele><time>2026-05-02T14:44:09Z</time></trkpt><trkpt lat="46.21918367368734" lon="11.972053467473732"><ele>1164.0</ele><time>2026-05-02T14:44:10Z</time></trkpt><trkpt lat="46.21904061363189" lon="11.97204716311348"><ele>1164.0</ele><time>2026-05-02T14:44:11Z</time></trkpt><trkpt lat="46.218897973480544" lon="11.972071713164183"><ele>1164.0</ele><time>2026-05-02T14:44:12Z</time></trkpt><trkpt lat="46.21875790093579" lon="11.972149522573925"><ele>1160.0</ele><time>2026-05-02T14:44:13Z</time></trkpt><trkpt lat="46.21862473291102" lon="11.97226837607685"><ele>1156.0</ele><time>2026-05-02T14:44:14Z</time></trkpt><trkpt lat="46.218484205044476" lon="11.972383101479867"><ele>1152.0</ele><time>2026-05-02T14:44:15Z</time></trkpt><trkpt lat="46.21835163262976" lon="11.972476651362573"><ele>1148.5</ele><time>2026-05-02T14:44:16Z</time></trkpt><trkpt lat="46.21823213739373" lon="11.972574956692315"><ele>1145.0</ele><time>2026-05-02T14:44:17Z</time></trkpt><trkpt lat="46.21812459675123" lon="11.97269818972273"><ele>1141.5</ele><time>2026-05-02T14:44:18Z</time></trkpt><trkpt lat="46.21804572393407" lon="11.972852972134094"><ele>1138.0</ele><time>2026-05-02T14:44:19Z</time></trkpt><trkpt lat="46.217967972420254" lon="11.973006567784093"><ele>1138.0</ele><time>2026-05-02T14:44:20Z</time></trkpt><trkpt lat="46.2178667303588" lon="11.973124428245885"><ele>1138.0</ele><time>2026-05-02T14:44:21Z</time></trkpt><trkpt lat="46.217755284886735" lon="11.973216337496673"><ele>1138.0</ele><time>2026-05-02T14:44:22Z</time></trkpt><trkpt lat="46.21765062962004" lon="11.973300370378006"><ele>1138.0</ele><time>2026-05-02T14:44:23Z</time></trkpt><trkpt lat="46.2175665763278" lon="11.973404858138613"><ele>1141.8</ele><time>2026-05-02T14:44:24Z</time></trkpt><trkpt lat="46.21751175383347" lon="11.973538081318885"><ele>1145.6</ele><time>2026-05-02T14:44:25Z</time></trkpt><trkpt lat="46.21748291709169" lon="11.973688844034081"><ele>1149.4</ele><time>2026-05-02T14:44:26Z</time></trkpt><trkpt lat="46.21746626560321" lon="11.973848839723235"><ele>1153.2</ele><time>2026-05-02T14:44:27Z</time></trkpt><trkpt lat="46.217453202096706" lon="11.974005719116935"><ele>1157.0</ele><time>2026-05-02T14:44:28Z</time></trkpt><trkpt lat="46.21746484210359" lon="11.974162149497461"><ele>1158.8</ele><time>2026-05-02T14:44:29Z</time></trkpt><trkpt lat="46.21747937683409" lon="11.97431070425844"><ele>1160.6</ele><time>2026-05-02T14:44:30Z</time></trkpt><trkpt lat="46.217479812732755" lon="11.974451520181017"><ele>1162.3999999999999</ele><time>2026-05-02T14:44:31Z</time></trkpt><trkpt lat="46.21740770924757" lon="11.97457447406623"><ele>1164.2</ele><time>2026-05-02T14:44:32Z</time></trkpt><trkpt lat="46.2173569940504" lon="11.974714714464081"><ele>1166.0</ele><time>2026-05-02T14:44:33Z</time></trkpt><trkpt lat="46.217299100591006" lon="11.974857825937963"><ele>1158.0</ele><time>2026-05-02T14:44:34Z</time></trkpt><trkpt lat="46.2172604966922" lon="11.974993543793243"><ele>1150.0</ele><time>2026-05-02T14:44:35Z</time></trkpt><trkpt lat="46.2172364366383" lon="11.97512536538455"><ele>1142.0</ele><time>2026-05-02T14:44:36Z</time></trkpt><trkpt lat="46.21722534105493" lon="11.97526903090426"><ele>1134.0</ele><time>2026-05-02T14:44:37Z</time></trkpt><trkpt lat="46.217245648211794" lon="11.975426686573229"><ele>1126.0</ele><time>2026-05-02T14:44:38Z</time></trkpt><trkpt lat="46.217300407554134" lon="11.975583850282662"><ele>1127.25</ele><time>2026-05-02T14:44:39Z</time></trkpt><trkpt lat="46.217381179674554" lon="11.975740274284517"><ele>1128.5</ele><time>2026-05-02T14:44:40Z</time></trkpt><trkpt lat="46.217447480011174" lon="11.975901472004749"><ele>1129.75</ele><time>2026-05-02T14:44:41Z</time></trkpt><trkpt lat="46.21751593999929" lon="11.976077611274471"><ele>1131.0</ele><time>2026-05-02T14:44:42Z</time></trkpt><trkpt lat="46.21757670244576" lon="11.976247887015834"><ele>1131.0</ele><time>2026-05-02T14:44:43Z</time></trkpt><trkpt lat="46.217626518958994" lon="11.976411130113748"><ele>1131.0</ele><time>2026-05-02T14:44:44Z</time></trkpt><trkpt lat="46.217662282934725" lon="11.976573959363225"><ele>1131.0</ele><time>2026-05-02T14:44:45Z</time></trkpt><trkpt lat="46.21769520448068" lon="11.976724570593154"><ele>1131.0</ele><time>2026-05-02T14:44:46Z</time></trkpt><trkpt lat="46.217755726015405" lon="11.976846325736403"><ele>1134.0</ele><time>2026-05-02T14:44:47.001Z</time></trkpt><trkpt lat="46.21785134772544" lon="11.97690869221256"><ele>1137.0</ele><time>2026-05-02T14:44:48.001Z</time></trkpt><trkpt lat="46.217959610175" lon="11.976918058115201"><ele>1140.0</ele><time>2026-05-02T14:44:49.001Z</time></trkpt><trkpt lat="46.21807696311153" lon="11.976906767846971"><ele>1143.0</ele><time>2026-05-02T14:44:50.001Z</time></trkpt><trkpt lat="46.218191794890465" lon="11.976970441952814"><ele>1143.0</ele><time>2026-05-02T14:44:51.001Z</time></trkpt><trkpt lat="46.21830706004544" lon="11.977031590671453"><ele>1143.0</ele><time>2026-05-02T14:44:52.001Z</time></trkpt><trkpt lat="46.218397385120404" lon="11.977142197142392"><ele>1143.0</ele><time>2026-05-02T14:44:53.001Z</time></trkpt><trkpt lat="46.21845276619775" lon="11.977301794879736"><ele>1143.0</ele><time>2026-05-02T14:44:54.001Z</time></trkpt><trkpt lat="46.21850878257712" lon="11.977464087025009"><ele>1134.0</ele><time>2026-05-02T14:44:55.001Z</time></trkpt><trkpt lat="46.21857100560384" lon="11.977610974213242"><ele>1125.0</ele><time>2026-05-02T14:44:56.001Z</time></trkpt><trkpt lat="46.218645672618536" lon="11.977736129147143"><ele>1116.0</ele><time>2026-05-02T14:44:57.001Z</time></trkpt><trkpt lat="46.21874856356908" lon="11.977808818527572"><ele>1107.0</ele><time>2026-05-02T14:44:58.001Z</time></trkpt><trkpt lat="46.21884635497023" lon="11.97786676758394"><ele>1107.0</ele><time>2026-05-02T14:44:59.001Z</time></trkpt><trkpt lat="46.21895492756584" lon="11.977887411430968"><ele>1107.0</ele><time>2026-05-02T14:45:00.001Z</time></trkpt><trkpt lat="46.2190697560998" lon="11.977862329167166"><ele>1107.0</ele><time>2026-05-02T14:45:01.001Z</time></trkpt><trkpt lat="46.21918760356887" lon="11.977817765196358"><ele>1107.0</ele><time>2026-05-02T14:45:02.001Z</time></trkpt><trkpt lat="46.219305402338605" lon="11.97778880684782"><ele>1111.2</ele><time>2026-05-02T14:45:03.001Z</time></trkpt><trkpt lat="46.21941857770624" lon="11.977759190456592"><ele>1115.4</ele><time>2026-05-02T14:45:04Z</time></trkpt><trkpt lat="46.21952616846241" lon="11.97771820135585"><ele>1119.6</ele><time>2026-05-02T14:45:05Z</time></trkpt><trkpt lat="46.21962880314129" lon="11.977678022148687"><ele>1123.8</ele><time>2026-05-02T14:45:06Z</time></trkpt><trkpt lat="46.21970496188628" lon="11.977562261526627"><ele>1128.0</ele><time>2026-05-02T14:45:07Z</time></trkpt><trkpt lat="46.219787148149194" lon="11.977475646086596"><ele>1127.8</ele><time>2026-05-02T14:45:08Z</time></trkpt><trkpt lat="46.2198777684975" lon="11.977411476214224"><ele>1127.6</ele><time>2026-05-02T14:45:09Z</time></trkpt><trkpt lat="46.21997313494023" lon="11.977368070898068"><ele>1127.4</ele><time>2026-05-02T14:45:10Z</time></trkpt><trkpt lat="46.22006971957923" lon="11.977391148387857"><ele>1127.2</ele><time>2026-05-02T14:45:11Z</time></trkpt><trkpt lat="46.220155982908274" lon="11.97742866929306"><ele>1127.0</ele><time>2026-05-02T14:45:12Z</time></trkpt><trkpt lat="46.220221438952" lon="11.977542413756758"><ele>1127.0</ele><time>2026-05-02T14:45:13Z</time></trkpt><trkpt lat="46.22023475507634" lon="11.977702563875129"><ele>1127.0</ele><time>2026-05-02T14:45:14Z</time></trkpt><trkpt lat="46.22028176284416" lon="11.97785161603973"><ele>1127.0</ele><time>2026-05-02T14:45:15Z</time></trkpt><trkpt lat="46.22032022711494" lon="11.978002644964883"><ele>1127.0</ele><time>2026-05-02T14:45:16Z</time></trkpt><trkpt lat="46.220343032030286" lon="11.978163794458364"><ele>1127.0</ele><time>2026-05-02T14:45:17Z</time></trkpt><trkpt lat="46.22038995148541" lon="11.978327620477554"><ele>1127.0</ele><time>2026-05-02T14:45:18Z</time></trkpt><trkpt lat="46.22042337365081" lon="11.978496466789338"><ele>1127.0</ele><time>2026-05-02T14:45:19Z</time></trkpt><trkpt lat="46.220487748635996" lon="11.97865240740925"><ele>1127.0</ele><time>2026-05-02T14:45:20Z</time></trkpt><trkpt lat="46.22058481979995" lon="11.978796114848729"><ele>1131.0</ele><time>2026-05-02T14:45:21Z</time></trkpt><trkpt lat="46.22069398802005" lon="11.9789295014585"><ele>1135.0</ele><time>2026-05-02T14:45:22Z</time></trkpt><trkpt lat="46.22081540946512" lon="11.979077343457568"><ele>1139.0</ele><time>2026-05-02T14:45:23Z</time></trkpt><trkpt lat="46.2209502960225" lon="11.979242760470338"><ele>1129.3333333333335</ele><time>2026-05-02T14:45:24Z</time></trkpt><trkpt lat="46.221091452642206" lon="11.9794165292068"><ele>1119.6666666666667</ele><time>2026-05-02T14:45:25Z</time></trkpt><trkpt lat="46.22123688493216" lon="11.979604249630812"><ele>1110.0</ele><time>2026-05-02T14:45:26Z</time></trkpt><trkpt lat="46.2213789077906" lon="11.97978769886778"><ele>1111.6666666666667</ele><time>2026-05-02T14:45:27Z</time></trkpt><trkpt lat="46.22152079497767" lon="11.979974808406562"><ele>1113.3333333333335</ele><time>2026-05-02T14:45:28Z</time></trkpt><trkpt lat="46.22166461502507" lon="11.980150321689678"><ele>1115.0</ele><time>2026-05-02T14:45:29Z</time></trkpt><trkpt lat="46.22180036598226" lon="11.980313683796249"><ele>1115.0</ele><time>2026-05-02T14:45:30Z</time></trkpt><trkpt lat="46.221931634220496" lon="11.980470457808154"><ele>1115.0</ele><time>2026-05-02T14:45:31Z</time></trkpt><trkpt lat="46.222046481789846" lon="11.980612866107391"><ele>1115.0</ele><time>2026-05-02T14:45:32Z</time></trkpt><trkpt lat="46.222154622975786" lon="11.980713337764298"><ele>1115.0</ele><time>2026-05-02T14:45:33Z</time></trkpt><trkpt lat="46.22226477655014" lon="11.980750588140806"><ele>1115.0</ele><time>2026-05-02T14:45:34Z</time></trkpt><trkpt lat="46.22237609954888" lon="11.980717296837756"><ele>1115.0</ele><time>2026-05-02T14:45:35Z</time></trkpt><trkpt lat="46.22248881571997" lon="11.980630537561526"><ele>1115.0</ele><time>2026-05-02T14:45:36Z</time></trkpt><trkpt lat="46.22259263992231" lon="11.98052007449726"><ele>1118.4</ele><time>2026-05-02T14:45:37Z</time></trkpt><trkpt lat="46.22268567775982" lon="11.980415327947279"><ele>1121.8</ele><time>2026-05-02T14:45:38Z</time></trkpt><trkpt lat="46.222773242314865" lon="11.980318738474018"><ele>1125.2</ele><time>2026-05-02T14:45:39Z</time></trkpt><trkpt lat="46.22284856249721" lon="11.980242118819808"><ele>1128.6</ele><time>2026-05-02T14:45:40Z</time></trkpt><trkpt lat="46.22293189855624" lon="11.98019480206405"><ele>1132.0</ele><time>2026-05-02T14:45:41Z</time></trkpt><trkpt lat="46.223025730673164" lon="11.980200733141796"><ele>1132.0</ele><time>2026-05-02T14:45:42Z</time></trkpt><trkpt lat="46.22312593102055" lon="11.980252031386929"><ele>1132.0</ele><time>2026-05-02T14:45:43Z</time></trkpt><trkpt lat="46.22322387780424" lon="11.980307657296148"><ele>1132.0</ele><time>2026-05-02T14:45:44Z</time></trkpt><trkpt lat="46.22331970646175" lon="11.98034926327308"><ele>1132.0</ele><time>2026-05-02T14:45:45Z</time></trkpt><trkpt lat="46.22341383181664" lon="11.980351526395083"><ele>1132.0</ele><time>2026-05-02T14:45:46Z</time></trkpt><trkpt lat="46.223514036359624" lon="11.980299495201331"><ele>1130.8</ele><time>2026-05-02T14:45:47Z</time></trkpt><trkpt lat="46.223613519733945" lon="11.980215635783537"><ele>1129.6</ele><time>2026-05-02T14:45:48Z</time></trkpt><trkpt lat="46.22370636004104" lon="11.980152137005884"><ele>1128.3999999999999</ele><time>2026-05-02T14:45:49Z</time></trkpt><trkpt lat="46.22380861099156" lon="11.980157781089957"><ele>1127.2</ele><time>2026-05-02T14:45:50Z</time></trkpt><trkpt lat="46.2239063348424" lon="11.980167238120949"><ele>1126.0</ele><time>2026-05-02T14:45:51Z</time></trkpt><trkpt lat="46.22398869217028" lon="11.980261173102306"><ele>1126.0</ele><time>2026-05-02T14:45:52Z</time></trkpt><trkpt lat="46.22403397505034" lon="11.980404125532113"><ele>1126.0</ele><time>2026-05-02T14:45:53Z</time></trkpt><trkpt lat="46.22410986507375" lon="11.980554621017575"><ele>1126.0</ele><time>2026-05-02T14:45:54Z</time></trkpt><trkpt lat="46.22417121724921" lon="11.980730045164115"><ele>1126.0</ele><time>2026-05-02T14:45:55Z</time></trkpt><trkpt lat="46.22422560705131" lon="11.980911857139066"><ele>1119.5</ele><time>2026-05-02T14:45:56Z</time></trkpt><trkpt lat="46.22426403962921" lon="11.981097636537061"><ele>1113.0</ele><time>2026-05-02T14:45:57Z</time></trkpt><trkpt lat="46.2242956098344" lon="11.981279566191384"><ele>1106.5</ele><time>2026-05-02T14:45:58Z</time></trkpt><trkpt lat="46.22432265664689" lon="11.981453385394007"><ele>1100.0</ele><time>2026-05-02T14:45:59Z</time></trkpt><trkpt lat="46.22435354912611" lon="11.981620526964926"><ele>1094.25</ele><time>2026-05-02T14:46:00Z</time></trkpt><trkpt lat="46.2244093497305" lon="11.981770591522658"><ele>1088.5</ele><time>2026-05-02T14:46:01Z</time></trkpt><trkpt lat="46.224502006361824" lon="11.981897360596815"><ele>1082.75</ele><time>2026-05-02T14:46:02Z</time></trkpt><trkpt lat="46.22462779024193" lon="11.981987339649104"><ele>1077.0</ele><time>2026-05-02T14:46:03Z</time></trkpt><trkpt lat="46.22476437159744" lon="11.982061081309647"><ele>1083.25</ele><time>2026-05-02T14:46:04Z</time></trkpt><trkpt lat="46.224889544088704" lon="11.982136652879149"><ele>1089.5</ele><time>2026-05-02T14:46:05Z</time></trkpt><trkpt lat="46.22501309627242" lon="11.982196815075088"><ele>1095.75</ele><time>2026-05-02T14:46:06Z</time></trkpt><trkpt lat="46.22513597913402" lon="11.98222735433695"><ele>1102.0</ele><time>2026-05-02T14:46:07Z</time></trkpt><trkpt lat="46.225264872501214" lon="11.982213067378163"><ele>1102.0</ele><time>2026-05-02T14:46:08Z</time></trkpt><trkpt lat="46.22539103638709" lon="11.982174079796975"><ele>1102.0</ele><time>2026-05-02T14:46:09Z</time></trkpt><trkpt lat="46.225513789074185" lon="11.98215788411157"><ele>1102.0</ele><time>2026-05-02T14:46:10Z</time></trkpt><trkpt lat="46.22564020792463" lon="11.982186141980987"><ele>1102.0</ele><time>2026-05-02T14:46:11Z</time></trkpt><trkpt lat="46.22575887190776" lon="11.982226525832859"><ele>1101.0</ele><time>2026-05-02T14:46:12Z</time></trkpt><trkpt lat="46.225869729756525" lon="11.982262955694631"><ele>1100.0</ele><time>2026-05-02T14:46:13Z</time></trkpt><trkpt lat="46.225985409315136" lon="11.982238618503896"><ele>1099.0</ele><time>2026-05-02T14:46:14Z</time></trkpt><trkpt lat="46.226094025825375" lon="11.982164516271036"><ele>1098.0</ele><time>2026-05-02T14:46:15Z</time></trkpt><trkpt lat="46.226195970461" lon="11.982116239252674"><ele>1098.0</ele><time>2026-05-02T14:46:16Z</time></trkpt><trkpt lat="46.22630008021481" lon="11.98213048513417"><ele>1098.0</ele><time>2026-05-02T14:46:17Z</time></trkpt><trkpt lat="46.22639895901609" lon="11.982168163953949"><ele>1098.0</ele><time>2026-05-02T14:46:18Z</time></trkpt><trkpt lat="46.22649835848914" lon="11.982195352120453"><ele>1098.0</ele><time>2026-05-02T14:46:19Z</time></trkpt><trkpt lat="46.22658943909644" lon="11.982200466591658"><ele>1098.0</ele><time>2026-05-02T14:46:20Z</time></trkpt><trkpt lat="46.226678378929286" lon="11.982192155743418"><ele>1095.8</ele><time>2026-05-02T14:46:21Z</time></trkpt><trkpt lat="46.22676403369739" lon="11.98217861211479"><ele>1093.6</ele><time>2026-05-02T14:46:22Z</time></trkpt><trkpt lat="46.22684790826941" lon="11.982165751698709"><ele>1091.4</ele><time>2026-05-02T14:46:23Z</time></trkpt><trkpt lat="46.22694031928101" lon="11.98214838421225"><ele>1089.2</ele><time>2026-05-02T14:46:24Z</time></trkpt><trkpt lat="46.22704085754126" lon="11.982146403391278"><ele>1087.0</ele><time>2026-05-02T14:46:25Z</time></trkpt><trkpt lat="46.227147866013404" lon="11.982169992883518"><ele>1087.0</ele><time>2026-05-02T14:46:26Z</time></trkpt><trkpt lat="46.22726187768703" lon="11.982208215583015"><ele>1087.0</ele><time>2026-05-02T14:46:27Z</time></trkpt><trkpt lat="46.227367482457474" lon="11.982259545894728"><ele>1087.0</ele><time>2026-05-02T14:46:28Z</time></trkpt><trkpt lat="46.22746174736971" lon="11.982307789202855"><ele>1087.0</ele><time>2026-05-02T14:46:29Z</time></trkpt><trkpt lat="46.22754315450252" lon="11.982392372375717"><ele>1087.0</ele><time>2026-05-02T14:46:30Z</time></trkpt><trkpt lat="46.22760700119966" lon="11.982484832023923"><ele>1089.0</ele><time>2026-05-02T14:46:31Z</time></trkpt><trkpt lat="46.22765088979806" lon="11.982593269813961"><ele>1091.0</ele><time>2026-05-02T14:46:32Z</time></trkpt><trkpt lat="46.2276488767858" lon="11.982725685964333"><ele>1093.0</ele><time>2026-05-02T14:46:33Z</time></trkpt><trkpt lat="46.22759277754992" lon="11.982823352937219"><ele>1095.0</ele><time>2026-05-02T14:46:34.001Z</time></trkpt><trkpt lat="46.227526236228556" lon="11.982875026408852"><ele>1097.0</ele><time>2026-05-02T14:46:35.001Z</time></trkpt><trkpt lat="46.227464030284615" lon="11.982935337390417"><ele>1099.0</ele><time>2026-05-02T14:46:36.001Z</time></trkpt><trkpt lat="46.2273953158369" lon="11.983011253412421"><ele>1099.0</ele><time>2026-05-02T14:46:37.001Z</time></trkpt><trkpt lat="46.227346828825176" lon="11.98312456049821"><ele>1099.0</ele><time>2026-05-02T14:46:38.001Z</time></trkpt><trkpt lat="46.227345325276254" lon="11.983257607840782"><ele>1099.0</ele><time>2026-05-02T14:46:39.001Z</time></trkpt><trkpt lat="46.227392990583006" lon="11.983394250096552"><ele>1099.0</ele><time>2026-05-02T14:46:40.001Z</time></trkpt><trkpt lat="46.22746116124407" lon="11.983533078159425"><ele>1099.0</ele><time>2026-05-02T14:46:41.001Z</time></trkpt><trkpt lat="46.22753362562023" lon="11.983691895555422"><ele>1093.0</ele><time>2026-05-02T14:46:42.001Z</time></trkpt><trkpt lat="46.22761034306959" lon="11.983867269057898"><ele>1087.0</ele><time>2026-05-02T14:46:43.001Z</time></trkpt><trkpt lat="46.22769093827706" lon="11.984053931964416"><ele>1081.0</ele><time>2026-05-02T14:46:44.001Z</time></trkpt><trkpt lat="46.2277799789336" lon="11.984247897392521"><ele>1077.75</ele><time>2026-05-02T14:46:45.001Z</time></trkpt><trkpt lat="46.22786558757582" lon="11.9844295742368"><ele>1074.5</ele><time>2026-05-02T14:46:46.001Z</time></trkpt><trkpt lat="46.227932465822875" lon="11.984617332314825"><ele>1071.25</ele><time>2026-05-02T14:46:47.001Z</time></trkpt><trkpt lat="46.228015502696124" lon="11.984777448096148"><ele>1068.0</ele><time>2026-05-02T14:46:48.001Z</time></trkpt><trkpt lat="46.22806984325646" lon="11.984952619631375"><ele>1066.0</ele><time>2026-05-02T14:46:49.001Z</time></trkpt><trkpt lat="46.228092820259114" lon="11.985138170308876"><ele>1064.0</ele><time>2026-05-02T14:46:50.001Z</time></trkpt><trkpt lat="46.2280807882406" lon="11.98532511858279"><ele>1062.0</ele><time>2026-05-02T14:46:51.001Z</time></trkpt><trkpt lat="46.22805337111721" lon="11.985515150191391"><ele>1060.0</ele><time>2026-05-02T14:46:52.001Z</time></trkpt><trkpt lat="46.228019734824386" lon="11.985703796827005"><ele>1059.5</ele><time>2026-05-02T14:46:53.001Z</time></trkpt><trkpt lat="46.22798291226436" lon="11.985892459828197"><ele>1059.0</ele><time>2026-05-02T14:46:54.001Z</time></trkpt><trkpt lat="46.22795165295634" lon="11.986076166167281"><ele>1058.5</ele><time>2026-05-02T14:46:55.001Z</time></trkpt><trkpt lat="46.22793203607099" lon="11.986246377637519"><ele>1058.0</ele><time>2026-05-02T14:46:56.001Z</time></trkpt><trkpt lat="46.22794167304868" lon="11.986394439872619"><ele>1058.0</ele><time>2026-05-02T14:46:57.001Z</time></trkpt><trkpt lat="46.22799563307857" lon="11.986522488149427"><ele>1058.0</ele><time>2026-05-02T14:46:58.001Z</time></trkpt><trkpt lat="46.228082383980194" lon="11.986615153404628"><ele>1058.0</ele><time>2026-05-02T14:46:59.001Z</time></trkpt><trkpt lat="46.22819145170659" lon="11.986655627322628"><ele>1058.0</ele><time>2026-05-02T14:47:00.001Z</time></trkpt><trkpt lat="46.22831389195078" lon="11.98666933711556"><ele>1058.0</ele><time>2026-05-02T14:47:01.001Z</time></trkpt><trkpt lat="46.22842768736731" lon="11.986687643591202"><ele>1060.8</ele><time>2026-05-02T14:47:02.001Z</time></trkpt><trkpt lat="46.22853519195052" lon="11.98670801358207"><ele>1063.6</ele><time>2026-05-02T14:47:03.001Z</time></trkpt><trkpt lat="46.22861931130595" lon="11.986771038041425"><ele>1066.4</ele><time>2026-05-02T14:47:04.001Z</time></trkpt><trkpt lat="46.22867347828056" lon="11.98688415748533"><ele>1069.2</ele><time>2026-05-02T14:47:05.001Z</time></trkpt><trkpt lat="46.22868392468406" lon="11.987018898676492"><ele>1072.0</ele><time>2026-05-02T14:47:06.001Z</time></trkpt><trkpt lat="46.228634914046154" lon="11.987119707991564"><ele>1072.0</ele><time>2026-05-02T14:47:07.001Z</time></trkpt><trkpt lat="46.22857317885284" lon="11.987208672799847"><ele>1072.0</ele><time>2026-05-02T14:47:08.001Z</time></trkpt><trkpt lat="46.2285237802075" lon="11.98733188962932"><ele>1072.0</ele><time>2026-05-02T14:47:09.001Z</time></trkpt><trkpt lat="46.228481820176334" lon="11.987473957718969"><ele>1072.0</ele><time>2026-05-02T14:47:10Z</time></trkpt><trkpt lat="46.228453085688486" lon="11.987622703495033"><ele>1072.0</ele><time>2026-05-02T14:47:11Z</time></trkpt><trkpt lat="46.228441562608346" lon="11.98777266534065"><ele>1071.0</ele><time>2026-05-02T14:47:12Z</time></trkpt><trkpt lat="46.22846060874406" lon="11.987912199602839"><ele>1070.0</ele><time>2026-05-02T14:47:13Z</time></trkpt><trkpt lat="46.22852108383521" lon="11.988031267556108"><ele>1069.0</ele><time>2026-05-02T14:47:14Z</time></trkpt><trkpt lat="46.228599374708516" lon="11.9881355551971"><ele>1068.0</ele><time>2026-05-02T14:47:15Z</time></trkpt><trkpt lat="46.22866962081556" lon="11.988238287990521"><ele>1067.0</ele><time>2026-05-02T14:47:16Z</time></trkpt><trkpt lat="46.228723469803924" lon="11.98835037758618"><ele>1066.0</ele><time>2026-05-02T14:47:17Z</time></trkpt><trkpt lat="46.228749102106015" lon="11.988473835974872"><ele>1065.0</ele><time>2026-05-02T14:47:18Z</time></trkpt><trkpt lat="46.22873997178977" lon="11.988592843080456"><ele>1064.0</ele><time>2026-05-02T14:47:19Z</time></trkpt><trkpt lat="46.22868636420949" lon="11.98870438897575"><ele>1063.0</ele><time>2026-05-02T14:47:20Z</time></trkpt><trkpt lat="46.228624830951055" lon="11.988814899334702"><ele>1062.0</ele><time>2026-05-02T14:47:21Z</time></trkpt><trkpt lat="46.228584271926785" lon="11.988938622199562"><ele>1062.0</ele><time>2026-05-02T14:47:22Z</time></trkpt><trkpt lat="46.22856359649515" lon="11.989087692541183"><ele>1062.0</ele><time>2026-05-02T14:47:23Z</time></trkpt><trkpt lat="46.22857235370011" lon="11.98926697744473"><ele>1062.0</ele><time>2026-05-02T14:47:24Z</time></trkpt><trkpt lat="46.22859194932931" lon="11.989443090507203"><ele>1062.0</ele><time>2026-05-02T14:47:25Z</time></trkpt><trkpt lat="46.22860047333528" lon="11.989613851172036"><ele>1060.2</ele><time>2026-05-02T14:47:26Z</time></trkpt><trkpt lat="46.22860930953525" lon="11.989782594651224"><ele>1058.4</ele><time>2026-05-02T14:47:27Z</time></trkpt><trkpt lat="46.2286197819376" lon="11.989947490328596"><ele>1056.6</ele><time>2026-05-02T14:47:28Z</time></trkpt><trkpt lat="46.22861617835101" lon="11.990104470764923"><ele>1054.8</ele><time>2026-05-02T14:47:29Z</time></trkpt><trkpt lat="46.228592226374104" lon="11.990249784546975"><ele>1053.0</ele><time>2026-05-02T14:47:30Z</time></trkpt><trkpt lat="46.22856693061931" lon="11.990372836839"><ele>1051.4</ele><time>2026-05-02T14:47:31Z</time></trkpt><trkpt lat="46.22857225648106" lon="11.990487207749313"><ele>1049.8</ele><time>2026-05-02T14:47:32Z</time></trkpt><trkpt lat="46.2286290006511" lon="11.990583554181198"><ele>1048.2</ele><time>2026-05-02T14:47:33Z</time></trkpt><trkpt lat="46.22872163858162" lon="11.990647159030216"><ele>1046.6</ele><time>2026-05-02T14:47:34Z</time></trkpt><trkpt lat="46.22883056895454" lon="11.990695457766797"><ele>1045.0</ele><time>2026-05-02T14:47:35Z</time></trkpt><trkpt lat="46.22893221398072" lon="11.990759255715343"><ele>1047.75</ele><time>2026-05-02T14:47:36Z</time></trkpt><trkpt lat="46.22902918969591" lon="11.990827647220872"><ele>1050.5</ele><time>2026-05-02T14:47:37Z</time></trkpt><trkpt lat="46.229117410681624" lon="11.990937034912026"><ele>1053.25</ele><time>2026-05-02T14:47:38Z</time></trkpt><trkpt lat="46.22917380663139" lon="11.991085981785739"><ele>1056.0</ele><time>2026-05-02T14:47:39Z</time></trkpt><trkpt lat="46.22918729675128" lon="11.99125503318723"><ele>1056.0</ele><time>2026-05-02T14:47:40Z</time></trkpt><trkpt lat="46.229184872478875" lon="11.991435697136575"><ele>1056.0</ele><time>2026-05-02T14:47:41Z</time></trkpt><trkpt lat="46.229184769884895" lon="11.991609666816487"><ele>1056.0</ele><time>2026-05-02T14:47:42Z</time></trkpt><trkpt lat="46.22919949343961" lon="11.991785202380562"><ele>1056.0</ele><time>2026-05-02T14:47:43Z</time></trkpt><trkpt lat="46.22923007906544" lon="11.991968890742259"><ele>1051.6666666666667</ele><time>2026-05-02T14:47:44Z</time></trkpt><trkpt lat="46.22928367918244" lon="11.992191909538844"><ele>1047.3333333333335</ele><time>2026-05-02T14:47:45Z</time></trkpt><trkpt lat="46.22938731390818" lon="11.992467906133864"><ele>1043.0</ele><time>2026-05-02T14:47:46Z</time></trkpt><trkpt lat="46.229478133843045" lon="11.99268608163357"><ele>1040.3333333333335</ele><time>2026-05-02T14:47:47Z</time></trkpt><trkpt lat="46.229538490615816" lon="11.992898318475259"><ele>1037.6666666666667</ele><time>2026-05-02T14:47:48Z</time></trkpt><trkpt lat="46.22958059279557" lon="11.993097592258966"><ele>1035.0</ele><time>2026-05-02T14:47:49Z</time></trkpt><trkpt lat="46.22958509552173" lon="11.993319341991496"><ele>1035.3333333333333</ele><time>2026-05-02T14:47:50Z</time></trkpt><trkpt lat="46.22956995937245" lon="11.993575587137993"><ele>1035.6666666666665</ele><time>2026-05-02T14:47:51Z</time></trkpt><trkpt lat="46.22955032682049" lon="11.993797116818229"><ele>1036.0</ele><time>2026-05-02T14:47:52Z</time></trkpt><trkpt lat="46.229520609736674" lon="11.993984497986236"><ele>1036.0</ele><time>2026-05-02T14:47:53Z</time></trkpt><trkpt lat="46.22943421231052" lon="11.99412388538973"><ele>1036.0</ele><time>2026-05-02T14:47:54Z</time></trkpt><trkpt lat="46.22931220877266" lon="11.994168779784186"><ele>1036.0</ele><time>2026-05-02T14:47:55Z</time></trkpt><trkpt lat="46.22920416495622" lon="11.99424273930664"><ele>1036.0</ele><time>2026-05-02T14:47:56Z</time></trkpt><trkpt lat="46.229109637935565" lon="11.994298259447651"><ele>1037.5</ele><time>2026-05-02T14:47:57Z</time></trkpt><trkpt lat="46.2290391132739" lon="11.994408733419895"><ele>1039.0</ele><time>2026-05-02T14:47:58Z</time></trkpt><trkpt lat="46.229003073043515" lon="11.994567413872739"><ele>1040.5</ele><time>2026-05-02T14:47:59Z</time></trkpt><trkpt lat="46.22900523781871" lon="11.994731770518106"><ele>1042.0</ele><time>2026-05-02T14:48:00Z</time></trkpt><trkpt lat="46.22904875504771" lon="11.994898283012393"><ele>1040.25</ele><time>2026-05-02T14:48:01Z</time></trkpt><trkpt lat="46.22911545094491" lon="11.995056410814055"><ele>1038.5</ele><time>2026-05-02T14:48:02Z</time></trkpt><trkpt lat="46.229171926853354" lon="11.995216506623276"><ele>1036.75</ele><time>2026-05-02T14:48:03Z</time></trkpt><trkpt lat="46.22919738136242" lon="11.995392946124683"><ele>1035.0</ele><time>2026-05-02T14:48:04Z</time></trkpt><trkpt lat="46.229199119472504" lon="11.995557781016087"><ele>1035.0</ele><time>2026-05-02T14:48:05Z</time></trkpt><trkpt lat="46.22918573831424" lon="11.995721310461537"><ele>1035.0</ele><time>2026-05-02T14:48:06Z</time></trkpt><trkpt lat="46.22917382236114" lon="11.995892457855277"><ele>1035.0</ele><time>2026-05-02T14:48:07Z</time></trkpt><trkpt lat="46.22916031071159" lon="11.996080138315575"><ele>1035.0</ele><time>2026-05-02T14:48:08Z</time></trkpt><trkpt lat="46.22914533780057" lon="11.996281068014495"><ele>1034.5</ele><time>2026-05-02T14:48:09Z</time></trkpt><trkpt lat="46.22911366919386" lon="11.996469923391894"><ele>1034.0</ele><time>2026-05-02T14:48:10Z</time></trkpt><trkpt lat="46.22907102373922" lon="11.99664778275971"><ele>1033.5</ele><time>2026-05-02T14:48:11Z</time></trkpt><trkpt lat="46.229015285956805" lon="11.996828339054877"><ele>1033.0</ele><time>2026-05-02T14:48:12Z</time></trkpt><trkpt lat="46.22895173659697" lon="11.997009886607415"><ele>1028.25</ele><time>2026-05-02T14:48:13Z</time></trkpt><trkpt lat="46.22887978013729" lon="11.997180606928003"><ele>1023.5</ele><time>2026-05-02T14:48:14Z</time></trkpt><trkpt lat="46.22879606656973" lon="11.997334410111804"><ele>1018.75</ele><time>2026-05-02T14:48:15Z</time></trkpt><trkpt lat="46.22868822014665" lon="11.997451608877414"><ele>1014.0</ele><time>2026-05-02T14:48:16Z</time></trkpt><trkpt lat="46.228564249078666" lon="11.99748365119682"><ele>1018.0</ele><time>2026-05-02T14:48:17Z</time></trkpt><trkpt lat="46.22844527409888" lon="11.997522918756424"><ele>1022.0</ele><time>2026-05-02T14:48:18Z</time></trkpt><trkpt lat="46.22833757873519" lon="11.997581777990659"><ele>1026.0</ele><time>2026-05-02T14:48:19Z</time></trkpt><trkpt lat="46.228240180535636" lon="11.997646296223538"><ele>1030.0</ele><time>2026-05-02T14:48:20Z</time></trkpt><trkpt lat="46.22816078466024" lon="11.997769178099938"><ele>1019.75</ele><time>2026-05-02T14:48:21Z</time></trkpt><trkpt lat="46.22809353377346" lon="11.997935600800027"><ele>1009.5</ele><time>2026-05-02T14:48:22Z</time></trkpt><trkpt lat="46.22804268479287" lon="11.99811476110929"><ele>999.25</ele><time>2026-05-02T14:48:23.001Z</time></trkpt><trkpt lat="46.22799815898397" lon="11.998288726893913"><ele>989.0</ele><time>2026-05-02T14:48:24.001Z</time></trkpt><trkpt lat="46.22796296423438" lon="11.998440586718537"><ele>987.2</ele><time>2026-05-02T14:48:25.001Z</time></trkpt><trkpt lat="46.22792931582587" lon="11.998581389244544"><ele>985.4000000000001</ele><time>2026-05-02T14:48:26.001Z</time></trkpt><trkpt lat="46.227914358310386" lon="11.998724815696184"><ele>983.6</ele><time>2026-05-02T14:48:27.001Z</time></trkpt><trkpt lat="46.22793617728749" lon="11.99887680307541"><ele>981.8</ele><time>2026-05-02T14:48:28.001Z</time></trkpt><trkpt lat="46.22799565856757" lon="11.999041091309612"><ele>980.0</ele><time>2026-05-02T14:48:29.001Z</time></trkpt><trkpt lat="46.228072626388375" lon="11.999200814667116"><ele>987.75</ele><time>2026-05-02T14:48:30.001Z</time></trkpt><trkpt lat="46.228146986971865" lon="11.999369843282004"><ele>995.5</ele><time>2026-05-02T14:48:31.001Z</time></trkpt><trkpt lat="46.22821174545086" lon="11.999555956873289"><ele>1003.25</ele><time>2026-05-02T14:48:32.001Z</time></trkpt><trkpt lat="46.22825713208074" lon="11.999746959538223"><ele>1011.0</ele><time>2026-05-02T14:48:33.001Z</time></trkpt><trkpt lat="46.228285603438074" lon="11.999938098238307"><ele>1011.0</ele><time>2026-05-02T14:48:34.001Z</time></trkpt><trkpt lat="46.228298550767924" lon="12.00012545042619"><ele>1011.0</ele><time>2026-05-02T14:48:35.001Z</time></trkpt><trkpt lat="46.22830431289937" lon="12.000309333350176"><ele>1011.0</ele><time>2026-05-02T14:48:36.001Z</time></trkpt><trkpt lat="46.22832532001596" lon="12.000479235866273"><ele>1011.0</ele><time>2026-05-02T14:48:37.001Z</time></trkpt><trkpt lat="46.22837243162717" lon="12.000662603447289"><ele>1009.25</ele><time>2026-05-02T14:48:38.001Z</time></trkpt><trkpt lat="46.22843717296778" lon="12.000838634450409"><ele>1007.5</ele><time>2026-05-02T14:48:39.001Z</time></trkpt><trkpt lat="46.228504935881986" lon="12.001022132927213"><ele>1005.75</ele><time>2026-05-02T14:48:40.001Z</time></trkpt><trkpt lat="46.22857091836202" lon="12.001220441201259"><ele>1004.0</ele><time>2026-05-02T14:48:41.001Z</time></trkpt><trkpt lat="46.22864119243826" lon="12.001415140500438"><ele>1004.0</ele><time>2026-05-02T14:48:42.001Z</time></trkpt><trkpt lat="46.22870829158383" lon="12.001609131289655"><ele>1004.0</ele><time>2026-05-02T14:48:43.001Z</time></trkpt><trkpt lat="46.22877317792195" lon="12.001807042938712"><ele>1004.0</ele><time>2026-05-02T14:48:44.001Z</time></trkpt><trkpt lat="46.22883989680188" lon="12.002001567549046"><ele>1004.25</ele><time>2026-05-02T14:48:45.001Z</time></trkpt><trkpt lat="46.22891839097726" lon="12.00218389548177"><ele>1004.5</ele><time>2026-05-02T14:48:46.001Z</time></trkpt><trkpt lat="46.22898718335944" lon="12.002373715204826"><ele>1004.75</ele><time>2026-05-02T14:48:47.001Z</time></trkpt><trkpt lat="46.22909156565643" lon="12.0025219328845"><ele>1005.0</ele><time>2026-05-02T14:48:48.001Z</time></trkpt><trkpt lat="46.229173302411496" lon="12.002695927320097"><ele>1005.0</ele><time>2026-05-02T14:48:49.001Z</time></trkpt><trkpt lat="46.2292282825531" lon="12.002894765387"><ele>1005.0</ele><time>2026-05-02T14:48:50.001Z</time></trkpt><trkpt lat="46.22926009915353" lon="12.003109377116992"><ele>1005.0</ele><time>2026-05-02T14:48:51.001Z</time></trkpt><trkpt lat="46.22927114318576" lon="12.003325337929777"><ele>1003.5</ele><time>2026-05-02T14:48:52.001Z</time></trkpt><trkpt lat="46.22928486347708" lon="12.00353527216409"><ele>1002.0</ele><time>2026-05-02T14:48:53.001Z</time></trkpt><trkpt lat="46.229303248748806" lon="12.003726932245913"><ele>1000.5</ele><time>2026-05-02T14:48:54.001Z</time></trkpt><trkpt lat="46.2293211284236" lon="12.003913350989919"><ele>999.0</ele><time>2026-05-02T14:48:55.001Z</time></trkpt><trkpt lat="46.22933203332387" lon="12.004095457246073"><ele>996.75</ele><time>2026-05-02T14:48:56.001Z</time></trkpt><trkpt lat="46.22934747131028" lon="12.004271972686048"><ele>994.5</ele><time>2026-05-02T14:48:57.001Z</time></trkpt><trkpt lat="46.229379411916405" lon="12.00444806781043"><ele>992.25</ele><time>2026-05-02T14:48:58.001Z</time></trkpt><trkpt lat="46.22942659640491" lon="12.004635977729636"><ele>990.0</ele><time>2026-05-02T14:48:59.001Z</time></trkpt><trkpt lat="46.229512877418095" lon="12.004808210877114"><ele>990.0</ele><time>2026-05-02T14:49:00.001Z</time></trkpt><trkpt lat="46.229611911843506" lon="12.0049703262552"><ele>990.0</ele><time>2026-05-02T14:49:01.001Z</time></trkpt><trkpt lat="46.22971804042817" lon="12.005137409316271"><ele>990.0</ele><time>2026-05-02T14:49:02.001Z</time></trkpt><trkpt lat="46.22982358899818" lon="12.005296753168095"><ele>994.6666666666667</ele><time>2026-05-02T14:49:03.001Z</time></trkpt><trkpt lat="46.22992757118489" lon="12.00545525792128"><ele>999.3333333333334</ele><time>2026-05-02T14:49:04.001Z</time></trkpt><trkpt lat="46.22999082974867" lon="12.005653739851878"><ele>1004.0</ele><time>2026-05-02T14:49:05.001Z</time></trkpt><trkpt lat="46.230037317774" lon="12.005866924739447"><ele>1004.0</ele><time>2026-05-02T14:49:06.001Z</time></trkpt><trkpt lat="46.23007536233318" lon="12.006080011578348"><ele>1004.0</ele><time>2026-05-02T14:49:07.001Z</time></trkpt><trkpt lat="46.230109452116224" lon="12.006276834875395"><ele>1004.0</ele><time>2026-05-02T14:49:08.001Z</time></trkpt><trkpt lat="46.230123729494984" lon="12.00646972249646"><ele>1004.0</ele><time>2026-05-02T14:49:09.001Z</time></trkpt><trkpt lat="46.23015095769414" lon="12.006647604166657"><ele>1002.75</ele><time>2026-05-02T14:49:10.001Z</time></trkpt><trkpt lat="46.23016742601556" lon="12.006824891345358"><ele>1001.5</ele><time>2026-05-02T14:49:11.001Z</time></trkpt><trkpt lat="46.2301564665581" lon="12.006999950083936"><ele>1000.25</ele><time>2026-05-02T14:49:12.001Z</time></trkpt><trkpt lat="46.230124109462785" lon="12.007170494601635"><ele>999.0</ele><time>2026-05-02T14:49:13.001Z</time></trkpt><trkpt lat="46.230076879300526" lon="12.007331951096026"><ele>999.25</ele><time>2026-05-02T14:49:14.001Z</time></trkpt><trkpt lat="46.230032517539875" lon="12.007503099624277"><ele>999.5</ele><time>2026-05-02T14:49:15.001Z</time></trkpt><trkpt lat="46.230023166218956" lon="12.007700448600083"><ele>999.75</ele><time>2026-05-02T14:49:16Z</time></trkpt><trkpt lat="46.23001461441125" lon="12.007904468664977"><ele>1000.0</ele><time>2026-05-02T14:49:17Z</time></trkpt><trkpt lat="46.229997473643124" lon="12.008112999668924"><ele>1000.0</ele><time>2026-05-02T14:49:18Z</time></trkpt><trkpt lat="46.23001303452623" lon="12.008307161274693"><ele>1000.0</ele><time>2026-05-02T14:49:19Z</time></trkpt><trkpt lat="46.23001151153746" lon="12.008493627240751"><ele>1000.0</ele><time>2026-05-02T14:49:20Z</time></trkpt><trkpt lat="46.23002313354863" lon="12.008686759713116"><ele>1000.0</ele><time>2026-05-02T14:49:21Z</time></trkpt><trkpt lat="46.230034591444515" lon="12.00888696025453"><ele>1000.0</ele><time>2026-05-02T14:49:22Z</time></trkpt><trkpt lat="46.2300875408049" lon="12.009073957579107"><ele>1000.0</ele><time>2026-05-02T14:49:23Z</time></trkpt><trkpt lat="46.2301616478632" lon="12.009236066782098"><ele>1000.0</ele><time>2026-05-02T14:49:24Z</time></trkpt><trkpt lat="46.23022205077148" lon="12.009399251985586"><ele>1000.0</ele><time>2026-05-02T14:49:25Z</time></trkpt><trkpt lat="46.230290982940836" lon="12.009545590757725"><ele>998.6</ele><time>2026-05-02T14:49:26Z</time></trkpt><trkpt lat="46.23037166948097" lon="12.0096648000831"><ele>997.2</ele><time>2026-05-02T14:49:27Z</time></trkpt><trkpt lat="46.230454414694826" lon="12.009748853369441"><ele>995.8</ele><time>2026-05-02T14:49:28Z</time></trkpt><trkpt lat="46.23053778853775" lon="12.009806318005396"><ele>994.4</ele><time>2026-05-02T14:49:29Z</time></trkpt><trkpt lat="46.2306195651941" lon="12.009856369523776"><ele>993.0</ele><time>2026-05-02T14:49:30Z</time></trkpt><trkpt lat="46.230689134462175" lon="12.009934481931053"><ele>995.5</ele><time>2026-05-02T14:49:31Z</time></trkpt><trkpt lat="46.23078378354547" lon="12.010021181648996"><ele>998.0</ele><time>2026-05-02T14:49:32Z</time></trkpt><trkpt lat="46.2308871405942" lon="12.010119534565563"><ele>1000.5</ele><time>2026-05-02T14:49:33Z</time></trkpt><trkpt lat="46.23097238933082" lon="12.01027556996759"><ele>1003.0</ele><time>2026-05-02T14:49:34Z</time></trkpt><trkpt lat="46.23106864419737" lon="12.010433885293978"><ele>1003.0</ele><time>2026-05-02T14:49:35Z</time></trkpt><trkpt lat="46.23117163835363" lon="12.010585431909709"><ele>1003.0</ele><time>2026-05-02T14:49:36Z</time></trkpt><trkpt lat="46.23128016480306" lon="12.010730063521173"><ele>1003.0</ele><time>2026-05-02T14:49:37Z</time></trkpt><trkpt lat="46.23139944947743" lon="12.010867925602634"><ele>1003.0</ele><time>2026-05-02T14:49:38Z</time></trkpt><trkpt lat="46.231517880835575" lon="12.011011530383643"><ele>1004.3333333333333</ele><time>2026-05-02T14:49:39Z</time></trkpt><trkpt lat="46.23163745785798" lon="12.011174627839146"><ele>1005.6666666666667</ele><time>2026-05-02T14:49:40Z</time></trkpt><trkpt lat="46.23175556558621" lon="12.011349105515583"><ele>1007.0</ele><time>2026-05-02T14:49:41Z</time></trkpt><trkpt lat="46.231878625194106" lon="12.011530255454547"><ele>1004.6666666666667</ele><time>2026-05-02T14:49:42Z</time></trkpt><trkpt lat="46.23201238086937" lon="12.011696842349968"><ele>1002.3333333333333</ele><time>2026-05-02T14:49:43Z</time></trkpt><trkpt lat="46.23213933596002" lon="12.01187608307726"><ele>1000.0</ele><time>2026-05-02T14:49:44Z</time></trkpt><trkpt lat="46.232295389606755" lon="12.012002601674768"><ele>999.6666666666666</ele><time>2026-05-02T14:49:45Z</time></trkpt><trkpt lat="46.2324321149218" lon="12.012164304202356"><ele>999.3333333333333</ele><time>2026-05-02T14:49:46Z</time></trkpt><trkpt lat="46.23255145819711" lon="12.012342005289286"><ele>999.0</ele><time>2026-05-02T14:49:47Z</time></trkpt><trkpt lat="46.232654322370074" lon="12.012533750755656"><ele>999.0</ele><time>2026-05-02T14:49:48Z</time></trkpt><trkpt lat="46.23275631926589" lon="12.012722198234945"><ele>999.0</ele><time>2026-05-02T14:49:49Z</time></trkpt><trkpt lat="46.232880124379086" lon="12.012890071544126"><ele>999.0</ele><time>2026-05-02T14:49:50Z</time></trkpt><trkpt lat="46.23303194701984" lon="12.013016750245011"><ele>1004.3333333333333</ele><time>2026-05-02T14:49:51Z</time></trkpt><trkpt lat="46.233208213747325" lon="12.01311847103475"><ele>1009.6666666666666</ele><time>2026-05-02T14:49:52Z</time></trkpt><trkpt lat="46.233389495626575" lon="12.013212467011252"><ele>1015.0</ele><time>2026-05-02T14:49:53Z</time></trkpt><trkpt lat="46.23356762268952" lon="12.0133063913895"><ele>1013.0</ele><time>2026-05-02T14:49:54Z</time></trkpt><trkpt lat="46.23375552062187" lon="12.013405600567028"><ele>1011.0</ele><time>2026-05-02T14:49:55Z</time></trkpt><trkpt lat="46.233944416688196" lon="12.013506674153144"><ele>1009.0</ele><time>2026-05-02T14:49:56Z</time></trkpt><trkpt lat="46.23412661662729" lon="12.01360360934492"><ele>1009.0</ele><time>2026-05-02T14:49:57Z</time></trkpt><trkpt lat="46.23429691574795" lon="12.01368903610458"><ele>1009.0</ele><time>2026-05-02T14:49:58Z</time></trkpt><trkpt lat="46.23445209805705" lon="12.013777240429723"><ele>1009.0</ele><time>2026-05-02T14:49:59Z</time></trkpt><trkpt lat="46.23462537337732" lon="12.01385467483378"><ele>1009.0</ele><time>2026-05-02T14:50:00Z</time></trkpt><trkpt lat="46.234803415745375" lon="12.013964180832765"><ele>1009.0</ele><time>2026-05-02T14:50:01Z</time></trkpt><trkpt lat="46.23494423318711" lon="12.014112996746352"><ele>1009.0</ele><time>2026-05-02T14:50:02Z</time></trkpt><trkpt lat="46.23508473615311" lon="12.014274690147172"><ele>1003.6666666666666</ele><time>2026-05-02T14:50:03Z</time></trkpt><trkpt lat="46.235229239868076" lon="12.014459400183906"><ele>998.3333333333333</ele><time>2026-05-02T14:50:04Z</time></trkpt><trkpt lat="46.235360490640836" lon="12.014634915749545"><ele>993.0</ele><time>2026-05-02T14:50:05Z</time></trkpt><trkpt lat="46.23548440082599" lon="12.01480358017985"><ele>993.0</ele><time>2026-05-02T14:50:06Z</time></trkpt><trkpt lat="46.23561124011441" lon="12.014978679176945"><ele>993.0</ele><time>2026-05-02T14:50:07Z</time></trkpt><trkpt lat="46.23575950697854" lon="12.015187565422773"><ele>993.0</ele><time>2026-05-02T14:50:08Z</time></trkpt><trkpt lat="46.2358935088773" lon="12.015388295960934"><ele>991.3333333333333</ele><time>2026-05-02T14:50:09Z</time></trkpt><trkpt lat="46.236018703989735" lon="12.015562447382989"><ele>989.6666666666666</ele><time>2026-05-02T14:50:10Z</time></trkpt><trkpt lat="46.23613513682719" lon="12.015742192331622"><ele>988.0</ele><time>2026-05-02T14:50:11Z</time></trkpt><trkpt lat="46.23626970098107" lon="12.01587278856196"><ele>988.0</ele><time>2026-05-02T14:50:12Z</time></trkpt><trkpt lat="46.2364165648065" lon="12.015965552494361"><ele>988.0</ele><time>2026-05-02T14:50:13Z</time></trkpt><trkpt lat="46.23657903810681" lon="12.01602028545628"><ele>988.0</ele><time>2026-05-02T14:50:14Z</time></trkpt><trkpt lat="46.23675214532902" lon="12.016046954504294"><ele>990.3333333333333</ele><time>2026-05-02T14:50:15Z</time></trkpt><trkpt lat="46.23691377151612" lon="12.016035763207991"><ele>992.6666666666667</ele><time>2026-05-02T14:50:16Z</time></trkpt><trkpt lat="46.237062906271916" lon="12.016001655113172"><ele>995.0</ele><time>2026-05-02T14:50:17Z</time></trkpt><trkpt lat="46.237200652816504" lon="12.016014776711389"><ele>997.25</ele><time>2026-05-02T14:50:18Z</time></trkpt><trkpt lat="46.237324798690366" lon="12.016117428950993"><ele>999.5</ele><time>2026-05-02T14:50:19.001Z</time></trkpt><trkpt lat="46.237434480094755" lon="12.016269535389457"><ele>1001.75</ele><time>2026-05-02T14:50:20.001Z</time></trkpt><trkpt lat="46.23751425309946" lon="12.016454435688715"><ele>1004.0</ele><time>2026-05-02T14:50:21.001Z</time></trkpt><trkpt lat="46.23760962600712" lon="12.016644905644895"><ele>996.3333333333334</ele><time>2026-05-02T14:50:22.001Z</time></trkpt><trkpt lat="46.237676109296025" lon="12.016845534940684"><ele>988.6666666666667</ele><time>2026-05-02T14:50:23.001Z</time></trkpt><trkpt lat="46.23775819725144" lon="12.017033502687132"><ele>981.0</ele><time>2026-05-02T14:50:24.001Z</time></trkpt><trkpt lat="46.23785030377408" lon="12.017196477705248"><ele>981.0</ele><time>2026-05-02T14:50:25.001Z</time></trkpt><trkpt lat="46.23794079359242" lon="12.017347453386375"><ele>981.0</ele><time>2026-05-02T14:50:26.001Z</time></trkpt><trkpt lat="46.23804530295395" lon="12.017476044058212"><ele>981.0</ele><time>2026-05-02T14:50:27.001Z</time></trkpt><trkpt lat="46.23816341902178" lon="12.01755140322564"><ele>981.0</ele><time>2026-05-02T14:50:28.001Z</time></trkpt><trkpt lat="46.23829969698988" lon="12.017572419200071"><ele>977.0</ele><time>2026-05-02T14:50:29.001Z</time></trkpt><trkpt lat="46.23844948810683" lon="12.017556545466716"><ele>973.0</ele><time>2026-05-02T14:50:30.001Z</time></trkpt><trkpt lat="46.23860475261517" lon="12.017523430073643"><ele>969.0</ele><time>2026-05-02T14:50:31.001Z</time></trkpt><trkpt lat="46.23876517183052" lon="12.017505533166823"><ele>969.0</ele><time>2026-05-02T14:50:32.001Z</time></trkpt><trkpt lat="46.238921404231945" lon="12.01750188141671"><ele>969.0</ele><time>2026-05-02T14:50:33.001Z</time></trkpt><trkpt lat="46.23907788616981" lon="12.017511999676389"><ele>969.0</ele><time>2026-05-02T14:50:34.001Z</time></trkpt><trkpt lat="46.23923694340474" lon="12.017541139272518"><ele>971.6666666666667</ele><time>2026-05-02T14:50:35.001Z</time></trkpt><trkpt lat="46.2393856389987" lon="12.017591907724059"><ele>974.3333333333334</ele><time>2026-05-02T14:50:36.001Z</time></trkpt><trkpt lat="46.2395257117431" lon="12.017696778471688"><ele>977.0</ele><time>2026-05-02T14:50:37.001Z</time></trkpt><trkpt lat="46.23967066059217" lon="12.01779148300953"><ele>981.0</ele><time>2026-05-02T14:50:38.001Z</time></trkpt><trkpt lat="46.23981895736131" lon="12.017889795710806"><ele>985.0</ele><time>2026-05-02T14:50:39.001Z</time></trkpt><trkpt lat="46.23996415812822" lon="12.017954814881325"><ele>989.0</ele><time>2026-05-02T14:50:40.001Z</time></trkpt><trkpt lat="46.2400908624256" lon="12.018053484763515"><ele>989.0</ele><time>2026-05-02T14:50:41.001Z</time></trkpt><trkpt lat="46.240220345324715" lon="12.018107180606025"><ele>989.0</ele><time>2026-05-02T14:50:42.001Z</time></trkpt><trkpt lat="46.24033766868358" lon="12.018194619443804"><ele>989.0</ele><time>2026-05-02T14:50:43.001Z</time></trkpt><trkpt lat="46.24043632337354" lon="12.018318138502535"><ele>989.0</ele><time>2026-05-02T14:50:44.001Z</time></trkpt><trkpt lat="46.24053573720285" lon="12.018448520628898"><ele>987.5</ele><time>2026-05-02T14:50:45.001Z</time></trkpt><trkpt lat="46.2406084931538" lon="12.018619583644517"><ele>986.0</ele><time>2026-05-02T14:50:46.001Z</time></trkpt><trkpt lat="46.240672764096836" lon="12.018785571686415"><ele>984.5</ele><time>2026-05-02T14:50:47.001Z</time></trkpt><trkpt lat="46.2407734764316" lon="12.018913636385179"><ele>983.0</ele><time>2026-05-02T14:50:48.001Z</time></trkpt><trkpt lat="46.24090960907951" lon="12.018986154868937"><ele>983.0</ele><time>2026-05-02T14:50:49.001Z</time></trkpt><trkpt lat="46.241068566704044" lon="12.019009832988347"><ele>983.0</ele><time>2026-05-02T14:50:50.001Z</time></trkpt><trkpt lat="46.24122803241111" lon="12.019010804178421"><ele>983.0</ele><time>2026-05-02T14:50:51.001Z</time></trkpt><trkpt lat="46.24138054668248" lon="12.019038026538441"><ele>980.75</ele><time>2026-05-02T14:50:52.001Z</time></trkpt><trkpt lat="46.24152041276402" lon="12.019067189458328"><ele>978.5</ele><time>2026-05-02T14:50:53.001Z</time></trkpt><trkpt lat="46.241648826026406" lon="12.019092275189678"><ele>976.25</ele><time>2026-05-02T14:50:54.001Z</time></trkpt><trkpt lat="46.24177338016913" lon="12.019123657488388"><ele>974.0</ele><time>2026-05-02T14:50:55.001Z</time></trkpt><trkpt lat="46.24189461019713" lon="12.019154243447021"><ele>974.0</ele><time>2026-05-02T14:50:56.001Z</time></trkpt><trkpt lat="46.24201426130197" lon="12.01919541065328"><ele>974.0</ele><time>2026-05-02T14:50:57.001Z</time></trkpt><trkpt lat="46.24212955380821" lon="12.019247166406773"><ele>974.0</ele><time>2026-05-02T14:50:58.001Z</time></trkpt><trkpt lat="46.24224587510486" lon="12.019309601457627"><ele>974.0</ele><time>2026-05-02T14:50:59.001Z</time></trkpt><trkpt lat="46.24235838878192" lon="12.019371870895096"><ele>974.75</ele><time>2026-05-02T14:51:00.001Z</time></trkpt><trkpt lat="46.24247097562333" lon="12.019432233792038"><ele>975.5</ele><time>2026-05-02T14:51:01.001Z</time></trkpt><trkpt lat="46.24258767677676" lon="12.019478572802958"><ele>976.25</ele><time>2026-05-02T14:51:02.001Z</time></trkpt><trkpt lat="46.242716244559006" lon="12.01948831049363"><ele>977.0</ele><time>2026-05-02T14:51:03.001Z</time></trkpt><trkpt lat="46.242848398206974" lon="12.01949376483001"><ele>977.0</ele><time>2026-05-02T14:51:04.001Z</time></trkpt><trkpt lat="46.24298068401354" lon="12.019515619973914"><ele>977.0</ele><time>2026-05-02T14:51:05.001Z</time></trkpt><trkpt lat="46.243108109255935" lon="12.019565372375151"><ele>977.0</ele><time>2026-05-02T14:51:06.001Z</time></trkpt><trkpt lat="46.24323561610846" lon="12.019640321589861"><ele>977.0</ele><time>2026-05-02T14:51:07.001Z</time></trkpt><trkpt lat="46.24336587931622" lon="12.019715701985904"><ele>979.0</ele><time>2026-05-02T14:51:08.001Z</time></trkpt><trkpt lat="46.24349262688906" lon="12.019789535957576"><ele>981.0</ele><time>2026-05-02T14:51:09.001Z</time></trkpt><trkpt lat="46.24362005193496" lon="12.01986842799437"><ele>983.0</ele><time>2026-05-02T14:51:10.001Z</time></trkpt><trkpt lat="46.243755167229395" lon="12.019941540327169"><ele>985.0</ele><time>2026-05-02T14:51:11.001Z</time></trkpt><trkpt lat="46.24389120095867" lon="12.020002596035994"><ele>982.25</ele><time>2026-05-02T14:51:12.001Z</time></trkpt><trkpt lat="46.24402747121122" lon="12.02005489351359"><ele>979.5</ele><time>2026-05-02T14:51:13.001Z</time></trkpt><trkpt lat="46.244149858750106" lon="12.020105056408749"><ele>976.75</ele><time>2026-05-02T14:51:14.001Z</time></trkpt><trkpt lat="46.24427565371749" lon="12.020132470708631"><ele>974.0</ele><time>2026-05-02T14:51:15.001Z</time></trkpt><trkpt lat="46.24439364793223" lon="12.020125302326937"><ele>974.0</ele><time>2026-05-02T14:51:16.001Z</time></trkpt><trkpt lat="46.24450961321794" lon="12.020064117121972"><ele>974.0</ele><time>2026-05-02T14:51:17.001Z</time></trkpt><trkpt lat="46.24462854069045" lon="12.019972033069333"><ele>974.0</ele><time>2026-05-02T14:51:18.001Z</time></trkpt><trkpt lat="46.24473957481122" lon="12.019905749068739"><ele>974.0</ele><time>2026-05-02T14:51:19.001Z</time></trkpt><trkpt lat="46.24485456701768" lon="12.01991055183791"><ele>975.5</ele><time>2026-05-02T14:51:20.001Z</time></trkpt><trkpt lat="46.24497256636177" lon="12.019969427494475"><ele>977.0</ele><time>2026-05-02T14:51:21.001Z</time></trkpt><trkpt lat="46.24505994755214" lon="12.020106546152842"><ele>978.5</ele><time>2026-05-02T14:51:22Z</time></trkpt><trkpt lat="46.24513459358509" lon="12.020250693968357"><ele>980.0</ele><time>2026-05-02T14:51:23Z</time></trkpt><trkpt lat="46.245219970178226" lon="12.020389726033544"><ele>980.0</ele><time>2026-05-02T14:51:24Z</time></trkpt><trkpt lat="46.245304288898446" lon="12.020523319750644"><ele>980.0</ele><time>2026-05-02T14:51:25Z</time></trkpt><trkpt lat="46.24542344666326" lon="12.020605290547914"><ele>980.0</ele><time>2026-05-02T14:51:26Z</time></trkpt><trkpt lat="46.245561890768194" lon="12.020681461031467"><ele>980.0</ele><time>2026-05-02T14:51:27Z</time></trkpt><trkpt lat="46.245699340557394" lon="12.020774329776817"><ele>978.0</ele><time>2026-05-02T14:51:28Z</time></trkpt><trkpt lat="46.24583570030314" lon="12.020881446760884"><ele>976.0</ele><time>2026-05-02T14:51:29Z</time></trkpt><trkpt lat="46.245982888474586" lon="12.020977161934628"><ele>974.0</ele><time>2026-05-02T14:51:30Z</time></trkpt><trkpt lat="46.2461338485214" lon="12.021076635157913"><ele>974.0</ele><time>2026-05-02T14:51:31Z</time></trkpt><trkpt lat="46.246283880339135" lon="12.02117993808358"><ele>974.0</ele><time>2026-05-02T14:51:32Z</time></trkpt><trkpt lat="46.24643561774868" lon="12.021290060075703"><ele>974.0</ele><time>2026-05-02T14:51:33Z</time></trkpt><trkpt lat="46.246592927442194" lon="12.02140033556966"><ele>978.0</ele><time>2026-05-02T14:51:34Z</time></trkpt><trkpt lat="46.2467544820752" lon="12.021483256309475"><ele>982.0</ele><time>2026-05-02T14:51:35Z</time></trkpt><trkpt lat="46.24691913123423" lon="12.021553315915261"><ele>986.0</ele><time>2026-05-02T14:51:36Z</time></trkpt><trkpt lat="46.24708867052673" lon="12.021605600434661"><ele>986.0</ele><time>2026-05-02T14:51:37Z</time></trkpt><trkpt lat="46.24726338827504" lon="12.021648347810542"><ele>986.0</ele><time>2026-05-02T14:51:38Z</time></trkpt><trkpt lat="46.24743621776225" lon="12.021681728610181"><ele>986.0</ele><time>2026-05-02T14:51:39Z</time></trkpt><trkpt lat="46.24760833009839" lon="12.021704539733697"><ele>981.0</ele><time>2026-05-02T14:51:40Z</time></trkpt><trkpt lat="46.24778148388926" lon="12.021728462179086"><ele>976.0</ele><time>2026-05-02T14:51:41Z</time></trkpt><trkpt lat="46.247951431236174" lon="12.021753768535365"><ele>971.0</ele><time>2026-05-02T14:51:42Z</time></trkpt><trkpt lat="46.248120141993304" lon="12.021779903482471"><ele>974.0</ele><time>2026-05-02T14:51:43Z</time></trkpt><trkpt lat="46.24828021961163" lon="12.021805861424724"><ele>977.0</ele><time>2026-05-02T14:51:44Z</time></trkpt><trkpt lat="46.2484303246018" lon="12.021830460434048"><ele>980.0</ele><time>2026-05-02T14:51:45Z</time></trkpt><trkpt lat="46.24857210316335" lon="12.021858861738224"><ele>980.0</ele><time>2026-05-02T14:51:46Z</time></trkpt><trkpt lat="46.24869390890344" lon="12.021933675483789"><ele>980.0</ele><time>2026-05-02T14:51:47Z</time></trkpt><trkpt lat="46.24879300747029" lon="12.022048534173242"><ele>980.0</ele><time>2026-05-02T14:51:48Z</time></trkpt><trkpt lat="46.248876488185694" lon="12.022209420423486"><ele>980.0</ele><time>2026-05-02T14:51:49Z</time></trkpt><trkpt lat="46.24898372184183" lon="12.022358304171311"><ele>977.0</ele><time>2026-05-02T14:51:50Z</time></trkpt><trkpt lat="46.2490665086413" lon="12.022505437111366"><ele>974.0</ele><time>2026-05-02T14:51:51Z</time></trkpt><trkpt lat="46.249156370590676" lon="12.022637712654191"><ele>971.0</ele><time>2026-05-02T14:51:52Z</time></trkpt><trkpt lat="46.249264712550996" lon="12.022707478806444"><ele>968.0</ele><time>2026-05-02T14:51:53Z</time></trkpt><trkpt lat="46.24937707409994" lon="12.022709810305809"><ele>968.0</ele><time>2026-05-02T14:51:54Z</time></trkpt><trkpt lat="46.249494218703795" lon="12.022687427115642"><ele>968.0</ele><time>2026-05-02T14:51:55Z</time></trkpt><trkpt lat="46.24960675120938" lon="12.02262885181355"><ele>968.0</ele><time>2026-05-02T14:51:56Z</time></trkpt><trkpt lat="46.24972927354135" lon="12.02260209551698"><ele>968.0</ele><time>2026-05-02T14:51:57Z</time></trkpt><trkpt lat="46.249853546701296" lon="12.022609434786366"><ele>969.0</ele><time>2026-05-02T14:51:58Z</time></trkpt><trkpt lat="46.24996883708428" lon="12.02266261682526"><ele>970.0</ele><time>2026-05-02T14:51:59Z</time></trkpt><trkpt lat="46.250077145903965" lon="12.022770993260764"><ele>971.0</ele><time>2026-05-02T14:52:00Z</time></trkpt><trkpt lat="46.25014178149246" lon="12.022932904990702"><ele>972.0</ele><time>2026-05-02T14:52:01Z</time></trkpt><trkpt lat="46.25020899608508" lon="12.023075176066346"><ele>972.0</ele><time>2026-05-02T14:52:02Z</time></trkpt><trkpt lat="46.250274515338205" lon="12.023195932842977"><ele>972.0</ele><time>2026-05-02T14:52:03Z</time></trkpt><trkpt lat="46.25038307197224" lon="12.023277749829079"><ele>972.0</ele><time>2026-05-02T14:52:04Z</time></trkpt><trkpt lat="46.25050772241558" lon="12.023313554693685"><ele>972.0</ele><time>2026-05-02T14:52:05Z</time></trkpt><trkpt lat="46.2506389836955" lon="12.023298276656782"><ele>973.0</ele><time>2026-05-02T14:52:06Z</time></trkpt><trkpt lat="46.25077051199336" lon="12.023264697808232"><ele>974.0</ele><time>2026-05-02T14:52:07Z</time></trkpt><trkpt lat="46.250897531190375" lon="12.023233584839636"><ele>975.0</ele><time>2026-05-02T14:52:08Z</time></trkpt><trkpt lat="46.25102247372622" lon="12.023220235494495"><ele>976.0</ele><time>2026-05-02T14:52:09Z</time></trkpt><trkpt lat="46.25114636799377" lon="12.023193352620893"><ele>976.0</ele><time>2026-05-02T14:52:10Z</time></trkpt><trkpt lat="46.25127400515373" lon="12.023174360783464"><ele>976.0</ele><time>2026-05-02T14:52:11Z</time></trkpt><trkpt lat="46.25140533304693" lon="12.023143216332338"><ele>976.0</ele><time>2026-05-02T14:52:12Z</time></trkpt><trkpt lat="46.251529615029376" lon="12.02311839859909"><ele>976.0</ele><time>2026-05-02T14:52:13Z</time></trkpt><trkpt lat="46.2516497996092" lon="12.023120166226136"><ele>975.25</ele><time>2026-05-02T14:52:14Z</time></trkpt><trkpt lat="46.25175936992491" lon="12.023170083882691"><ele>974.5</ele><time>2026-05-02T14:52:15Z</time></trkpt><trkpt lat="46.25186086358707" lon="12.023254845541137"><ele>973.75</ele><time>2026-05-02T14:52:16Z</time></trkpt><trkpt lat="46.25193846193118" lon="12.023394846663141"><ele>973.0</ele><time>2026-05-02T14:52:17Z</time></trkpt><trkpt lat="46.25202800599149" lon="12.023533664183669"><ele>973.0</ele><time>2026-05-02T14:52:18Z</time></trkpt><trkpt lat="46.25212947160218" lon="12.023665376821873"><ele>973.0</ele><time>2026-05-02T14:52:19Z</time></trkpt><trkpt lat="46.25221184181551" lon="12.023821690926384"><ele>973.0</ele><time>2026-05-02T14:52:20Z</time></trkpt><trkpt lat="46.25230404083935" lon="12.02396665011675"><ele>973.0</ele><time>2026-05-02T14:52:21Z</time></trkpt><trkpt lat="46.25239504606345" lon="12.02411149403222"><ele>971.0</ele><time>2026-05-02T14:52:22Z</time></trkpt><trkpt lat="46.252480996387845" lon="12.024248634590577"><ele>969.0</ele><time>2026-05-02T14:52:23Z</time></trkpt><trkpt lat="46.25257065600805" lon="12.024356942072918"><ele>967.0</ele><time>2026-05-02T14:52:24Z</time></trkpt><trkpt lat="46.25264574750083" lon="12.024472208377093"><ele>965.0</ele><time>2026-05-02T14:52:25.001Z</time></trkpt><trkpt lat="46.25272647648153" lon="12.024582060650559"><ele>965.0</ele><time>2026-05-02T14:52:26.001Z</time></trkpt><trkpt lat="46.2528107748666" lon="12.02468672335509"><ele>965.0</ele><time>2026-05-02T14:52:27.001Z</time></trkpt><trkpt lat="46.25290489460108" lon="12.024799281781593"><ele>965.0</ele><time>2026-05-02T14:52:28.001Z</time></trkpt><trkpt lat="46.25300215015122" lon="12.024906715268253"><ele>965.0</ele><time>2026-05-02T14:52:29.001Z</time></trkpt><trkpt lat="46.25309348065935" lon="12.025003037239463"><ele>964.1666666666667</ele><time>2026-05-02T14:52:30.001Z</time></trkpt><trkpt lat="46.253163189131776" lon="12.025064244641145"><ele>963.3333333333334</ele><time>2026-05-02T14:52:31.001Z</time></trkpt><trkpt lat="46.25323403981374" lon="12.025139776571939"><ele>962.5</ele><time>2026-05-02T14:52:33.001Z</time></trkpt><trkpt lat="46.253289153374176" lon="12.025187585718635"><ele>961.6666666666667</ele><time>2026-05-02T14:52:35.001Z</time></trkpt><trkpt lat="46.25334909715608" lon="12.025253314726328"><ele>960.8333333333334</ele><time>2026-05-02T14:52:38.001Z</time></trkpt><trkpt lat="46.253392911898096" lon="12.025320019524024"><ele>960.0</ele><time>2026-05-02T14:53:05.001Z</time></trkpt><trkpt lat="46.253492541538066" lon="12.02542068608058"><ele>960.0</ele><time>2026-05-02T14:53:07.001Z</time></trkpt><trkpt lat="46.25356707542457" lon="12.025499058149911"><ele>960.0</ele><time>2026-05-02T14:53:08.001Z</time></trkpt><trkpt lat="46.25364678820793" lon="12.025582724810752"><ele>960.0</ele><time>2026-05-02T14:53:09.001Z</time></trkpt><trkpt lat="46.25374407322339" lon="12.025674161299342"><ele>960.0</ele><time>2026-05-02T14:53:10.001Z</time></trkpt><trkpt lat="46.25385443919848" lon="12.025759297956197"><ele>960.0</ele><time>2026-05-02T14:53:11.001Z</time></trkpt><trkpt lat="46.253980580401645" lon="12.025845483502858"><ele>956.6666666666667</ele><time>2026-05-02T14:53:12.001Z</time></trkpt><trkpt lat="46.25411725791935" lon="12.025935659312786"><ele>953.3333333333334</ele><time>2026-05-02T14:53:13.001Z</time></trkpt><trkpt lat="46.25426149660577" lon="12.026005928320165"><ele>950.0</ele><time>2026-05-02T14:53:14.001Z</time></trkpt><trkpt lat="46.25439935760527" lon="12.026106731977944"><ele>950.0</ele><time>2026-05-02T14:53:15.001Z</time></trkpt><trkpt lat="46.254545465627814" lon="12.026200055305797"><ele>950.0</ele><time>2026-05-02T14:53:16.001Z</time></trkpt><trkpt lat="46.25469857689582" lon="12.02629599967854"><ele>950.0</ele><time>2026-05-02T14:53:17.001Z</time></trkpt><trkpt lat="46.25485762769088" lon="12.026391349185275"><ele>949.6666666666667</ele><time>2026-05-02T14:53:18.001Z</time></trkpt><trkpt lat="46.255011601533425" lon="12.026476159692459"><ele>949.3333333333333</ele><time>2026-05-02T14:53:19.001Z</time></trkpt><trkpt lat="46.25515932906565" lon="12.026556571694696"><ele>949.0</ele><time>2026-05-02T14:53:20.001Z</time></trkpt><trkpt lat="46.2552983373394" lon="12.026638966931051"><ele>946.6666666666666</ele><time>2026-05-02T14:53:21.001Z</time></trkpt><trkpt lat="46.25543949706691" lon="12.026715912779213"><ele>944.3333333333333</ele><time>2026-05-02T14:53:22.001Z</time></trkpt><trkpt lat="46.25559149314621" lon="12.026797037781662"><ele>942.0</ele><time>2026-05-02T14:53:23.001Z</time></trkpt><trkpt lat="46.255754395265946" lon="12.026872833286891"><ele>942.0</ele><time>2026-05-02T14:53:24.001Z</time></trkpt><trkpt lat="46.25592380962308" lon="12.026935944914158"><ele>942.0</ele><time>2026-05-02T14:53:25.001Z</time></trkpt><trkpt lat="46.25609862080566" lon="12.027003757463595"><ele>942.0</ele><time>2026-05-02T14:53:26.001Z</time></trkpt><trkpt lat="46.256269074163754" lon="12.027069498630084"><ele>942.0</ele><time>2026-05-02T14:53:27.001Z</time></trkpt><trkpt lat="46.256432088839325" lon="12.02713785650579"><ele>942.0</ele><time>2026-05-02T14:53:28Z</time></trkpt><trkpt lat="46.256576253725356" lon="12.027224580593948"><ele>942.0</ele><time>2026-05-02T14:53:29Z</time></trkpt><trkpt lat="46.25669152133186" lon="12.027395849551862"><ele>937.6666666666667</ele><time>2026-05-02T14:53:30Z</time></trkpt><trkpt lat="46.25681044818214" lon="12.027580214516728"><ele>933.3333333333334</ele><time>2026-05-02T14:53:31Z</time></trkpt><trkpt lat="46.25692541464554" lon="12.027788265078428"><ele>929.0</ele><time>2026-05-02T14:53:32Z</time></trkpt><trkpt lat="46.25705233217292" lon="12.028010009859178"><ele>929.0</ele><time>2026-05-02T14:53:33Z</time></trkpt><trkpt lat="46.25718259636453" lon="12.028221645584603"><ele>929.0</ele><time>2026-05-02T14:53:34Z</time></trkpt><trkpt lat="46.25730277077944" lon="12.028422738049207"><ele>929.0</ele><time>2026-05-02T14:53:35Z</time></trkpt><trkpt lat="46.25742492617704" lon="12.028633097467882"><ele>929.6666666666667</ele><time>2026-05-02T14:53:36Z</time></trkpt><trkpt lat="46.25754355239428" lon="12.028835637613428"><ele>930.3333333333333</ele><time>2026-05-02T14:53:37Z</time></trkpt><trkpt lat="46.25765688622881" lon="12.029034819359127"><ele>931.0</ele><time>2026-05-02T14:53:38Z</time></trkpt><trkpt lat="46.25775775801699" lon="12.029231042233508"><ele>929.75</ele><time>2026-05-02T14:53:39Z</time></trkpt><trkpt lat="46.257839566548675" lon="12.02943400904495"><ele>928.5</ele><time>2026-05-02T14:53:40Z</time></trkpt><trkpt lat="46.25790663818446" lon="12.029614572814877"><ele>927.25</ele><time>2026-05-02T14:53:41Z</time></trkpt><trkpt lat="46.25799222166009" lon="12.029767855880111"><ele>926.0</ele><time>2026-05-02T14:53:42Z</time></trkpt><trkpt lat="46.258126697825965" lon="12.029869762078842"><ele>926.0</ele><time>2026-05-02T14:53:43Z</time></trkpt><trkpt lat="46.2582925778977" lon="12.029922201864542"><ele>926.0</ele><time>2026-05-02T14:53:44Z</time></trkpt><trkpt lat="46.258466994326795" lon="12.029913736557383"><ele>926.0</ele><time>2026-05-02T14:53:45Z</time></trkpt><trkpt lat="46.25864049951824" lon="12.029903547366795"><ele>926.0</ele><time>2026-05-02T14:53:46Z</time></trkpt><trkpt lat="46.258812841809835" lon="12.029858407544491"><ele>926.0</ele><time>2026-05-02T14:53:47Z</time></trkpt><trkpt lat="46.258986896612605" lon="12.029758291244338"><ele>926.0</ele><time>2026-05-02T14:53:48Z</time></trkpt><trkpt lat="46.25915568284601" lon="12.02963718643934"><ele>923.6666666666667</ele><time>2026-05-02T14:53:49Z</time></trkpt><trkpt lat="46.25931885690406" lon="12.029521786530278"><ele>921.3333333333333</ele><time>2026-05-02T14:53:50Z</time></trkpt><trkpt lat="46.259482145489294" lon="12.029398854395506"><ele>919.0</ele><time>2026-05-02T14:53:51Z</time></trkpt><trkpt lat="46.25963964946233" lon="12.02928572305066"><ele>918.0</ele><time>2026-05-02T14:53:52Z</time></trkpt><trkpt lat="46.25979740104018" lon="12.029191605887764"><ele>917.0</ele><time>2026-05-02T14:53:53Z</time></trkpt><trkpt lat="46.25995733275955" lon="12.029119876930913"><ele>916.0</ele><time>2026-05-02T14:53:54Z</time></trkpt><trkpt lat="46.26011828766413" lon="12.029066259942551"><ele>916.0</ele><time>2026-05-02T14:53:55Z</time></trkpt><trkpt lat="46.2602819825279" lon="12.029015744681677"><ele>916.0</ele><time>2026-05-02T14:53:56Z</time></trkpt><trkpt lat="46.26044703939156" lon="12.028963370791658"><ele>916.0</ele><time>2026-05-02T14:53:57Z</time></trkpt><trkpt lat="46.26060239642382" lon="12.028901287387317"><ele>907.6666666666666</ele><time>2026-05-02T14:53:58Z</time></trkpt><trkpt lat="46.26074170334018" lon="12.028812276120897"><ele>899.3333333333333</ele><time>2026-05-02T14:53:59Z</time></trkpt><trkpt lat="46.260865843678545" lon="12.028680505386232"><ele>891.0</ele><time>2026-05-02T14:54:00Z</time></trkpt><trkpt lat="46.26096222881825" lon="12.028516586274149"><ele>891.0</ele><time>2026-05-02T14:54:01Z</time></trkpt><trkpt lat="46.261031103661566" lon="12.028354633747098"><ele>890.9999999999999</ele><time>2026-05-02T14:54:02Z</time></trkpt><trkpt lat="46.261084938796564" lon="12.028230118234449"><ele>890.9999999999999</ele><time>2026-05-02T14:54:03Z</time></trkpt><trkpt lat="46.261145333832275" lon="12.028180816864511"><ele>891.0</ele><time>2026-05-02T14:54:04Z</time></trkpt><trkpt lat="46.26122236340923" lon="12.028187568578602"><ele>891.0</ele><time>2026-05-02T14:54:05Z</time></trkpt><trkpt lat="46.26128414522374" lon="12.028264178850916"><ele>891.0</ele><time>2026-05-02T14:54:06Z</time></trkpt><trkpt lat="46.26129427049872" lon="12.028385018554328"><ele>890.9999999999999</ele><time>2026-05-02T14:54:07Z</time></trkpt><trkpt lat="46.26128177634152" lon="12.028535173538344"><ele>890.9999999999999</ele><time>2026-05-02T14:54:08Z</time></trkpt><trkpt lat="46.26127195468926" lon="12.028707755610057"><ele>891.0</ele><time>2026-05-02T14:54:09Z</time></trkpt><trkpt lat="46.261254534977944" lon="12.028898324875767"><ele>891.0</ele><time>2026-05-02T14:54:10Z</time></trkpt><trkpt lat="46.26124182886373" lon="12.029117698061707"><ele>888.6666666666667</ele><time>2026-05-02T14:54:11Z</time></trkpt><trkpt lat="46.261220349656064" lon="12.029341305800012"><ele>886.3333333333334</ele><time>2026-05-02T14:54:12Z</time></trkpt><trkpt lat="46.26118323133273" lon="12.029564519362138"><ele>884.0</ele><time>2026-05-02T14:54:13Z</time></trkpt><trkpt lat="46.261127938168976" lon="12.029783765909809"><ele>881.3333333333334</ele><time>2026-05-02T14:54:14Z</time></trkpt><trkpt lat="46.26105605244101" lon="12.03000697230163"><ele>878.6666666666667</ele><time>2026-05-02T14:54:15Z</time></trkpt><trkpt lat="46.260972310669764" lon="12.030195059783226"><ele>876.0</ele><time>2026-05-02T14:54:16Z</time></trkpt><trkpt lat="46.26088390295578" lon="12.03035004931237"><ele>876.0</ele><time>2026-05-02T14:54:17Z</time></trkpt><trkpt lat="46.26077055366695" lon="12.030462386120695"><ele>876.0</ele><time>2026-05-02T14:54:18Z</time></trkpt><trkpt lat="46.260635349931455" lon="12.030515656678126"><ele>876.0</ele><time>2026-05-02T14:54:19Z</time></trkpt><trkpt lat="46.26049380523838" lon="12.030535618644059"><ele>876.0</ele><time>2026-05-02T14:54:20Z</time></trkpt><trkpt lat="46.26034255013876" lon="12.030548195299653"><ele>878.6666666666667</ele><time>2026-05-02T14:54:21Z</time></trkpt><trkpt lat="46.260186394955824" lon="12.03058083175034"><ele>881.3333333333334</ele><time>2026-05-02T14:54:22Z</time></trkpt><trkpt lat="46.26003114126639" lon="12.030642799135347"><ele>884.0</ele><time>2026-05-02T14:54:23Z</time></trkpt><trkpt lat="46.25988735783777" lon="12.030756930451203"><ele>881.3333333333334</ele><time>2026-05-02T14:54:24Z</time></trkpt><trkpt lat="46.259755371200775" lon="12.030917052766695"><ele>878.6666666666667</ele><time>2026-05-02T14:54:25Z</time></trkpt><trkpt lat="46.25963605772615" lon="12.031097130365096"><ele>876.0</ele><time>2026-05-02T14:54:26Z</time></trkpt><trkpt lat="46.25952443492414" lon="12.031269411146324"><ele>876.0</ele><time>2026-05-02T14:54:27Z</time></trkpt><trkpt lat="46.25941749828192" lon="12.031421949392664"><ele>876.0</ele><time>2026-05-02T14:54:28Z</time></trkpt><trkpt lat="46.25932686087669" lon="12.031550333560775"><ele>876.0</ele><time>2026-05-02T14:54:29Z</time></trkpt><trkpt lat="46.25924051306566" lon="12.0316549717228"><ele>876.0</ele><time>2026-05-02T14:54:30Z</time></trkpt><trkpt lat="46.25913478851473" lon="12.031744473675515"><ele>870.75</ele><time>2026-05-02T14:54:31Z</time></trkpt><trkpt lat="46.25900765778676" lon="12.03179840598567"><ele>865.5</ele><time>2026-05-02T14:54:32Z</time></trkpt><trkpt lat="46.258868782000064" lon="12.03181565750787"><ele>860.25</ele><time>2026-05-02T14:54:33Z</time></trkpt><trkpt lat="46.25872039863439" lon="12.031819506753262"><ele>855.0</ele><time>2026-05-02T14:54:34Z</time></trkpt><trkpt lat="46.2585627663563" lon="12.031827545631996"><ele>855.0</ele><time>2026-05-02T14:54:35Z</time></trkpt><trkpt lat="46.258393806664834" lon="12.031845514623502"><ele>855.0</ele><time>2026-05-02T14:54:36Z</time></trkpt><trkpt lat="46.25822525027925" lon="12.031888120269159"><ele>855.0</ele><time>2026-05-02T14:54:37Z</time></trkpt><trkpt lat="46.258069945948826" lon="12.031944129280596"><ele>851.25</ele><time>2026-05-02T14:54:38Z</time></trkpt><trkpt lat="46.257923923842895" lon="12.0319951740628"><ele>847.5</ele><time>2026-05-02T14:54:39Z</time></trkpt><trkpt lat="46.25778417200376" lon="12.032030379840805"><ele>843.75</ele><time>2026-05-02T14:54:40Z</time></trkpt><trkpt lat="46.25764526351729" lon="12.032039157719792"><ele>840.0</ele><time>2026-05-02T14:54:41Z</time></trkpt><trkpt lat="46.25751193053593" lon="12.031972331802931"><ele>840.0</ele><time>2026-05-02T14:54:42.001Z</time></trkpt><trkpt lat="46.257401249603745" lon="12.031856984029806"><ele>840.0</ele><time>2026-05-02T14:54:43.001Z</time></trkpt><trkpt lat="46.257300537379585" lon="12.031714829770346"><ele>840.0</ele><time>2026-05-02T14:54:44.001Z</time></trkpt><trkpt lat="46.25719852222123" lon="12.031582871658452"><ele>840.0</ele><time>2026-05-02T14:54:45.001Z</time></trkpt><trkpt lat="46.25706741937344" lon="12.031491792214526"><ele>839.25</ele><time>2026-05-02T14:54:46.001Z</time></trkpt><trkpt lat="46.256921546561124" lon="12.03146225474748"><ele>838.5</ele><time>2026-05-02T14:54:47.001Z</time></trkpt><trkpt lat="46.25679380234815" lon="12.031439916367006"><ele>837.75</ele><time>2026-05-02T14:54:48.001Z</time></trkpt><trkpt lat="46.25668842048534" lon="12.031422729414638"><ele>837.0</ele><time>2026-05-02T14:54:49.001Z</time></trkpt><trkpt lat="46.256595716155694" lon="12.031434988913615"><ele>837.0</ele><time>2026-05-02T14:54:50.001Z</time></trkpt><trkpt lat="46.25652781341753" lon="12.031505714651981"><ele>837.0</ele><time>2026-05-02T14:54:51.001Z</time></trkpt><trkpt lat="46.256511516134694" lon="12.031624307015289"><ele>837.0</ele><time>2026-05-02T14:54:52.001Z</time></trkpt><trkpt lat="46.256541200259164" lon="12.031729412365392"><ele>837.0</ele><time>2026-05-02T14:54:53.001Z</time></trkpt><trkpt lat="46.25661621998124" lon="12.031834926223965"><ele>837.0</ele><time>2026-05-02T14:54:54.001Z</time></trkpt><trkpt lat="46.25671344858834" lon="12.031933239988058"><ele>833.5</ele><time>2026-05-02T14:54:55.001Z</time></trkpt><trkpt lat="46.25680926411223" lon="12.032028208200012"><ele>830.0</ele><time>2026-05-02T14:54:56.001Z</time></trkpt><trkpt lat="46.25690608616969" lon="12.032113514713204"><ele>826.5</ele><time>2026-05-02T14:54:57.001Z</time></trkpt><trkpt lat="46.25701842410381" lon="12.03220284194877"><ele>823.0</ele><time>2026-05-02T14:54:58.001Z</time></trkpt><trkpt lat="46.25713391138334" lon="12.032276499542505"><ele>823.0</ele><time>2026-05-02T14:54:59.001Z</time></trkpt><trkpt lat="46.257262130814595" lon="12.032334690654242"><ele>823.0</ele><time>2026-05-02T14:55:00.001Z</time></trkpt><trkpt lat="46.25739589104228" lon="12.032388130929025"><ele>823.0</ele><time>2026-05-02T14:55:01.001Z</time></trkpt><trkpt lat="46.25752952040749" lon="12.032466541909068"><ele>823.0</ele><time>2026-05-02T14:55:02.001Z</time></trkpt><trkpt lat="46.257675240292556" lon="12.032519703812177"><ele>823.0</ele><time>2026-05-02T14:55:03.001Z</time></trkpt><trkpt lat="46.25782991985138" lon="12.032555542683784"><ele>823.0</ele><time>2026-05-02T14:55:04.001Z</time></trkpt><trkpt lat="46.257984262716356" lon="12.032619209654513"><ele>823.0</ele><time>2026-05-02T14:55:05.001Z</time></trkpt><trkpt lat="46.258136606444175" lon="12.03268347503287"><ele>823.0</ele><time>2026-05-02T14:55:06.001Z</time></trkpt><trkpt lat="46.25829427268805" lon="12.032740262053343"><ele>823.0</ele><time>2026-05-02T14:55:07.001Z</time></trkpt><trkpt lat="46.258454902193044" lon="12.032774705928315"><ele>823.0</ele><time>2026-05-02T14:55:08.001Z</time></trkpt><trkpt lat="46.25861213141333" lon="12.03281678826844"><ele>823.0</ele><time>2026-05-02T14:55:09.001Z</time></trkpt><trkpt lat="46.25877282078945" lon="12.032806064222118"><ele>823.0</ele><time>2026-05-02T14:55:10.001Z</time></trkpt><trkpt lat="46.25894070432551" lon="12.032819789900554"><ele>823.0</ele><time>2026-05-02T14:55:11.001Z</time></trkpt><trkpt lat="46.259113758223414" lon="12.032833311522475"><ele>824.3333333333333</ele><time>2026-05-02T14:55:12.001Z</time></trkpt><trkpt lat="46.25928120697091" lon="12.03284837149319"><ele>825.6666666666667</ele><time>2026-05-02T14:55:13.001Z</time></trkpt><trkpt lat="46.25944356367652" lon="12.032865184180897"><ele>827.0</ele><time>2026-05-02T14:55:14.001Z</time></trkpt><trkpt lat="46.25959739203961" lon="12.032828265487675"><ele>827.0</ele><time>2026-05-02T14:55:15.001Z</time></trkpt><trkpt lat="46.259736620077064" lon="12.032728301213828"><ele>827.0</ele><time>2026-05-02T14:55:16.001Z</time></trkpt><trkpt lat="46.25984856773139" lon="12.032611256256619"><ele>827.0</ele><time>2026-05-02T14:55:17.001Z</time></trkpt><trkpt lat="46.259929042599076" lon="12.03248279843812"><ele>827.0</ele><time>2026-05-02T14:55:18.001Z</time></trkpt><trkpt lat="46.259974454130436" lon="12.03235943444086"><ele>829.3333333333334</ele><time>2026-05-02T14:55:19.001Z</time></trkpt><trkpt lat="46.26001239425829" lon="12.032276840751393"><ele>831.6666666666667</ele><time>2026-05-02T14:55:20.001Z</time></trkpt><trkpt lat="46.26012091487645" lon="12.03231733321268"><ele>834.0</ele><time>2026-05-02T14:55:22.001Z</time></trkpt><trkpt lat="46.26012676500274" lon="12.032415957917175"><ele>836.3333333333333</ele><time>2026-05-02T14:55:23.001Z</time></trkpt><trkpt lat="46.26008689305181" lon="12.03252032514781"><ele>838.6666666666666</ele><time>2026-05-02T14:55:24.001Z</time></trkpt><trkpt lat="46.25999152240312" lon="12.032615942109697"><ele>841.0</ele><time>2026-05-02T14:55:25.001Z</time></trkpt><trkpt lat="46.2598975508772" lon="12.032720088969747"><ele>837.5</ele><time>2026-05-02T14:55:26.001Z</time></trkpt><trkpt lat="46.25979850690156" lon="12.032842158143986"><ele>834.0</ele><time>2026-05-02T14:55:27.001Z</time></trkpt><trkpt lat="46.25968119849731" lon="12.032975818911764"><ele>830.5</ele><time>2026-05-02T14:55:28.001Z</time></trkpt><trkpt lat="46.25955137292992" lon="12.033112751700411"><ele>827.0</ele><time>2026-05-02T14:55:29.001Z</time></trkpt><trkpt lat="46.25941745283143" lon="12.033238874381132"><ele>818.75</ele><time>2026-05-02T14:55:30.001Z</time></trkpt><trkpt lat="46.25929183370122" lon="12.033357953242726"><ele>810.5</ele><time>2026-05-02T14:55:31.001Z</time></trkpt><trkpt lat="46.25917088304935" lon="12.033476967689136"><ele>802.25</ele><time>2026-05-02T14:55:32.001Z</time></trkpt><trkpt lat="46.259041960825634" lon="12.033563874985553"><ele>794.0</ele><time>2026-05-02T14:55:33.001Z</time></trkpt><trkpt lat="46.258908087309244" lon="12.03361212527812"><ele>793.5</ele><time>2026-05-02T14:55:34Z</time></trkpt><trkpt lat="46.25876681434927" lon="12.033597355971127"><ele>793.0</ele><time>2026-05-02T14:55:35Z</time></trkpt><trkpt lat="46.258621524729655" lon="12.033542282091675"><ele>792.5</ele><time>2026-05-02T14:55:36Z</time></trkpt><trkpt lat="46.25847403310512" lon="12.033466438464549"><ele>792.0</ele><time>2026-05-02T14:55:37Z</time></trkpt><trkpt lat="46.25832128560332" lon="12.033391406276255"><ele>792.0</ele><time>2026-05-02T14:55:38Z</time></trkpt><trkpt lat="46.25816768860338" lon="12.033325456863759"><ele>792.0</ele><time>2026-05-02T14:55:39Z</time></trkpt><trkpt lat="46.258015758994915" lon="12.033272837527575"><ele>792.0</ele><time>2026-05-02T14:55:40Z</time></trkpt><trkpt lat="46.25786394333218" lon="12.033239288560088"><ele>801.3333333333333</ele><time>2026-05-02T14:55:41Z</time></trkpt><trkpt lat="46.25770971878671" lon="12.033221832709696"><ele>810.6666666666666</ele><time>2026-05-02T14:55:42Z</time></trkpt><trkpt lat="46.2575496612145" lon="12.033233527665876"><ele>820.0</ele><time>2026-05-02T14:55:43Z</time></trkpt><trkpt lat="46.2573804919477" lon="12.033275325214273"><ele>810.3333333333333</ele><time>2026-05-02T14:55:44Z</time></trkpt><trkpt lat="46.257222113894294" lon="12.033335192819708"><ele>800.6666666666667</ele><time>2026-05-02T14:55:45Z</time></trkpt><trkpt lat="46.25707436076747" lon="12.033397448476546"><ele>791.0</ele><time>2026-05-02T14:55:46Z</time></trkpt><trkpt lat="46.25692961388292" lon="12.033453340937333"><ele>791.0</ele><time>2026-05-02T14:55:47Z</time></trkpt><trkpt lat="46.25678774721504" lon="12.033504435423685"><ele>791.0</ele><time>2026-05-02T14:55:48Z</time></trkpt><trkpt lat="46.256653397928545" lon="12.033549322712213"><ele>791.0</ele><time>2026-05-02T14:55:49Z</time></trkpt><trkpt lat="46.25653712438078" lon="12.033581364857406"><ele>791.0</ele><time>2026-05-02T14:55:50Z</time></trkpt><trkpt lat="46.256434512680705" lon="12.03361077414181"><ele>791.0</ele><time>2026-05-02T14:55:51Z</time></trkpt><trkpt lat="46.256361253548015" lon="12.033662986281833"><ele>791.0</ele><time>2026-05-02T14:55:52Z</time></trkpt><trkpt lat="46.25632157331849" lon="12.03377247818858"><ele>791.0</ele><time>2026-05-02T14:55:53Z</time></trkpt><trkpt lat="46.256345667254806" lon="12.033894505087828"><ele>791.0</ele><time>2026-05-02T14:55:54Z</time></trkpt><trkpt lat="46.25641959002766" lon="12.033989038266169"><ele>791.0</ele><time>2026-05-02T14:55:55Z</time></trkpt><trkpt lat="46.25651573591983" lon="12.034044138746202"><ele>791.0</ele><time>2026-05-02T14:55:56Z</time></trkpt><trkpt lat="46.25664075020152" lon="12.033960331884826"><ele>791.0</ele><time>2026-05-02T14:55:57Z</time></trkpt><trkpt lat="46.25676731554453" lon="12.033900485166063"><ele>791.0</ele><time>2026-05-02T14:55:58Z</time></trkpt><trkpt lat="46.25690345900173" lon="12.033853285843279"><ele>791.0</ele><time>2026-05-02T14:55:59Z</time></trkpt><trkpt lat="46.25705734760088" lon="12.033814613453563"><ele>791.0</ele><time>2026-05-02T14:56:00Z</time></trkpt><trkpt lat="46.2572250800182" lon="12.033828342457772"><ele>791.0</ele><time>2026-05-02T14:56:01Z</time></trkpt><trkpt lat="46.257396069767566" lon="12.033820004441532"><ele>791.0</ele><time>2026-05-02T14:56:02Z</time></trkpt><trkpt lat="46.2575606879328" lon="12.033834176794471"><ele>790.3333333333334</ele><time>2026-05-02T14:56:03Z</time></trkpt><trkpt lat="46.25771262160969" lon="12.033878696730008"><ele>789.6666666666667</ele><time>2026-05-02T14:56:04Z</time></trkpt><trkpt lat="46.257861966233726" lon="12.033933829836748"><ele>789.0</ele><time>2026-05-02T14:56:05Z</time></trkpt><trkpt lat="46.258002404536626" lon="12.034039343576243"><ele>782.3333333333333</ele><time>2026-05-02T14:56:06Z</time></trkpt><trkpt lat="46.2581369993032" lon="12.034170952629625"><ele>775.6666666666666</ele><time>2026-05-02T14:56:07Z</time></trkpt><trkpt lat="46.25825359872582" lon="12.034341331493781"><ele>769.0</ele><time>2026-05-02T14:56:08Z</time></trkpt><trkpt lat="46.25838272435517" lon="12.03449451470792"><ele>769.0</ele><time>2026-05-02T14:56:09Z</time></trkpt><trkpt lat="46.258535637534926" lon="12.034615730593375"><ele>769.0</ele><time>2026-05-02T14:56:10Z</time></trkpt><trkpt lat="46.2586972374562" lon="12.034721210740205"><ele>769.0</ele><time>2026-05-02T14:56:11Z</time></trkpt><trkpt lat="46.25885871322152" lon="12.034796455555153"><ele>771.3333333333333</ele><time>2026-05-02T14:56:12Z</time></trkpt><trkpt lat="46.25901947233845" lon="12.034827511649855"><ele>773.6666666666667</ele><time>2026-05-02T14:56:13Z</time></trkpt><trkpt lat="46.25917900914868" lon="12.034824378018143"><ele>776.0</ele><time>2026-05-02T14:56:14Z</time></trkpt><trkpt lat="46.25933114289513" lon="12.034779628212778"><ele>776.0</ele><time>2026-05-02T14:56:15Z</time></trkpt><trkpt lat="46.25948491951663" lon="12.034686553986068"><ele>776.0</ele><time>2026-05-02T14:56:16Z</time></trkpt><trkpt lat="46.25963866728351" lon="12.034548535276357"><ele>776.0</ele><time>2026-05-02T14:56:17Z</time></trkpt><trkpt lat="46.25978655979267" lon="12.034399854640455"><ele>777.3333333333334</ele><time>2026-05-02T14:56:18Z</time></trkpt><trkpt lat="46.25992994644409" lon="12.034261153350046"><ele>778.6666666666667</ele><time>2026-05-02T14:56:19Z</time></trkpt><trkpt lat="46.26006591137107" lon="12.034115707604748"><ele>780.0</ele><time>2026-05-02T14:56:20Z</time></trkpt><trkpt lat="46.26020146582662" lon="12.033953541714553"><ele>780.0</ele><time>2026-05-02T14:56:21Z</time></trkpt><trkpt lat="46.260327863923585" lon="12.033793725762603"><ele>780.0</ele><time>2026-05-02T14:56:22Z</time></trkpt><trkpt lat="46.26046499620826" lon="12.033669683120033"><ele>780.0</ele><time>2026-05-02T14:56:23Z</time></trkpt><trkpt lat="46.260614091631375" lon="12.033591576333476"><ele>770.6666666666666</ele><time>2026-05-02T14:56:24Z</time></trkpt><trkpt lat="46.26076765981542" lon="12.033563150739525"><ele>761.3333333333333</ele><time>2026-05-02T14:56:25Z</time></trkpt><trkpt lat="46.260924502077486" lon="12.033559052571135"><ele>752.0</ele><time>2026-05-02T14:56:26Z</time></trkpt><trkpt lat="46.26108619220266" lon="12.033523986217753"><ele>752.0</ele><time>2026-05-02T14:56:27Z</time></trkpt><trkpt lat="46.26124187198406" lon="12.033458767380605"><ele>752.0</ele><time>2026-05-02T14:56:28Z</time></trkpt><trkpt lat="46.261394642158606" lon="12.033430109737743"><ele>752.0</ele><time>2026-05-02T14:56:29Z</time></trkpt><trkpt lat="46.261535682588175" lon="12.033423085298256"><ele>749.25</ele><time>2026-05-02T14:56:30Z</time></trkpt><trkpt lat="46.2616675743309" lon="12.033469916334726"><ele>746.5</ele><time>2026-05-02T14:56:31Z</time></trkpt><trkpt lat="46.26180344778143" lon="12.0335411556798"><ele>743.75</ele><time>2026-05-02T14:56:32Z</time></trkpt><trkpt lat="46.261939585406004" lon="12.033635771815163"><ele>741.0</ele><time>2026-05-02T14:56:33Z</time></trkpt><trkpt lat="46.26209505765226" lon="12.03369485456937"><ele>741.0</ele><time>2026-05-02T14:56:34Z</time></trkpt><trkpt lat="46.262254440473654" lon="12.033780253253832"><ele>741.0</ele><time>2026-05-02T14:56:35Z</time></trkpt><trkpt lat="46.26242569921533" lon="12.033844975596836"><ele>741.0</ele><time>2026-05-02T14:56:36Z</time></trkpt><trkpt lat="46.262584756315086" lon="12.033910386942585"><ele>745.3333333333334</ele><time>2026-05-02T14:56:37Z</time></trkpt><trkpt lat="46.262739741430025" lon="12.033968287364457"><ele>749.6666666666667</ele><time>2026-05-02T14:56:38Z</time></trkpt><trkpt lat="46.262896935574645" lon="12.034002795116272"><ele>754.0</ele><time>2026-05-02T14:56:39Z</time></trkpt><trkpt lat="46.26304821891242" lon="12.034016941542342"><ele>754.6666666666667</ele><time>2026-05-02T14:56:40Z</time></trkpt><trkpt lat="46.26321234282242" lon="12.034008744106956"><ele>755.3333333333334</ele><time>2026-05-02T14:56:41Z</time></trkpt><trkpt lat="46.26337922851016" lon="12.033996014553566"><ele>756.0</ele><time>2026-05-02T14:56:42Z</time></trkpt><trkpt lat="46.263537455750985" lon="12.033998793130351"><ele>756.0</ele><time>2026-05-02T14:56:43Z</time></trkpt><trkpt lat="46.26368781794527" lon="12.034043414826899"><ele>756.0</ele><time>2026-05-02T14:56:44Z</time></trkpt><trkpt lat="46.26384475504551" lon="12.034118175858882"><ele>756.0</ele><time>2026-05-02T14:56:45Z</time></trkpt><trkpt lat="46.2640061698416" lon="12.034207890604005"><ele>741.3333333333334</ele><time>2026-05-02T14:56:46Z</time></trkpt><trkpt lat="46.264161723359656" lon="12.03430046297603"><ele>726.6666666666667</ele><time>2026-05-02T14:56:47Z</time></trkpt><trkpt lat="46.264312047153155" lon="12.034378974621037"><ele>712.0</ele><time>2026-05-02T14:56:48Z</time></trkpt><trkpt lat="46.2644602548789" lon="12.034459390862391"><ele>712.0</ele><time>2026-05-02T14:56:49Z</time></trkpt><trkpt lat="46.264603439327516" lon="12.034517078915586"><ele>712.0</ele><time>2026-05-02T14:56:50Z</time></trkpt><trkpt lat="46.264753539151904" lon="12.034549808326446"><ele>712.0</ele><time>2026-05-02T14:56:51Z</time></trkpt><trkpt lat="46.26491580014508" lon="12.034573350595277"><ele>712.0</ele><time>2026-05-02T14:56:52Z</time></trkpt><trkpt lat="46.265086120237164" lon="12.034540530778912"><ele>712.0</ele><time>2026-05-02T14:56:53Z</time></trkpt><trkpt lat="46.265256992263424" lon="12.034476896809432"><ele>712.0</ele><time>2026-05-02T14:56:54Z</time></trkpt><trkpt lat="46.26543091097434" lon="12.034433305167571"><ele>712.0</ele><time>2026-05-02T14:56:55Z</time></trkpt><trkpt lat="46.26559852512514" lon="12.03439366057375"><ele>712.0</ele><time>2026-05-02T14:56:56.001Z</time></trkpt><trkpt lat="46.26575918185701" lon="12.03435540394581"><ele>712.0</ele><time>2026-05-02T14:56:57.001Z</time></trkpt><trkpt lat="46.265911171164156" lon="12.034308651267004"><ele>710.6666666666667</ele><time>2026-05-02T14:56:58.001Z</time></trkpt><trkpt lat="46.266068903142255" lon="12.034244565693932"><ele>709.3333333333334</ele><time>2026-05-02T14:56:59.001Z</time></trkpt><trkpt lat="46.266225815931236" lon="12.034139570597285"><ele>708.0</ele><time>2026-05-02T14:57:00.001Z</time></trkpt><trkpt lat="46.26639521998967" lon="12.034039924279163"><ele>710.3333333333334</ele><time>2026-05-02T14:57:01.001Z</time></trkpt><trkpt lat="46.26656445883974" lon="12.033918628552007"><ele>712.6666666666667</ele><time>2026-05-02T14:57:02.001Z</time></trkpt><trkpt lat="46.26671884806833" lon="12.03381362351073"><ele>715.0</ele><time>2026-05-02T14:57:03.001Z</time></trkpt><trkpt lat="46.26687581941553" lon="12.033713385166038"><ele>715.0</ele><time>2026-05-02T14:57:04.001Z</time></trkpt><trkpt lat="46.26702671825445" lon="12.03361904692042"><ele>715.0</ele><time>2026-05-02T14:57:05.001Z</time></trkpt><trkpt lat="46.26716751273879" lon="12.033514567119006"><ele>715.0</ele><time>2026-05-02T14:57:06.001Z</time></trkpt><trkpt lat="46.26729910556142" lon="12.033376629660742"><ele>710.5</ele><time>2026-05-02T14:57:07.001Z</time></trkpt><trkpt lat="46.267400312435726" lon="12.033217517145333"><ele>706.0</ele><time>2026-05-02T14:57:08.001Z</time></trkpt><trkpt lat="46.26747773787571" lon="12.033039392135173"><ele>701.5</ele><time>2026-05-02T14:57:09.001Z</time></trkpt><trkpt lat="46.26752739066103" lon="12.032869215126297"><ele>697.0</ele><time>2026-05-02T14:57:10.001Z</time></trkpt><trkpt lat="46.2675831082714" lon="12.032748093090149"><ele>697.0</ele><time>2026-05-02T14:57:11.001Z</time></trkpt><trkpt lat="46.26761554015101" lon="12.032655023695225"><ele>697.0</ele><time>2026-05-02T14:57:12.001Z</time></trkpt><trkpt lat="46.26768698436238" lon="12.032652492324823"><ele>697.0</ele><time>2026-05-02T14:57:13.001Z</time></trkpt><trkpt lat="46.267734329737614" lon="12.032724916421438"><ele>697.0</ele><time>2026-05-02T14:57:14.001Z</time></trkpt><trkpt lat="46.26772622051343" lon="12.032844771806822"><ele>697.0</ele><time>2026-05-02T14:57:15.001Z</time></trkpt><trkpt lat="46.267676557678406" lon="12.03300149680128"><ele>697.0</ele><time>2026-05-02T14:57:16.001Z</time></trkpt><trkpt lat="46.267589829711895" lon="12.033172238162328"><ele>693.3333333333334</ele><time>2026-05-02T14:57:17.001Z</time></trkpt><trkpt lat="46.26749146719509" lon="12.03333477389034"><ele>689.6666666666666</ele><time>2026-05-02T14:57:18.001Z</time></trkpt><trkpt lat="46.267389680813764" lon="12.033506512507078"><ele>686.0</ele><time>2026-05-02T14:57:19.001Z</time></trkpt><trkpt lat="46.26727496838876" lon="12.033671421688089"><ele>687.6666666666666</ele><time>2026-05-02T14:57:20.001Z</time></trkpt><trkpt lat="46.26714611780854" lon="12.033831542709018"><ele>689.3333333333334</ele><time>2026-05-02T14:57:21.001Z</time></trkpt><trkpt lat="46.267011093550515" lon="12.033987961335399"><ele>691.0</ele><time>2026-05-02T14:57:22.001Z</time></trkpt><trkpt lat="46.2668719925167" lon="12.034141404188142"><ele>691.0</ele><time>2026-05-02T14:57:23.001Z</time></trkpt><trkpt lat="46.266732211108945" lon="12.034299819455262"><ele>691.0</ele><time>2026-05-02T14:57:24.001Z</time></trkpt><trkpt lat="46.26660455035388" lon="12.034446975334745"><ele>691.0</ele><time>2026-05-02T14:57:25.001Z</time></trkpt><trkpt lat="46.26647148411493" lon="12.03457033661832"><ele>696.6666666666667</ele><time>2026-05-02T14:57:26.001Z</time></trkpt><trkpt lat="46.266330892131904" lon="12.034663017877563"><ele>702.3333333333334</ele><time>2026-05-02T14:57:27.001Z</time></trkpt><trkpt lat="46.266179135514335" lon="12.034743345125731"><ele>708.0</ele><time>2026-05-02T14:57:28.001Z</time></trkpt><trkpt lat="46.26602356139307" lon="12.034836837679995"><ele>708.0</ele><time>2026-05-02T14:57:29.001Z</time></trkpt><trkpt lat="46.265861440276616" lon="12.034934180552325"><ele>708.0</ele><time>2026-05-02T14:57:30.001Z</time></trkpt><trkpt lat="46.26569617206595" lon="12.035024803110419"><ele>708.0</ele><time>2026-05-02T14:57:31.001Z</time></trkpt><trkpt lat="46.26553665751883" lon="12.035113962084052"><ele>699.6666666666666</ele><time>2026-05-02T14:57:32.001Z</time></trkpt><trkpt lat="46.2653841844446" lon="12.035194150156089"><ele>691.3333333333333</ele><time>2026-05-02T14:57:33.001Z</time></trkpt><trkpt lat="46.26522475443086" lon="12.03525913314546"><ele>683.0</ele><time>2026-05-02T14:57:34.001Z</time></trkpt><trkpt lat="46.26505613317582" lon="12.035310700235929"><ele>683.0</ele><time>2026-05-02T14:57:35.001Z</time></trkpt><trkpt lat="46.2648998263291" lon="12.035359242513305"><ele>683.0</ele><time>2026-05-02T14:57:36.001Z</time></trkpt><trkpt lat="46.264749626775554" lon="12.035411319511098"><ele>683.0</ele><time>2026-05-02T14:57:37.001Z</time></trkpt><trkpt lat="46.264600301958964" lon="12.035464855221898"><ele>684.5</ele><time>2026-05-02T14:57:38.001Z</time></trkpt><trkpt lat="46.264451693523476" lon="12.035516279071757"><ele>686.0</ele><time>2026-05-02T14:57:39.001Z</time></trkpt><trkpt lat="46.264310733365974" lon="12.035579051673237"><ele>687.5</ele><time>2026-05-02T14:57:40Z</time></trkpt><trkpt lat="46.26417783184536" lon="12.035645560292537"><ele>689.0</ele><time>2026-05-02T14:57:41Z</time></trkpt><trkpt lat="46.264044123393894" lon="12.035697628765604"><ele>687.5</ele><time>2026-05-02T14:57:42Z</time></trkpt><trkpt lat="46.26392082862863" lon="12.03573354464054"><ele>686.0</ele><time>2026-05-02T14:57:43Z</time></trkpt><trkpt lat="46.263792859719125" lon="12.035763963587458"><ele>684.5</ele><time>2026-05-02T14:57:44Z</time></trkpt><trkpt lat="46.26366583001964" lon="12.035786465184614"><ele>683.0</ele><time>2026-05-02T14:57:45Z</time></trkpt><trkpt lat="46.263530922900735" lon="12.03573172918062"><ele>683.0</ele><time>2026-05-02T14:57:46Z</time></trkpt><trkpt lat="46.263388463795415" lon="12.035719355323149"><ele>683.0</ele><time>2026-05-02T14:57:47Z</time></trkpt><trkpt lat="46.26324464697687" lon="12.035689818836083"><ele>683.0</ele><time>2026-05-02T14:57:48Z</time></trkpt><trkpt lat="46.26310433703496" lon="12.035695544437585"><ele>683.0</ele><time>2026-05-02T14:57:49Z</time></trkpt><trkpt lat="46.26297252111973" lon="12.035723927512686"><ele>683.3333333333333</ele><time>2026-05-02T14:57:50Z</time></trkpt><trkpt lat="46.262859976555355" lon="12.035760235787647"><ele>683.6666666666666</ele><time>2026-05-02T14:57:51Z</time></trkpt><trkpt lat="46.26277552159697" lon="12.035799957677899"><ele>684.0</ele><time>2026-05-02T14:57:52Z</time></trkpt><trkpt lat="46.26272137945494" lon="12.035856211935487"><ele>684.3333333333334</ele><time>2026-05-02T14:57:53Z</time></trkpt><trkpt lat="46.26269415852702" lon="12.036011386062254"><ele>684.6666666666667</ele><time>2026-05-02T14:57:55Z</time></trkpt><trkpt lat="46.2627290166288" lon="12.03608794647595"><ele>685.0</ele><time>2026-05-02T14:57:56Z</time></trkpt><trkpt lat="46.26276623189821" lon="12.036163624248523"><ele>677.5</ele><time>2026-05-02T14:57:57Z</time></trkpt><trkpt lat="46.262914541600146" lon="12.03614985571102"><ele>670.0</ele><time>2026-05-02T14:57:58Z</time></trkpt><trkpt lat="46.26305085326513" lon="12.036136764054913"><ele>662.5</ele><time>2026-05-02T14:57:59Z</time></trkpt><trkpt lat="46.26319233337339" lon="12.036084115860294"><ele>655.0</ele><time>2026-05-02T14:58:00Z</time></trkpt><trkpt lat="46.26334269947421" lon="12.036047999557903"><ele>653.3333333333334</ele><time>2026-05-02T14:58:01Z</time></trkpt><trkpt lat="46.26350515362279" lon="12.036046180190358"><ele>651.6666666666666</ele><time>2026-05-02T14:58:02Z</time></trkpt><trkpt lat="46.26366822745853" lon="12.036115151490746"><ele>650.0</ele><time>2026-05-02T14:58:03Z</time></trkpt><trkpt lat="46.26385245521811" lon="12.036161755596797"><ele>649.3333333333333</ele><time>2026-05-02T14:58:04Z</time></trkpt><trkpt lat="46.264022826089814" lon="12.03624156267403"><ele>648.6666666666666</ele><time>2026-05-02T14:58:05Z</time></trkpt><trkpt lat="46.26418713957229" lon="12.03630825407459"><ele>648.0</ele><time>2026-05-02T14:58:06Z</time></trkpt><trkpt lat="46.26435010203004" lon="12.036369660946125"><ele>648.0</ele><time>2026-05-02T14:58:07Z</time></trkpt><trkpt lat="46.264511652570725" lon="12.036390074470201"><ele>648.0</ele><time>2026-05-02T14:58:08Z</time></trkpt><trkpt lat="46.26468955336511" lon="12.036351333079093"><ele>648.0</ele><time>2026-05-02T14:58:09Z</time></trkpt><trkpt lat="46.26487959230259" lon="12.03628409737282"><ele>646.0</ele><time>2026-05-02T14:58:10Z</time></trkpt><trkpt lat="46.265062597885674" lon="12.03622133930901"><ele>644.0</ele><time>2026-05-02T14:58:11Z</time></trkpt><trkpt lat="46.265237281534084" lon="12.036168087838348"><ele>642.0</ele><time>2026-05-02T14:58:12Z</time></trkpt><trkpt lat="46.26540255916283" lon="12.036124978461846"><ele>642.0</ele><time>2026-05-02T14:58:13Z</time></trkpt><trkpt lat="46.26557627348342" lon="12.036140125762541"><ele>642.0</ele><time>2026-05-02T14:58:14Z</time></trkpt><trkpt lat="46.26575464760618" lon="12.036178662565904"><ele>642.0</ele><time>2026-05-02T14:58:15Z</time></trkpt><trkpt lat="46.26593608315021" lon="12.036212636967178"><ele>639.3333333333334</ele><time>2026-05-02T14:58:16Z</time></trkpt><trkpt lat="46.26611963298549" lon="12.036234711375766"><ele>636.6666666666667</ele><time>2026-05-02T14:58:17Z</time></trkpt><trkpt lat="46.26629323184006" lon="12.036284976755905"><ele>634.0</ele><time>2026-05-02T14:58:18Z</time></trkpt><trkpt lat="46.26645790117314" lon="12.036315731566697"><ele>632.0</ele><time>2026-05-02T14:58:19Z</time></trkpt><trkpt lat="46.26662979691649" lon="12.036312326531093"><ele>630.0</ele><time>2026-05-02T14:58:20Z</time></trkpt><trkpt lat="46.26681149452824" lon="12.036249142748948"><ele>628.0</ele><time>2026-05-02T14:58:21Z</time></trkpt><trkpt lat="46.26700517869096" lon="12.036146124390532"><ele>628.0</ele><time>2026-05-02T14:58:22Z</time></trkpt><trkpt lat="46.2671727438776" lon="12.03604920836531"><ele>628.0</ele><time>2026-05-02T14:58:23Z</time></trkpt><trkpt lat="46.267344220982665" lon="12.035953163847783"><ele>628.0</ele><time>2026-05-02T14:58:24Z</time></trkpt><trkpt lat="46.26748221242804" lon="12.035811011830601"><ele>632.0</ele><time>2026-05-02T14:58:25Z</time></trkpt><trkpt lat="46.26761058009372" lon="12.035652191063814"><ele>636.0</ele><time>2026-05-02T14:58:26Z</time></trkpt><trkpt lat="46.267740286282475" lon="12.035542266371069"><ele>640.0</ele><time>2026-05-02T14:58:27Z</time></trkpt><trkpt lat="46.26789249247686" lon="12.03550474742915"><ele>640.0</ele><time>2026-05-02T14:58:28Z</time></trkpt><trkpt lat="46.26805150525227" lon="12.035503815411637"><ele>640.0</ele><time>2026-05-02T14:58:29Z</time></trkpt><trkpt lat="46.26821606739419" lon="12.035494496033508"><ele>640.0</ele><time>2026-05-02T14:58:30Z</time></trkpt><trkpt lat="46.268375201329725" lon="12.035471711001632"><ele>634.0</ele><time>2026-05-02T14:58:31Z</time></trkpt><trkpt lat="46.26853112849009" lon="12.035443991094619"><ele>628.0</ele><time>2026-05-02T14:58:32Z</time></trkpt><trkpt lat="46.26867970173386" lon="12.035401415090504"><ele>622.0</ele><time>2026-05-02T14:58:33Z</time></trkpt><trkpt lat="46.26882480061236" lon="12.035349153357494"><ele>617.25</ele><time>2026-05-02T14:58:34Z</time></trkpt><trkpt lat="46.26896700232584" lon="12.035293476737445"><ele>612.5</ele><time>2026-05-02T14:58:35Z</time></trkpt><trkpt lat="46.26910069791524" lon="12.035238840894692"><ele>607.75</ele><time>2026-05-02T14:58:36Z</time></trkpt><trkpt lat="46.26921319526557" lon="12.035186258329297"><ele>603.0</ele><time>2026-05-02T14:58:37Z</time></trkpt><trkpt lat="46.269298894724884" lon="12.035132750195782"><ele>603.0</ele><time>2026-05-02T14:58:38Z</time></trkpt><trkpt lat="46.269367481662215" lon="12.035079871233785"><ele>603.0</ele><time>2026-05-02T14:58:39Z</time></trkpt><trkpt lat="46.26943253336936" lon="12.035048081928998"><ele>603.0</ele><time>2026-05-02T14:58:40Z</time></trkpt><trkpt lat="46.2694923912225" lon="12.035092825703174"><ele>603.0</ele><time>2026-05-02T14:58:41Z</time></trkpt><trkpt lat="46.26954597311676" lon="12.035245013826366"><ele>603.0</ele><time>2026-05-02T14:58:43Z</time></trkpt><trkpt lat="46.269594819247956" lon="12.035336750418079"><ele>603.0</ele><time>2026-05-02T14:58:44Z</time></trkpt><trkpt lat="46.26963898981885" lon="12.035451613790121"><ele>603.0</ele><time>2026-05-02T14:58:45Z</time></trkpt><trkpt lat="46.26968443444772" lon="12.035579942383835"><ele>603.0</ele><time>2026-05-02T14:58:46Z</time></trkpt><trkpt lat="46.269718620250785" lon="12.035707401355735"><ele>603.0</ele><time>2026-05-02T14:58:47Z</time></trkpt><trkpt lat="46.26973489102534" lon="12.035852756496766"><ele>603.0</ele><time>2026-05-02T14:58:48Z</time></trkpt><trkpt lat="46.269788068143875" lon="12.035994401551054"><ele>603.0</ele><time>2026-05-02T14:58:49Z</time></trkpt><trkpt lat="46.26982429314299" lon="12.036151559941713"><ele>601.6666666666666</ele><time>2026-05-02T14:58:50Z</time></trkpt><trkpt lat="46.26985277922341" lon="12.036287835511049"><ele>600.3333333333334</ele><time>2026-05-02T14:58:51Z</time></trkpt><trkpt lat="46.26987466556691" lon="12.036396814222405"><ele>599.0</ele><time>2026-05-02T14:58:52Z</time></trkpt><trkpt lat="46.26989682204311" lon="12.03648951181909"><ele>597.6666666666667</ele><time>2026-05-02T14:58:53Z</time></trkpt><trkpt lat="46.269913492036885" lon="12.036583653270064"><ele>596.3333333333334</ele><time>2026-05-02T14:58:54Z</time></trkpt><trkpt lat="46.26992485888938" lon="12.036723140733907"><ele>595.0</ele><time>2026-05-02T14:58:55Z</time></trkpt><trkpt lat="46.26991389806434" lon="12.03690072534139"><ele>595.0</ele><time>2026-05-02T14:58:56Z</time></trkpt><trkpt lat="46.26989931203825" lon="12.037092862909905"><ele>595.0</ele><time>2026-05-02T14:58:57Z</time></trkpt><trkpt lat="46.26990650339985" lon="12.037294846288146"><ele>595.0</ele><time>2026-05-02T14:58:58Z</time></trkpt><trkpt lat="46.269942676814594" lon="12.03748118368082"><ele>595.0</ele><time>2026-05-02T14:58:59Z</time></trkpt><trkpt lat="46.26999459032639" lon="12.037665621284782"><ele>595.5</ele><time>2026-05-02T14:59:00Z</time></trkpt><trkpt lat="46.270069422694796" lon="12.037840333740316"><ele>596.0</ele><time>2026-05-02T14:59:01.001Z</time></trkpt><trkpt lat="46.270162833095796" lon="12.037991064677586"><ele>596.5</ele><time>2026-05-02T14:59:02.001Z</time></trkpt><trkpt lat="46.27027729236909" lon="12.038113214446165"><ele>597.0</ele><time>2026-05-02T14:59:03.001Z</time></trkpt><trkpt lat="46.270397840432096" lon="12.038222372105594"><ele>594.75</ele><time>2026-05-02T14:59:04.001Z</time></trkpt><trkpt lat="46.27050594085299" lon="12.038357225859961"><ele>592.5</ele><time>2026-05-02T14:59:05.001Z</time></trkpt><trkpt lat="46.27059169522332" lon="12.038527151350996"><ele>590.25</ele><time>2026-05-02T14:59:06.001Z</time></trkpt><trkpt lat="46.270646140208214" lon="12.038718390678083"><ele>588.0</ele><time>2026-05-02T14:59:07.001Z</time></trkpt><trkpt lat="46.27067232408151" lon="12.038919188640765"><ele>593.0</ele><time>2026-05-02T14:59:08.001Z</time></trkpt><trkpt lat="46.27067833489347" lon="12.039115625938665"><ele>598.0</ele><time>2026-05-02T14:59:09.001Z</time></trkpt><trkpt lat="46.27066699401898" lon="12.0393108131121"><ele>603.0</ele><time>2026-05-02T14:59:10.001Z</time></trkpt><trkpt lat="46.270654407527196" lon="12.039508568782365"><ele>608.0</ele><time>2026-05-02T14:59:11.001Z</time></trkpt><trkpt lat="46.270631178580636" lon="12.039710241381805"><ele>604.0</ele><time>2026-05-02T14:59:12.001Z</time></trkpt><trkpt lat="46.27058364502969" lon="12.039899373051417"><ele>600.0</ele><time>2026-05-02T14:59:13.001Z</time></trkpt><trkpt lat="46.270512907943456" lon="12.04006045770552"><ele>596.0</ele><time>2026-05-02T14:59:14.001Z</time></trkpt><trkpt lat="46.27041697849925" lon="12.040180695122212"><ele>592.0</ele><time>2026-05-02T14:59:15.001Z</time></trkpt><trkpt lat="46.27029725098665" lon="12.040250451854838"><ele>592.0</ele><time>2026-05-02T14:59:16.001Z</time></trkpt><trkpt lat="46.27016671669027" lon="12.040271102852769"><ele>592.0</ele><time>2026-05-02T14:59:17.001Z</time></trkpt><trkpt lat="46.27003863850164" lon="12.04022686234496"><ele>592.0</ele><time>2026-05-02T14:59:18.001Z</time></trkpt><trkpt lat="46.26992891331513" lon="12.040129896062087"><ele>592.0</ele><time>2026-05-02T14:59:19.001Z</time></trkpt><trkpt lat="46.26983877932026" lon="12.039982268980793"><ele>590.5</ele><time>2026-05-02T14:59:20.001Z</time></trkpt><trkpt lat="46.269779630751906" lon="12.039816938829206"><ele>589.0</ele><time>2026-05-02T14:59:21.001Z</time></trkpt><trkpt lat="46.26971742765692" lon="12.039682177533916"><ele>587.5</ele><time>2026-05-02T14:59:22.001Z</time></trkpt><trkpt lat="46.269629291852134" lon="12.039567566026612"><ele>586.0</ele><time>2026-05-02T14:59:23.001Z</time></trkpt><trkpt lat="46.269545529994" lon="12.039448598686448"><ele>586.0</ele><time>2026-05-02T14:59:24.001Z</time></trkpt><trkpt lat="46.26944121459677" lon="12.039362648812414"><ele>586.0</ele><time>2026-05-02T14:59:25.001Z</time></trkpt><trkpt lat="46.26933161564418" lon="12.03931455470312"><ele>586.0</ele><time>2026-05-02T14:59:26.001Z</time></trkpt><trkpt lat="46.269213580103916" lon="12.039295567656493"><ele>586.0</ele><time>2026-05-02T14:59:27.001Z</time></trkpt><trkpt lat="46.269091363388725" lon="12.039319753460797"><ele>586.0</ele><time>2026-05-02T14:59:28.001Z</time></trkpt><trkpt lat="46.26897091320334" lon="12.039381309582858"><ele>586.0</ele><time>2026-05-02T14:59:29.001Z</time></trkpt><trkpt lat="46.26885660931339" lon="12.03946203781136"><ele>586.0</ele><time>2026-05-02T14:59:30.001Z</time></trkpt><trkpt lat="46.26874316632986" lon="12.039541290930838"><ele>586.0</ele><time>2026-05-02T14:59:31.001Z</time></trkpt><trkpt lat="46.268624345593395" lon="12.03960968281376"><ele>583.0</ele><time>2026-05-02T14:59:32.001Z</time></trkpt><trkpt lat="46.26849894170824" lon="12.03966239919201"><ele>580.0</ele><time>2026-05-02T14:59:33.001Z</time></trkpt><trkpt lat="46.2683663905549" lon="12.039694172550982"><ele>577.0</ele><time>2026-05-02T14:59:34.001Z</time></trkpt><trkpt lat="46.26822529523437" lon="12.039709774301727"><ele>574.0</ele><time>2026-05-02T14:59:35.001Z</time></trkpt><trkpt lat="46.26807414511479" lon="12.039702647154622"><ele>573.0</ele><time>2026-05-02T14:59:36.001Z</time></trkpt><trkpt lat="46.26791130825959" lon="12.039675174331595"><ele>572.0</ele><time>2026-05-02T14:59:37.001Z</time></trkpt><trkpt lat="46.26774547015777" lon="12.0396269785415"><ele>571.0</ele><time>2026-05-02T14:59:38.001Z</time></trkpt><trkpt lat="46.26757379744605" lon="12.039568754684666"><ele>571.0</ele><time>2026-05-02T14:59:39.001Z</time></trkpt><trkpt lat="46.26739934582432" lon="12.039509093725277"><ele>571.0</ele><time>2026-05-02T14:59:40.001Z</time></trkpt><trkpt lat="46.26722300602028" lon="12.039448063516085"><ele>571.0</ele><time>2026-05-02T14:59:41.001Z</time></trkpt><trkpt lat="46.26704898019043" lon="12.039389576027913"><ele>572.0</ele><time>2026-05-02T14:59:42.001Z</time></trkpt><trkpt lat="46.266876806430425" lon="12.039332920173754"><ele>573.0</ele><time>2026-05-02T14:59:43.001Z</time></trkpt><trkpt lat="46.26669999673693" lon="12.039314058851396"><ele>574.0</ele><time>2026-05-02T14:59:44.001Z</time></trkpt><trkpt lat="46.266522948682635" lon="12.039341757468433"><ele>573.6666666666667</ele><time>2026-05-02T14:59:45.001Z</time></trkpt><trkpt lat="46.266342536792976" lon="12.039400061901366"><ele>573.3333333333334</ele><time>2026-05-02T14:59:46Z</time></trkpt><trkpt lat="46.266162882932605" lon="12.039485814672018"><ele>573.0</ele><time>2026-05-02T14:59:47Z</time></trkpt><trkpt lat="46.26598052793204" lon="12.03958465684491"><ele>573.0</ele><time>2026-05-02T14:59:48Z</time></trkpt><trkpt lat="46.26579205979266" lon="12.039683985006036"><ele>573.0</ele><time>2026-05-02T14:59:49Z</time></trkpt><trkpt lat="46.265605456514386" lon="12.039780749371301"><ele>573.0</ele><time>2026-05-02T14:59:50Z</time></trkpt><trkpt lat="46.265422110703305" lon="12.039876894076178"><ele>574.0</ele><time>2026-05-02T14:59:51Z</time></trkpt><trkpt lat="46.26524762427697" lon="12.039971852204479"><ele>575.0</ele><time>2026-05-02T14:59:52Z</time></trkpt><trkpt lat="46.26507535980083" lon="12.040064090422197"><ele>576.0</ele><time>2026-05-02T14:59:53Z</time></trkpt><trkpt lat="46.264898417061545" lon="12.040150213221857"><ele>575.6666666666666</ele><time>2026-05-02T14:59:54Z</time></trkpt><trkpt lat="46.26472124373543" lon="12.040219810139366"><ele>575.3333333333333</ele><time>2026-05-02T14:59:55Z</time></trkpt><trkpt lat="46.264541102336736" lon="12.040275084109405"><ele>575.0</ele><time>2026-05-02T14:59:56Z</time></trkpt><trkpt lat="46.26437300753044" lon="12.040314184209775"><ele>575.0</ele><time>2026-05-02T14:59:57Z</time></trkpt><trkpt lat="46.26421525880869" lon="12.040347274328363"><ele>575.0</ele><time>2026-05-02T14:59:58Z</time></trkpt><trkpt lat="46.26406298542293" lon="12.040382674759945"><ele>575.0</ele><time>2026-05-02T14:59:59Z</time></trkpt><trkpt lat="46.26391003567606" lon="12.040422957731877"><ele>573.75</ele><time>2026-05-02T15:00:00Z</time></trkpt><trkpt lat="46.263758924669325" lon="12.040463787994875"><ele>572.5</ele><time>2026-05-02T15:00:01Z</time></trkpt><trkpt lat="46.26361158960705" lon="12.040499923571263"><ele>571.25</ele><time>2026-05-02T15:00:02Z</time></trkpt><trkpt lat="46.26347113195662" lon="12.040531628196696"><ele>570.0</ele><time>2026-05-02T15:00:03Z</time></trkpt><trkpt lat="46.2633379790992" lon="12.040563551755499"><ele>570.0</ele><time>2026-05-02T15:00:04Z</time></trkpt><trkpt lat="46.26320929015056" lon="12.040596455744195"><ele>570.0</ele><time>2026-05-02T15:00:05Z</time></trkpt><trkpt lat="46.26308546138194" lon="12.040626537564707"><ele>570.0</ele><time>2026-05-02T15:00:06Z</time></trkpt><trkpt lat="46.26296616169539" lon="12.040654598493933"><ele>570.0</ele><time>2026-05-02T15:00:07Z</time></trkpt><trkpt lat="46.26285201034902" lon="12.0406797037126"><ele>567.5</ele><time>2026-05-02T15:00:08Z</time></trkpt><trkpt lat="46.26273117452372" lon="12.040706298792719"><ele>565.0</ele><time>2026-05-02T15:00:09Z</time></trkpt><trkpt lat="46.26260134060873" lon="12.04073813549604"><ele>562.5</ele><time>2026-05-02T15:00:10Z</time></trkpt><trkpt lat="46.26247166422438" lon="12.040767016857508"><ele>560.0</ele><time>2026-05-02T15:00:11Z</time></trkpt><trkpt lat="46.262335030578605" lon="12.040799086405915"><ele>562.75</ele><time>2026-05-02T15:00:12Z</time></trkpt><trkpt lat="46.26219529658951" lon="12.040828349640838"><ele>565.5</ele><time>2026-05-02T15:00:13Z</time></trkpt><trkpt lat="46.26205505247055" lon="12.040855219310275"><ele>568.25</ele><time>2026-05-02T15:00:14Z</time></trkpt><trkpt lat="46.26191262079518" lon="12.040888100814108"><ele>571.0</ele><time>2026-05-02T15:00:15Z</time></trkpt><trkpt lat="46.26176707208334" lon="12.040920704558383"><ele>571.0</ele><time>2026-05-02T15:00:16Z</time></trkpt><trkpt lat="46.26161948341611" lon="12.040957167945821"><ele>571.0</ele><time>2026-05-02T15:00:17Z</time></trkpt><trkpt lat="46.261466357194244" lon="12.04099619662355"><ele>571.0</ele><time>2026-05-02T15:00:18Z</time></trkpt><trkpt lat="46.261306022533944" lon="12.041032729489721"><ele>567.3333333333334</ele><time>2026-05-02T15:00:19Z</time></trkpt><trkpt lat="46.261144503056194" lon="12.041064751895238"><ele>563.6666666666666</ele><time>2026-05-02T15:00:20Z</time></trkpt><trkpt lat="46.26098417671447" lon="12.04110574206809"><ele>560.0</ele><time>2026-05-02T15:00:21Z</time></trkpt><trkpt lat="46.260817406960406" lon="12.041166966204429"><ele>560.0</ele><time>2026-05-02T15:00:22Z</time></trkpt><trkpt lat="46.26064901750862" lon="12.041249814438768"><ele>560.0</ele><time>2026-05-02T15:00:23Z</time></trkpt><trkpt lat="46.2604834806158" lon="12.041355043612995"><ele>560.0</ele><time>2026-05-02T15:00:24Z</time></trkpt><trkpt lat="46.260307588572914" lon="12.04146446878417"><ele>558.0</ele><time>2026-05-02T15:00:25Z</time></trkpt><trkpt lat="46.26012550876321" lon="12.041572687098517"><ele>556.0</ele><time>2026-05-02T15:00:26Z</time></trkpt><trkpt lat="46.25994211926358" lon="12.041695653899529"><ele>554.0</ele><time>2026-05-02T15:00:27Z</time></trkpt><trkpt lat="46.259763860178964" lon="12.04183970691648"><ele>552.3333333333333</ele><time>2026-05-02T15:00:28Z</time></trkpt><trkpt lat="46.259591323232065" lon="12.042020760620954"><ele>550.6666666666666</ele><time>2026-05-02T15:00:29Z</time></trkpt><trkpt lat="46.25942752332092" lon="12.042222229414051"><ele>549.0</ele><time>2026-05-02T15:00:30Z</time></trkpt><trkpt lat="46.259273635197495" lon="12.04241824561464"><ele>546.3333333333334</ele><time>2026-05-02T15:00:31Z</time></trkpt><trkpt lat="46.259123254200325" lon="12.042612055284055"><ele>543.6666666666667</ele><time>2026-05-02T15:00:32Z</time></trkpt><trkpt lat="46.25897804370374" lon="12.04281641677805"><ele>541.0</ele><time>2026-05-02T15:00:33Z</time></trkpt><trkpt lat="46.258843577271314" lon="12.04303619889785"><ele>541.0</ele><time>2026-05-02T15:00:34Z</time></trkpt><trkpt lat="46.25872157503907" lon="12.043267652799909"><ele>541.0</ele><time>2026-05-02T15:00:35Z</time></trkpt><trkpt lat="46.258603575621365" lon="12.0435042069414"><ele>541.0</ele><time>2026-05-02T15:00:36Z</time></trkpt><trkpt lat="46.2584882971385" lon="12.043731187170108"><ele>541.3333333333334</ele><time>2026-05-02T15:00:37Z</time></trkpt><trkpt lat="46.25837702610359" lon="12.043962815420398"><ele>541.6666666666666</ele><time>2026-05-02T15:00:38Z</time></trkpt><trkpt lat="46.25828282078166" lon="12.044206486992898"><ele>542.0</ele><time>2026-05-02T15:00:39Z</time></trkpt><trkpt lat="46.25820931100771" lon="12.044474974856817"><ele>541.3333333333333</ele><time>2026-05-02T15:00:40Z</time></trkpt><trkpt lat="46.258146151919256" lon="12.04474979504637"><ele>540.6666666666666</ele><time>2026-05-02T15:00:41Z</time></trkpt><trkpt lat="46.25808826188681" lon="12.045026484116157"><ele>540.0</ele><time>2026-05-02T15:00:42Z</time></trkpt><trkpt lat="46.25802600572368" lon="12.04529977564061"><ele>540.0</ele><time>2026-05-02T15:00:43Z</time></trkpt><trkpt lat="46.2579609340936" lon="12.045576175712288"><ele>540.0</ele><time>2026-05-02T15:00:44Z</time></trkpt><trkpt lat="46.25788563025154" lon="12.045850821144017"><ele>540.0</ele><time>2026-05-02T15:00:45Z</time></trkpt><trkpt lat="46.25779818396432" lon="12.046128308295406"><ele>539.3333333333334</ele><time>2026-05-02T15:00:46Z</time></trkpt><trkpt lat="46.25770298598458" lon="12.046401527755528"><ele>538.6666666666667</ele><time>2026-05-02T15:00:47Z</time></trkpt><trkpt lat="46.25760556192312" lon="12.046675015917124"><ele>538.0</ele><time>2026-05-02T15:00:48Z</time></trkpt><trkpt lat="46.25751088768589" lon="12.046945434583055"><ele>544.0</ele><time>2026-05-02T15:00:49Z</time></trkpt></trkseg></trk></gpx>